<?xml version='1.0' encoding='UTF-8'?><gpx version="1.1" creator="JPX - https://github.com/jenetics/jpx" xmlns="http://www.topografix.com/GPX/1/1"><trk><trkseg><trkpt lat="39.26065492858776" lon="9.14464017125898"><ele>12.999999999999998</ele><time>2026-04-20T12:57:09.009Z</time></trkpt><trkpt lat="39.26059011108053" lon="9.144489530886956"><ele>13.0</ele><time>2026-04-20T12:57:28.002Z</time></trkpt><trkpt lat="39.260553870831" lon="9.14458818977761"><ele>13.0</ele><time>2026-04-20T12:58:06Z</time></trkpt><trkpt lat="39.26063056947876" lon="9.144584229267563"><ele>13.0</ele><time>2026-04-20T12:58:45Z</time></trkpt><trkpt lat="39.26067975574507" lon="9.1445131087006"><ele>12.999999999999998</ele><time>2026-04-20T12:58:53Z</time></trkpt><trkpt lat="39.26073896956752" lon="9.144455900442923"><ele>13.0</ele><time>2026-04-20T12:58:58Z</time></trkpt><trkpt lat="39.260808798159374" lon="9.144413695666103"><ele>12.999999999999998</ele><time>2026-04-20T12:59:24Z</time></trkpt><trkpt lat="39.26082420361366" lon="9.1443228801136"><ele>13.0</ele><time>2026-04-20T12:59:30Z</time></trkpt><trkpt lat="39.26072815703779" lon="9.144287167246498"><ele>13.0</ele><time>2026-04-20T12:59:33Z</time></trkpt><trkpt lat="39.26067679032384" lon="9.144215035858721"><ele>13.0</ele><time>2026-04-20T12:59:36Z</time></trkpt><trkpt lat="39.26062606931042" lon="9.14411682775899"><ele>12.999999999999998</ele><time>2026-04-20T12:59:39Z</time></trkpt><trkpt lat="39.260588707553524" lon="9.144018831109744"><ele>13.0</ele><time>2026-04-20T12:59:42Z</time></trkpt><trkpt lat="39.26054281756567" lon="9.143933753752908"><ele>12.833333333333332</ele><time>2026-04-20T12:59:45Z</time></trkpt><trkpt lat="39.26046535745864" lon="9.143883512011962"><ele>12.666666666666666</ele><time>2026-04-20T12:59:48Z</time></trkpt><trkpt lat="39.26040508228608" lon="9.143851986571116"><ele>12.5</ele><time>2026-04-20T12:59:51Z</time></trkpt><trkpt lat="39.26030437441044" lon="9.143803691913893"><ele>12.333333333333332</ele><time>2026-04-20T12:59:54Z</time></trkpt><trkpt lat="39.26021879042846" lon="9.143771346277925"><ele>12.166666666666666</ele><time>2026-04-20T12:59:57Z</time></trkpt><trkpt lat="39.260151363743816" lon="9.143747073683286"><ele>12.0</ele><time>2026-04-20T13:00:00Z</time></trkpt><trkpt lat="39.26008968027025" lon="9.143702836726453"><ele>12.0</ele><time>2026-04-20T13:00:02Z</time></trkpt><trkpt lat="39.26002845651946" lon="9.143672636752004"><ele>12.0</ele><time>2026-04-20T13:00:04Z</time></trkpt><trkpt lat="39.25995425362337" lon="9.143738266739302"><ele>12.0</ele><time>2026-04-20T13:00:08Z</time></trkpt><trkpt lat="39.25993585892925" lon="9.14388152962839"><ele>12.0</ele><time>2026-04-20T13:00:11Z</time></trkpt><trkpt lat="39.25992303112768" lon="9.143973993767943"><ele>12.0</ele><time>2026-04-20T13:00:13Z</time></trkpt><trkpt lat="39.259906756951644" lon="9.14411077842307"><ele>12.0</ele><time>2026-04-20T13:00:16Z</time></trkpt><trkpt lat="39.259856385604024" lon="9.144163172448057"><ele>12.0</ele><time>2026-04-20T13:00:17Z</time></trkpt><trkpt lat="39.25990207788293" lon="9.144271520406619"><ele>12.0</ele><time>2026-04-20T13:00:19Z</time></trkpt><trkpt lat="39.259978560786365" lon="9.144339635420803"><ele>12.0</ele><time>2026-04-20T13:00:21Z</time></trkpt><trkpt lat="39.260027770331554" lon="9.144437366639318"><ele>12.0</ele><time>2026-04-20T13:00:23Z</time></trkpt><trkpt lat="39.26006273719279" lon="9.144539674112256"><ele>12.0</ele><time>2026-04-20T13:00:25Z</time></trkpt><trkpt lat="39.26010190763453" lon="9.144641845030812"><ele>12.0</ele><time>2026-04-20T13:00:27Z</time></trkpt><trkpt lat="39.260136351538556" lon="9.144727431194667"><ele>12.0</ele><time>2026-04-20T13:00:29Z</time></trkpt><trkpt lat="39.26018493552248" lon="9.144800902605564"><ele>12.0</ele><time>2026-04-20T13:00:31Z</time></trkpt><trkpt lat="39.2602278793463" lon="9.14488457349798"><ele>12.0</ele><time>2026-04-20T13:00:33Z</time></trkpt><trkpt lat="39.26028943683227" lon="9.144980084835698"><ele>12.0</ele><time>2026-04-20T13:00:36Z</time></trkpt><trkpt lat="39.26033351539638" lon="9.145047669881416"><ele>12.0</ele><time>2026-04-20T13:00:38Z</time></trkpt><trkpt lat="39.26035312824085" lon="9.145135456769934"><ele>11.833333333333334</ele><time>2026-04-20T13:00:41Z</time></trkpt><trkpt lat="39.26027061338955" lon="9.145176451338141"><ele>11.666666666666666</ele><time>2026-04-20T13:00:46Z</time></trkpt><trkpt lat="39.260185156454234" lon="9.14516413728483"><ele>11.5</ele><time>2026-04-20T13:00:50Z</time></trkpt><trkpt lat="39.2601211775215" lon="9.145184912104606"><ele>11.333333333333332</ele><time>2026-04-20T13:00:53Z</time></trkpt><trkpt lat="39.26003758190844" lon="9.145205006801081"><ele>11.166666666666666</ele><time>2026-04-20T13:00:56Z</time></trkpt><trkpt lat="39.259964838577915" lon="9.145214796187714"><ele>11.0</ele><time>2026-04-20T13:00:58Z</time></trkpt><trkpt lat="39.259881809470805" lon="9.145233582899163"><ele>11.0</ele><time>2026-04-20T13:01:00Z</time></trkpt><trkpt lat="39.25979020027853" lon="9.145256144031622"><ele>11.0</ele><time>2026-04-20T13:01:03Z</time></trkpt><trkpt lat="39.25971574560794" lon="9.145311007342654"><ele>11.0</ele><time>2026-04-20T13:01:06Z</time></trkpt><trkpt lat="39.25963494094198" lon="9.145340428298361"><ele>11.0</ele><time>2026-04-20T13:01:09Z</time></trkpt><trkpt lat="39.25956428685566" lon="9.145396351150662"><ele>11.0</ele><time>2026-04-20T13:01:12Z</time></trkpt><trkpt lat="39.25949029534613" lon="9.145410236938577"><ele>11.0</ele><time>2026-04-20T13:01:14Z</time></trkpt><trkpt lat="39.25941738297795" lon="9.145464164004727"><ele>11.166666666666666</ele><time>2026-04-20T13:01:18Z</time></trkpt><trkpt lat="39.25934184445699" lon="9.145522920871468"><ele>11.333333333333332</ele><time>2026-04-20T13:01:22Z</time></trkpt><trkpt lat="39.259270786942075" lon="9.14557602476847"><ele>11.5</ele><time>2026-04-20T13:01:25Z</time></trkpt><trkpt lat="39.25921170436758" lon="9.145605612820768"><ele>11.666666666666666</ele><time>2026-04-20T13:01:27Z</time></trkpt><trkpt lat="39.25912470912495" lon="9.145647515515995"><ele>11.833333333333334</ele><time>2026-04-20T13:01:30Z</time></trkpt><trkpt lat="39.25904111401018" lon="9.14570088495831"><ele>12.0</ele><time>2026-04-20T13:01:33Z</time></trkpt><trkpt lat="39.25897582641443" lon="9.1457741746304"><ele>12.0</ele><time>2026-04-20T13:01:36Z</time></trkpt><trkpt lat="39.25889992108573" lon="9.14578987332153"><ele>12.0</ele><time>2026-04-20T13:01:38Z</time></trkpt><trkpt lat="39.25886752180377" lon="9.145869141986406"><ele>12.0</ele><time>2026-04-20T13:01:40Z</time></trkpt><trkpt lat="39.25893603164653" lon="9.145955784516534"><ele>12.0</ele><time>2026-04-20T13:01:42Z</time></trkpt><trkpt lat="39.259008831033654" lon="9.146008173903676"><ele>12.0</ele><time>2026-04-20T13:01:44Z</time></trkpt><trkpt lat="39.259057317771166" lon="9.146084304385171"><ele>12.0</ele><time>2026-04-20T13:01:46Z</time></trkpt><trkpt lat="39.2591151819049" lon="9.146154726245435"><ele>11.833333333333334</ele><time>2026-04-20T13:01:48Z</time></trkpt><trkpt lat="39.259155427823266" lon="9.146236053582601"><ele>11.666666666666666</ele><time>2026-04-20T13:01:50Z</time></trkpt><trkpt lat="39.259214316286865" lon="9.146300906459516"><ele>11.5</ele><time>2026-04-20T13:01:52Z</time></trkpt><trkpt lat="39.25929104730835" lon="9.146394032348505"><ele>11.333333333333332</ele><time>2026-04-20T13:01:55Z</time></trkpt><trkpt lat="39.259350276423596" lon="9.146512301579431"><ele>11.166666666666666</ele><time>2026-04-20T13:01:58Z</time></trkpt><trkpt lat="39.25940823155948" lon="9.14655771772563"><ele>11.0</ele><time>2026-04-20T13:02:00Z</time></trkpt><trkpt lat="39.25944727441671" lon="9.146632456622703"><ele>11.0</ele><time>2026-04-20T13:02:02Z</time></trkpt><trkpt lat="39.25949544499454" lon="9.146723714595852"><ele>11.0</ele><time>2026-04-20T13:02:04Z</time></trkpt><trkpt lat="39.259533838405716" lon="9.146799711267597"><ele>11.0</ele><time>2026-04-20T13:02:06Z</time></trkpt><trkpt lat="39.25956885310873" lon="9.146889023957403"><ele>11.0</ele><time>2026-04-20T13:02:08Z</time></trkpt><trkpt lat="39.259604738002736" lon="9.1469631926832"><ele>11.0</ele><time>2026-04-20T13:02:10Z</time></trkpt><trkpt lat="39.259655825985504" lon="9.14704626129154"><ele>11.0</ele><time>2026-04-20T13:02:12Z</time></trkpt><trkpt lat="39.25971663715527" lon="9.147131169414804"><ele>11.0</ele><time>2026-04-20T13:02:14Z</time></trkpt><trkpt lat="39.25977553137693" lon="9.14721040854411"><ele>11.0</ele><time>2026-04-20T13:02:16Z</time></trkpt><trkpt lat="39.25982484439507" lon="9.147277723760164"><ele>11.0</ele><time>2026-04-20T13:02:18Z</time></trkpt><trkpt lat="39.259875973930114" lon="9.147356786835461"><ele>11.0</ele><time>2026-04-20T13:02:20Z</time></trkpt><trkpt lat="39.25992490959963" lon="9.14743673752019"><ele>11.0</ele><time>2026-04-20T13:02:22Z</time></trkpt><trkpt lat="39.25996434484099" lon="9.147517665692144"><ele>11.0</ele><time>2026-04-20T13:02:24Z</time></trkpt><trkpt lat="39.2600158197554" lon="9.147602694968711"><ele>11.0</ele><time>2026-04-20T13:02:26Z</time></trkpt><trkpt lat="39.26006772819733" lon="9.147685791905909"><ele>11.0</ele><time>2026-04-20T13:02:28Z</time></trkpt><trkpt lat="39.26010777506686" lon="9.147761521277493"><ele>11.0</ele><time>2026-04-20T13:02:30Z</time></trkpt><trkpt lat="39.26016942458774" lon="9.147833601546463"><ele>11.0</ele><time>2026-04-20T13:02:32Z</time></trkpt><trkpt lat="39.26022487072896" lon="9.147891061924936"><ele>11.0</ele><time>2026-04-20T13:02:34Z</time></trkpt><trkpt lat="39.26027127298233" lon="9.147974498311942"><ele>11.0</ele><time>2026-04-20T13:02:36Z</time></trkpt><trkpt lat="39.26033394212328" lon="9.148024368157431"><ele>11.0</ele><time>2026-04-20T13:02:38Z</time></trkpt><trkpt lat="39.26039160102044" lon="9.148076511385945"><ele>11.0</ele><time>2026-04-20T13:02:40Z</time></trkpt><trkpt lat="39.26044007771541" lon="9.148155138626237"><ele>11.0</ele><time>2026-04-20T13:02:42Z</time></trkpt><trkpt lat="39.26049644292707" lon="9.14821339313655"><ele>11.0</ele><time>2026-04-20T13:02:44Z</time></trkpt><trkpt lat="39.260564894466555" lon="9.148274556358908"><ele>11.0</ele><time>2026-04-20T13:02:46Z</time></trkpt><trkpt lat="39.26061530441534" lon="9.148371372293434"><ele>11.0</ele><time>2026-04-20T13:02:48Z</time></trkpt><trkpt lat="39.260659692439866" lon="9.148442437930255"><ele>11.333333333333332</ele><time>2026-04-20T13:02:50Z</time></trkpt><trkpt lat="39.2607346382626" lon="9.148484064154411"><ele>11.666666666666666</ele><time>2026-04-20T13:02:52Z</time></trkpt><trkpt lat="39.260796809008916" lon="9.14853869895746"><ele>12.0</ele><time>2026-04-20T13:02:54Z</time></trkpt><trkpt lat="39.260862282671184" lon="9.148624684727125"><ele>12.333333333333332</ele><time>2026-04-20T13:02:57Z</time></trkpt><trkpt lat="39.260940167224014" lon="9.148697441879836"><ele>12.666666666666666</ele><time>2026-04-20T13:03:00Z</time></trkpt><trkpt lat="39.26099829056058" lon="9.148741818234834"><ele>13.0</ele><time>2026-04-20T13:03:02Z</time></trkpt><trkpt lat="39.26106535896576" lon="9.148780561467486"><ele>12.999999999999998</ele><time>2026-04-20T13:03:04Z</time></trkpt><trkpt lat="39.26112795356821" lon="9.148820769452943"><ele>13.0</ele><time>2026-04-20T13:03:06Z</time></trkpt><trkpt lat="39.261203795179775" lon="9.148890545118467"><ele>13.0</ele><time>2026-04-20T13:03:09Z</time></trkpt><trkpt lat="39.261287801771196" lon="9.148959719382939"><ele>13.0</ele><time>2026-04-20T13:03:12Z</time></trkpt><trkpt lat="39.26132900925331" lon="9.149037951608683"><ele>12.999999999999998</ele><time>2026-04-20T13:03:14Z</time></trkpt><trkpt lat="39.26139757530777" lon="9.14911712319832"><ele>13.0</ele><time>2026-04-20T13:03:17Z</time></trkpt><trkpt lat="39.26145482849925" lon="9.149163045387198"><ele>13.285714285714285</ele><time>2026-04-20T13:03:19Z</time></trkpt><trkpt lat="39.26151597368655" lon="9.149212188899709"><ele>13.571428571428573</ele><time>2026-04-20T13:03:21Z</time></trkpt><trkpt lat="39.26157413811737" lon="9.149261207703834"><ele>13.857142857142858</ele><time>2026-04-20T13:03:23Z</time></trkpt><trkpt lat="39.26163452152288" lon="9.149307198613798"><ele>14.142857142857142</ele><time>2026-04-20T13:03:25Z</time></trkpt><trkpt lat="39.26168940329928" lon="9.149367052272936"><ele>14.428571428571427</ele><time>2026-04-20T13:03:27Z</time></trkpt><trkpt lat="39.261747593381415" lon="9.149429436682937"><ele>14.714285714285715</ele><time>2026-04-20T13:03:29Z</time></trkpt><trkpt lat="39.26182114348262" lon="9.1494655277506"><ele>15.0</ele><time>2026-04-20T13:03:31Z</time></trkpt><trkpt lat="39.26187778403885" lon="9.1495411169908"><ele>15.0</ele><time>2026-04-20T13:03:33Z</time></trkpt><trkpt lat="39.261927677271814" lon="9.149616111606477"><ele>15.0</ele><time>2026-04-20T13:03:35Z</time></trkpt><trkpt lat="39.261990835545674" lon="9.14966704333519"><ele>15.0</ele><time>2026-04-20T13:03:37Z</time></trkpt><trkpt lat="39.26204577281366" lon="9.149728738406557"><ele>15.0</ele><time>2026-04-20T13:03:39Z</time></trkpt><trkpt lat="39.262092194333036" lon="9.14979885928842"><ele>15.0</ele><time>2026-04-20T13:03:41Z</time></trkpt><trkpt lat="39.26214922826512" lon="9.149859070920051"><ele>15.0</ele><time>2026-04-20T13:03:43Z</time></trkpt><trkpt lat="39.262219841553346" lon="9.149903134506722"><ele>15.0</ele><time>2026-04-20T13:03:45Z</time></trkpt><trkpt lat="39.2622881599481" lon="9.149958937142012"><ele>14.833333333333334</ele><time>2026-04-20T13:03:47Z</time></trkpt><trkpt lat="39.26235152558373" lon="9.150001696328927"><ele>14.666666666666668</ele><time>2026-04-20T13:03:49Z</time></trkpt><trkpt lat="39.26241364623326" lon="9.15005942091892"><ele>14.5</ele><time>2026-04-20T13:03:51Z</time></trkpt><trkpt lat="39.26248175223593" lon="9.150106342562525"><ele>14.333333333333334</ele><time>2026-04-20T13:03:53Z</time></trkpt><trkpt lat="39.26254244721347" lon="9.150167133132086"><ele>14.166666666666668</ele><time>2026-04-20T13:03:55Z</time></trkpt><trkpt lat="39.262607504153046" lon="9.150220669747528"><ele>14.0</ele><time>2026-04-20T13:03:57Z</time></trkpt><trkpt lat="39.26266966092524" lon="9.150267844848447"><ele>14.0</ele><time>2026-04-20T13:03:59Z</time></trkpt><trkpt lat="39.262680458092845" lon="9.150375382351543"><ele>14.0</ele><time>2026-04-20T13:04:02Z</time></trkpt><trkpt lat="39.26264528960524" lon="9.150452855275342"><ele>14.0</ele><time>2026-04-20T13:04:04Z</time></trkpt><trkpt lat="39.26260175373363" lon="9.150519707565797"><ele>14.0</ele><time>2026-04-20T13:04:06Z</time></trkpt><trkpt lat="39.26255093361169" lon="9.150581332857854"><ele>14.0</ele><time>2026-04-20T13:04:08Z</time></trkpt><trkpt lat="39.26250006129371" lon="9.150641412565646"><ele>14.0</ele><time>2026-04-20T13:04:10Z</time></trkpt><trkpt lat="39.26244790521101" lon="9.150706060590876"><ele>14.0</ele><time>2026-04-20T13:04:12Z</time></trkpt><trkpt lat="39.262399703075424" lon="9.15077489334409"><ele>13.833333333333334</ele><time>2026-04-20T13:04:14Z</time></trkpt><trkpt lat="39.2623419089269" lon="9.150836310826824"><ele>13.666666666666668</ele><time>2026-04-20T13:04:16Z</time></trkpt><trkpt lat="39.26228901617583" lon="9.150900250314248"><ele>13.5</ele><time>2026-04-20T13:04:18Z</time></trkpt><trkpt lat="39.26223640095205" lon="9.150967462191069"><ele>13.333333333333332</ele><time>2026-04-20T13:04:20Z</time></trkpt><trkpt lat="39.262184822568685" lon="9.15104450395651"><ele>13.166666666666666</ele><time>2026-04-20T13:04:22Z</time></trkpt><trkpt lat="39.26213092650515" lon="9.151118728035312"><ele>13.0</ele><time>2026-04-20T13:04:24Z</time></trkpt><trkpt lat="39.26207101528423" lon="9.151180894033818"><ele>12.999999999999998</ele><time>2026-04-20T13:04:26Z</time></trkpt><trkpt lat="39.262010449739435" lon="9.151234484393466"><ele>13.0</ele><time>2026-04-20T13:04:28Z</time></trkpt><trkpt lat="39.261952205324555" lon="9.151303158297662"><ele>13.0</ele><time>2026-04-20T13:04:30Z</time></trkpt><trkpt lat="39.26189290314951" lon="9.151363710018092"><ele>13.0</ele><time>2026-04-20T13:04:32Z</time></trkpt><trkpt lat="39.26183099521545" lon="9.151427218823935"><ele>12.999999999999998</ele><time>2026-04-20T13:04:34Z</time></trkpt><trkpt lat="39.2617710776608" lon="9.151485674967391"><ele>13.0</ele><time>2026-04-20T13:04:36Z</time></trkpt><trkpt lat="39.26170761815231" lon="9.151546725933189"><ele>12.999999999999998</ele><time>2026-04-20T13:04:38Z</time></trkpt><trkpt lat="39.2616442245204" lon="9.151604981555549"><ele>13.0</ele><time>2026-04-20T13:04:40Z</time></trkpt><trkpt lat="39.26158617925967" lon="9.151661148773227"><ele>13.0</ele><time>2026-04-20T13:04:42Z</time></trkpt><trkpt lat="39.261528016115" lon="9.151711843328862"><ele>13.0</ele><time>2026-04-20T13:04:44Z</time></trkpt><trkpt lat="39.26147466739683" lon="9.151762266043333"><ele>12.999999999999998</ele><time>2026-04-20T13:04:47Z</time></trkpt><trkpt lat="39.26139582231153" lon="9.151816291989224"><ele>13.0</ele><time>2026-04-20T13:04:49Z</time></trkpt><trkpt lat="39.26133014949673" lon="9.151874828163983"><ele>13.833333333333332</ele><time>2026-04-20T13:04:51Z</time></trkpt><trkpt lat="39.261261612539" lon="9.151926054420548"><ele>14.666666666666666</ele><time>2026-04-20T13:04:53Z</time></trkpt><trkpt lat="39.26119743056191" lon="9.15197097821214"><ele>15.5</ele><time>2026-04-20T13:04:55Z</time></trkpt><trkpt lat="39.261120844599525" lon="9.152003852663164"><ele>16.333333333333332</ele><time>2026-04-20T13:04:59Z</time></trkpt><trkpt lat="39.26103863411525" lon="9.15206720285926"><ele>17.166666666666668</ele><time>2026-04-20T13:05:02Z</time></trkpt><trkpt lat="39.26097454452474" lon="9.152109530657757"><ele>18.0</ele><time>2026-04-20T13:05:04Z</time></trkpt><trkpt lat="39.26088636323551" lon="9.152192720083084"><ele>18.0</ele><time>2026-04-20T13:05:06Z</time></trkpt><trkpt lat="39.26081045303203" lon="9.152266897036004"><ele>18.0</ele><time>2026-04-20T13:05:08Z</time></trkpt><trkpt lat="39.26073896292433" lon="9.152333891292288"><ele>18.0</ele><time>2026-04-20T13:05:10Z</time></trkpt><trkpt lat="39.2606616099979" lon="9.152405363525318"><ele>18.0</ele><time>2026-04-20T13:05:12Z</time></trkpt><trkpt lat="39.26058442915146" lon="9.152471474054996"><ele>18.0</ele><time>2026-04-20T13:05:14Z</time></trkpt><trkpt lat="39.26051268825443" lon="9.152524155615152"><ele>16.666666666666668</ele><time>2026-04-20T13:05:16Z</time></trkpt><trkpt lat="39.26043929551712" lon="9.152574971779385"><ele>15.333333333333334</ele><time>2026-04-20T13:05:18Z</time></trkpt><trkpt lat="39.260369110516365" lon="9.152625758365343"><ele>14.0</ele><time>2026-04-20T13:05:20Z</time></trkpt><trkpt lat="39.260295060970876" lon="9.152669925898532"><ele>12.666666666666668</ele><time>2026-04-20T13:05:22Z</time></trkpt><trkpt lat="39.26022072897011" lon="9.152726833697663"><ele>11.333333333333334</ele><time>2026-04-20T13:05:24Z</time></trkpt><trkpt lat="39.26015446752847" lon="9.152781886161444"><ele>10.0</ele><time>2026-04-20T13:05:26Z</time></trkpt><trkpt lat="39.26008606674009" lon="9.152836776173487"><ele>10.0</ele><time>2026-04-20T13:05:28Z</time></trkpt><trkpt lat="39.26001901805698" lon="9.152892507483113"><ele>10.0</ele><time>2026-04-20T13:05:30Z</time></trkpt><trkpt lat="39.25995377343002" lon="9.15295591002731"><ele>10.0</ele><time>2026-04-20T13:05:32Z</time></trkpt><trkpt lat="39.25988611930259" lon="9.1530236445365"><ele>10.0</ele><time>2026-04-20T13:05:34Z</time></trkpt><trkpt lat="39.25982004293041" lon="9.153091484901301"><ele>10.0</ele><time>2026-04-20T13:05:36Z</time></trkpt><trkpt lat="39.25975517894969" lon="9.153156838228599"><ele>10.0</ele><time>2026-04-20T13:05:38Z</time></trkpt><trkpt lat="39.25968740278103" lon="9.153224308160508"><ele>10.5</ele><time>2026-04-20T13:05:40Z</time></trkpt><trkpt lat="39.25961930232992" lon="9.153275926339361"><ele>11.0</ele><time>2026-04-20T13:05:42Z</time></trkpt><trkpt lat="39.259557040698276" lon="9.153341550460558"><ele>11.5</ele><time>2026-04-20T13:05:44Z</time></trkpt><trkpt lat="39.25948940272433" lon="9.153405114504018"><ele>12.0</ele><time>2026-04-20T13:05:46Z</time></trkpt><trkpt lat="39.259425886772185" lon="9.153453618771772"><ele>12.499999999999998</ele><time>2026-04-20T13:05:48Z</time></trkpt><trkpt lat="39.259356017177616" lon="9.15351083716011"><ele>13.0</ele><time>2026-04-20T13:05:50Z</time></trkpt><trkpt lat="39.25927548759183" lon="9.15354950463082"><ele>12.999999999999998</ele><time>2026-04-20T13:05:52Z</time></trkpt><trkpt lat="39.25920772368868" lon="9.153606436865617"><ele>13.0</ele><time>2026-04-20T13:05:54Z</time></trkpt><trkpt lat="39.25914569885038" lon="9.15368390888854"><ele>13.0</ele><time>2026-04-20T13:05:56Z</time></trkpt><trkpt lat="39.25907601168294" lon="9.153739050295822"><ele>13.0</ele><time>2026-04-20T13:05:58Z</time></trkpt><trkpt lat="39.25900851289058" lon="9.1537794513814"><ele>12.999999999999998</ele><time>2026-04-20T13:06:00Z</time></trkpt><trkpt lat="39.25894303269294" lon="9.153823916848934"><ele>13.0</ele><time>2026-04-20T13:06:02Z</time></trkpt><trkpt lat="39.25886918674421" lon="9.153886451072271"><ele>12.600000000000001</ele><time>2026-04-20T13:06:04Z</time></trkpt><trkpt lat="39.258813041587835" lon="9.1539560362346"><ele>12.200000000000001</ele><time>2026-04-20T13:06:06Z</time></trkpt><trkpt lat="39.25876156756275" lon="9.154005583193799"><ele>11.8</ele><time>2026-04-20T13:06:08Z</time></trkpt><trkpt lat="39.25888002379964" lon="9.15410914541513"><ele>11.4</ele><time>2026-04-20T13:06:16Z</time></trkpt><trkpt lat="39.25892565797112" lon="9.15418605928852"><ele>11.0</ele><time>2026-04-20T13:06:18Z</time></trkpt><trkpt lat="39.2589650400672" lon="9.1542904447812"><ele>10.571428571428571</ele><time>2026-04-20T13:06:21Z</time></trkpt><trkpt lat="39.25896761343232" lon="9.154393603034494"><ele>10.142857142857142</ele><time>2026-04-20T13:06:23Z</time></trkpt><trkpt lat="39.25900291352739" lon="9.154473274988158"><ele>9.714285714285714</ele><time>2026-04-20T13:06:25Z</time></trkpt><trkpt lat="39.25904830002718" lon="9.154553658740927"><ele>9.285714285714285</ele><time>2026-04-20T13:06:27Z</time></trkpt><trkpt lat="39.2590778504623" lon="9.154636624036229"><ele>8.857142857142856</ele><time>2026-04-20T13:06:29Z</time></trkpt><trkpt lat="39.25911065066237" lon="9.154718092933766"><ele>8.428571428571429</ele><time>2026-04-20T13:06:31Z</time></trkpt><trkpt lat="39.25916881342259" lon="9.154787088076855"><ele>8.0</ele><time>2026-04-20T13:06:33Z</time></trkpt><trkpt lat="39.25922035332712" lon="9.154856169899103"><ele>7.6000000000000005</ele><time>2026-04-20T13:06:36Z</time></trkpt><trkpt lat="39.25928416636793" lon="9.154962823355406"><ele>7.200000000000001</ele><time>2026-04-20T13:06:38Z</time></trkpt><trkpt lat="39.259354571418385" lon="9.155096533150951"><ele>6.8</ele><time>2026-04-20T13:06:41Z</time></trkpt><trkpt lat="39.25941165925509" lon="9.155187523567038"><ele>6.4</ele><time>2026-04-20T13:06:43Z</time></trkpt><trkpt lat="39.25946797753167" lon="9.155276357840869"><ele>6.0</ele><time>2026-04-20T13:06:46Z</time></trkpt><trkpt lat="39.259525126490935" lon="9.155368540866153"><ele>5.999999999999999</ele><time>2026-04-20T13:06:48Z</time></trkpt><trkpt lat="39.25956768369666" lon="9.155430320137366"><ele>6.0</ele><time>2026-04-20T13:06:50Z</time></trkpt><trkpt lat="39.25960669601567" lon="9.155494832425433"><ele>6.0</ele><time>2026-04-20T13:06:51Z</time></trkpt><trkpt lat="39.25965020562382" lon="9.155589953508214"><ele>6.0</ele><time>2026-04-20T13:06:53Z</time></trkpt><trkpt lat="39.259706949602695" lon="9.155667676262693"><ele>6.0</ele><time>2026-04-20T13:06:56Z</time></trkpt><trkpt lat="39.259751721602555" lon="9.155738020415452"><ele>5.999999999999999</ele><time>2026-04-20T13:06:59Z</time></trkpt><trkpt lat="39.25977713877919" lon="9.155812653746898"><ele>6.0</ele><time>2026-04-20T13:07:01Z</time></trkpt><trkpt lat="39.25981319176103" lon="9.155883680391979"><ele>6.5</ele><time>2026-04-20T13:07:03Z</time></trkpt><trkpt lat="39.259854579347525" lon="9.155976909439438"><ele>7.0</ele><time>2026-04-20T13:07:05Z</time></trkpt><trkpt lat="39.25989587085589" lon="9.156072869766541"><ele>7.5</ele><time>2026-04-20T13:07:07Z</time></trkpt><trkpt lat="39.25994463286102" lon="9.15614414216474"><ele>8.0</ele><time>2026-04-20T13:07:09Z</time></trkpt><trkpt lat="39.26000244303615" lon="9.156236177243155"><ele>8.5</ele><time>2026-04-20T13:07:12Z</time></trkpt><trkpt lat="39.26003711753386" lon="9.156314008357883"><ele>9.0</ele><time>2026-04-20T13:07:14Z</time></trkpt><trkpt lat="39.260082448586964" lon="9.156381181707596"><ele>9.000000000000002</ele><time>2026-04-20T13:07:16Z</time></trkpt><trkpt lat="39.260127603456155" lon="9.156450723945007"><ele>9.0</ele><time>2026-04-20T13:07:18Z</time></trkpt><trkpt lat="39.260169915513224" lon="9.15652750476905"><ele>9.0</ele><time>2026-04-20T13:07:20Z</time></trkpt><trkpt lat="39.260216699454936" lon="9.15660596863087"><ele>9.0</ele><time>2026-04-20T13:07:22Z</time></trkpt><trkpt lat="39.26026109405633" lon="9.156681570790001"><ele>9.0</ele><time>2026-04-20T13:07:24Z</time></trkpt><trkpt lat="39.26030549941559" lon="9.15676328821418"><ele>9.000000000000002</ele><time>2026-04-20T13:07:26Z</time></trkpt><trkpt lat="39.26035670656019" lon="9.156828096155467"><ele>9.0</ele><time>2026-04-20T13:07:28Z</time></trkpt><trkpt lat="39.26039671936003" lon="9.15689933405048"><ele>9.000000000000002</ele><time>2026-04-20T13:07:30Z</time></trkpt><trkpt lat="39.26044396133724" lon="9.156978791477584"><ele>9.0</ele><time>2026-04-20T13:07:32Z</time></trkpt><trkpt lat="39.260491077921785" lon="9.15705287251514"><ele>9.0</ele><time>2026-04-20T13:07:34Z</time></trkpt><trkpt lat="39.260547836713485" lon="9.157106877796984"><ele>9.0</ele><time>2026-04-20T13:07:36Z</time></trkpt><trkpt lat="39.26060689536006" lon="9.157162241751092"><ele>9.0</ele><time>2026-04-20T13:07:38Z</time></trkpt><trkpt lat="39.2606617366603" lon="9.157221091678462"><ele>9.000000000000002</ele><time>2026-04-20T13:07:40Z</time></trkpt><trkpt lat="39.26070558989845" lon="9.157281246861356"><ele>9.0</ele><time>2026-04-20T13:07:42Z</time></trkpt><trkpt lat="39.2607621420963" lon="9.157321276315539"><ele>9.0</ele><time>2026-04-20T13:07:44Z</time></trkpt><trkpt lat="39.2608213965717" lon="9.157365718553729"><ele>9.0</ele><time>2026-04-20T13:07:46Z</time></trkpt><trkpt lat="39.26087912403358" lon="9.157420785930809"><ele>9.0</ele><time>2026-04-20T13:07:48Z</time></trkpt><trkpt lat="39.26094432540153" lon="9.157483008939645"><ele>9.0</ele><time>2026-04-20T13:07:50Z</time></trkpt><trkpt lat="39.260975526725375" lon="9.157592052846393"><ele>9.0</ele><time>2026-04-20T13:07:52Z</time></trkpt><trkpt lat="39.26101977127886" lon="9.157674959239912"><ele>9.0</ele><time>2026-04-20T13:07:54Z</time></trkpt><trkpt lat="39.26105400197912" lon="9.15775000492452"><ele>9.166666666666666</ele><time>2026-04-20T13:07:56Z</time></trkpt><trkpt lat="39.2610969043347" lon="9.157820533163136"><ele>9.333333333333334</ele><time>2026-04-20T13:07:58Z</time></trkpt><trkpt lat="39.26111545131797" lon="9.15789929992936"><ele>9.5</ele><time>2026-04-20T13:08:00Z</time></trkpt><trkpt lat="39.261100497878445" lon="9.158019965734367"><ele>9.666666666666668</ele><time>2026-04-20T13:08:03Z</time></trkpt><trkpt lat="39.26105025432184" lon="9.158119359774417"><ele>9.833333333333334</ele><time>2026-04-20T13:08:06Z</time></trkpt><trkpt lat="39.26099523234792" lon="9.158180928598249"><ele>10.0</ele><time>2026-04-20T13:08:08Z</time></trkpt><trkpt lat="39.260946008891565" lon="9.158242207033323"><ele>10.0</ele><time>2026-04-20T13:08:10Z</time></trkpt><trkpt lat="39.2608909372288" lon="9.158294153400261"><ele>10.0</ele><time>2026-04-20T13:08:12Z</time></trkpt><trkpt lat="39.2608383983578" lon="9.158343840025525"><ele>10.0</ele><time>2026-04-20T13:08:14Z</time></trkpt><trkpt lat="39.26078711743477" lon="9.158407096607744"><ele>10.0</ele><time>2026-04-20T13:08:16Z</time></trkpt><trkpt lat="39.260728303203834" lon="9.158466051942634"><ele>10.0</ele><time>2026-04-20T13:08:18Z</time></trkpt><trkpt lat="39.26067502292282" lon="9.158532626530125"><ele>10.0</ele><time>2026-04-20T13:08:20Z</time></trkpt><trkpt lat="39.260617164919886" lon="9.158595144067355"><ele>10.0</ele><time>2026-04-20T13:08:22Z</time></trkpt><trkpt lat="39.26056572445065" lon="9.158662655828662"><ele>10.0</ele><time>2026-04-20T13:08:24Z</time></trkpt><trkpt lat="39.26051943911904" lon="9.15873413764816"><ele>10.0</ele><time>2026-04-20T13:08:26Z</time></trkpt><trkpt lat="39.26049428625961" lon="9.158810180511416"><ele>10.0</ele><time>2026-04-20T13:08:28Z</time></trkpt><trkpt lat="39.260520924334436" lon="9.158928211901854"><ele>10.0</ele><time>2026-04-20T13:08:31Z</time></trkpt><trkpt lat="39.260574946411744" lon="9.159010375362163"><ele>10.0</ele><time>2026-04-20T13:08:33Z</time></trkpt><trkpt lat="39.26062674661844" lon="9.159073444747591"><ele>10.0</ele><time>2026-04-20T13:08:35Z</time></trkpt><trkpt lat="39.260688603513245" lon="9.159142878591103"><ele>10.0</ele><time>2026-04-20T13:08:37Z</time></trkpt><trkpt lat="39.260737916524285" lon="9.15924058712048"><ele>10.0</ele><time>2026-04-20T13:08:39Z</time></trkpt><trkpt lat="39.26078441589457" lon="9.159336760486564"><ele>10.0</ele><time>2026-04-20T13:08:41Z</time></trkpt><trkpt lat="39.26085579724866" lon="9.15938692796522"><ele>10.0</ele><time>2026-04-20T13:08:43Z</time></trkpt><trkpt lat="39.26092178949307" lon="9.159428805336347"><ele>10.0</ele><time>2026-04-20T13:08:45Z</time></trkpt><trkpt lat="39.26099534974172" lon="9.159447303951742"><ele>10.0</ele><time>2026-04-20T13:08:47Z</time></trkpt><trkpt lat="39.26106790266562" lon="9.159458248789786"><ele>10.0</ele><time>2026-04-20T13:08:49Z</time></trkpt><trkpt lat="39.26112202975311" lon="9.159513052203545"><ele>10.0</ele><time>2026-04-20T13:08:51Z</time></trkpt><trkpt lat="39.26116297897302" lon="9.159594922472946"><ele>10.0</ele><time>2026-04-20T13:08:53Z</time></trkpt><trkpt lat="39.2612325736182" lon="9.159640730166464"><ele>10.0</ele><time>2026-04-20T13:08:55Z</time></trkpt><trkpt lat="39.261278082936094" lon="9.159721068509185"><ele>10.0</ele><time>2026-04-20T13:08:57Z</time></trkpt><trkpt lat="39.26134077586227" lon="9.159761444546797"><ele>10.0</ele><time>2026-04-20T13:08:59Z</time></trkpt><trkpt lat="39.2613914803324" lon="9.159816335345637"><ele>10.0</ele><time>2026-04-20T13:09:01Z</time></trkpt><trkpt lat="39.261461449589746" lon="9.15987440071372"><ele>10.333333333333334</ele><time>2026-04-20T13:09:05Z</time></trkpt><trkpt lat="39.26150900145047" lon="9.159945677017058"><ele>10.666666666666668</ele><time>2026-04-20T13:09:09Z</time></trkpt><trkpt lat="39.261540278850525" lon="9.16002635231156"><ele>11.0</ele><time>2026-04-20T13:09:13Z</time></trkpt><trkpt lat="39.261505809437004" lon="9.160098481912254"><ele>11.333333333333334</ele><time>2026-04-20T13:09:17Z</time></trkpt><trkpt lat="39.26143108756007" lon="9.160188428253068"><ele>11.666666666666666</ele><time>2026-04-20T13:09:21Z</time></trkpt><trkpt lat="39.26135797434882" lon="9.160260835325074"><ele>12.0</ele><time>2026-04-20T13:09:24Z</time></trkpt><trkpt lat="39.261320843588095" lon="9.160333788088131"><ele>11.999999999999998</ele><time>2026-04-20T13:09:26Z</time></trkpt><trkpt lat="39.26126684894323" lon="9.16038940617439"><ele>12.0</ele><time>2026-04-20T13:09:28Z</time></trkpt><trkpt lat="39.26122686224814" lon="9.160462827564778"><ele>12.0</ele><time>2026-04-20T13:09:30Z</time></trkpt><trkpt lat="39.26117897332376" lon="9.160543872424556"><ele>12.0</ele><time>2026-04-20T13:09:32Z</time></trkpt><trkpt lat="39.26111717169686" lon="9.160597559907263"><ele>12.0</ele><time>2026-04-20T13:09:34Z</time></trkpt><trkpt lat="39.261062416084236" lon="9.16066189560282"><ele>11.999999999999998</ele><time>2026-04-20T13:09:36Z</time></trkpt><trkpt lat="39.26102089066632" lon="9.160742144767726"><ele>12.0</ele><time>2026-04-20T13:09:38Z</time></trkpt><trkpt lat="39.26096942636761" lon="9.16081007612655"><ele>12.142857142857142</ele><time>2026-04-20T13:09:40Z</time></trkpt><trkpt lat="39.26092150380878" lon="9.160878994327208"><ele>12.285714285714285</ele><time>2026-04-20T13:09:42Z</time></trkpt><trkpt lat="39.26087294371447" lon="9.160931215920506"><ele>12.428571428571427</ele><time>2026-04-20T13:09:44Z</time></trkpt><trkpt lat="39.26082315233988" lon="9.160992298885711"><ele>12.571428571428571</ele><time>2026-04-20T13:09:46Z</time></trkpt><trkpt lat="39.260774773708505" lon="9.161048585716122"><ele>12.714285714285715</ele><time>2026-04-20T13:09:48Z</time></trkpt><trkpt lat="39.2607189850814" lon="9.16111088979867"><ele>12.857142857142856</ele><time>2026-04-20T13:09:50Z</time></trkpt><trkpt lat="39.260669308224045" lon="9.16116923928779"><ele>13.0</ele><time>2026-04-20T13:09:52Z</time></trkpt><trkpt lat="39.26061978980439" lon="9.161245810809278"><ele>13.0</ele><time>2026-04-20T13:09:54Z</time></trkpt><trkpt lat="39.26058229596203" lon="9.161313794752271"><ele>13.0</ele><time>2026-04-20T13:09:56Z</time></trkpt><trkpt lat="39.260545853832326" lon="9.16138503020343"><ele>13.0</ele><time>2026-04-20T13:09:58Z</time></trkpt><trkpt lat="39.26050217134205" lon="9.161454683326715"><ele>13.0</ele><time>2026-04-20T13:10:00Z</time></trkpt><trkpt lat="39.26045818830841" lon="9.161523741783068"><ele>13.0</ele><time>2026-04-20T13:10:02Z</time></trkpt><trkpt lat="39.260384632879244" lon="9.161602364837247"><ele>13.0</ele><time>2026-04-20T13:10:05Z</time></trkpt><trkpt lat="39.260343197765955" lon="9.161670096885132"><ele>13.0</ele><time>2026-04-20T13:10:07Z</time></trkpt><trkpt lat="39.26029416172868" lon="9.161733827028533"><ele>12.999999999999998</ele><time>2026-04-20T13:10:09Z</time></trkpt><trkpt lat="39.26025164257842" lon="9.161802905268749"><ele>13.0</ele><time>2026-04-20T13:10:11Z</time></trkpt><trkpt lat="39.260199865409234" lon="9.161861554354363"><ele>13.0</ele><time>2026-04-20T13:10:13Z</time></trkpt><trkpt lat="39.26015503347706" lon="9.161920910883891"><ele>13.0</ele><time>2026-04-20T13:10:15Z</time></trkpt><trkpt lat="39.26009220527926" lon="9.162021980236394"><ele>12.999999999999998</ele><time>2026-04-20T13:10:18Z</time></trkpt><trkpt lat="39.26004549284378" lon="9.16208767542577"><ele>13.0</ele><time>2026-04-20T13:10:20Z</time></trkpt><trkpt lat="39.25996601502166" lon="9.16209885563046"><ele>13.0</ele><time>2026-04-20T13:10:22Z</time></trkpt><trkpt lat="39.25991081355072" lon="9.162166865641945"><ele>13.0</ele><time>2026-04-20T13:10:24Z</time></trkpt><trkpt lat="39.25986422198009" lon="9.162255312780747"><ele>13.0</ele><time>2026-04-20T13:10:26Z</time></trkpt><trkpt lat="39.25982355656014" lon="9.16232726568644"><ele>13.0</ele><time>2026-04-20T13:10:28Z</time></trkpt><trkpt lat="39.259783065418766" lon="9.162397928316532"><ele>13.0</ele><time>2026-04-20T13:10:30Z</time></trkpt><trkpt lat="39.259759692757235" lon="9.16249869330641"><ele>13.0</ele><time>2026-04-20T13:10:32Z</time></trkpt><trkpt lat="39.25974287847629" lon="9.162587855159742"><ele>13.0</ele><time>2026-04-20T13:10:34Z</time></trkpt><trkpt lat="39.25973033499736" lon="9.16267577501667"><ele>12.999999999999998</ele><time>2026-04-20T13:10:36Z</time></trkpt><trkpt lat="39.25975014251357" lon="9.162778563373156"><ele>13.0</ele><time>2026-04-20T13:10:38Z</time></trkpt><trkpt lat="39.25983519146392" lon="9.162831685005855"><ele>13.0</ele><time>2026-04-20T13:10:40Z</time></trkpt><trkpt lat="39.25991956663673" lon="9.162868902945409"><ele>13.0</ele><time>2026-04-20T13:10:43Z</time></trkpt><trkpt lat="39.25997937356276" lon="9.162901159756002"><ele>12.999999999999998</ele><time>2026-04-20T13:10:45Z</time></trkpt><trkpt lat="39.260050894138516" lon="9.162923600792924"><ele>13.0</ele><time>2026-04-20T13:10:47Z</time></trkpt><trkpt lat="39.260121819543954" lon="9.162954135351308"><ele>13.0</ele><time>2026-04-20T13:10:49Z</time></trkpt><trkpt lat="39.26018645652644" lon="9.162981271210226"><ele>13.0</ele><time>2026-04-20T13:10:51Z</time></trkpt><trkpt lat="39.26024877606845" lon="9.163000236007248"><ele>13.0</ele><time>2026-04-20T13:10:53Z</time></trkpt><trkpt lat="39.260310961279515" lon="9.163025267739926"><ele>13.0</ele><time>2026-04-20T13:10:55Z</time></trkpt><trkpt lat="39.2603870898784" lon="9.16304894844735"><ele>13.0</ele><time>2026-04-20T13:10:57Z</time></trkpt><trkpt lat="39.26045452727872" lon="9.163063130686083"><ele>13.0</ele><time>2026-04-20T13:10:59Z</time></trkpt><trkpt lat="39.26051955635239" lon="9.163088028012012"><ele>13.0</ele><time>2026-04-20T13:11:01Z</time></trkpt><trkpt lat="39.26057892621083" lon="9.163123398876658"><ele>12.999999999999998</ele><time>2026-04-20T13:11:03Z</time></trkpt><trkpt lat="39.26067289704521" lon="9.163148316960854"><ele>13.0</ele><time>2026-04-20T13:11:06Z</time></trkpt><trkpt lat="39.260740557923086" lon="9.163184120535481"><ele>13.0</ele><time>2026-04-20T13:11:08Z</time></trkpt><trkpt lat="39.26081467456615" lon="9.163200310573592"><ele>13.0</ele><time>2026-04-20T13:11:10Z</time></trkpt><trkpt lat="39.2608945105267" lon="9.163231692598636"><ele>12.999999999999998</ele><time>2026-04-20T13:11:12Z</time></trkpt><trkpt lat="39.26096189908273" lon="9.163238310037851"><ele>13.0</ele><time>2026-04-20T13:11:14Z</time></trkpt><trkpt lat="39.261039892704574" lon="9.163265681733"><ele>13.0</ele><time>2026-04-20T13:11:16Z</time></trkpt><trkpt lat="39.26110966131149" lon="9.163299655820945"><ele>13.0</ele><time>2026-04-20T13:11:18Z</time></trkpt><trkpt lat="39.261175670877904" lon="9.163335674921372"><ele>13.0</ele><time>2026-04-20T13:11:20Z</time></trkpt><trkpt lat="39.26125276039631" lon="9.163344062855726"><ele>13.0</ele><time>2026-04-20T13:11:22Z</time></trkpt><trkpt lat="39.26131810377554" lon="9.163373510062433"><ele>13.0</ele><time>2026-04-20T13:11:24Z</time></trkpt><trkpt lat="39.26137717441514" lon="9.16340612758634"><ele>13.0</ele><time>2026-04-20T13:11:26Z</time></trkpt><trkpt lat="39.26143899866886" lon="9.163463556660124"><ele>13.0</ele><time>2026-04-20T13:11:28Z</time></trkpt><trkpt lat="39.261514602472516" lon="9.163514641331671"><ele>12.833333333333332</ele><time>2026-04-20T13:11:31Z</time></trkpt><trkpt lat="39.26159485956605" lon="9.16359203955656"><ele>12.666666666666666</ele><time>2026-04-20T13:11:34Z</time></trkpt><trkpt lat="39.26165263218647" lon="9.163630291478059"><ele>12.5</ele><time>2026-04-20T13:11:36Z</time></trkpt><trkpt lat="39.261705625449274" lon="9.163716668257019"><ele>12.333333333333332</ele><time>2026-04-20T13:11:39Z</time></trkpt><trkpt lat="39.26177517737571" lon="9.16375993712049"><ele>12.166666666666666</ele><time>2026-04-20T13:11:41Z</time></trkpt><trkpt lat="39.26183330734062" lon="9.163821262534395"><ele>12.0</ele><time>2026-04-20T13:11:43Z</time></trkpt><trkpt lat="39.2618785914068" lon="9.163885628879136"><ele>12.0</ele><time>2026-04-20T13:11:45Z</time></trkpt><trkpt lat="39.26195173940886" lon="9.163957779910543"><ele>12.0</ele><time>2026-04-20T13:11:48Z</time></trkpt><trkpt lat="39.261998550752345" lon="9.16401707662564"><ele>12.0</ele><time>2026-04-20T13:11:50Z</time></trkpt><trkpt lat="39.262067703644234" lon="9.164095229332874"><ele>12.0</ele><time>2026-04-20T13:11:53Z</time></trkpt><trkpt lat="39.262134295852576" lon="9.164138321498427"><ele>12.0</ele><time>2026-04-20T13:11:55Z</time></trkpt><trkpt lat="39.26218925599137" lon="9.16419346289994"><ele>12.0</ele><time>2026-04-20T13:11:57Z</time></trkpt><trkpt lat="39.262235058319455" lon="9.16425413012734"><ele>12.166666666666666</ele><time>2026-04-20T13:11:59Z</time></trkpt><trkpt lat="39.26229017850775" lon="9.164309688663819"><ele>12.333333333333332</ele><time>2026-04-20T13:12:01Z</time></trkpt><trkpt lat="39.262378468034434" lon="9.164356356270668"><ele>12.5</ele><time>2026-04-20T13:12:04Z</time></trkpt><trkpt lat="39.262434834794256" lon="9.16440440635614"><ele>12.666666666666666</ele><time>2026-04-20T13:12:06Z</time></trkpt><trkpt lat="39.26249622209783" lon="9.164458150188194"><ele>12.833333333333332</ele><time>2026-04-20T13:12:08Z</time></trkpt><trkpt lat="39.26257084511285" lon="9.164545774915293"><ele>13.0</ele><time>2026-04-20T13:12:11Z</time></trkpt><trkpt lat="39.262624535491916" lon="9.164599770891286"><ele>13.0</ele><time>2026-04-20T13:12:13Z</time></trkpt><trkpt lat="39.262693556503194" lon="9.164634906193697"><ele>13.0</ele><time>2026-04-20T13:12:15Z</time></trkpt><trkpt lat="39.262738520908805" lon="9.164699751091346"><ele>13.0</ele><time>2026-04-20T13:12:17Z</time></trkpt><trkpt lat="39.2627984338749" lon="9.164734939325397"><ele>13.0</ele><time>2026-04-20T13:12:19Z</time></trkpt><trkpt lat="39.26284628056261" lon="9.164791650887073"><ele>13.0</ele><time>2026-04-20T13:12:21Z</time></trkpt><trkpt lat="39.26290819597172" lon="9.164833586658686"><ele>13.0</ele><time>2026-04-20T13:12:23Z</time></trkpt><trkpt lat="39.26298659315691" lon="9.16488627066054"><ele>13.0</ele><time>2026-04-20T13:12:26Z</time></trkpt><trkpt lat="39.26304820517073" lon="9.164942561775337"><ele>13.4</ele><time>2026-04-20T13:12:28Z</time></trkpt><trkpt lat="39.26312467146583" lon="9.165008343481993"><ele>13.8</ele><time>2026-04-20T13:12:31Z</time></trkpt><trkpt lat="39.263202634132924" lon="9.16507592040199"><ele>14.2</ele><time>2026-04-20T13:12:34Z</time></trkpt><trkpt lat="39.26333396492477" lon="9.165081846490962"><ele>14.6</ele><time>2026-04-20T13:12:38Z</time></trkpt><trkpt lat="39.2634226759138" lon="9.165097206420725"><ele>15.0</ele><time>2026-04-20T13:12:41Z</time></trkpt><trkpt lat="39.263490074909335" lon="9.165106283461089"><ele>15.0</ele><time>2026-04-20T13:12:43Z</time></trkpt><trkpt lat="39.26356087690741" lon="9.165117934114322"><ele>15.0</ele><time>2026-04-20T13:12:45Z</time></trkpt><trkpt lat="39.263632064659056" lon="9.16513279115949"><ele>15.0</ele><time>2026-04-20T13:12:47Z</time></trkpt><trkpt lat="39.26369524495773" lon="9.16515038141364"><ele>15.0</ele><time>2026-04-20T13:12:49Z</time></trkpt><trkpt lat="39.263784114864315" lon="9.165179618790095"><ele>15.0</ele><time>2026-04-20T13:12:52Z</time></trkpt><trkpt lat="39.26384753990995" lon="9.165188946213124"><ele>15.0</ele><time>2026-04-20T13:12:54Z</time></trkpt><trkpt lat="39.26391045931767" lon="9.165200157615386"><ele>15.0</ele><time>2026-04-20T13:12:56Z</time></trkpt><trkpt lat="39.263974141147834" lon="9.16521138300425"><ele>15.142857142857142</ele><time>2026-04-20T13:12:58Z</time></trkpt><trkpt lat="39.26403781505851" lon="9.165225195675536"><ele>15.285714285714285</ele><time>2026-04-20T13:13:00Z</time></trkpt><trkpt lat="39.26410375514756" lon="9.165245956189262"><ele>15.428571428571427</ele><time>2026-04-20T13:13:02Z</time></trkpt><trkpt lat="39.26416850273484" lon="9.165260233027706"><ele>15.571428571428571</ele><time>2026-04-20T13:13:04Z</time></trkpt><trkpt lat="39.26423785410828" lon="9.165279963999827"><ele>15.714285714285712</ele><time>2026-04-20T13:13:07Z</time></trkpt><trkpt lat="39.26430059590294" lon="9.165298390351303"><ele>15.857142857142856</ele><time>2026-04-20T13:13:09Z</time></trkpt><trkpt lat="39.26437095447284" lon="9.165322555322836"><ele>16.0</ele><time>2026-04-20T13:13:12Z</time></trkpt><trkpt lat="39.26446006684382" lon="9.165332714803197"><ele>16.0</ele><time>2026-04-20T13:13:15Z</time></trkpt><trkpt lat="39.26453808591767" lon="9.165362872566746"><ele>15.999999999999998</ele><time>2026-04-20T13:13:18Z</time></trkpt><trkpt lat="39.26459802169144" lon="9.165392449671982"><ele>16.0</ele><time>2026-04-20T13:13:22Z</time></trkpt><trkpt lat="39.26467058220592" lon="9.165422750200916"><ele>16.0</ele><time>2026-04-20T13:13:26Z</time></trkpt><trkpt lat="39.26470292280787" lon="9.165496174510487"><ele>15.999999999999998</ele><time>2026-04-20T13:13:30Z</time></trkpt><trkpt lat="39.26473932964881" lon="9.165420260367805"><ele>16.0</ele><time>2026-04-20T13:13:34Z</time></trkpt><trkpt lat="39.26467630490705" lon="9.165363963114526"><ele>16.0</ele><time>2026-04-20T13:13:38Z</time></trkpt><trkpt lat="39.26460085010432" lon="9.165324353552393"><ele>16.0</ele><time>2026-04-20T13:13:42Z</time></trkpt><trkpt lat="39.26452187250527" lon="9.16530506126933"><ele>15.999999999999998</ele><time>2026-04-20T13:13:46Z</time></trkpt><trkpt lat="39.26444755342336" lon="9.165294105238852"><ele>16.0</ele><time>2026-04-20T13:13:51Z</time></trkpt><trkpt lat="39.26436921441923" lon="9.16528102520414"><ele>16.0</ele><time>2026-04-20T13:13:55Z</time></trkpt><trkpt lat="39.26430465129585" lon="9.165262339404967"><ele>15.999999999999998</ele><time>2026-04-20T13:13:59Z</time></trkpt><trkpt lat="39.26424367538477" lon="9.165235792817809"><ele>16.0</ele><time>2026-04-20T13:14:03Z</time></trkpt><trkpt lat="39.26417255833971" lon="9.165196013860172"><ele>16.0</ele><time>2026-04-20T13:14:09Z</time></trkpt><trkpt lat="39.26410379831966" lon="9.165168739284647"><ele>16.0</ele><time>2026-04-20T13:14:13Z</time></trkpt><trkpt lat="39.26403176563667" lon="9.165160063534056"><ele>15.999999999999998</ele><time>2026-04-20T13:14:18Z</time></trkpt><trkpt lat="39.26407373913779" lon="9.16523575935936"><ele>16.0</ele><time>2026-04-20T13:14:24Z</time></trkpt><trkpt lat="39.26414990207943" lon="9.165236954474393"><ele>16.0</ele><time>2026-04-20T13:14:28Z</time></trkpt><trkpt lat="39.264214969367345" lon="9.165265510814903"><ele>15.999999999999998</ele><time>2026-04-20T13:14:31Z</time></trkpt><trkpt lat="39.26427878741335" lon="9.165280100358988"><ele>16.0</ele><time>2026-04-20T13:14:34Z</time></trkpt><trkpt lat="39.26434357037569" lon="9.165293848144247"><ele>16.0</ele><time>2026-04-20T13:14:37Z</time></trkpt><trkpt lat="39.264405745401355" lon="9.165309873646747"><ele>15.999999999999998</ele><time>2026-04-20T13:14:40Z</time></trkpt><trkpt lat="39.26448649666348" lon="9.165325712025798"><ele>16.0</ele><time>2026-04-20T13:14:44Z</time></trkpt><trkpt lat="39.264562213073575" lon="9.165347353356529"><ele>16.0</ele><time>2026-04-20T13:14:48Z</time></trkpt><trkpt lat="39.26461823987891" lon="9.165393083398238"><ele>16.0</ele><time>2026-04-20T13:14:52Z</time></trkpt><trkpt lat="39.26469809428304" lon="9.165406569582215"><ele>15.999999999999998</ele><time>2026-04-20T13:14:57Z</time></trkpt><trkpt lat="39.26469321588564" lon="9.16551303416967"><ele>16.0</ele><time>2026-04-20T13:15:08Z</time></trkpt><trkpt lat="39.2647342725105" lon="9.165444130287074"><ele>16.0</ele><time>2026-04-20T13:15:29Z</time></trkpt><trkpt lat="39.26479490374386" lon="9.16539152931615"><ele>15.999999999999998</ele><time>2026-04-20T13:22:12Z</time></trkpt><trkpt lat="39.26485830064727" lon="9.165395769589953"><ele>16.0</ele><time>2026-04-20T13:22:15Z</time></trkpt><trkpt lat="39.26493480588017" lon="9.1654050507302"><ele>16.0</ele><time>2026-04-20T13:22:18Z</time></trkpt><trkpt lat="39.264994805078985" lon="9.165429963282376"><ele>15.999999999999998</ele><time>2026-04-20T13:22:20Z</time></trkpt><trkpt lat="39.26506204869736" lon="9.165424824480363"><ele>16.0</ele><time>2026-04-20T13:22:22Z</time></trkpt><trkpt lat="39.26514882903836" lon="9.16538367328425"><ele>16.0</ele><time>2026-04-20T13:22:24Z</time></trkpt><trkpt lat="39.26536656805147" lon="9.16540383044441"><ele>16.0</ele><time>2026-04-20T13:22:29Z</time></trkpt><trkpt lat="39.265415476607735" lon="9.165533878615275"><ele>16.0</ele><time>2026-04-20T13:22:31Z</time></trkpt><trkpt lat="39.26551205436553" lon="9.165574497883936"><ele>16.0</ele><time>2026-04-20T13:22:35Z</time></trkpt><trkpt lat="39.26560356410247" lon="9.165609576749597"><ele>16.0</ele><time>2026-04-20T13:22:38Z</time></trkpt><trkpt lat="39.26567887903337" lon="9.165636605300989"><ele>16.0</ele><time>2026-04-20T13:22:41Z</time></trkpt><trkpt lat="39.26576336105624" lon="9.165659466605021"><ele>16.166666666666664</ele><time>2026-04-20T13:22:44Z</time></trkpt><trkpt lat="39.265853467202355" lon="9.16567994355503"><ele>16.333333333333332</ele><time>2026-04-20T13:22:47Z</time></trkpt><trkpt lat="39.26593937880966" lon="9.165696633138834"><ele>16.5</ele><time>2026-04-20T13:22:50Z</time></trkpt><trkpt lat="39.26600582557052" lon="9.165704214428697"><ele>16.666666666666668</ele><time>2026-04-20T13:22:52Z</time></trkpt><trkpt lat="39.26606985893899" lon="9.165721364828892"><ele>16.833333333333336</ele><time>2026-04-20T13:22:54Z</time></trkpt><trkpt lat="39.26613827985286" lon="9.165716055368897"><ele>17.0</ele><time>2026-04-20T13:22:56Z</time></trkpt><trkpt lat="39.26621192236077" lon="9.165730864064027"><ele>17.0</ele><time>2026-04-20T13:22:58Z</time></trkpt><trkpt lat="39.266289904158484" lon="9.165747682145977"><ele>17.0</ele><time>2026-04-20T13:23:00Z</time></trkpt><trkpt lat="39.26637804168885" lon="9.165768317248103"><ele>17.0</ele><time>2026-04-20T13:23:02Z</time></trkpt><trkpt lat="39.26645547755802" lon="9.165784099302673"><ele>17.0</ele><time>2026-04-20T13:23:04Z</time></trkpt><trkpt lat="39.26652523952598" lon="9.165802905318866"><ele>17.0</ele><time>2026-04-20T13:23:06Z</time></trkpt><trkpt lat="39.26659734058081" lon="9.165833258652711"><ele>17.0</ele><time>2026-04-20T13:23:08Z</time></trkpt><trkpt lat="39.26666512643239" lon="9.165852274317835"><ele>17.142857142857142</ele><time>2026-04-20T13:23:10Z</time></trkpt><trkpt lat="39.266762411381656" lon="9.165866695009372"><ele>17.285714285714285</ele><time>2026-04-20T13:23:13Z</time></trkpt><trkpt lat="39.26682802156575" lon="9.165886552979352"><ele>17.42857142857143</ele><time>2026-04-20T13:23:15Z</time></trkpt><trkpt lat="39.266893983650746" lon="9.165910015970791"><ele>17.57142857142857</ele><time>2026-04-20T13:23:17Z</time></trkpt><trkpt lat="39.26695722910573" lon="9.165932326428205"><ele>17.714285714285715</ele><time>2026-04-20T13:23:19Z</time></trkpt><trkpt lat="39.267024722902526" lon="9.165948128272454"><ele>17.857142857142858</ele><time>2026-04-20T13:23:21Z</time></trkpt><trkpt lat="39.26708723625274" lon="9.16597791578689"><ele>18.0</ele><time>2026-04-20T13:23:23Z</time></trkpt><trkpt lat="39.2671501816137" lon="9.165991210834617"><ele>18.000000000000004</ele><time>2026-04-20T13:23:25Z</time></trkpt><trkpt lat="39.26723725891918" lon="9.16599754729487"><ele>18.0</ele><time>2026-04-20T13:23:28Z</time></trkpt><trkpt lat="39.26730117632806" lon="9.166008568650922"><ele>18.0</ele><time>2026-04-20T13:23:30Z</time></trkpt><trkpt lat="39.267363470679705" lon="9.166022750245373"><ele>18.0</ele><time>2026-04-20T13:23:32Z</time></trkpt><trkpt lat="39.26743331504096" lon="9.166036325131696"><ele>18.0</ele><time>2026-04-20T13:23:34Z</time></trkpt><trkpt lat="39.26749937878737" lon="9.166065469026599"><ele>18.000000000000004</ele><time>2026-04-20T13:23:36Z</time></trkpt><trkpt lat="39.26756358463087" lon="9.166096704272627"><ele>18.0</ele><time>2026-04-20T13:23:38Z</time></trkpt><trkpt lat="39.26763181916154" lon="9.166120541569425"><ele>17.857142857142858</ele><time>2026-04-20T13:23:40Z</time></trkpt><trkpt lat="39.2676955203389" lon="9.16616499002147"><ele>17.714285714285715</ele><time>2026-04-20T13:23:42Z</time></trkpt><trkpt lat="39.267752424147005" lon="9.166203183733545"><ele>17.57142857142857</ele><time>2026-04-20T13:23:44Z</time></trkpt><trkpt lat="39.26784322874254" lon="9.166219448053821"><ele>17.42857142857143</ele><time>2026-04-20T13:23:47Z</time></trkpt><trkpt lat="39.26791351123903" lon="9.166213887781558"><ele>17.285714285714285</ele><time>2026-04-20T13:23:49Z</time></trkpt><trkpt lat="39.26798617061763" lon="9.166215174825336"><ele>17.142857142857142</ele><time>2026-04-20T13:23:51Z</time></trkpt><trkpt lat="39.26805716105892" lon="9.166223298233339"><ele>17.0</ele><time>2026-04-20T13:23:53Z</time></trkpt><trkpt lat="39.26817999554831" lon="9.166242437951663"><ele>17.0</ele><time>2026-04-20T13:23:57Z</time></trkpt><trkpt lat="39.26825272165134" lon="9.166255951784368"><ele>17.0</ele><time>2026-04-20T13:23:59Z</time></trkpt><trkpt lat="39.26834464697202" lon="9.166277146425138"><ele>17.0</ele><time>2026-04-20T13:24:02Z</time></trkpt><trkpt lat="39.26841019230598" lon="9.166286144380022"><ele>17.0</ele><time>2026-04-20T13:24:04Z</time></trkpt><trkpt lat="39.26849934016393" lon="9.16632250648852"><ele>17.0</ele><time>2026-04-20T13:24:07Z</time></trkpt><trkpt lat="39.2685742381694" lon="9.166339347992345"><ele>17.0</ele><time>2026-04-20T13:24:09Z</time></trkpt><trkpt lat="39.26864792237533" lon="9.166352207566563"><ele>16.999999999999996</ele><time>2026-04-20T13:24:11Z</time></trkpt><trkpt lat="39.268722251477286" lon="9.166372004764204"><ele>17.0</ele><time>2026-04-20T13:24:13Z</time></trkpt><trkpt lat="39.2687916635558" lon="9.166384738190121"><ele>17.0</ele><time>2026-04-20T13:24:15Z</time></trkpt><trkpt lat="39.26886561651051" lon="9.166393852471149"><ele>17.0</ele><time>2026-04-20T13:24:17Z</time></trkpt><trkpt lat="39.26893517752956" lon="9.166398856351043"><ele>17.0</ele><time>2026-04-20T13:24:19Z</time></trkpt><trkpt lat="39.26900828323011" lon="9.16640154691518"><ele>16.999999999999996</ele><time>2026-04-20T13:24:21Z</time></trkpt><trkpt lat="39.2690866920314" lon="9.166406892208135"><ele>17.0</ele><time>2026-04-20T13:24:23Z</time></trkpt><trkpt lat="39.26916789687433" lon="9.166415982433445"><ele>16.833333333333336</ele><time>2026-04-20T13:24:25Z</time></trkpt><trkpt lat="39.26925026765619" lon="9.166425552954886"><ele>16.666666666666668</ele><time>2026-04-20T13:24:27Z</time></trkpt><trkpt lat="39.26934362701857" lon="9.166461067746475"><ele>16.5</ele><time>2026-04-20T13:24:29Z</time></trkpt><trkpt lat="39.26942517254557" lon="9.16645948569564"><ele>16.333333333333332</ele><time>2026-04-20T13:24:31Z</time></trkpt><trkpt lat="39.26949863876649" lon="9.166446405249236"><ele>16.166666666666664</ele><time>2026-04-20T13:24:33Z</time></trkpt><trkpt lat="39.26956740450367" lon="9.166426605937444"><ele>16.0</ele><time>2026-04-20T13:24:35Z</time></trkpt><trkpt lat="39.26963780339927" lon="9.166422859290792"><ele>15.999999999999998</ele><time>2026-04-20T13:24:37Z</time></trkpt><trkpt lat="39.26971671962407" lon="9.166413191627345"><ele>16.0</ele><time>2026-04-20T13:24:39Z</time></trkpt><trkpt lat="39.26979645228206" lon="9.166399325807882"><ele>16.0</ele><time>2026-04-20T13:24:41Z</time></trkpt><trkpt lat="39.26986828360485" lon="9.16637436496754"><ele>16.0</ele><time>2026-04-20T13:24:43Z</time></trkpt><trkpt lat="39.269942146839355" lon="9.166363224342188"><ele>15.999999999999998</ele><time>2026-04-20T13:24:45Z</time></trkpt><trkpt lat="39.27001923814083" lon="9.166362469568993"><ele>16.0</ele><time>2026-04-20T13:24:47Z</time></trkpt><trkpt lat="39.27009150722999" lon="9.166351799635267"><ele>16.5</ele><time>2026-04-20T13:24:49Z</time></trkpt><trkpt lat="39.270158803915244" lon="9.166335684781517"><ele>17.0</ele><time>2026-04-20T13:24:51Z</time></trkpt><trkpt lat="39.27023341626733" lon="9.16631191220803"><ele>17.5</ele><time>2026-04-20T13:24:53Z</time></trkpt><trkpt lat="39.27030815118281" lon="9.166287245591803"><ele>18.0</ele><time>2026-04-20T13:24:55Z</time></trkpt><trkpt lat="39.27038601831523" lon="9.166257805979969"><ele>18.5</ele><time>2026-04-20T13:24:57Z</time></trkpt><trkpt lat="39.27046042821387" lon="9.166230500433498"><ele>19.0</ele><time>2026-04-20T13:24:59Z</time></trkpt><trkpt lat="39.27053612496543" lon="9.166206495408204"><ele>19.0</ele><time>2026-04-20T13:25:01Z</time></trkpt><trkpt lat="39.27060725742821" lon="9.166163564297984"><ele>19.0</ele><time>2026-04-20T13:25:03Z</time></trkpt><trkpt lat="39.270682387430455" lon="9.166132693732413"><ele>19.0</ele><time>2026-04-20T13:25:05Z</time></trkpt><trkpt lat="39.27075138774421" lon="9.1660819048113"><ele>19.0</ele><time>2026-04-20T13:25:07Z</time></trkpt><trkpt lat="39.27081661385945" lon="9.16601873497766"><ele>19.0</ele><time>2026-04-20T13:25:09Z</time></trkpt><trkpt lat="39.27087970060249" lon="9.165973096865613"><ele>19.0</ele><time>2026-04-20T13:25:11Z</time></trkpt><trkpt lat="39.270956830328245" lon="9.165975429463156"><ele>19.142857142857142</ele><time>2026-04-20T13:25:13Z</time></trkpt><trkpt lat="39.27102780425155" lon="9.166001534981126"><ele>19.28571428571429</ele><time>2026-04-20T13:25:15Z</time></trkpt><trkpt lat="39.27109679785153" lon="9.166033584039656"><ele>19.42857142857143</ele><time>2026-04-20T13:25:17Z</time></trkpt><trkpt lat="39.27117050395339" lon="9.166071498253373"><ele>19.57142857142857</ele><time>2026-04-20T13:25:19Z</time></trkpt><trkpt lat="39.271243681124304" lon="9.166100524235206"><ele>19.714285714285715</ele><time>2026-04-20T13:25:21Z</time></trkpt><trkpt lat="39.271308242100936" lon="9.166133748678709"><ele>19.857142857142858</ele><time>2026-04-20T13:25:23Z</time></trkpt><trkpt lat="39.27138151048659" lon="9.16615791481028"><ele>20.0</ele><time>2026-04-20T13:25:25Z</time></trkpt><trkpt lat="39.27145808757932" lon="9.166173872887041"><ele>20.0</ele><time>2026-04-20T13:25:27Z</time></trkpt><trkpt lat="39.27153529546655" lon="9.166191982142665"><ele>20.0</ele><time>2026-04-20T13:25:29Z</time></trkpt><trkpt lat="39.27160351516743" lon="9.166207333055091"><ele>20.0</ele><time>2026-04-20T13:25:31Z</time></trkpt><trkpt lat="39.2716722013974" lon="9.166227303029746"><ele>20.0</ele><time>2026-04-20T13:25:33Z</time></trkpt><trkpt lat="39.27174857017285" lon="9.16623756359964"><ele>20.0</ele><time>2026-04-20T13:25:35Z</time></trkpt><trkpt lat="39.271823705193576" lon="9.166236877404438"><ele>20.0</ele><time>2026-04-20T13:25:37Z</time></trkpt><trkpt lat="39.271896650914165" lon="9.166237997551573"><ele>20.0</ele><time>2026-04-20T13:25:39Z</time></trkpt><trkpt lat="39.27197219044649" lon="9.16624068987887"><ele>20.0</ele><time>2026-04-20T13:25:41Z</time></trkpt><trkpt lat="39.272045760585016" lon="9.166245576509725"><ele>20.0</ele><time>2026-04-20T13:25:44Z</time></trkpt><trkpt lat="39.272117795986645" lon="9.166259509019065"><ele>20.0</ele><time>2026-04-20T13:25:47Z</time></trkpt><trkpt lat="39.27218778728622" lon="9.1662799585221"><ele>20.0</ele><time>2026-04-20T13:25:49Z</time></trkpt><trkpt lat="39.27230187789111" lon="9.166331618878543"><ele>20.0</ele><time>2026-04-20T13:25:52Z</time></trkpt><trkpt lat="39.272376486989934" lon="9.166391182644404"><ele>20.0</ele><time>2026-04-20T13:25:54Z</time></trkpt><trkpt lat="39.27241091129956" lon="9.166463377967359"><ele>20.333333333333336</ele><time>2026-04-20T13:25:56Z</time></trkpt><trkpt lat="39.27242607932322" lon="9.166547381151664"><ele>20.666666666666668</ele><time>2026-04-20T13:25:58Z</time></trkpt><trkpt lat="39.27245039414762" lon="9.166626104941004"><ele>21.0</ele><time>2026-04-20T13:26:00Z</time></trkpt><trkpt lat="39.272544643285414" lon="9.166662877434518"><ele>21.333333333333332</ele><time>2026-04-20T13:26:03Z</time></trkpt><trkpt lat="39.27262233346705" lon="9.166690010234568"><ele>21.666666666666664</ele><time>2026-04-20T13:26:05Z</time></trkpt><trkpt lat="39.27270099822309" lon="9.166711598123284"><ele>22.0</ele><time>2026-04-20T13:26:07Z</time></trkpt><trkpt lat="39.27277441763555" lon="9.166715838329994"><ele>22.0</ele><time>2026-04-20T13:26:09Z</time></trkpt><trkpt lat="39.27285378069601" lon="9.166713045540662"><ele>22.0</ele><time>2026-04-20T13:26:11Z</time></trkpt><trkpt lat="39.27293680788444" lon="9.166713378752435"><ele>22.0</ele><time>2026-04-20T13:26:13Z</time></trkpt><trkpt lat="39.27301163821638" lon="9.166709086321289"><ele>22.0</ele><time>2026-04-20T13:26:15Z</time></trkpt><trkpt lat="39.27310822793421" lon="9.1667331243171"><ele>22.0</ele><time>2026-04-20T13:26:19Z</time></trkpt><trkpt lat="39.273182099234404" lon="9.166719013019964"><ele>22.0</ele><time>2026-04-20T13:26:22Z</time></trkpt><trkpt lat="39.273247385553965" lon="9.166706769994542"><ele>22.333333333333332</ele><time>2026-04-20T13:26:24Z</time></trkpt><trkpt lat="39.273330753094235" lon="9.16670442460024"><ele>22.666666666666664</ele><time>2026-04-20T13:26:25Z</time></trkpt><trkpt lat="39.273413281828354" lon="9.166711763631941"><ele>23.0</ele><time>2026-04-20T13:26:27Z</time></trkpt><trkpt lat="39.27349675443493" lon="9.166713991994671"><ele>23.333333333333332</ele><time>2026-04-20T13:26:29Z</time></trkpt><trkpt lat="39.27358112215777" lon="9.16670082781397"><ele>23.666666666666668</ele><time>2026-04-20T13:26:31Z</time></trkpt><trkpt lat="39.27368065978134" lon="9.166709872058373"><ele>24.0</ele><time>2026-04-20T13:26:33Z</time></trkpt><trkpt lat="39.273762076214005" lon="9.166708883404741"><ele>24.0</ele><time>2026-04-20T13:26:35Z</time></trkpt><trkpt lat="39.273848331690566" lon="9.166704888966906"><ele>24.0</ele><time>2026-04-20T13:26:37Z</time></trkpt><trkpt lat="39.27393724028755" lon="9.166702906324446"><ele>24.0</ele><time>2026-04-20T13:26:40Z</time></trkpt><trkpt lat="39.274007323957456" lon="9.166701029326928"><ele>24.0</ele><time>2026-04-20T13:26:42Z</time></trkpt><trkpt lat="39.27412674490354" lon="9.166681981529221"><ele>24.0</ele><time>2026-04-20T13:26:45Z</time></trkpt><trkpt lat="39.274214940210136" lon="9.166673443597551"><ele>24.0</ele><time>2026-04-20T13:26:47Z</time></trkpt><trkpt lat="39.27429168647967" lon="9.1666515476947"><ele>24.0</ele><time>2026-04-20T13:26:49Z</time></trkpt><trkpt lat="39.27436555323963" lon="9.166667570554246"><ele>24.0</ele><time>2026-04-20T13:26:51Z</time></trkpt><trkpt lat="39.27444028128433" lon="9.166699910008697"><ele>24.0</ele><time>2026-04-20T13:26:53Z</time></trkpt><trkpt lat="39.274512896208" lon="9.166661353974572"><ele>24.0</ele><time>2026-04-20T13:26:55Z</time></trkpt><trkpt lat="39.27458181338014" lon="9.166647673190859"><ele>24.0</ele><time>2026-04-20T13:26:57Z</time></trkpt><trkpt lat="39.27464846460613" lon="9.1666215067336"><ele>23.999999999999996</ele><time>2026-04-20T13:26:59Z</time></trkpt><trkpt lat="39.2747211075941" lon="9.166611226089802"><ele>24.0</ele><time>2026-04-20T13:27:01Z</time></trkpt><trkpt lat="39.27479301157344" lon="9.16659078282465"><ele>24.0</ele><time>2026-04-20T13:27:03Z</time></trkpt><trkpt lat="39.27486639549975" lon="9.166583478552342"><ele>24.0</ele><time>2026-04-20T13:27:05Z</time></trkpt><trkpt lat="39.27493810117662" lon="9.166557883048554"><ele>24.0</ele><time>2026-04-20T13:27:07Z</time></trkpt><trkpt lat="39.275006046251484" lon="9.166553263817327"><ele>23.999999999999996</ele><time>2026-04-20T13:27:09Z</time></trkpt><trkpt lat="39.275078326316475" lon="9.166549944049018"><ele>24.0</ele><time>2026-04-20T13:27:11Z</time></trkpt><trkpt lat="39.27514701644148" lon="9.166564807889662"><ele>23.999999999999996</ele><time>2026-04-20T13:27:13Z</time></trkpt><trkpt lat="39.27522125402855" lon="9.166558303143397"><ele>24.0</ele><time>2026-04-20T13:27:15Z</time></trkpt><trkpt lat="39.27529127575719" lon="9.166559384038507"><ele>24.0</ele><time>2026-04-20T13:27:17Z</time></trkpt><trkpt lat="39.2753598414629" lon="9.16656210819473"><ele>24.0</ele><time>2026-04-20T13:27:19Z</time></trkpt><trkpt lat="39.27542277987931" lon="9.16657034253607"><ele>24.0</ele><time>2026-04-20T13:27:22Z</time></trkpt><trkpt lat="39.27552409091883" lon="9.166591989389401"><ele>23.999999999999996</ele><time>2026-04-20T13:27:24Z</time></trkpt><trkpt lat="39.2755894706825" lon="9.166598142239227"><ele>24.0</ele><time>2026-04-20T13:27:26Z</time></trkpt><trkpt lat="39.27566360880496" lon="9.166607441435284"><ele>24.0</ele><time>2026-04-20T13:27:28Z</time></trkpt><trkpt lat="39.275757910658584" lon="9.166611460007474"><ele>24.0</ele><time>2026-04-20T13:27:31Z</time></trkpt><trkpt lat="39.27585696939509" lon="9.166623557610954"><ele>24.0</ele><time>2026-04-20T13:27:34Z</time></trkpt><trkpt lat="39.275940580344255" lon="9.166629412872647"><ele>24.0</ele><time>2026-04-20T13:27:37Z</time></trkpt><trkpt lat="39.27601195610739" lon="9.166632759208394"><ele>24.0</ele><time>2026-04-20T13:27:39Z</time></trkpt><trkpt lat="39.27611027607653" lon="9.166643806270315"><ele>24.0</ele><time>2026-04-20T13:27:41Z</time></trkpt><trkpt lat="39.27618995063489" lon="9.166652356878288"><ele>24.0</ele><time>2026-04-20T13:27:43Z</time></trkpt><trkpt lat="39.27626833794967" lon="9.166649773060783"><ele>24.0</ele><time>2026-04-20T13:27:45Z</time></trkpt><trkpt lat="39.27635416097413" lon="9.166651878573576"><ele>24.0</ele><time>2026-04-20T13:27:47Z</time></trkpt><trkpt lat="39.276430299037244" lon="9.16664944942398"><ele>24.0</ele><time>2026-04-20T13:27:50Z</time></trkpt><trkpt lat="39.276513093090585" lon="9.166667167790132"><ele>24.0</ele><time>2026-04-20T13:27:52Z</time></trkpt><trkpt lat="39.2766146136409" lon="9.166672536459753"><ele>24.0</ele><time>2026-04-20T13:27:54Z</time></trkpt><trkpt lat="39.276694431127055" lon="9.166668388983346"><ele>24.166666666666668</ele><time>2026-04-20T13:27:56Z</time></trkpt><trkpt lat="39.27677357856629" lon="9.166665629720473"><ele>24.333333333333336</ele><time>2026-04-20T13:27:58Z</time></trkpt><trkpt lat="39.27685260160707" lon="9.166667911865252"><ele>24.5</ele><time>2026-04-20T13:28:00Z</time></trkpt><trkpt lat="39.27693192450095" lon="9.16666971794927"><ele>24.666666666666668</ele><time>2026-04-20T13:28:02Z</time></trkpt><trkpt lat="39.27700820700112" lon="9.166676630342023"><ele>24.833333333333336</ele><time>2026-04-20T13:28:04Z</time></trkpt><trkpt lat="39.27708622272521" lon="9.166683251413042"><ele>25.0</ele><time>2026-04-20T13:28:06Z</time></trkpt><trkpt lat="39.27716652719114" lon="9.166679503103433"><ele>25.000000000000004</ele><time>2026-04-20T13:28:08Z</time></trkpt><trkpt lat="39.277243087392556" lon="9.166694228224138"><ele>25.0</ele><time>2026-04-20T13:28:10Z</time></trkpt><trkpt lat="39.2773217154498" lon="9.166714807763753"><ele>25.0</ele><time>2026-04-20T13:28:12Z</time></trkpt><trkpt lat="39.277402281940695" lon="9.166730196273136"><ele>25.0</ele><time>2026-04-20T13:28:14Z</time></trkpt><trkpt lat="39.27748197014777" lon="9.166752691928997"><ele>25.000000000000004</ele><time>2026-04-20T13:28:16Z</time></trkpt><trkpt lat="39.27755926918332" lon="9.166768738940396"><ele>25.0</ele><time>2026-04-20T13:28:18Z</time></trkpt><trkpt lat="39.27763925670569" lon="9.166790015305818"><ele>25.333333333333336</ele><time>2026-04-20T13:28:20Z</time></trkpt><trkpt lat="39.27771922846959" lon="9.166806989551905"><ele>25.666666666666668</ele><time>2026-04-20T13:28:22Z</time></trkpt><trkpt lat="39.27779909941897" lon="9.166822342055926"><ele>26.0</ele><time>2026-04-20T13:28:24Z</time></trkpt><trkpt lat="39.277870786042904" lon="9.166845417225177"><ele>26.333333333333336</ele><time>2026-04-20T13:28:26Z</time></trkpt><trkpt lat="39.277945985876926" lon="9.166867045745333"><ele>26.666666666666668</ele><time>2026-04-20T13:28:28Z</time></trkpt><trkpt lat="39.27801857820476" lon="9.16688339929831"><ele>27.0</ele><time>2026-04-20T13:28:30Z</time></trkpt><trkpt lat="39.27809284296267" lon="9.166895717824664"><ele>27.166666666666668</ele><time>2026-04-20T13:28:32Z</time></trkpt><trkpt lat="39.27816903349775" lon="9.166898151728976"><ele>27.333333333333336</ele><time>2026-04-20T13:28:34Z</time></trkpt><trkpt lat="39.27824522986563" lon="9.166907141333088"><ele>27.5</ele><time>2026-04-20T13:28:36Z</time></trkpt><trkpt lat="39.278325454174485" lon="9.166907107825295"><ele>27.666666666666668</ele><time>2026-04-20T13:28:38Z</time></trkpt><trkpt lat="39.27839912697555" lon="9.16690714793025"><ele>27.833333333333336</ele><time>2026-04-20T13:28:40Z</time></trkpt><trkpt lat="39.27847408264574" lon="9.16691462496025"><ele>28.0</ele><time>2026-04-20T13:28:42Z</time></trkpt><trkpt lat="39.2785503754736" lon="9.166915550083786"><ele>28.000000000000004</ele><time>2026-04-20T13:28:44Z</time></trkpt><trkpt lat="39.27863000512192" lon="9.166907362476051"><ele>28.0</ele><time>2026-04-20T13:28:46Z</time></trkpt><trkpt lat="39.278706422369474" lon="9.16691548204337"><ele>28.0</ele><time>2026-04-20T13:28:48Z</time></trkpt><trkpt lat="39.27878471818674" lon="9.166927947591796"><ele>28.0</ele><time>2026-04-20T13:28:50Z</time></trkpt><trkpt lat="39.27885854418443" lon="9.166924336746767"><ele>28.000000000000004</ele><time>2026-04-20T13:28:52Z</time></trkpt><trkpt lat="39.2789356485437" lon="9.166931320448818"><ele>28.0</ele><time>2026-04-20T13:28:54Z</time></trkpt><trkpt lat="39.279013838587986" lon="9.166931723683023"><ele>28.166666666666668</ele><time>2026-04-20T13:28:56Z</time></trkpt><trkpt lat="39.27908696583823" lon="9.166943021291795"><ele>28.333333333333336</ele><time>2026-04-20T13:28:58Z</time></trkpt><trkpt lat="39.27916963485009" lon="9.166941233956766"><ele>28.5</ele><time>2026-04-20T13:29:00Z</time></trkpt><trkpt lat="39.27924963199959" lon="9.166944337683361"><ele>28.666666666666664</ele><time>2026-04-20T13:29:02Z</time></trkpt><trkpt lat="39.279333181322336" lon="9.166938467014132"><ele>28.833333333333332</ele><time>2026-04-20T13:29:04Z</time></trkpt><trkpt lat="39.279405172389616" lon="9.166937129366053"><ele>29.0</ele><time>2026-04-20T13:29:06Z</time></trkpt><trkpt lat="39.279479705169265" lon="9.166946284776767"><ele>28.999999999999996</ele><time>2026-04-20T13:29:08Z</time></trkpt><trkpt lat="39.279548151343796" lon="9.166976159469842"><ele>29.0</ele><time>2026-04-20T13:29:10Z</time></trkpt><trkpt lat="39.27962008089857" lon="9.166996170208272"><ele>29.0</ele><time>2026-04-20T13:29:12Z</time></trkpt><trkpt lat="39.27970077967295" lon="9.166967747880658"><ele>29.0</ele><time>2026-04-20T13:29:14Z</time></trkpt><trkpt lat="39.27978265974132" lon="9.166949765832602"><ele>28.999999999999996</ele><time>2026-04-20T13:29:16Z</time></trkpt><trkpt lat="39.27986431473575" lon="9.1669391216492"><ele>29.0</ele><time>2026-04-20T13:29:18Z</time></trkpt><trkpt lat="39.27994264732228" lon="9.166932291134808"><ele>29.166666666666664</ele><time>2026-04-20T13:29:20Z</time></trkpt><trkpt lat="39.28002281431788" lon="9.166921534520217"><ele>29.333333333333332</ele><time>2026-04-20T13:29:22Z</time></trkpt><trkpt lat="39.28010177582207" lon="9.166911606342781"><ele>29.5</ele><time>2026-04-20T13:29:24Z</time></trkpt><trkpt lat="39.28017824470311" lon="9.166894574920008"><ele>29.666666666666664</ele><time>2026-04-20T13:29:26Z</time></trkpt><trkpt lat="39.28025471901444" lon="9.166894652155566"><ele>29.833333333333332</ele><time>2026-04-20T13:29:28Z</time></trkpt><trkpt lat="39.280329948035146" lon="9.16688878967731"><ele>30.0</ele><time>2026-04-20T13:29:30Z</time></trkpt><trkpt lat="39.28040678284821" lon="9.166883994686382"><ele>30.0</ele><time>2026-04-20T13:29:32Z</time></trkpt><trkpt lat="39.28048458546426" lon="9.166893068878116"><ele>30.0</ele><time>2026-04-20T13:29:34Z</time></trkpt><trkpt lat="39.28055959663888" lon="9.166901459889019"><ele>30.0</ele><time>2026-04-20T13:29:36Z</time></trkpt><trkpt lat="39.280633878174775" lon="9.166914897124256"><ele>30.0</ele><time>2026-04-20T13:29:38Z</time></trkpt><trkpt lat="39.28070412717396" lon="9.166930473842736"><ele>30.0</ele><time>2026-04-20T13:29:40Z</time></trkpt><trkpt lat="39.280779472181976" lon="9.166941527632483"><ele>30.0</ele><time>2026-04-20T13:29:42Z</time></trkpt><trkpt lat="39.28085470524229" lon="9.166949814984862"><ele>30.166666666666668</ele><time>2026-04-20T13:29:44Z</time></trkpt><trkpt lat="39.28093010981837" lon="9.166953545411616"><ele>30.333333333333336</ele><time>2026-04-20T13:29:46Z</time></trkpt><trkpt lat="39.28100788317411" lon="9.166946001710343"><ele>30.5</ele><time>2026-04-20T13:29:48Z</time></trkpt><trkpt lat="39.28109890135378" lon="9.166980988897032"><ele>30.666666666666668</ele><time>2026-04-20T13:29:51Z</time></trkpt><trkpt lat="39.281172750531184" lon="9.16697353520855"><ele>30.833333333333336</ele><time>2026-04-20T13:29:53Z</time></trkpt><trkpt lat="39.281240451061095" lon="9.166967700632595"><ele>31.0</ele><time>2026-04-20T13:29:55Z</time></trkpt><trkpt lat="39.281309538455055" lon="9.166988813451658"><ele>31.5</ele><time>2026-04-20T13:29:57Z</time></trkpt><trkpt lat="39.28148756702202" lon="9.16697217385771"><ele>32.0</ele><time>2026-04-20T13:30:03Z</time></trkpt><trkpt lat="39.28156273833614" lon="9.166956300856823"><ele>32.5</ele><time>2026-04-20T13:30:05Z</time></trkpt><trkpt lat="39.2816439101956" lon="9.166974786776542"><ele>33.0</ele><time>2026-04-20T13:30:07Z</time></trkpt><trkpt lat="39.28175875928499" lon="9.166991224874703"><ele>33.0</ele><time>2026-04-20T13:30:10Z</time></trkpt><trkpt lat="39.28189841344713" lon="9.167001531922335"><ele>33.0</ele><time>2026-04-20T13:30:14Z</time></trkpt><trkpt lat="39.28197180654646" lon="9.167010161354867"><ele>33.0</ele><time>2026-04-20T13:30:16Z</time></trkpt><trkpt lat="39.28204020165576" lon="9.167031038108876"><ele>33.0</ele><time>2026-04-20T13:30:18Z</time></trkpt><trkpt lat="39.28217142424516" lon="9.167053840688974"><ele>33.0</ele><time>2026-04-20T13:30:22Z</time></trkpt><trkpt lat="39.28223554763448" lon="9.16706241426042"><ele>33.4</ele><time>2026-04-20T13:30:24Z</time></trkpt><trkpt lat="39.28230541819545" lon="9.167072272972783"><ele>33.8</ele><time>2026-04-20T13:30:26Z</time></trkpt><trkpt lat="39.282369087696544" lon="9.167082306174487"><ele>34.2</ele><time>2026-04-20T13:30:28Z</time></trkpt><trkpt lat="39.282425138461434" lon="9.167135486002266"><ele>34.6</ele><time>2026-04-20T13:30:30Z</time></trkpt><trkpt lat="39.28265080895392" lon="9.167152553055065"><ele>35.0</ele><time>2026-04-20T13:30:36Z</time></trkpt><trkpt lat="39.28273359109449" lon="9.167174147549487"><ele>35.0</ele><time>2026-04-20T13:30:39Z</time></trkpt><trkpt lat="39.28279718974084" lon="9.167192605456755"><ele>35.0</ele><time>2026-04-20T13:30:41Z</time></trkpt><trkpt lat="39.28286690878245" lon="9.167216783151893"><ele>35.0</ele><time>2026-04-20T13:30:44Z</time></trkpt><trkpt lat="39.282930987703196" lon="9.167213909172252"><ele>35.0</ele><time>2026-04-20T13:30:46Z</time></trkpt><trkpt lat="39.28302069679511" lon="9.167236210255542"><ele>35.0</ele><time>2026-04-20T13:30:48Z</time></trkpt><trkpt lat="39.28309340799192" lon="9.16724846559776"><ele>35.0</ele><time>2026-04-20T13:30:50Z</time></trkpt><trkpt lat="39.28319264569379" lon="9.167258723707642"><ele>35.33333333333333</ele><time>2026-04-20T13:30:52Z</time></trkpt><trkpt lat="39.28328277096302" lon="9.167273067365418"><ele>35.666666666666664</ele><time>2026-04-20T13:30:54Z</time></trkpt><trkpt lat="39.283368087919825" lon="9.167290839865498"><ele>36.0</ele><time>2026-04-20T13:30:56Z</time></trkpt><trkpt lat="39.28346101504263" lon="9.167306790168645"><ele>36.333333333333336</ele><time>2026-04-20T13:30:58Z</time></trkpt><trkpt lat="39.28352947054181" lon="9.167308681391594"><ele>36.66666666666667</ele><time>2026-04-20T13:31:00Z</time></trkpt><trkpt lat="39.28359275040215" lon="9.167312342403315"><ele>37.0</ele><time>2026-04-20T13:31:02Z</time></trkpt><trkpt lat="39.283690806343515" lon="9.16733384507572"><ele>37.0</ele><time>2026-04-20T13:31:04Z</time></trkpt><trkpt lat="39.283781572996475" lon="9.167345954069356"><ele>37.0</ele><time>2026-04-20T13:31:06Z</time></trkpt><trkpt lat="39.283883205680816" lon="9.167349560650278"><ele>37.0</ele><time>2026-04-20T13:31:09Z</time></trkpt><trkpt lat="39.28394688091396" lon="9.16737281931289"><ele>37.0</ele><time>2026-04-20T13:31:11Z</time></trkpt><trkpt lat="39.284022300842565" lon="9.167392330572143"><ele>37.0</ele><time>2026-04-20T13:31:13Z</time></trkpt><trkpt lat="39.28421859589435" lon="9.167398766652962"><ele>36.833333333333336</ele><time>2026-04-20T13:31:15Z</time></trkpt><trkpt lat="39.28429840348753" lon="9.16740626152438"><ele>36.66666666666667</ele><time>2026-04-20T13:31:17Z</time></trkpt><trkpt lat="39.284371774922036" lon="9.167415064964336"><ele>36.5</ele><time>2026-04-20T13:31:19Z</time></trkpt><trkpt lat="39.28445367830136" lon="9.167425306373431"><ele>36.333333333333336</ele><time>2026-04-20T13:31:21Z</time></trkpt><trkpt lat="39.28452848099465" lon="9.1674330385058"><ele>36.166666666666664</ele><time>2026-04-20T13:31:23Z</time></trkpt><trkpt lat="39.28460026884855" lon="9.167440052012772"><ele>36.0</ele><time>2026-04-20T13:31:25Z</time></trkpt><trkpt lat="39.28467035150643" lon="9.167458823906372"><ele>36.0</ele><time>2026-04-20T13:31:27Z</time></trkpt><trkpt lat="39.2847455710576" lon="9.167466356326798"><ele>36.0</ele><time>2026-04-20T13:31:29Z</time></trkpt><trkpt lat="39.284822242848804" lon="9.167460122249707"><ele>36.0</ele><time>2026-04-20T13:31:31Z</time></trkpt><trkpt lat="39.28489743171659" lon="9.167465697125676"><ele>36.0</ele><time>2026-04-20T13:31:34Z</time></trkpt><trkpt lat="39.28498812724838" lon="9.167476069888346"><ele>36.0</ele><time>2026-04-20T13:31:37Z</time></trkpt><trkpt lat="39.28505800093531" lon="9.167472669356727"><ele>36.0</ele><time>2026-04-20T13:31:40Z</time></trkpt><trkpt lat="39.285191706287904" lon="9.167453178328367"><ele>36.0</ele><time>2026-04-20T13:31:43Z</time></trkpt><trkpt lat="39.2852668808643" lon="9.167443632194832"><ele>36.0</ele><time>2026-04-20T13:31:45Z</time></trkpt><trkpt lat="39.285358353172676" lon="9.167407584081296"><ele>36.0</ele><time>2026-04-20T13:31:47Z</time></trkpt><trkpt lat="39.285432197966934" lon="9.16737577104263"><ele>36.0</ele><time>2026-04-20T13:31:49Z</time></trkpt><trkpt lat="39.285505621168646" lon="9.167330222835698"><ele>36.0</ele><time>2026-04-20T13:31:51Z</time></trkpt><trkpt lat="39.28558265841716" lon="9.167297754580712"><ele>36.0</ele><time>2026-04-20T13:31:53Z</time></trkpt><trkpt lat="39.28565716081152" lon="9.167248752351238"><ele>36.5</ele><time>2026-04-20T13:31:55Z</time></trkpt><trkpt lat="39.28571641964073" lon="9.167188985044676"><ele>37.0</ele><time>2026-04-20T13:31:57Z</time></trkpt><trkpt lat="39.28578222919955" lon="9.167131718611811"><ele>37.5</ele><time>2026-04-20T13:31:59Z</time></trkpt><trkpt lat="39.285851879373226" lon="9.16707955426723"><ele>38.0</ele><time>2026-04-20T13:32:01Z</time></trkpt><trkpt lat="39.28592116222165" lon="9.167007570169583"><ele>38.5</ele><time>2026-04-20T13:32:03Z</time></trkpt><trkpt lat="39.28598778915473" lon="9.166975033320986"><ele>39.0</ele><time>2026-04-20T13:32:05Z</time></trkpt><trkpt lat="39.286055850457174" lon="9.166921828829643"><ele>39.0</ele><time>2026-04-20T13:32:07Z</time></trkpt><trkpt lat="39.28612444828671" lon="9.166869700310704"><ele>39.0</ele><time>2026-04-20T13:32:09Z</time></trkpt><trkpt lat="39.286214432622465" lon="9.166813123637013"><ele>39.0</ele><time>2026-04-20T13:32:12Z</time></trkpt><trkpt lat="39.28628475627255" lon="9.166787391095937"><ele>39.0</ele><time>2026-04-20T13:32:14Z</time></trkpt><trkpt lat="39.286357950544804" lon="9.166768132061236"><ele>39.0</ele><time>2026-04-20T13:32:16Z</time></trkpt><trkpt lat="39.28643051075617" lon="9.166749468237093"><ele>39.0</ele><time>2026-04-20T13:32:18Z</time></trkpt><trkpt lat="39.28650616417043" lon="9.166734450491322"><ele>39.166666666666664</ele><time>2026-04-20T13:32:20Z</time></trkpt><trkpt lat="39.28658556271269" lon="9.166710060352097"><ele>39.333333333333336</ele><time>2026-04-20T13:32:22Z</time></trkpt><trkpt lat="39.28666478226309" lon="9.166689302828445"><ele>39.5</ele><time>2026-04-20T13:32:24Z</time></trkpt><trkpt lat="39.28673536871158" lon="9.166670700271604"><ele>39.66666666666667</ele><time>2026-04-20T13:32:26Z</time></trkpt><trkpt lat="39.286809020223174" lon="9.16665122361885"><ele>39.833333333333336</ele><time>2026-04-20T13:32:28Z</time></trkpt><trkpt lat="39.28688397720638" lon="9.16664034879557"><ele>40.0</ele><time>2026-04-20T13:32:30Z</time></trkpt><trkpt lat="39.28696118582384" lon="9.166621188247804"><ele>40.0</ele><time>2026-04-20T13:32:32Z</time></trkpt><trkpt lat="39.2870376853508" lon="9.166613445131237"><ele>40.0</ele><time>2026-04-20T13:32:34Z</time></trkpt><trkpt lat="39.28711631409137" lon="9.166609399960185"><ele>40.0</ele><time>2026-04-20T13:32:36Z</time></trkpt><trkpt lat="39.287185290568715" lon="9.166603190295499"><ele>40.0</ele><time>2026-04-20T13:32:39Z</time></trkpt><trkpt lat="39.287298743732244" lon="9.166610210484416"><ele>40.0</ele><time>2026-04-20T13:32:42Z</time></trkpt><trkpt lat="39.28738461929153" lon="9.166606655807858"><ele>40.0</ele><time>2026-04-20T13:32:44Z</time></trkpt><trkpt lat="39.28749492661238" lon="9.166575329639368"><ele>40.333333333333336</ele><time>2026-04-20T13:32:47Z</time></trkpt><trkpt lat="39.287581636411026" lon="9.166582720541644"><ele>40.66666666666667</ele><time>2026-04-20T13:32:49Z</time></trkpt><trkpt lat="39.28766056908842" lon="9.166570595940648"><ele>41.0</ele><time>2026-04-20T13:32:51Z</time></trkpt><trkpt lat="39.28775093217552" lon="9.166537226948847"><ele>41.333333333333336</ele><time>2026-04-20T13:32:53Z</time></trkpt><trkpt lat="39.28783036577262" lon="9.166521580994573"><ele>41.666666666666664</ele><time>2026-04-20T13:32:55Z</time></trkpt><trkpt lat="39.28790704409498" lon="9.166520284270977"><ele>42.0</ele><time>2026-04-20T13:32:57Z</time></trkpt><trkpt lat="39.287986065044265" lon="9.166515593036554"><ele>42.0</ele><time>2026-04-20T13:32:59Z</time></trkpt><trkpt lat="39.28806548939468" lon="9.166510744009521"><ele>42.0</ele><time>2026-04-20T13:33:01Z</time></trkpt><trkpt lat="39.28815226414872" lon="9.166519693542929"><ele>42.0</ele><time>2026-04-20T13:33:03Z</time></trkpt><trkpt lat="39.28823877457009" lon="9.166531953865478"><ele>42.0</ele><time>2026-04-20T13:33:05Z</time></trkpt><trkpt lat="39.28832914823218" lon="9.166556788688679"><ele>42.0</ele><time>2026-04-20T13:33:07Z</time></trkpt><trkpt lat="39.28841523861621" lon="9.166574727046543"><ele>42.0</ele><time>2026-04-20T13:33:09Z</time></trkpt><trkpt lat="39.28848888833458" lon="9.166612411618043"><ele>42.0</ele><time>2026-04-20T13:33:11Z</time></trkpt><trkpt lat="39.28857084305081" lon="9.166643528615754"><ele>42.0</ele><time>2026-04-20T13:33:13Z</time></trkpt><trkpt lat="39.288652025942014" lon="9.166669329783238"><ele>42.0</ele><time>2026-04-20T13:33:15Z</time></trkpt><trkpt lat="39.288739111522744" lon="9.166678631113218"><ele>42.0</ele><time>2026-04-20T13:33:17Z</time></trkpt><trkpt lat="39.28882370846843" lon="9.166666460169894"><ele>42.0</ele><time>2026-04-20T13:33:19Z</time></trkpt><trkpt lat="39.28890649006286" lon="9.166658801194059"><ele>42.0</ele><time>2026-04-20T13:33:21Z</time></trkpt><trkpt lat="39.28898352096743" lon="9.16664309836447"><ele>41.833333333333336</ele><time>2026-04-20T13:33:23Z</time></trkpt><trkpt lat="39.28906318825346" lon="9.166634901907914"><ele>41.666666666666664</ele><time>2026-04-20T13:33:25Z</time></trkpt><trkpt lat="39.28914534921256" lon="9.166610117533299"><ele>41.5</ele><time>2026-04-20T13:33:27Z</time></trkpt><trkpt lat="39.289224990998825" lon="9.166591653791599"><ele>41.33333333333333</ele><time>2026-04-20T13:33:29Z</time></trkpt><trkpt lat="39.289304606562304" lon="9.166573190860364"><ele>41.166666666666664</ele><time>2026-04-20T13:33:31Z</time></trkpt><trkpt lat="39.289382453295225" lon="9.166553645129374"><ele>41.0</ele><time>2026-04-20T13:33:33Z</time></trkpt><trkpt lat="39.289461721498014" lon="9.166527636078653"><ele>41.5</ele><time>2026-04-20T13:33:35Z</time></trkpt><trkpt lat="39.289543071299256" lon="9.166500002642325"><ele>42.0</ele><time>2026-04-20T13:33:37Z</time></trkpt><trkpt lat="39.289627294628666" lon="9.166479051070148"><ele>42.5</ele><time>2026-04-20T13:33:39Z</time></trkpt><trkpt lat="39.28970858367433" lon="9.166460584110952"><ele>43.0</ele><time>2026-04-20T13:33:41Z</time></trkpt><trkpt lat="39.28978994834426" lon="9.166439063006003"><ele>43.5</ele><time>2026-04-20T13:33:43Z</time></trkpt><trkpt lat="39.289869499445054" lon="9.166420946131849"><ele>44.0</ele><time>2026-04-20T13:33:45Z</time></trkpt><trkpt lat="39.28995481698003" lon="9.166411840768703"><ele>44.166666666666664</ele><time>2026-04-20T13:33:47Z</time></trkpt><trkpt lat="39.290035957306785" lon="9.166386938735997"><ele>44.33333333333333</ele><time>2026-04-20T13:33:49Z</time></trkpt><trkpt lat="39.290153768999424" lon="9.166385887492304"><ele>44.5</ele><time>2026-04-20T13:33:52Z</time></trkpt><trkpt lat="39.290232651132044" lon="9.16638137303222"><ele>44.666666666666664</ele><time>2026-04-20T13:33:54Z</time></trkpt><trkpt lat="39.29031094928011" lon="9.166372435794734"><ele>44.833333333333336</ele><time>2026-04-20T13:33:56Z</time></trkpt><trkpt lat="39.290383393321385" lon="9.166367876376215"><ele>45.0</ele><time>2026-04-20T13:33:58Z</time></trkpt><trkpt lat="39.29046439915042" lon="9.166363030279705"><ele>45.0</ele><time>2026-04-20T13:34:00Z</time></trkpt><trkpt lat="39.290587029746945" lon="9.166352572696098"><ele>45.0</ele><time>2026-04-20T13:34:03Z</time></trkpt><trkpt lat="39.290704652035885" lon="9.166348564128956"><ele>45.0</ele><time>2026-04-20T13:34:06Z</time></trkpt><trkpt lat="39.2907843753444" lon="9.166340747317056"><ele>45.0</ele><time>2026-04-20T13:34:08Z</time></trkpt><trkpt lat="39.290866253348376" lon="9.166337546444403"><ele>45.0</ele><time>2026-04-20T13:34:10Z</time></trkpt><trkpt lat="39.29094914170005" lon="9.166333597936326"><ele>45.166666666666664</ele><time>2026-04-20T13:34:12Z</time></trkpt><trkpt lat="39.29102581140624" lon="9.166334119106544"><ele>45.333333333333336</ele><time>2026-04-20T13:34:14Z</time></trkpt><trkpt lat="39.291106806236066" lon="9.166317973903343"><ele>45.5</ele><time>2026-04-20T13:34:16Z</time></trkpt><trkpt lat="39.29118646914599" lon="9.166328207308261"><ele>45.66666666666667</ele><time>2026-04-20T13:34:18Z</time></trkpt><trkpt lat="39.29126707486596" lon="9.166324340100854"><ele>45.833333333333336</ele><time>2026-04-20T13:34:20Z</time></trkpt><trkpt lat="39.29134872632445" lon="9.16631645022053"><ele>46.0</ele><time>2026-04-20T13:34:22Z</time></trkpt><trkpt lat="39.2914275463432" lon="9.166317172272562"><ele>46.0</ele><time>2026-04-20T13:34:24Z</time></trkpt><trkpt lat="39.291545001974264" lon="9.166299196356615"><ele>46.0</ele><time>2026-04-20T13:34:27Z</time></trkpt><trkpt lat="39.29162306227539" lon="9.166292512157383"><ele>46.0</ele><time>2026-04-20T13:34:29Z</time></trkpt><trkpt lat="39.29170232554758" lon="9.16628527807657"><ele>46.0</ele><time>2026-04-20T13:34:31Z</time></trkpt><trkpt lat="39.291781909352416" lon="9.166268628654096"><ele>46.0</ele><time>2026-04-20T13:34:33Z</time></trkpt><trkpt lat="39.291861152396365" lon="9.166249935030422"><ele>46.0</ele><time>2026-04-20T13:34:35Z</time></trkpt><trkpt lat="39.29194011052501" lon="9.166236160360329"><ele>46.0</ele><time>2026-04-20T13:34:37Z</time></trkpt><trkpt lat="39.29201387772931" lon="9.166221099287135"><ele>46.0</ele><time>2026-04-20T13:34:39Z</time></trkpt><trkpt lat="39.29209072597373" lon="9.166193871169629"><ele>46.0</ele><time>2026-04-20T13:34:41Z</time></trkpt><trkpt lat="39.29216353112301" lon="9.166169873656216"><ele>46.0</ele><time>2026-04-20T13:34:43Z</time></trkpt><trkpt lat="39.29223852989208" lon="9.166150417827371"><ele>46.0</ele><time>2026-04-20T13:34:45Z</time></trkpt><trkpt lat="39.292318983651775" lon="9.166121209441723"><ele>46.0</ele><time>2026-04-20T13:34:47Z</time></trkpt><trkpt lat="39.292394813307105" lon="9.16608405138795"><ele>46.16666666666667</ele><time>2026-04-20T13:34:49Z</time></trkpt><trkpt lat="39.29247571642729" lon="9.166046553076567"><ele>46.333333333333336</ele><time>2026-04-20T13:34:51Z</time></trkpt><trkpt lat="39.292556699365605" lon="9.16600962162875"><ele>46.5</ele><time>2026-04-20T13:34:53Z</time></trkpt><trkpt lat="39.29264223461436" lon="9.16597586085515"><ele>46.666666666666664</ele><time>2026-04-20T13:34:55Z</time></trkpt><trkpt lat="39.292730776342395" lon="9.16594639304164"><ele>46.83333333333333</ele><time>2026-04-20T13:34:58Z</time></trkpt><trkpt lat="39.29281157309685" lon="9.165927112994593"><ele>47.0</ele><time>2026-04-20T13:35:00Z</time></trkpt><trkpt lat="39.292918597841506" lon="9.165890157291686"><ele>47.0</ele><time>2026-04-20T13:35:03Z</time></trkpt><trkpt lat="39.29301272541659" lon="9.165839392024948"><ele>47.0</ele><time>2026-04-20T13:35:05Z</time></trkpt><trkpt lat="39.293094820022745" lon="9.165788981598082"><ele>47.0</ele><time>2026-04-20T13:35:07Z</time></trkpt><trkpt lat="39.29317630989165" lon="9.165746674955674"><ele>47.0</ele><time>2026-04-20T13:35:09Z</time></trkpt><trkpt lat="39.29325329586472" lon="9.165704611511554"><ele>47.0</ele><time>2026-04-20T13:35:11Z</time></trkpt><trkpt lat="39.293328025220745" lon="9.165668900496593"><ele>47.0</ele><time>2026-04-20T13:35:13Z</time></trkpt><trkpt lat="39.2934041396689" lon="9.165641799140245"><ele>47.166666666666664</ele><time>2026-04-20T13:35:15Z</time></trkpt><trkpt lat="39.29347579445542" lon="9.165606800020125"><ele>47.33333333333333</ele><time>2026-04-20T13:35:17Z</time></trkpt><trkpt lat="39.29355047385957" lon="9.16558021847332"><ele>47.5</ele><time>2026-04-20T13:35:19Z</time></trkpt><trkpt lat="39.29362450183532" lon="9.165534709734668"><ele>47.666666666666664</ele><time>2026-04-20T13:35:21Z</time></trkpt><trkpt lat="39.29369581469884" lon="9.165503770393668"><ele>47.833333333333336</ele><time>2026-04-20T13:35:23Z</time></trkpt><trkpt lat="39.29377257014789" lon="9.165476792894982"><ele>48.0</ele><time>2026-04-20T13:35:25Z</time></trkpt><trkpt lat="39.29384214945863" lon="9.165441640505282"><ele>47.99999999999999</ele><time>2026-04-20T13:35:27Z</time></trkpt><trkpt lat="39.29391627873855" lon="9.165405515016317"><ele>48.0</ele><time>2026-04-20T13:35:29Z</time></trkpt><trkpt lat="39.29398754984444" lon="9.165366457264955"><ele>48.0</ele><time>2026-04-20T13:35:31Z</time></trkpt><trkpt lat="39.29405595486559" lon="9.165323410510634"><ele>48.0</ele><time>2026-04-20T13:35:33Z</time></trkpt><trkpt lat="39.29413078644473" lon="9.165305711842194"><ele>48.0</ele><time>2026-04-20T13:35:35Z</time></trkpt><trkpt lat="39.294196723536615" lon="9.165286093432895"><ele>47.99999999999999</ele><time>2026-04-20T13:35:37Z</time></trkpt><trkpt lat="39.29426250136867" lon="9.16526504928981"><ele>48.0</ele><time>2026-04-20T13:35:39Z</time></trkpt><trkpt lat="39.29431770401902" lon="9.165221419802675"><ele>48.166666666666664</ele><time>2026-04-20T13:35:41Z</time></trkpt><trkpt lat="39.294378013380445" lon="9.165172175497897"><ele>48.33333333333333</ele><time>2026-04-20T13:35:43Z</time></trkpt><trkpt lat="39.29442990408056" lon="9.165101325164255"><ele>48.5</ele><time>2026-04-20T13:35:45Z</time></trkpt><trkpt lat="39.29448811479262" lon="9.165038754803124"><ele>48.666666666666664</ele><time>2026-04-20T13:35:47Z</time></trkpt><trkpt lat="39.29454363517139" lon="9.164961627485477"><ele>48.83333333333333</ele><time>2026-04-20T13:35:49Z</time></trkpt><trkpt lat="39.29459557940177" lon="9.164881696825068"><ele>49.0</ele><time>2026-04-20T13:35:51Z</time></trkpt><trkpt lat="39.29465033259828" lon="9.164804906344953"><ele>48.99999999999999</ele><time>2026-04-20T13:35:53Z</time></trkpt><trkpt lat="39.294703417834924" lon="9.164729093249772"><ele>49.0</ele><time>2026-04-20T13:35:55Z</time></trkpt><trkpt lat="39.29476213525177" lon="9.164671840928367"><ele>49.0</ele><time>2026-04-20T13:35:57Z</time></trkpt><trkpt lat="39.294835832302994" lon="9.164625082936652"><ele>49.0</ele><time>2026-04-20T13:35:59Z</time></trkpt><trkpt lat="39.294903784623" lon="9.164587715514005"><ele>48.99999999999999</ele><time>2026-04-20T13:36:01Z</time></trkpt><trkpt lat="39.294979310873636" lon="9.164548824765195"><ele>49.0</ele><time>2026-04-20T13:36:03Z</time></trkpt><trkpt lat="39.29505690181512" lon="9.164513692265007"><ele>49.33333333333333</ele><time>2026-04-20T13:36:05Z</time></trkpt><trkpt lat="39.29513539977931" lon="9.164487388343838"><ele>49.666666666666664</ele><time>2026-04-20T13:36:07Z</time></trkpt><trkpt lat="39.29521137455499" lon="9.16446438172215"><ele>50.0</ele><time>2026-04-20T13:36:09Z</time></trkpt><trkpt lat="39.295292925061574" lon="9.16444424338497"><ele>50.33333333333333</ele><time>2026-04-20T13:36:11Z</time></trkpt><trkpt lat="39.295372406655225" lon="9.164439873592121"><ele>50.666666666666664</ele><time>2026-04-20T13:36:13Z</time></trkpt><trkpt lat="39.295451736996036" lon="9.164433106049868"><ele>51.0</ele><time>2026-04-20T13:36:15Z</time></trkpt><trkpt lat="39.29552914401069" lon="9.164446011513519"><ele>51.333333333333336</ele><time>2026-04-20T13:36:17Z</time></trkpt><trkpt lat="39.29560507445325" lon="9.164456932299647"><ele>51.66666666666667</ele><time>2026-04-20T13:36:19Z</time></trkpt><trkpt lat="39.29568326699744" lon="9.164470234860183"><ele>52.0</ele><time>2026-04-20T13:36:21Z</time></trkpt><trkpt lat="39.295756389717724" lon="9.164481885909451"><ele>52.333333333333336</ele><time>2026-04-20T13:36:23Z</time></trkpt><trkpt lat="39.29583363620067" lon="9.16448329895494"><ele>52.66666666666667</ele><time>2026-04-20T13:36:25Z</time></trkpt><trkpt lat="39.29591349455546" lon="9.16448568966621"><ele>53.0</ele><time>2026-04-20T13:36:27Z</time></trkpt><trkpt lat="39.29599085489353" lon="9.16449588326145"><ele>53.00000000000001</ele><time>2026-04-20T13:36:29Z</time></trkpt><trkpt lat="39.296065451000246" lon="9.16450570235485"><ele>53.0</ele><time>2026-04-20T13:36:31Z</time></trkpt><trkpt lat="39.29614160634175" lon="9.164513357666557"><ele>53.0</ele><time>2026-04-20T13:36:33Z</time></trkpt><trkpt lat="39.29621800325208" lon="9.164521953659351"><ele>53.0</ele><time>2026-04-20T13:36:35Z</time></trkpt><trkpt lat="39.29629502354562" lon="9.164530656581814"><ele>53.00000000000001</ele><time>2026-04-20T13:36:37Z</time></trkpt><trkpt lat="39.296372103873644" lon="9.164536300347137"><ele>53.0</ele><time>2026-04-20T13:36:39Z</time></trkpt><trkpt lat="39.296450225457235" lon="9.16454256611907"><ele>53.16666666666667</ele><time>2026-04-20T13:36:41Z</time></trkpt><trkpt lat="39.29652649949066" lon="9.164549908770514"><ele>53.333333333333336</ele><time>2026-04-20T13:36:43Z</time></trkpt><trkpt lat="39.29660252410496" lon="9.164554801077674"><ele>53.5</ele><time>2026-04-20T13:36:45Z</time></trkpt><trkpt lat="39.29667856877738" lon="9.164549610888646"><ele>53.66666666666667</ele><time>2026-04-20T13:36:47Z</time></trkpt><trkpt lat="39.296756515153376" lon="9.1645476695292"><ele>53.833333333333336</ele><time>2026-04-20T13:36:49Z</time></trkpt><trkpt lat="39.296831644197134" lon="9.16454188291216"><ele>54.0</ele><time>2026-04-20T13:36:51Z</time></trkpt><trkpt lat="39.296908528396784" lon="9.164538450323926"><ele>54.0</ele><time>2026-04-20T13:36:53Z</time></trkpt><trkpt lat="39.29697918958029" lon="9.164533198486195"><ele>54.0</ele><time>2026-04-20T13:36:55Z</time></trkpt><trkpt lat="39.29705005457301" lon="9.164522424114855"><ele>54.0</ele><time>2026-04-20T13:36:57Z</time></trkpt><trkpt lat="39.29712094635119" lon="9.164512145621481"><ele>54.0</ele><time>2026-04-20T13:36:59Z</time></trkpt><trkpt lat="39.29718933210528" lon="9.164512960181638"><ele>54.0</ele><time>2026-04-20T13:37:01Z</time></trkpt><trkpt lat="39.29725830598121" lon="9.164497301668028"><ele>54.0</ele><time>2026-04-20T13:37:03Z</time></trkpt><trkpt lat="39.29732968420506" lon="9.164475540654351"><ele>54.0</ele><time>2026-04-20T13:37:05Z</time></trkpt><trkpt lat="39.29739861516924" lon="9.164463260973418"><ele>54.14285714285714</ele><time>2026-04-20T13:37:07Z</time></trkpt><trkpt lat="39.29747068863412" lon="9.164453608868689"><ele>54.285714285714285</ele><time>2026-04-20T13:37:09Z</time></trkpt><trkpt lat="39.29754333388383" lon="9.164437286740226"><ele>54.42857142857143</ele><time>2026-04-20T13:37:11Z</time></trkpt><trkpt lat="39.29761511348982" lon="9.164423995491562"><ele>54.57142857142857</ele><time>2026-04-20T13:37:13Z</time></trkpt><trkpt lat="39.29769145226164" lon="9.164413644950631"><ele>54.714285714285715</ele><time>2026-04-20T13:37:15Z</time></trkpt><trkpt lat="39.297764809397265" lon="9.164405396560179"><ele>54.857142857142854</ele><time>2026-04-20T13:37:17Z</time></trkpt><trkpt lat="39.29783877207333" lon="9.16438656690492"><ele>55.0</ele><time>2026-04-20T13:37:19Z</time></trkpt><trkpt lat="39.298061572676716" lon="9.16437831307578"><ele>55.0</ele><time>2026-04-20T13:37:25Z</time></trkpt><trkpt lat="39.2981341731299" lon="9.164371555752007"><ele>55.0</ele><time>2026-04-20T13:37:27Z</time></trkpt><trkpt lat="39.29820752253013" lon="9.164372882379515"><ele>55.0</ele><time>2026-04-20T13:37:29Z</time></trkpt><trkpt lat="39.29839650911088" lon="9.164389670440295"><ele>55.0</ele><time>2026-04-20T13:37:34Z</time></trkpt><trkpt lat="39.298473257586195" lon="9.164393455377814"><ele>55.0</ele><time>2026-04-20T13:37:36Z</time></trkpt><trkpt lat="39.29854921708412" lon="9.164400179992159"><ele>54.99999999999999</ele><time>2026-04-20T13:37:38Z</time></trkpt><trkpt lat="39.29863007924815" lon="9.164402323266883"><ele>55.0</ele><time>2026-04-20T13:37:40Z</time></trkpt><trkpt lat="39.29870718346544" lon="9.164410960417866"><ele>55.0</ele><time>2026-04-20T13:37:42Z</time></trkpt><trkpt lat="39.29878204433203" lon="9.164421559359296"><ele>55.0</ele><time>2026-04-20T13:37:44Z</time></trkpt><trkpt lat="39.29886109800904" lon="9.164426033140915"><ele>54.99999999999999</ele><time>2026-04-20T13:37:46Z</time></trkpt><trkpt lat="39.29893710939492" lon="9.164441060129272"><ele>55.0</ele><time>2026-04-20T13:37:48Z</time></trkpt><trkpt lat="39.2990134899179" lon="9.164453736595759"><ele>55.33333333333333</ele><time>2026-04-20T13:37:50Z</time></trkpt><trkpt lat="39.29912127258911" lon="9.164461153614786"><ele>55.666666666666664</ele><time>2026-04-20T13:37:53Z</time></trkpt><trkpt lat="39.29919519111517" lon="9.164474891092942"><ele>56.0</ele><time>2026-04-20T13:37:55Z</time></trkpt><trkpt lat="39.299263675923854" lon="9.164491538422569"><ele>56.33333333333333</ele><time>2026-04-20T13:37:57Z</time></trkpt><trkpt lat="39.29934049382851" lon="9.164507150177492"><ele>56.666666666666664</ele><time>2026-04-20T13:37:59Z</time></trkpt><trkpt lat="39.299415179986816" lon="9.164529968041258"><ele>57.0</ele><time>2026-04-20T13:38:01Z</time></trkpt><trkpt lat="39.299493143383266" lon="9.164562169088972"><ele>57.0</ele><time>2026-04-20T13:38:03Z</time></trkpt><trkpt lat="39.29956568752402" lon="9.164598501835554"><ele>57.0</ele><time>2026-04-20T13:38:05Z</time></trkpt><trkpt lat="39.2996739319838" lon="9.164625634654838"><ele>57.0</ele><time>2026-04-20T13:38:08Z</time></trkpt><trkpt lat="39.299743730063504" lon="9.164659712675569"><ele>57.0</ele><time>2026-04-20T13:38:10Z</time></trkpt><trkpt lat="39.29981665394402" lon="9.164681290493846"><ele>57.0</ele><time>2026-04-20T13:38:12Z</time></trkpt><trkpt lat="39.299890492455674" lon="9.16471054790334"><ele>57.0</ele><time>2026-04-20T13:38:14Z</time></trkpt><trkpt lat="39.2999632874945" lon="9.164734296687003"><ele>57.333333333333336</ele><time>2026-04-20T13:38:16Z</time></trkpt><trkpt lat="39.30003617613469" lon="9.164761535145697"><ele>57.66666666666667</ele><time>2026-04-20T13:38:18Z</time></trkpt><trkpt lat="39.30010775569749" lon="9.164775434080092"><ele>58.0</ele><time>2026-04-20T13:38:20Z</time></trkpt><trkpt lat="39.300183024567204" lon="9.164787964157293"><ele>58.333333333333336</ele><time>2026-04-20T13:38:22Z</time></trkpt><trkpt lat="39.30025891098855" lon="9.16481237043225"><ele>58.66666666666667</ele><time>2026-04-20T13:38:24Z</time></trkpt><trkpt lat="39.300332107819585" lon="9.16483768197979"><ele>59.0</ele><time>2026-04-20T13:38:26Z</time></trkpt><trkpt lat="39.30040401191864" lon="9.164866411201253"><ele>59.0</ele><time>2026-04-20T13:38:28Z</time></trkpt><trkpt lat="39.300479014618126" lon="9.164880165445936"><ele>59.0</ele><time>2026-04-20T13:38:30Z</time></trkpt><trkpt lat="39.30054468943079" lon="9.16492042518183"><ele>59.0</ele><time>2026-04-20T13:38:32Z</time></trkpt><trkpt lat="39.30061715263923" lon="9.164951036319788"><ele>59.0</ele><time>2026-04-20T13:38:34Z</time></trkpt><trkpt lat="39.30069065447158" lon="9.164976302379621"><ele>59.0</ele><time>2026-04-20T13:38:36Z</time></trkpt><trkpt lat="39.30076237635181" lon="9.164996140346043"><ele>59.0</ele><time>2026-04-20T13:38:38Z</time></trkpt><trkpt lat="39.30082854652164" lon="9.165030384253448"><ele>59.0</ele><time>2026-04-20T13:38:40Z</time></trkpt><trkpt lat="39.30089778875521" lon="9.165047607453928"><ele>59.42857142857143</ele><time>2026-04-20T13:38:42Z</time></trkpt><trkpt lat="39.300967199667866" lon="9.165070988287221"><ele>59.85714285714286</ele><time>2026-04-20T13:38:44Z</time></trkpt><trkpt lat="39.30103790679206" lon="9.165097683625149"><ele>60.28571428571429</ele><time>2026-04-20T13:38:46Z</time></trkpt><trkpt lat="39.301109860284456" lon="9.165122954662172"><ele>60.714285714285715</ele><time>2026-04-20T13:38:48Z</time></trkpt><trkpt lat="39.30118018528535" lon="9.165139258410537"><ele>61.14285714285715</ele><time>2026-04-20T13:38:50Z</time></trkpt><trkpt lat="39.301247993700166" lon="9.165170021511427"><ele>61.57142857142858</ele><time>2026-04-20T13:38:52Z</time></trkpt><trkpt lat="39.301318144657394" lon="9.165199016994974"><ele>62.0</ele><time>2026-04-20T13:38:54Z</time></trkpt><trkpt lat="39.30138717726047" lon="9.16522217224092"><ele>62.142857142857146</ele><time>2026-04-20T13:38:56Z</time></trkpt><trkpt lat="39.301456287633464" lon="9.165259223316403"><ele>62.28571428571429</ele><time>2026-04-20T13:38:58Z</time></trkpt><trkpt lat="39.30152416183761" lon="9.165289965732823"><ele>62.42857142857143</ele><time>2026-04-20T13:39:00Z</time></trkpt><trkpt lat="39.301591739873864" lon="9.165327626050018"><ele>62.57142857142857</ele><time>2026-04-20T13:39:02Z</time></trkpt><trkpt lat="39.30165330342625" lon="9.165371117252723"><ele>62.714285714285715</ele><time>2026-04-20T13:39:04Z</time></trkpt><trkpt lat="39.301716444208445" lon="9.165419681628102"><ele>62.85714285714286</ele><time>2026-04-20T13:39:06Z</time></trkpt><trkpt lat="39.3017750118739" lon="9.165466085307052"><ele>63.0</ele><time>2026-04-20T13:39:08Z</time></trkpt><trkpt lat="39.30183529695856" lon="9.16551909633034"><ele>63.0</ele><time>2026-04-20T13:39:10Z</time></trkpt><trkpt lat="39.30189099625798" lon="9.16557041457581"><ele>63.0</ele><time>2026-04-20T13:39:12Z</time></trkpt><trkpt lat="39.30194741064784" lon="9.16561736356881"><ele>63.0</ele><time>2026-04-20T13:39:14Z</time></trkpt><trkpt lat="39.302010655092545" lon="9.165693493565406"><ele>63.0</ele><time>2026-04-20T13:39:17Z</time></trkpt><trkpt lat="39.30205827792214" lon="9.165766152086325"><ele>63.0</ele><time>2026-04-20T13:39:20Z</time></trkpt><trkpt lat="39.30212490506595" lon="9.165827055685812"><ele>63.0</ele><time>2026-04-20T13:39:23Z</time></trkpt><trkpt lat="39.302173208084845" lon="9.165910692617794"><ele>63.333333333333336</ele><time>2026-04-20T13:39:26Z</time></trkpt><trkpt lat="39.30223183449739" lon="9.165974806862415"><ele>63.66666666666667</ele><time>2026-04-20T13:39:29Z</time></trkpt><trkpt lat="39.3022897806882" lon="9.166014341729111"><ele>64.0</ele><time>2026-04-20T13:39:32Z</time></trkpt><trkpt lat="39.30236195152107" lon="9.166025000267533"><ele>64.33333333333334</ele><time>2026-04-20T13:39:35Z</time></trkpt><trkpt lat="39.302441061378275" lon="9.166040955631473"><ele>64.66666666666667</ele><time>2026-04-20T13:39:39Z</time></trkpt><trkpt lat="39.30252099881963" lon="9.16605080762006"><ele>65.0</ele><time>2026-04-20T13:39:43Z</time></trkpt><trkpt lat="39.30259480919628" lon="9.166069077348089"><ele>65.83333333333334</ele><time>2026-04-20T13:39:47Z</time></trkpt><trkpt lat="39.30267500109954" lon="9.166093720442914"><ele>66.66666666666667</ele><time>2026-04-20T13:39:51Z</time></trkpt><trkpt lat="39.3027471217697" lon="9.166092482923577"><ele>67.5</ele><time>2026-04-20T13:39:54Z</time></trkpt><trkpt lat="39.30281431908299" lon="9.166068778874807"><ele>68.33333333333333</ele><time>2026-04-20T13:39:57Z</time></trkpt><trkpt lat="39.30290030763231" lon="9.166064484451178"><ele>69.16666666666666</ele><time>2026-04-20T13:40:01Z</time></trkpt><trkpt lat="39.3029671553306" lon="9.166077216253125"><ele>70.0</ele><time>2026-04-20T13:40:04Z</time></trkpt><trkpt lat="39.303039445472294" lon="9.166097541549524"><ele>70.83333333333333</ele><time>2026-04-20T13:40:07Z</time></trkpt><trkpt lat="39.303106958299075" lon="9.166144573090067"><ele>71.66666666666666</ele><time>2026-04-20T13:40:11Z</time></trkpt><trkpt lat="39.30317215429567" lon="9.166189228754757"><ele>72.5</ele><time>2026-04-20T13:40:14Z</time></trkpt><trkpt lat="39.30325137325641" lon="9.166257139010542"><ele>73.33333333333333</ele><time>2026-04-20T13:40:17Z</time></trkpt><trkpt lat="39.30330215521182" lon="9.16630726393427"><ele>74.16666666666667</ele><time>2026-04-20T13:40:19Z</time></trkpt><trkpt lat="39.30336156901593" lon="9.166381383109718"><ele>75.0</ele><time>2026-04-20T13:40:22Z</time></trkpt><trkpt lat="39.30341145538448" lon="9.166470636624569"><ele>75.0</ele><time>2026-04-20T13:40:25Z</time></trkpt><trkpt lat="39.303460813705414" lon="9.166550734115757"><ele>75.0</ele><time>2026-04-20T13:40:28Z</time></trkpt><trkpt lat="39.30353049157885" lon="9.166604378220942"><ele>75.0</ele><time>2026-04-20T13:40:32Z</time></trkpt><trkpt lat="39.303602965000614" lon="9.166621705506632"><ele>75.0</ele><time>2026-04-20T13:40:35Z</time></trkpt><trkpt lat="39.30366574476277" lon="9.166612025125126"><ele>75.0</ele><time>2026-04-20T13:40:37Z</time></trkpt><trkpt lat="39.303749979716684" lon="9.166560695375793"><ele>75.0</ele><time>2026-04-20T13:40:40Z</time></trkpt><trkpt lat="39.3038151042912" lon="9.166521712465155"><ele>75.33333333333333</ele><time>2026-04-20T13:40:42Z</time></trkpt><trkpt lat="39.303918324608055" lon="9.166465852961238"><ele>75.66666666666667</ele><time>2026-04-20T13:40:46Z</time></trkpt><trkpt lat="39.30399282265098" lon="9.166420314310624"><ele>76.0</ele><time>2026-04-20T13:40:48Z</time></trkpt><trkpt lat="39.30406454171097" lon="9.166389213697602"><ele>76.33333333333334</ele><time>2026-04-20T13:40:50Z</time></trkpt><trkpt lat="39.30413209138384" lon="9.166351653071619"><ele>76.66666666666667</ele><time>2026-04-20T13:40:52Z</time></trkpt><trkpt lat="39.30420221561117" lon="9.166306707447479"><ele>77.0</ele><time>2026-04-20T13:40:54Z</time></trkpt><trkpt lat="39.30427982111247" lon="9.166274493304682"><ele>77.0</ele><time>2026-04-20T13:40:56Z</time></trkpt><trkpt lat="39.30434883153861" lon="9.166238991790422"><ele>77.0</ele><time>2026-04-20T13:40:58Z</time></trkpt><trkpt lat="39.3044318169805" lon="9.166221194727317"><ele>77.0</ele><time>2026-04-20T13:41:00Z</time></trkpt><trkpt lat="39.30451489072626" lon="9.16622079390788"><ele>77.0</ele><time>2026-04-20T13:41:02Z</time></trkpt><trkpt lat="39.30458497581037" lon="9.166239404103411"><ele>77.0</ele><time>2026-04-20T13:41:04Z</time></trkpt><trkpt lat="39.30466034684031" lon="9.166239850382732"><ele>77.0</ele><time>2026-04-20T13:41:06Z</time></trkpt><trkpt lat="39.30474234921812" lon="9.166237598106832"><ele>77.16666666666667</ele><time>2026-04-20T13:41:08Z</time></trkpt><trkpt lat="39.30482503647201" lon="9.166238914150549"><ele>77.33333333333334</ele><time>2026-04-20T13:41:10Z</time></trkpt><trkpt lat="39.30490496068448" lon="9.166238668669402"><ele>77.5</ele><time>2026-04-20T13:41:12Z</time></trkpt><trkpt lat="39.30498490038577" lon="9.166239276332687"><ele>77.66666666666667</ele><time>2026-04-20T13:41:14Z</time></trkpt><trkpt lat="39.30506136602406" lon="9.166232238039921"><ele>77.83333333333333</ele><time>2026-04-20T13:41:16Z</time></trkpt><trkpt lat="39.30513928128449" lon="9.166225964598393"><ele>78.0</ele><time>2026-04-20T13:41:18Z</time></trkpt><trkpt lat="39.30521169562545" lon="9.166236025197353"><ele>78.0</ele><time>2026-04-20T13:41:20Z</time></trkpt><trkpt lat="39.30527674562331" lon="9.166255641030729"><ele>78.0</ele><time>2026-04-20T13:41:22Z</time></trkpt><trkpt lat="39.30536314640859" lon="9.166297493869154"><ele>78.0</ele><time>2026-04-20T13:41:25Z</time></trkpt><trkpt lat="39.305446672704015" lon="9.166282623172634"><ele>78.0</ele><time>2026-04-20T13:41:27Z</time></trkpt><trkpt lat="39.30552168307616" lon="9.166278984259842"><ele>78.0</ele><time>2026-04-20T13:41:29Z</time></trkpt><trkpt lat="39.305596925742606" lon="9.166283795238085"><ele>78.0</ele><time>2026-04-20T13:41:31Z</time></trkpt><trkpt lat="39.305687425748495" lon="9.166278043812847"><ele>78.2</ele><time>2026-04-20T13:41:33Z</time></trkpt><trkpt lat="39.305789575876" lon="9.166267495475376"><ele>78.4</ele><time>2026-04-20T13:41:35Z</time></trkpt><trkpt lat="39.30588154338221" lon="9.166271509869544"><ele>78.60000000000001</ele><time>2026-04-20T13:41:37Z</time></trkpt><trkpt lat="39.30597643513231" lon="9.166259205342268"><ele>78.8</ele><time>2026-04-20T13:41:39Z</time></trkpt><trkpt lat="39.30607586191299" lon="9.166236144848487"><ele>79.0</ele><time>2026-04-20T13:41:41Z</time></trkpt><trkpt lat="39.30616927757366" lon="9.166227518021405"><ele>79.0</ele><time>2026-04-20T13:41:43Z</time></trkpt><trkpt lat="39.306260872340715" lon="9.16624976007503"><ele>79.0</ele><time>2026-04-20T13:41:45Z</time></trkpt><trkpt lat="39.30635442257389" lon="9.166235283959612"><ele>79.0</ele><time>2026-04-20T13:41:47Z</time></trkpt><trkpt lat="39.306451974897904" lon="9.166210973149147"><ele>79.0</ele><time>2026-04-20T13:41:49Z</time></trkpt><trkpt lat="39.3065491209552" lon="9.166196307198476"><ele>79.0</ele><time>2026-04-20T13:41:51Z</time></trkpt><trkpt lat="39.3066468028966" lon="9.166189388633956"><ele>78.8</ele><time>2026-04-20T13:41:53Z</time></trkpt><trkpt lat="39.30675392975336" lon="9.166184523706539"><ele>78.60000000000001</ele><time>2026-04-20T13:41:55Z</time></trkpt><trkpt lat="39.30685372733143" lon="9.16617458228626"><ele>78.4</ele><time>2026-04-20T13:41:57Z</time></trkpt><trkpt lat="39.306951748068904" lon="9.166179070065757"><ele>78.2</ele><time>2026-04-20T13:41:59Z</time></trkpt><trkpt lat="39.30704541315716" lon="9.166176616633994"><ele>78.0</ele><time>2026-04-20T13:42:01Z</time></trkpt><trkpt lat="39.30713756395034" lon="9.166196504382118"><ele>78.0</ele><time>2026-04-20T13:42:03Z</time></trkpt><trkpt lat="39.307239529968534" lon="9.166235242071936"><ele>78.0</ele><time>2026-04-20T13:42:05Z</time></trkpt><trkpt lat="39.30733811040751" lon="9.166266711375837"><ele>78.0</ele><time>2026-04-20T13:42:07Z</time></trkpt><trkpt lat="39.307434073714866" lon="9.166300257688233"><ele>78.0</ele><time>2026-04-20T13:42:09Z</time></trkpt><trkpt lat="39.307531171511556" lon="9.166318291718412"><ele>78.0</ele><time>2026-04-20T13:42:11Z</time></trkpt><trkpt lat="39.30762753926859" lon="9.166319768084962"><ele>78.0</ele><time>2026-04-20T13:42:13Z</time></trkpt><trkpt lat="39.30769233694395" lon="9.166324936550584"><ele>78.0</ele><time>2026-04-20T13:42:15Z</time></trkpt><trkpt lat="39.30776034520228" lon="9.16633580275791"><ele>78.0</ele><time>2026-04-20T13:42:18Z</time></trkpt><trkpt lat="39.307829123584014" lon="9.166306996085172"><ele>78.0</ele><time>2026-04-20T13:42:21Z</time></trkpt><trkpt lat="39.30791343727578" lon="9.166316844938128"><ele>78.0</ele><time>2026-04-20T13:42:24Z</time></trkpt><trkpt lat="39.30799668746004" lon="9.1663073577922"><ele>78.0</ele><time>2026-04-20T13:42:27Z</time></trkpt><trkpt lat="39.30808322845228" lon="9.166291137450644"><ele>78.5</ele><time>2026-04-20T13:42:30Z</time></trkpt><trkpt lat="39.308166890746556" lon="9.16627253360952"><ele>79.0</ele><time>2026-04-20T13:42:33Z</time></trkpt><trkpt lat="39.30823438398028" lon="9.16625166368717"><ele>79.5</ele><time>2026-04-20T13:42:36Z</time></trkpt><trkpt lat="39.30831706318829" lon="9.166231597106082"><ele>80.0</ele><time>2026-04-20T13:42:39Z</time></trkpt><trkpt lat="39.30838912528469" lon="9.166201508950996"><ele>80.5</ele><time>2026-04-20T13:42:42Z</time></trkpt><trkpt lat="39.308465874722856" lon="9.166171462457045"><ele>81.0</ele><time>2026-04-20T13:42:45Z</time></trkpt><trkpt lat="39.30854604904211" lon="9.166141811020106"><ele>81.0</ele><time>2026-04-20T13:42:48Z</time></trkpt><trkpt lat="39.308630584065135" lon="9.16612018953401"><ele>81.0</ele><time>2026-04-20T13:42:51Z</time></trkpt><trkpt lat="39.30871293362514" lon="9.166086625740151"><ele>81.0</ele><time>2026-04-20T13:42:54Z</time></trkpt><trkpt lat="39.308773485490185" lon="9.166057965339842"><ele>81.0</ele><time>2026-04-20T13:42:56Z</time></trkpt><trkpt lat="39.3088498926389" lon="9.166039780760412"><ele>81.0</ele><time>2026-04-20T13:42:59Z</time></trkpt><trkpt lat="39.30891139540588" lon="9.166013265146224"><ele>81.0</ele><time>2026-04-20T13:43:02Z</time></trkpt><trkpt lat="39.30899264262782" lon="9.165993911093464"><ele>81.5</ele><time>2026-04-20T13:43:05Z</time></trkpt><trkpt lat="39.30905325609781" lon="9.165969215301164"><ele>82.0</ele><time>2026-04-20T13:43:07Z</time></trkpt><trkpt lat="39.309129184271235" lon="9.165954283111969"><ele>82.5</ele><time>2026-04-20T13:43:09Z</time></trkpt><trkpt lat="39.309207710557146" lon="9.165925043377882"><ele>83.0</ele><time>2026-04-20T13:43:12Z</time></trkpt><trkpt lat="39.309292414999206" lon="9.165878651982284"><ele>83.5</ele><time>2026-04-20T13:43:15Z</time></trkpt><trkpt lat="39.30937259017041" lon="9.16583341635763"><ele>84.0</ele><time>2026-04-20T13:43:17Z</time></trkpt><trkpt lat="39.30945321890863" lon="9.165785989687647"><ele>84.0</ele><time>2026-04-20T13:43:20Z</time></trkpt><trkpt lat="39.3095314549032" lon="9.16574720650387"><ele>84.0</ele><time>2026-04-20T13:43:22Z</time></trkpt><trkpt lat="39.3096013308603" lon="9.165670319714696"><ele>84.0</ele><time>2026-04-20T13:43:25Z</time></trkpt><trkpt lat="39.30964128815449" lon="9.16560457936272"><ele>84.0</ele><time>2026-04-20T13:43:26Z</time></trkpt><trkpt lat="39.30971306800598" lon="9.165541978601476"><ele>84.0</ele><time>2026-04-20T13:43:28Z</time></trkpt><trkpt lat="39.309795509189975" lon="9.16550647886441"><ele>84.0</ele><time>2026-04-20T13:43:30Z</time></trkpt><trkpt lat="39.30987014284546" lon="9.16545975228739"><ele>84.5</ele><time>2026-04-20T13:43:32Z</time></trkpt><trkpt lat="39.3099386477488" lon="9.165410994158425"><ele>85.0</ele><time>2026-04-20T13:43:34Z</time></trkpt><trkpt lat="39.31000952976439" lon="9.165361429095336"><ele>85.5</ele><time>2026-04-20T13:43:36Z</time></trkpt><trkpt lat="39.31007726769628" lon="9.16531102416382"><ele>86.0</ele><time>2026-04-20T13:43:38Z</time></trkpt><trkpt lat="39.31013987285149" lon="9.165268844858407"><ele>86.5</ele><time>2026-04-20T13:43:40Z</time></trkpt><trkpt lat="39.31020293534108" lon="9.165223131639166"><ele>87.0</ele><time>2026-04-20T13:43:42Z</time></trkpt><trkpt lat="39.31028397838647" lon="9.165165482497498"><ele>87.0</ele><time>2026-04-20T13:43:45Z</time></trkpt><trkpt lat="39.31035163023125" lon="9.165152519947428"><ele>87.0</ele><time>2026-04-20T13:43:47Z</time></trkpt><trkpt lat="39.31041604278727" lon="9.165138168496425"><ele>87.0</ele><time>2026-04-20T13:43:49Z</time></trkpt><trkpt lat="39.31048170123282" lon="9.165116708930332"><ele>87.0</ele><time>2026-04-20T13:43:51Z</time></trkpt><trkpt lat="39.310541813120324" lon="9.165091290218632"><ele>87.0</ele><time>2026-04-20T13:43:53Z</time></trkpt><trkpt lat="39.31060069300394" lon="9.165047130853047"><ele>87.0</ele><time>2026-04-20T13:43:55Z</time></trkpt><trkpt lat="39.310674948699585" lon="9.164999718885642"><ele>87.0</ele><time>2026-04-20T13:43:58Z</time></trkpt><trkpt lat="39.310741446889075" lon="9.164966197214733"><ele>87.33333333333333</ele><time>2026-04-20T13:44:02Z</time></trkpt><trkpt lat="39.31081545184039" lon="9.164918807189098"><ele>87.66666666666667</ele><time>2026-04-20T13:44:06Z</time></trkpt><trkpt lat="39.310904229748644" lon="9.164860089606986"><ele>88.0</ele><time>2026-04-20T13:44:10Z</time></trkpt><trkpt lat="39.310955575971036" lon="9.164784746610003"><ele>88.33333333333334</ele><time>2026-04-20T13:44:13Z</time></trkpt><trkpt lat="39.311002007006124" lon="9.164723008047876"><ele>88.66666666666667</ele><time>2026-04-20T13:44:16Z</time></trkpt><trkpt lat="39.31105898234471" lon="9.164649801845979"><ele>89.0</ele><time>2026-04-20T13:44:19Z</time></trkpt><trkpt lat="39.3111246098118" lon="9.164609035773305"><ele>88.99999999999999</ele><time>2026-04-20T13:44:22Z</time></trkpt><trkpt lat="39.311185069078306" lon="9.164586302757463"><ele>89.0</ele><time>2026-04-20T13:44:25Z</time></trkpt><trkpt lat="39.31127362011162" lon="9.164563109295605"><ele>89.0</ele><time>2026-04-20T13:44:28Z</time></trkpt><trkpt lat="39.31134406031686" lon="9.164552511815714"><ele>89.0</ele><time>2026-04-20T13:44:31Z</time></trkpt><trkpt lat="39.31140795638591" lon="9.164555317544734"><ele>89.0</ele><time>2026-04-20T13:44:34Z</time></trkpt><trkpt lat="39.311485172081774" lon="9.164559925925342"><ele>88.99999999999999</ele><time>2026-04-20T13:44:37Z</time></trkpt><trkpt lat="39.311567100479124" lon="9.164545543223827"><ele>89.0</ele><time>2026-04-20T13:44:40Z</time></trkpt><trkpt lat="39.311650869064245" lon="9.164523684655283"><ele>90.0</ele><time>2026-04-20T13:44:43Z</time></trkpt><trkpt lat="39.311725582832075" lon="9.164488463616502"><ele>91.0</ele><time>2026-04-20T13:44:46Z</time></trkpt><trkpt lat="39.311800124018326" lon="9.164484822552673"><ele>92.0</ele><time>2026-04-20T13:44:49Z</time></trkpt><trkpt lat="39.31188591087634" lon="9.164466833471641"><ele>93.0</ele><time>2026-04-20T13:44:53Z</time></trkpt><trkpt lat="39.31196156278619" lon="9.164447818711212"><ele>94.0</ele><time>2026-04-20T13:44:57Z</time></trkpt><trkpt lat="39.31203865556063" lon="9.164434845856684"><ele>95.0</ele><time>2026-04-20T13:45:00Z</time></trkpt><trkpt lat="39.31212336595119" lon="9.164403364541487"><ele>95.0</ele><time>2026-04-20T13:45:03Z</time></trkpt><trkpt lat="39.31220091533144" lon="9.164363227758566"><ele>95.0</ele><time>2026-04-20T13:45:07Z</time></trkpt><trkpt lat="39.31228393266052" lon="9.16434317261915"><ele>95.0</ele><time>2026-04-20T13:45:10Z</time></trkpt><trkpt lat="39.312369856903146" lon="9.164307831071355"><ele>95.0</ele><time>2026-04-20T13:45:13Z</time></trkpt><trkpt lat="39.3124426843948" lon="9.16427574246109"><ele>95.0</ele><time>2026-04-20T13:45:16Z</time></trkpt><trkpt lat="39.31251493302752" lon="9.164257883620959"><ele>95.0</ele><time>2026-04-20T13:45:19Z</time></trkpt><trkpt lat="39.31257723723995" lon="9.164240161534487"><ele>95.5</ele><time>2026-04-20T13:45:22Z</time></trkpt><trkpt lat="39.31264819749419" lon="9.16421697938502"><ele>96.0</ele><time>2026-04-20T13:45:25Z</time></trkpt><trkpt lat="39.31272363970741" lon="9.1641993464146"><ele>96.5</ele><time>2026-04-20T13:45:28Z</time></trkpt><trkpt lat="39.31278374746179" lon="9.164172691952878"><ele>97.0</ele><time>2026-04-20T13:45:30Z</time></trkpt><trkpt lat="39.31284045016604" lon="9.164135555795607"><ele>97.49999999999999</ele><time>2026-04-20T13:45:32Z</time></trkpt><trkpt lat="39.31292704708617" lon="9.164108861238473"><ele>98.0</ele><time>2026-04-20T13:45:35Z</time></trkpt><trkpt lat="39.31301247523794" lon="9.16407334605386"><ele>98.49999999999999</ele><time>2026-04-20T13:45:38Z</time></trkpt><trkpt lat="39.313095265706394" lon="9.164044858759814"><ele>99.0</ele><time>2026-04-20T13:45:41Z</time></trkpt><trkpt lat="39.313176501141356" lon="9.164015633341123"><ele>99.5</ele><time>2026-04-20T13:45:44Z</time></trkpt><trkpt lat="39.31324171353385" lon="9.16398656872865"><ele>100.0</ele><time>2026-04-20T13:45:46Z</time></trkpt><trkpt lat="39.31331128280503" lon="9.16396408490591"><ele>100.49999999999999</ele><time>2026-04-20T13:45:48Z</time></trkpt><trkpt lat="39.31337769449578" lon="9.163915703386253"><ele>101.0</ele><time>2026-04-20T13:45:50Z</time></trkpt><trkpt lat="39.313440755649324" lon="9.163880324845387"><ele>100.99999999999999</ele><time>2026-04-20T13:45:52Z</time></trkpt><trkpt lat="39.31350351226555" lon="9.16385218059771"><ele>101.0</ele><time>2026-04-20T13:45:55Z</time></trkpt><trkpt lat="39.313584346826346" lon="9.163826827793482"><ele>101.0</ele><time>2026-04-20T13:45:58Z</time></trkpt><trkpt lat="39.313660492472266" lon="9.163792530689406"><ele>101.0</ele><time>2026-04-20T13:46:01Z</time></trkpt><trkpt lat="39.313722836282096" lon="9.16376769631768"><ele>100.99999999999999</ele><time>2026-04-20T13:46:03Z</time></trkpt><trkpt lat="39.313825502132225" lon="9.163708031873115"><ele>101.0</ele><time>2026-04-20T13:46:05Z</time></trkpt><trkpt lat="39.31389948905896" lon="9.16362822762023"><ele>101.19999999999999</ele><time>2026-04-20T13:46:07Z</time></trkpt><trkpt lat="39.31397017884849" lon="9.163595975623412"><ele>101.39999999999999</ele><time>2026-04-20T13:46:10Z</time></trkpt><trkpt lat="39.31409787828183" lon="9.163531176302058"><ele>101.6</ele><time>2026-04-20T13:46:12Z</time></trkpt><trkpt lat="39.31418249653504" lon="9.163452986544677"><ele>101.8</ele><time>2026-04-20T13:46:14Z</time></trkpt><trkpt lat="39.31425022724147" lon="9.163375121632686"><ele>102.0</ele><time>2026-04-20T13:46:16Z</time></trkpt><trkpt lat="39.31431623402476" lon="9.163301382045429"><ele>102.0</ele><time>2026-04-20T13:46:18Z</time></trkpt><trkpt lat="39.314384428369905" lon="9.16323177480743"><ele>102.0</ele><time>2026-04-20T13:46:20Z</time></trkpt><trkpt lat="39.31445668466348" lon="9.163189742533035"><ele>102.0</ele><time>2026-04-20T13:46:22Z</time></trkpt><trkpt lat="39.31452617649985" lon="9.163140642842867"><ele>102.0</ele><time>2026-04-20T13:46:24Z</time></trkpt><trkpt lat="39.314586358644675" lon="9.163078454737663"><ele>102.0</ele><time>2026-04-20T13:46:26Z</time></trkpt><trkpt lat="39.31464472752623" lon="9.16301500340705"><ele>102.0</ele><time>2026-04-20T13:46:28Z</time></trkpt><trkpt lat="39.314703290820084" lon="9.162948585169628"><ele>102.0</ele><time>2026-04-20T13:46:30Z</time></trkpt><trkpt lat="39.31476385168441" lon="9.162882948586397"><ele>102.0</ele><time>2026-04-20T13:46:32Z</time></trkpt><trkpt lat="39.31482804031607" lon="9.16282703893992"><ele>102.0</ele><time>2026-04-20T13:46:34Z</time></trkpt><trkpt lat="39.31488902342649" lon="9.162761202025665"><ele>102.0</ele><time>2026-04-20T13:46:36Z</time></trkpt><trkpt lat="39.314981068947645" lon="9.162723498970069"><ele>102.0</ele><time>2026-04-20T13:46:39Z</time></trkpt><trkpt lat="39.31504581358472" lon="9.162662605985936"><ele>102.0</ele><time>2026-04-20T13:46:41Z</time></trkpt><trkpt lat="39.31510448820925" lon="9.162597202531197"><ele>102.0</ele><time>2026-04-20T13:46:43Z</time></trkpt><trkpt lat="39.31515804925698" lon="9.162536797779719"><ele>102.0</ele><time>2026-04-20T13:46:45Z</time></trkpt><trkpt lat="39.31522394895701" lon="9.162476457794845"><ele>102.0</ele><time>2026-04-20T13:46:47Z</time></trkpt><trkpt lat="39.315288559979884" lon="9.162431471720025"><ele>102.0</ele><time>2026-04-20T13:46:49Z</time></trkpt><trkpt lat="39.31534867643474" lon="9.162379299788366"><ele>102.0</ele><time>2026-04-20T13:46:52Z</time></trkpt><trkpt lat="39.31540267045375" lon="9.162331727704352"><ele>102.0</ele><time>2026-04-20T13:46:54Z</time></trkpt><trkpt lat="39.31547687266712" lon="9.162256006093061"><ele>102.14285714285714</ele><time>2026-04-20T13:46:56Z</time></trkpt><trkpt lat="39.31553328380404" lon="9.162210154604466"><ele>102.28571428571429</ele><time>2026-04-20T13:46:58Z</time></trkpt><trkpt lat="39.315589069245824" lon="9.162161548276826"><ele>102.42857142857142</ele><time>2026-04-20T13:47:00Z</time></trkpt><trkpt lat="39.31566307290085" lon="9.162097786590229"><ele>102.57142857142857</ele><time>2026-04-20T13:47:03Z</time></trkpt><trkpt lat="39.315712583044544" lon="9.162045637845784"><ele>102.71428571428571</ele><time>2026-04-20T13:47:05Z</time></trkpt><trkpt lat="39.315776052806164" lon="9.16197742006901"><ele>102.85714285714285</ele><time>2026-04-20T13:47:08Z</time></trkpt><trkpt lat="39.315836677187356" lon="9.161914478052925"><ele>103.0</ele><time>2026-04-20T13:47:11Z</time></trkpt><trkpt lat="39.31589496239953" lon="9.161963637422712"><ele>103.50000000000001</ele><time>2026-04-20T13:47:14Z</time></trkpt><trkpt lat="39.315913914097386" lon="9.16204950413099"><ele>104.0</ele><time>2026-04-20T13:47:16Z</time></trkpt><trkpt lat="39.31593277744105" lon="9.162149974615238"><ele>104.5</ele><time>2026-04-20T13:47:18Z</time></trkpt><trkpt lat="39.31597821017748" lon="9.162247592664581"><ele>105.0</ele><time>2026-04-20T13:47:20Z</time></trkpt><trkpt lat="39.315998426428834" lon="9.162352336645679"><ele>105.50000000000001</ele><time>2026-04-20T13:47:22Z</time></trkpt><trkpt lat="39.31602415335364" lon="9.16246324224161"><ele>106.0</ele><time>2026-04-20T13:47:24Z</time></trkpt><trkpt lat="39.316040074780794" lon="9.162593807092557"><ele>106.0</ele><time>2026-04-20T13:47:26Z</time></trkpt><trkpt lat="39.316058897250336" lon="9.162727376650805"><ele>106.0</ele><time>2026-04-20T13:47:28Z</time></trkpt><trkpt lat="39.31607519705234" lon="9.162857808272706"><ele>106.0</ele><time>2026-04-20T13:47:30Z</time></trkpt><trkpt lat="39.31609380690819" lon="9.162984464255171"><ele>106.0</ele><time>2026-04-20T13:47:32Z</time></trkpt><trkpt lat="39.31611275174075" lon="9.163090939281416"><ele>106.0</ele><time>2026-04-20T13:47:34Z</time></trkpt><trkpt lat="39.316136624517725" lon="9.163193061719042"><ele>106.0</ele><time>2026-04-20T13:47:36Z</time></trkpt><trkpt lat="39.316159642053826" lon="9.163287499684339"><ele>106.0</ele><time>2026-04-20T13:47:38Z</time></trkpt><trkpt lat="39.316173981730174" lon="9.163371841253053"><ele>106.0</ele><time>2026-04-20T13:47:40Z</time></trkpt><trkpt lat="39.31618840354881" lon="9.16345272978896"><ele>106.0</ele><time>2026-04-20T13:47:42Z</time></trkpt><trkpt lat="39.316223020810206" lon="9.163552592287024"><ele>106.0</ele><time>2026-04-20T13:47:45Z</time></trkpt><trkpt lat="39.31627478023159" lon="9.163622429286491"><ele>106.0</ele><time>2026-04-20T13:47:49Z</time></trkpt><trkpt lat="39.31634627526537" lon="9.163651100236601"><ele>106.0</ele><time>2026-04-20T13:47:52Z</time></trkpt><trkpt lat="39.31643549989924" lon="9.16360794045545"><ele>106.0</ele><time>2026-04-20T13:47:55Z</time></trkpt><trkpt lat="39.3165036019305" lon="9.16358581276874"><ele>106.0</ele><time>2026-04-20T13:47:57Z</time></trkpt><trkpt lat="39.316569352565345" lon="9.163574724600934"><ele>106.0</ele><time>2026-04-20T13:47:59Z</time></trkpt><trkpt lat="39.31663314360773" lon="9.163559949727832"><ele>106.0</ele><time>2026-04-20T13:48:01Z</time></trkpt><trkpt lat="39.31670291660584" lon="9.163539858041284"><ele>106.0</ele><time>2026-04-20T13:48:03Z</time></trkpt><trkpt lat="39.316772924529204" lon="9.163526097070152"><ele>106.0</ele><time>2026-04-20T13:48:05Z</time></trkpt><trkpt lat="39.316844433901764" lon="9.163513176836862"><ele>106.0</ele><time>2026-04-20T13:48:07Z</time></trkpt><trkpt lat="39.316918016611936" lon="9.163495234896695"><ele>106.00000000000001</ele><time>2026-04-20T13:48:10Z</time></trkpt><trkpt lat="39.31699991728313" lon="9.163484145919595"><ele>106.0</ele><time>2026-04-20T13:48:13Z</time></trkpt><trkpt lat="39.31708218809311" lon="9.163481734301815"><ele>106.0</ele><time>2026-04-20T13:48:16Z</time></trkpt><trkpt lat="39.31716189090085" lon="9.16346557432726"><ele>106.0</ele><time>2026-04-20T13:48:18Z</time></trkpt><trkpt lat="39.31722964157903" lon="9.16344356378284"><ele>106.00000000000001</ele><time>2026-04-20T13:48:19Z</time></trkpt><trkpt lat="39.317311908824124" lon="9.163430708629567"><ele>106.0</ele><time>2026-04-20T13:48:21Z</time></trkpt><trkpt lat="39.31739351706475" lon="9.163404551901285"><ele>106.00000000000001</ele><time>2026-04-20T13:48:23Z</time></trkpt><trkpt lat="39.317476241884556" lon="9.163384286223403"><ele>106.0</ele><time>2026-04-20T13:48:25Z</time></trkpt><trkpt lat="39.317559235220116" lon="9.163360775521797"><ele>106.0</ele><time>2026-04-20T13:48:27Z</time></trkpt><trkpt lat="39.31764063389704" lon="9.163338097708998"><ele>106.0</ele><time>2026-04-20T13:48:29Z</time></trkpt><trkpt lat="39.31772023990253" lon="9.16332796418374"><ele>106.00000000000001</ele><time>2026-04-20T13:48:31Z</time></trkpt><trkpt lat="39.31779123345635" lon="9.163311121494786"><ele>106.0</ele><time>2026-04-20T13:48:33Z</time></trkpt><trkpt lat="39.31786107843141" lon="9.163293134829882"><ele>106.0</ele><time>2026-04-20T13:48:35Z</time></trkpt><trkpt lat="39.317926200396954" lon="9.163277730596667"><ele>106.0</ele><time>2026-04-20T13:48:37Z</time></trkpt><trkpt lat="39.317996359895886" lon="9.163262180337417"><ele>106.0</ele><time>2026-04-20T13:48:39Z</time></trkpt><trkpt lat="39.31806422097821" lon="9.163237779244714"><ele>106.0</ele><time>2026-04-20T13:48:41Z</time></trkpt><trkpt lat="39.318138581435" lon="9.163212420454979"><ele>106.0</ele><time>2026-04-20T13:48:43Z</time></trkpt><trkpt lat="39.31820912741337" lon="9.16318415131914"><ele>106.0</ele><time>2026-04-20T13:48:45Z</time></trkpt><trkpt lat="39.31829272850409" lon="9.163179230022097"><ele>106.0</ele><time>2026-04-20T13:48:49Z</time></trkpt><trkpt lat="39.318380644362556" lon="9.163153255408844"><ele>106.66666666666667</ele><time>2026-04-20T13:48:52Z</time></trkpt><trkpt lat="39.318469842183774" lon="9.163112354388485"><ele>107.33333333333334</ele><time>2026-04-20T13:48:54Z</time></trkpt><trkpt lat="39.3185443907345" lon="9.163085492716919"><ele>108.0</ele><time>2026-04-20T13:48:56Z</time></trkpt><trkpt lat="39.31862003478884" lon="9.16307021874343"><ele>108.66666666666666</ele><time>2026-04-20T13:48:59Z</time></trkpt><trkpt lat="39.31868567997127" lon="9.16306058059204"><ele>109.33333333333333</ele><time>2026-04-20T13:49:01Z</time></trkpt><trkpt lat="39.318754871747416" lon="9.163044895065882"><ele>110.0</ele><time>2026-04-20T13:49:03Z</time></trkpt><trkpt lat="39.318837014594116" lon="9.163010812773265"><ele>110.57142857142856</ele><time>2026-04-20T13:49:05Z</time></trkpt><trkpt lat="39.3189304032843" lon="9.162995446853337"><ele>111.14285714285714</ele><time>2026-04-20T13:49:08Z</time></trkpt><trkpt lat="39.31899358018333" lon="9.162995833805901"><ele>111.71428571428571</ele><time>2026-04-20T13:49:11Z</time></trkpt><trkpt lat="39.31907485506153" lon="9.162983721587036"><ele>112.28571428571428</ele><time>2026-04-20T13:49:14Z</time></trkpt><trkpt lat="39.31913800842585" lon="9.162969376393743"><ele>112.85714285714285</ele><time>2026-04-20T13:49:16Z</time></trkpt><trkpt lat="39.319209574352136" lon="9.162946932547435"><ele>113.42857142857142</ele><time>2026-04-20T13:49:19Z</time></trkpt><trkpt lat="39.31927063785005" lon="9.162926136255397"><ele>114.0</ele><time>2026-04-20T13:49:21Z</time></trkpt><trkpt lat="39.3193423729603" lon="9.16290955902521"><ele>114.0</ele><time>2026-04-20T13:49:24Z</time></trkpt><trkpt lat="39.3194182120581" lon="9.162890221213425"><ele>113.99999999999999</ele><time>2026-04-20T13:49:27Z</time></trkpt><trkpt lat="39.319487469204525" lon="9.162876454646344"><ele>114.0</ele><time>2026-04-20T13:49:29Z</time></trkpt><trkpt lat="39.31956464650137" lon="9.162855559786475"><ele>114.0</ele><time>2026-04-20T13:49:32Z</time></trkpt><trkpt lat="39.31964187526715" lon="9.162833690749261"><ele>113.99999999999999</ele><time>2026-04-20T13:49:34Z</time></trkpt><trkpt lat="39.319708050535546" lon="9.162817319916794"><ele>114.0</ele><time>2026-04-20T13:49:36Z</time></trkpt><trkpt lat="39.319773893654556" lon="9.162802384551274"><ele>114.0</ele><time>2026-04-20T13:49:39Z</time></trkpt><trkpt lat="39.319852222754214" lon="9.162782538810475"><ele>114.16666666666667</ele><time>2026-04-20T13:49:42Z</time></trkpt><trkpt lat="39.31991378782775" lon="9.162760974967226"><ele>114.33333333333334</ele><time>2026-04-20T13:49:44Z</time></trkpt><trkpt lat="39.31998053487538" lon="9.16273622990884"><ele>114.5</ele><time>2026-04-20T13:49:46Z</time></trkpt><trkpt lat="39.3200648743551" lon="9.162703248976204"><ele>114.66666666666667</ele><time>2026-04-20T13:49:49Z</time></trkpt><trkpt lat="39.32015404767852" lon="9.162673628605718"><ele>114.83333333333334</ele><time>2026-04-20T13:49:51Z</time></trkpt><trkpt lat="39.32023473659057" lon="9.162609023388267"><ele>115.0</ele><time>2026-04-20T13:49:53Z</time></trkpt><trkpt lat="39.320300274989854" lon="9.162586108046703"><ele>115.0</ele><time>2026-04-20T13:49:55Z</time></trkpt><trkpt lat="39.3204045185795" lon="9.162553055070825"><ele>115.0</ele><time>2026-04-20T13:49:57Z</time></trkpt><trkpt lat="39.32046079602566" lon="9.162513311640183"><ele>115.0</ele><time>2026-04-20T13:49:58Z</time></trkpt><trkpt lat="39.320554860686286" lon="9.16244978950108"><ele>115.0</ele><time>2026-04-20T13:50:00Z</time></trkpt><trkpt lat="39.32064833886584" lon="9.162395559799156"><ele>115.0</ele><time>2026-04-20T13:50:02Z</time></trkpt><trkpt lat="39.32073742015175" lon="9.162340842370373"><ele>113.8</ele><time>2026-04-20T13:50:04Z</time></trkpt><trkpt lat="39.320833456795704" lon="9.162284871446909"><ele>112.6</ele><time>2026-04-20T13:50:06Z</time></trkpt><trkpt lat="39.32091685195286" lon="9.162201903780318"><ele>111.4</ele><time>2026-04-20T13:50:08Z</time></trkpt><trkpt lat="39.32099278955351" lon="9.162130451856127"><ele>110.2</ele><time>2026-04-20T13:50:10Z</time></trkpt><trkpt lat="39.32108545920167" lon="9.162175092375781"><ele>109.0</ele><time>2026-04-20T13:50:11Z</time></trkpt><trkpt lat="39.32119361020626" lon="9.162138664483855"><ele>109.0</ele><time>2026-04-20T13:50:13Z</time></trkpt><trkpt lat="39.32129605446993" lon="9.162105775095826"><ele>109.0</ele><time>2026-04-20T13:50:15Z</time></trkpt><trkpt lat="39.32139672647345" lon="9.162076648670713"><ele>109.0</ele><time>2026-04-20T13:50:17Z</time></trkpt><trkpt lat="39.32149561815323" lon="9.162057601411927"><ele>109.0</ele><time>2026-04-20T13:50:19Z</time></trkpt><trkpt lat="39.321595308313185" lon="9.162052040146454"><ele>109.0</ele><time>2026-04-20T13:50:21Z</time></trkpt><trkpt lat="39.32169546002629" lon="9.162042504152453"><ele>108.80000000000001</ele><time>2026-04-20T13:50:23Z</time></trkpt><trkpt lat="39.32179542259176" lon="9.162029738012514"><ele>108.60000000000001</ele><time>2026-04-20T13:50:25Z</time></trkpt><trkpt lat="39.32188948760042" lon="9.16201617756324"><ele>108.4</ele><time>2026-04-20T13:50:27Z</time></trkpt><trkpt lat="39.32197925575119" lon="9.162015223775118"><ele>108.2</ele><time>2026-04-20T13:50:29Z</time></trkpt><trkpt lat="39.32205770193794" lon="9.161986617921018"><ele>108.0</ele><time>2026-04-20T13:50:31Z</time></trkpt><trkpt lat="39.3221421812857" lon="9.161986927140134"><ele>108.0</ele><time>2026-04-20T13:50:33Z</time></trkpt><trkpt lat="39.322217664801734" lon="9.161981524251118"><ele>108.0</ele><time>2026-04-20T13:50:35Z</time></trkpt><trkpt lat="39.322305912937175" lon="9.161948340960086"><ele>108.0</ele><time>2026-04-20T13:50:37Z</time></trkpt><trkpt lat="39.32238639640077" lon="9.161921776727095"><ele>108.0</ele><time>2026-04-20T13:50:39Z</time></trkpt><trkpt lat="39.32245551743687" lon="9.161919223143189"><ele>108.0</ele><time>2026-04-20T13:50:41Z</time></trkpt><trkpt lat="39.32251846756583" lon="9.161935967417836"><ele>108.0</ele><time>2026-04-20T13:50:43Z</time></trkpt><trkpt lat="39.32258047410901" lon="9.161894469744697"><ele>108.16666666666667</ele><time>2026-04-20T13:50:45Z</time></trkpt><trkpt lat="39.32265614810772" lon="9.16188848258696"><ele>108.33333333333334</ele><time>2026-04-20T13:50:47Z</time></trkpt><trkpt lat="39.322724609671646" lon="9.161870819681775"><ele>108.5</ele><time>2026-04-20T13:50:49Z</time></trkpt><trkpt lat="39.32280942131373" lon="9.161844948842948"><ele>108.66666666666667</ele><time>2026-04-20T13:50:51Z</time></trkpt><trkpt lat="39.32289017495652" lon="9.16182352212503"><ele>108.83333333333334</ele><time>2026-04-20T13:50:53Z</time></trkpt><trkpt lat="39.32297109001381" lon="9.161821222806537"><ele>109.0</ele><time>2026-04-20T13:50:55Z</time></trkpt><trkpt lat="39.323051265743615" lon="9.161804923222796"><ele>109.50000000000001</ele><time>2026-04-20T13:50:57Z</time></trkpt><trkpt lat="39.32312505220952" lon="9.16179489666002"><ele>110.0</ele><time>2026-04-20T13:51:00Z</time></trkpt><trkpt lat="39.32319317277884" lon="9.16178177891734"><ele>110.5</ele><time>2026-04-20T13:51:01Z</time></trkpt><trkpt lat="39.32325897456226" lon="9.161740399957955"><ele>111.0</ele><time>2026-04-20T13:51:03Z</time></trkpt><trkpt lat="39.32333635150566" lon="9.16168105475538"><ele>111.50000000000001</ele><time>2026-04-20T13:51:06Z</time></trkpt><trkpt lat="39.32339782534765" lon="9.161626504072403"><ele>112.0</ele><time>2026-04-20T13:51:09Z</time></trkpt><trkpt lat="39.32346228751595" lon="9.161557147976692"><ele>112.16666666666667</ele><time>2026-04-20T13:51:12Z</time></trkpt><trkpt lat="39.323536006703286" lon="9.161473427464127"><ele>112.33333333333334</ele><time>2026-04-20T13:51:15Z</time></trkpt><trkpt lat="39.32360654635552" lon="9.161403412341704"><ele>112.5</ele><time>2026-04-20T13:51:18Z</time></trkpt><trkpt lat="39.32366015587914" lon="9.161352783749862"><ele>112.66666666666666</ele><time>2026-04-20T13:51:20Z</time></trkpt><trkpt lat="39.323709509856464" lon="9.161294391968799"><ele>112.83333333333333</ele><time>2026-04-20T13:51:22Z</time></trkpt><trkpt lat="39.32377757238767" lon="9.16120617519103"><ele>113.0</ele><time>2026-04-20T13:51:25Z</time></trkpt><trkpt lat="39.323829491431155" lon="9.161154717649612"><ele>113.0</ele><time>2026-04-20T13:51:27Z</time></trkpt><trkpt lat="39.32388247300196" lon="9.16110935102158"><ele>113.0</ele><time>2026-04-20T13:51:29Z</time></trkpt><trkpt lat="39.32395661597556" lon="9.161046390239601"><ele>113.0</ele><time>2026-04-20T13:51:32Z</time></trkpt><trkpt lat="39.32401025543192" lon="9.16099258503753"><ele>113.0</ele><time>2026-04-20T13:51:34Z</time></trkpt><trkpt lat="39.32406982743587" lon="9.160959184806261"><ele>113.0</ele><time>2026-04-20T13:51:36Z</time></trkpt><trkpt lat="39.32413369173359" lon="9.160931820122618"><ele>113.0</ele><time>2026-04-20T13:51:38Z</time></trkpt><trkpt lat="39.32419433885817" lon="9.160905307634437"><ele>113.0</ele><time>2026-04-20T13:51:40Z</time></trkpt><trkpt lat="39.32427672793791" lon="9.16089007849901"><ele>113.66666666666666</ele><time>2026-04-20T13:51:43Z</time></trkpt><trkpt lat="39.32433782933948" lon="9.160867703813356"><ele>114.33333333333333</ele><time>2026-04-20T13:51:45Z</time></trkpt><trkpt lat="39.32442739352094" lon="9.160843732269855"><ele>115.0</ele><time>2026-04-20T13:51:48Z</time></trkpt><trkpt lat="39.32451214373071" lon="9.160813684027362"><ele>115.66666666666666</ele><time>2026-04-20T13:51:51Z</time></trkpt><trkpt lat="39.32459456680441" lon="9.160789343920387"><ele>116.33333333333333</ele><time>2026-04-20T13:51:54Z</time></trkpt><trkpt lat="39.324676415905216" lon="9.160764955234779"><ele>117.0</ele><time>2026-04-20T13:51:57Z</time></trkpt><trkpt lat="39.32475443177695" lon="9.160745963231374"><ele>117.5</ele><time>2026-04-20T13:52:00Z</time></trkpt><trkpt lat="39.3248341615001" lon="9.160712608269087"><ele>118.0</ele><time>2026-04-20T13:52:03Z</time></trkpt><trkpt lat="39.32491848781542" lon="9.160666763408225"><ele>118.5</ele><time>2026-04-20T13:52:06Z</time></trkpt><trkpt lat="39.32499525068839" lon="9.160616728122884"><ele>119.0</ele><time>2026-04-20T13:52:09Z</time></trkpt><trkpt lat="39.32507155500129" lon="9.160569967415558"><ele>119.5</ele><time>2026-04-20T13:52:12Z</time></trkpt><trkpt lat="39.32513730399682" lon="9.160525919616756"><ele>120.0</ele><time>2026-04-20T13:52:15Z</time></trkpt><trkpt lat="39.32520130999911" lon="9.16048237275319"><ele>120.71428571428572</ele><time>2026-04-20T13:52:18Z</time></trkpt><trkpt lat="39.32525587627348" lon="9.160435335490947"><ele>121.42857142857142</ele><time>2026-04-20T13:52:21Z</time></trkpt><trkpt lat="39.32531536596194" lon="9.16038909176241"><ele>122.14285714285714</ele><time>2026-04-20T13:52:24Z</time></trkpt><trkpt lat="39.325373159053115" lon="9.160349076569094"><ele>122.85714285714286</ele><time>2026-04-20T13:52:27Z</time></trkpt><trkpt lat="39.32544285027038" lon="9.160296773746563"><ele>123.57142857142858</ele><time>2026-04-20T13:52:31Z</time></trkpt><trkpt lat="39.325517908412394" lon="9.160249689938436"><ele>124.28571428571428</ele><time>2026-04-20T13:52:35Z</time></trkpt><trkpt lat="39.325581026679025" lon="9.160209493097552"><ele>125.0</ele><time>2026-04-20T13:52:39Z</time></trkpt><trkpt lat="39.32563870756895" lon="9.160175553198442"><ele>125.57142857142857</ele><time>2026-04-20T13:52:43Z</time></trkpt><trkpt lat="39.32570106189861" lon="9.160142158633244"><ele>126.14285714285714</ele><time>2026-04-20T13:52:46Z</time></trkpt><trkpt lat="39.325758564375874" lon="9.16010132008422"><ele>126.71428571428571</ele><time>2026-04-20T13:52:49Z</time></trkpt><trkpt lat="39.32582694134667" lon="9.160077412125474"><ele>127.28571428571428</ele><time>2026-04-20T13:52:54Z</time></trkpt><trkpt lat="39.325890789425735" lon="9.16004626083171"><ele>127.85714285714286</ele><time>2026-04-20T13:52:58Z</time></trkpt><trkpt lat="39.32594992045817" lon="9.160014398048721"><ele>128.42857142857142</ele><time>2026-04-20T13:53:01Z</time></trkpt><trkpt lat="39.32602001078847" lon="9.159966807819854"><ele>129.0</ele><time>2026-04-20T13:53:05Z</time></trkpt><trkpt lat="39.326092231885056" lon="9.159950095001774"><ele>128.99999999999997</ele><time>2026-04-20T13:53:09Z</time></trkpt><trkpt lat="39.32615458872901" lon="9.159934048490078"><ele>129.0</ele><time>2026-04-20T13:53:13Z</time></trkpt><trkpt lat="39.326220110234644" lon="9.15991957296316"><ele>129.0</ele><time>2026-04-20T13:53:17Z</time></trkpt><trkpt lat="39.32629064091613" lon="9.159912933562314"><ele>129.0</ele><time>2026-04-20T13:53:21Z</time></trkpt><trkpt lat="39.32636696968515" lon="9.159893315737406"><ele>129.0</ele><time>2026-04-20T13:53:25Z</time></trkpt><trkpt lat="39.32643610797128" lon="9.159860718428957"><ele>128.99999999999997</ele><time>2026-04-20T13:53:29Z</time></trkpt><trkpt lat="39.32651013008945" lon="9.159843237757528"><ele>129.0</ele><time>2026-04-20T13:53:33Z</time></trkpt><trkpt lat="39.32659046608706" lon="9.15982788006238"><ele>130.57142857142856</ele><time>2026-04-20T13:53:37Z</time></trkpt><trkpt lat="39.32665140354951" lon="9.159777195285868"><ele>132.14285714285714</ele><time>2026-04-20T13:53:41Z</time></trkpt><trkpt lat="39.32672043290814" lon="9.15976023553398"><ele>133.71428571428572</ele><time>2026-04-20T13:53:45Z</time></trkpt><trkpt lat="39.32679137741248" lon="9.159759071973061"><ele>135.28571428571428</ele><time>2026-04-20T13:53:50Z</time></trkpt><trkpt lat="39.3268524854152" lon="9.159738000890183"><ele>136.85714285714286</ele><time>2026-04-20T13:53:54Z</time></trkpt><trkpt lat="39.32691447169146" lon="9.159697339919353"><ele>138.42857142857142</ele><time>2026-04-20T13:53:58Z</time></trkpt><trkpt lat="39.326978241061425" lon="9.159661489380065"><ele>140.0</ele><time>2026-04-20T13:54:02Z</time></trkpt><trkpt lat="39.327048694886756" lon="9.159635405485986"><ele>140.0</ele><time>2026-04-20T13:54:06Z</time></trkpt><trkpt lat="39.32712399551685" lon="9.15961201020582"><ele>140.0</ele><time>2026-04-20T13:54:10Z</time></trkpt><trkpt lat="39.32717343339544" lon="9.159555412843503"><ele>140.0</ele><time>2026-04-20T13:54:14Z</time></trkpt><trkpt lat="39.3272400077256" lon="9.159540959179486"><ele>140.0</ele><time>2026-04-20T13:54:18Z</time></trkpt><trkpt lat="39.32729650249785" lon="9.15950430682146"><ele>140.0</ele><time>2026-04-20T13:54:21Z</time></trkpt><trkpt lat="39.32736155074697" lon="9.159458551262619"><ele>140.0</ele><time>2026-04-20T13:54:25Z</time></trkpt><trkpt lat="39.327414049087615" lon="9.159408862752898"><ele>140.0</ele><time>2026-04-20T13:54:29Z</time></trkpt><trkpt lat="39.32748889698172" lon="9.159368883733594"><ele>141.0</ele><time>2026-04-20T13:54:34Z</time></trkpt><trkpt lat="39.32754130957838" lon="9.159312309603044"><ele>142.0</ele><time>2026-04-20T13:54:38Z</time></trkpt><trkpt lat="39.32759326689703" lon="9.159256191813608"><ele>143.0</ele><time>2026-04-20T13:54:42Z</time></trkpt><trkpt lat="39.32764657707149" lon="9.159204074730315"><ele>144.0</ele><time>2026-04-20T13:54:46Z</time></trkpt><trkpt lat="39.32770518899981" lon="9.159140559510345"><ele>145.0</ele><time>2026-04-20T13:54:50Z</time></trkpt><trkpt lat="39.32776209257739" lon="9.159080737822855"><ele>146.0</ele><time>2026-04-20T13:54:54Z</time></trkpt><trkpt lat="39.3278090852188" lon="9.159017319294167"><ele>147.0</ele><time>2026-04-20T13:54:58Z</time></trkpt><trkpt lat="39.32786160228483" lon="9.158945607461527"><ele>147.0</ele><time>2026-04-20T13:55:01Z</time></trkpt><trkpt lat="39.32790069267327" lon="9.15887138082656"><ele>147.0</ele><time>2026-04-20T13:55:04Z</time></trkpt><trkpt lat="39.32793998034089" lon="9.158806156795542"><ele>147.0</ele><time>2026-04-20T13:55:07Z</time></trkpt><trkpt lat="39.327976258711715" lon="9.15871145202527"><ele>147.0</ele><time>2026-04-20T13:55:11Z</time></trkpt><trkpt lat="39.32799707476373" lon="9.158629257680188"><ele>147.0</ele><time>2026-04-20T13:55:14Z</time></trkpt><trkpt lat="39.328045384089386" lon="9.158550667792387"><ele>147.0</ele><time>2026-04-20T13:55:18Z</time></trkpt><trkpt lat="39.32811579033196" lon="9.15852058754071"><ele>147.0</ele><time>2026-04-20T13:55:22Z</time></trkpt><trkpt lat="39.328177680605606" lon="9.158502058672095"><ele>148.28571428571428</ele><time>2026-04-20T13:55:26Z</time></trkpt><trkpt lat="39.32824135479709" lon="9.158465328839513"><ele>149.57142857142856</ele><time>2026-04-20T13:55:30Z</time></trkpt><trkpt lat="39.328308719451385" lon="9.158421174929924"><ele>150.85714285714286</ele><time>2026-04-20T13:55:34Z</time></trkpt><trkpt lat="39.328367223271044" lon="9.15838402191112"><ele>152.14285714285714</ele><time>2026-04-20T13:55:37Z</time></trkpt><trkpt lat="39.328428215233785" lon="9.158352617548468"><ele>153.42857142857142</ele><time>2026-04-20T13:55:40Z</time></trkpt><trkpt lat="39.328489235787295" lon="9.158290515242424"><ele>154.71428571428572</ele><time>2026-04-20T13:55:43Z</time></trkpt><trkpt lat="39.32854889826166" lon="9.158252848617597"><ele>156.0</ele><time>2026-04-20T13:55:47Z</time></trkpt><trkpt lat="39.328619431905146" lon="9.158214065611551"><ele>156.2857142857143</ele><time>2026-04-20T13:55:52Z</time></trkpt><trkpt lat="39.32868147661892" lon="9.158168620765373"><ele>156.57142857142856</ele><time>2026-04-20T13:55:56Z</time></trkpt><trkpt lat="39.32875335863699" lon="9.158146077266824"><ele>156.85714285714286</ele><time>2026-04-20T13:56:00Z</time></trkpt><trkpt lat="39.32882660034563" lon="9.158132010622046"><ele>157.14285714285717</ele><time>2026-04-20T13:56:04Z</time></trkpt><trkpt lat="39.32889962098459" lon="9.158138301710228"><ele>157.42857142857144</ele><time>2026-04-20T13:56:07Z</time></trkpt><trkpt lat="39.328985145756725" lon="9.158139694878669"><ele>157.71428571428572</ele><time>2026-04-20T13:56:11Z</time></trkpt><trkpt lat="39.329053698461166" lon="9.158158271897882"><ele>158.0</ele><time>2026-04-20T13:56:14Z</time></trkpt><trkpt lat="39.32913063524433" lon="9.158167583326295"><ele>158.0</ele><time>2026-04-20T13:56:18Z</time></trkpt><trkpt lat="39.329207667354986" lon="9.158181073091603"><ele>158.0</ele><time>2026-04-20T13:56:22Z</time></trkpt><trkpt lat="39.32929531970961" lon="9.158198536229964"><ele>158.0</ele><time>2026-04-20T13:56:26Z</time></trkpt><trkpt lat="39.32936826380236" lon="9.158206325561675"><ele>158.0</ele><time>2026-04-20T13:56:30Z</time></trkpt><trkpt lat="39.32943441787824" lon="9.158226721212058"><ele>158.0</ele><time>2026-04-20T13:56:33Z</time></trkpt><trkpt lat="39.329517826612566" lon="9.158264900400818"><ele>158.0</ele><time>2026-04-20T13:56:37Z</time></trkpt><trkpt lat="39.329585743093155" lon="9.158301777962494"><ele>158.16666666666666</ele><time>2026-04-20T13:56:39Z</time></trkpt><trkpt lat="39.329641634738266" lon="9.158347492721951"><ele>158.33333333333331</ele><time>2026-04-20T13:56:41Z</time></trkpt><trkpt lat="39.32972184741044" lon="9.158379734719293"><ele>158.5</ele><time>2026-04-20T13:56:44Z</time></trkpt><trkpt lat="39.32979409758565" lon="9.158407732521916"><ele>158.66666666666666</ele><time>2026-04-20T13:56:46Z</time></trkpt><trkpt lat="39.32986512703095" lon="9.158439946627386"><ele>158.83333333333334</ele><time>2026-04-20T13:56:48Z</time></trkpt><trkpt lat="39.329945836410424" lon="9.158517783131453"><ele>159.0</ele><time>2026-04-20T13:56:52Z</time></trkpt><trkpt lat="39.33002019390013" lon="9.158559666104557"><ele>159.28571428571428</ele><time>2026-04-20T13:56:54Z</time></trkpt><trkpt lat="39.3300988815485" lon="9.158617557518452"><ele>159.57142857142858</ele><time>2026-04-20T13:56:57Z</time></trkpt><trkpt lat="39.33016141982385" lon="9.158657998809131"><ele>159.85714285714286</ele><time>2026-04-20T13:56:59Z</time></trkpt><trkpt lat="39.33021984790188" lon="9.158689883351807"><ele>160.14285714285714</ele><time>2026-04-20T13:57:01Z</time></trkpt><trkpt lat="39.33027871900408" lon="9.158723977624579"><ele>160.42857142857144</ele><time>2026-04-20T13:57:03Z</time></trkpt><trkpt lat="39.33034013937052" lon="9.158748883594715"><ele>160.71428571428572</ele><time>2026-04-20T13:57:05Z</time></trkpt><trkpt lat="39.33042007350814" lon="9.158809776242288"><ele>161.0</ele><time>2026-04-20T13:57:08Z</time></trkpt><trkpt lat="39.330500582073796" lon="9.158867746457725"><ele>161.0</ele><time>2026-04-20T13:57:11Z</time></trkpt><trkpt lat="39.33058361225819" lon="9.15892485010851"><ele>161.0</ele><time>2026-04-20T13:57:14Z</time></trkpt><trkpt lat="39.33066034513296" lon="9.158981044223733"><ele>161.0</ele><time>2026-04-20T13:57:17Z</time></trkpt><trkpt lat="39.330720133845396" lon="9.159015144443044"><ele>161.0</ele><time>2026-04-20T13:57:19Z</time></trkpt><trkpt lat="39.33080347459277" lon="9.15906647125704"><ele>161.0</ele><time>2026-04-20T13:57:22Z</time></trkpt><trkpt lat="39.33088646399627" lon="9.159115558194552"><ele>161.0</ele><time>2026-04-20T13:57:25Z</time></trkpt><trkpt lat="39.33096956689188" lon="9.15916741523266"><ele>161.0</ele><time>2026-04-20T13:57:28Z</time></trkpt><trkpt lat="39.33103207996273" lon="9.15920005191835"><ele>161.0</ele><time>2026-04-20T13:57:30Z</time></trkpt><trkpt lat="39.33109870936169" lon="9.159213998349754"><ele>161.0</ele><time>2026-04-20T13:57:32Z</time></trkpt><trkpt lat="39.33116674967049" lon="9.159221292215028"><ele>161.0</ele><time>2026-04-20T13:57:34Z</time></trkpt><trkpt lat="39.33123292513525" lon="9.159219773258796"><ele>161.0</ele><time>2026-04-20T13:57:36Z</time></trkpt><trkpt lat="39.331296156043734" lon="9.159223205833358"><ele>161.0</ele><time>2026-04-20T13:57:38Z</time></trkpt><trkpt lat="39.331379390132916" lon="9.159227737921007"><ele>161.0</ele><time>2026-04-20T13:57:41Z</time></trkpt><trkpt lat="39.33146555649705" lon="9.159236245698741"><ele>161.33333333333331</ele><time>2026-04-20T13:57:44Z</time></trkpt><trkpt lat="39.33153646779108" lon="9.1592375599834"><ele>161.66666666666666</ele><time>2026-04-20T13:57:47Z</time></trkpt><trkpt lat="39.331615970357284" lon="9.159251839525927"><ele>162.0</ele><time>2026-04-20T13:57:50Z</time></trkpt><trkpt lat="39.33170037319562" lon="9.15926170120897"><ele>162.33333333333334</ele><time>2026-04-20T13:57:53Z</time></trkpt><trkpt lat="39.33176671195128" lon="9.159280000104516"><ele>162.66666666666669</ele><time>2026-04-20T13:57:57Z</time></trkpt><trkpt lat="39.331851890870176" lon="9.159312117236343"><ele>163.0</ele><time>2026-04-20T13:58:01Z</time></trkpt><trkpt lat="39.33191757769862" lon="9.159339868582759"><ele>163.0</ele><time>2026-04-20T13:58:04Z</time></trkpt><trkpt lat="39.33198823425371" lon="9.159358063561635"><ele>163.0</ele><time>2026-04-20T13:58:07Z</time></trkpt><trkpt lat="39.332092996437574" lon="9.159416441825293"><ele>163.0</ele><time>2026-04-20T13:58:10Z</time></trkpt><trkpt lat="39.33216263958482" lon="9.15944513929656"><ele>163.0</ele><time>2026-04-20T13:58:12Z</time></trkpt><trkpt lat="39.3322246476118" lon="9.159484433650261"><ele>163.0</ele><time>2026-04-20T13:58:14Z</time></trkpt><trkpt lat="39.33228335895815" lon="9.15953224501619"><ele>163.0</ele><time>2026-04-20T13:58:18Z</time></trkpt><trkpt lat="39.332364032975185" lon="9.159605713565224"><ele>163.33333333333334</ele><time>2026-04-20T13:58:20Z</time></trkpt><trkpt lat="39.33243782671553" lon="9.15964607344683"><ele>163.66666666666669</ele><time>2026-04-20T13:58:22Z</time></trkpt><trkpt lat="39.332518777356306" lon="9.159719898487461"><ele>164.0</ele><time>2026-04-20T13:58:25Z</time></trkpt><trkpt lat="39.332572639397995" lon="9.159773701597544"><ele>164.33333333333334</ele><time>2026-04-20T13:58:27Z</time></trkpt><trkpt lat="39.33262590310649" lon="9.159841930181372"><ele>164.66666666666666</ele><time>2026-04-20T13:58:31Z</time></trkpt><trkpt lat="39.332697475656886" lon="9.159910554779861"><ele>165.0</ele><time>2026-04-20T13:58:33Z</time></trkpt><trkpt lat="39.33275536895167" lon="9.159968046831588"><ele>165.14285714285717</ele><time>2026-04-20T13:58:35Z</time></trkpt><trkpt lat="39.33281687208647" lon="9.160015731883359"><ele>165.28571428571428</ele><time>2026-04-20T13:58:37Z</time></trkpt><trkpt lat="39.332872994363015" lon="9.160069345582277"><ele>165.42857142857144</ele><time>2026-04-20T13:58:39Z</time></trkpt><trkpt lat="39.33292747758396" lon="9.160115635509651"><ele>165.57142857142858</ele><time>2026-04-20T13:58:41Z</time></trkpt><trkpt lat="39.33298180818816" lon="9.16015700656317"><ele>165.71428571428572</ele><time>2026-04-20T13:58:43Z</time></trkpt><trkpt lat="39.33303673172177" lon="9.16020253646887"><ele>165.85714285714286</ele><time>2026-04-20T13:58:45Z</time></trkpt><trkpt lat="39.33309512721923" lon="9.16024452753459"><ele>166.0</ele><time>2026-04-20T13:58:47Z</time></trkpt><trkpt lat="39.333148139887605" lon="9.160293395573675"><ele>166.0</ele><time>2026-04-20T13:58:49Z</time></trkpt><trkpt lat="39.33321730076004" lon="9.160350418284082"><ele>166.0</ele><time>2026-04-20T13:58:52Z</time></trkpt><trkpt lat="39.333265363887264" lon="9.160420662614278"><ele>166.0</ele><time>2026-04-20T13:58:54Z</time></trkpt><trkpt lat="39.3333199669118" lon="9.16047608658503"><ele>166.0</ele><time>2026-04-20T13:58:56Z</time></trkpt><trkpt lat="39.33340482271642" lon="9.160549599329634"><ele>166.0</ele><time>2026-04-20T13:58:59Z</time></trkpt><trkpt lat="39.333469226854625" lon="9.160602046670467"><ele>166.0</ele><time>2026-04-20T13:59:01Z</time></trkpt><trkpt lat="39.333528658522965" lon="9.160640501752855"><ele>166.0</ele><time>2026-04-20T13:59:03Z</time></trkpt><trkpt lat="39.333581360727564" lon="9.16069762330411"><ele>166.0</ele><time>2026-04-20T13:59:05Z</time></trkpt><trkpt lat="39.33363520863803" lon="9.160748299858936"><ele>166.0</ele><time>2026-04-20T13:59:07Z</time></trkpt><trkpt lat="39.33369068520495" lon="9.16080052768583"><ele>166.0</ele><time>2026-04-20T13:59:09Z</time></trkpt><trkpt lat="39.33374757886433" lon="9.160852359231033"><ele>166.0</ele><time>2026-04-20T13:59:11Z</time></trkpt><trkpt lat="39.33380096481826" lon="9.16090330178771"><ele>166.0</ele><time>2026-04-20T13:59:13Z</time></trkpt><trkpt lat="39.33385928053021" lon="9.160956328145401"><ele>166.0</ele><time>2026-04-20T13:59:15Z</time></trkpt><trkpt lat="39.33392087252907" lon="9.161008153894693"><ele>166.28571428571428</ele><time>2026-04-20T13:59:17Z</time></trkpt><trkpt lat="39.33397774902893" lon="9.161064892588252"><ele>166.57142857142858</ele><time>2026-04-20T13:59:19Z</time></trkpt><trkpt lat="39.33402384431706" lon="9.161125977674926"><ele>166.85714285714286</ele><time>2026-04-20T13:59:21Z</time></trkpt><trkpt lat="39.334077703771776" lon="9.161184625311407"><ele>167.14285714285714</ele><time>2026-04-20T13:59:23Z</time></trkpt><trkpt lat="39.33412786598813" lon="9.161237758933138"><ele>167.42857142857144</ele><time>2026-04-20T13:59:25Z</time></trkpt><trkpt lat="39.3341774533909" lon="9.161296472437334"><ele>167.71428571428572</ele><time>2026-04-20T13:59:27Z</time></trkpt><trkpt lat="39.33423207912321" lon="9.161352460307295"><ele>168.0</ele><time>2026-04-20T13:59:29Z</time></trkpt><trkpt lat="39.33428567297616" lon="9.161409608971635"><ele>168.0</ele><time>2026-04-20T13:59:31Z</time></trkpt><trkpt lat="39.3343400267326" lon="9.161472106452765"><ele>168.0</ele><time>2026-04-20T13:59:33Z</time></trkpt><trkpt lat="39.334387929379176" lon="9.161526140003863"><ele>168.0</ele><time>2026-04-20T13:59:35Z</time></trkpt><trkpt lat="39.33444693010884" lon="9.161571074475503"><ele>168.0</ele><time>2026-04-20T13:59:37Z</time></trkpt><trkpt lat="39.33450915553326" lon="9.161644327325902"><ele>168.0</ele><time>2026-04-20T13:59:40Z</time></trkpt><trkpt lat="39.33460920352769" lon="9.161723932440465"><ele>168.0</ele><time>2026-04-20T13:59:43Z</time></trkpt><trkpt lat="39.33468558908396" lon="9.16176649823304"><ele>167.8</ele><time>2026-04-20T13:59:45Z</time></trkpt><trkpt lat="39.334765683424045" lon="9.161823377178681"><ele>167.60000000000002</ele><time>2026-04-20T13:59:47Z</time></trkpt><trkpt lat="39.3348574967896" lon="9.161877962572406"><ele>167.39999999999998</ele><time>2026-04-20T13:59:49Z</time></trkpt><trkpt lat="39.33496067752352" lon="9.16194619467508"><ele>167.2</ele><time>2026-04-20T13:59:51Z</time></trkpt><trkpt lat="39.33508399598038" lon="9.161994549187225"><ele>167.0</ele><time>2026-04-20T13:59:53Z</time></trkpt><trkpt lat="39.33514776675549" lon="9.162042761840564"><ele>167.0</ele><time>2026-04-20T13:59:54Z</time></trkpt><trkpt lat="39.33520592354289" lon="9.162131028194443"><ele>167.0</ele><time>2026-04-20T13:59:55Z</time></trkpt><trkpt lat="39.33526301265014" lon="9.162210062469084"><ele>167.0</ele><time>2026-04-20T13:59:56Z</time></trkpt><trkpt lat="39.33533930004829" lon="9.162299771147572"><ele>167.0</ele><time>2026-04-20T13:59:57Z</time></trkpt><trkpt lat="39.33539502731531" lon="9.162391452508867"><ele>167.0</ele><time>2026-04-20T13:59:58Z</time></trkpt><trkpt lat="39.33547574235945" lon="9.162471424788436"><ele>167.0</ele><time>2026-04-20T13:59:59Z</time></trkpt><trkpt lat="39.33554334911784" lon="9.162563002681887"><ele>167.0</ele><time>2026-04-20T14:00:00Z</time></trkpt><trkpt lat="39.33560159603052" lon="9.162663761667773"><ele>167.0</ele><time>2026-04-20T14:00:01Z</time></trkpt><trkpt lat="39.33563901576902" lon="9.162775289436311"><ele>167.0</ele><time>2026-04-20T14:00:02Z</time></trkpt><trkpt lat="39.33569237616388" lon="9.162881076700774"><ele>167.0</ele><time>2026-04-20T14:00:03Z</time></trkpt><trkpt lat="39.33573837969272" lon="9.162973889710694"><ele>165.66666666666666</ele><time>2026-04-20T14:00:04Z</time></trkpt><trkpt lat="39.33581002842126" lon="9.163046265768253"><ele>164.33333333333331</ele><time>2026-04-20T14:00:05Z</time></trkpt><trkpt lat="39.3358802731655" lon="9.163122456252843"><ele>163.0</ele><time>2026-04-20T14:00:06Z</time></trkpt><trkpt lat="39.33595546672388" lon="9.163194369938513"><ele>161.66666666666666</ele><time>2026-04-20T14:00:07Z</time></trkpt><trkpt lat="39.33602316393328" lon="9.16324565232936"><ele>160.33333333333334</ele><time>2026-04-20T14:00:08Z</time></trkpt><trkpt lat="39.33609391849932" lon="9.163294657642854"><ele>159.0</ele><time>2026-04-20T14:00:09Z</time></trkpt><trkpt lat="39.33616725984224" lon="9.163331093189795"><ele>158.83333333333334</ele><time>2026-04-20T14:00:10Z</time></trkpt><trkpt lat="39.33623221774934" lon="9.16336072949794"><ele>158.66666666666666</ele><time>2026-04-20T14:00:11Z</time></trkpt><trkpt lat="39.3362949360532" lon="9.16338742600288"><ele>158.5</ele><time>2026-04-20T14:00:12Z</time></trkpt><trkpt lat="39.33636101898761" lon="9.163415655225773"><ele>158.33333333333331</ele><time>2026-04-20T14:00:13Z</time></trkpt><trkpt lat="39.336420925041374" lon="9.163443205222817"><ele>158.16666666666666</ele><time>2026-04-20T14:00:14Z</time></trkpt><trkpt lat="39.336518795360625" lon="9.163491359297174"><ele>158.0</ele><time>2026-04-20T14:00:16Z</time></trkpt><trkpt lat="39.33660091583428" lon="9.163528799253914"><ele>157.8</ele><time>2026-04-20T14:00:18Z</time></trkpt><trkpt lat="39.33667756930441" lon="9.163562405228948"><ele>157.60000000000002</ele><time>2026-04-20T14:00:20Z</time></trkpt><trkpt lat="39.336763450053354" lon="9.163603077885556"><ele>157.39999999999998</ele><time>2026-04-20T14:00:22Z</time></trkpt><trkpt lat="39.33685521118354" lon="9.163632432873241"><ele>157.2</ele><time>2026-04-20T14:00:24Z</time></trkpt><trkpt lat="39.336911428517794" lon="9.163669203269174"><ele>157.0</ele><time>2026-04-20T14:00:25Z</time></trkpt><trkpt lat="39.33702039817082" lon="9.163743742000126"><ele>157.0</ele><time>2026-04-20T14:00:27Z</time></trkpt><trkpt lat="39.33710553671072" lon="9.163852670366106"><ele>157.0</ele><time>2026-04-20T14:00:29Z</time></trkpt><trkpt lat="39.33716548986927" lon="9.163954849092043"><ele>157.0</ele><time>2026-04-20T14:00:31Z</time></trkpt><trkpt lat="39.337253364129865" lon="9.16404893009892"><ele>157.0</ele><time>2026-04-20T14:00:33Z</time></trkpt><trkpt lat="39.33733007742359" lon="9.164146270179234"><ele>157.0</ele><time>2026-04-20T14:00:35Z</time></trkpt><trkpt lat="39.33740997992237" lon="9.164236351177381"><ele>157.75</ele><time>2026-04-20T14:00:37Z</time></trkpt><trkpt lat="39.33748351332793" lon="9.164327223978317"><ele>158.5</ele><time>2026-04-20T14:00:39Z</time></trkpt><trkpt lat="39.33756432409391" lon="9.164426368308483"><ele>159.25</ele><time>2026-04-20T14:00:41Z</time></trkpt><trkpt lat="39.33764833443337" lon="9.164536204109174"><ele>160.0</ele><time>2026-04-20T14:00:43Z</time></trkpt><trkpt lat="39.33773438040604" lon="9.164649070692308"><ele>160.0</ele><time>2026-04-20T14:00:45Z</time></trkpt><trkpt lat="39.33777626513821" lon="9.16471045143434"><ele>160.0</ele><time>2026-04-20T14:00:46Z</time></trkpt><trkpt lat="39.337857567219324" lon="9.164834526085777"><ele>160.0</ele><time>2026-04-20T14:00:48Z</time></trkpt><trkpt lat="39.33793810684532" lon="9.164956970268891"><ele>160.0</ele><time>2026-04-20T14:00:50Z</time></trkpt><trkpt lat="39.33800958087265" lon="9.165080668401108"><ele>160.0</ele><time>2026-04-20T14:00:52Z</time></trkpt><trkpt lat="39.33808180836244" lon="9.165198883457109"><ele>159.5</ele><time>2026-04-20T14:00:54Z</time></trkpt><trkpt lat="39.338151169394486" lon="9.165320210764062"><ele>159.0</ele><time>2026-04-20T14:00:56Z</time></trkpt><trkpt lat="39.338211880499145" lon="9.165445515940974"><ele>158.5</ele><time>2026-04-20T14:00:58Z</time></trkpt><trkpt lat="39.338286742127416" lon="9.165560639305497"><ele>158.0</ele><time>2026-04-20T14:01:00Z</time></trkpt><trkpt lat="39.338379833335" lon="9.16565331796487"><ele>158.16666666666666</ele><time>2026-04-20T14:01:02Z</time></trkpt><trkpt lat="39.33848735323546" lon="9.16571269302693"><ele>158.33333333333331</ele><time>2026-04-20T14:01:04Z</time></trkpt><trkpt lat="39.33855758173663" lon="9.165726691113873"><ele>158.5</ele><time>2026-04-20T14:01:05Z</time></trkpt><trkpt lat="39.338653007439035" lon="9.165767591679153"><ele>158.66666666666666</ele><time>2026-04-20T14:01:07Z</time></trkpt><trkpt lat="39.33872335942997" lon="9.165788293935904"><ele>158.83333333333334</ele><time>2026-04-20T14:01:09Z</time></trkpt><trkpt lat="39.33879922180042" lon="9.165802225814536"><ele>159.0</ele><time>2026-04-20T14:01:11Z</time></trkpt><trkpt lat="39.338878664371656" lon="9.165807241808414"><ele>158.83333333333334</ele><time>2026-04-20T14:01:13Z</time></trkpt><trkpt lat="39.338960549469604" lon="9.165828827382997"><ele>158.66666666666666</ele><time>2026-04-20T14:01:15Z</time></trkpt><trkpt lat="39.33903797029085" lon="9.165886899944567"><ele>158.5</ele><time>2026-04-20T14:01:17Z</time></trkpt><trkpt lat="39.33911203983467" lon="9.165958402367366"><ele>158.33333333333331</ele><time>2026-04-20T14:01:20Z</time></trkpt><trkpt lat="39.33913427577332" lon="9.166051589904415"><ele>158.16666666666666</ele><time>2026-04-20T14:01:22Z</time></trkpt><trkpt lat="39.339182653599515" lon="9.16611582284988"><ele>158.0</ele><time>2026-04-20T14:01:24Z</time></trkpt><trkpt lat="39.33920528441238" lon="9.166220877190883"><ele>158.0</ele><time>2026-04-20T14:01:26Z</time></trkpt><trkpt lat="39.339278048343445" lon="9.166303654911944"><ele>158.0</ele><time>2026-04-20T14:01:28Z</time></trkpt><trkpt lat="39.33933351743238" lon="9.166385959508652"><ele>158.0</ele><time>2026-04-20T14:01:30Z</time></trkpt><trkpt lat="39.339382175636025" lon="9.166460799179998"><ele>158.0</ele><time>2026-04-20T14:01:32Z</time></trkpt><trkpt lat="39.33943309543524" lon="9.1665384017437"><ele>158.0</ele><time>2026-04-20T14:01:34Z</time></trkpt><trkpt lat="39.339474761841096" lon="9.1666279670442"><ele>158.0</ele><time>2026-04-20T14:01:37Z</time></trkpt><trkpt lat="39.33953122672274" lon="9.166736267806558"><ele>158.33333333333331</ele><time>2026-04-20T14:01:39Z</time></trkpt><trkpt lat="39.33957346542004" lon="9.166815123355068"><ele>158.66666666666666</ele><time>2026-04-20T14:01:41Z</time></trkpt><trkpt lat="39.33963518450824" lon="9.166916447955456"><ele>159.0</ele><time>2026-04-20T14:01:43Z</time></trkpt><trkpt lat="39.33967390367188" lon="9.167000839256312"><ele>159.33333333333334</ele><time>2026-04-20T14:01:45Z</time></trkpt><trkpt lat="39.33972226802463" lon="9.167109111719133"><ele>159.66666666666669</ele><time>2026-04-20T14:01:47Z</time></trkpt><trkpt lat="39.33976350921007" lon="9.167171693626761"><ele>160.0</ele><time>2026-04-20T14:01:49Z</time></trkpt><trkpt lat="39.339806528774986" lon="9.167269636355847"><ele>160.66666666666669</ele><time>2026-04-20T14:01:51Z</time></trkpt><trkpt lat="39.339843171296195" lon="9.167369571563045"><ele>161.33333333333334</ele><time>2026-04-20T14:01:53Z</time></trkpt><trkpt lat="39.339890878080645" lon="9.167453076011569"><ele>162.0</ele><time>2026-04-20T14:01:55Z</time></trkpt><trkpt lat="39.33992421730607" lon="9.167537699207518"><ele>162.66666666666666</ele><time>2026-04-20T14:01:57Z</time></trkpt><trkpt lat="39.33998224894885" lon="9.167637714310779"><ele>163.33333333333331</ele><time>2026-04-20T14:02:00Z</time></trkpt><trkpt lat="39.34002421221457" lon="9.167721553719506"><ele>164.0</ele><time>2026-04-20T14:02:03Z</time></trkpt><trkpt lat="39.340060883348414" lon="9.16782566008181"><ele>164.0</ele><time>2026-04-20T14:02:06Z</time></trkpt><trkpt lat="39.34010153960787" lon="9.167895641243174"><ele>164.0</ele><time>2026-04-20T14:02:08Z</time></trkpt><trkpt lat="39.34013584953825" lon="9.167994987422055"><ele>164.0</ele><time>2026-04-20T14:02:12Z</time></trkpt><trkpt lat="39.34016538235594" lon="9.168088420898373"><ele>164.0</ele><time>2026-04-20T14:02:15Z</time></trkpt><trkpt lat="39.34022980353058" lon="9.168166078523408"><ele>164.0</ele><time>2026-04-20T14:02:19Z</time></trkpt><trkpt lat="39.340292156613536" lon="9.168223472748162"><ele>164.0</ele><time>2026-04-20T14:02:22Z</time></trkpt><trkpt lat="39.3403584235726" lon="9.16825932229916"><ele>164.28571428571428</ele><time>2026-04-20T14:02:25Z</time></trkpt><trkpt lat="39.340424481018104" lon="9.168304775055415"><ele>164.57142857142856</ele><time>2026-04-20T14:02:28Z</time></trkpt><trkpt lat="39.34049147720283" lon="9.16831903921872"><ele>164.85714285714283</ele><time>2026-04-20T14:02:30Z</time></trkpt><trkpt lat="39.340555429741315" lon="9.168328664674185"><ele>165.14285714285714</ele><time>2026-04-20T14:02:32Z</time></trkpt><trkpt lat="39.34061875225732" lon="9.168370090784023"><ele>165.42857142857144</ele><time>2026-04-20T14:02:35Z</time></trkpt><trkpt lat="39.340678367022356" lon="9.168397755270744"><ele>165.7142857142857</ele><time>2026-04-20T14:02:37Z</time></trkpt><trkpt lat="39.34074508702282" lon="9.16843624083604"><ele>166.0</ele><time>2026-04-20T14:02:40Z</time></trkpt><trkpt lat="39.34081746659105" lon="9.168488061528794"><ele>166.4</ele><time>2026-04-20T14:02:42Z</time></trkpt><trkpt lat="39.34089826215212" lon="9.168546747146657"><ele>166.8</ele><time>2026-04-20T14:02:44Z</time></trkpt><trkpt lat="39.34097954226086" lon="9.168612880548213"><ele>167.20000000000002</ele><time>2026-04-20T14:02:46Z</time></trkpt><trkpt lat="39.34106528890263" lon="9.168690044328129"><ele>167.60000000000002</ele><time>2026-04-20T14:02:48Z</time></trkpt><trkpt lat="39.34114190385564" lon="9.168790527284122"><ele>168.0</ele><time>2026-04-20T14:02:50Z</time></trkpt><trkpt lat="39.341211588785164" lon="9.168894791183881"><ele>168.0</ele><time>2026-04-20T14:02:52Z</time></trkpt><trkpt lat="39.34126096978221" lon="9.168993520955985"><ele>168.0</ele><time>2026-04-20T14:02:54Z</time></trkpt><trkpt lat="39.34114256479239" lon="9.169112992718446"><ele>168.0</ele><time>2026-04-20T14:03:01Z</time></trkpt><trkpt lat="39.34108211477256" lon="9.169139646423325"><ele>168.0</ele><time>2026-04-20T14:03:03Z</time></trkpt><trkpt lat="39.34103308905346" lon="9.169204203166505"><ele>168.0</ele><time>2026-04-20T14:03:05Z</time></trkpt><trkpt lat="39.340974876538105" lon="9.169252278082311"><ele>168.0</ele><time>2026-04-20T14:03:07Z</time></trkpt><trkpt lat="39.34091994416475" lon="9.169342422470816"><ele>168.16666666666666</ele><time>2026-04-20T14:03:10Z</time></trkpt><trkpt lat="39.34099585694791" lon="9.169438407961431"><ele>168.33333333333334</ele><time>2026-04-20T14:03:12Z</time></trkpt><trkpt lat="39.341066732077664" lon="9.169522694573338"><ele>168.5</ele><time>2026-04-20T14:03:15Z</time></trkpt><trkpt lat="39.341115794722576" lon="9.169575894537742"><ele>168.66666666666669</ele><time>2026-04-20T14:03:17Z</time></trkpt><trkpt lat="39.34116614345129" lon="9.169637799755726"><ele>168.83333333333334</ele><time>2026-04-20T14:03:19Z</time></trkpt><trkpt lat="39.34121353632063" lon="9.16970215152035"><ele>169.0</ele><time>2026-04-20T14:03:21Z</time></trkpt><trkpt lat="39.34125458545302" lon="9.1697702996536"><ele>169.0</ele><time>2026-04-20T14:03:23Z</time></trkpt><trkpt lat="39.34130869969056" lon="9.169843252383707"><ele>169.0</ele><time>2026-04-20T14:03:26Z</time></trkpt><trkpt lat="39.34137651924901" lon="9.169943448456346"><ele>169.0</ele><time>2026-04-20T14:03:29Z</time></trkpt><trkpt lat="39.341424232191756" lon="9.170016649504765"><ele>169.0</ele><time>2026-04-20T14:03:32Z</time></trkpt><trkpt lat="39.34146885034498" lon="9.17008192912606"><ele>169.0</ele><time>2026-04-20T14:03:34Z</time></trkpt><trkpt lat="39.34151051487946" lon="9.17016068953691"><ele>169.0</ele><time>2026-04-20T14:03:36Z</time></trkpt><trkpt lat="39.34153509420461" lon="9.170271426854091"><ele>169.14285714285714</ele><time>2026-04-20T14:03:39Z</time></trkpt><trkpt lat="39.34153844190976" lon="9.170354449447423"><ele>169.28571428571428</ele><time>2026-04-20T14:03:41Z</time></trkpt><trkpt lat="39.341531270757685" lon="9.17043598946959"><ele>169.42857142857144</ele><time>2026-04-20T14:03:44Z</time></trkpt><trkpt lat="39.34153221999507" lon="9.170528220844988"><ele>169.57142857142856</ele><time>2026-04-20T14:03:47Z</time></trkpt><trkpt lat="39.341534174505796" lon="9.170614097671052"><ele>169.7142857142857</ele><time>2026-04-20T14:03:49Z</time></trkpt><trkpt lat="39.3415401156981" lon="9.170709237563806"><ele>169.85714285714286</ele><time>2026-04-20T14:03:51Z</time></trkpt><trkpt lat="39.341551516720024" lon="9.170810159381126"><ele>170.0</ele><time>2026-04-20T14:03:54Z</time></trkpt><trkpt lat="39.34155847677752" lon="9.170919737113378"><ele>170.5</ele><time>2026-04-20T14:03:57Z</time></trkpt><trkpt lat="39.34156226971847" lon="9.171001920311621"><ele>171.0</ele><time>2026-04-20T14:03:59Z</time></trkpt><trkpt lat="39.34156803274406" lon="9.171103211229624"><ele>171.5</ele><time>2026-04-20T14:04:02Z</time></trkpt><trkpt lat="39.34157253032206" lon="9.171197989297175"><ele>172.0</ele><time>2026-04-20T14:04:05Z</time></trkpt><trkpt lat="39.34157870486582" lon="9.171294391408562"><ele>172.5</ele><time>2026-04-20T14:04:08Z</time></trkpt><trkpt lat="39.34158030675788" lon="9.17141781601105"><ele>173.0</ele><time>2026-04-20T14:04:11Z</time></trkpt><trkpt lat="39.34158560615113" lon="9.171528583058437"><ele>173.66666666666666</ele><time>2026-04-20T14:04:14Z</time></trkpt><trkpt lat="39.34158616466157" lon="9.171639927405254"><ele>174.33333333333331</ele><time>2026-04-20T14:04:17Z</time></trkpt><trkpt lat="39.34157762219853" lon="9.171746860614046"><ele>175.0</ele><time>2026-04-20T14:04:20Z</time></trkpt><trkpt lat="39.341564281944166" lon="9.171854683986812"><ele>175.66666666666666</ele><time>2026-04-20T14:04:23Z</time></trkpt><trkpt lat="39.341549792920944" lon="9.17196163370651"><ele>176.33333333333334</ele><time>2026-04-20T14:04:26Z</time></trkpt><trkpt lat="39.34152107416234" lon="9.172055186164503"><ele>177.0</ele><time>2026-04-20T14:04:29Z</time></trkpt><trkpt lat="39.34148560105814" lon="9.172145473978254"><ele>177.0</ele><time>2026-04-20T14:04:32Z</time></trkpt><trkpt lat="39.34145705959223" lon="9.172220993093537"><ele>177.0</ele><time>2026-04-20T14:04:35Z</time></trkpt><trkpt lat="39.341429052610906" lon="9.172314886986147"><ele>177.0</ele><time>2026-04-20T14:04:39Z</time></trkpt><trkpt lat="39.34139944274195" lon="9.172405551914688"><ele>177.0</ele><time>2026-04-20T14:04:42Z</time></trkpt><trkpt lat="39.341381774136885" lon="9.17250784229607"><ele>177.0</ele><time>2026-04-20T14:04:45Z</time></trkpt><trkpt lat="39.34137051981757" lon="9.172612415051185"><ele>177.0</ele><time>2026-04-20T14:04:49Z</time></trkpt><trkpt lat="39.341347184860396" lon="9.17270669796278"><ele>177.33333333333334</ele><time>2026-04-20T14:04:52Z</time></trkpt><trkpt lat="39.34132723041438" lon="9.172812686404562"><ele>177.66666666666666</ele><time>2026-04-20T14:04:56Z</time></trkpt><trkpt lat="39.34131983507157" lon="9.172934494823869"><ele>178.0</ele><time>2026-04-20T14:04:59Z</time></trkpt><trkpt lat="39.34129992893074" lon="9.173048774246428"><ele>178.33333333333331</ele><time>2026-04-20T14:05:02Z</time></trkpt><trkpt lat="39.34128738346288" lon="9.173144141088507"><ele>178.66666666666666</ele><time>2026-04-20T14:05:04Z</time></trkpt><trkpt lat="39.34127732493184" lon="9.173228292430915"><ele>179.0</ele><time>2026-04-20T14:05:06Z</time></trkpt><trkpt lat="39.341268733618186" lon="9.173313723125856"><ele>179.16666666666666</ele><time>2026-04-20T14:05:08Z</time></trkpt><trkpt lat="39.341263084703655" lon="9.173400018212082"><ele>179.33333333333331</ele><time>2026-04-20T14:05:10Z</time></trkpt><trkpt lat="39.34125540592082" lon="9.173480931548232"><ele>179.5</ele><time>2026-04-20T14:05:12Z</time></trkpt><trkpt lat="39.34125820097177" lon="9.173601861470928"><ele>179.66666666666666</ele><time>2026-04-20T14:05:15Z</time></trkpt><trkpt lat="39.34124485630357" lon="9.173681968521892"><ele>179.83333333333334</ele><time>2026-04-20T14:05:18Z</time></trkpt><trkpt lat="39.341226596027276" lon="9.173799226350246"><ele>180.0</ele><time>2026-04-20T14:05:21Z</time></trkpt><trkpt lat="39.341212541176404" lon="9.173894401294723"><ele>180.0</ele><time>2026-04-20T14:05:24Z</time></trkpt><trkpt lat="39.34119673362443" lon="9.173973632811224"><ele>180.0</ele><time>2026-04-20T14:05:26Z</time></trkpt><trkpt lat="39.34115978918869" lon="9.174082031936463"><ele>180.0</ele><time>2026-04-20T14:05:30Z</time></trkpt><trkpt lat="39.3411319865698" lon="9.174197754641503"><ele>180.0</ele><time>2026-04-20T14:05:32Z</time></trkpt><trkpt lat="39.34110421493884" lon="9.174287246735618"><ele>180.0</ele><time>2026-04-20T14:05:34Z</time></trkpt><trkpt lat="39.34108196475926" lon="9.174379497102636"><ele>180.0</ele><time>2026-04-20T14:05:36Z</time></trkpt><trkpt lat="39.341060848899055" lon="9.174470806365782"><ele>180.42857142857142</ele><time>2026-04-20T14:05:38Z</time></trkpt><trkpt lat="39.34103370076481" lon="9.174553342707"><ele>180.85714285714286</ele><time>2026-04-20T14:05:40Z</time></trkpt><trkpt lat="39.34099600162186" lon="9.17467131824662"><ele>181.28571428571428</ele><time>2026-04-20T14:05:43Z</time></trkpt><trkpt lat="39.34097289464273" lon="9.174758946004296"><ele>181.71428571428572</ele><time>2026-04-20T14:05:45Z</time></trkpt><trkpt lat="39.34095023317341" lon="9.174841063098231"><ele>182.14285714285717</ele><time>2026-04-20T14:05:47Z</time></trkpt><trkpt lat="39.34093032195296" lon="9.174919275901974"><ele>182.57142857142858</ele><time>2026-04-20T14:05:49Z</time></trkpt><trkpt lat="39.3409138032199" lon="9.174999241867445"><ele>183.0</ele><time>2026-04-20T14:05:51Z</time></trkpt><trkpt lat="39.340903992688396" lon="9.1750805193198"><ele>183.66666666666666</ele><time>2026-04-20T14:05:53Z</time></trkpt><trkpt lat="39.34089292940336" lon="9.175192490489305"><ele>184.33333333333334</ele><time>2026-04-20T14:05:56Z</time></trkpt><trkpt lat="39.34088367294821" lon="9.175300023765967"><ele>185.0</ele><time>2026-04-20T14:05:59Z</time></trkpt><trkpt lat="39.34087571161971" lon="9.175407718929847"><ele>185.66666666666669</ele><time>2026-04-20T14:06:02Z</time></trkpt><trkpt lat="39.34087810620278" lon="9.175504192797817"><ele>186.33333333333334</ele><time>2026-04-20T14:06:05Z</time></trkpt><trkpt lat="39.34086488560005" lon="9.175608487049802"><ele>187.0</ele><time>2026-04-20T14:06:09Z</time></trkpt><trkpt lat="39.340851130708685" lon="9.175690189243458"><ele>187.42857142857142</ele><time>2026-04-20T14:06:12Z</time></trkpt><trkpt lat="39.34084464453325" lon="9.175783596756325"><ele>187.85714285714286</ele><time>2026-04-20T14:06:15Z</time></trkpt><trkpt lat="39.34083510258714" lon="9.175872536738446"><ele>188.28571428571428</ele><time>2026-04-20T14:06:18Z</time></trkpt><trkpt lat="39.340827133316346" lon="9.175971090251675"><ele>188.71428571428572</ele><time>2026-04-20T14:06:21Z</time></trkpt><trkpt lat="39.34083360595248" lon="9.176057071267604"><ele>189.14285714285717</ele><time>2026-04-20T14:06:24Z</time></trkpt><trkpt lat="39.34084753576826" lon="9.17615715999543"><ele>189.57142857142858</ele><time>2026-04-20T14:06:27Z</time></trkpt><trkpt lat="39.34087579815628" lon="9.176242992757505"><ele>190.0</ele><time>2026-04-20T14:06:29Z</time></trkpt><trkpt lat="39.340904721119294" lon="9.176340375166005"><ele>190.0</ele><time>2026-04-20T14:06:31Z</time></trkpt><trkpt lat="39.340929127493666" lon="9.176416098995972"><ele>190.0</ele><time>2026-04-20T14:06:33Z</time></trkpt><trkpt lat="39.34097894246465" lon="9.176503381115415"><ele>190.0</ele><time>2026-04-20T14:06:35Z</time></trkpt><trkpt lat="39.34101063935562" lon="9.176601064297959"><ele>190.0</ele><time>2026-04-20T14:06:36Z</time></trkpt><trkpt lat="39.34104640505188" lon="9.17667263754293"><ele>190.0</ele><time>2026-04-20T14:06:37Z</time></trkpt><trkpt lat="39.34110727878361" lon="9.176805373015595"><ele>190.0</ele><time>2026-04-20T14:06:38Z</time></trkpt><trkpt lat="39.34117216259207" lon="9.176916151194781"><ele>190.2</ele><time>2026-04-20T14:06:40Z</time></trkpt><trkpt lat="39.341230445273936" lon="9.177016978215663"><ele>190.4</ele><time>2026-04-20T14:06:42Z</time></trkpt><trkpt lat="39.34128384932983" lon="9.177128147017255"><ele>190.60000000000002</ele><time>2026-04-20T14:06:44Z</time></trkpt><trkpt lat="39.341339666593825" lon="9.177247359769748"><ele>190.8</ele><time>2026-04-20T14:06:46Z</time></trkpt><trkpt lat="39.341374171083245" lon="9.17737888887201"><ele>191.0</ele><time>2026-04-20T14:06:48Z</time></trkpt><trkpt lat="39.341434747470906" lon="9.177507287134327"><ele>190.0</ele><time>2026-04-20T14:06:50Z</time></trkpt><trkpt lat="39.34149294525604" lon="9.177630643466008"><ele>189.0</ele><time>2026-04-20T14:06:52Z</time></trkpt><trkpt lat="39.341546970289116" lon="9.177754227167556"><ele>188.0</ele><time>2026-04-20T14:06:54Z</time></trkpt><trkpt lat="39.34161861077524" lon="9.177869683155345"><ele>187.0</ele><time>2026-04-20T14:06:56Z</time></trkpt><trkpt lat="39.34166168533185" lon="9.177978663869725"><ele>186.0</ele><time>2026-04-20T14:06:58Z</time></trkpt><trkpt lat="39.34174137689184" lon="9.178088811345043"><ele>186.4</ele><time>2026-04-20T14:07:00Z</time></trkpt><trkpt lat="39.34180958014656" lon="9.178198326397446"><ele>186.8</ele><time>2026-04-20T14:07:02Z</time></trkpt><trkpt lat="39.34188342740635" lon="9.178312519697458"><ele>187.20000000000002</ele><time>2026-04-20T14:07:04Z</time></trkpt><trkpt lat="39.34194561392498" lon="9.178425449140834"><ele>187.60000000000002</ele><time>2026-04-20T14:07:06Z</time></trkpt><trkpt lat="39.34200555493693" lon="9.178535226158225"><ele>188.0</ele><time>2026-04-20T14:07:08Z</time></trkpt><trkpt lat="39.342057272774184" lon="9.17863310084557"><ele>188.0</ele><time>2026-04-20T14:07:10Z</time></trkpt><trkpt lat="39.34209581418957" lon="9.178721748483914"><ele>188.0</ele><time>2026-04-20T14:07:12Z</time></trkpt><trkpt lat="39.34213923226947" lon="9.1788033032127"><ele>188.0</ele><time>2026-04-20T14:07:14Z</time></trkpt><trkpt lat="39.34217805236157" lon="9.178874504531434"><ele>188.0</ele><time>2026-04-20T14:07:16Z</time></trkpt><trkpt lat="39.34221716429562" lon="9.178979209603485"><ele>188.0</ele><time>2026-04-20T14:07:19Z</time></trkpt><trkpt lat="39.34226929131246" lon="9.179078008551175"><ele>188.0</ele><time>2026-04-20T14:07:22Z</time></trkpt><trkpt lat="39.3423131014621" lon="9.179141791909247"><ele>187.4</ele><time>2026-04-20T14:07:24Z</time></trkpt><trkpt lat="39.3423589839046" lon="9.179214663924288"><ele>186.8</ele><time>2026-04-20T14:07:26Z</time></trkpt><trkpt lat="39.34243247193422" lon="9.179273423419398"><ele>186.2</ele><time>2026-04-20T14:07:28Z</time></trkpt><trkpt lat="39.34250617549016" lon="9.179338482715975"><ele>185.6</ele><time>2026-04-20T14:07:30Z</time></trkpt><trkpt lat="39.34260525680025" lon="9.179408919776506"><ele>185.0</ele><time>2026-04-20T14:07:32Z</time></trkpt><trkpt lat="39.342718684173896" lon="9.179486657436795"><ele>184.99999999999997</ele><time>2026-04-20T14:07:34Z</time></trkpt><trkpt lat="39.342773680917546" lon="9.179531892080401"><ele>185.0</ele><time>2026-04-20T14:07:35Z</time></trkpt><trkpt lat="39.3428284285625" lon="9.179577809683318"><ele>185.0</ele><time>2026-04-20T14:07:36Z</time></trkpt><trkpt lat="39.34287482502872" lon="9.179639551066861"><ele>185.0</ele><time>2026-04-20T14:07:37Z</time></trkpt><trkpt lat="39.34291948141488" lon="9.17970295704526"><ele>185.0</ele><time>2026-04-20T14:07:38Z</time></trkpt><trkpt lat="39.34296434212338" lon="9.179770638512304"><ele>184.99999999999997</ele><time>2026-04-20T14:07:39Z</time></trkpt><trkpt lat="39.3429941966759" lon="9.179844588578947"><ele>185.0</ele><time>2026-04-20T14:07:40Z</time></trkpt><trkpt lat="39.34303995343196" lon="9.179989718099034"><ele>184.6</ele><time>2026-04-20T14:07:42Z</time></trkpt><trkpt lat="39.343073243295514" lon="9.180132404677316"><ele>184.2</ele><time>2026-04-20T14:07:44Z</time></trkpt><trkpt lat="39.343113851391735" lon="9.180257123331321"><ele>183.8</ele><time>2026-04-20T14:07:46Z</time></trkpt><trkpt lat="39.34315075516301" lon="9.180362743642597"><ele>183.4</ele><time>2026-04-20T14:07:48Z</time></trkpt><trkpt lat="39.34317971717159" lon="9.180476177352785"><ele>183.0</ele><time>2026-04-20T14:07:50Z</time></trkpt><trkpt lat="39.343200989178214" lon="9.18057964373507"><ele>183.0</ele><time>2026-04-20T14:07:52Z</time></trkpt><trkpt lat="39.34323628023961" lon="9.1806715238635"><ele>183.0</ele><time>2026-04-20T14:07:54Z</time></trkpt><trkpt lat="39.34328560205924" lon="9.180742539309811"><ele>183.0</ele><time>2026-04-20T14:07:56Z</time></trkpt><trkpt lat="39.34331368725626" lon="9.180837595042972"><ele>183.0</ele><time>2026-04-20T14:07:58Z</time></trkpt><trkpt lat="39.34336373590076" lon="9.18091521376762"><ele>183.0</ele><time>2026-04-20T14:08:00Z</time></trkpt><trkpt lat="39.343403276580396" lon="9.180996197013727"><ele>183.0</ele><time>2026-04-20T14:08:02Z</time></trkpt><trkpt lat="39.34344413409456" lon="9.18107256603504"><ele>183.33333333333334</ele><time>2026-04-20T14:08:04Z</time></trkpt><trkpt lat="39.34348313486191" lon="9.181155506624293"><ele>183.66666666666666</ele><time>2026-04-20T14:08:06Z</time></trkpt><trkpt lat="39.3435665203059" lon="9.181286635923055"><ele>184.0</ele><time>2026-04-20T14:08:10Z</time></trkpt><trkpt lat="39.343607070223854" lon="9.181374689837373"><ele>184.33333333333331</ele><time>2026-04-20T14:08:12Z</time></trkpt><trkpt lat="39.34365419973461" lon="9.181457971845795"><ele>184.66666666666666</ele><time>2026-04-20T14:08:14Z</time></trkpt><trkpt lat="39.343691430886814" lon="9.181536252666618"><ele>185.0</ele><time>2026-04-20T14:08:16Z</time></trkpt><trkpt lat="39.34373450519751" lon="9.181605700910664"><ele>185.14285714285714</ele><time>2026-04-20T14:08:18Z</time></trkpt><trkpt lat="39.343763424606344" lon="9.181684453430206"><ele>185.28571428571428</ele><time>2026-04-20T14:08:20Z</time></trkpt><trkpt lat="39.343808164508815" lon="9.181768617375585"><ele>185.42857142857144</ele><time>2026-04-20T14:08:22Z</time></trkpt><trkpt lat="39.34385681162653" lon="9.181850134092494"><ele>185.57142857142856</ele><time>2026-04-20T14:08:24Z</time></trkpt><trkpt lat="39.343895723435494" lon="9.181930797915475"><ele>185.71428571428572</ele><time>2026-04-20T14:08:26Z</time></trkpt><trkpt lat="39.343943461521185" lon="9.182009522748494"><ele>185.85714285714286</ele><time>2026-04-20T14:08:28Z</time></trkpt><trkpt lat="39.343978733796206" lon="9.182091394826607"><ele>186.0</ele><time>2026-04-20T14:08:30Z</time></trkpt><trkpt lat="39.344014394198076" lon="9.182165990750734"><ele>186.00000000000003</ele><time>2026-04-20T14:08:32Z</time></trkpt><trkpt lat="39.34405489906433" lon="9.182237758354889"><ele>186.0</ele><time>2026-04-20T14:08:34Z</time></trkpt><trkpt lat="39.344088938295734" lon="9.182306257514202"><ele>186.0</ele><time>2026-04-20T14:08:37Z</time></trkpt><trkpt lat="39.34411871124006" lon="9.182399809877829"><ele>186.0</ele><time>2026-04-20T14:08:40Z</time></trkpt><trkpt lat="39.344161802732614" lon="9.182486136106448"><ele>186.0</ele><time>2026-04-20T14:08:43Z</time></trkpt><trkpt lat="39.344203071974974" lon="9.18257031645728"><ele>186.00000000000003</ele><time>2026-04-20T14:08:46Z</time></trkpt><trkpt lat="39.34425171427278" lon="9.182656426920582"><ele>186.0</ele><time>2026-04-20T14:08:49Z</time></trkpt><trkpt lat="39.344289835773964" lon="9.182743006681227"><ele>186.5</ele><time>2026-04-20T14:08:52Z</time></trkpt><trkpt lat="39.34433222029861" lon="9.18283245296789"><ele>187.0</ele><time>2026-04-20T14:08:55Z</time></trkpt><trkpt lat="39.34436020710786" lon="9.182909030683943"><ele>187.5</ele><time>2026-04-20T14:08:57Z</time></trkpt><trkpt lat="39.34439432484157" lon="9.182990217229714"><ele>188.0</ele><time>2026-04-20T14:09:00Z</time></trkpt><trkpt lat="39.3444214622834" lon="9.18309536098936"><ele>188.5</ele><time>2026-04-20T14:09:03Z</time></trkpt><trkpt lat="39.34444762532198" lon="9.18318959445141"><ele>189.0</ele><time>2026-04-20T14:09:05Z</time></trkpt><trkpt lat="39.34451769102871" lon="9.183265824416333"><ele>189.33333333333334</ele><time>2026-04-20T14:09:08Z</time></trkpt><trkpt lat="39.34458097531926" lon="9.183291755779585"><ele>189.66666666666666</ele><time>2026-04-20T14:09:10Z</time></trkpt><trkpt lat="39.3446517608309" lon="9.183293684527618"><ele>190.0</ele><time>2026-04-20T14:09:12Z</time></trkpt><trkpt lat="39.34472346825132" lon="9.183282615513791"><ele>190.33333333333331</ele><time>2026-04-20T14:09:14Z</time></trkpt><trkpt lat="39.34481818968773" lon="9.183294454485218"><ele>190.66666666666666</ele><time>2026-04-20T14:09:18Z</time></trkpt><trkpt lat="39.34491335191392" lon="9.183325472252141"><ele>191.0</ele><time>2026-04-20T14:09:21Z</time></trkpt><trkpt lat="39.34500204498756" lon="9.183345848250823"><ele>191.33333333333331</ele><time>2026-04-20T14:09:23Z</time></trkpt><trkpt lat="39.34508297493692" lon="9.183375244206928"><ele>191.66666666666666</ele><time>2026-04-20T14:09:26Z</time></trkpt><trkpt lat="39.34515034716275" lon="9.183400078529766"><ele>192.0</ele><time>2026-04-20T14:09:28Z</time></trkpt><trkpt lat="39.34521465648367" lon="9.183429422403032"><ele>192.33333333333331</ele><time>2026-04-20T14:09:30Z</time></trkpt><trkpt lat="39.34527654844864" lon="9.18346884338679"><ele>192.66666666666666</ele><time>2026-04-20T14:09:32Z</time></trkpt><trkpt lat="39.34535482237492" lon="9.18351396943317"><ele>193.0</ele><time>2026-04-20T14:09:36Z</time></trkpt><trkpt lat="39.345438149600405" lon="9.18358879491283"><ele>192.99999999999997</ele><time>2026-04-20T14:09:39Z</time></trkpt><trkpt lat="39.34550851569789" lon="9.183641168015024"><ele>193.0</ele><time>2026-04-20T14:09:41Z</time></trkpt><trkpt lat="39.345580358506666" lon="9.183697301164182"><ele>193.0</ele><time>2026-04-20T14:09:43Z</time></trkpt><trkpt lat="39.34565110032126" lon="9.183753818658907"><ele>193.0</ele><time>2026-04-20T14:09:45Z</time></trkpt><trkpt lat="39.34571398201655" lon="9.183806701401403"><ele>192.99999999999997</ele><time>2026-04-20T14:09:47Z</time></trkpt><trkpt lat="39.345771390913114" lon="9.183864780705619"><ele>193.0</ele><time>2026-04-20T14:09:49Z</time></trkpt><trkpt lat="39.345835428757105" lon="9.183910187220853"><ele>192.8</ele><time>2026-04-20T14:09:51Z</time></trkpt><trkpt lat="39.345923112359934" lon="9.183970336381734"><ele>192.60000000000002</ele><time>2026-04-20T14:09:53Z</time></trkpt><trkpt lat="39.34600769114387" lon="9.184014480590806"><ele>192.39999999999998</ele><time>2026-04-20T14:09:55Z</time></trkpt><trkpt lat="39.34609767016003" lon="9.184042580753166"><ele>192.2</ele><time>2026-04-20T14:09:57Z</time></trkpt><trkpt lat="39.34618155114391" lon="9.184085096821578"><ele>192.0</ele><time>2026-04-20T14:09:59Z</time></trkpt><trkpt lat="39.34627716189591" lon="9.184094972134572"><ele>192.5</ele><time>2026-04-20T14:10:01Z</time></trkpt><trkpt lat="39.34635400107856" lon="9.1841193686964"><ele>193.0</ele><time>2026-04-20T14:10:03Z</time></trkpt><trkpt lat="39.34643985323703" lon="9.184137677746014"><ele>193.5</ele><time>2026-04-20T14:10:05Z</time></trkpt><trkpt lat="39.34652839399213" lon="9.184141656269725"><ele>194.0</ele><time>2026-04-20T14:10:07Z</time></trkpt><trkpt lat="39.34660584381547" lon="9.184142704883895"><ele>194.5</ele><time>2026-04-20T14:10:09Z</time></trkpt><trkpt lat="39.346679317951434" lon="9.184185258844156"><ele>195.0</ele><time>2026-04-20T14:10:11Z</time></trkpt><trkpt lat="39.34676091172172" lon="9.184195901984125"><ele>195.0</ele><time>2026-04-20T14:10:13Z</time></trkpt><trkpt lat="39.346841750519445" lon="9.1841917588106"><ele>195.0</ele><time>2026-04-20T14:10:15Z</time></trkpt><trkpt lat="39.34691785883065" lon="9.18419394033233"><ele>195.0</ele><time>2026-04-20T14:10:17Z</time></trkpt><trkpt lat="39.34697546419503" lon="9.184157175200294"><ele>195.0</ele><time>2026-04-20T14:10:20Z</time></trkpt><trkpt lat="39.34703314370177" lon="9.184220991684416"><ele>195.0</ele><time>2026-04-20T14:10:22Z</time></trkpt><trkpt lat="39.34708838011583" lon="9.184301767390592"><ele>195.0</ele><time>2026-04-20T14:10:25Z</time></trkpt><trkpt lat="39.34714813254216" lon="9.184332931248766"><ele>195.0</ele><time>2026-04-20T14:10:27Z</time></trkpt><trkpt lat="39.347211236380836" lon="9.184371173244598"><ele>195.5</ele><time>2026-04-20T14:10:29Z</time></trkpt><trkpt lat="39.34728750976018" lon="9.184389150412276"><ele>196.0</ele><time>2026-04-20T14:10:31Z</time></trkpt><trkpt lat="39.34735603949744" lon="9.184409120305324"><ele>196.5</ele><time>2026-04-20T14:10:33Z</time></trkpt><trkpt lat="39.3474269498605" lon="9.184413373395635"><ele>197.0</ele><time>2026-04-20T14:10:35Z</time></trkpt><trkpt lat="39.34749801839177" lon="9.184363966772565"><ele>197.5</ele><time>2026-04-20T14:10:38Z</time></trkpt><trkpt lat="39.34753766950098" lon="9.184284016593834"><ele>198.0</ele><time>2026-04-20T14:10:40Z</time></trkpt><trkpt lat="39.347573367964294" lon="9.184189434196776"><ele>198.0</ele><time>2026-04-20T14:10:42Z</time></trkpt><trkpt lat="39.347611917737574" lon="9.184102254804724"><ele>198.0</ele><time>2026-04-20T14:10:44Z</time></trkpt><trkpt lat="39.34765290548016" lon="9.184017123322944"><ele>198.0</ele><time>2026-04-20T14:10:46Z</time></trkpt><trkpt lat="39.34770536735189" lon="9.183898524657135"><ele>198.0</ele><time>2026-04-20T14:10:49Z</time></trkpt><trkpt lat="39.34774482025927" lon="9.183823589016525"><ele>198.0</ele><time>2026-04-20T14:10:51Z</time></trkpt><trkpt lat="39.34778598607521" lon="9.183712768701835"><ele>198.0</ele><time>2026-04-20T14:10:54Z</time></trkpt><trkpt lat="39.347819436020536" lon="9.183639104444921"><ele>198.0</ele><time>2026-04-20T14:10:56Z</time></trkpt><trkpt lat="39.34785785908638" lon="9.183545086501763"><ele>198.0</ele><time>2026-04-20T14:10:59Z</time></trkpt><trkpt lat="39.34790989746097" lon="9.183467020598872"><ele>198.0</ele><time>2026-04-20T14:11:02Z</time></trkpt><trkpt lat="39.34794488780045" lon="9.183395878631075"><ele>198.0</ele><time>2026-04-20T14:11:04Z</time></trkpt><trkpt lat="39.34800492266437" lon="9.183329996130329"><ele>198.0</ele><time>2026-04-20T14:11:07Z</time></trkpt><trkpt lat="39.348061388437934" lon="9.183242382804297"><ele>198.0</ele><time>2026-04-20T14:11:10Z</time></trkpt><trkpt lat="39.34812986315568" lon="9.18328309796286"><ele>198.71428571428572</ele><time>2026-04-20T14:11:13Z</time></trkpt><trkpt lat="39.348165780787596" lon="9.183358544968113"><ele>199.42857142857142</ele><time>2026-04-20T14:11:16Z</time></trkpt><trkpt lat="39.34821746527612" lon="9.183425355996443"><ele>200.14285714285714</ele><time>2026-04-20T14:11:19Z</time></trkpt><trkpt lat="39.348264588042014" lon="9.183512100605855"><ele>200.85714285714286</ele><time>2026-04-20T14:11:23Z</time></trkpt><trkpt lat="39.34831416598357" lon="9.183584530752977"><ele>201.57142857142856</ele><time>2026-04-20T14:11:26Z</time></trkpt><trkpt lat="39.34837068264088" lon="9.183628191872979"><ele>202.28571428571428</ele><time>2026-04-20T14:11:29Z</time></trkpt><trkpt lat="39.34842598097806" lon="9.183683992070767"><ele>203.0</ele><time>2026-04-20T14:11:32Z</time></trkpt><trkpt lat="39.348495357142184" lon="9.18373747818991"><ele>203.00000000000003</ele><time>2026-04-20T14:11:35Z</time></trkpt><trkpt lat="39.34855163598217" lon="9.18377463716434"><ele>203.0</ele><time>2026-04-20T14:11:37Z</time></trkpt><trkpt lat="39.348615332393166" lon="9.183831607544782"><ele>203.0</ele><time>2026-04-20T14:11:40Z</time></trkpt><trkpt lat="39.34867768047971" lon="9.18389453342255"><ele>203.0</ele><time>2026-04-20T14:11:43Z</time></trkpt><trkpt lat="39.34875025214096" lon="9.183935658075463"><ele>203.00000000000003</ele><time>2026-04-20T14:11:46Z</time></trkpt><trkpt lat="39.3488024004841" lon="9.184007560327903"><ele>203.0</ele><time>2026-04-20T14:11:49Z</time></trkpt><trkpt lat="39.348883501615084" lon="9.184052951122966"><ele>203.16666666666669</ele><time>2026-04-20T14:11:52Z</time></trkpt><trkpt lat="39.34894884462678" lon="9.184071163075624"><ele>203.33333333333334</ele><time>2026-04-20T14:11:54Z</time></trkpt><trkpt lat="39.349053403478734" lon="9.18408831398618"><ele>203.5</ele><time>2026-04-20T14:11:56Z</time></trkpt><trkpt lat="39.34912476244344" lon="9.184124950364081"><ele>203.66666666666669</ele><time>2026-04-20T14:11:58Z</time></trkpt><trkpt lat="39.34921068829582" lon="9.184144867045092"><ele>203.83333333333334</ele><time>2026-04-20T14:12:00Z</time></trkpt><trkpt lat="39.34929678464036" lon="9.184165669289342"><ele>204.0</ele><time>2026-04-20T14:12:02Z</time></trkpt><trkpt lat="39.349383723358734" lon="9.184182942332662"><ele>204.0</ele><time>2026-04-20T14:12:04Z</time></trkpt><trkpt lat="39.34947496813729" lon="9.18418831380568"><ele>204.0</ele><time>2026-04-20T14:12:06Z</time></trkpt><trkpt lat="39.34956234987569" lon="9.184239708537268"><ele>204.0</ele><time>2026-04-20T14:12:08Z</time></trkpt><trkpt lat="39.34964728875637" lon="9.184291179744022"><ele>204.0</ele><time>2026-04-20T14:12:10Z</time></trkpt><trkpt lat="39.34973129233762" lon="9.184354540502623"><ele>204.0</ele><time>2026-04-20T14:12:12Z</time></trkpt><trkpt lat="39.34982760298501" lon="9.184401121037375"><ele>203.0</ele><time>2026-04-20T14:12:14Z</time></trkpt><trkpt lat="39.349918959297916" lon="9.184455087712971"><ele>202.0</ele><time>2026-04-20T14:12:16Z</time></trkpt><trkpt lat="39.35000600516661" lon="9.184516041813472"><ele>201.0</ele><time>2026-04-20T14:12:18Z</time></trkpt><trkpt lat="39.350095080408046" lon="9.184583895782414"><ele>200.0</ele><time>2026-04-20T14:12:20Z</time></trkpt><trkpt lat="39.35017097743187" lon="9.184676033048328"><ele>199.0</ele><time>2026-04-20T14:12:22Z</time></trkpt><trkpt lat="39.35027267338482" lon="9.184718721743621"><ele>199.0</ele><time>2026-04-20T14:12:24Z</time></trkpt><trkpt lat="39.35035431717836" lon="9.184785320690146"><ele>199.0</ele><time>2026-04-20T14:12:26Z</time></trkpt><trkpt lat="39.3504179587172" lon="9.184869243212985"><ele>199.0</ele><time>2026-04-20T14:12:28Z</time></trkpt><trkpt lat="39.35049748706837" lon="9.184934516058469"><ele>199.0</ele><time>2026-04-20T14:12:30Z</time></trkpt><trkpt lat="39.35060394317809" lon="9.184982289459711"><ele>199.0</ele><time>2026-04-20T14:12:32Z</time></trkpt><trkpt lat="39.35067789578065" lon="9.184962937230265"><ele>199.16666666666666</ele><time>2026-04-20T14:12:33Z</time></trkpt><trkpt lat="39.35074090748274" lon="9.18499066223712"><ele>199.33333333333331</ele><time>2026-04-20T14:12:34Z</time></trkpt><trkpt lat="39.35080264163287" lon="9.185022521755702"><ele>199.5</ele><time>2026-04-20T14:12:35Z</time></trkpt><trkpt lat="39.35086024693088" lon="9.18505613697484"><ele>199.66666666666669</ele><time>2026-04-20T14:12:36Z</time></trkpt><trkpt lat="39.35096856686016" lon="9.185122725639532"><ele>199.83333333333334</ele><time>2026-04-20T14:12:38Z</time></trkpt><trkpt lat="39.351062686489264" lon="9.185197752170764"><ele>200.0</ele><time>2026-04-20T14:12:40Z</time></trkpt><trkpt lat="39.35117011375341" lon="9.185236369342293"><ele>200.0</ele><time>2026-04-20T14:12:42Z</time></trkpt><trkpt lat="39.35128934605104" lon="9.185262303092882"><ele>200.0</ele><time>2026-04-20T14:12:44Z</time></trkpt><trkpt lat="39.351406933644306" lon="9.185262472997625"><ele>200.0</ele><time>2026-04-20T14:12:46Z</time></trkpt><trkpt lat="39.3515193480707" lon="9.185263192391195"><ele>200.0</ele><time>2026-04-20T14:12:48Z</time></trkpt><trkpt lat="39.351629860041534" lon="9.185270338020713"><ele>200.00000000000003</ele><time>2026-04-20T14:12:50Z</time></trkpt><trkpt lat="39.35173509575402" lon="9.185275932989326"><ele>200.0</ele><time>2026-04-20T14:12:52Z</time></trkpt><trkpt lat="39.35183283050715" lon="9.18528207568072"><ele>200.0</ele><time>2026-04-20T14:12:54Z</time></trkpt><trkpt lat="39.35191972772616" lon="9.185309016929361"><ele>200.0</ele><time>2026-04-20T14:12:56Z</time></trkpt><trkpt lat="39.35199570650156" lon="9.185340507873217"><ele>200.00000000000003</ele><time>2026-04-20T14:12:58Z</time></trkpt><trkpt lat="39.35206285494683" lon="9.185375340434344"><ele>200.0</ele><time>2026-04-20T14:13:00Z</time></trkpt><trkpt lat="39.35212385863275" lon="9.185409473623947"><ele>200.00000000000003</ele><time>2026-04-20T14:13:02Z</time></trkpt><trkpt lat="39.352185712101566" lon="9.185426974213511"><ele>200.0</ele><time>2026-04-20T14:13:04Z</time></trkpt><trkpt lat="39.352246641400356" lon="9.185452147682447"><ele>200.0</ele><time>2026-04-20T14:13:06Z</time></trkpt><trkpt lat="39.352310654101764" lon="9.185463791314962"><ele>200.0</ele><time>2026-04-20T14:13:08Z</time></trkpt><trkpt lat="39.35238407604504" lon="9.185467132406416"><ele>200.0</ele><time>2026-04-20T14:13:10Z</time></trkpt><trkpt lat="39.35246560841062" lon="9.185461809042742"><ele>200.00000000000003</ele><time>2026-04-20T14:13:12Z</time></trkpt><trkpt lat="39.35255819488994" lon="9.185461375037958"><ele>200.0</ele><time>2026-04-20T14:13:14Z</time></trkpt><trkpt lat="39.352629039436195" lon="9.185476152424759"><ele>200.2</ele><time>2026-04-20T14:13:16Z</time></trkpt><trkpt lat="39.35278888776786" lon="9.185465511370843"><ele>200.4</ele><time>2026-04-20T14:13:18Z</time></trkpt><trkpt lat="39.35288190910733" lon="9.185434341638645"><ele>200.60000000000002</ele><time>2026-04-20T14:13:20Z</time></trkpt><trkpt lat="39.35295907105849" lon="9.18539714719117"><ele>200.8</ele><time>2026-04-20T14:13:22Z</time></trkpt><trkpt lat="39.35303017981396" lon="9.185344897880285"><ele>201.0</ele><time>2026-04-20T14:13:24Z</time></trkpt><trkpt lat="39.353111672302234" lon="9.185304869597802"><ele>201.0</ele><time>2026-04-20T14:13:26Z</time></trkpt><trkpt lat="39.35319844542118" lon="9.185273921563017"><ele>201.0</ele><time>2026-04-20T14:13:28Z</time></trkpt><trkpt lat="39.35328754085402" lon="9.185231514509962"><ele>201.0</ele><time>2026-04-20T14:13:30Z</time></trkpt><trkpt lat="39.353392778300304" lon="9.18518530106332"><ele>201.0</ele><time>2026-04-20T14:13:32Z</time></trkpt><trkpt lat="39.353487702123566" lon="9.1851348814158"><ele>201.0</ele><time>2026-04-20T14:13:34Z</time></trkpt><trkpt lat="39.35355739535287" lon="9.185081466102607"><ele>201.0</ele><time>2026-04-20T14:13:36Z</time></trkpt><trkpt lat="39.35364752954958" lon="9.185043966677023"><ele>201.0</ele><time>2026-04-20T14:13:38Z</time></trkpt><trkpt lat="39.353743480873895" lon="9.185013746806503"><ele>201.0</ele><time>2026-04-20T14:13:40Z</time></trkpt><trkpt lat="39.35383598626464" lon="9.184980882632921"><ele>201.0</ele><time>2026-04-20T14:13:42Z</time></trkpt><trkpt lat="39.35392362926549" lon="9.184920381356273"><ele>201.0</ele><time>2026-04-20T14:13:44Z</time></trkpt><trkpt lat="39.35401317913429" lon="9.184873679967144"><ele>201.33333333333334</ele><time>2026-04-20T14:13:46Z</time></trkpt><trkpt lat="39.35409533983731" lon="9.18484601976599"><ele>201.66666666666669</ele><time>2026-04-20T14:13:48Z</time></trkpt><trkpt lat="39.35418069462518" lon="9.184806493205226"><ele>202.0</ele><time>2026-04-20T14:13:50Z</time></trkpt><trkpt lat="39.35425991169363" lon="9.184779512912911"><ele>202.33333333333334</ele><time>2026-04-20T14:13:52Z</time></trkpt><trkpt lat="39.354339641100346" lon="9.184765012900895"><ele>202.66666666666669</ele><time>2026-04-20T14:13:54Z</time></trkpt><trkpt lat="39.35441919232483" lon="9.184765066730133"><ele>203.0</ele><time>2026-04-20T14:13:56Z</time></trkpt><trkpt lat="39.35449962263686" lon="9.184760049428899"><ele>202.50000000000003</ele><time>2026-04-20T14:13:58Z</time></trkpt><trkpt lat="39.35457354159989" lon="9.184779139618051"><ele>202.0</ele><time>2026-04-20T14:14:00Z</time></trkpt><trkpt lat="39.35463673414234" lon="9.184803703977812"><ele>201.5</ele><time>2026-04-20T14:14:02Z</time></trkpt><trkpt lat="39.35470474018141" lon="9.184828831300242"><ele>201.0</ele><time>2026-04-20T14:14:04Z</time></trkpt><trkpt lat="39.35477907956227" lon="9.184839586632304"><ele>200.50000000000003</ele><time>2026-04-20T14:14:06Z</time></trkpt><trkpt lat="39.35486664862957" lon="9.184815067505076"><ele>200.0</ele><time>2026-04-20T14:14:08Z</time></trkpt><trkpt lat="39.354949373175415" lon="9.184787989322986"><ele>200.00000000000003</ele><time>2026-04-20T14:14:10Z</time></trkpt><trkpt lat="39.35501732441162" lon="9.18477681770367"><ele>200.0</ele><time>2026-04-20T14:14:13Z</time></trkpt><trkpt lat="39.355086049887895" lon="9.184743765854195"><ele>200.0</ele><time>2026-04-20T14:14:15Z</time></trkpt><trkpt lat="39.3551652577877" lon="9.184693809644289"><ele>200.0</ele><time>2026-04-20T14:14:16Z</time></trkpt><trkpt lat="39.35525950612665" lon="9.18461803770219"><ele>200.00000000000003</ele><time>2026-04-20T14:14:18Z</time></trkpt><trkpt lat="39.3553279573633" lon="9.18459755959146"><ele>200.0</ele><time>2026-04-20T14:14:20Z</time></trkpt><trkpt lat="39.35542521025737" lon="9.184593424334318"><ele>200.00000000000003</ele><time>2026-04-20T14:14:22Z</time></trkpt><trkpt lat="39.35552045742377" lon="9.184603455680149"><ele>200.0</ele><time>2026-04-20T14:14:24Z</time></trkpt><trkpt lat="39.35561175512998" lon="9.18461847118878"><ele>200.0</ele><time>2026-04-20T14:14:26Z</time></trkpt><trkpt lat="39.355685870505056" lon="9.18463374880475"><ele>200.0</ele><time>2026-04-20T14:14:28Z</time></trkpt><trkpt lat="39.35577204113176" lon="9.18465413234879"><ele>200.00000000000003</ele><time>2026-04-20T14:14:30Z</time></trkpt><trkpt lat="39.35583972256731" lon="9.184665213380143"><ele>200.0</ele><time>2026-04-20T14:14:32Z</time></trkpt><trkpt lat="39.355936803540374" lon="9.184694070993036"><ele>200.33333333333334</ele><time>2026-04-20T14:14:34Z</time></trkpt><trkpt lat="39.35602935540634" lon="9.184690536242307"><ele>200.66666666666669</ele><time>2026-04-20T14:14:36Z</time></trkpt><trkpt lat="39.35612018920593" lon="9.184681186826188"><ele>201.0</ele><time>2026-04-20T14:14:38Z</time></trkpt><trkpt lat="39.35618834574957" lon="9.184675463572878"><ele>201.33333333333331</ele><time>2026-04-20T14:14:40Z</time></trkpt><trkpt lat="39.35627122684663" lon="9.184674384672174"><ele>201.66666666666666</ele><time>2026-04-20T14:14:42Z</time></trkpt><trkpt lat="39.35635411364761" lon="9.184699422327165"><ele>202.0</ele><time>2026-04-20T14:14:44Z</time></trkpt><trkpt lat="39.35645786151429" lon="9.184751899810385"><ele>202.16666666666666</ele><time>2026-04-20T14:14:47Z</time></trkpt><trkpt lat="39.356539837797854" lon="9.184746707721121"><ele>202.33333333333331</ele><time>2026-04-20T14:14:49Z</time></trkpt><trkpt lat="39.356634511872" lon="9.18474351832856"><ele>202.5</ele><time>2026-04-20T14:14:52Z</time></trkpt><trkpt lat="39.35669020212784" lon="9.184687698314054"><ele>202.66666666666669</ele><time>2026-04-20T14:14:54Z</time></trkpt><trkpt lat="39.3567752459118" lon="9.184631141061304"><ele>202.83333333333334</ele><time>2026-04-20T14:14:57Z</time></trkpt><trkpt lat="39.35683664631419" lon="9.184581066824016"><ele>203.0</ele><time>2026-04-20T14:14:59Z</time></trkpt><trkpt lat="39.35689426926145" lon="9.184532225335593"><ele>203.00000000000003</ele><time>2026-04-20T14:15:01Z</time></trkpt><trkpt lat="39.35696001842375" lon="9.184501039773984"><ele>203.0</ele><time>2026-04-20T14:15:03Z</time></trkpt><trkpt lat="39.35702419185353" lon="9.184480599481057"><ele>203.0</ele><time>2026-04-20T14:15:05Z</time></trkpt><trkpt lat="39.357117535845596" lon="9.18443625245968"><ele>203.0</ele><time>2026-04-20T14:15:08Z</time></trkpt><trkpt lat="39.35720637511171" lon="9.184391050523832"><ele>203.00000000000003</ele><time>2026-04-20T14:15:11Z</time></trkpt><trkpt lat="39.357279124245615" lon="9.184338168379375"><ele>203.0</ele><time>2026-04-20T14:15:14Z</time></trkpt><trkpt lat="39.357349187472316" lon="9.184287665398314"><ele>203.66666666666669</ele><time>2026-04-20T14:15:16Z</time></trkpt><trkpt lat="39.35743693160363" lon="9.18422849370994"><ele>204.33333333333334</ele><time>2026-04-20T14:15:19Z</time></trkpt><trkpt lat="39.35750761105615" lon="9.184181226745542"><ele>205.0</ele><time>2026-04-20T14:15:22Z</time></trkpt><trkpt lat="39.35756741912027" lon="9.184153755196675"><ele>205.66666666666669</ele><time>2026-04-20T14:15:25Z</time></trkpt><trkpt lat="39.357646973692056" lon="9.184143309176712"><ele>206.33333333333334</ele><time>2026-04-20T14:15:28Z</time></trkpt><trkpt lat="39.3577321175248" lon="9.184098014835627"><ele>207.0</ele><time>2026-04-20T14:15:31Z</time></trkpt><trkpt lat="39.35780909195266" lon="9.184042321601423"><ele>207.0</ele><time>2026-04-20T14:15:34Z</time></trkpt><trkpt lat="39.357868385333354" lon="9.183984696812942"><ele>207.0</ele><time>2026-04-20T14:15:37Z</time></trkpt><trkpt lat="39.35795112536888" lon="9.183921384795582"><ele>207.0</ele><time>2026-04-20T14:15:40Z</time></trkpt><trkpt lat="39.35802715493405" lon="9.183888107990942"><ele>207.0</ele><time>2026-04-20T14:15:42Z</time></trkpt><trkpt lat="39.358082617245906" lon="9.183847888361102"><ele>207.0</ele><time>2026-04-20T14:15:43Z</time></trkpt><trkpt lat="39.358168630095605" lon="9.183800361322072"><ele>207.0</ele><time>2026-04-20T14:15:45Z</time></trkpt><trkpt lat="39.35825479160187" lon="9.183747329750913"><ele>207.25</ele><time>2026-04-20T14:15:47Z</time></trkpt><trkpt lat="39.358349612746125" lon="9.183679415208115"><ele>207.5</ele><time>2026-04-20T14:15:49Z</time></trkpt><trkpt lat="39.358419243331035" lon="9.183627493269272"><ele>207.75</ele><time>2026-04-20T14:15:51Z</time></trkpt><trkpt lat="39.35855945291238" lon="9.183568823163528"><ele>208.0</ele><time>2026-04-20T14:15:52Z</time></trkpt><trkpt lat="39.35865911972659" lon="9.183489762461527"><ele>208.0</ele><time>2026-04-20T14:15:54Z</time></trkpt><trkpt lat="39.35872627754446" lon="9.183430287741567"><ele>208.0</ele><time>2026-04-20T14:15:55Z</time></trkpt><trkpt lat="39.35878796452858" lon="9.183384255823897"><ele>208.0</ele><time>2026-04-20T14:15:56Z</time></trkpt><trkpt lat="39.358846774987946" lon="9.18333991376803"><ele>208.0</ele><time>2026-04-20T14:15:57Z</time></trkpt><trkpt lat="39.35890156059234" lon="9.183292626965123"><ele>208.0</ele><time>2026-04-20T14:15:58Z</time></trkpt><trkpt lat="39.35896542979415" lon="9.183231555688671"><ele>208.0</ele><time>2026-04-20T14:15:59Z</time></trkpt><trkpt lat="39.35902254781904" lon="9.183164577841351"><ele>208.0</ele><time>2026-04-20T14:16:00Z</time></trkpt><trkpt lat="39.35907432198869" lon="9.183098313637023"><ele>206.83333333333331</ele><time>2026-04-20T14:16:01Z</time></trkpt><trkpt lat="39.359138997512346" lon="9.183042571625107"><ele>205.66666666666666</ele><time>2026-04-20T14:16:02Z</time></trkpt><trkpt lat="39.359187935169665" lon="9.182975012110543"><ele>204.5</ele><time>2026-04-20T14:16:03Z</time></trkpt><trkpt lat="39.35924388215811" lon="9.182915848545147"><ele>203.33333333333331</ele><time>2026-04-20T14:16:04Z</time></trkpt><trkpt lat="39.35930530202658" lon="9.18286317035704"><ele>202.16666666666666</ele><time>2026-04-20T14:16:05Z</time></trkpt><trkpt lat="39.35939728274756" lon="9.18278781887479"><ele>201.0</ele><time>2026-04-20T14:16:06Z</time></trkpt><trkpt lat="39.35945962146286" lon="9.182770177114877"><ele>201.0</ele><time>2026-04-20T14:16:07Z</time></trkpt><trkpt lat="39.35958365054181" lon="9.182689182892725"><ele>201.0</ele><time>2026-04-20T14:16:09Z</time></trkpt><trkpt lat="39.35965315236131" lon="9.182650200537054"><ele>201.0</ele><time>2026-04-20T14:16:10Z</time></trkpt><trkpt lat="39.359765959313684" lon="9.18261207785837"><ele>201.0</ele><time>2026-04-20T14:16:12Z</time></trkpt><trkpt lat="39.35984911151079" lon="9.182594535542536"><ele>201.0</ele><time>2026-04-20T14:16:13Z</time></trkpt><trkpt lat="39.359925905413895" lon="9.182600053346244"><ele>201.0</ele><time>2026-04-20T14:16:14Z</time></trkpt><trkpt lat="39.35999839376834" lon="9.182606204753323"><ele>201.0</ele><time>2026-04-20T14:16:15Z</time></trkpt><trkpt lat="39.36007404719836" lon="9.182579417009505"><ele>201.0</ele><time>2026-04-20T14:16:16Z</time></trkpt><trkpt lat="39.36013943367804" lon="9.1825528227541"><ele>201.0</ele><time>2026-04-20T14:16:17Z</time></trkpt><trkpt lat="39.360217466683345" lon="9.182551856010853"><ele>201.0</ele><time>2026-04-20T14:16:18Z</time></trkpt><trkpt lat="39.36028862662127" lon="9.182537665495456"><ele>201.0</ele><time>2026-04-20T14:16:19Z</time></trkpt><trkpt lat="39.36035738827968" lon="9.182534040989074"><ele>201.0</ele><time>2026-04-20T14:16:20Z</time></trkpt><trkpt lat="39.36042150379399" lon="9.182510390635297"><ele>201.0</ele><time>2026-04-20T14:16:21Z</time></trkpt><trkpt lat="39.36048764938219" lon="9.182499498313717"><ele>201.0</ele><time>2026-04-20T14:16:22Z</time></trkpt><trkpt lat="39.36055604367681" lon="9.182506907533893"><ele>201.0</ele><time>2026-04-20T14:16:23Z</time></trkpt><trkpt lat="39.36067054749325" lon="9.182469380437375"><ele>201.0</ele><time>2026-04-20T14:16:25Z</time></trkpt><trkpt lat="39.36077401126253" lon="9.182451345395403"><ele>201.0</ele><time>2026-04-20T14:16:27Z</time></trkpt><trkpt lat="39.36086925361241" lon="9.182434332982112"><ele>200.83333333333334</ele><time>2026-04-20T14:16:29Z</time></trkpt><trkpt lat="39.36095057668529" lon="9.182416770695205"><ele>200.66666666666669</ele><time>2026-04-20T14:16:32Z</time></trkpt><trkpt lat="39.36101708543711" lon="9.182413126262617"><ele>200.5</ele><time>2026-04-20T14:16:35Z</time></trkpt><trkpt lat="39.361094936579114" lon="9.182396357827292"><ele>200.33333333333334</ele><time>2026-04-20T14:16:38Z</time></trkpt><trkpt lat="39.36116371061305" lon="9.182376709937873"><ele>200.16666666666669</ele><time>2026-04-20T14:16:40Z</time></trkpt><trkpt lat="39.36125815254237" lon="9.182340368052717"><ele>200.0</ele><time>2026-04-20T14:16:42Z</time></trkpt><trkpt lat="39.36136675051238" lon="9.182315341126753"><ele>199.50000000000003</ele><time>2026-04-20T14:16:44Z</time></trkpt><trkpt lat="39.36141486644287" lon="9.18224949932537"><ele>199.0</ele><time>2026-04-20T14:16:45Z</time></trkpt><trkpt lat="39.361455191050254" lon="9.182170278051933"><ele>198.5</ele><time>2026-04-20T14:16:46Z</time></trkpt><trkpt lat="39.3614924603306" lon="9.182097287691763"><ele>198.0</ele><time>2026-04-20T14:16:47Z</time></trkpt><trkpt lat="39.361525110191636" lon="9.182023747948584"><ele>197.50000000000003</ele><time>2026-04-20T14:16:48Z</time></trkpt><trkpt lat="39.36159809460819" lon="9.18191210349583"><ele>197.0</ele><time>2026-04-20T14:16:50Z</time></trkpt><trkpt lat="39.36168875346599" lon="9.181824666270701"><ele>197.0</ele><time>2026-04-20T14:16:52Z</time></trkpt><trkpt lat="39.36179667446985" lon="9.181737449489715"><ele>197.0</ele><time>2026-04-20T14:16:54Z</time></trkpt><trkpt lat="39.361892133634896" lon="9.181659435839636"><ele>197.0</ele><time>2026-04-20T14:16:56Z</time></trkpt><trkpt lat="39.3619759360085" lon="9.181588601111338"><ele>197.0</ele><time>2026-04-20T14:16:58Z</time></trkpt><trkpt lat="39.36205871846803" lon="9.181514050652968"><ele>197.0</ele><time>2026-04-20T14:17:00Z</time></trkpt><trkpt lat="39.36213672650261" lon="9.181468535532815"><ele>197.16666666666669</ele><time>2026-04-20T14:17:02Z</time></trkpt><trkpt lat="39.36220813488332" lon="9.181432174008231"><ele>197.33333333333334</ele><time>2026-04-20T14:17:04Z</time></trkpt><trkpt lat="39.362277586022486" lon="9.181378439849702"><ele>197.5</ele><time>2026-04-20T14:17:06Z</time></trkpt><trkpt lat="39.36234755415214" lon="9.181370368715832"><ele>197.66666666666669</ele><time>2026-04-20T14:17:09Z</time></trkpt><trkpt lat="39.36241007312787" lon="9.181335876806882"><ele>197.83333333333334</ele><time>2026-04-20T14:17:12Z</time></trkpt><trkpt lat="39.36250102341489" lon="9.181314309830952"><ele>198.0</ele><time>2026-04-20T14:17:14Z</time></trkpt><trkpt lat="39.36257334821677" lon="9.181297014772873"><ele>198.0</ele><time>2026-04-20T14:17:16Z</time></trkpt><trkpt lat="39.36264823138138" lon="9.181281194712506"><ele>198.0</ele><time>2026-04-20T14:17:18Z</time></trkpt><trkpt lat="39.36271334186496" lon="9.181288819440837"><ele>198.0</ele><time>2026-04-20T14:17:20Z</time></trkpt><trkpt lat="39.36280392467159" lon="9.181251159167827"><ele>198.0</ele><time>2026-04-20T14:17:23Z</time></trkpt><trkpt lat="39.36288472804944" lon="9.181268037245733"><ele>198.0</ele><time>2026-04-20T14:17:25Z</time></trkpt><trkpt lat="39.36295360396071" lon="9.181266432891897"><ele>198.0</ele><time>2026-04-20T14:17:28Z</time></trkpt><trkpt lat="39.36302887103445" lon="9.181264314971106"><ele>198.33333333333334</ele><time>2026-04-20T14:17:31Z</time></trkpt><trkpt lat="39.36312150597322" lon="9.18124974952314"><ele>198.66666666666669</ele><time>2026-04-20T14:17:34Z</time></trkpt><trkpt lat="39.363207194284435" lon="9.181263403290128"><ele>199.0</ele><time>2026-04-20T14:17:37Z</time></trkpt><trkpt lat="39.363299582534616" lon="9.181259810973332"><ele>199.33333333333334</ele><time>2026-04-20T14:17:40Z</time></trkpt><trkpt lat="39.36336870624418" lon="9.181258517076495"><ele>199.66666666666669</ele><time>2026-04-20T14:17:43Z</time></trkpt><trkpt lat="39.363467321983556" lon="9.181265715190591"><ele>200.0</ele><time>2026-04-20T14:17:46Z</time></trkpt><trkpt lat="39.36354601736072" lon="9.181273709875427"><ele>200.00000000000003</ele><time>2026-04-20T14:17:48Z</time></trkpt><trkpt lat="39.36361518709689" lon="9.181264497507804"><ele>200.0</ele><time>2026-04-20T14:17:50Z</time></trkpt><trkpt lat="39.36368929249924" lon="9.181249979916297"><ele>200.0</ele><time>2026-04-20T14:17:52Z</time></trkpt><trkpt lat="39.36375615030568" lon="9.181231549523444"><ele>200.0</ele><time>2026-04-20T14:17:54Z</time></trkpt><trkpt lat="39.363821388477724" lon="9.181219701529225"><ele>200.0</ele><time>2026-04-20T14:17:56Z</time></trkpt><trkpt lat="39.36389321763787" lon="9.181216452219937"><ele>200.00000000000003</ele><time>2026-04-20T14:17:58Z</time></trkpt><trkpt lat="39.36396716745209" lon="9.181191929030174"><ele>200.0</ele><time>2026-04-20T14:18:00Z</time></trkpt><trkpt lat="39.36403357624273" lon="9.181186769883539"><ele>200.00000000000003</ele><time>2026-04-20T14:18:02Z</time></trkpt><trkpt lat="39.36411733094513" lon="9.181123437643603"><ele>200.0</ele><time>2026-04-20T14:18:04Z</time></trkpt><trkpt lat="39.36418098005903" lon="9.18110493126107"><ele>200.0</ele><time>2026-04-20T14:18:05Z</time></trkpt><trkpt lat="39.36425749547547" lon="9.181070428440748"><ele>200.0</ele><time>2026-04-20T14:18:07Z</time></trkpt><trkpt lat="39.36432797378422" lon="9.181041016078096"><ele>200.00000000000003</ele><time>2026-04-20T14:18:09Z</time></trkpt><trkpt lat="39.364424894416125" lon="9.181022853213339"><ele>200.0</ele><time>2026-04-20T14:18:11Z</time></trkpt><trkpt lat="39.36451136673805" lon="9.180999204221447"><ele>200.00000000000003</ele><time>2026-04-20T14:18:13Z</time></trkpt><trkpt lat="39.36459607911412" lon="9.18100011288769"><ele>200.0</ele><time>2026-04-20T14:18:15Z</time></trkpt><trkpt lat="39.36467666462638" lon="9.18100625032282"><ele>200.0</ele><time>2026-04-20T14:18:17Z</time></trkpt><trkpt lat="39.364758854260366" lon="9.181003938529855"><ele>200.0</ele><time>2026-04-20T14:18:19Z</time></trkpt><trkpt lat="39.36482843761111" lon="9.181043120608042"><ele>200.00000000000003</ele><time>2026-04-20T14:18:21Z</time></trkpt><trkpt lat="39.364908425934935" lon="9.181069165428317"><ele>200.0</ele><time>2026-04-20T14:18:23Z</time></trkpt><trkpt lat="39.36499004958684" lon="9.18109616094807"><ele>200.16666666666669</ele><time>2026-04-20T14:18:25Z</time></trkpt><trkpt lat="39.36507018843933" lon="9.181139380648956"><ele>200.33333333333334</ele><time>2026-04-20T14:18:27Z</time></trkpt><trkpt lat="39.36516026483368" lon="9.181166654635117"><ele>200.5</ele><time>2026-04-20T14:18:29Z</time></trkpt><trkpt lat="39.36522950035472" lon="9.181225003572209"><ele>200.66666666666669</ele><time>2026-04-20T14:18:31Z</time></trkpt><trkpt lat="39.365302445177086" lon="9.181278453218525"><ele>200.83333333333334</ele><time>2026-04-20T14:18:33Z</time></trkpt><trkpt lat="39.365369890353634" lon="9.181337471111924"><ele>201.0</ele><time>2026-04-20T14:18:35Z</time></trkpt><trkpt lat="39.36543467297247" lon="9.18138961109446"><ele>201.0</ele><time>2026-04-20T14:18:37Z</time></trkpt><trkpt lat="39.36550530409929" lon="9.18142046697578"><ele>201.0</ele><time>2026-04-20T14:18:39Z</time></trkpt><trkpt lat="39.365578658271524" lon="9.181431470209077"><ele>201.0</ele><time>2026-04-20T14:18:41Z</time></trkpt><trkpt lat="39.36566255666797" lon="9.181454852028578"><ele>201.0</ele><time>2026-04-20T14:18:43Z</time></trkpt><trkpt lat="39.36574224198335" lon="9.181466198364813"><ele>201.0</ele><time>2026-04-20T14:18:45Z</time></trkpt><trkpt lat="39.36581308704371" lon="9.181471594579836"><ele>201.0</ele><time>2026-04-20T14:18:47Z</time></trkpt><trkpt lat="39.36591286641457" lon="9.18147676202432"><ele>201.28571428571428</ele><time>2026-04-20T14:18:50Z</time></trkpt><trkpt lat="39.36599306411314" lon="9.181481361807663"><ele>201.57142857142858</ele><time>2026-04-20T14:18:52Z</time></trkpt><trkpt lat="39.36606429470823" lon="9.181477313712632"><ele>201.85714285714286</ele><time>2026-04-20T14:18:54Z</time></trkpt><trkpt lat="39.36613733696473" lon="9.181460798888562"><ele>202.14285714285714</ele><time>2026-04-20T14:18:56Z</time></trkpt><trkpt lat="39.36621164808329" lon="9.181445551722113"><ele>202.42857142857144</ele><time>2026-04-20T14:18:58Z</time></trkpt><trkpt lat="39.36628423442407" lon="9.181429408766347"><ele>202.71428571428572</ele><time>2026-04-20T14:19:00Z</time></trkpt><trkpt lat="39.36635498343164" lon="9.181404795296748"><ele>203.0</ele><time>2026-04-20T14:19:02Z</time></trkpt><trkpt lat="39.366432592185596" lon="9.181365433198005"><ele>203.28571428571428</ele><time>2026-04-20T14:19:04Z</time></trkpt><trkpt lat="39.3665042664582" lon="9.181332947083396"><ele>203.57142857142856</ele><time>2026-04-20T14:19:06Z</time></trkpt><trkpt lat="39.366575478032495" lon="9.181303257055326"><ele>203.85714285714286</ele><time>2026-04-20T14:19:08Z</time></trkpt><trkpt lat="39.366640462729556" lon="9.181272490831523"><ele>204.14285714285714</ele><time>2026-04-20T14:19:10Z</time></trkpt><trkpt lat="39.366707308203075" lon="9.18122625198744"><ele>204.42857142857142</ele><time>2026-04-20T14:19:12Z</time></trkpt><trkpt lat="39.36676719972783" lon="9.18117214131745"><ele>204.71428571428572</ele><time>2026-04-20T14:19:14Z</time></trkpt><trkpt lat="39.366828220664445" lon="9.181129927873215"><ele>205.0</ele><time>2026-04-20T14:19:16Z</time></trkpt><trkpt lat="39.366888619398964" lon="9.181095935661125"><ele>204.99999999999997</ele><time>2026-04-20T14:19:18Z</time></trkpt><trkpt lat="39.36695460614614" lon="9.181055902128763"><ele>205.0</ele><time>2026-04-20T14:19:20Z</time></trkpt><trkpt lat="39.36701930951622" lon="9.181041086400569"><ele>205.0</ele><time>2026-04-20T14:19:22Z</time></trkpt><trkpt lat="39.36709422415229" lon="9.180999728965554"><ele>205.0</ele><time>2026-04-20T14:19:25Z</time></trkpt><trkpt lat="39.36716122783502" lon="9.180976885421483"><ele>204.99999999999997</ele><time>2026-04-20T14:19:27Z</time></trkpt><trkpt lat="39.367259788301325" lon="9.180965453741672"><ele>205.0</ele><time>2026-04-20T14:19:30Z</time></trkpt><trkpt lat="39.36734209016543" lon="9.180942044227617"><ele>205.2857142857143</ele><time>2026-04-20T14:19:33Z</time></trkpt><trkpt lat="39.36741037600103" lon="9.18093332443309"><ele>205.57142857142856</ele><time>2026-04-20T14:19:35Z</time></trkpt><trkpt lat="39.36747639461781" lon="9.18092653879409"><ele>205.85714285714286</ele><time>2026-04-20T14:19:38Z</time></trkpt><trkpt lat="39.36754802631198" lon="9.180907824386543"><ele>206.14285714285717</ele><time>2026-04-20T14:19:41Z</time></trkpt><trkpt lat="39.36761362140633" lon="9.180917480347675"><ele>206.42857142857144</ele><time>2026-04-20T14:19:44Z</time></trkpt><trkpt lat="39.36770474488577" lon="9.180895391883153"><ele>206.71428571428572</ele><time>2026-04-20T14:19:47Z</time></trkpt><trkpt lat="39.367779501951965" lon="9.180903433824902"><ele>207.0</ele><time>2026-04-20T14:19:50Z</time></trkpt><trkpt lat="39.367870902080384" lon="9.180906264744342"><ele>207.0</ele><time>2026-04-20T14:19:53Z</time></trkpt><trkpt lat="39.36794909384943" lon="9.180919365988652"><ele>207.0</ele><time>2026-04-20T14:19:56Z</time></trkpt><trkpt lat="39.368015292486525" lon="9.180924420639307"><ele>207.0</ele><time>2026-04-20T14:19:58Z</time></trkpt><trkpt lat="39.36811913279857" lon="9.180928293143992"><ele>207.0</ele><time>2026-04-20T14:20:00Z</time></trkpt><trkpt lat="39.36819519004397" lon="9.180899708272861"><ele>207.0</ele><time>2026-04-20T14:20:02Z</time></trkpt><trkpt lat="39.368272856803436" lon="9.180877979010551"><ele>207.0</ele><time>2026-04-20T14:20:05Z</time></trkpt><trkpt lat="39.36835727690935" lon="9.18082200565216"><ele>207.16666666666666</ele><time>2026-04-20T14:20:08Z</time></trkpt><trkpt lat="39.368446053243964" lon="9.180745235525734"><ele>207.33333333333331</ele><time>2026-04-20T14:20:10Z</time></trkpt><trkpt lat="39.36852518147179" lon="9.18069201064611"><ele>207.5</ele><time>2026-04-20T14:20:12Z</time></trkpt><trkpt lat="39.36860903401646" lon="9.180663983591453"><ele>207.66666666666666</ele><time>2026-04-20T14:20:14Z</time></trkpt><trkpt lat="39.36868632340761" lon="9.180647737752636"><ele>207.83333333333331</ele><time>2026-04-20T14:20:16Z</time></trkpt><trkpt lat="39.36875991271507" lon="9.180656788482905"><ele>208.0</ele><time>2026-04-20T14:20:18Z</time></trkpt><trkpt lat="39.368829727153575" lon="9.180689561308089"><ele>208.28571428571428</ele><time>2026-04-20T14:20:20Z</time></trkpt><trkpt lat="39.36889006429896" lon="9.180728669639398"><ele>208.57142857142858</ele><time>2026-04-20T14:20:22Z</time></trkpt><trkpt lat="39.368950543945495" lon="9.180765612336055"><ele>208.85714285714286</ele><time>2026-04-20T14:20:24Z</time></trkpt><trkpt lat="39.369008125064816" lon="9.18081023175893"><ele>209.14285714285714</ele><time>2026-04-20T14:20:26Z</time></trkpt><trkpt lat="39.36906182156298" lon="9.180861176642487"><ele>209.42857142857144</ele><time>2026-04-20T14:20:28Z</time></trkpt><trkpt lat="39.36912696786032" lon="9.180888178413328"><ele>209.71428571428572</ele><time>2026-04-20T14:20:30Z</time></trkpt><trkpt lat="39.36919025517902" lon="9.18091451998212"><ele>210.0</ele><time>2026-04-20T14:20:32Z</time></trkpt><trkpt lat="39.36926352512438" lon="9.180916152965814"><ele>210.0</ele><time>2026-04-20T14:20:34Z</time></trkpt><trkpt lat="39.369339223348895" lon="9.180913096572656"><ele>210.0</ele><time>2026-04-20T14:20:36Z</time></trkpt><trkpt lat="39.36941307564686" lon="9.180891794281843"><ele>210.0</ele><time>2026-04-20T14:20:38Z</time></trkpt><trkpt lat="39.369476533676455" lon="9.180883604358488"><ele>210.0</ele><time>2026-04-20T14:20:40Z</time></trkpt><trkpt lat="39.369561167384646" lon="9.180872728695581"><ele>210.0</ele><time>2026-04-20T14:20:43Z</time></trkpt><trkpt lat="39.36965073635119" lon="9.180874159639723"><ele>210.0</ele><time>2026-04-20T14:20:46Z</time></trkpt><trkpt lat="39.369729563670916" lon="9.180901071361204"><ele>210.66666666666666</ele><time>2026-04-20T14:20:49Z</time></trkpt><trkpt lat="39.36978926836318" lon="9.180930061003382"><ele>211.33333333333331</ele><time>2026-04-20T14:20:52Z</time></trkpt><trkpt lat="39.36985480709379" lon="9.180959140585045"><ele>212.0</ele><time>2026-04-20T14:20:55Z</time></trkpt><trkpt lat="39.369928578257344" lon="9.180987238579585"><ele>212.66666666666666</ele><time>2026-04-20T14:20:59Z</time></trkpt><trkpt lat="39.37001293706523" lon="9.181016603977145"><ele>213.33333333333331</ele><time>2026-04-20T14:21:02Z</time></trkpt><trkpt lat="39.370094159911204" lon="9.181035149049963"><ele>214.0</ele><time>2026-04-20T14:21:04Z</time></trkpt><trkpt lat="39.370161712261336" lon="9.181068035609655"><ele>213.99999999999997</ele><time>2026-04-20T14:21:07Z</time></trkpt><trkpt lat="39.37024218779502" lon="9.181097318412942"><ele>214.0</ele><time>2026-04-20T14:21:10Z</time></trkpt><trkpt lat="39.370310294877505" lon="9.181102112136454"><ele>214.0</ele><time>2026-04-20T14:21:13Z</time></trkpt><trkpt lat="39.370380453893496" lon="9.181125538975145"><ele>214.0</ele><time>2026-04-20T14:21:16Z</time></trkpt><trkpt lat="39.37046268743874" lon="9.181157052070992"><ele>213.99999999999997</ele><time>2026-04-20T14:21:18Z</time></trkpt><trkpt lat="39.37054857682065" lon="9.181143187776279"><ele>214.0</ele><time>2026-04-20T14:21:21Z</time></trkpt><trkpt lat="39.370631679871366" lon="9.181114437787995"><ele>214.66666666666666</ele><time>2026-04-20T14:21:24Z</time></trkpt><trkpt lat="39.37071245470213" lon="9.181079719007005"><ele>215.33333333333331</ele><time>2026-04-20T14:21:28Z</time></trkpt><trkpt lat="39.37081225471723" lon="9.181083310786217"><ele>216.0</ele><time>2026-04-20T14:21:31Z</time></trkpt><trkpt lat="39.37089048718036" lon="9.181081282703728"><ele>216.66666666666669</ele><time>2026-04-20T14:21:34Z</time></trkpt><trkpt lat="39.370971665201196" lon="9.181077277595197"><ele>217.33333333333334</ele><time>2026-04-20T14:21:36Z</time></trkpt><trkpt lat="39.37104300433342" lon="9.18106530412422"><ele>218.0</ele><time>2026-04-20T14:21:38Z</time></trkpt><trkpt lat="39.37112376959459" lon="9.181056033078807"><ele>218.00000000000003</ele><time>2026-04-20T14:21:41Z</time></trkpt><trkpt lat="39.371207509969366" lon="9.18103873492192"><ele>218.0</ele><time>2026-04-20T14:21:44Z</time></trkpt><trkpt lat="39.37127524778704" lon="9.181042139550383"><ele>218.0</ele><time>2026-04-20T14:21:46Z</time></trkpt><trkpt lat="39.371347650294794" lon="9.181023939796185"><ele>218.0</ele><time>2026-04-20T14:21:49Z</time></trkpt><trkpt lat="39.37141708455635" lon="9.181019175147307"><ele>218.00000000000003</ele><time>2026-04-20T14:21:52Z</time></trkpt><trkpt lat="39.37149566579717" lon="9.18100033832077"><ele>218.0</ele><time>2026-04-20T14:21:55Z</time></trkpt><trkpt lat="39.37159096406104" lon="9.180986595580721"><ele>218.42857142857144</ele><time>2026-04-20T14:21:58Z</time></trkpt><trkpt lat="39.37167944748301" lon="9.180980492372647"><ele>218.85714285714286</ele><time>2026-04-20T14:22:00Z</time></trkpt><trkpt lat="39.37174611348161" lon="9.180969288398417"><ele>219.28571428571428</ele><time>2026-04-20T14:22:02Z</time></trkpt><trkpt lat="39.3718157902808" lon="9.180958122704656"><ele>219.71428571428572</ele><time>2026-04-20T14:22:04Z</time></trkpt><trkpt lat="39.37188788182811" lon="9.180951908222758"><ele>220.14285714285714</ele><time>2026-04-20T14:22:07Z</time></trkpt><trkpt lat="39.37196755990005" lon="9.180929856716622"><ele>220.57142857142858</ele><time>2026-04-20T14:22:09Z</time></trkpt><trkpt lat="39.372032965610245" lon="9.180915696313209"><ele>221.0</ele><time>2026-04-20T14:22:11Z</time></trkpt><trkpt lat="39.37210237552273" lon="9.180917884900115"><ele>221.00000000000003</ele><time>2026-04-20T14:22:13Z</time></trkpt><trkpt lat="39.37217688325329" lon="9.180940208343346"><ele>221.0</ele><time>2026-04-20T14:22:15Z</time></trkpt><trkpt lat="39.37224199463145" lon="9.180958025607213"><ele>221.0</ele><time>2026-04-20T14:22:18Z</time></trkpt><trkpt lat="39.372324840426394" lon="9.180984064709067"><ele>221.0</ele><time>2026-04-20T14:22:20Z</time></trkpt><trkpt lat="39.37240084009592" lon="9.181011335788297"><ele>221.00000000000003</ele><time>2026-04-20T14:22:23Z</time></trkpt><trkpt lat="39.37248335738665" lon="9.181046797463862"><ele>221.0</ele><time>2026-04-20T14:22:26Z</time></trkpt><trkpt lat="39.37256327602515" lon="9.18107019952586"><ele>221.42857142857144</ele><time>2026-04-20T14:22:29Z</time></trkpt><trkpt lat="39.37262411554806" lon="9.181102097031033"><ele>221.85714285714286</ele><time>2026-04-20T14:22:32Z</time></trkpt><trkpt lat="39.37269199415999" lon="9.181125948271664"><ele>222.28571428571428</ele><time>2026-04-20T14:22:35Z</time></trkpt><trkpt lat="39.3727554467136" lon="9.18115561945168"><ele>222.71428571428572</ele><time>2026-04-20T14:22:37Z</time></trkpt><trkpt lat="39.3728305663153" lon="9.181183064996064"><ele>223.14285714285714</ele><time>2026-04-20T14:22:41Z</time></trkpt><trkpt lat="39.37291066785774" lon="9.181209521918973"><ele>223.57142857142858</ele><time>2026-04-20T14:22:44Z</time></trkpt><trkpt lat="39.372987896121394" lon="9.181247585079126"><ele>224.0</ele><time>2026-04-20T14:22:47Z</time></trkpt><trkpt lat="39.37305748324808" lon="9.181275171705506"><ele>224.50000000000003</ele><time>2026-04-20T14:22:50Z</time></trkpt><trkpt lat="39.373117170097004" lon="9.181320154759533"><ele>225.0</ele><time>2026-04-20T14:22:53Z</time></trkpt><trkpt lat="39.373187319634575" lon="9.181363112771068"><ele>225.5</ele><time>2026-04-20T14:22:56Z</time></trkpt><trkpt lat="39.373266134800524" lon="9.181395956359014"><ele>226.0</ele><time>2026-04-20T14:22:59Z</time></trkpt><trkpt lat="39.373347438511324" lon="9.181432130710737"><ele>226.50000000000003</ele><time>2026-04-20T14:23:02Z</time></trkpt><trkpt lat="39.373427635777816" lon="9.181482171860567"><ele>227.0</ele><time>2026-04-20T14:23:05Z</time></trkpt><trkpt lat="39.37350994261071" lon="9.181521984648901"><ele>227.50000000000003</ele><time>2026-04-20T14:23:08Z</time></trkpt><trkpt lat="39.37359107303163" lon="9.181561289136416"><ele>228.0</ele><time>2026-04-20T14:23:11Z</time></trkpt><trkpt lat="39.37366344831152" lon="9.181605125136668"><ele>228.5</ele><time>2026-04-20T14:23:15Z</time></trkpt><trkpt lat="39.373728639849475" lon="9.181654100595386"><ele>229.0</ele><time>2026-04-20T14:23:18Z</time></trkpt><trkpt lat="39.37379839129364" lon="9.18169999249665"><ele>229.50000000000003</ele><time>2026-04-20T14:23:21Z</time></trkpt><trkpt lat="39.37386894662772" lon="9.18174757590004"><ele>230.0</ele><time>2026-04-20T14:23:24Z</time></trkpt><trkpt lat="39.373934455350366" lon="9.181791015028324"><ele>230.00000000000003</ele><time>2026-04-20T14:23:27Z</time></trkpt><trkpt lat="39.37398876075178" lon="9.181845899561132"><ele>230.0</ele><time>2026-04-20T14:23:29Z</time></trkpt><trkpt lat="39.37404787943505" lon="9.181920806358832"><ele>230.0</ele><time>2026-04-20T14:23:32Z</time></trkpt><trkpt lat="39.374097428600905" lon="9.1820003958388"><ele>230.0</ele><time>2026-04-20T14:23:35Z</time></trkpt><trkpt lat="39.37415227756576" lon="9.182084720855718"><ele>230.00000000000003</ele><time>2026-04-20T14:23:38Z</time></trkpt><trkpt lat="39.37418839265869" lon="9.182175209502306"><ele>230.0</ele><time>2026-04-20T14:23:41Z</time></trkpt><trkpt lat="39.37420832542605" lon="9.182280407256002"><ele>230.66666666666669</ele><time>2026-04-20T14:23:45Z</time></trkpt><trkpt lat="39.37423737897241" lon="9.182385216222578"><ele>231.33333333333334</ele><time>2026-04-20T14:23:48Z</time></trkpt><trkpt lat="39.374250678862815" lon="9.18247372154841"><ele>232.0</ele><time>2026-04-20T14:23:51Z</time></trkpt><trkpt lat="39.3742458969683" lon="9.18257841824996"><ele>232.66666666666669</ele><time>2026-04-20T14:23:54Z</time></trkpt><trkpt lat="39.37425529858962" lon="9.18267843812463"><ele>233.33333333333334</ele><time>2026-04-20T14:23:57Z</time></trkpt><trkpt lat="39.37426071042832" lon="9.182777790074406"><ele>234.0</ele><time>2026-04-20T14:24:00Z</time></trkpt><trkpt lat="39.37428302312949" lon="9.182876516906724"><ele>234.0</ele><time>2026-04-20T14:24:03Z</time></trkpt><trkpt lat="39.37433033888369" lon="9.182965087140488"><ele>234.0</ele><time>2026-04-20T14:24:06Z</time></trkpt><trkpt lat="39.374362425027066" lon="9.183056998225137"><ele>234.0</ele><time>2026-04-20T14:24:10Z</time></trkpt><trkpt lat="39.374410804625086" lon="9.183154345792378"><ele>234.0</ele><time>2026-04-20T14:24:14Z</time></trkpt><trkpt lat="39.37445595214665" lon="9.183232029951979"><ele>234.0</ele><time>2026-04-20T14:24:17Z</time></trkpt><trkpt lat="39.37450825793643" lon="9.183311841836801"><ele>234.0</ele><time>2026-04-20T14:24:19Z</time></trkpt><trkpt lat="39.37456404799651" lon="9.183403675730117"><ele>234.0</ele><time>2026-04-20T14:24:22Z</time></trkpt><trkpt lat="39.37461838351653" lon="9.183500850988466"><ele>234.0</ele><time>2026-04-20T14:24:25Z</time></trkpt><trkpt lat="39.3746762717731" lon="9.183594643203426"><ele>234.0</ele><time>2026-04-20T14:24:28Z</time></trkpt><trkpt lat="39.37472851956263" lon="9.183686782767866"><ele>234.0</ele><time>2026-04-20T14:24:31Z</time></trkpt><trkpt lat="39.37477194769257" lon="9.183784372036211"><ele>234.0</ele><time>2026-04-20T14:24:34Z</time></trkpt><trkpt lat="39.37480050627344" lon="9.183857189509677"><ele>234.0</ele><time>2026-04-20T14:24:36Z</time></trkpt><trkpt lat="39.374837177068095" lon="9.18396321324426"><ele>234.42857142857144</ele><time>2026-04-20T14:24:39Z</time></trkpt><trkpt lat="39.374870689769416" lon="9.184035775418648"><ele>234.8571428571429</ele><time>2026-04-20T14:24:42Z</time></trkpt><trkpt lat="39.37491513096477" lon="9.184127592747927"><ele>235.28571428571428</ele><time>2026-04-20T14:24:44Z</time></trkpt><trkpt lat="39.37495679329976" lon="9.184191985516774"><ele>235.71428571428572</ele><time>2026-04-20T14:24:46Z</time></trkpt><trkpt lat="39.37499186726275" lon="9.184267480107493"><ele>236.14285714285714</ele><time>2026-04-20T14:24:49Z</time></trkpt><trkpt lat="39.375037539976134" lon="9.184341644893395"><ele>236.57142857142856</ele><time>2026-04-20T14:24:51Z</time></trkpt><trkpt lat="39.37507906029823" lon="9.184406898402164"><ele>236.99999999999997</ele><time>2026-04-20T14:24:53Z</time></trkpt><trkpt lat="39.37512571172869" lon="9.184482456499666"><ele>237.0</ele><time>2026-04-20T14:24:55Z</time></trkpt><trkpt lat="39.37516594269501" lon="9.184545233254712"><ele>237.0</ele><time>2026-04-20T14:24:57Z</time></trkpt><trkpt lat="39.375215756334526" lon="9.184649382921478"><ele>237.0</ele><time>2026-04-20T14:25:00Z</time></trkpt><trkpt lat="39.375270570986665" lon="9.184745617445236"><ele>237.0</ele><time>2026-04-20T14:25:03Z</time></trkpt><trkpt lat="39.375309500445844" lon="9.184810953374752"><ele>237.0</ele><time>2026-04-20T14:25:05Z</time></trkpt><trkpt lat="39.37535057148495" lon="9.184899144676908"><ele>237.0</ele><time>2026-04-20T14:25:08Z</time></trkpt><trkpt lat="39.375390897130394" lon="9.18496518951403"><ele>237.1428571428571</ele><time>2026-04-20T14:25:10Z</time></trkpt><trkpt lat="39.37544022712562" lon="9.185069917664244"><ele>237.28571428571428</ele><time>2026-04-20T14:25:13Z</time></trkpt><trkpt lat="39.37548805870526" lon="9.185156917312206"><ele>237.42857142857142</ele><time>2026-04-20T14:25:15Z</time></trkpt><trkpt lat="39.37552556554537" lon="9.18522503440977"><ele>237.57142857142856</ele><time>2026-04-20T14:25:17Z</time></trkpt><trkpt lat="39.37555561105423" lon="9.185299653304984"><ele>237.71428571428572</ele><time>2026-04-20T14:25:19Z</time></trkpt><trkpt lat="39.375589561716346" lon="9.185369944300326"><ele>237.85714285714286</ele><time>2026-04-20T14:25:21Z</time></trkpt><trkpt lat="39.37562440337747" lon="9.18544314135907"><ele>238.0</ele><time>2026-04-20T14:25:23Z</time></trkpt><trkpt lat="39.37566567399178" lon="9.185510793460667"><ele>238.0</ele><time>2026-04-20T14:25:25Z</time></trkpt><trkpt lat="39.37570378231932" lon="9.185584036788745"><ele>238.0</ele><time>2026-04-20T14:25:27Z</time></trkpt><trkpt lat="39.37574105301045" lon="9.18565282738464"><ele>238.0</ele><time>2026-04-20T14:25:29Z</time></trkpt><trkpt lat="39.37578011388213" lon="9.185722742045057"><ele>238.0</ele><time>2026-04-20T14:25:31Z</time></trkpt><trkpt lat="39.375816958986896" lon="9.18579312277861"><ele>238.0</ele><time>2026-04-20T14:25:33Z</time></trkpt><trkpt lat="39.37585813780567" lon="9.185858391803643"><ele>238.0</ele><time>2026-04-20T14:25:35Z</time></trkpt><trkpt lat="39.375906774846065" lon="9.18596452192991"><ele>238.0</ele><time>2026-04-20T14:25:38Z</time></trkpt><trkpt lat="39.37594152317753" lon="9.186035911066556"><ele>238.16666666666666</ele><time>2026-04-20T14:25:40Z</time></trkpt><trkpt lat="39.37602416661301" lon="9.186086787409256"><ele>238.33333333333331</ele><time>2026-04-20T14:25:43Z</time></trkpt><trkpt lat="39.376091629635205" lon="9.18605971146254"><ele>238.5</ele><time>2026-04-20T14:25:45Z</time></trkpt><trkpt lat="39.376160889873184" lon="9.186043251659287"><ele>238.66666666666669</ele><time>2026-04-20T14:25:47Z</time></trkpt><trkpt lat="39.376238086127444" lon="9.186049864416669"><ele>238.83333333333334</ele><time>2026-04-20T14:25:50Z</time></trkpt><trkpt lat="39.37628984002592" lon="9.186108754682161"><ele>239.0</ele><time>2026-04-20T14:25:53Z</time></trkpt><trkpt lat="39.376390321748985" lon="9.186162486338269"><ele>239.0</ele><time>2026-04-20T14:25:55Z</time></trkpt><trkpt lat="39.3764953645885" lon="9.186156521349856"><ele>238.99999999999997</ele><time>2026-04-20T14:25:57Z</time></trkpt><trkpt lat="39.37659816382618" lon="9.186107843623827"><ele>238.99999999999997</ele><time>2026-04-20T14:25:59Z</time></trkpt><trkpt lat="39.37669259433492" lon="9.186068142456596"><ele>239.0</ele><time>2026-04-20T14:26:01Z</time></trkpt><trkpt lat="39.37677981653222" lon="9.186050402746844"><ele>239.0</ele><time>2026-04-20T14:26:03Z</time></trkpt><trkpt lat="39.37686830440869" lon="9.186021614818483"><ele>239.00000000000003</ele><time>2026-04-20T14:26:05Z</time></trkpt><trkpt lat="39.37694670525195" lon="9.185993008059564"><ele>239.0</ele><time>2026-04-20T14:26:07Z</time></trkpt><trkpt lat="39.3770355450577" lon="9.185979493076939"><ele>239.0</ele><time>2026-04-20T14:26:09Z</time></trkpt><trkpt lat="39.37709979840554" lon="9.186031618156786"><ele>239.0</ele><time>2026-04-20T14:26:11Z</time></trkpt><trkpt lat="39.377153310768946" lon="9.185986475356412"><ele>239.00000000000003</ele><time>2026-04-20T14:26:13Z</time></trkpt><trkpt lat="39.37718576977215" lon="9.185888458859852"><ele>239.0</ele><time>2026-04-20T14:26:15Z</time></trkpt><trkpt lat="39.377203254020266" lon="9.185777764934963"><ele>238.71428571428575</ele><time>2026-04-20T14:26:17Z</time></trkpt><trkpt lat="39.377207556814795" lon="9.185674982264935"><ele>238.42857142857144</ele><time>2026-04-20T14:26:19Z</time></trkpt><trkpt lat="39.37720858476228" lon="9.185586946015256"><ele>238.14285714285714</ele><time>2026-04-20T14:26:21Z</time></trkpt><trkpt lat="39.37721451360151" lon="9.185503495065841"><ele>237.85714285714286</ele><time>2026-04-20T14:26:23Z</time></trkpt><trkpt lat="39.37721432143075" lon="9.185411941992406"><ele>237.57142857142856</ele><time>2026-04-20T14:26:25Z</time></trkpt><trkpt lat="39.37721906629509" lon="9.185320783189415"><ele>237.28571428571425</ele><time>2026-04-20T14:26:27Z</time></trkpt><trkpt lat="39.37721814057352" lon="9.185237599913188"><ele>236.99999999999997</ele><time>2026-04-20T14:26:29Z</time></trkpt><trkpt lat="39.37722031855765" lon="9.185153265467981"><ele>236.99999999999997</ele><time>2026-04-20T14:26:31Z</time></trkpt><trkpt lat="39.37722953946471" lon="9.18506324795287"><ele>237.0</ele><time>2026-04-20T14:26:33Z</time></trkpt><trkpt lat="39.37723697537777" lon="9.18498020969611"><ele>236.99999999999997</ele><time>2026-04-20T14:26:35Z</time></trkpt><trkpt lat="39.37724771045112" lon="9.184861843089392"><ele>236.99999999999997</ele><time>2026-04-20T14:26:38Z</time></trkpt><trkpt lat="39.37726897428479" lon="9.184768928108447"><ele>237.0</ele><time>2026-04-20T14:26:40Z</time></trkpt><trkpt lat="39.377282025701184" lon="9.1846766060704"><ele>236.99999999999997</ele><time>2026-04-20T14:26:42Z</time></trkpt><trkpt lat="39.3772910587368" lon="9.18459298657102"><ele>236.99999999999997</ele><time>2026-04-20T14:26:44Z</time></trkpt><trkpt lat="39.37729648294559" lon="9.18450724375801"><ele>237.16666666666666</ele><time>2026-04-20T14:26:46Z</time></trkpt><trkpt lat="39.3773172894805" lon="9.184422337998997"><ele>237.33333333333331</ele><time>2026-04-20T14:26:48Z</time></trkpt><trkpt lat="39.37732193215526" lon="9.184339184218727"><ele>237.5</ele><time>2026-04-20T14:26:50Z</time></trkpt><trkpt lat="39.37734523134511" lon="9.184246794705361"><ele>237.66666666666666</ele><time>2026-04-20T14:26:52Z</time></trkpt><trkpt lat="39.377362244752646" lon="9.18415964734934"><ele>237.83333333333331</ele><time>2026-04-20T14:26:54Z</time></trkpt><trkpt lat="39.37738361447083" lon="9.184037754398203"><ele>238.0</ele><time>2026-04-20T14:26:57Z</time></trkpt><trkpt lat="39.377411699017" lon="9.183926606155287"><ele>238.14285714285714</ele><time>2026-04-20T14:27:00Z</time></trkpt><trkpt lat="39.37742875736241" lon="9.183844690633432"><ele>238.28571428571428</ele><time>2026-04-20T14:27:02Z</time></trkpt><trkpt lat="39.37743763920471" lon="9.1837569406381"><ele>238.42857142857144</ele><time>2026-04-20T14:27:04Z</time></trkpt><trkpt lat="39.37746383648865" lon="9.183681150164634"><ele>238.57142857142858</ele><time>2026-04-20T14:27:06Z</time></trkpt><trkpt lat="39.3774867374446" lon="9.183598020538318"><ele>238.71428571428572</ele><time>2026-04-20T14:27:08Z</time></trkpt><trkpt lat="39.377495769775926" lon="9.183501480698423"><ele>238.8571428571429</ele><time>2026-04-20T14:27:10Z</time></trkpt><trkpt lat="39.377505996915595" lon="9.183409440169372"><ele>239.00000000000003</ele><time>2026-04-20T14:27:12Z</time></trkpt><trkpt lat="39.37753979663862" lon="9.183327152373638"><ele>239.00000000000003</ele><time>2026-04-20T14:27:14Z</time></trkpt><trkpt lat="39.3775372398508" lon="9.183223788848784"><ele>239.0</ele><time>2026-04-20T14:27:16Z</time></trkpt><trkpt lat="39.377534279786246" lon="9.183118522870316"><ele>239.0</ele><time>2026-04-20T14:27:18Z</time></trkpt><trkpt lat="39.377527129477535" lon="9.183015521491347"><ele>239.0</ele><time>2026-04-20T14:27:20Z</time></trkpt><trkpt lat="39.3775237113577" lon="9.182912434088633"><ele>239.00000000000003</ele><time>2026-04-20T14:27:22Z</time></trkpt><trkpt lat="39.37750908164209" lon="9.182808882183664"><ele>239.0</ele><time>2026-04-20T14:27:24Z</time></trkpt><trkpt lat="39.37750137435579" lon="9.182703759124315"><ele>239.00000000000003</ele><time>2026-04-20T14:27:26Z</time></trkpt><trkpt lat="39.377497698524884" lon="9.182597307509608"><ele>239.0</ele><time>2026-04-20T14:27:28Z</time></trkpt><trkpt lat="39.37749030100842" lon="9.182495920237841"><ele>239.0</ele><time>2026-04-20T14:27:30Z</time></trkpt><trkpt lat="39.377484697032976" lon="9.182394321255797"><ele>239.0</ele><time>2026-04-20T14:27:32Z</time></trkpt><trkpt lat="39.37747082425849" lon="9.182286008978597"><ele>239.00000000000003</ele><time>2026-04-20T14:27:34Z</time></trkpt><trkpt lat="39.37745812053579" lon="9.182184556724838"><ele>239.0</ele><time>2026-04-20T14:27:36Z</time></trkpt><trkpt lat="39.37749484902998" lon="9.182116358699268"><ele>239.0</ele><time>2026-04-20T14:27:38Z</time></trkpt><trkpt lat="39.37758139693874" lon="9.182180109226627"><ele>238.99999999999997</ele><time>2026-04-20T14:27:40Z</time></trkpt><trkpt lat="39.37765853184488" lon="9.18222866452838"><ele>238.99999999999997</ele><time>2026-04-20T14:27:42Z</time></trkpt><trkpt lat="39.377745020824854" lon="9.182283718230451"><ele>239.0</ele><time>2026-04-20T14:27:44Z</time></trkpt><trkpt lat="39.37782790513865" lon="9.182336184491996"><ele>239.0</ele><time>2026-04-20T14:27:46Z</time></trkpt><trkpt lat="39.3779103508875" lon="9.182396936574417"><ele>238.79999999999998</ele><time>2026-04-20T14:27:48Z</time></trkpt><trkpt lat="39.37798522652177" lon="9.182460539367803"><ele>238.59999999999997</ele><time>2026-04-20T14:27:50Z</time></trkpt><trkpt lat="39.37808284033565" lon="9.182523344142496"><ele>238.4</ele><time>2026-04-20T14:27:52Z</time></trkpt><trkpt lat="39.378178204205" lon="9.182587130596641"><ele>238.2</ele><time>2026-04-20T14:27:54Z</time></trkpt><trkpt lat="39.37824658621659" lon="9.18258752791407"><ele>238.0</ele><time>2026-04-20T14:27:55Z</time></trkpt><trkpt lat="39.37835497956301" lon="9.182656982257107"><ele>237.85714285714286</ele><time>2026-04-20T14:27:57Z</time></trkpt><trkpt lat="39.37841370376202" lon="9.182694610492279"><ele>237.71428571428572</ele><time>2026-04-20T14:27:58Z</time></trkpt><trkpt lat="39.37847244185091" lon="9.182732726189045"><ele>237.57142857142856</ele><time>2026-04-20T14:27:59Z</time></trkpt><trkpt lat="39.37853539293797" lon="9.182773616127397"><ele>237.42857142857142</ele><time>2026-04-20T14:28:00Z</time></trkpt><trkpt lat="39.378596087353976" lon="9.182813040244312"><ele>237.28571428571428</ele><time>2026-04-20T14:28:01Z</time></trkpt><trkpt lat="39.378658947296515" lon="9.182853870979345"><ele>237.1428571428571</ele><time>2026-04-20T14:28:02Z</time></trkpt><trkpt lat="39.378724919432216" lon="9.182896723247481"><ele>236.99999999999997</ele><time>2026-04-20T14:28:03Z</time></trkpt><trkpt lat="39.37878739920572" lon="9.182937307048297"><ele>236.33333333333334</ele><time>2026-04-20T14:28:04Z</time></trkpt><trkpt lat="39.37885462368834" lon="9.182980972774617"><ele>235.66666666666669</ele><time>2026-04-20T14:28:05Z</time></trkpt><trkpt lat="39.378925459573175" lon="9.183026984296145"><ele>235.0</ele><time>2026-04-20T14:28:06Z</time></trkpt><trkpt lat="39.37899865814018" lon="9.183074272299926"><ele>234.33333333333334</ele><time>2026-04-20T14:28:07Z</time></trkpt><trkpt lat="39.379068319000304" lon="9.183119144371767"><ele>233.66666666666669</ele><time>2026-04-20T14:28:08Z</time></trkpt><trkpt lat="39.379143214332" lon="9.183167388235852"><ele>233.0</ele><time>2026-04-20T14:28:09Z</time></trkpt><trkpt lat="39.37922014115855" lon="9.183216940687386"><ele>232.83333333333334</ele><time>2026-04-20T14:28:10Z</time></trkpt><trkpt lat="39.37929025039936" lon="9.18326210159348"><ele>232.66666666666669</ele><time>2026-04-20T14:28:11Z</time></trkpt><trkpt lat="39.37935748269058" lon="9.183305138415367"><ele>232.5</ele><time>2026-04-20T14:28:12Z</time></trkpt><trkpt lat="39.37943185031655" lon="9.183352873586994"><ele>232.33333333333331</ele><time>2026-04-20T14:28:13Z</time></trkpt><trkpt lat="39.37951571246135" lon="9.183406703114823"><ele>232.16666666666666</ele><time>2026-04-20T14:28:14Z</time></trkpt><trkpt lat="39.37959592880873" lon="9.183459744510431"><ele>232.0</ele><time>2026-04-20T14:28:15Z</time></trkpt><trkpt lat="39.37967499106585" lon="9.18351161760451"><ele>231.66666666666666</ele><time>2026-04-20T14:28:16Z</time></trkpt><trkpt lat="39.379753399380284" lon="9.183563061647696"><ele>231.33333333333331</ele><time>2026-04-20T14:28:17Z</time></trkpt><trkpt lat="39.37983550936917" lon="9.183616934375635"><ele>231.0</ele><time>2026-04-20T14:28:18Z</time></trkpt><trkpt lat="39.37991305831064" lon="9.183667814582508"><ele>230.66666666666669</ele><time>2026-04-20T14:28:19Z</time></trkpt><trkpt lat="39.37998576472894" lon="9.183714818984216"><ele>230.33333333333334</ele><time>2026-04-20T14:28:20Z</time></trkpt><trkpt lat="39.38006006687443" lon="9.183762825234963"><ele>230.0</ele><time>2026-04-20T14:28:21Z</time></trkpt><trkpt lat="39.38013284003609" lon="9.18380984362354"><ele>230.00000000000003</ele><time>2026-04-20T14:28:22Z</time></trkpt><trkpt lat="39.38020681023386" lon="9.183857635400814"><ele>230.0</ele><time>2026-04-20T14:28:23Z</time></trkpt><trkpt lat="39.380280258437224" lon="9.183905089926363"><ele>230.0</ele><time>2026-04-20T14:28:24Z</time></trkpt><trkpt lat="39.38035042307469" lon="9.183950422956032"><ele>230.0</ele><time>2026-04-20T14:28:25Z</time></trkpt><trkpt lat="39.380419834522144" lon="9.183995269351621"><ele>230.00000000000003</ele><time>2026-04-20T14:28:26Z</time></trkpt><trkpt lat="39.38048938192067" lon="9.18404020358807"><ele>230.0</ele><time>2026-04-20T14:28:27Z</time></trkpt><trkpt lat="39.3805606282729" lon="9.18408623550398"><ele>230.0</ele><time>2026-04-20T14:28:28Z</time></trkpt><trkpt lat="39.380625999820836" lon="9.18412847173694"><ele>230.0</ele><time>2026-04-20T14:28:29Z</time></trkpt><trkpt lat="39.380693772470224" lon="9.184172259314334"><ele>230.0</ele><time>2026-04-20T14:28:30Z</time></trkpt><trkpt lat="39.38075688880917" lon="9.184213038480886"><ele>230.0</ele><time>2026-04-20T14:28:31Z</time></trkpt><trkpt lat="39.380859280328515" lon="9.18427842089345"><ele>230.0</ele><time>2026-04-20T14:28:33Z</time></trkpt><trkpt lat="39.38084433750428" lon="9.184441664653988"><ele>230.0</ele><time>2026-04-20T14:28:34Z</time></trkpt><trkpt lat="39.38089296885929" lon="9.184585296494863"><ele>230.0</ele><time>2026-04-20T14:28:36Z</time></trkpt><trkpt lat="39.38093867919462" lon="9.184718663042457"><ele>230.0</ele><time>2026-04-20T14:28:38Z</time></trkpt><trkpt lat="39.38100037821689" lon="9.184847750739495"><ele>230.0</ele><time>2026-04-20T14:28:40Z</time></trkpt><trkpt lat="39.381035282687264" lon="9.184918089692788"><ele>230.0</ele><time>2026-04-20T14:28:41Z</time></trkpt><trkpt lat="39.381070017270915" lon="9.184987124675496"><ele>230.2</ele><time>2026-04-20T14:28:42Z</time></trkpt><trkpt lat="39.38113882893122" lon="9.185118841592267"><ele>230.4</ele><time>2026-04-20T14:28:44Z</time></trkpt><trkpt lat="39.38117618153507" lon="9.18518478433692"><ele>230.60000000000002</ele><time>2026-04-20T14:28:45Z</time></trkpt><trkpt lat="39.38121364185641" lon="9.185250652871362"><ele>230.8</ele><time>2026-04-20T14:28:46Z</time></trkpt><trkpt lat="39.3812923184525" lon="9.1853745493605"><ele>231.0</ele><time>2026-04-20T14:28:48Z</time></trkpt><trkpt lat="39.38137499282884" lon="9.185495766767303"><ele>230.60000000000002</ele><time>2026-04-20T14:28:50Z</time></trkpt><trkpt lat="39.381455375442954" lon="9.185622983623224"><ele>230.20000000000002</ele><time>2026-04-20T14:28:52Z</time></trkpt><trkpt lat="39.381535538695786" lon="9.185749436431776"><ele>229.79999999999998</ele><time>2026-04-20T14:28:54Z</time></trkpt><trkpt lat="39.38156597591773" lon="9.18582617978649"><ele>229.39999999999998</ele><time>2026-04-20T14:28:55Z</time></trkpt><trkpt lat="39.38161442615761" lon="9.185883553554653"><ele>229.0</ele><time>2026-04-20T14:28:56Z</time></trkpt><trkpt lat="39.381663875882595" lon="9.18593645938716"><ele>229.0</ele><time>2026-04-20T14:28:57Z</time></trkpt><trkpt lat="39.38175634606151" lon="9.186053766150398"><ele>228.99999999999997</ele><time>2026-04-20T14:28:59Z</time></trkpt><trkpt lat="39.3818081752446" lon="9.186114152616783"><ele>228.99999999999997</ele><time>2026-04-20T14:29:00Z</time></trkpt><trkpt lat="39.38190875850079" lon="9.18621418516684"><ele>229.0</ele><time>2026-04-20T14:29:02Z</time></trkpt><trkpt lat="39.38196705868852" lon="9.186263006949064"><ele>229.0</ele><time>2026-04-20T14:29:03Z</time></trkpt><trkpt lat="39.3820730590447" lon="9.18634465058764"><ele>228.99999999999997</ele><time>2026-04-20T14:29:05Z</time></trkpt><trkpt lat="39.38213136698159" lon="9.186385165001171"><ele>229.0</ele><time>2026-04-20T14:29:06Z</time></trkpt><trkpt lat="39.38218853556762" lon="9.186423195317666"><ele>229.0</ele><time>2026-04-20T14:29:07Z</time></trkpt><trkpt lat="39.38224475539492" lon="9.186460637289725"><ele>229.0</ele><time>2026-04-20T14:29:08Z</time></trkpt><trkpt lat="39.38235538912294" lon="9.186531519206076"><ele>228.99999999999997</ele><time>2026-04-20T14:29:10Z</time></trkpt><trkpt lat="39.3824638179423" lon="9.186602866745037"><ele>229.0</ele><time>2026-04-20T14:29:12Z</time></trkpt><trkpt lat="39.382569092730115" lon="9.186672138905843"><ele>229.0</ele><time>2026-04-20T14:29:14Z</time></trkpt><trkpt lat="39.38267384796097" lon="9.186740171511415"><ele>228.99999999999997</ele><time>2026-04-20T14:29:16Z</time></trkpt><trkpt lat="39.38277086968704" lon="9.186800903422071"><ele>228.99999999999997</ele><time>2026-04-20T14:29:18Z</time></trkpt><trkpt lat="39.382867149094835" lon="9.186861170609992"><ele>229.0</ele><time>2026-04-20T14:29:20Z</time></trkpt><trkpt lat="39.382954429586036" lon="9.186931367624576"><ele>229.0</ele><time>2026-04-20T14:29:22Z</time></trkpt><trkpt lat="39.38306903808095" lon="9.186993431839038"><ele>228.99999999999997</ele><time>2026-04-20T14:29:24Z</time></trkpt><trkpt lat="39.383178644773636" lon="9.187078138795302"><ele>229.0</ele><time>2026-04-20T14:29:26Z</time></trkpt><trkpt lat="39.38324499106503" lon="9.18709528316709"><ele>229.0</ele><time>2026-04-20T14:29:27Z</time></trkpt><trkpt lat="39.3833042191343" lon="9.187131818317464"><ele>229.0</ele><time>2026-04-20T14:29:28Z</time></trkpt><trkpt lat="39.38336708713103" lon="9.187174257505465"><ele>228.99999999999997</ele><time>2026-04-20T14:29:29Z</time></trkpt><trkpt lat="39.38342587255363" lon="9.187232772056726"><ele>229.0</ele><time>2026-04-20T14:29:30Z</time></trkpt><trkpt lat="39.38349342633367" lon="9.187275473991559"><ele>228.99999999999997</ele><time>2026-04-20T14:29:31Z</time></trkpt><trkpt lat="39.383558089908604" lon="9.187313098186895"><ele>229.0</ele><time>2026-04-20T14:29:32Z</time></trkpt><trkpt lat="39.38362592083935" lon="9.18737098663739"><ele>229.0</ele><time>2026-04-20T14:29:33Z</time></trkpt><trkpt lat="39.383688594972455" lon="9.187429239873056"><ele>229.0</ele><time>2026-04-20T14:29:34Z</time></trkpt><trkpt lat="39.3837538673956" lon="9.1874932672747"><ele>228.99999999999997</ele><time>2026-04-20T14:29:35Z</time></trkpt><trkpt lat="39.38381372381616" lon="9.187553586348187"><ele>229.0</ele><time>2026-04-20T14:29:36Z</time></trkpt><trkpt lat="39.38387639376763" lon="9.187641186910268"><ele>227.99999999999997</ele><time>2026-04-20T14:29:37Z</time></trkpt><trkpt lat="39.38393850231643" lon="9.187711101100172"><ele>227.0</ele><time>2026-04-20T14:29:38Z</time></trkpt><trkpt lat="39.383992891855705" lon="9.187796710347198"><ele>226.0</ele><time>2026-04-20T14:29:39Z</time></trkpt><trkpt lat="39.38404355691582" lon="9.187885593519937"><ele>225.0</ele><time>2026-04-20T14:29:40Z</time></trkpt><trkpt lat="39.38406969468433" lon="9.187990841011935"><ele>223.99999999999997</ele><time>2026-04-20T14:29:41Z</time></trkpt><trkpt lat="39.38410377314889" lon="9.188099887958197"><ele>223.0</ele><time>2026-04-20T14:29:42Z</time></trkpt><trkpt lat="39.38411844796946" lon="9.18821335408817"><ele>222.66666666666666</ele><time>2026-04-20T14:29:43Z</time></trkpt><trkpt lat="39.38413249451312" lon="9.188323484344242"><ele>222.33333333333331</ele><time>2026-04-20T14:29:44Z</time></trkpt><trkpt lat="39.38417580388076" lon="9.188421533689136"><ele>222.0</ele><time>2026-04-20T14:29:45Z</time></trkpt><trkpt lat="39.384204435028224" lon="9.188528067057291"><ele>221.66666666666669</ele><time>2026-04-20T14:29:46Z</time></trkpt><trkpt lat="39.38423266148021" lon="9.188633094604505"><ele>221.33333333333334</ele><time>2026-04-20T14:29:47Z</time></trkpt><trkpt lat="39.38424463359692" lon="9.188741812511116"><ele>221.0</ele><time>2026-04-20T14:29:48Z</time></trkpt><trkpt lat="39.384275339697936" lon="9.188840460597875"><ele>221.00000000000003</ele><time>2026-04-20T14:29:49Z</time></trkpt><trkpt lat="39.384301871397696" lon="9.18894307876452"><ele>221.0</ele><time>2026-04-20T14:29:50Z</time></trkpt><trkpt lat="39.38431301785243" lon="9.189050942426356"><ele>221.0</ele><time>2026-04-20T14:29:51Z</time></trkpt><trkpt lat="39.3843178007426" lon="9.189155835548789"><ele>221.0</ele><time>2026-04-20T14:29:52Z</time></trkpt><trkpt lat="39.38432030651809" lon="9.189258745443057"><ele>221.00000000000003</ele><time>2026-04-20T14:29:53Z</time></trkpt><trkpt lat="39.384321765496125" lon="9.189356929254739"><ele>221.0</ele><time>2026-04-20T14:29:54Z</time></trkpt><trkpt lat="39.38432101613156" lon="9.189456638987803"><ele>220.85714285714286</ele><time>2026-04-20T14:29:55Z</time></trkpt><trkpt lat="39.38431843930256" lon="9.18955349366892"><ele>220.71428571428572</ele><time>2026-04-20T14:29:56Z</time></trkpt><trkpt lat="39.38432237680396" lon="9.189654503600968"><ele>220.57142857142856</ele><time>2026-04-20T14:29:57Z</time></trkpt><trkpt lat="39.38433080011734" lon="9.189751850328822"><ele>220.42857142857144</ele><time>2026-04-20T14:29:58Z</time></trkpt><trkpt lat="39.38433455439491" lon="9.189837895814248"><ele>220.28571428571428</ele><time>2026-04-20T14:29:59Z</time></trkpt><trkpt lat="39.38434217596813" lon="9.189929615647436"><ele>220.14285714285714</ele><time>2026-04-20T14:30:00Z</time></trkpt><trkpt lat="39.38434934314254" lon="9.190032775609032"><ele>220.0</ele><time>2026-04-20T14:30:01Z</time></trkpt><trkpt lat="39.384392163276075" lon="9.190119726162392"><ele>219.99999999999997</ele><time>2026-04-20T14:30:02Z</time></trkpt><trkpt lat="39.38445814204977" lon="9.190185346414916"><ele>220.0</ele><time>2026-04-20T14:30:03Z</time></trkpt><trkpt lat="39.38451081705483" lon="9.190265704945817"><ele>220.0</ele><time>2026-04-20T14:30:04Z</time></trkpt><trkpt lat="39.38455573438037" lon="9.190334812165679"><ele>220.0</ele><time>2026-04-20T14:30:05Z</time></trkpt><trkpt lat="39.3845976152987" lon="9.190411076953126"><ele>219.99999999999997</ele><time>2026-04-20T14:30:06Z</time></trkpt><trkpt lat="39.384643839488604" lon="9.190490927158317"><ele>220.0</ele><time>2026-04-20T14:30:07Z</time></trkpt><trkpt lat="39.38468652563563" lon="9.190566835422226"><ele>219.83333333333331</ele><time>2026-04-20T14:30:08Z</time></trkpt><trkpt lat="39.38472839225128" lon="9.19063181506916"><ele>219.66666666666666</ele><time>2026-04-20T14:30:09Z</time></trkpt><trkpt lat="39.38477073665704" lon="9.190700795838424"><ele>219.5</ele><time>2026-04-20T14:30:10Z</time></trkpt><trkpt lat="39.38482089968567" lon="9.190766092340883"><ele>219.33333333333331</ele><time>2026-04-20T14:30:11Z</time></trkpt><trkpt lat="39.38486691003119" lon="9.190829647529629"><ele>219.16666666666666</ele><time>2026-04-20T14:30:12Z</time></trkpt><trkpt lat="39.38491312897146" lon="9.190886488751042"><ele>219.0</ele><time>2026-04-20T14:30:13Z</time></trkpt><trkpt lat="39.38500170491882" lon="9.190999818610035"><ele>219.0</ele><time>2026-04-20T14:30:15Z</time></trkpt><trkpt lat="39.38510058443898" lon="9.191068730166155"><ele>218.99999999999997</ele><time>2026-04-20T14:30:17Z</time></trkpt><trkpt lat="39.38515800981295" lon="9.191111299578562"><ele>218.99999999999997</ele><time>2026-04-20T14:30:18Z</time></trkpt><trkpt lat="39.38521761286147" lon="9.191152617394447"><ele>219.0</ele><time>2026-04-20T14:30:19Z</time></trkpt><trkpt lat="39.38532618685685" lon="9.191221101926397"><ele>219.0</ele><time>2026-04-20T14:30:21Z</time></trkpt><trkpt lat="39.385439911634606" lon="9.191293120032963"><ele>219.0</ele><time>2026-04-20T14:30:23Z</time></trkpt><trkpt lat="39.38549723530942" lon="9.191332207746221"><ele>218.99999999999997</ele><time>2026-04-20T14:30:24Z</time></trkpt><trkpt lat="39.38559643448021" lon="9.19140630650007"><ele>218.99999999999997</ele><time>2026-04-20T14:30:26Z</time></trkpt><trkpt lat="39.38569368219222" lon="9.191490593014073"><ele>219.0</ele><time>2026-04-20T14:30:28Z</time></trkpt><trkpt lat="39.38576991787649" lon="9.191596043984179"><ele>219.0</ele><time>2026-04-20T14:30:30Z</time></trkpt><trkpt lat="39.38584765025325" lon="9.191685028761912"><ele>219.5</ele><time>2026-04-20T14:30:32Z</time></trkpt><trkpt lat="39.38592426192583" lon="9.191775879249803"><ele>220.0</ele><time>2026-04-20T14:30:34Z</time></trkpt><trkpt lat="39.386014717251825" lon="9.191867361572385"><ele>220.5</ele><time>2026-04-20T14:30:36Z</time></trkpt><trkpt lat="39.38608416172816" lon="9.191991454702396"><ele>221.0</ele><time>2026-04-20T14:30:38Z</time></trkpt><trkpt lat="39.38616794262298" lon="9.192100657992546"><ele>221.0</ele><time>2026-04-20T14:30:40Z</time></trkpt><trkpt lat="39.38625086831362" lon="9.192220349955127"><ele>221.0</ele><time>2026-04-20T14:30:42Z</time></trkpt><trkpt lat="39.38632245648384" lon="9.192338995131378"><ele>221.0</ele><time>2026-04-20T14:30:44Z</time></trkpt><trkpt lat="39.38638547833953" lon="9.192464583754713"><ele>221.0</ele><time>2026-04-20T14:30:46Z</time></trkpt><trkpt lat="39.386431046632715" lon="9.192585193663255"><ele>220.8</ele><time>2026-04-20T14:30:48Z</time></trkpt><trkpt lat="39.38647273582302" lon="9.192705633411649"><ele>220.60000000000002</ele><time>2026-04-20T14:30:50Z</time></trkpt><trkpt lat="39.3865281036019" lon="9.192825489045795"><ele>220.4</ele><time>2026-04-20T14:30:52Z</time></trkpt><trkpt lat="39.38658061197502" lon="9.192944585861222"><ele>220.2</ele><time>2026-04-20T14:30:54Z</time></trkpt><trkpt lat="39.38663027285582" lon="9.193075183135337"><ele>220.0</ele><time>2026-04-20T14:30:56Z</time></trkpt><trkpt lat="39.38668990779775" lon="9.19319865297115"><ele>220.0</ele><time>2026-04-20T14:30:58Z</time></trkpt><trkpt lat="39.386758133234174" lon="9.19331989270698"><ele>220.0</ele><time>2026-04-20T14:31:00Z</time></trkpt><trkpt lat="39.386815124670235" lon="9.193445158668311"><ele>220.0</ele><time>2026-04-20T14:31:02Z</time></trkpt><trkpt lat="39.38687494851649" lon="9.193566298220398"><ele>220.0</ele><time>2026-04-20T14:31:04Z</time></trkpt><trkpt lat="39.386934982180264" lon="9.193687201427627"><ele>220.0</ele><time>2026-04-20T14:31:06Z</time></trkpt><trkpt lat="39.38700402758222" lon="9.19379782944886"><ele>220.0</ele><time>2026-04-20T14:31:08Z</time></trkpt><trkpt lat="39.387087282190805" lon="9.193897899447595"><ele>220.0</ele><time>2026-04-20T14:31:10Z</time></trkpt><trkpt lat="39.38717775210484" lon="9.193995463786143"><ele>220.0</ele><time>2026-04-20T14:31:12Z</time></trkpt><trkpt lat="39.38726183617631" lon="9.19410331144964"><ele>219.75</ele><time>2026-04-20T14:31:14Z</time></trkpt><trkpt lat="39.387350807697295" lon="9.194201394575545"><ele>219.5</ele><time>2026-04-20T14:31:16Z</time></trkpt><trkpt lat="39.387436503046736" lon="9.194306429054063"><ele>219.25</ele><time>2026-04-20T14:31:18Z</time></trkpt><trkpt lat="39.38751325476421" lon="9.194422495180902"><ele>219.0</ele><time>2026-04-20T14:31:20Z</time></trkpt><trkpt lat="39.38754511103494" lon="9.194566400518996"><ele>219.0</ele><time>2026-04-20T14:31:22Z</time></trkpt><trkpt lat="39.387551485032276" lon="9.194720399166183"><ele>218.99999999999997</ele><time>2026-04-20T14:31:24Z</time></trkpt><trkpt lat="39.38759630555146" lon="9.194856947091903"><ele>218.99999999999997</ele><time>2026-04-20T14:31:26Z</time></trkpt><trkpt lat="39.38764778530389" lon="9.194985257718628"><ele>219.0</ele><time>2026-04-20T14:31:28Z</time></trkpt><trkpt lat="39.38770559798062" lon="9.19509451281421"><ele>219.0</ele><time>2026-04-20T14:31:30Z</time></trkpt><trkpt lat="39.387767194629326" lon="9.195219630570953"><ele>219.0</ele><time>2026-04-20T14:31:32Z</time></trkpt><trkpt lat="39.38782744450154" lon="9.195347808100493"><ele>218.99999999999997</ele><time>2026-04-20T14:31:34Z</time></trkpt><trkpt lat="39.38785530307161" lon="9.195431818244995"><ele>218.99999999999997</ele><time>2026-04-20T14:31:35Z</time></trkpt><trkpt lat="39.3879573364673" lon="9.195516102100171"><ele>219.0</ele><time>2026-04-20T14:31:37Z</time></trkpt><trkpt lat="39.38807169251759" lon="9.195525281363844"><ele>219.0</ele><time>2026-04-20T14:31:39Z</time></trkpt><trkpt lat="39.38817205894691" lon="9.195515228338763"><ele>219.5</ele><time>2026-04-20T14:31:41Z</time></trkpt><trkpt lat="39.3882549141409" lon="9.195513395904976"><ele>220.0</ele><time>2026-04-20T14:31:43Z</time></trkpt><trkpt lat="39.388321846005866" lon="9.195504234926258"><ele>220.5</ele><time>2026-04-20T14:31:45Z</time></trkpt><trkpt lat="39.38840957432111" lon="9.195508481580312"><ele>221.0</ele><time>2026-04-20T14:31:48Z</time></trkpt><trkpt lat="39.38847878626349" lon="9.195483856998733"><ele>221.5</ele><time>2026-04-20T14:31:51Z</time></trkpt><trkpt lat="39.38854800579169" lon="9.195460649098091"><ele>222.0</ele><time>2026-04-20T14:31:54Z</time></trkpt><trkpt lat="39.38863093745065" lon="9.195459983898456"><ele>222.0</ele><time>2026-04-20T14:31:57Z</time></trkpt><trkpt lat="39.38871424086296" lon="9.195411603587866"><ele>222.0</ele><time>2026-04-20T14:31:59Z</time></trkpt><trkpt lat="39.38877952359563" lon="9.19541459887618"><ele>222.0</ele><time>2026-04-20T14:32:01Z</time></trkpt><trkpt lat="39.38887075872037" lon="9.195423496323565"><ele>222.0</ele><time>2026-04-20T14:32:04Z</time></trkpt><trkpt lat="39.38893610452701" lon="9.195416459370975"><ele>222.0</ele><time>2026-04-20T14:32:06Z</time></trkpt><trkpt lat="39.38903285298884" lon="9.195420630044882"><ele>222.0</ele><time>2026-04-20T14:32:09Z</time></trkpt><trkpt lat="39.389101575964844" lon="9.195437968192186"><ele>222.83333333333334</ele><time>2026-04-20T14:32:11Z</time></trkpt><trkpt lat="39.38918191482874" lon="9.195413183147233"><ele>223.66666666666669</ele><time>2026-04-20T14:32:13Z</time></trkpt><trkpt lat="39.38925857100767" lon="9.195379826463608"><ele>224.5</ele><time>2026-04-20T14:32:15Z</time></trkpt><trkpt lat="39.389355210929565" lon="9.195338262817664"><ele>225.33333333333334</ele><time>2026-04-20T14:32:18Z</time></trkpt><trkpt lat="39.38942160547008" lon="9.195303128210586"><ele>226.16666666666669</ele><time>2026-04-20T14:32:20Z</time></trkpt><trkpt lat="39.38951037791456" lon="9.195259916637236"><ele>227.0</ele><time>2026-04-20T14:32:23Z</time></trkpt><trkpt lat="39.38956793240899" lon="9.195212065175289"><ele>227.00000000000003</ele><time>2026-04-20T14:32:25Z</time></trkpt><trkpt lat="39.38962715957162" lon="9.195168572326983"><ele>227.0</ele><time>2026-04-20T14:32:27Z</time></trkpt><trkpt lat="39.38968221272081" lon="9.195124212801579"><ele>227.0</ele><time>2026-04-20T14:32:29Z</time></trkpt><trkpt lat="39.389747816423174" lon="9.195079887377338"><ele>227.0</ele><time>2026-04-20T14:32:31Z</time></trkpt><trkpt lat="39.38980155861124" lon="9.195017565847063"><ele>227.00000000000003</ele><time>2026-04-20T14:32:33Z</time></trkpt><trkpt lat="39.389882663908686" lon="9.19495630136387"><ele>227.0</ele><time>2026-04-20T14:32:36Z</time></trkpt><trkpt lat="39.38997210943105" lon="9.194905467749496"><ele>227.16666666666669</ele><time>2026-04-20T14:32:39Z</time></trkpt><trkpt lat="39.39003569611912" lon="9.194890503460547"><ele>227.33333333333334</ele><time>2026-04-20T14:32:41Z</time></trkpt><trkpt lat="39.39013864917986" lon="9.194875275972015"><ele>227.5</ele><time>2026-04-20T14:32:44Z</time></trkpt><trkpt lat="39.39020676564815" lon="9.19486109826159"><ele>227.66666666666669</ele><time>2026-04-20T14:32:46Z</time></trkpt><trkpt lat="39.39027126502549" lon="9.194845950068983"><ele>227.83333333333334</ele><time>2026-04-20T14:32:48Z</time></trkpt><trkpt lat="39.39036973715751" lon="9.1948245192676"><ele>228.0</ele><time>2026-04-20T14:32:51Z</time></trkpt><trkpt lat="39.39044321221546" lon="9.194813756897515"><ele>228.0</ele><time>2026-04-20T14:32:53Z</time></trkpt><trkpt lat="39.39052219638854" lon="9.194792006314888"><ele>228.0</ele><time>2026-04-20T14:32:55Z</time></trkpt><trkpt lat="39.39077971388318" lon="9.194826086712217"><ele>228.0</ele><time>2026-04-20T14:33:01Z</time></trkpt><trkpt lat="39.39087040622432" lon="9.194858107860215"><ele>228.0</ele><time>2026-04-20T14:33:03Z</time></trkpt><trkpt lat="39.39097138878403" lon="9.19493304601166"><ele>227.5</ele><time>2026-04-20T14:33:05Z</time></trkpt><trkpt lat="39.39107404774222" lon="9.195016778016825"><ele>227.0</ele><time>2026-04-20T14:33:07Z</time></trkpt><trkpt lat="39.39116522281591" lon="9.195112418963399"><ele>226.5</ele><time>2026-04-20T14:33:09Z</time></trkpt><trkpt lat="39.39125778883626" lon="9.195213757603733"><ele>226.0</ele><time>2026-04-20T14:33:11Z</time></trkpt><trkpt lat="39.39136139048289" lon="9.195294920089415"><ele>226.0</ele><time>2026-04-20T14:33:13Z</time></trkpt><trkpt lat="39.391471895620086" lon="9.195348398497014"><ele>226.00000000000003</ele><time>2026-04-20T14:33:15Z</time></trkpt><trkpt lat="39.39157211315064" lon="9.195406286988327"><ele>226.00000000000003</ele><time>2026-04-20T14:33:17Z</time></trkpt><trkpt lat="39.3916657554409" lon="9.195454923964228"><ele>226.0</ele><time>2026-04-20T14:33:19Z</time></trkpt><trkpt lat="39.391754729096746" lon="9.195498852302075"><ele>226.0</ele><time>2026-04-20T14:33:21Z</time></trkpt><trkpt lat="39.391841239912004" lon="9.195555075426974"><ele>225.99999999999997</ele><time>2026-04-20T14:33:23Z</time></trkpt><trkpt lat="39.39192327423274" lon="9.19559327700001"><ele>226.0</ele><time>2026-04-20T14:33:25Z</time></trkpt><trkpt lat="39.391997607412534" lon="9.195646233522927"><ele>226.0</ele><time>2026-04-20T14:33:27Z</time></trkpt><trkpt lat="39.39206472223744" lon="9.195696390828028"><ele>226.0</ele><time>2026-04-20T14:33:29Z</time></trkpt><trkpt lat="39.39212609590243" lon="9.195740705219716"><ele>225.99999999999997</ele><time>2026-04-20T14:33:31Z</time></trkpt><trkpt lat="39.39219873805612" lon="9.195813840743904"><ele>226.0</ele><time>2026-04-20T14:33:34Z</time></trkpt><trkpt lat="39.39226377852475" lon="9.195880670901031"><ele>226.83333333333331</ele><time>2026-04-20T14:33:37Z</time></trkpt><trkpt lat="39.39231967082191" lon="9.19594831744125"><ele>227.66666666666666</ele><time>2026-04-20T14:33:40Z</time></trkpt><trkpt lat="39.39238286862643" lon="9.196012887768985"><ele>228.5</ele><time>2026-04-20T14:33:43Z</time></trkpt><trkpt lat="39.392439947568995" lon="9.196074240809923"><ele>229.33333333333331</ele><time>2026-04-20T14:33:45Z</time></trkpt><trkpt lat="39.39251096439092" lon="9.196151864546648"><ele>230.16666666666666</ele><time>2026-04-20T14:33:48Z</time></trkpt><trkpt lat="39.39257833309293" lon="9.196234506793818"><ele>231.0</ele><time>2026-04-20T14:33:50Z</time></trkpt><trkpt lat="39.39263482449863" lon="9.196279950922769"><ele>231.0</ele><time>2026-04-20T14:33:52Z</time></trkpt><trkpt lat="39.39270670546762" lon="9.19634849770229"><ele>231.0</ele><time>2026-04-20T14:33:54Z</time></trkpt><trkpt lat="39.39278180987244" lon="9.196386981315177"><ele>231.0</ele><time>2026-04-20T14:33:56Z</time></trkpt><trkpt lat="39.3928593487842" lon="9.196459465125521"><ele>231.0</ele><time>2026-04-20T14:33:59Z</time></trkpt><trkpt lat="39.3929458808306" lon="9.196526513255476"><ele>231.0</ele><time>2026-04-20T14:34:02Z</time></trkpt><trkpt lat="39.393011016508815" lon="9.196592341303733"><ele>231.0</ele><time>2026-04-20T14:34:04Z</time></trkpt><trkpt lat="39.3930839590458" lon="9.196662318447354"><ele>231.16666666666666</ele><time>2026-04-20T14:34:07Z</time></trkpt><trkpt lat="39.39315697353019" lon="9.19673280605654"><ele>231.33333333333331</ele><time>2026-04-20T14:34:09Z</time></trkpt><trkpt lat="39.39321899257572" lon="9.196796589948116"><ele>231.5</ele><time>2026-04-20T14:34:12Z</time></trkpt><trkpt lat="39.39327951435259" lon="9.196863605762063"><ele>231.66666666666666</ele><time>2026-04-20T14:34:14Z</time></trkpt><trkpt lat="39.39334174082281" lon="9.196947324796502"><ele>231.83333333333331</ele><time>2026-04-20T14:34:17Z</time></trkpt><trkpt lat="39.39340317401351" lon="9.197024600342013"><ele>232.0</ele><time>2026-04-20T14:34:20Z</time></trkpt><trkpt lat="39.393455637862594" lon="9.197086213106825"><ele>232.00000000000003</ele><time>2026-04-20T14:34:22Z</time></trkpt><trkpt lat="39.3935092894823" lon="9.197144011097263"><ele>232.0</ele><time>2026-04-20T14:34:25Z</time></trkpt><trkpt lat="39.39354567982663" lon="9.197211872678363"><ele>232.00000000000003</ele><time>2026-04-20T14:34:27Z</time></trkpt><trkpt lat="39.39360069236307" lon="9.19725595089989"><ele>232.00000000000003</ele><time>2026-04-20T14:34:29Z</time></trkpt><trkpt lat="39.39366356905067" lon="9.197319891967588"><ele>232.0</ele><time>2026-04-20T14:34:32Z</time></trkpt><trkpt lat="39.39372112391066" lon="9.197380961729289"><ele>232.00000000000003</ele><time>2026-04-20T14:34:35Z</time></trkpt><trkpt lat="39.39377619598319" lon="9.197425256014148"><ele>232.00000000000003</ele><time>2026-04-20T14:34:37Z</time></trkpt><trkpt lat="39.39385086311044" lon="9.197486291835107"><ele>233.16666666666666</ele><time>2026-04-20T14:34:40Z</time></trkpt><trkpt lat="39.39392010903081" lon="9.197530806414258"><ele>234.33333333333331</ele><time>2026-04-20T14:34:42Z</time></trkpt><trkpt lat="39.393988560956956" lon="9.19758889168851"><ele>235.5</ele><time>2026-04-20T14:34:45Z</time></trkpt><trkpt lat="39.394045571780765" lon="9.197650413997831"><ele>236.66666666666669</ele><time>2026-04-20T14:34:48Z</time></trkpt><trkpt lat="39.39409537782215" lon="9.197710422827766"><ele>237.83333333333334</ele><time>2026-04-20T14:34:51Z</time></trkpt><trkpt lat="39.394146821420144" lon="9.197779964501121"><ele>239.0</ele><time>2026-04-20T14:34:54Z</time></trkpt><trkpt lat="39.39421111203262" lon="9.19785195977712"><ele>239.0</ele><time>2026-04-20T14:34:57Z</time></trkpt><trkpt lat="39.39427411665422" lon="9.197953953367678"><ele>238.99999999999997</ele><time>2026-04-20T14:35:00Z</time></trkpt><trkpt lat="39.39431718488004" lon="9.198030671684261"><ele>238.99999999999997</ele><time>2026-04-20T14:35:03Z</time></trkpt><trkpt lat="39.394375107256245" lon="9.198113776532354"><ele>239.0</ele><time>2026-04-20T14:35:05Z</time></trkpt><trkpt lat="39.39445063322438" lon="9.19820610573111"><ele>239.0</ele><time>2026-04-20T14:35:07Z</time></trkpt><trkpt lat="39.394530585604386" lon="9.198254826850274"><ele>239.0</ele><time>2026-04-20T14:35:09Z</time></trkpt><trkpt lat="39.39458685282006" lon="9.198292163747652"><ele>238.99999999999997</ele><time>2026-04-20T14:35:10Z</time></trkpt><trkpt lat="39.39468292837301" lon="9.198344034945203"><ele>238.99999999999997</ele><time>2026-04-20T14:35:12Z</time></trkpt><trkpt lat="39.39478202936276" lon="9.198374104440997"><ele>239.0</ele><time>2026-04-20T14:35:14Z</time></trkpt><trkpt lat="39.39488534685655" lon="9.198367630537911"><ele>239.0</ele><time>2026-04-20T14:35:16Z</time></trkpt><trkpt lat="39.394986491059754" lon="9.19836264899823"><ele>239.0</ele><time>2026-04-20T14:35:18Z</time></trkpt><trkpt lat="39.39509352899977" lon="9.198350982201523"><ele>238.99999999999997</ele><time>2026-04-20T14:35:20Z</time></trkpt><trkpt lat="39.39519580632098" lon="9.198340250418383"><ele>238.99999999999997</ele><time>2026-04-20T14:35:22Z</time></trkpt><trkpt lat="39.395298698214084" lon="9.198320609563849"><ele>239.0</ele><time>2026-04-20T14:35:24Z</time></trkpt><trkpt lat="39.395409854444054" lon="9.19830073065912"><ele>239.0</ele><time>2026-04-20T14:35:26Z</time></trkpt><trkpt lat="39.39551711463191" lon="9.198288011525202"><ele>238.16666666666669</ele><time>2026-04-20T14:35:28Z</time></trkpt><trkpt lat="39.39562696902481" lon="9.198295029480905"><ele>237.33333333333334</ele><time>2026-04-20T14:35:30Z</time></trkpt><trkpt lat="39.39569197685639" lon="9.198305688476115"><ele>236.5</ele><time>2026-04-20T14:35:31Z</time></trkpt><trkpt lat="39.39576008144203" lon="9.198316871367702"><ele>235.66666666666669</ele><time>2026-04-20T14:35:32Z</time></trkpt><trkpt lat="39.39582566978329" lon="9.198301480399067"><ele>234.83333333333334</ele><time>2026-04-20T14:35:33Z</time></trkpt><trkpt lat="39.39589166285873" lon="9.198291172979806"><ele>234.0</ele><time>2026-04-20T14:35:34Z</time></trkpt><trkpt lat="39.39596433759832" lon="9.198286175494655"><ele>234.0</ele><time>2026-04-20T14:35:35Z</time></trkpt><trkpt lat="39.396035519935786" lon="9.19825566378128"><ele>234.0</ele><time>2026-04-20T14:35:36Z</time></trkpt><trkpt lat="39.3961691520429" lon="9.198258995838556"><ele>234.0</ele><time>2026-04-20T14:35:38Z</time></trkpt><trkpt lat="39.39624426576971" lon="9.198255642154873"><ele>234.0</ele><time>2026-04-20T14:35:39Z</time></trkpt><trkpt lat="39.39631809304282" lon="9.198267357423138"><ele>234.0</ele><time>2026-04-20T14:35:40Z</time></trkpt><trkpt lat="39.39638334960661" lon="9.198307989526755"><ele>234.0</ele><time>2026-04-20T14:35:41Z</time></trkpt><trkpt lat="39.3964483758887" lon="9.198330352079006"><ele>233.33333333333334</ele><time>2026-04-20T14:35:42Z</time></trkpt><trkpt lat="39.39651348131924" lon="9.198356488315545"><ele>232.66666666666669</ele><time>2026-04-20T14:35:43Z</time></trkpt><trkpt lat="39.39657368100483" lon="9.198386197360628"><ele>232.0</ele><time>2026-04-20T14:35:44Z</time></trkpt><trkpt lat="39.39662970655086" lon="9.198429245545901"><ele>231.33333333333334</ele><time>2026-04-20T14:35:45Z</time></trkpt><trkpt lat="39.39673562836013" lon="9.198514685933333"><ele>230.66666666666669</ele><time>2026-04-20T14:35:47Z</time></trkpt><trkpt lat="39.39681911540879" lon="9.19860773002034"><ele>230.0</ele><time>2026-04-20T14:35:49Z</time></trkpt><trkpt lat="39.39690978780349" lon="9.198688454258868"><ele>230.00000000000003</ele><time>2026-04-20T14:35:51Z</time></trkpt><trkpt lat="39.39699322998949" lon="9.198739727477692"><ele>230.0</ele><time>2026-04-20T14:35:53Z</time></trkpt><trkpt lat="39.3970731249187" lon="9.198787934343565"><ele>230.0</ele><time>2026-04-20T14:35:55Z</time></trkpt><trkpt lat="39.39715660370058" lon="9.19881750499907"><ele>230.0</ele><time>2026-04-20T14:35:57Z</time></trkpt><trkpt lat="39.39724197299444" lon="9.198848632566753"><ele>230.00000000000003</ele><time>2026-04-20T14:35:59Z</time></trkpt><trkpt lat="39.39731987673729" lon="9.198893846057565"><ele>230.0</ele><time>2026-04-20T14:36:01Z</time></trkpt><trkpt lat="39.39740820845031" lon="9.198929081106137"><ele>230.33333333333334</ele><time>2026-04-20T14:36:03Z</time></trkpt><trkpt lat="39.39749011205415" lon="9.198953416378554"><ele>230.66666666666669</ele><time>2026-04-20T14:36:05Z</time></trkpt><trkpt lat="39.39756351218705" lon="9.198976882813508"><ele>231.0</ele><time>2026-04-20T14:36:07Z</time></trkpt><trkpt lat="39.39765090968813" lon="9.19900278463758"><ele>231.33333333333331</ele><time>2026-04-20T14:36:09Z</time></trkpt><trkpt lat="39.39773411614946" lon="9.19903243726242"><ele>231.66666666666666</ele><time>2026-04-20T14:36:11Z</time></trkpt><trkpt lat="39.39781639345137" lon="9.19905166576703"><ele>232.0</ele><time>2026-04-20T14:36:13Z</time></trkpt><trkpt lat="39.39790386113957" lon="9.199071800582509"><ele>231.99999999999997</ele><time>2026-04-20T14:36:15Z</time></trkpt><trkpt lat="39.39798258015142" lon="9.199091606010965"><ele>232.0</ele><time>2026-04-20T14:36:17Z</time></trkpt><trkpt lat="39.39806026467069" lon="9.199119339225616"><ele>232.0</ele><time>2026-04-20T14:36:19Z</time></trkpt><trkpt lat="39.39813514356096" lon="9.199134735891043"><ele>232.0</ele><time>2026-04-20T14:36:21Z</time></trkpt><trkpt lat="39.39820356483278" lon="9.199155086352041"><ele>231.99999999999997</ele><time>2026-04-20T14:36:23Z</time></trkpt><trkpt lat="39.39826652414439" lon="9.199176470260237"><ele>232.0</ele><time>2026-04-20T14:36:26Z</time></trkpt><trkpt lat="39.39834946717229" lon="9.19920178905202"><ele>232.66666666666666</ele><time>2026-04-20T14:36:29Z</time></trkpt><trkpt lat="39.398451192533315" lon="9.199218538290333"><ele>233.33333333333331</ele><time>2026-04-20T14:36:32Z</time></trkpt><trkpt lat="39.39851953849246" lon="9.199233829489465"><ele>234.0</ele><time>2026-04-20T14:36:35Z</time></trkpt><trkpt lat="39.398583304400674" lon="9.199243326007414"><ele>234.66666666666669</ele><time>2026-04-20T14:36:37Z</time></trkpt><trkpt lat="39.39866347820918" lon="9.199244665622368"><ele>235.33333333333334</ele><time>2026-04-20T14:36:40Z</time></trkpt><trkpt lat="39.39874091875775" lon="9.199244195821265"><ele>236.0</ele><time>2026-04-20T14:36:43Z</time></trkpt><trkpt lat="39.39880730847073" lon="9.199238437107011"><ele>236.00000000000003</ele><time>2026-04-20T14:36:45Z</time></trkpt><trkpt lat="39.39888706789105" lon="9.19921644608041"><ele>236.0</ele><time>2026-04-20T14:36:48Z</time></trkpt><trkpt lat="39.398957683748336" lon="9.199201127252111"><ele>236.0</ele><time>2026-04-20T14:36:50Z</time></trkpt><trkpt lat="39.39904579481548" lon="9.199196758090872"><ele>236.0</ele><time>2026-04-20T14:36:53Z</time></trkpt><trkpt lat="39.39913368760261" lon="9.199191950816799"><ele>236.00000000000003</ele><time>2026-04-20T14:36:55Z</time></trkpt><trkpt lat="39.3992221150405" lon="9.199165605595367"><ele>236.0</ele><time>2026-04-20T14:36:57Z</time></trkpt><trkpt lat="39.399292604363104" lon="9.199146901670607"><ele>236.0</ele><time>2026-04-20T14:36:59Z</time></trkpt><trkpt lat="39.39939703114626" lon="9.199126395656593"><ele>236.00000000000003</ele><time>2026-04-20T14:37:01Z</time></trkpt><trkpt lat="39.39950028088272" lon="9.19908009116512"><ele>236.00000000000003</ele><time>2026-04-20T14:37:03Z</time></trkpt><trkpt lat="39.399574108311896" lon="9.19902727196192"><ele>236.0</ele><time>2026-04-20T14:37:04Z</time></trkpt><trkpt lat="39.39963854125136" lon="9.198999872983995"><ele>236.0</ele><time>2026-04-20T14:37:05Z</time></trkpt><trkpt lat="39.399748944755764" lon="9.198966507198305"><ele>235.60000000000002</ele><time>2026-04-20T14:37:07Z</time></trkpt><trkpt lat="39.39985452927354" lon="9.19895161216434"><ele>235.20000000000002</ele><time>2026-04-20T14:37:09Z</time></trkpt><trkpt lat="39.39995364768753" lon="9.198947039911113"><ele>234.79999999999998</ele><time>2026-04-20T14:37:11Z</time></trkpt><trkpt lat="39.4000471979633" lon="9.19890279734408"><ele>234.39999999999998</ele><time>2026-04-20T14:37:13Z</time></trkpt><trkpt lat="39.40013081663308" lon="9.19886821380285"><ele>234.0</ele><time>2026-04-20T14:37:15Z</time></trkpt><trkpt lat="39.40021213568408" lon="9.198843628967339"><ele>234.0</ele><time>2026-04-20T14:37:17Z</time></trkpt><trkpt lat="39.40028827538844" lon="9.198809136573574"><ele>234.0</ele><time>2026-04-20T14:37:19Z</time></trkpt><trkpt lat="39.40036187176664" lon="9.198789575484017"><ele>234.0</ele><time>2026-04-20T14:37:21Z</time></trkpt><trkpt lat="39.4004380558489" lon="9.19875793824674"><ele>234.0</ele><time>2026-04-20T14:37:23Z</time></trkpt><trkpt lat="39.4005096926926" lon="9.198733316517087"><ele>234.0</ele><time>2026-04-20T14:37:25Z</time></trkpt><trkpt lat="39.400580399918624" lon="9.198720876369398"><ele>234.0</ele><time>2026-04-20T14:37:27Z</time></trkpt><trkpt lat="39.40065512484183" lon="9.198695465870625"><ele>234.2857142857143</ele><time>2026-04-20T14:37:29Z</time></trkpt><trkpt lat="39.40072979204141" lon="9.198676073544096"><ele>234.5714285714286</ele><time>2026-04-20T14:37:31Z</time></trkpt><trkpt lat="39.40079864373378" lon="9.198657117533658"><ele>234.85714285714286</ele><time>2026-04-20T14:37:33Z</time></trkpt><trkpt lat="39.40086553472866" lon="9.198645480116543"><ele>235.14285714285717</ele><time>2026-04-20T14:37:35Z</time></trkpt><trkpt lat="39.400935678412225" lon="9.19862307845743"><ele>235.42857142857144</ele><time>2026-04-20T14:37:37Z</time></trkpt><trkpt lat="39.40100257648875" lon="9.198610162135731"><ele>235.71428571428572</ele><time>2026-04-20T14:37:39Z</time></trkpt><trkpt lat="39.40106646802976" lon="9.198597227918658"><ele>236.0</ele><time>2026-04-20T14:37:41Z</time></trkpt><trkpt lat="39.40116076767703" lon="9.198580341777602"><ele>236.0</ele><time>2026-04-20T14:37:44Z</time></trkpt><trkpt lat="39.401225124868304" lon="9.198582575435013"><ele>236.0</ele><time>2026-04-20T14:37:46Z</time></trkpt><trkpt lat="39.401288642232146" lon="9.198581674003673"><ele>236.0</ele><time>2026-04-20T14:37:48Z</time></trkpt><trkpt lat="39.401359072485874" lon="9.198595098053513"><ele>236.0</ele><time>2026-04-20T14:37:50Z</time></trkpt><trkpt lat="39.40142179091882" lon="9.19862798837164"><ele>236.0</ele><time>2026-04-20T14:37:52Z</time></trkpt><trkpt lat="39.40148634336892" lon="9.198655434998935"><ele>236.0</ele><time>2026-04-20T14:37:54Z</time></trkpt><trkpt lat="39.40155200894384" lon="9.19867354988322"><ele>236.0</ele><time>2026-04-20T14:37:56Z</time></trkpt><trkpt lat="39.40163785441195" lon="9.198721321040244"><ele>236.8</ele><time>2026-04-20T14:37:59Z</time></trkpt><trkpt lat="39.40171782534143" lon="9.198771315449887"><ele>237.60000000000002</ele><time>2026-04-20T14:38:02Z</time></trkpt><trkpt lat="39.40180476845976" lon="9.198811109074313"><ele>238.4</ele><time>2026-04-20T14:38:05Z</time></trkpt><trkpt lat="39.401894250700195" lon="9.198836679912354"><ele>239.2</ele><time>2026-04-20T14:38:08Z</time></trkpt><trkpt lat="39.401974875452986" lon="9.198864959074553"><ele>240.0</ele><time>2026-04-20T14:38:12Z</time></trkpt><trkpt lat="39.402069539833434" lon="9.198890718497186"><ele>240.0</ele><time>2026-04-20T14:38:15Z</time></trkpt><trkpt lat="39.40214471933597" lon="9.19890469055047"><ele>240.0</ele><time>2026-04-20T14:38:18Z</time></trkpt><trkpt lat="39.40222380010994" lon="9.19893481155966"><ele>240.0</ele><time>2026-04-20T14:38:21Z</time></trkpt><trkpt lat="39.40230771592162" lon="9.198942506653973"><ele>240.0</ele><time>2026-04-20T14:38:24Z</time></trkpt><trkpt lat="39.402390577479984" lon="9.198956382360864"><ele>240.0</ele><time>2026-04-20T14:38:27Z</time></trkpt><trkpt lat="39.40246290055639" lon="9.198964078696305"><ele>240.0</ele><time>2026-04-20T14:38:30Z</time></trkpt><trkpt lat="39.40252685013607" lon="9.198936784733828"><ele>240.71428571428572</ele><time>2026-04-20T14:38:33Z</time></trkpt><trkpt lat="39.40258741932677" lon="9.198910563902244"><ele>241.42857142857142</ele><time>2026-04-20T14:38:36Z</time></trkpt><trkpt lat="39.40266103492736" lon="9.198881887997526"><ele>242.14285714285714</ele><time>2026-04-20T14:38:40Z</time></trkpt><trkpt lat="39.40273008698148" lon="9.198820525525921"><ele>242.85714285714286</ele><time>2026-04-20T14:38:44Z</time></trkpt><trkpt lat="39.40279728286834" lon="9.198762122605782"><ele>243.57142857142856</ele><time>2026-04-20T14:38:48Z</time></trkpt><trkpt lat="39.40284767850521" lon="9.198711166340134"><ele>244.28571428571428</ele><time>2026-04-20T14:38:51Z</time></trkpt><trkpt lat="39.402900039490014" lon="9.198647884163938"><ele>245.0</ele><time>2026-04-20T14:38:55Z</time></trkpt><trkpt lat="39.402971368198706" lon="9.198624009359031"><ele>244.66666666666669</ele><time>2026-04-20T14:39:00Z</time></trkpt><trkpt lat="39.403044566545056" lon="9.19865878477932"><ele>244.33333333333334</ele><time>2026-04-20T14:39:04Z</time></trkpt><trkpt lat="39.40310703594742" lon="9.198701119477173"><ele>244.0</ele><time>2026-04-20T14:39:07Z</time></trkpt><trkpt lat="39.403177457441835" lon="9.198746531700074"><ele>243.66666666666669</ele><time>2026-04-20T14:39:11Z</time></trkpt><trkpt lat="39.40323770290092" lon="9.198787402770051"><ele>243.33333333333334</ele><time>2026-04-20T14:39:14Z</time></trkpt><trkpt lat="39.40330751472131" lon="9.198823521656644"><ele>243.0</ele><time>2026-04-20T14:39:17Z</time></trkpt><trkpt lat="39.403374920455086" lon="9.19887751232924"><ele>243.0</ele><time>2026-04-20T14:39:20Z</time></trkpt><trkpt lat="39.403452307894" lon="9.198928221680768"><ele>243.0</ele><time>2026-04-20T14:39:23Z</time></trkpt><trkpt lat="39.4035264959581" lon="9.198993092380624"><ele>243.0</ele><time>2026-04-20T14:39:26Z</time></trkpt><trkpt lat="39.40360184455948" lon="9.199050321118408"><ele>243.0</ele><time>2026-04-20T14:39:29Z</time></trkpt><trkpt lat="39.40366181527533" lon="9.199081112029917"><ele>243.0</ele><time>2026-04-20T14:39:31Z</time></trkpt><trkpt lat="39.403743980662746" lon="9.19914174788659"><ele>243.0</ele><time>2026-04-20T14:39:34Z</time></trkpt><trkpt lat="39.40380538414266" lon="9.199176351521768"><ele>244.16666666666666</ele><time>2026-04-20T14:39:36Z</time></trkpt><trkpt lat="39.40388241016854" lon="9.199233724632515"><ele>245.33333333333331</ele><time>2026-04-20T14:39:39Z</time></trkpt><trkpt lat="39.403959277990246" lon="9.199281808238144"><ele>246.5</ele><time>2026-04-20T14:39:42Z</time></trkpt><trkpt lat="39.40402636503468" lon="9.199323366245434"><ele>247.66666666666666</ele><time>2026-04-20T14:39:45Z</time></trkpt><trkpt lat="39.40410645690608" lon="9.199360337984459"><ele>248.83333333333331</ele><time>2026-04-20T14:39:48Z</time></trkpt><trkpt lat="39.404178161060464" lon="9.199405213736664"><ele>250.0</ele><time>2026-04-20T14:39:51Z</time></trkpt><trkpt lat="39.40425223267424" lon="9.199455075089022"><ele>249.99999999999997</ele><time>2026-04-20T14:39:54Z</time></trkpt><trkpt lat="39.40432781559935" lon="9.199510005736942"><ele>250.0</ele><time>2026-04-20T14:39:57Z</time></trkpt><trkpt lat="39.40440510704058" lon="9.199558896677434"><ele>250.0</ele><time>2026-04-20T14:40:01Z</time></trkpt><trkpt lat="39.40448049810617" lon="9.199617563262983"><ele>250.0</ele><time>2026-04-20T14:40:04Z</time></trkpt><trkpt lat="39.40453654818668" lon="9.199662147373035"><ele>249.99999999999997</ele><time>2026-04-20T14:40:06Z</time></trkpt><trkpt lat="39.404618879724254" lon="9.199713845208358"><ele>250.0</ele><time>2026-04-20T14:40:09Z</time></trkpt><trkpt lat="39.40467565722042" lon="9.199754254706384"><ele>250.14285714285714</ele><time>2026-04-20T14:40:11Z</time></trkpt><trkpt lat="39.40473363396209" lon="9.199797091926062"><ele>250.28571428571428</ele><time>2026-04-20T14:40:13Z</time></trkpt><trkpt lat="39.404794488222066" lon="9.199841918459155"><ele>250.42857142857142</ele><time>2026-04-20T14:40:15Z</time></trkpt><trkpt lat="39.40485584219646" lon="9.199888353061814"><ele>250.57142857142856</ele><time>2026-04-20T14:40:17Z</time></trkpt><trkpt lat="39.404912702128" lon="9.199936118694199"><ele>250.71428571428572</ele><time>2026-04-20T14:40:19Z</time></trkpt><trkpt lat="39.404983504829254" lon="9.19997863459401"><ele>250.85714285714283</ele><time>2026-04-20T14:40:21Z</time></trkpt><trkpt lat="39.40503758039323" lon="9.200048490064464"><ele>250.99999999999997</ele><time>2026-04-20T14:40:23Z</time></trkpt><trkpt lat="39.40509614225462" lon="9.200109391579419"><ele>252.33333333333334</ele><time>2026-04-20T14:40:25Z</time></trkpt><trkpt lat="39.40515897319764" lon="9.200167143205706"><ele>253.66666666666669</ele><time>2026-04-20T14:40:27Z</time></trkpt><trkpt lat="39.40522827963941" lon="9.20021962350744"><ele>255.0</ele><time>2026-04-20T14:40:29Z</time></trkpt><trkpt lat="39.405295114339424" lon="9.200274153692279"><ele>256.3333333333333</ele><time>2026-04-20T14:40:31Z</time></trkpt><trkpt lat="39.40536176540265" lon="9.200330885818607"><ele>257.66666666666663</ele><time>2026-04-20T14:40:33Z</time></trkpt><trkpt lat="39.40543315769707" lon="9.200379195356314"><ele>259.0</ele><time>2026-04-20T14:40:35Z</time></trkpt><trkpt lat="39.40551122458336" lon="9.200425086290135"><ele>259.2</ele><time>2026-04-20T14:40:37Z</time></trkpt><trkpt lat="39.40560105751227" lon="9.200446452425846"><ele>259.4</ele><time>2026-04-20T14:40:39Z</time></trkpt><trkpt lat="39.40569545065512" lon="9.200449500835102"><ele>259.6</ele><time>2026-04-20T14:40:41Z</time></trkpt><trkpt lat="39.40577339593025" lon="9.200471484921522"><ele>259.8</ele><time>2026-04-20T14:40:43Z</time></trkpt><trkpt lat="39.405875953247886" lon="9.200472681943667"><ele>260.0</ele><time>2026-04-20T14:40:45Z</time></trkpt><trkpt lat="39.40596830131868" lon="9.200479875286995"><ele>260.0</ele><time>2026-04-20T14:40:47Z</time></trkpt><trkpt lat="39.4060493167082" lon="9.200492501570109"><ele>260.0</ele><time>2026-04-20T14:40:49Z</time></trkpt><trkpt lat="39.40615347879279" lon="9.200496375363395"><ele>260.0</ele><time>2026-04-20T14:40:51Z</time></trkpt><trkpt lat="39.406248097332046" lon="9.200500437164003"><ele>260.0</ele><time>2026-04-20T14:40:53Z</time></trkpt><trkpt lat="39.40635295270603" lon="9.200517520035419"><ele>260.0</ele><time>2026-04-20T14:40:55Z</time></trkpt><trkpt lat="39.406454428679744" lon="9.200535518082221"><ele>259.8</ele><time>2026-04-20T14:40:57Z</time></trkpt><trkpt lat="39.40656306820168" lon="9.200530991576164"><ele>259.6</ele><time>2026-04-20T14:40:59Z</time></trkpt><trkpt lat="39.406677338545585" lon="9.200584437530342"><ele>259.4</ele><time>2026-04-20T14:41:01Z</time></trkpt><trkpt lat="39.40678974673769" lon="9.200651835179343"><ele>259.2</ele><time>2026-04-20T14:41:03Z</time></trkpt><trkpt lat="39.40684650896671" lon="9.200694086119071"><ele>259.0</ele><time>2026-04-20T14:41:04Z</time></trkpt><trkpt lat="39.4069007240365" lon="9.200738938798247"><ele>259.0</ele><time>2026-04-20T14:41:05Z</time></trkpt><trkpt lat="39.40700173547169" lon="9.20082683560168"><ele>259.0</ele><time>2026-04-20T14:41:07Z</time></trkpt><trkpt lat="39.407107421686035" lon="9.200913544184333"><ele>259.0</ele><time>2026-04-20T14:41:09Z</time></trkpt><trkpt lat="39.407163220655804" lon="9.200959722714027"><ele>259.0</ele><time>2026-04-20T14:41:10Z</time></trkpt><trkpt lat="39.40726960028411" lon="9.201047761088917"><ele>259.0</ele><time>2026-04-20T14:41:12Z</time></trkpt><trkpt lat="39.40732269693091" lon="9.201091730456794"><ele>257.0</ele><time>2026-04-20T14:41:13Z</time></trkpt><trkpt lat="39.407425865230046" lon="9.20117747121907"><ele>255.0</ele><time>2026-04-20T14:41:15Z</time></trkpt><trkpt lat="39.40752575024497" lon="9.20126048322578"><ele>253.0</ele><time>2026-04-20T14:41:17Z</time></trkpt><trkpt lat="39.40762296203256" lon="9.2013414924284"><ele>251.0</ele><time>2026-04-20T14:41:19Z</time></trkpt><trkpt lat="39.40771671982926" lon="9.201426483753066"><ele>251.8</ele><time>2026-04-20T14:41:21Z</time></trkpt><trkpt lat="39.40779278302307" lon="9.20152062838356"><ele>252.60000000000002</ele><time>2026-04-20T14:41:23Z</time></trkpt><trkpt lat="39.40784683759751" lon="9.201630926698984"><ele>253.4</ele><time>2026-04-20T14:41:25Z</time></trkpt><trkpt lat="39.407825347951416" lon="9.201710843680544"><ele>254.2</ele><time>2026-04-20T14:41:26Z</time></trkpt><trkpt lat="39.407846621345136" lon="9.20182620909397"><ele>255.0</ele><time>2026-04-20T14:41:28Z</time></trkpt><trkpt lat="39.407852898457286" lon="9.201944796379358"><ele>255.0</ele><time>2026-04-20T14:41:30Z</time></trkpt><trkpt lat="39.40784910294857" lon="9.202070017855274"><ele>255.0</ele><time>2026-04-20T14:41:32Z</time></trkpt><trkpt lat="39.40783000743576" lon="9.202178282680087"><ele>255.0</ele><time>2026-04-20T14:41:34Z</time></trkpt><trkpt lat="39.40780437994416" lon="9.20228951790619"><ele>255.0</ele><time>2026-04-20T14:41:36Z</time></trkpt><trkpt lat="39.40776676007157" lon="9.202396252007613"><ele>255.0</ele><time>2026-04-20T14:41:38Z</time></trkpt><trkpt lat="39.407722952639695" lon="9.202495358075522"><ele>255.16666666666666</ele><time>2026-04-20T14:41:40Z</time></trkpt><trkpt lat="39.407678673280515" lon="9.202585879650067"><ele>255.33333333333331</ele><time>2026-04-20T14:41:42Z</time></trkpt><trkpt lat="39.407644055973556" lon="9.20268130631991"><ele>255.5</ele><time>2026-04-20T14:41:44Z</time></trkpt><trkpt lat="39.40761289254828" lon="9.202779961130021"><ele>255.66666666666666</ele><time>2026-04-20T14:41:46Z</time></trkpt><trkpt lat="39.4075801928201" lon="9.202875238991309"><ele>255.83333333333331</ele><time>2026-04-20T14:41:48Z</time></trkpt><trkpt lat="39.40754352002218" lon="9.202962878241017"><ele>256.0</ele><time>2026-04-20T14:41:50Z</time></trkpt><trkpt lat="39.40750557036659" lon="9.203043086232555"><ele>256.0</ele><time>2026-04-20T14:41:52Z</time></trkpt><trkpt lat="39.40747011897692" lon="9.203129840086662"><ele>255.99999999999997</ele><time>2026-04-20T14:41:54Z</time></trkpt><trkpt lat="39.407432382977056" lon="9.20321457584774"><ele>256.0</ele><time>2026-04-20T14:41:56Z</time></trkpt><trkpt lat="39.40737730772481" lon="9.203292038487993"><ele>256.0</ele><time>2026-04-20T14:41:59Z</time></trkpt><trkpt lat="39.40735866029796" lon="9.203384687258051"><ele>255.99999999999997</ele><time>2026-04-20T14:42:01Z</time></trkpt><trkpt lat="39.407352116240396" lon="9.203479137636167"><ele>256.0</ele><time>2026-04-20T14:42:03Z</time></trkpt><trkpt lat="39.40734738704883" lon="9.203568710875416"><ele>256.0</ele><time>2026-04-20T14:42:05Z</time></trkpt><trkpt lat="39.407361160620326" lon="9.203661463129245"><ele>255.57142857142856</ele><time>2026-04-20T14:42:07Z</time></trkpt><trkpt lat="39.40737250145932" lon="9.203750348533365"><ele>255.1428571428571</ele><time>2026-04-20T14:42:09Z</time></trkpt><trkpt lat="39.40738821710404" lon="9.20384359664134"><ele>254.71428571428572</ele><time>2026-04-20T14:42:11Z</time></trkpt><trkpt lat="39.407411128078856" lon="9.203924593383574"><ele>254.28571428571428</ele><time>2026-04-20T14:42:13Z</time></trkpt><trkpt lat="39.40742249271185" lon="9.20401360051688"><ele>253.85714285714286</ele><time>2026-04-20T14:42:15Z</time></trkpt><trkpt lat="39.40743509029028" lon="9.204104908993811"><ele>253.42857142857144</ele><time>2026-04-20T14:42:17Z</time></trkpt><trkpt lat="39.40743690915745" lon="9.204194867598698"><ele>253.00000000000003</ele><time>2026-04-20T14:42:19Z</time></trkpt><trkpt lat="39.40743675300639" lon="9.204280155367755"><ele>252.99999999999997</ele><time>2026-04-20T14:42:21Z</time></trkpt><trkpt lat="39.40742455343969" lon="9.204373396291626"><ele>253.0</ele><time>2026-04-20T14:42:23Z</time></trkpt><trkpt lat="39.40741291564012" lon="9.204470313906327"><ele>253.0</ele><time>2026-04-20T14:42:25Z</time></trkpt><trkpt lat="39.407392757310426" lon="9.204563817726083"><ele>253.0</ele><time>2026-04-20T14:42:27Z</time></trkpt><trkpt lat="39.407377919920904" lon="9.20466145031455"><ele>252.99999999999997</ele><time>2026-04-20T14:42:29Z</time></trkpt><trkpt lat="39.4073650280005" lon="9.204764557374972"><ele>253.0</ele><time>2026-04-20T14:42:31Z</time></trkpt><trkpt lat="39.40734477541255" lon="9.204873955116962"><ele>252.99999999999997</ele><time>2026-04-20T14:42:33Z</time></trkpt><trkpt lat="39.40733241966116" lon="9.20497870584566"><ele>253.0</ele><time>2026-04-20T14:42:35Z</time></trkpt><trkpt lat="39.4073175125529" lon="9.205087789837423"><ele>253.0</ele><time>2026-04-20T14:42:37Z</time></trkpt><trkpt lat="39.40729878594934" lon="9.205202827234212"><ele>253.0</ele><time>2026-04-20T14:42:39Z</time></trkpt><trkpt lat="39.40728961631373" lon="9.205313243193396"><ele>252.99999999999997</ele><time>2026-04-20T14:42:41Z</time></trkpt><trkpt lat="39.40726712282438" lon="9.20541503589299"><ele>253.0</ele><time>2026-04-20T14:42:43Z</time></trkpt><trkpt lat="39.40725570164583" lon="9.205513911160438"><ele>252.99999999999997</ele><time>2026-04-20T14:42:45Z</time></trkpt><trkpt lat="39.4072510822364" lon="9.205611006518259"><ele>253.0</ele><time>2026-04-20T14:42:47Z</time></trkpt><trkpt lat="39.40725295058809" lon="9.205713679258936"><ele>253.0</ele><time>2026-04-20T14:42:49Z</time></trkpt><trkpt lat="39.40725815626832" lon="9.2058289149004"><ele>253.0</ele><time>2026-04-20T14:42:51Z</time></trkpt><trkpt lat="39.4072629459711" lon="9.205936938682209"><ele>252.99999999999997</ele><time>2026-04-20T14:42:53Z</time></trkpt><trkpt lat="39.40726360569688" lon="9.206043309930614"><ele>253.0</ele><time>2026-04-20T14:42:55Z</time></trkpt><trkpt lat="39.40727453365349" lon="9.206138839303096"><ele>253.49999999999997</ele><time>2026-04-20T14:42:57Z</time></trkpt><trkpt lat="39.40727780722305" lon="9.20624415648643"><ele>254.0</ele><time>2026-04-20T14:42:59Z</time></trkpt><trkpt lat="39.407277484635074" lon="9.206370663414836"><ele>254.5</ele><time>2026-04-20T14:43:02Z</time></trkpt><trkpt lat="39.40726691547411" lon="9.206484860199655"><ele>255.0</ele><time>2026-04-20T14:43:04Z</time></trkpt><trkpt lat="39.407246807596756" lon="9.206601153558669"><ele>255.49999999999997</ele><time>2026-04-20T14:43:06Z</time></trkpt><trkpt lat="39.407226671271275" lon="9.2066922029121"><ele>256.0</ele><time>2026-04-20T14:43:08Z</time></trkpt><trkpt lat="39.40721259036039" lon="9.206820911364451"><ele>256.2</ele><time>2026-04-20T14:43:10Z</time></trkpt><trkpt lat="39.40720858886875" lon="9.206916653164342"><ele>256.40000000000003</ele><time>2026-04-20T14:43:12Z</time></trkpt><trkpt lat="39.40718919362707" lon="9.207040971342257"><ele>256.6</ele><time>2026-04-20T14:43:14Z</time></trkpt><trkpt lat="39.40717774225505" lon="9.207174750998577"><ele>256.8</ele><time>2026-04-20T14:43:16Z</time></trkpt><trkpt lat="39.40716513589053" lon="9.207295576692092"><ele>257.0</ele><time>2026-04-20T14:43:18Z</time></trkpt><trkpt lat="39.40717733447501" lon="9.20741061826648"><ele>257.0</ele><time>2026-04-20T14:43:20Z</time></trkpt><trkpt lat="39.40719107164899" lon="9.207494142905645"><ele>257.0</ele><time>2026-04-20T14:43:23Z</time></trkpt><trkpt lat="39.40710584093723" lon="9.20753124237679"><ele>257.0</ele><time>2026-04-20T14:43:27Z</time></trkpt><trkpt lat="39.40705680693582" lon="9.207597515743336"><ele>257.0</ele><time>2026-04-20T14:43:29Z</time></trkpt><trkpt lat="39.40700874331131" lon="9.207660314766633"><ele>257.0</ele><time>2026-04-20T14:43:31Z</time></trkpt><trkpt lat="39.406958780647365" lon="9.207742983314555"><ele>257.0</ele><time>2026-04-20T14:43:33Z</time></trkpt><trkpt lat="39.406903957603376" lon="9.207815066741775"><ele>257.33333333333337</ele><time>2026-04-20T14:43:35Z</time></trkpt><trkpt lat="39.40685091530239" lon="9.20788650348299"><ele>257.6666666666667</ele><time>2026-04-20T14:43:37Z</time></trkpt><trkpt lat="39.406794199887464" lon="9.207950862736704"><ele>258.0</ele><time>2026-04-20T14:43:39Z</time></trkpt><trkpt lat="39.40673893495526" lon="9.208011599692"><ele>258.3333333333333</ele><time>2026-04-20T14:43:41Z</time></trkpt><trkpt lat="39.4066686416322" lon="9.208087795492412"><ele>258.66666666666663</ele><time>2026-04-20T14:43:44Z</time></trkpt><trkpt lat="39.40659927970642" lon="9.208152475890941"><ele>259.0</ele><time>2026-04-20T14:43:47Z</time></trkpt><trkpt lat="39.40653953492103" lon="9.208200121054348"><ele>259.0</ele><time>2026-04-20T14:43:50Z</time></trkpt><trkpt lat="39.406489285571055" lon="9.208252943906048"><ele>259.0</ele><time>2026-04-20T14:43:53Z</time></trkpt><trkpt lat="39.40643574076442" lon="9.208302923539845"><ele>259.0</ele><time>2026-04-20T14:43:56Z</time></trkpt><trkpt lat="39.40637155931286" lon="9.208347787654525"><ele>259.0</ele><time>2026-04-20T14:43:59Z</time></trkpt><trkpt lat="39.406311622160544" lon="9.208422008495981"><ele>259.0</ele><time>2026-04-20T14:44:02Z</time></trkpt><trkpt lat="39.40624589052902" lon="9.208493564006634"><ele>259.0</ele><time>2026-04-20T14:44:05Z</time></trkpt><trkpt lat="39.40618386465703" lon="9.208541423734594"><ele>259.0</ele><time>2026-04-20T14:44:08Z</time></trkpt><trkpt lat="39.406126291905295" lon="9.208587180968577"><ele>260.85714285714283</ele><time>2026-04-20T14:44:11Z</time></trkpt><trkpt lat="39.40607588200945" lon="9.208640399577744"><ele>262.7142857142857</ele><time>2026-04-20T14:44:13Z</time></trkpt><trkpt lat="39.40601502210035" lon="9.208692990881254"><ele>264.57142857142856</ele><time>2026-04-20T14:44:16Z</time></trkpt><trkpt lat="39.40593564155155" lon="9.208756275117892"><ele>266.42857142857144</ele><time>2026-04-20T14:44:18Z</time></trkpt><trkpt lat="39.40588017350421" lon="9.208802462382232"><ele>268.2857142857143</ele><time>2026-04-20T14:44:20Z</time></trkpt><trkpt lat="39.405817303262104" lon="9.20884545547422"><ele>270.1428571428571</ele><time>2026-04-20T14:44:23Z</time></trkpt><trkpt lat="39.405754648796695" lon="9.208893507087934"><ele>272.0</ele><time>2026-04-20T14:44:26Z</time></trkpt><trkpt lat="39.40567026254666" lon="9.208931138343209"><ele>272.0</ele><time>2026-04-20T14:44:30Z</time></trkpt><trkpt lat="39.40559609292112" lon="9.208958215013165"><ele>272.0</ele><time>2026-04-20T14:44:33Z</time></trkpt><trkpt lat="39.4055257584487" lon="9.209006203769137"><ele>272.0</ele><time>2026-04-20T14:44:36Z</time></trkpt><trkpt lat="39.405453311376014" lon="9.209052750912063"><ele>272.0</ele><time>2026-04-20T14:44:40Z</time></trkpt><trkpt lat="39.40539520964399" lon="9.209087727308596"><ele>272.0</ele><time>2026-04-20T14:44:43Z</time></trkpt><trkpt lat="39.40532755438394" lon="9.209126401088932"><ele>272.0</ele><time>2026-04-20T14:44:46Z</time></trkpt><trkpt lat="39.40525526509472" lon="9.209170537560176"><ele>270.83333333333337</ele><time>2026-04-20T14:44:49Z</time></trkpt><trkpt lat="39.40516797329484" lon="9.209190523496273"><ele>269.6666666666667</ele><time>2026-04-20T14:44:53Z</time></trkpt><trkpt lat="39.40509231769472" lon="9.209241197580175"><ele>268.5</ele><time>2026-04-20T14:44:56Z</time></trkpt><trkpt lat="39.405018339021204" lon="9.20924793240387"><ele>267.3333333333333</ele><time>2026-04-20T14:44:59Z</time></trkpt><trkpt lat="39.4049595703582" lon="9.209278449380314"><ele>266.16666666666663</ele><time>2026-04-20T14:45:01Z</time></trkpt><trkpt lat="39.4048695251676" lon="9.209326311690452"><ele>265.0</ele><time>2026-04-20T14:45:04Z</time></trkpt><trkpt lat="39.404795516360046" lon="9.209351749928606"><ele>265.0</ele><time>2026-04-20T14:45:07Z</time></trkpt><trkpt lat="39.40473154944374" lon="9.209369387314576"><ele>265.0</ele><time>2026-04-20T14:45:09Z</time></trkpt><trkpt lat="39.40465165400272" lon="9.209401437783542"><ele>265.0</ele><time>2026-04-20T14:45:12Z</time></trkpt><trkpt lat="39.404572134947145" lon="9.209412127404955"><ele>265.0</ele><time>2026-04-20T14:45:15Z</time></trkpt><trkpt lat="39.404484084251344" lon="9.209406535884456"><ele>265.0</ele><time>2026-04-20T14:45:19Z</time></trkpt><trkpt lat="39.40440898581672" lon="9.209424708996316"><ele>265.0</ele><time>2026-04-20T14:45:22Z</time></trkpt><trkpt lat="39.40432918646774" lon="9.209428797204627"><ele>265.1428571428571</ele><time>2026-04-20T14:45:26Z</time></trkpt><trkpt lat="39.404256183996395" lon="9.20942538176644"><ele>265.2857142857143</ele><time>2026-04-20T14:45:29Z</time></trkpt><trkpt lat="39.40419252415949" lon="9.209430978774037"><ele>265.42857142857144</ele><time>2026-04-20T14:45:32Z</time></trkpt><trkpt lat="39.40412931589288" lon="9.209429892857845"><ele>265.57142857142856</ele><time>2026-04-20T14:45:36Z</time></trkpt><trkpt lat="39.404054324260585" lon="9.209421246909248"><ele>265.7142857142857</ele><time>2026-04-20T14:45:40Z</time></trkpt><trkpt lat="39.403994425714274" lon="9.209392877034183"><ele>265.85714285714283</ele><time>2026-04-20T14:45:43Z</time></trkpt><trkpt lat="39.40392701176392" lon="9.209397835865083"><ele>266.0</ele><time>2026-04-20T14:45:46Z</time></trkpt><trkpt lat="39.40384126451845" lon="9.209370134209825"><ele>266.85714285714283</ele><time>2026-04-20T14:45:50Z</time></trkpt><trkpt lat="39.4037742260836" lon="9.209355973616358"><ele>267.7142857142857</ele><time>2026-04-20T14:45:53Z</time></trkpt><trkpt lat="39.40370763151481" lon="9.209347270461917"><ele>268.57142857142856</ele><time>2026-04-20T14:45:56Z</time></trkpt><trkpt lat="39.40362446793705" lon="9.20932882478621"><ele>269.42857142857144</ele><time>2026-04-20T14:45:59Z</time></trkpt><trkpt lat="39.40353423260667" lon="9.20930320323718"><ele>270.2857142857143</ele><time>2026-04-20T14:46:02Z</time></trkpt><trkpt lat="39.403463564133176" lon="9.20929741675625"><ele>271.1428571428571</ele><time>2026-04-20T14:46:05Z</time></trkpt><trkpt lat="39.403400360951416" lon="9.209289231302451"><ele>272.0</ele><time>2026-04-20T14:46:08Z</time></trkpt><trkpt lat="39.40331775771368" lon="9.209267050018989"><ele>272.0</ele><time>2026-04-20T14:46:11Z</time></trkpt><trkpt lat="39.40321633039549" lon="9.20927155528789"><ele>272.0</ele><time>2026-04-20T14:46:14Z</time></trkpt><trkpt lat="39.40313915222331" lon="9.209258433146209"><ele>272.0</ele><time>2026-04-20T14:46:17Z</time></trkpt><trkpt lat="39.40305919932842" lon="9.209268309853663"><ele>272.0</ele><time>2026-04-20T14:46:20Z</time></trkpt><trkpt lat="39.402986265317786" lon="9.20926526717948"><ele>272.0</ele><time>2026-04-20T14:46:23Z</time></trkpt><trkpt lat="39.40289788489913" lon="9.209270675728643"><ele>272.0</ele><time>2026-04-20T14:46:26Z</time></trkpt><trkpt lat="39.402785406639154" lon="9.20926457938935"><ele>272.0</ele><time>2026-04-20T14:46:30Z</time></trkpt><trkpt lat="39.40270805190719" lon="9.209266081574745"><ele>272.0</ele><time>2026-04-20T14:46:33Z</time></trkpt><trkpt lat="39.40263797117424" lon="9.209264755179518"><ele>272.0</ele><time>2026-04-20T14:46:35Z</time></trkpt><trkpt lat="39.40256462181114" lon="9.209242377461381"><ele>272.0</ele><time>2026-04-20T14:46:37Z</time></trkpt><trkpt lat="39.402467714080814" lon="9.209227116244309"><ele>272.0</ele><time>2026-04-20T14:46:40Z</time></trkpt><trkpt lat="39.40238366642092" lon="9.209203111250025"><ele>272.0</ele><time>2026-04-20T14:46:43Z</time></trkpt><trkpt lat="39.4022985124201" lon="9.20919811512543"><ele>272.0</ele><time>2026-04-20T14:46:46Z</time></trkpt><trkpt lat="39.40223286751424" lon="9.209202983740374"><ele>272.0</ele><time>2026-04-20T14:46:48Z</time></trkpt><trkpt lat="39.40214786122164" lon="9.209215475072897"><ele>272.0</ele><time>2026-04-20T14:46:51Z</time></trkpt><trkpt lat="39.40205748690557" lon="9.209214204632394"><ele>272.0</ele><time>2026-04-20T14:46:54Z</time></trkpt><trkpt lat="39.401972780186185" lon="9.209215118153537"><ele>272.0</ele><time>2026-04-20T14:46:57Z</time></trkpt><trkpt lat="39.40186921773003" lon="9.209240118412717"><ele>272.0</ele><time>2026-04-20T14:46:59Z</time></trkpt><trkpt lat="39.401787903997366" lon="9.209260434348158"><ele>272.2857142857143</ele><time>2026-04-20T14:47:01Z</time></trkpt><trkpt lat="39.40171659080924" lon="9.209289886078018"><ele>272.57142857142856</ele><time>2026-04-20T14:47:03Z</time></trkpt><trkpt lat="39.40164879732054" lon="9.209325281726596"><ele>272.8571428571429</ele><time>2026-04-20T14:47:06Z</time></trkpt><trkpt lat="39.40159547964343" lon="9.209378348791939"><ele>273.1428571428571</ele><time>2026-04-20T14:47:09Z</time></trkpt><trkpt lat="39.40153552264434" lon="9.20944708112313"><ele>273.42857142857144</ele><time>2026-04-20T14:47:13Z</time></trkpt><trkpt lat="39.40147628584175" lon="9.209508722897416"><ele>273.7142857142857</ele><time>2026-04-20T14:47:17Z</time></trkpt><trkpt lat="39.40140341911592" lon="9.209535062517062"><ele>274.0</ele><time>2026-04-20T14:47:22Z</time></trkpt><trkpt lat="39.40133568205097" lon="9.209560958534967"><ele>276.00000000000006</ele><time>2026-04-20T14:47:26Z</time></trkpt><trkpt lat="39.40125585642232" lon="9.209585752289321"><ele>278.0</ele><time>2026-04-20T14:47:31Z</time></trkpt><trkpt lat="39.40119050564536" lon="9.209618661022947"><ele>280.0</ele><time>2026-04-20T14:47:36Z</time></trkpt><trkpt lat="39.401129001223" lon="9.209648204522782"><ele>282.0</ele><time>2026-04-20T14:47:40Z</time></trkpt><trkpt lat="39.401063163961574" lon="9.209668709645953"><ele>284.0</ele><time>2026-04-20T14:47:44Z</time></trkpt><trkpt lat="39.401001157379525" lon="9.209710420046928"><ele>286.00000000000006</ele><time>2026-04-20T14:47:49Z</time></trkpt><trkpt lat="39.400917132515495" lon="9.209742000137105"><ele>288.0</ele><time>2026-04-20T14:47:54Z</time></trkpt><trkpt lat="39.400860831968544" lon="9.209786389292587"><ele>286.42857142857144</ele><time>2026-04-20T14:47:59Z</time></trkpt><trkpt lat="39.40081440244276" lon="9.209855240126737"><ele>284.8571428571429</ele><time>2026-04-20T14:48:03Z</time></trkpt><trkpt lat="39.40076886979346" lon="9.209917207378059"><ele>283.2857142857143</ele><time>2026-04-20T14:48:07Z</time></trkpt><trkpt lat="39.40073063107032" lon="9.20999053695774"><ele>281.7142857142857</ele><time>2026-04-20T14:48:11Z</time></trkpt><trkpt lat="39.40068392107256" lon="9.210068093535211"><ele>280.1428571428571</ele><time>2026-04-20T14:48:15Z</time></trkpt><trkpt lat="39.40063632535572" lon="9.210151939319172"><ele>278.57142857142856</ele><time>2026-04-20T14:48:20Z</time></trkpt><trkpt lat="39.400617817099615" lon="9.210238607933256"><ele>277.0</ele><time>2026-04-20T14:48:24Z</time></trkpt><trkpt lat="39.40060372053901" lon="9.210348696959263"><ele>277.0</ele><time>2026-04-20T14:48:28Z</time></trkpt><trkpt lat="39.400610569822625" lon="9.210465698690568"><ele>277.0</ele><time>2026-04-20T14:48:32Z</time></trkpt><trkpt lat="39.4006039099186" lon="9.210572506663702"><ele>277.0</ele><time>2026-04-20T14:48:36Z</time></trkpt><trkpt lat="39.400599512029565" lon="9.210678041543012"><ele>277.0</ele><time>2026-04-20T14:48:39Z</time></trkpt><trkpt lat="39.40058409595756" lon="9.210766278688805"><ele>277.0</ele><time>2026-04-20T14:48:42Z</time></trkpt><trkpt lat="39.400556303103585" lon="9.210854923513178"><ele>277.0</ele><time>2026-04-20T14:48:45Z</time></trkpt><trkpt lat="39.4005108149018" lon="9.210927536045066"><ele>278.0</ele><time>2026-04-20T14:48:48Z</time></trkpt><trkpt lat="39.40045317453035" lon="9.210997177259046"><ele>279.0</ele><time>2026-04-20T14:48:51Z</time></trkpt><trkpt lat="39.40038657450332" lon="9.211064253653797"><ele>280.0</ele><time>2026-04-20T14:48:54Z</time></trkpt><trkpt lat="39.40030372310831" lon="9.21109015747389"><ele>281.0</ele><time>2026-04-20T14:48:57Z</time></trkpt><trkpt lat="39.40021871006006" lon="9.211083293776628"><ele>282.0</ele><time>2026-04-20T14:49:00Z</time></trkpt><trkpt lat="39.400132640816004" lon="9.211090784325423"><ele>283.0</ele><time>2026-04-20T14:49:03Z</time></trkpt><trkpt lat="39.40005122397325" lon="9.211065101163811"><ele>283.0</ele><time>2026-04-20T14:49:06Z</time></trkpt><trkpt lat="39.399952836336716" lon="9.21105158648283"><ele>283.0</ele><time>2026-04-20T14:49:09Z</time></trkpt><trkpt lat="39.39988488264159" lon="9.211038970431998"><ele>283.0</ele><time>2026-04-20T14:49:11Z</time></trkpt><trkpt lat="39.39981764819958" lon="9.21103376183075"><ele>283.0</ele><time>2026-04-20T14:49:13Z</time></trkpt><trkpt lat="39.399723717780226" lon="9.21100859122649"><ele>283.0</ele><time>2026-04-20T14:49:17Z</time></trkpt><trkpt lat="39.39966091224673" lon="9.210980447704626"><ele>283.0</ele><time>2026-04-20T14:49:19Z</time></trkpt><trkpt lat="39.399581182166024" lon="9.210976921449271"><ele>285.3333333333333</ele><time>2026-04-20T14:49:22Z</time></trkpt><trkpt lat="39.399512730310526" lon="9.21098046864145"><ele>287.66666666666663</ele><time>2026-04-20T14:49:25Z</time></trkpt><trkpt lat="39.39945347765753" lon="9.211010462265333"><ele>290.0</ele><time>2026-04-20T14:49:27Z</time></trkpt><trkpt lat="39.39939205024814" lon="9.211047973485853"><ele>292.3333333333333</ele><time>2026-04-20T14:49:30Z</time></trkpt><trkpt lat="39.399320556304446" lon="9.211111545258548"><ele>294.6666666666667</ele><time>2026-04-20T14:49:33Z</time></trkpt><trkpt lat="39.3992646133744" lon="9.211198403668313"><ele>297.0</ele><time>2026-04-20T14:49:36Z</time></trkpt><trkpt lat="39.39922373379041" lon="9.211280968244528"><ele>297.0</ele><time>2026-04-20T14:49:39Z</time></trkpt><trkpt lat="39.39920698084075" lon="9.211370095597623"><ele>297.0</ele><time>2026-04-20T14:49:42Z</time></trkpt><trkpt lat="39.39920762844666" lon="9.211477147616337"><ele>297.0</ele><time>2026-04-20T14:49:46Z</time></trkpt><trkpt lat="39.39919528187333" lon="9.211587696839674"><ele>297.0</ele><time>2026-04-20T14:49:50Z</time></trkpt><trkpt lat="39.39920369179091" lon="9.211698413743271"><ele>297.0</ele><time>2026-04-20T14:49:53Z</time></trkpt><trkpt lat="39.39921116522461" lon="9.211784295554017"><ele>297.0</ele><time>2026-04-20T14:49:56Z</time></trkpt><trkpt lat="39.399202079689374" lon="9.211865034909843"><ele>296.8333333333333</ele><time>2026-04-20T14:49:59Z</time></trkpt><trkpt lat="39.39920801075376" lon="9.211976537502926"><ele>296.6666666666667</ele><time>2026-04-20T14:50:02Z</time></trkpt><trkpt lat="39.39919271311217" lon="9.21207844394962"><ele>296.5</ele><time>2026-04-20T14:50:05Z</time></trkpt><trkpt lat="39.39919495963172" lon="9.212169577286303"><ele>296.33333333333337</ele><time>2026-04-20T14:50:07Z</time></trkpt><trkpt lat="39.39917443165034" lon="9.21226978885057"><ele>296.1666666666667</ele><time>2026-04-20T14:50:11Z</time></trkpt><trkpt lat="39.399153399592365" lon="9.212365869104897"><ele>296.0</ele><time>2026-04-20T14:50:14Z</time></trkpt><trkpt lat="39.39913434799333" lon="9.21244660341767"><ele>296.0</ele><time>2026-04-20T14:50:17Z</time></trkpt><trkpt lat="39.399088274463026" lon="9.21251887010852"><ele>296.0</ele><time>2026-04-20T14:50:21Z</time></trkpt><trkpt lat="39.399019102936535" lon="9.21255511763814"><ele>296.0</ele><time>2026-04-20T14:50:27Z</time></trkpt><trkpt lat="39.398942187899976" lon="9.212551291383935"><ele>296.0</ele><time>2026-04-20T14:50:33Z</time></trkpt><trkpt lat="39.39887671900205" lon="9.212533338804217"><ele>296.0</ele><time>2026-04-20T14:50:38Z</time></trkpt><trkpt lat="39.39880774531503" lon="9.212495574267"><ele>296.0</ele><time>2026-04-20T14:50:42Z</time></trkpt><trkpt lat="39.398728191097526" lon="9.212451776729894"><ele>295.83333333333337</ele><time>2026-04-20T14:50:45Z</time></trkpt><trkpt lat="39.398639830679805" lon="9.212424522689396"><ele>295.6666666666667</ele><time>2026-04-20T14:50:48Z</time></trkpt><trkpt lat="39.39856636638577" lon="9.212377826828439"><ele>295.5</ele><time>2026-04-20T14:50:51Z</time></trkpt><trkpt lat="39.39848781576326" lon="9.212349091551935"><ele>295.3333333333333</ele><time>2026-04-20T14:50:54Z</time></trkpt><trkpt lat="39.39841486623665" lon="9.21233923754115"><ele>295.16666666666663</ele><time>2026-04-20T14:50:57Z</time></trkpt><trkpt lat="39.39835183460865" lon="9.212351403330906"><ele>295.0</ele><time>2026-04-20T14:50:59Z</time></trkpt><trkpt lat="39.398253103433866" lon="9.212397774020397"><ele>295.0</ele><time>2026-04-20T14:51:03Z</time></trkpt><trkpt lat="39.398176677521654" lon="9.212461460845217"><ele>295.0</ele><time>2026-04-20T14:51:07Z</time></trkpt><trkpt lat="39.39811874119879" lon="9.212524821984895"><ele>295.0</ele><time>2026-04-20T14:51:10Z</time></trkpt><trkpt lat="39.39806616867857" lon="9.212595918403098"><ele>295.0</ele><time>2026-04-20T14:51:14Z</time></trkpt><trkpt lat="39.39801225873415" lon="9.21265710174775"><ele>295.0</ele><time>2026-04-20T14:51:18Z</time></trkpt><trkpt lat="39.39796104585798" lon="9.212727685084454"><ele>295.0</ele><time>2026-04-20T14:51:22Z</time></trkpt><trkpt lat="39.397906540002886" lon="9.212804228065975"><ele>295.8333333333333</ele><time>2026-04-20T14:51:26Z</time></trkpt><trkpt lat="39.39783903748695" lon="9.212887848555374"><ele>296.66666666666663</ele><time>2026-04-20T14:51:30Z</time></trkpt><trkpt lat="39.39778071223631" lon="9.212960147610698"><ele>297.5</ele><time>2026-04-20T14:51:34Z</time></trkpt><trkpt lat="39.397719708472536" lon="9.213037471818629"><ele>298.3333333333333</ele><time>2026-04-20T14:51:37Z</time></trkpt><trkpt lat="39.39765676026506" lon="9.213111081330965"><ele>299.1666666666667</ele><time>2026-04-20T14:51:40Z</time></trkpt><trkpt lat="39.39760479401152" lon="9.213198340135877"><ele>300.0</ele><time>2026-04-20T14:51:43Z</time></trkpt><trkpt lat="39.39755410593839" lon="9.2132872572951"><ele>300.0</ele><time>2026-04-20T14:51:47Z</time></trkpt><trkpt lat="39.39749326493262" lon="9.2133825691597"><ele>300.0</ele><time>2026-04-20T14:51:50Z</time></trkpt><trkpt lat="39.397480654940885" lon="9.213493342275587"><ele>300.0</ele><time>2026-04-20T14:51:52Z</time></trkpt><trkpt lat="39.39745272308939" lon="9.213574223916849"><ele>300.0</ele><time>2026-04-20T14:51:54Z</time></trkpt><trkpt lat="39.397409529122406" lon="9.213660258937841"><ele>300.0</ele><time>2026-04-20T14:51:58Z</time></trkpt><trkpt lat="39.39737704702584" lon="9.213747172931276"><ele>300.0</ele><time>2026-04-20T14:52:00Z</time></trkpt><trkpt lat="39.39735051063843" lon="9.213856796611797"><ele>300.0</ele><time>2026-04-20T14:52:03Z</time></trkpt><trkpt lat="39.39731098181465" lon="9.213966332628798"><ele>300.0</ele><time>2026-04-20T14:52:06Z</time></trkpt><trkpt lat="39.39726918780825" lon="9.214065521747248"><ele>300.0</ele><time>2026-04-20T14:52:09Z</time></trkpt><trkpt lat="39.39722341393366" lon="9.214160758440556"><ele>300.0</ele><time>2026-04-20T14:52:12Z</time></trkpt><trkpt lat="39.397177692765496" lon="9.214220861494821"><ele>300.0</ele><time>2026-04-20T14:52:14Z</time></trkpt><trkpt lat="39.397111450486136" lon="9.214299229609232"><ele>300.0</ele><time>2026-04-20T14:52:17Z</time></trkpt><trkpt lat="39.39704778416459" lon="9.214371956061866"><ele>301.1666666666667</ele><time>2026-04-20T14:52:20Z</time></trkpt><trkpt lat="39.39697642963619" lon="9.2144264000997"><ele>302.3333333333333</ele><time>2026-04-20T14:52:23Z</time></trkpt><trkpt lat="39.39690993066375" lon="9.21447144418892"><ele>303.5</ele><time>2026-04-20T14:52:26Z</time></trkpt><trkpt lat="39.396841467064206" lon="9.21451684660938"><ele>304.66666666666663</ele><time>2026-04-20T14:52:29Z</time></trkpt><trkpt lat="39.39677549403547" lon="9.214579889510032"><ele>305.8333333333333</ele><time>2026-04-20T14:52:32Z</time></trkpt><trkpt lat="39.39671373935474" lon="9.214656514170048"><ele>307.0</ele><time>2026-04-20T14:52:35Z</time></trkpt><trkpt lat="39.396668311304744" lon="9.214713965942096"><ele>307.0</ele><time>2026-04-20T14:52:38Z</time></trkpt><trkpt lat="39.39663574992344" lon="9.214794383153805"><ele>307.0</ele><time>2026-04-20T14:52:41Z</time></trkpt><trkpt lat="39.396624397521734" lon="9.21489261922351"><ele>307.0</ele><time>2026-04-20T14:52:44Z</time></trkpt><trkpt lat="39.396627263020285" lon="9.215008013926461"><ele>307.0</ele><time>2026-04-20T14:52:47Z</time></trkpt><trkpt lat="39.39663265078764" lon="9.21514314658591"><ele>307.0</ele><time>2026-04-20T14:52:51Z</time></trkpt><trkpt lat="39.396635183394" lon="9.215236687316404"><ele>307.0</ele><time>2026-04-20T14:52:55Z</time></trkpt><trkpt lat="39.3966261916411" lon="9.215332936882866"><ele>307.16666666666663</ele><time>2026-04-20T14:52:58Z</time></trkpt><trkpt lat="39.39659447974336" lon="9.215406816983092"><ele>307.3333333333333</ele><time>2026-04-20T14:53:01Z</time></trkpt><trkpt lat="39.396547164250876" lon="9.215467341602833"><ele>307.5</ele><time>2026-04-20T14:53:03Z</time></trkpt><trkpt lat="39.39648669066173" lon="9.21553669721299"><ele>307.6666666666667</ele><time>2026-04-20T14:53:07Z</time></trkpt><trkpt lat="39.39640128816301" lon="9.21561434343373"><ele>307.83333333333337</ele><time>2026-04-20T14:53:09Z</time></trkpt><trkpt lat="39.39633871238185" lon="9.215649497796106"><ele>308.0</ele><time>2026-04-20T14:53:11Z</time></trkpt><trkpt lat="39.396273254831264" lon="9.215689741531936"><ele>308.0</ele><time>2026-04-20T14:53:13Z</time></trkpt><trkpt lat="39.396213552890806" lon="9.215729941452159"><ele>308.0</ele><time>2026-04-20T14:53:15Z</time></trkpt><trkpt lat="39.396155022917334" lon="9.215765676006058"><ele>308.0</ele><time>2026-04-20T14:53:17Z</time></trkpt><trkpt lat="39.39609665571311" lon="9.2158063371609"><ele>308.0</ele><time>2026-04-20T14:53:19Z</time></trkpt><trkpt lat="39.396016771913196" lon="9.215862453331374"><ele>308.0</ele><time>2026-04-20T14:53:22Z</time></trkpt><trkpt lat="39.39594263153507" lon="9.215917731110672"><ele>308.0</ele><time>2026-04-20T14:53:26Z</time></trkpt><trkpt lat="39.39586694052734" lon="9.215942149742055"><ele>308.0</ele><time>2026-04-20T14:53:28Z</time></trkpt><trkpt lat="39.39578114774743" lon="9.215977539306575"><ele>308.0</ele><time>2026-04-20T14:53:31Z</time></trkpt><trkpt lat="39.395724319490796" lon="9.216020111676963"><ele>308.0</ele><time>2026-04-20T14:53:33Z</time></trkpt><trkpt lat="39.395669084174195" lon="9.216070239611213"><ele>308.0</ele><time>2026-04-20T14:53:35Z</time></trkpt><trkpt lat="39.39561552117965" lon="9.216134222116295"><ele>308.0</ele><time>2026-04-20T14:53:37Z</time></trkpt><trkpt lat="39.39557744255927" lon="9.216219944225271"><ele>308.0</ele><time>2026-04-20T14:53:39Z</time></trkpt><trkpt lat="39.395558642536905" lon="9.216315934720738"><ele>308.0</ele><time>2026-04-20T14:53:41Z</time></trkpt><trkpt lat="39.39555877844799" lon="9.21641912996251"><ele>309.0</ele><time>2026-04-20T14:53:43Z</time></trkpt><trkpt lat="39.3955751930077" lon="9.216511823763405"><ele>310.0</ele><time>2026-04-20T14:53:45Z</time></trkpt><trkpt lat="39.395570328854966" lon="9.216597712355977"><ele>311.0</ele><time>2026-04-20T14:53:47Z</time></trkpt><trkpt lat="39.3955636776333" lon="9.216695555750213"><ele>312.0</ele><time>2026-04-20T14:53:50Z</time></trkpt><trkpt lat="39.395563087909075" lon="9.216779913711548"><ele>313.0</ele><time>2026-04-20T14:53:52Z</time></trkpt><trkpt lat="39.39556464595291" lon="9.216894668419528"><ele>314.0</ele><time>2026-04-20T14:53:55Z</time></trkpt><trkpt lat="39.39556574831157" lon="9.217003715988072"><ele>313.99999999999994</ele><time>2026-04-20T14:53:58Z</time></trkpt><trkpt lat="39.395569785727105" lon="9.217104371703085"><ele>314.0</ele><time>2026-04-20T14:54:01Z</time></trkpt><trkpt lat="39.39557727281174" lon="9.217186929088083"><ele>314.0</ele><time>2026-04-20T14:54:04Z</time></trkpt><trkpt lat="39.39560277397663" lon="9.217284153320014"><ele>314.0</ele><time>2026-04-20T14:54:07Z</time></trkpt><trkpt lat="39.39562243519402" lon="9.217364504861608"><ele>314.0</ele><time>2026-04-20T14:54:10Z</time></trkpt><trkpt lat="39.395640472583295" lon="9.217443036274359"><ele>313.99999999999994</ele><time>2026-04-20T14:54:13Z</time></trkpt><trkpt lat="39.39566804698984" lon="9.217541730712346"><ele>314.0</ele><time>2026-04-20T14:54:16Z</time></trkpt><trkpt lat="39.39568913682965" lon="9.217634831187475"><ele>314.1666666666667</ele><time>2026-04-20T14:54:19Z</time></trkpt><trkpt lat="39.39572018056682" lon="9.21773255048376"><ele>314.33333333333337</ele><time>2026-04-20T14:54:22Z</time></trkpt><trkpt lat="39.39575865517486" lon="9.217832839305332"><ele>314.5</ele><time>2026-04-20T14:54:25Z</time></trkpt><trkpt lat="39.395806573331356" lon="9.21790113254653"><ele>314.6666666666667</ele><time>2026-04-20T14:54:27Z</time></trkpt><trkpt lat="39.395862838580754" lon="9.217976576270537"><ele>314.8333333333333</ele><time>2026-04-20T14:54:29Z</time></trkpt><trkpt lat="39.39590823737363" lon="9.218033610812219"><ele>315.0</ele><time>2026-04-20T14:54:31Z</time></trkpt><trkpt lat="39.39597801358332" lon="9.21808104054713"><ele>315.0</ele><time>2026-04-20T14:54:34Z</time></trkpt><trkpt lat="39.39603125125962" lon="9.218126317413908"><ele>315.0</ele><time>2026-04-20T14:54:36Z</time></trkpt><trkpt lat="39.39610223470939" lon="9.218191872629205"><ele>315.0</ele><time>2026-04-20T14:54:39Z</time></trkpt><trkpt lat="39.39614932617012" lon="9.218273393109147"><ele>315.0</ele><time>2026-04-20T14:54:43Z</time></trkpt><trkpt lat="39.39620064058678" lon="9.218324339437961"><ele>315.0</ele><time>2026-04-20T14:54:46Z</time></trkpt><trkpt lat="39.396255340087514" lon="9.218402941182903"><ele>315.0</ele><time>2026-04-20T14:54:50Z</time></trkpt><trkpt lat="39.39628555998227" lon="9.218488573810331"><ele>315.0</ele><time>2026-04-20T14:54:54Z</time></trkpt><trkpt lat="39.39632898435335" lon="9.21856872752049"><ele>314.8333333333333</ele><time>2026-04-20T14:54:58Z</time></trkpt><trkpt lat="39.396355229635695" lon="9.218665067456454"><ele>314.6666666666667</ele><time>2026-04-20T14:55:02Z</time></trkpt><trkpt lat="39.396358509936256" lon="9.218757734001958"><ele>314.5</ele><time>2026-04-20T14:55:06Z</time></trkpt><trkpt lat="39.396347247549755" lon="9.218881071724509"><ele>314.33333333333337</ele><time>2026-04-20T14:55:10Z</time></trkpt><trkpt lat="39.3963220343662" lon="9.218961171059036"><ele>314.1666666666667</ele><time>2026-04-20T14:55:14Z</time></trkpt><trkpt lat="39.396309446687106" lon="9.219062935702018"><ele>314.0</ele><time>2026-04-20T14:55:17Z</time></trkpt><trkpt lat="39.39628490004741" lon="9.219159980473064"><ele>314.0</ele><time>2026-04-20T14:55:19Z</time></trkpt><trkpt lat="39.396263735488745" lon="9.219250228512331"><ele>314.0</ele><time>2026-04-20T14:55:22Z</time></trkpt><trkpt lat="39.396242472260724" lon="9.219351080183042"><ele>314.0</ele><time>2026-04-20T14:55:25Z</time></trkpt><trkpt lat="39.39621278360503" lon="9.219437748855494"><ele>314.0</ele><time>2026-04-20T14:55:28Z</time></trkpt><trkpt lat="39.39617660452803" lon="9.219544959987592"><ele>314.0</ele><time>2026-04-20T14:55:32Z</time></trkpt><trkpt lat="39.39614427082923" lon="9.219638820819872"><ele>314.0</ele><time>2026-04-20T14:55:35Z</time></trkpt><trkpt lat="39.396108317848" lon="9.2197407860837"><ele>314.83333333333337</ele><time>2026-04-20T14:55:39Z</time></trkpt><trkpt lat="39.39608233863071" lon="9.219818753354447"><ele>315.6666666666667</ele><time>2026-04-20T14:55:42Z</time></trkpt><trkpt lat="39.39604373452634" lon="9.219899644263378"><ele>316.5</ele><time>2026-04-20T14:55:44Z</time></trkpt><trkpt lat="39.3960112101051" lon="9.220008442316926"><ele>317.3333333333333</ele><time>2026-04-20T14:55:47Z</time></trkpt><trkpt lat="39.39596986095526" lon="9.220103917170002"><ele>318.16666666666663</ele><time>2026-04-20T14:55:50Z</time></trkpt><trkpt lat="39.395935831659365" lon="9.220201399557578"><ele>319.0</ele><time>2026-04-20T14:55:53Z</time></trkpt><trkpt lat="39.39589665795179" lon="9.220280517894276"><ele>319.0</ele><time>2026-04-20T14:55:56Z</time></trkpt><trkpt lat="39.39587117988985" lon="9.220360907819401"><ele>319.0</ele><time>2026-04-20T14:55:59Z</time></trkpt><trkpt lat="39.395816340518785" lon="9.22044560658964"><ele>319.0</ele><time>2026-04-20T14:56:03Z</time></trkpt><trkpt lat="39.39577740816356" lon="9.220517333451916"><ele>319.0</ele><time>2026-04-20T14:56:06Z</time></trkpt><trkpt lat="39.39573511851622" lon="9.220579231596796"><ele>319.0</ele><time>2026-04-20T14:56:09Z</time></trkpt><trkpt lat="39.395689934244146" lon="9.220652711520124"><ele>319.0</ele><time>2026-04-20T14:56:13Z</time></trkpt><trkpt lat="39.3956416272947" lon="9.220725725158522"><ele>319.0</ele><time>2026-04-20T14:56:16Z</time></trkpt><trkpt lat="39.395597934484044" lon="9.22080832164486"><ele>319.16666666666663</ele><time>2026-04-20T14:56:19Z</time></trkpt><trkpt lat="39.39556414432151" lon="9.220907882748032"><ele>319.3333333333333</ele><time>2026-04-20T14:56:22Z</time></trkpt><trkpt lat="39.39551964736594" lon="9.221000870699111"><ele>319.5</ele><time>2026-04-20T14:56:25Z</time></trkpt><trkpt lat="39.395469690060324" lon="9.221096199631187"><ele>319.6666666666667</ele><time>2026-04-20T14:56:28Z</time></trkpt><trkpt lat="39.39541552958917" lon="9.221180163547638"><ele>319.83333333333337</ele><time>2026-04-20T14:56:31Z</time></trkpt><trkpt lat="39.39535445000527" lon="9.221241875619242"><ele>320.0</ele><time>2026-04-20T14:56:34Z</time></trkpt><trkpt lat="39.395293117714225" lon="9.221298630403147"><ele>320.0</ele><time>2026-04-20T14:56:37Z</time></trkpt><trkpt lat="39.39524013563048" lon="9.221344968564976"><ele>320.0</ele><time>2026-04-20T14:56:40Z</time></trkpt><trkpt lat="39.39518486494143" lon="9.221400815693281"><ele>320.0</ele><time>2026-04-20T14:56:43Z</time></trkpt><trkpt lat="39.395144624824916" lon="9.221473989919911"><ele>320.0</ele><time>2026-04-20T14:56:46Z</time></trkpt><trkpt lat="39.39508796540926" lon="9.22152368297906"><ele>320.0</ele><time>2026-04-20T14:56:49Z</time></trkpt><trkpt lat="39.395012118984546" lon="9.221589801748596"><ele>320.0</ele><time>2026-04-20T14:56:53Z</time></trkpt><trkpt lat="39.39495437648053" lon="9.221633824451418"><ele>320.0</ele><time>2026-04-20T14:56:56Z</time></trkpt><trkpt lat="39.39490283063" lon="9.22168987557721"><ele>320.1428571428571</ele><time>2026-04-20T14:56:59Z</time></trkpt><trkpt lat="39.3948433520428" lon="9.221744239909803"><ele>320.2857142857143</ele><time>2026-04-20T14:57:02Z</time></trkpt><trkpt lat="39.39478804307597" lon="9.221809652033361"><ele>320.42857142857144</ele><time>2026-04-20T14:57:04Z</time></trkpt><trkpt lat="39.39472214802497" lon="9.221871575535014"><ele>320.57142857142856</ele><time>2026-04-20T14:57:07Z</time></trkpt><trkpt lat="39.394646252075354" lon="9.22192876238399"><ele>320.7142857142857</ele><time>2026-04-20T14:57:10Z</time></trkpt><trkpt lat="39.39458766514382" lon="9.22196257127015"><ele>320.85714285714283</ele><time>2026-04-20T14:57:12Z</time></trkpt><trkpt lat="39.39452764438221" lon="9.221991997191957"><ele>321.0</ele><time>2026-04-20T14:57:14Z</time></trkpt><trkpt lat="39.39446156323676" lon="9.222013103027322"><ele>321.0</ele><time>2026-04-20T14:57:16Z</time></trkpt><trkpt lat="39.3943983371962" lon="9.222031901346606"><ele>321.0</ele><time>2026-04-20T14:57:18Z</time></trkpt><trkpt lat="39.394338629402235" lon="9.222061727167649"><ele>321.0</ele><time>2026-04-20T14:57:20Z</time></trkpt><trkpt lat="39.394253873053074" lon="9.222112437256136"><ele>321.0</ele><time>2026-04-20T14:57:23Z</time></trkpt><trkpt lat="39.39416913572716" lon="9.222154877667448"><ele>321.0</ele><time>2026-04-20T14:57:26Z</time></trkpt><trkpt lat="39.39411228850657" lon="9.222237595049299"><ele>321.0</ele><time>2026-04-20T14:57:29Z</time></trkpt><trkpt lat="39.394104284043074" lon="9.222319275890175"><ele>321.57142857142856</ele><time>2026-04-20T14:57:31Z</time></trkpt><trkpt lat="39.39412520562985" lon="9.222409303788863"><ele>322.1428571428571</ele><time>2026-04-20T14:57:33Z</time></trkpt><trkpt lat="39.39414187650023" lon="9.22248900842834"><ele>322.71428571428567</ele><time>2026-04-20T14:57:35Z</time></trkpt><trkpt lat="39.39415583996147" lon="9.222571815295183"><ele>323.2857142857143</ele><time>2026-04-20T14:57:37Z</time></trkpt><trkpt lat="39.394179836066016" lon="9.222656922646651"><ele>323.8571428571429</ele><time>2026-04-20T14:57:40Z</time></trkpt><trkpt lat="39.394208364441525" lon="9.222754172984038"><ele>324.4285714285714</ele><time>2026-04-20T14:57:43Z</time></trkpt><trkpt lat="39.39424398125464" lon="9.222854885684875"><ele>325.0</ele><time>2026-04-20T14:57:46Z</time></trkpt><trkpt lat="39.39427571255088" lon="9.222959176851768"><ele>325.0</ele><time>2026-04-20T14:57:49Z</time></trkpt><trkpt lat="39.39429760482553" lon="9.223063254419193"><ele>325.0</ele><time>2026-04-20T14:57:52Z</time></trkpt><trkpt lat="39.39432038593106" lon="9.223162424539657"><ele>325.0</ele><time>2026-04-20T14:57:55Z</time></trkpt><trkpt lat="39.3943478155168" lon="9.223247667886646"><ele>325.0</ele><time>2026-04-20T14:57:59Z</time></trkpt><trkpt lat="39.394367361931494" lon="9.223340136851158"><ele>325.0</ele><time>2026-04-20T14:58:02Z</time></trkpt><trkpt lat="39.39438455612229" lon="9.223429425451949"><ele>325.0</ele><time>2026-04-20T14:58:07Z</time></trkpt><trkpt lat="39.394404926410104" lon="9.223509232729647"><ele>325.0</ele><time>2026-04-20T14:58:10Z</time></trkpt><trkpt lat="39.39442636131507" lon="9.223611396621003"><ele>325.57142857142856</ele><time>2026-04-20T14:58:14Z</time></trkpt><trkpt lat="39.39443704979954" lon="9.223704838207603"><ele>326.14285714285717</ele><time>2026-04-20T14:58:19Z</time></trkpt><trkpt lat="39.394461615566335" lon="9.223801161122578"><ele>326.7142857142857</ele><time>2026-04-20T14:58:24Z</time></trkpt><trkpt lat="39.39448822835816" lon="9.22387544430765"><ele>327.2857142857143</ele><time>2026-04-20T14:58:28Z</time></trkpt><trkpt lat="39.394498802077656" lon="9.2239626656617"><ele>327.8571428571429</ele><time>2026-04-20T14:58:32Z</time></trkpt><trkpt lat="39.39450048887112" lon="9.224048410735403"><ele>328.42857142857144</ele><time>2026-04-20T14:58:36Z</time></trkpt><trkpt lat="39.39451544191936" lon="9.224130641717437"><ele>329.0</ele><time>2026-04-20T14:58:40Z</time></trkpt><trkpt lat="39.394521321969336" lon="9.224232588820895"><ele>329.42857142857144</ele><time>2026-04-20T14:58:45Z</time></trkpt><trkpt lat="39.39452688498026" lon="9.22432111161691"><ele>329.8571428571429</ele><time>2026-04-20T14:58:49Z</time></trkpt><trkpt lat="39.39452556310507" lon="9.224414999750586"><ele>330.2857142857143</ele><time>2026-04-20T14:58:53Z</time></trkpt><trkpt lat="39.39451539966297" lon="9.224516595161145"><ele>330.7142857142857</ele><time>2026-04-20T14:58:58Z</time></trkpt><trkpt lat="39.3945117357684" lon="9.224614875500844"><ele>331.14285714285717</ele><time>2026-04-20T14:59:03Z</time></trkpt><trkpt lat="39.39450721690902" lon="9.224715687911285"><ele>331.57142857142856</ele><time>2026-04-20T14:59:08Z</time></trkpt><trkpt lat="39.394501998679246" lon="9.224803440938594"><ele>332.0</ele><time>2026-04-20T14:59:13Z</time></trkpt><trkpt lat="39.394502520567315" lon="9.224897658313465"><ele>332.33333333333337</ele><time>2026-04-20T14:59:18Z</time></trkpt><trkpt lat="39.39445865145719" lon="9.224980563158837"><ele>332.6666666666667</ele><time>2026-04-20T14:59:23Z</time></trkpt><trkpt lat="39.394437530435034" lon="9.225068075262286"><ele>333.0</ele><time>2026-04-20T14:59:27Z</time></trkpt><trkpt lat="39.39440948478881" lon="9.225177717910265"><ele>333.3333333333333</ele><time>2026-04-20T14:59:31Z</time></trkpt><trkpt lat="39.39440443243988" lon="9.225261359672238"><ele>333.66666666666663</ele><time>2026-04-20T14:59:34Z</time></trkpt><trkpt lat="39.394378709016316" lon="9.22535365888339"><ele>334.0</ele><time>2026-04-20T14:59:38Z</time></trkpt><trkpt lat="39.39434733570385" lon="9.225443869647224"><ele>334.0</ele><time>2026-04-20T14:59:42Z</time></trkpt><trkpt lat="39.39429911347939" lon="9.225515461576272"><ele>334.0</ele><time>2026-04-20T14:59:46Z</time></trkpt><trkpt lat="39.394251327025415" lon="9.225582596539196"><ele>334.0</ele><time>2026-04-20T14:59:48Z</time></trkpt><trkpt lat="39.3942008153444" lon="9.225669899718842"><ele>334.0</ele><time>2026-04-20T14:59:51Z</time></trkpt><trkpt lat="39.394132513546005" lon="9.225755353300556"><ele>334.0</ele><time>2026-04-20T14:59:55Z</time></trkpt><trkpt lat="39.394071393530545" lon="9.225869205646466"><ele>334.0</ele><time>2026-04-20T14:59:58Z</time></trkpt><trkpt lat="39.39401297339769" lon="9.225950410534312"><ele>334.5</ele><time>2026-04-20T15:00:00Z</time></trkpt><trkpt lat="39.39396247554955" lon="9.226022762543852"><ele>335.0</ele><time>2026-04-20T15:00:02Z</time></trkpt><trkpt lat="39.39390784265018" lon="9.226099116182805"><ele>335.5</ele><time>2026-04-20T15:00:04Z</time></trkpt><trkpt lat="39.39385027623889" lon="9.226176608620785"><ele>336.0</ele><time>2026-04-20T15:00:06Z</time></trkpt><trkpt lat="39.3937932073296" lon="9.2262634373513"><ele>336.5</ele><time>2026-04-20T15:00:08Z</time></trkpt><trkpt lat="39.39372863480862" lon="9.226339513461154"><ele>337.0</ele><time>2026-04-20T15:00:10Z</time></trkpt><trkpt lat="39.39366174610455" lon="9.226403775760673"><ele>337.0</ele><time>2026-04-20T15:00:12Z</time></trkpt><trkpt lat="39.393596292474555" lon="9.226469662908743"><ele>337.0</ele><time>2026-04-20T15:00:14Z</time></trkpt><trkpt lat="39.39353352880817" lon="9.226549504532013"><ele>337.0</ele><time>2026-04-20T15:00:16Z</time></trkpt><trkpt lat="39.3934703361273" lon="9.226629975822433"><ele>337.0</ele><time>2026-04-20T15:00:18Z</time></trkpt><trkpt lat="39.39340697636004" lon="9.226720856313962"><ele>337.0</ele><time>2026-04-20T15:00:20Z</time></trkpt><trkpt lat="39.39333608261277" lon="9.226801177432662"><ele>337.0</ele><time>2026-04-20T15:00:22Z</time></trkpt><trkpt lat="39.393266838050316" lon="9.226888010261364"><ele>337.20000000000005</ele><time>2026-04-20T15:00:24Z</time></trkpt><trkpt lat="39.39318840870369" lon="9.22698013549729"><ele>337.4</ele><time>2026-04-20T15:00:26Z</time></trkpt><trkpt lat="39.39311553017595" lon="9.227108394198002"><ele>337.6</ele><time>2026-04-20T15:00:28Z</time></trkpt><trkpt lat="39.393078159716566" lon="9.227183078515882"><ele>337.79999999999995</ele><time>2026-04-20T15:00:29Z</time></trkpt><trkpt lat="39.3930411918728" lon="9.227262359885811"><ele>338.0</ele><time>2026-04-20T15:00:30Z</time></trkpt><trkpt lat="39.392933535375505" lon="9.227354584150692"><ele>337.5</ele><time>2026-04-20T15:00:32Z</time></trkpt><trkpt lat="39.39287266007742" lon="9.227388157287736"><ele>337.0</ele><time>2026-04-20T15:00:33Z</time></trkpt><trkpt lat="39.39281261542488" lon="9.227429412873303"><ele>336.5</ele><time>2026-04-20T15:00:34Z</time></trkpt><trkpt lat="39.39271644794779" lon="9.227489832385666"><ele>336.0</ele><time>2026-04-20T15:00:36Z</time></trkpt><trkpt lat="39.39264867809236" lon="9.22754294747342"><ele>335.5</ele><time>2026-04-20T15:00:40Z</time></trkpt><trkpt lat="39.39260467215178" lon="9.227628361807474"><ele>335.0</ele><time>2026-04-20T15:00:43Z</time></trkpt><trkpt lat="39.392555006970674" lon="9.227715050067411"><ele>335.0</ele><time>2026-04-20T15:00:46Z</time></trkpt><trkpt lat="39.39251145854661" lon="9.227799769790687"><ele>335.0</ele><time>2026-04-20T15:00:50Z</time></trkpt><trkpt lat="39.39247324166191" lon="9.227875834598331"><ele>335.0</ele><time>2026-04-20T15:00:53Z</time></trkpt><trkpt lat="39.39244175791579" lon="9.22796727173531"><ele>335.0</ele><time>2026-04-20T15:00:57Z</time></trkpt><trkpt lat="39.392409793211456" lon="9.228049068884728"><ele>335.0</ele><time>2026-04-20T15:01:00Z</time></trkpt><trkpt lat="39.39237076389161" lon="9.22814195362612"><ele>335.0</ele><time>2026-04-20T15:01:04Z</time></trkpt><trkpt lat="39.39233802639227" lon="9.228245178436488"><ele>336.6666666666667</ele><time>2026-04-20T15:01:07Z</time></trkpt><trkpt lat="39.392327549482495" lon="9.228329129151254"><ele>338.33333333333337</ele><time>2026-04-20T15:01:10Z</time></trkpt><trkpt lat="39.392314115748114" lon="9.228414967532117"><ele>340.0</ele><time>2026-04-20T15:01:13Z</time></trkpt><trkpt lat="39.392286836060286" lon="9.22854491381889"><ele>341.6666666666667</ele><time>2026-04-20T15:01:17Z</time></trkpt><trkpt lat="39.39227982088535" lon="9.22863460073275"><ele>343.3333333333333</ele><time>2026-04-20T15:01:20Z</time></trkpt><trkpt lat="39.39227039440203" lon="9.228724291310883"><ele>345.0</ele><time>2026-04-20T15:01:23Z</time></trkpt><trkpt lat="39.39226004652852" lon="9.228826084663563"><ele>345.0</ele><time>2026-04-20T15:01:25Z</time></trkpt><trkpt lat="39.392258635447796" lon="9.228927575072637"><ele>345.0</ele><time>2026-04-20T15:01:27Z</time></trkpt><trkpt lat="39.39225812669581" lon="9.229030443942575"><ele>345.0</ele><time>2026-04-20T15:01:30Z</time></trkpt><trkpt lat="39.39226339141065" lon="9.229118757010848"><ele>345.0</ele><time>2026-04-20T15:01:33Z</time></trkpt><trkpt lat="39.39226616280356" lon="9.229225084756962"><ele>345.0</ele><time>2026-04-20T15:01:36Z</time></trkpt><trkpt lat="39.39226480571594" lon="9.2293201164431"><ele>345.0</ele><time>2026-04-20T15:01:39Z</time></trkpt><trkpt lat="39.39226787055078" lon="9.229407489491534"><ele>346.0</ele><time>2026-04-20T15:01:42Z</time></trkpt><trkpt lat="39.392254941665136" lon="9.229513236418175"><ele>347.0</ele><time>2026-04-20T15:01:45Z</time></trkpt><trkpt lat="39.39226681156" lon="9.229616813207892"><ele>348.0</ele><time>2026-04-20T15:01:48Z</time></trkpt><trkpt lat="39.39226101094798" lon="9.229707576630101"><ele>349.0</ele><time>2026-04-20T15:01:51Z</time></trkpt><trkpt lat="39.39223730011509" lon="9.22981175540014"><ele>350.0</ele><time>2026-04-20T15:01:54Z</time></trkpt><trkpt lat="39.3922022642042" lon="9.229914254367985"><ele>351.0</ele><time>2026-04-20T15:01:58Z</time></trkpt><trkpt lat="39.39217352620801" lon="9.230010870235207"><ele>351.1666666666667</ele><time>2026-04-20T15:02:02Z</time></trkpt><trkpt lat="39.39212993416844" lon="9.230085444327132"><ele>351.3333333333333</ele><time>2026-04-20T15:02:05Z</time></trkpt><trkpt lat="39.39209313893419" lon="9.230171957719799"><ele>351.5</ele><time>2026-04-20T15:02:09Z</time></trkpt><trkpt lat="39.39203424184799" lon="9.23026264871217"><ele>351.66666666666663</ele><time>2026-04-20T15:02:12Z</time></trkpt><trkpt lat="39.39198615975632" lon="9.230344973333924"><ele>351.8333333333333</ele><time>2026-04-20T15:02:16Z</time></trkpt><trkpt lat="39.39193739301725" lon="9.230412309336923"><ele>352.0</ele><time>2026-04-20T15:02:19Z</time></trkpt><trkpt lat="39.391878815971324" lon="9.23051647839682"><ele>352.0</ele><time>2026-04-20T15:02:23Z</time></trkpt><trkpt lat="39.391818358939304" lon="9.230556449720208"><ele>352.0</ele><time>2026-04-20T15:02:27Z</time></trkpt><trkpt lat="39.39175892637445" lon="9.230585352493232"><ele>352.0</ele><time>2026-04-20T15:02:30Z</time></trkpt><trkpt lat="39.39167627285215" lon="9.230650742175882"><ele>352.0</ele><time>2026-04-20T15:02:34Z</time></trkpt><trkpt lat="39.39160206833837" lon="9.230691638276845"><ele>352.0</ele><time>2026-04-20T15:02:38Z</time></trkpt><trkpt lat="39.391521131440975" lon="9.230748267200989"><ele>352.0</ele><time>2026-04-20T15:02:41Z</time></trkpt><trkpt lat="39.39144464569391" lon="9.230789540918941"><ele>351.66666666666663</ele><time>2026-04-20T15:02:45Z</time></trkpt><trkpt lat="39.39135832889165" lon="9.230850527933006"><ele>351.3333333333333</ele><time>2026-04-20T15:02:48Z</time></trkpt><trkpt lat="39.39127980204553" lon="9.23089362198747"><ele>351.0</ele><time>2026-04-20T15:02:52Z</time></trkpt><trkpt lat="39.39119633439573" lon="9.230909028550315"><ele>350.6666666666667</ele><time>2026-04-20T15:02:55Z</time></trkpt><trkpt lat="39.391124064715406" lon="9.230925717544322"><ele>350.33333333333337</ele><time>2026-04-20T15:02:58Z</time></trkpt><trkpt lat="39.39106249862346" lon="9.230952713609218"><ele>350.0</ele><time>2026-04-20T15:03:00Z</time></trkpt><trkpt lat="39.390981227379875" lon="9.230943587617022"><ele>350.0</ele><time>2026-04-20T15:03:02Z</time></trkpt><trkpt lat="39.3909091322359" lon="9.230959188306626"><ele>350.0</ele><time>2026-04-20T15:03:04Z</time></trkpt><trkpt lat="39.39084585758592" lon="9.230917867057203"><ele>350.0</ele><time>2026-04-20T15:03:06Z</time></trkpt><trkpt lat="39.39081979969148" lon="9.230836641315902"><ele>350.0</ele><time>2026-04-20T15:03:10Z</time></trkpt><trkpt lat="39.390776301767374" lon="9.230772800983674"><ele>350.0</ele><time>2026-04-20T15:03:16Z</time></trkpt><trkpt lat="39.39080891463493" lon="9.230679227434488"><ele>350.0</ele><time>2026-04-20T15:04:09Z</time></trkpt><trkpt lat="39.39083862212737" lon="9.230605828448516"><ele>350.0</ele><time>2026-04-20T15:04:13Z</time></trkpt><trkpt lat="39.390904011633694" lon="9.230545376887036"><ele>350.2857142857143</ele><time>2026-04-20T15:04:19Z</time></trkpt><trkpt lat="39.39096089268026" lon="9.230502115946459"><ele>350.57142857142856</ele><time>2026-04-20T15:04:23Z</time></trkpt><trkpt lat="39.39102943925216" lon="9.230489573084602"><ele>350.8571428571429</ele><time>2026-04-20T15:04:28Z</time></trkpt><trkpt lat="39.39109283864024" lon="9.230469194463915"><ele>351.1428571428571</ele><time>2026-04-20T15:04:34Z</time></trkpt><trkpt lat="39.39116968038787" lon="9.230439084896556"><ele>351.42857142857144</ele><time>2026-04-20T15:04:39Z</time></trkpt><trkpt lat="39.391234350972276" lon="9.23041327739224"><ele>351.7142857142857</ele><time>2026-04-20T15:04:44Z</time></trkpt><trkpt lat="39.391298694605304" lon="9.230411800333593"><ele>352.0</ele><time>2026-04-20T15:04:48Z</time></trkpt><trkpt lat="39.39136726281121" lon="9.230353064111712"><ele>352.0</ele><time>2026-04-20T15:04:53Z</time></trkpt><trkpt lat="39.39143745892632" lon="9.230338923293232"><ele>352.0</ele><time>2026-04-20T15:04:58Z</time></trkpt><trkpt lat="39.39150009183255" lon="9.23028653359961"><ele>352.0</ele><time>2026-04-20T15:05:03Z</time></trkpt><trkpt lat="39.39156712810652" lon="9.230231790363064"><ele>352.0</ele><time>2026-04-20T15:05:07Z</time></trkpt><trkpt lat="39.39160406215661" lon="9.23016425013029"><ele>352.0</ele><time>2026-04-20T15:05:11Z</time></trkpt><trkpt lat="39.39165880449834" lon="9.23009788842364"><ele>352.0</ele><time>2026-04-20T15:05:16Z</time></trkpt><trkpt lat="39.391673608552246" lon="9.230008609050687"><ele>352.0</ele><time>2026-04-20T15:05:21Z</time></trkpt><trkpt lat="39.39169745021138" lon="9.229923537891063"><ele>352.0</ele><time>2026-04-20T15:05:26Z</time></trkpt><trkpt lat="39.39170913747587" lon="9.229826614491452"><ele>352.0</ele><time>2026-04-20T15:05:31Z</time></trkpt><trkpt lat="39.39170009018606" lon="9.229732942373507"><ele>352.0</ele><time>2026-04-20T15:05:36Z</time></trkpt><trkpt lat="39.39170801597493" lon="9.229644098258902"><ele>352.0</ele><time>2026-04-20T15:05:41Z</time></trkpt><trkpt lat="39.39170508474558" lon="9.229553594209298"><ele>352.0</ele><time>2026-04-20T15:05:46Z</time></trkpt><trkpt lat="39.39170809325788" lon="9.229469918441048"><ele>352.0</ele><time>2026-04-20T15:05:51Z</time></trkpt><trkpt lat="39.39170669968985" lon="9.229370052948466"><ele>352.0</ele><time>2026-04-20T15:05:56Z</time></trkpt><trkpt lat="39.39169172942868" lon="9.229278209076714"><ele>353.0</ele><time>2026-04-20T15:06:01Z</time></trkpt><trkpt lat="39.39167403259674" lon="9.229198406594508"><ele>354.0</ele><time>2026-04-20T15:06:05Z</time></trkpt><trkpt lat="39.39166992402532" lon="9.229111264459158"><ele>355.0</ele><time>2026-04-20T15:06:10Z</time></trkpt><trkpt lat="39.39166523690232" lon="9.229011027649452"><ele>356.0</ele><time>2026-04-20T15:06:15Z</time></trkpt><trkpt lat="39.391634731232855" lon="9.228922380718574"><ele>357.0</ele><time>2026-04-20T15:06:20Z</time></trkpt><trkpt lat="39.391613184597865" lon="9.2288409902464"><ele>358.0</ele><time>2026-04-20T15:06:24Z</time></trkpt><trkpt lat="39.39159090913855" lon="9.228760330448107"><ele>359.0</ele><time>2026-04-20T15:06:28Z</time></trkpt><trkpt lat="39.391564830867075" lon="9.228679015045065"><ele>359.0</ele><time>2026-04-20T15:06:32Z</time></trkpt><trkpt lat="39.39154009482894" lon="9.228589508575014"><ele>359.0</ele><time>2026-04-20T15:06:36Z</time></trkpt><trkpt lat="39.39153728689086" lon="9.228500442783025"><ele>359.0</ele><time>2026-04-20T15:06:40Z</time></trkpt><trkpt lat="39.3915102341528" lon="9.22840778680736"><ele>359.0</ele><time>2026-04-20T15:06:44Z</time></trkpt><trkpt lat="39.391498056110386" lon="9.228315111509087"><ele>359.0</ele><time>2026-04-20T15:06:48Z</time></trkpt><trkpt lat="39.391466456553744" lon="9.228240552332766"><ele>359.0</ele><time>2026-04-20T15:06:51Z</time></trkpt><trkpt lat="39.3914352059722" lon="9.228148304579683"><ele>359.0</ele><time>2026-04-20T15:06:55Z</time></trkpt><trkpt lat="39.39141421668122" lon="9.228056953352006"><ele>359.14285714285717</ele><time>2026-04-20T15:06:59Z</time></trkpt><trkpt lat="39.39140442339105" lon="9.227973149243764"><ele>359.28571428571433</ele><time>2026-04-20T15:07:03Z</time></trkpt><trkpt lat="39.39140284684569" lon="9.227868050050127"><ele>359.42857142857144</ele><time>2026-04-20T15:07:08Z</time></trkpt><trkpt lat="39.39138312749627" lon="9.227766844183138"><ele>359.57142857142856</ele><time>2026-04-20T15:07:12Z</time></trkpt><trkpt lat="39.391378763626314" lon="9.227674537281366"><ele>359.7142857142857</ele><time>2026-04-20T15:07:16Z</time></trkpt><trkpt lat="39.391357047044366" lon="9.227580578218344"><ele>359.85714285714283</ele><time>2026-04-20T15:07:20Z</time></trkpt><trkpt lat="39.39135157559199" lon="9.22749855898537"><ele>360.0</ele><time>2026-04-20T15:07:23Z</time></trkpt><trkpt lat="39.391347499409626" lon="9.227408833899629"><ele>360.0</ele><time>2026-04-20T15:07:27Z</time></trkpt><trkpt lat="39.39135062834533" lon="9.227324283617968"><ele>360.0</ele><time>2026-04-20T15:07:31Z</time></trkpt><trkpt lat="39.39134674458896" lon="9.227235645979624"><ele>360.0</ele><time>2026-04-20T15:07:35Z</time></trkpt><trkpt lat="39.39135011905215" lon="9.227151928479326"><ele>360.0</ele><time>2026-04-20T15:07:39Z</time></trkpt><trkpt lat="39.39133783731095" lon="9.227070857378932"><ele>360.0</ele><time>2026-04-20T15:07:42Z</time></trkpt><trkpt lat="39.391340102689064" lon="9.22698107536715"><ele>360.0</ele><time>2026-04-20T15:07:46Z</time></trkpt><trkpt lat="39.391347130589736" lon="9.22688897569238"><ele>360.0</ele><time>2026-04-20T15:07:51Z</time></trkpt><trkpt lat="39.3913404100718" lon="9.226799253237205"><ele>361.1428571428571</ele><time>2026-04-20T15:07:55Z</time></trkpt><trkpt lat="39.39136449735024" lon="9.226707950147244"><ele>362.28571428571433</ele><time>2026-04-20T15:08:00Z</time></trkpt><trkpt lat="39.39138564126899" lon="9.226629737351171"><ele>363.42857142857144</ele><time>2026-04-20T15:08:05Z</time></trkpt><trkpt lat="39.39140096911587" lon="9.226538985847927"><ele>364.57142857142856</ele><time>2026-04-20T15:08:10Z</time></trkpt><trkpt lat="39.39141377067507" lon="9.226449357604007"><ele>365.71428571428567</ele><time>2026-04-20T15:08:16Z</time></trkpt><trkpt lat="39.39142898298951" lon="9.226361383492709"><ele>366.8571428571429</ele><time>2026-04-20T15:08:21Z</time></trkpt><trkpt lat="39.391424400067805" lon="9.226272397280104"><ele>368.0</ele><time>2026-04-20T15:08:26Z</time></trkpt><trkpt lat="39.39137469221979" lon="9.22621368113517"><ele>368.5</ele><time>2026-04-20T15:08:32Z</time></trkpt><trkpt lat="39.39135342907832" lon="9.22630847268197"><ele>369.0</ele><time>2026-04-20T15:13:19Z</time></trkpt><trkpt lat="39.39128925233062" lon="9.226352219263982"><ele>369.5</ele><time>2026-04-20T15:13:23Z</time></trkpt><trkpt lat="39.39122513035424" lon="9.226395971010469"><ele>370.0</ele><time>2026-04-20T15:13:27Z</time></trkpt><trkpt lat="39.391150363129746" lon="9.226433568022161"><ele>370.5</ele><time>2026-04-20T15:13:30Z</time></trkpt><trkpt lat="39.39107802894546" lon="9.22648223767252"><ele>371.0</ele><time>2026-04-20T15:13:33Z</time></trkpt><trkpt lat="39.3910083050022" lon="9.226549305541843"><ele>372.5</ele><time>2026-04-20T15:13:36Z</time></trkpt><trkpt lat="39.390962460450076" lon="9.226606548880781"><ele>374.0</ele><time>2026-04-20T15:13:38Z</time></trkpt><trkpt lat="39.39091219450229" lon="9.226657536110473"><ele>375.5</ele><time>2026-04-20T15:13:40Z</time></trkpt><trkpt lat="39.39083935697892" lon="9.226712752364916"><ele>377.0</ele><time>2026-04-20T15:13:43Z</time></trkpt><trkpt lat="39.39077114589667" lon="9.226784191568937"><ele>378.5</ele><time>2026-04-20T15:13:46Z</time></trkpt><trkpt lat="39.390707873701906" lon="9.22685514559008"><ele>380.0</ele><time>2026-04-20T15:13:49Z</time></trkpt><trkpt lat="39.39064735425074" lon="9.226926563839449"><ele>380.0</ele><time>2026-04-20T15:13:52Z</time></trkpt><trkpt lat="39.39057330350738" lon="9.227007831456215"><ele>380.0</ele><time>2026-04-20T15:13:55Z</time></trkpt><trkpt lat="39.39051411930233" lon="9.227052531851514"><ele>380.0</ele><time>2026-04-20T15:13:57Z</time></trkpt><trkpt lat="39.39046169056889" lon="9.227103321348999"><ele>380.0</ele><time>2026-04-20T15:13:59Z</time></trkpt><trkpt lat="39.390408929889304" lon="9.2271545858318"><ele>380.0</ele><time>2026-04-20T15:14:01Z</time></trkpt><trkpt lat="39.39035894801982" lon="9.227209718594063"><ele>380.0</ele><time>2026-04-20T15:14:03Z</time></trkpt><trkpt lat="39.3903020512968" lon="9.22726472300458"><ele>380.0</ele><time>2026-04-20T15:14:05Z</time></trkpt><trkpt lat="39.39025279272997" lon="9.227324514384748"><ele>380.0</ele><time>2026-04-20T15:14:07Z</time></trkpt><trkpt lat="39.390184740129996" lon="9.227414317391386"><ele>380.0</ele><time>2026-04-20T15:14:10Z</time></trkpt><trkpt lat="39.390116805513294" lon="9.227486834477164"><ele>380.0</ele><time>2026-04-20T15:14:13Z</time></trkpt><trkpt lat="39.39004852202124" lon="9.22756873759929"><ele>380.0</ele><time>2026-04-20T15:14:16Z</time></trkpt><trkpt lat="39.38998325381003" lon="9.227633691145021"><ele>380.0</ele><time>2026-04-20T15:14:19Z</time></trkpt><trkpt lat="39.38992096822417" lon="9.227696833419662"><ele>380.0</ele><time>2026-04-20T15:14:22Z</time></trkpt><trkpt lat="39.38986427590074" lon="9.227772905529164"><ele>380.0</ele><time>2026-04-20T15:14:25Z</time></trkpt><trkpt lat="39.3898141011332" lon="9.227842895043077"><ele>380.0</ele><time>2026-04-20T15:14:28Z</time></trkpt><trkpt lat="39.38975163324526" lon="9.227908410670588"><ele>380.0</ele><time>2026-04-20T15:14:31Z</time></trkpt><trkpt lat="39.38968069383658" lon="9.227987445872374"><ele>380.0</ele><time>2026-04-20T15:14:34Z</time></trkpt><trkpt lat="39.38963490461393" lon="9.22805302317364"><ele>380.0</ele><time>2026-04-20T15:14:36Z</time></trkpt><trkpt lat="39.38957899846645" lon="9.228116255310077"><ele>380.0</ele><time>2026-04-20T15:14:38Z</time></trkpt><trkpt lat="39.389516538976736" lon="9.228177033325537"><ele>379.8</ele><time>2026-04-20T15:14:40Z</time></trkpt><trkpt lat="39.38944821891668" lon="9.228256662469539"><ele>379.6</ele><time>2026-04-20T15:14:42Z</time></trkpt><trkpt lat="39.38936591586256" lon="9.22834238126922"><ele>379.4</ele><time>2026-04-20T15:14:44Z</time></trkpt><trkpt lat="39.389261514558434" lon="9.228424975611098"><ele>379.2</ele><time>2026-04-20T15:14:46Z</time></trkpt><trkpt lat="39.38920691775862" lon="9.228469893796493"><ele>379.0</ele><time>2026-04-20T15:14:47Z</time></trkpt><trkpt lat="39.38914316331861" lon="9.22850466459592"><ele>379.0</ele><time>2026-04-20T15:14:48Z</time></trkpt><trkpt lat="39.38907586160195" lon="9.228492953530377"><ele>379.0</ele><time>2026-04-20T15:14:49Z</time></trkpt><trkpt lat="39.38897670136277" lon="9.228490537838066"><ele>379.0</ele><time>2026-04-20T15:14:51Z</time></trkpt><trkpt lat="39.38889617211084" lon="9.228379500982355"><ele>379.0</ele><time>2026-04-20T15:14:53Z</time></trkpt><trkpt lat="39.38884756567065" lon="9.228295802149159"><ele>379.0</ele><time>2026-04-20T15:14:54Z</time></trkpt><trkpt lat="39.38881606936143" lon="9.228208953531945"><ele>379.0</ele><time>2026-04-20T15:14:55Z</time></trkpt><trkpt lat="39.388782059939864" lon="9.228128808642143"><ele>375.6</ele><time>2026-04-20T15:14:56Z</time></trkpt><trkpt lat="39.38873740472384" lon="9.228052247717564"><ele>372.2</ele><time>2026-04-20T15:14:57Z</time></trkpt><trkpt lat="39.388704519941534" lon="9.22797921237778"><ele>368.8</ele><time>2026-04-20T15:14:58Z</time></trkpt><trkpt lat="39.38864168626335" lon="9.227835192573858"><ele>365.40000000000003</ele><time>2026-04-20T15:15:00Z</time></trkpt><trkpt lat="39.388604056307706" lon="9.22770733581041"><ele>362.0</ele><time>2026-04-20T15:15:02Z</time></trkpt><trkpt lat="39.38856096831935" lon="9.22755418678182"><ele>362.0</ele><time>2026-04-20T15:15:04Z</time></trkpt><trkpt lat="39.38851753072252" lon="9.227465348374777"><ele>362.0</ele><time>2026-04-20T15:15:05Z</time></trkpt><trkpt lat="39.38846125298253" lon="9.227384075008274"><ele>362.0</ele><time>2026-04-20T15:15:06Z</time></trkpt><trkpt lat="39.38839311452442" lon="9.227323340082046"><ele>362.0</ele><time>2026-04-20T15:15:08Z</time></trkpt><trkpt lat="39.388234586159975" lon="9.227354747162318"><ele>362.0</ele><time>2026-04-20T15:15:12Z</time></trkpt><trkpt lat="39.388204101071814" lon="9.227502179416161"><ele>362.0</ele><time>2026-04-20T15:15:14Z</time></trkpt><trkpt lat="39.38820155741134" lon="9.227605440796296"><ele>362.0</ele><time>2026-04-20T15:15:18Z</time></trkpt><trkpt lat="39.3881893344607" lon="9.227707040065928"><ele>362.0</ele><time>2026-04-20T15:15:20Z</time></trkpt><trkpt lat="39.38818124028918" lon="9.227793213177153"><ele>362.0</ele><time>2026-04-20T15:15:21Z</time></trkpt><trkpt lat="39.38817319562667" lon="9.227904786922021"><ele>362.0</ele><time>2026-04-20T15:15:23Z</time></trkpt><trkpt lat="39.38815438807075" lon="9.228010452078742"><ele>362.0</ele><time>2026-04-20T15:15:26Z</time></trkpt><trkpt lat="39.38812716985997" lon="9.228094262199704"><ele>363.6666666666667</ele><time>2026-04-20T15:15:28Z</time></trkpt><trkpt lat="39.38809983970582" lon="9.228174828263422"><ele>365.33333333333337</ele><time>2026-04-20T15:15:31Z</time></trkpt><trkpt lat="39.38806985830377" lon="9.228274489857093"><ele>367.0</ele><time>2026-04-20T15:15:33Z</time></trkpt><trkpt lat="39.388027773660646" lon="9.22836610464064"><ele>368.6666666666667</ele><time>2026-04-20T15:15:36Z</time></trkpt><trkpt lat="39.38796923988291" lon="9.228449912011994"><ele>370.3333333333333</ele><time>2026-04-20T15:15:38Z</time></trkpt><trkpt lat="39.38792062572858" lon="9.228532137102622"><ele>372.0</ele><time>2026-04-20T15:15:40Z</time></trkpt><trkpt lat="39.387850231799526" lon="9.228733206819227"><ele>371.3333333333333</ele><time>2026-04-20T15:15:41Z</time></trkpt><trkpt lat="39.38776040349222" lon="9.228839000870405"><ele>370.6666666666667</ele><time>2026-04-20T15:15:43Z</time></trkpt><trkpt lat="39.387713886220695" lon="9.22889977240405"><ele>370.0</ele><time>2026-04-20T15:15:44Z</time></trkpt><trkpt lat="39.38766278956611" lon="9.228949283628005"><ele>369.33333333333337</ele><time>2026-04-20T15:15:45Z</time></trkpt><trkpt lat="39.38760962104222" lon="9.228998308479321"><ele>368.6666666666667</ele><time>2026-04-20T15:15:46Z</time></trkpt><trkpt lat="39.387537156685624" lon="9.229050410779312"><ele>368.0</ele><time>2026-04-20T15:15:47Z</time></trkpt><trkpt lat="39.38745556795897" lon="9.22903558067971"><ele>368.0</ele><time>2026-04-20T15:15:48Z</time></trkpt><trkpt lat="39.38734398371439" lon="9.228978186051126"><ele>368.0</ele><time>2026-04-20T15:15:50Z</time></trkpt><trkpt lat="39.3872787795345" lon="9.228916026471358"><ele>368.0</ele><time>2026-04-20T15:15:51Z</time></trkpt><trkpt lat="39.38719669570044" lon="9.228835239663798"><ele>368.0</ele><time>2026-04-20T15:15:52Z</time></trkpt><trkpt lat="39.38711315683664" lon="9.228751851162416"><ele>368.0</ele><time>2026-04-20T15:15:53Z</time></trkpt><trkpt lat="39.38702557181639" lon="9.228672834889274"><ele>363.79999999999995</ele><time>2026-04-20T15:15:54Z</time></trkpt><trkpt lat="39.38696625386916" lon="9.228581935898497"><ele>359.6</ele><time>2026-04-20T15:15:55Z</time></trkpt><trkpt lat="39.38689375898175" lon="9.228459785064386"><ele>355.4</ele><time>2026-04-20T15:15:56Z</time></trkpt><trkpt lat="39.38683365168119" lon="9.228320848554125"><ele>351.20000000000005</ele><time>2026-04-20T15:15:57Z</time></trkpt><trkpt lat="39.386776172371285" lon="9.228218151025995"><ele>347.0</ele><time>2026-04-20T15:15:58Z</time></trkpt><trkpt lat="39.386729379376845" lon="9.228143446628064"><ele>347.0</ele><time>2026-04-20T15:15:59Z</time></trkpt><trkpt lat="39.38665911527403" lon="9.228082970090426"><ele>347.0</ele><time>2026-04-20T15:16:01Z</time></trkpt><trkpt lat="39.3866292658839" lon="9.228003444204662"><ele>347.0</ele><time>2026-04-20T15:16:04Z</time></trkpt><trkpt lat="39.386693584594674" lon="9.227983894358838"><ele>347.0</ele><time>2026-04-20T15:16:05Z</time></trkpt><trkpt lat="39.38677509410064" lon="9.228033995336807"><ele>347.0</ele><time>2026-04-20T15:16:07Z</time></trkpt><trkpt lat="39.386875503332966" lon="9.228129263204282"><ele>347.0</ele><time>2026-04-20T15:16:09Z</time></trkpt><trkpt lat="39.38697241489092" lon="9.228222073702755"><ele>347.0</ele><time>2026-04-20T15:16:11Z</time></trkpt><trkpt lat="39.38702714458151" lon="9.228279827828581"><ele>347.0</ele><time>2026-04-20T15:16:12Z</time></trkpt><trkpt lat="39.38709403310879" lon="9.2283280243268"><ele>347.0</ele><time>2026-04-20T15:16:13Z</time></trkpt><trkpt lat="39.387156829884816" lon="9.228375046171486"><ele>347.0</ele><time>2026-04-20T15:16:14Z</time></trkpt><trkpt lat="39.38726343768359" lon="9.228378432637498"><ele>347.0</ele><time>2026-04-20T15:16:16Z</time></trkpt><trkpt lat="39.38733723920809" lon="9.228319852700599"><ele>347.0</ele><time>2026-04-20T15:16:18Z</time></trkpt><trkpt lat="39.3873707363076" lon="9.228175890291363"><ele>346.1666666666667</ele><time>2026-04-20T15:16:20Z</time></trkpt><trkpt lat="39.38734345090126" lon="9.228020445041688"><ele>345.33333333333337</ele><time>2026-04-20T15:16:22Z</time></trkpt><trkpt lat="39.387325927601566" lon="9.227936393144411"><ele>344.5</ele><time>2026-04-20T15:16:23Z</time></trkpt><trkpt lat="39.38730657197858" lon="9.227836751519765"><ele>343.6666666666667</ele><time>2026-04-20T15:16:24Z</time></trkpt><trkpt lat="39.387272166901504" lon="9.227727974526962"><ele>342.8333333333333</ele><time>2026-04-20T15:16:25Z</time></trkpt><trkpt lat="39.38723818429272" lon="9.22763203453514"><ele>342.0</ele><time>2026-04-20T15:16:26Z</time></trkpt><trkpt lat="39.38720247479676" lon="9.227547572263495"><ele>340.0</ele><time>2026-04-20T15:16:27Z</time></trkpt><trkpt lat="39.38717565955572" lon="9.227466862133666"><ele>338.0</ele><time>2026-04-20T15:16:28Z</time></trkpt><trkpt lat="39.38712710021132" lon="9.227384772964392"><ele>336.0</ele><time>2026-04-20T15:16:29Z</time></trkpt><trkpt lat="39.38706882209299" lon="9.227306256015288"><ele>334.0</ele><time>2026-04-20T15:16:30Z</time></trkpt><trkpt lat="39.38700579937921" lon="9.227240600936984"><ele>332.0</ele><time>2026-04-20T15:16:31Z</time></trkpt><trkpt lat="39.38694969689449" lon="9.227155639038344"><ele>330.0</ele><time>2026-04-20T15:16:32Z</time></trkpt><trkpt lat="39.38687498432549" lon="9.227094790686053"><ele>328.0</ele><time>2026-04-20T15:16:33Z</time></trkpt><trkpt lat="39.3868036466302" lon="9.227019745539865"><ele>326.0</ele><time>2026-04-20T15:16:34Z</time></trkpt><trkpt lat="39.386739643331985" lon="9.226924220498148"><ele>324.0</ele><time>2026-04-20T15:16:35Z</time></trkpt><trkpt lat="39.38667019913443" lon="9.226821784891117"><ele>322.0</ele><time>2026-04-20T15:16:36Z</time></trkpt><trkpt lat="39.386598286547894" lon="9.226711933862633"><ele>320.0</ele><time>2026-04-20T15:16:37Z</time></trkpt><trkpt lat="39.386541616775986" lon="9.226617029104336"><ele>320.0</ele><time>2026-04-20T15:16:38Z</time></trkpt><trkpt lat="39.386502711553774" lon="9.226512855568917"><ele>320.0</ele><time>2026-04-20T15:16:39Z</time></trkpt><trkpt lat="39.38646083720487" lon="9.226426528170013"><ele>320.0</ele><time>2026-04-20T15:16:40Z</time></trkpt><trkpt lat="39.38641375629438" lon="9.22635327834511"><ele>320.0</ele><time>2026-04-20T15:16:41Z</time></trkpt><trkpt lat="39.38634158232695" lon="9.226297581881001"><ele>320.0</ele><time>2026-04-20T15:16:42Z</time></trkpt><trkpt lat="39.386250504530565" lon="9.226260721346874"><ele>320.0</ele><time>2026-04-20T15:16:43Z</time></trkpt><trkpt lat="39.38615506406532" lon="9.226224643043794"><ele>318.0</ele><time>2026-04-20T15:16:44Z</time></trkpt><trkpt lat="39.38607506906963" lon="9.226162512449918"><ele>316.0</ele><time>2026-04-20T15:16:45Z</time></trkpt><trkpt lat="39.3859833807948" lon="9.226114048529151"><ele>314.0</ele><time>2026-04-20T15:16:46Z</time></trkpt><trkpt lat="39.38589869405089" lon="9.226049320838117"><ele>312.0</ele><time>2026-04-20T15:16:47Z</time></trkpt><trkpt lat="39.38581802184859" lon="9.225957089585801"><ele>310.0</ele><time>2026-04-20T15:16:48Z</time></trkpt><trkpt lat="39.38574414077082" lon="9.225856371373842"><ele>310.0</ele><time>2026-04-20T15:16:49Z</time></trkpt><trkpt lat="39.385665434194095" lon="9.225767481350763"><ele>310.0</ele><time>2026-04-20T15:16:50Z</time></trkpt><trkpt lat="39.3855874425018" lon="9.225683746467745"><ele>310.0</ele><time>2026-04-20T15:16:51Z</time></trkpt><trkpt lat="39.38549619838466" lon="9.22562844914887"><ele>310.0</ele><time>2026-04-20T15:16:52Z</time></trkpt><trkpt lat="39.385406354138446" lon="9.22558175333263"><ele>310.0</ele><time>2026-04-20T15:16:53Z</time></trkpt><trkpt lat="39.385312032320336" lon="9.22555610896347"><ele>308.6</ele><time>2026-04-20T15:16:54Z</time></trkpt><trkpt lat="39.38521702227693" lon="9.225533371492912"><ele>307.2</ele><time>2026-04-20T15:16:55Z</time></trkpt><trkpt lat="39.3851216513271" lon="9.225498983109237"><ele>305.8</ele><time>2026-04-20T15:16:56Z</time></trkpt><trkpt lat="39.38503062664244" lon="9.225450812040618"><ele>304.4</ele><time>2026-04-20T15:16:57Z</time></trkpt><trkpt lat="39.384942171604344" lon="9.225403736265216"><ele>303.0</ele><time>2026-04-20T15:16:58Z</time></trkpt><trkpt lat="39.384866435308105" lon="9.225335360366135"><ele>303.0</ele><time>2026-04-20T15:16:59Z</time></trkpt><trkpt lat="39.38479089179701" lon="9.225247031328442"><ele>303.0</ele><time>2026-04-20T15:17:00Z</time></trkpt><trkpt lat="39.38471815126868" lon="9.225136531965633"><ele>303.0</ele><time>2026-04-20T15:17:01Z</time></trkpt><trkpt lat="39.38463271892868" lon="9.22502230997672"><ele>303.0</ele><time>2026-04-20T15:17:02Z</time></trkpt><trkpt lat="39.38454750291399" lon="9.224924036857141"><ele>302.4</ele><time>2026-04-20T15:17:03Z</time></trkpt><trkpt lat="39.38447803684489" lon="9.22481850841526"><ele>301.8</ele><time>2026-04-20T15:17:04Z</time></trkpt><trkpt lat="39.38440735086544" lon="9.224712463648697"><ele>301.2</ele><time>2026-04-20T15:17:05Z</time></trkpt><trkpt lat="39.38434816321347" lon="9.22459979516507"><ele>300.6</ele><time>2026-04-20T15:17:06Z</time></trkpt><trkpt lat="39.38429972771642" lon="9.224479897653602"><ele>300.0</ele><time>2026-04-20T15:17:07Z</time></trkpt><trkpt lat="39.38426768824763" lon="9.224347430154571"><ele>299.4</ele><time>2026-04-20T15:17:08Z</time></trkpt><trkpt lat="39.38423577318855" lon="9.224223603939539"><ele>298.8</ele><time>2026-04-20T15:17:09Z</time></trkpt><trkpt lat="39.38419411800569" lon="9.224100821791628"><ele>298.2</ele><time>2026-04-20T15:17:10Z</time></trkpt><trkpt lat="39.38412487246815" lon="9.223995754616956"><ele>297.6</ele><time>2026-04-20T15:17:11Z</time></trkpt><trkpt lat="39.384069743229965" lon="9.223888730454146"><ele>297.0</ele><time>2026-04-20T15:17:12Z</time></trkpt><trkpt lat="39.38401145404571" lon="9.223781705165525"><ele>295.8</ele><time>2026-04-20T15:17:13Z</time></trkpt><trkpt lat="39.383959845698215" lon="9.22368125606083"><ele>294.6</ele><time>2026-04-20T15:17:14Z</time></trkpt><trkpt lat="39.38387501521845" lon="9.223629002083682"><ele>293.40000000000003</ele><time>2026-04-20T15:17:15Z</time></trkpt><trkpt lat="39.383793863898156" lon="9.223568508873617"><ele>292.2</ele><time>2026-04-20T15:17:16Z</time></trkpt><trkpt lat="39.38371984950364" lon="9.223495789842623"><ele>291.0</ele><time>2026-04-20T15:17:17Z</time></trkpt><trkpt lat="39.38362835659527" lon="9.22344643285336"><ele>291.0</ele><time>2026-04-20T15:17:18Z</time></trkpt><trkpt lat="39.38353871518677" lon="9.223387653910933"><ele>291.0</ele><time>2026-04-20T15:17:19Z</time></trkpt><trkpt lat="39.383462313698416" lon="9.223317465033803"><ele>291.0</ele><time>2026-04-20T15:17:20Z</time></trkpt><trkpt lat="39.38338423929392" lon="9.223249478362655"><ele>291.0</ele><time>2026-04-20T15:17:21Z</time></trkpt><trkpt lat="39.38331381666659" lon="9.223169934375361"><ele>291.0</ele><time>2026-04-20T15:17:22Z</time></trkpt><trkpt lat="39.38324165110364" lon="9.223090705689595"><ele>290.40000000000003</ele><time>2026-04-20T15:17:23Z</time></trkpt><trkpt lat="39.38317340817682" lon="9.223012121893051"><ele>289.8</ele><time>2026-04-20T15:17:24Z</time></trkpt><trkpt lat="39.38310133465795" lon="9.22293197875425"><ele>289.20000000000005</ele><time>2026-04-20T15:17:25Z</time></trkpt><trkpt lat="39.3830226709232" lon="9.222851260847069"><ele>288.6</ele><time>2026-04-20T15:17:26Z</time></trkpt><trkpt lat="39.38295759988871" lon="9.222762693931399"><ele>288.0</ele><time>2026-04-20T15:17:27Z</time></trkpt><trkpt lat="39.38287558722225" lon="9.222704064032447"><ele>288.0</ele><time>2026-04-20T15:17:28Z</time></trkpt><trkpt lat="39.382808805270926" lon="9.222603259861684"><ele>288.0</ele><time>2026-04-20T15:17:29Z</time></trkpt><trkpt lat="39.382752550138875" lon="9.222508664714459"><ele>288.0</ele><time>2026-04-20T15:17:30Z</time></trkpt><trkpt lat="39.38270422291417" lon="9.22241933522651"><ele>288.0</ele><time>2026-04-20T15:17:31Z</time></trkpt><trkpt lat="39.38266349933547" lon="9.222322539021608"><ele>288.0</ele><time>2026-04-20T15:17:32Z</time></trkpt><trkpt lat="39.38262920042785" lon="9.222221276164467"><ele>287.8</ele><time>2026-04-20T15:17:33Z</time></trkpt><trkpt lat="39.38257761134502" lon="9.22212869304257"><ele>287.6</ele><time>2026-04-20T15:17:34Z</time></trkpt><trkpt lat="39.38249813922255" lon="9.22206330681642"><ele>287.4</ele><time>2026-04-20T15:17:35Z</time></trkpt><trkpt lat="39.38241113347228" lon="9.222010088917452"><ele>287.2</ele><time>2026-04-20T15:17:36Z</time></trkpt><trkpt lat="39.38233273088828" lon="9.221964213453203"><ele>287.0</ele><time>2026-04-20T15:17:37Z</time></trkpt><trkpt lat="39.38225501594581" lon="9.221909095248764"><ele>287.0</ele><time>2026-04-20T15:17:38Z</time></trkpt><trkpt lat="39.382188227003326" lon="9.221828248338099"><ele>287.0</ele><time>2026-04-20T15:17:39Z</time></trkpt><trkpt lat="39.38212952306951" lon="9.221737165164141"><ele>287.0</ele><time>2026-04-20T15:17:40Z</time></trkpt><trkpt lat="39.38208368858277" lon="9.22163485567199"><ele>287.0</ele><time>2026-04-20T15:17:41Z</time></trkpt><trkpt lat="39.382031365955875" lon="9.221545624036427"><ele>287.0</ele><time>2026-04-20T15:17:42Z</time></trkpt><trkpt lat="39.381982054246706" lon="9.221444758858883"><ele>284.8</ele><time>2026-04-20T15:17:43Z</time></trkpt><trkpt lat="39.381930087469335" lon="9.221348098912777"><ele>282.6</ele><time>2026-04-20T15:17:44Z</time></trkpt><trkpt lat="39.38189004110456" lon="9.221249920268697"><ele>280.40000000000003</ele><time>2026-04-20T15:17:45Z</time></trkpt><trkpt lat="39.38185083209686" lon="9.221148386831551"><ele>278.2</ele><time>2026-04-20T15:17:46Z</time></trkpt><trkpt lat="39.381802302155016" lon="9.221040862035368"><ele>276.0</ele><time>2026-04-20T15:17:47Z</time></trkpt><trkpt lat="39.38174096824635" lon="9.22094964020137"><ele>276.0</ele><time>2026-04-20T15:17:48Z</time></trkpt><trkpt lat="39.38165539897688" lon="9.220880295298546"><ele>276.0</ele><time>2026-04-20T15:17:49Z</time></trkpt><trkpt lat="39.38156495183028" lon="9.220826694284874"><ele>276.0</ele><time>2026-04-20T15:17:50Z</time></trkpt><trkpt lat="39.38147481684479" lon="9.220762511628942"><ele>276.0</ele><time>2026-04-20T15:17:51Z</time></trkpt><trkpt lat="39.3813878026111" lon="9.220705018560764"><ele>276.0</ele><time>2026-04-20T15:17:52Z</time></trkpt><trkpt lat="39.38128736774103" lon="9.220660424970108"><ele>274.6666666666667</ele><time>2026-04-20T15:17:53Z</time></trkpt><trkpt lat="39.381201183661425" lon="9.220616587816481"><ele>273.3333333333333</ele><time>2026-04-20T15:17:54Z</time></trkpt><trkpt lat="39.38111902217457" lon="9.220572872607761"><ele>272.0</ele><time>2026-04-20T15:17:55Z</time></trkpt><trkpt lat="39.38104986854893" lon="9.220510463262643"><ele>270.66666666666663</ele><time>2026-04-20T15:17:56Z</time></trkpt><trkpt lat="39.38096769833989" lon="9.22048181206693"><ele>269.3333333333333</ele><time>2026-04-20T15:17:57Z</time></trkpt><trkpt lat="39.38088165917921" lon="9.22047298526645"><ele>268.0</ele><time>2026-04-20T15:17:58Z</time></trkpt><trkpt lat="39.38079497036317" lon="9.220478748318008"><ele>268.0</ele><time>2026-04-20T15:17:59Z</time></trkpt><trkpt lat="39.380714708175255" lon="9.220478748715777"><ele>268.0</ele><time>2026-04-20T15:18:00Z</time></trkpt><trkpt lat="39.38064742758612" lon="9.22047114755923"><ele>268.0</ele><time>2026-04-20T15:18:01Z</time></trkpt><trkpt lat="39.38055695936134" lon="9.22040429318771"><ele>268.0</ele><time>2026-04-20T15:18:03Z</time></trkpt><trkpt lat="39.38051944771059" lon="9.220329837470533"><ele>268.0</ele><time>2026-04-20T15:18:05Z</time></trkpt><trkpt lat="39.380471655410574" lon="9.220229607310362"><ele>268.0</ele><time>2026-04-20T15:18:07Z</time></trkpt><trkpt lat="39.38044764531316" lon="9.220109642980143"><ele>268.6</ele><time>2026-04-20T15:18:09Z</time></trkpt><trkpt lat="39.38040733738141" lon="9.220004923092159"><ele>269.20000000000005</ele><time>2026-04-20T15:18:11Z</time></trkpt><trkpt lat="39.38036374441019" lon="9.219896799890916"><ele>269.8</ele><time>2026-04-20T15:18:13Z</time></trkpt><trkpt lat="39.38033092894128" lon="9.219790025683555"><ele>270.40000000000003</ele><time>2026-04-20T15:18:15Z</time></trkpt><trkpt lat="39.38028609845712" lon="9.219680911086472"><ele>271.0</ele><time>2026-04-20T15:18:17Z</time></trkpt><trkpt lat="39.38024819982165" lon="9.219578550416983"><ele>271.16666666666663</ele><time>2026-04-20T15:18:19Z</time></trkpt><trkpt lat="39.380213157813586" lon="9.219472076985618"><ele>271.3333333333333</ele><time>2026-04-20T15:18:21Z</time></trkpt><trkpt lat="39.38017605418476" lon="9.219382110328796"><ele>271.5</ele><time>2026-04-20T15:18:23Z</time></trkpt><trkpt lat="39.380133315531054" lon="9.219302409730197"><ele>271.6666666666667</ele><time>2026-04-20T15:18:25Z</time></trkpt><trkpt lat="39.38009069257199" lon="9.21921951401643"><ele>271.83333333333337</ele><time>2026-04-20T15:18:27Z</time></trkpt><trkpt lat="39.38004857498683" lon="9.219136295386988"><ele>272.0</ele><time>2026-04-20T15:18:29Z</time></trkpt><trkpt lat="39.380006274585426" lon="9.219055525154156"><ele>272.0</ele><time>2026-04-20T15:18:31Z</time></trkpt><trkpt lat="39.37995112892558" lon="9.218976716755494"><ele>272.0</ele><time>2026-04-20T15:18:33Z</time></trkpt><trkpt lat="39.37990325853339" lon="9.21890833525826"><ele>272.0</ele><time>2026-04-20T15:18:35Z</time></trkpt><trkpt lat="39.37988389843909" lon="9.218808591520935"><ele>272.0</ele><time>2026-04-20T15:18:39Z</time></trkpt><trkpt lat="39.37984372878219" lon="9.21870852805502"><ele>272.0</ele><time>2026-04-20T15:18:42Z</time></trkpt><trkpt lat="39.379826334379054" lon="9.218601914195125"><ele>272.0</ele><time>2026-04-20T15:18:44Z</time></trkpt><trkpt lat="39.37981208717419" lon="9.218497292889342"><ele>272.0</ele><time>2026-04-20T15:18:46Z</time></trkpt><trkpt lat="39.37978159444773" lon="9.218398738326655"><ele>272.0</ele><time>2026-04-20T15:18:49Z</time></trkpt><trkpt lat="39.37977278093946" lon="9.218298582248398"><ele>272.0</ele><time>2026-04-20T15:18:51Z</time></trkpt><trkpt lat="39.37974379771275" lon="9.218183220354412"><ele>272.0</ele><time>2026-04-20T15:18:54Z</time></trkpt><trkpt lat="39.37971900525816" lon="9.218065448012542"><ele>272.0</ele><time>2026-04-20T15:18:57Z</time></trkpt><trkpt lat="39.3797172271639" lon="9.217967558221819"><ele>272.0</ele><time>2026-04-20T15:18:59Z</time></trkpt><trkpt lat="39.3797101441194" lon="9.217868132587926"><ele>272.5</ele><time>2026-04-20T15:19:02Z</time></trkpt><trkpt lat="39.37968609510028" lon="9.217781172802043"><ele>273.0</ele><time>2026-04-20T15:19:04Z</time></trkpt><trkpt lat="39.379681371738" lon="9.217698009521879"><ele>273.5</ele><time>2026-04-20T15:19:07Z</time></trkpt><trkpt lat="39.379670204410125" lon="9.217612127437162"><ele>274.0</ele><time>2026-04-20T15:19:10Z</time></trkpt><trkpt lat="39.37965828891473" lon="9.217509720021495"><ele>274.5</ele><time>2026-04-20T15:19:13Z</time></trkpt><trkpt lat="39.37963703014919" lon="9.217404335043602"><ele>275.0</ele><time>2026-04-20T15:19:16Z</time></trkpt><trkpt lat="39.379635630570505" lon="9.21729525198233"><ele>276.5</ele><time>2026-04-20T15:19:19Z</time></trkpt><trkpt lat="39.379620134142804" lon="9.217196429621685"><ele>278.0</ele><time>2026-04-20T15:19:22Z</time></trkpt><trkpt lat="39.37959732580522" lon="9.217102305290238"><ele>279.5</ele><time>2026-04-20T15:19:25Z</time></trkpt><trkpt lat="39.37961869594399" lon="9.217001304646814"><ele>281.0</ele><time>2026-04-20T15:19:28Z</time></trkpt><trkpt lat="39.37958948377285" lon="9.216911474451527"><ele>282.5</ele><time>2026-04-20T15:19:32Z</time></trkpt><trkpt lat="39.37956192135178" lon="9.21683342778953"><ele>284.0</ele><time>2026-04-20T15:19:35Z</time></trkpt><trkpt lat="39.37955919194058" lon="9.216734784520241"><ele>284.0</ele><time>2026-04-20T15:19:39Z</time></trkpt><trkpt lat="39.37951810057463" lon="9.216641102916812"><ele>284.0</ele><time>2026-04-20T15:19:42Z</time></trkpt><trkpt lat="39.379485839668575" lon="9.216535504653148"><ele>284.0</ele><time>2026-04-20T15:19:45Z</time></trkpt><trkpt lat="39.37943123038087" lon="9.216448100236153"><ele>284.0</ele><time>2026-04-20T15:19:48Z</time></trkpt><trkpt lat="39.37939452021907" lon="9.216362011295093"><ele>284.0</ele><time>2026-04-20T15:19:51Z</time></trkpt><trkpt lat="39.37933783903928" lon="9.216286872652413"><ele>284.0</ele><time>2026-04-20T15:19:54Z</time></trkpt><trkpt lat="39.37929653960948" lon="9.216215695933133"><ele>283.83333333333337</ele><time>2026-04-20T15:19:57Z</time></trkpt><trkpt lat="39.379231459130956" lon="9.216126538296901"><ele>283.6666666666667</ele><time>2026-04-20T15:20:00Z</time></trkpt><trkpt lat="39.379171167784314" lon="9.216053686140842"><ele>283.5</ele><time>2026-04-20T15:20:02Z</time></trkpt><trkpt lat="39.37910875160455" lon="9.215982692902818"><ele>283.3333333333333</ele><time>2026-04-20T15:20:04Z</time></trkpt><trkpt lat="39.37904257787764" lon="9.215912614963722"><ele>283.16666666666663</ele><time>2026-04-20T15:20:06Z</time></trkpt><trkpt lat="39.378974978300654" lon="9.21583399959824"><ele>283.0</ele><time>2026-04-20T15:20:08Z</time></trkpt><trkpt lat="39.3788961998642" lon="9.215748076392549"><ele>282.2</ele><time>2026-04-20T15:20:10Z</time></trkpt><trkpt lat="39.37882240147211" lon="9.215650176989648"><ele>281.4</ele><time>2026-04-20T15:20:12Z</time></trkpt><trkpt lat="39.37875588808732" lon="9.215530742212874"><ele>280.59999999999997</ele><time>2026-04-20T15:20:14Z</time></trkpt><trkpt lat="39.378709566761906" lon="9.215401729250491"><ele>279.8</ele><time>2026-04-20T15:20:16Z</time></trkpt><trkpt lat="39.378655464142625" lon="9.215273688539675"><ele>279.0</ele><time>2026-04-20T15:20:18Z</time></trkpt><trkpt lat="39.378677702704564" lon="9.215103751154365"><ele>279.0</ele><time>2026-04-20T15:20:20Z</time></trkpt><trkpt lat="39.37871007148645" lon="9.215026685478133"><ele>279.0</ele><time>2026-04-20T15:20:21Z</time></trkpt><trkpt lat="39.378728274534694" lon="9.214858364901671"><ele>279.0</ele><time>2026-04-20T15:20:23Z</time></trkpt><trkpt lat="39.378756648906524" lon="9.214772937893775"><ele>279.0</ele><time>2026-04-20T15:20:24Z</time></trkpt><trkpt lat="39.37876471110905" lon="9.214679893823298"><ele>279.0</ele><time>2026-04-20T15:20:25Z</time></trkpt><trkpt lat="39.37877372284889" lon="9.214585651775698"><ele>279.0</ele><time>2026-04-20T15:20:26Z</time></trkpt><trkpt lat="39.37878697319963" lon="9.214494373677521"><ele>278.57142857142856</ele><time>2026-04-20T15:20:27Z</time></trkpt><trkpt lat="39.37880304338531" lon="9.214403428393076"><ele>278.1428571428571</ele><time>2026-04-20T15:20:28Z</time></trkpt><trkpt lat="39.37882492900331" lon="9.214313049118063"><ele>277.7142857142857</ele><time>2026-04-20T15:20:29Z</time></trkpt><trkpt lat="39.378840675903774" lon="9.21421662095389"><ele>277.2857142857143</ele><time>2026-04-20T15:20:30Z</time></trkpt><trkpt lat="39.37884917705277" lon="9.21412222170402"><ele>276.8571428571429</ele><time>2026-04-20T15:20:31Z</time></trkpt><trkpt lat="39.37885482787033" lon="9.214031078186949"><ele>276.42857142857144</ele><time>2026-04-20T15:20:32Z</time></trkpt><trkpt lat="39.37885769767351" lon="9.213946224107254"><ele>276.0</ele><time>2026-04-20T15:20:33Z</time></trkpt><trkpt lat="39.37887993367792" lon="9.21380979850449"><ele>275.1666666666667</ele><time>2026-04-20T15:20:35Z</time></trkpt><trkpt lat="39.3789021661785" lon="9.21373013775549"><ele>274.3333333333333</ele><time>2026-04-20T15:20:36Z</time></trkpt><trkpt lat="39.37892235364194" lon="9.213648432108455"><ele>273.5</ele><time>2026-04-20T15:20:37Z</time></trkpt><trkpt lat="39.378956554924514" lon="9.213511220545996"><ele>272.66666666666663</ele><time>2026-04-20T15:20:39Z</time></trkpt><trkpt lat="39.378962167937686" lon="9.213406196917077"><ele>271.8333333333333</ele><time>2026-04-20T15:20:41Z</time></trkpt><trkpt lat="39.37897812468696" lon="9.213305157668874"><ele>271.0</ele><time>2026-04-20T15:20:43Z</time></trkpt><trkpt lat="39.3790096764217" lon="9.213216090207345"><ele>270.57142857142856</ele><time>2026-04-20T15:20:45Z</time></trkpt><trkpt lat="39.379025909211876" lon="9.213126857420498"><ele>270.14285714285717</ele><time>2026-04-20T15:20:47Z</time></trkpt><trkpt lat="39.37902472594128" lon="9.213038490497455"><ele>269.7142857142857</ele><time>2026-04-20T15:20:49Z</time></trkpt><trkpt lat="39.37903995069651" lon="9.212948486342196"><ele>269.2857142857143</ele><time>2026-04-20T15:20:51Z</time></trkpt><trkpt lat="39.37906230126248" lon="9.212865087079454"><ele>268.85714285714283</ele><time>2026-04-20T15:20:53Z</time></trkpt><trkpt lat="39.37907383312446" lon="9.212773631176361"><ele>268.42857142857144</ele><time>2026-04-20T15:20:55Z</time></trkpt><trkpt lat="39.379110645883216" lon="9.21269204379295"><ele>268.0</ele><time>2026-04-20T15:20:58Z</time></trkpt><trkpt lat="39.3791309757308" lon="9.212580212860427"><ele>268.0</ele><time>2026-04-20T15:21:01Z</time></trkpt><trkpt lat="39.37914946963141" lon="9.212497056162192"><ele>268.0</ele><time>2026-04-20T15:21:03Z</time></trkpt><trkpt lat="39.379164729747586" lon="9.212377263928547"><ele>268.0</ele><time>2026-04-20T15:21:05Z</time></trkpt><trkpt lat="39.37917938636217" lon="9.212260536672117"><ele>268.0</ele><time>2026-04-20T15:21:07Z</time></trkpt><trkpt lat="39.37921232361391" lon="9.212145865831062"><ele>268.0</ele><time>2026-04-20T15:21:09Z</time></trkpt><trkpt lat="39.37921988094439" lon="9.212028722330466"><ele>268.0</ele><time>2026-04-20T15:21:11Z</time></trkpt><trkpt lat="39.379251047024596" lon="9.211909955572175"><ele>267.6</ele><time>2026-04-20T15:21:13Z</time></trkpt><trkpt lat="39.379288269650836" lon="9.211788450285935"><ele>267.20000000000005</ele><time>2026-04-20T15:21:15Z</time></trkpt><trkpt lat="39.37931316382776" lon="9.211648157792085"><ele>266.8</ele><time>2026-04-20T15:21:17Z</time></trkpt><trkpt lat="39.379348552443325" lon="9.211520527017042"><ele>266.40000000000003</ele><time>2026-04-20T15:21:19Z</time></trkpt><trkpt lat="39.37938698551685" lon="9.21138451207489"><ele>266.0</ele><time>2026-04-20T15:21:21Z</time></trkpt><trkpt lat="39.379425286611976" lon="9.211248964276452"><ele>265.5</ele><time>2026-04-20T15:21:23Z</time></trkpt><trkpt lat="39.37946526690735" lon="9.211107473674264"><ele>265.0</ele><time>2026-04-20T15:21:25Z</time></trkpt><trkpt lat="39.379505436353895" lon="9.210973901936804"><ele>264.5</ele><time>2026-04-20T15:21:27Z</time></trkpt><trkpt lat="39.37954790310102" lon="9.210835424435391"><ele>264.0</ele><time>2026-04-20T15:21:29Z</time></trkpt><trkpt lat="39.37959485090581" lon="9.210696847486926"><ele>263.6666666666667</ele><time>2026-04-20T15:21:31Z</time></trkpt><trkpt lat="39.37964902602481" lon="9.210581049999895"><ele>263.3333333333333</ele><time>2026-04-20T15:21:33Z</time></trkpt><trkpt lat="39.37967216919557" lon="9.210474346074296"><ele>263.0</ele><time>2026-04-20T15:21:35Z</time></trkpt><trkpt lat="39.37970398605669" lon="9.210382687870892"><ele>262.66666666666663</ele><time>2026-04-20T15:21:37Z</time></trkpt><trkpt lat="39.37974836919066" lon="9.21030027676293"><ele>262.3333333333333</ele><time>2026-04-20T15:21:39Z</time></trkpt><trkpt lat="39.37976834783768" lon="9.210197272270678"><ele>262.0</ele><time>2026-04-20T15:21:41Z</time></trkpt><trkpt lat="39.37978541756845" lon="9.210102958865729"><ele>262.0</ele><time>2026-04-20T15:21:43Z</time></trkpt><trkpt lat="39.37980224830203" lon="9.209996480087366"><ele>262.0</ele><time>2026-04-20T15:21:45Z</time></trkpt><trkpt lat="39.37982943598213" lon="9.209883751727869"><ele>262.0</ele><time>2026-04-20T15:21:47Z</time></trkpt><trkpt lat="39.379849610584124" lon="9.209776227578605"><ele>262.0</ele><time>2026-04-20T15:21:49Z</time></trkpt><trkpt lat="39.37983943613941" lon="9.20968949593082"><ele>262.0</ele><time>2026-04-20T15:21:51Z</time></trkpt><trkpt lat="39.37984328070351" lon="9.209588111031787"><ele>262.0</ele><time>2026-04-20T15:21:54Z</time></trkpt><trkpt lat="39.37984002223129" lon="9.209472979656923"><ele>262.0</ele><time>2026-04-20T15:21:57Z</time></trkpt><trkpt lat="39.37985050462331" lon="9.209349328902116"><ele>262.0</ele><time>2026-04-20T15:22:00Z</time></trkpt><trkpt lat="39.37986842283781" lon="9.20922779906656"><ele>262.0</ele><time>2026-04-20T15:22:03Z</time></trkpt><trkpt lat="39.379855787979366" lon="9.209137060299778"><ele>262.0</ele><time>2026-04-20T15:22:05Z</time></trkpt><trkpt lat="39.379848800319635" lon="9.209036764533469"><ele>262.0</ele><time>2026-04-20T15:22:07Z</time></trkpt><trkpt lat="39.37984462940682" lon="9.208948941661378"><ele>262.0</ele><time>2026-04-20T15:22:09Z</time></trkpt><trkpt lat="39.37984334638012" lon="9.208855910756213"><ele>261.5</ele><time>2026-04-20T15:22:11Z</time></trkpt><trkpt lat="39.37984820074107" lon="9.20876122587023"><ele>261.0</ele><time>2026-04-20T15:22:13Z</time></trkpt><trkpt lat="39.37984723438231" lon="9.20866778345872"><ele>260.5</ele><time>2026-04-20T15:22:15Z</time></trkpt><trkpt lat="39.37986717952839" lon="9.208575425177125"><ele>260.0</ele><time>2026-04-20T15:22:17Z</time></trkpt><trkpt lat="39.37987070676671" lon="9.208481835449362"><ele>259.5</ele><time>2026-04-20T15:22:19Z</time></trkpt><trkpt lat="39.37987940649827" lon="9.208380835207691"><ele>259.0</ele><time>2026-04-20T15:22:21Z</time></trkpt><trkpt lat="39.379884825153304" lon="9.20827119098569"><ele>259.0</ele><time>2026-04-20T15:22:23Z</time></trkpt><trkpt lat="39.37988943882476" lon="9.208161915625475"><ele>259.0</ele><time>2026-04-20T15:22:25Z</time></trkpt><trkpt lat="39.379906109674394" lon="9.208054552824105"><ele>259.0</ele><time>2026-04-20T15:22:27Z</time></trkpt><trkpt lat="39.37990954277391" lon="9.207959776931053"><ele>259.0</ele><time>2026-04-20T15:22:30Z</time></trkpt><trkpt lat="39.379920142315584" lon="9.207866783491104"><ele>259.0</ele><time>2026-04-20T15:22:36Z</time></trkpt><trkpt lat="39.379898994080726" lon="9.207948624472342"><ele>259.0</ele><time>2026-04-20T15:22:44Z</time></trkpt><trkpt lat="39.37987155351101" lon="9.20804236953401"><ele>259.0</ele><time>2026-04-20T15:22:48Z</time></trkpt><trkpt lat="39.379859488508366" lon="9.208130686591296"><ele>259.0</ele><time>2026-04-20T15:22:51Z</time></trkpt><trkpt lat="39.37985254162455" lon="9.20821787510791"><ele>259.0</ele><time>2026-04-20T15:22:54Z</time></trkpt><trkpt lat="39.379844061395026" lon="9.208305235747307"><ele>259.0</ele><time>2026-04-20T15:22:57Z</time></trkpt><trkpt lat="39.379840630056016" lon="9.208404225624957"><ele>259.0</ele><time>2026-04-20T15:23:00Z</time></trkpt><trkpt lat="39.379837180094455" lon="9.208497379544522"><ele>259.0</ele><time>2026-04-20T15:23:03Z</time></trkpt><trkpt lat="39.37982442619059" lon="9.208598799737684"><ele>259.0</ele><time>2026-04-20T15:23:06Z</time></trkpt><trkpt lat="39.3798130391416" lon="9.20871044686733"><ele>259.0</ele><time>2026-04-20T15:23:09Z</time></trkpt><trkpt lat="39.37980713508983" lon="9.20882609297419"><ele>259.0</ele><time>2026-04-20T15:23:12Z</time></trkpt><trkpt lat="39.379791638424926" lon="9.208926582644654"><ele>259.0</ele><time>2026-04-20T15:23:15Z</time></trkpt><trkpt lat="39.37978957691663" lon="9.209041939539608"><ele>259.0</ele><time>2026-04-20T15:23:18Z</time></trkpt><trkpt lat="39.37979020140294" lon="9.209168190123904"><ele>259.0</ele><time>2026-04-20T15:23:21Z</time></trkpt><trkpt lat="39.37979229749621" lon="9.209254307646667"><ele>259.0</ele><time>2026-04-20T15:23:23Z</time></trkpt><trkpt lat="39.37979106787934" lon="9.209336182047984"><ele>259.2857142857143</ele><time>2026-04-20T15:23:25Z</time></trkpt><trkpt lat="39.37979213931749" lon="9.209419464408526"><ele>259.57142857142856</ele><time>2026-04-20T15:23:27Z</time></trkpt><trkpt lat="39.37979051827951" lon="9.209508450994514"><ele>259.8571428571429</ele><time>2026-04-20T15:23:29Z</time></trkpt><trkpt lat="39.379792490580144" lon="9.209594875598865"><ele>260.1428571428571</ele><time>2026-04-20T15:23:31Z</time></trkpt><trkpt lat="39.379782204305236" lon="9.209676007393083"><ele>260.42857142857144</ele><time>2026-04-20T15:23:33Z</time></trkpt><trkpt lat="39.37978184196887" lon="9.209758986836935"><ele>260.7142857142857</ele><time>2026-04-20T15:23:35Z</time></trkpt><trkpt lat="39.37978193327401" lon="9.209884036004928"><ele>261.0</ele><time>2026-04-20T15:23:38Z</time></trkpt><trkpt lat="39.37977101283065" lon="9.209968166704254"><ele>261.0</ele><time>2026-04-20T15:23:40Z</time></trkpt><trkpt lat="39.37975500536744" lon="9.210061259288306"><ele>261.0</ele><time>2026-04-20T15:23:42Z</time></trkpt><trkpt lat="39.379737570948905" lon="9.210142775268578"><ele>261.0</ele><time>2026-04-20T15:23:44Z</time></trkpt><trkpt lat="39.379719469666824" lon="9.210229676398459"><ele>261.0</ele><time>2026-04-20T15:23:46Z</time></trkpt><trkpt lat="39.379694688978795" lon="9.210312414272567"><ele>261.0</ele><time>2026-04-20T15:23:48Z</time></trkpt><trkpt lat="39.379664335367494" lon="9.210391722411565"><ele>261.0</ele><time>2026-04-20T15:23:50Z</time></trkpt><trkpt lat="39.37963502607669" lon="9.210475048590581"><ele>261.0</ele><time>2026-04-20T15:23:52Z</time></trkpt><trkpt lat="39.37960996899728" lon="9.210568240011344"><ele>261.14285714285717</ele><time>2026-04-20T15:23:54Z</time></trkpt><trkpt lat="39.37958073772802" lon="9.210657002244917"><ele>261.2857142857143</ele><time>2026-04-20T15:23:56Z</time></trkpt><trkpt lat="39.37955027546637" lon="9.210742791599863"><ele>261.42857142857144</ele><time>2026-04-20T15:23:58Z</time></trkpt><trkpt lat="39.37952127739037" lon="9.210831208289177"><ele>261.57142857142856</ele><time>2026-04-20T15:24:00Z</time></trkpt><trkpt lat="39.37949645629028" lon="9.210925075369856"><ele>261.7142857142857</ele><time>2026-04-20T15:24:02Z</time></trkpt><trkpt lat="39.37947443541299" lon="9.211010198823256"><ele>261.8571428571429</ele><time>2026-04-20T15:24:04Z</time></trkpt><trkpt lat="39.3794459571823" lon="9.211087333382693"><ele>262.0</ele><time>2026-04-20T15:24:06Z</time></trkpt><trkpt lat="39.37941456042229" lon="9.21116933220806"><ele>262.3333333333333</ele><time>2026-04-20T15:24:08Z</time></trkpt><trkpt lat="39.37938057233223" lon="9.21124303227044"><ele>262.66666666666663</ele><time>2026-04-20T15:24:10Z</time></trkpt><trkpt lat="39.37934139917553" lon="9.21134539132525"><ele>263.0</ele><time>2026-04-20T15:24:14Z</time></trkpt><trkpt lat="39.37930360170913" lon="9.211473286378398"><ele>263.3333333333333</ele><time>2026-04-20T15:24:17Z</time></trkpt><trkpt lat="39.3792754657314" lon="9.211570460001816"><ele>263.6666666666667</ele><time>2026-04-20T15:24:20Z</time></trkpt><trkpt lat="39.37924593588118" lon="9.21165896447714"><ele>264.0</ele><time>2026-04-20T15:24:22Z</time></trkpt><trkpt lat="39.37921030129263" lon="9.211782335913037"><ele>264.3333333333333</ele><time>2026-04-20T15:24:25Z</time></trkpt><trkpt lat="39.37919422863713" lon="9.21189438451816"><ele>264.6666666666667</ele><time>2026-04-20T15:24:27Z</time></trkpt><trkpt lat="39.379175623570966" lon="9.211997882160695"><ele>265.0</ele><time>2026-04-20T15:24:29Z</time></trkpt><trkpt lat="39.379160212173495" lon="9.212112829611465"><ele>265.33333333333337</ele><time>2026-04-20T15:24:31Z</time></trkpt><trkpt lat="39.37915186612799" lon="9.212233798108393"><ele>265.6666666666667</ele><time>2026-04-20T15:24:33Z</time></trkpt><trkpt lat="39.37913458981007" lon="9.212336576420476"><ele>266.0</ele><time>2026-04-20T15:24:35Z</time></trkpt><trkpt lat="39.37909717044339" lon="9.212442567089626"><ele>266.2857142857143</ele><time>2026-04-20T15:24:39Z</time></trkpt><trkpt lat="39.379082373713395" lon="9.212538731878439"><ele>266.57142857142856</ele><time>2026-04-20T15:24:41Z</time></trkpt><trkpt lat="39.37906269543564" lon="9.212620019353475"><ele>266.8571428571429</ele><time>2026-04-20T15:24:43Z</time></trkpt><trkpt lat="39.37905341526178" lon="9.212706261333711"><ele>267.1428571428571</ele><time>2026-04-20T15:24:45Z</time></trkpt><trkpt lat="39.3790275745702" lon="9.21278095651382"><ele>267.42857142857144</ele><time>2026-04-20T15:24:47Z</time></trkpt><trkpt lat="39.37901142227003" lon="9.212887148900325"><ele>267.7142857142857</ele><time>2026-04-20T15:24:50Z</time></trkpt><trkpt lat="39.37898493900912" lon="9.212989539926093"><ele>268.0</ele><time>2026-04-20T15:24:53Z</time></trkpt><trkpt lat="39.37896161495479" lon="9.213094543920363"><ele>268.5</ele><time>2026-04-20T15:24:56Z</time></trkpt><trkpt lat="39.378940173669285" lon="9.213212863568856"><ele>269.0</ele><time>2026-04-20T15:24:59Z</time></trkpt><trkpt lat="39.37892624134075" lon="9.213312090079798"><ele>269.5</ele><time>2026-04-20T15:25:02Z</time></trkpt><trkpt lat="39.37891687002514" lon="9.21342368911302"><ele>270.0</ele><time>2026-04-20T15:25:05Z</time></trkpt><trkpt lat="39.37889005040098" lon="9.213539568466835"><ele>270.5</ele><time>2026-04-20T15:25:08Z</time></trkpt><trkpt lat="39.37887545430531" lon="9.213624055744644"><ele>271.0</ele><time>2026-04-20T15:25:11Z</time></trkpt><trkpt lat="39.378856881666515" lon="9.213721348037982"><ele>271.16666666666663</ele><time>2026-04-20T15:25:14Z</time></trkpt><trkpt lat="39.378841607926454" lon="9.213805328541554"><ele>271.3333333333333</ele><time>2026-04-20T15:25:16Z</time></trkpt><trkpt lat="39.3788229077745" lon="9.21389972398062"><ele>271.5</ele><time>2026-04-20T15:25:19Z</time></trkpt><trkpt lat="39.37881218777382" lon="9.214001443527826"><ele>271.6666666666667</ele><time>2026-04-20T15:25:21Z</time></trkpt><trkpt lat="39.378798338573674" lon="9.2141135184123"><ele>271.83333333333337</ele><time>2026-04-20T15:25:24Z</time></trkpt><trkpt lat="39.37876554597374" lon="9.214226740624353"><ele>272.0</ele><time>2026-04-20T15:25:28Z</time></trkpt><trkpt lat="39.37876589718861" lon="9.21431753006995"><ele>272.5</ele><time>2026-04-20T15:25:31Z</time></trkpt><trkpt lat="39.378751825129406" lon="9.214401892541538"><ele>273.0</ele><time>2026-04-20T15:25:33Z</time></trkpt><trkpt lat="39.37873983099812" lon="9.214518088545768"><ele>273.5</ele><time>2026-04-20T15:25:36Z</time></trkpt><trkpt lat="39.37872757659844" lon="9.214617842327025"><ele>274.0</ele><time>2026-04-20T15:25:39Z</time></trkpt><trkpt lat="39.37870590279677" lon="9.214713666186146"><ele>274.5</ele><time>2026-04-20T15:25:42Z</time></trkpt><trkpt lat="39.37869823743495" lon="9.21482851331864"><ele>275.0</ele><time>2026-04-20T15:25:45Z</time></trkpt><trkpt lat="39.37867760612823" lon="9.214932991591928"><ele>275.57142857142856</ele><time>2026-04-20T15:25:49Z</time></trkpt><trkpt lat="39.37864956011034" lon="9.215016664101595"><ele>276.1428571428571</ele><time>2026-04-20T15:25:52Z</time></trkpt><trkpt lat="39.378632916739406" lon="9.2151043572525"><ele>276.71428571428567</ele><time>2026-04-20T15:25:56Z</time></trkpt><trkpt lat="39.37861343445829" lon="9.215197389214588"><ele>277.2857142857143</ele><time>2026-04-20T15:25:59Z</time></trkpt><trkpt lat="39.378581481168716" lon="9.215269396445981"><ele>277.85714285714283</ele><time>2026-04-20T15:26:03Z</time></trkpt><trkpt lat="39.378561638141356" lon="9.21535812357976"><ele>278.4285714285714</ele><time>2026-04-20T15:26:07Z</time></trkpt><trkpt lat="39.37852819657566" lon="9.215431172369096"><ele>279.0</ele><time>2026-04-20T15:26:12Z</time></trkpt><trkpt lat="39.3785296452828" lon="9.215516574601768"><ele>278.99999999999994</ele><time>2026-04-20T15:26:16Z</time></trkpt><trkpt lat="39.37853318864767" lon="9.215612641259469"><ele>279.0</ele><time>2026-04-20T15:26:20Z</time></trkpt><trkpt lat="39.378525473959265" lon="9.215698172343616"><ele>279.0</ele><time>2026-04-20T15:26:24Z</time></trkpt><trkpt lat="39.37848367954214" lon="9.215777983079494"><ele>279.0</ele><time>2026-04-20T15:26:28Z</time></trkpt><trkpt lat="39.3784715415491" lon="9.215878463710105"><ele>279.0</ele><time>2026-04-20T15:26:31Z</time></trkpt><trkpt lat="39.37844009397124" lon="9.215958036161787"><ele>278.99999999999994</ele><time>2026-04-20T15:26:36Z</time></trkpt><trkpt lat="39.37842734772818" lon="9.216046901808522"><ele>279.0</ele><time>2026-04-20T15:26:40Z</time></trkpt><trkpt lat="39.37840381650597" lon="9.216144398026554"><ele>279.57142857142856</ele><time>2026-04-20T15:26:45Z</time></trkpt><trkpt lat="39.37838509767501" lon="9.21624024586758"><ele>280.1428571428571</ele><time>2026-04-20T15:26:50Z</time></trkpt><trkpt lat="39.37836405350279" lon="9.216322788749377"><ele>280.7142857142857</ele><time>2026-04-20T15:26:55Z</time></trkpt><trkpt lat="39.37831844485501" lon="9.216386578158108"><ele>281.2857142857143</ele><time>2026-04-20T15:26:59Z</time></trkpt><trkpt lat="39.37828872793186" lon="9.216462244575503"><ele>281.8571428571429</ele><time>2026-04-20T15:27:03Z</time></trkpt><trkpt lat="39.37825685794218" lon="9.216539143576602"><ele>282.42857142857144</ele><time>2026-04-20T15:27:06Z</time></trkpt><trkpt lat="39.37820968059435" lon="9.216618675969105"><ele>283.0</ele><time>2026-04-20T15:27:10Z</time></trkpt><trkpt lat="39.37818288632984" lon="9.216696635445297"><ele>283.7142857142857</ele><time>2026-04-20T15:27:14Z</time></trkpt><trkpt lat="39.37815415984514" lon="9.216779400814914"><ele>284.42857142857144</ele><time>2026-04-20T15:27:19Z</time></trkpt><trkpt lat="39.378120287374" lon="9.216861191940955"><ele>285.14285714285717</ele><time>2026-04-20T15:27:22Z</time></trkpt><trkpt lat="39.3780828440242" lon="9.216939942832822"><ele>285.8571428571429</ele><time>2026-04-20T15:27:26Z</time></trkpt><trkpt lat="39.37803586493541" lon="9.217010873006767"><ele>286.57142857142856</ele><time>2026-04-20T15:27:30Z</time></trkpt><trkpt lat="39.377971549482695" lon="9.217057711443335"><ele>287.28571428571433</ele><time>2026-04-20T15:27:34Z</time></trkpt><trkpt lat="39.37791457377587" lon="9.217111277618141"><ele>288.0</ele><time>2026-04-20T15:27:37Z</time></trkpt><trkpt lat="39.377859512418375" lon="9.217196495560394"><ele>288.5714285714286</ele><time>2026-04-20T15:27:40Z</time></trkpt><trkpt lat="39.37781789948356" lon="9.21727039907262"><ele>289.14285714285717</ele><time>2026-04-20T15:27:43Z</time></trkpt><trkpt lat="39.377764590412674" lon="9.217326084029981"><ele>289.7142857142857</ele><time>2026-04-20T15:27:46Z</time></trkpt><trkpt lat="39.37768188833566" lon="9.21736445191666"><ele>290.28571428571433</ele><time>2026-04-20T15:27:50Z</time></trkpt><trkpt lat="39.37761065157016" lon="9.217386573478581"><ele>290.8571428571429</ele><time>2026-04-20T15:27:53Z</time></trkpt><trkpt lat="39.37754609317275" lon="9.217406543992432"><ele>291.42857142857144</ele><time>2026-04-20T15:27:56Z</time></trkpt><trkpt lat="39.37748180151484" lon="9.217434168629216"><ele>292.0</ele><time>2026-04-20T15:27:59Z</time></trkpt><trkpt lat="39.3774149601884" lon="9.217461631935109"><ele>292.0</ele><time>2026-04-20T15:28:02Z</time></trkpt><trkpt lat="39.37735174974793" lon="9.217484755081593"><ele>292.0</ele><time>2026-04-20T15:28:05Z</time></trkpt><trkpt lat="39.37728145713912" lon="9.217496406396116"><ele>292.0</ele><time>2026-04-20T15:28:08Z</time></trkpt><trkpt lat="39.37720302325197" lon="9.217538910941078"><ele>292.0</ele><time>2026-04-20T15:28:11Z</time></trkpt><trkpt lat="39.37712094373669" lon="9.217611614501353"><ele>292.0</ele><time>2026-04-20T15:28:14Z</time></trkpt><trkpt lat="39.37705954500704" lon="9.217674652999166"><ele>292.0</ele><time>2026-04-20T15:28:16Z</time></trkpt><trkpt lat="39.376998529841146" lon="9.217736000354853"><ele>292.8333333333333</ele><time>2026-04-20T15:28:18Z</time></trkpt><trkpt lat="39.376916438574206" lon="9.217793065551003"><ele>293.66666666666663</ele><time>2026-04-20T15:28:21Z</time></trkpt><trkpt lat="39.37686320258484" lon="9.21783881347228"><ele>294.5</ele><time>2026-04-20T15:28:23Z</time></trkpt><trkpt lat="39.37679575337333" lon="9.217918423759958"><ele>295.3333333333333</ele><time>2026-04-20T15:28:26Z</time></trkpt><trkpt lat="39.37671111941677" lon="9.21797124153151"><ele>296.1666666666667</ele><time>2026-04-20T15:28:29Z</time></trkpt><trkpt lat="39.376648839017456" lon="9.217985421279357"><ele>297.0</ele><time>2026-04-20T15:28:31Z</time></trkpt><trkpt lat="39.376583185291935" lon="9.21805193930433"><ele>297.0</ele><time>2026-04-20T15:28:34Z</time></trkpt><trkpt lat="39.376512903530525" lon="9.21809914724151"><ele>297.0</ele><time>2026-04-20T15:28:37Z</time></trkpt><trkpt lat="39.376452912055036" lon="9.218137424569194"><ele>297.0</ele><time>2026-04-20T15:28:40Z</time></trkpt><trkpt lat="39.37641070749069" lon="9.218200676781244"><ele>297.0</ele><time>2026-04-20T15:28:43Z</time></trkpt><trkpt lat="39.376363788040535" lon="9.218297878079596"><ele>297.0</ele><time>2026-04-20T15:28:46Z</time></trkpt><trkpt lat="39.37632534965543" lon="9.21838873445209"><ele>297.0</ele><time>2026-04-20T15:28:48Z</time></trkpt><trkpt lat="39.376277351879274" lon="9.218526067410542"><ele>297.0</ele><time>2026-04-20T15:28:50Z</time></trkpt><trkpt lat="39.37625234198466" lon="9.218662120851333"><ele>297.0</ele><time>2026-04-20T15:28:52Z</time></trkpt><trkpt lat="39.37624187710967" lon="9.218747319105429"><ele>297.0</ele><time>2026-04-20T15:28:53Z</time></trkpt><trkpt lat="39.37621724532366" lon="9.21887746274698"><ele>297.0</ele><time>2026-04-20T15:28:55Z</time></trkpt><trkpt lat="39.37619384150361" lon="9.21902973398979"><ele>297.0</ele><time>2026-04-20T15:28:57Z</time></trkpt><trkpt lat="39.376120607619335" lon="9.219136963124495"><ele>297.0</ele><time>2026-04-20T15:28:59Z</time></trkpt><trkpt lat="39.376042744149906" lon="9.219224850134792"><ele>297.0</ele><time>2026-04-20T15:29:01Z</time></trkpt><trkpt lat="39.375995057279034" lon="9.21928037056946"><ele>297.0</ele><time>2026-04-20T15:29:03Z</time></trkpt><trkpt lat="39.37594245056738" lon="9.219354214283227"><ele>297.0</ele><time>2026-04-20T15:29:06Z</time></trkpt><trkpt lat="39.37590096763508" lon="9.219439418714009"><ele>297.0</ele><time>2026-04-20T15:29:09Z</time></trkpt><trkpt lat="39.37585532589812" lon="9.219506538724033"><ele>297.0</ele><time>2026-04-20T15:29:12Z</time></trkpt><trkpt lat="39.37581742983251" lon="9.219574307527811"><ele>297.0</ele><time>2026-04-20T15:29:15Z</time></trkpt><trkpt lat="39.375774194704235" lon="9.219636110911534"><ele>297.0</ele><time>2026-04-20T15:29:18Z</time></trkpt><trkpt lat="39.37571637570816" lon="9.219670378862736"><ele>297.0</ele><time>2026-04-20T15:29:22Z</time></trkpt><trkpt lat="39.37568020282417" lon="9.219745202575176"><ele>297.0</ele><time>2026-04-20T15:29:26Z</time></trkpt><trkpt lat="39.37560365655106" lon="9.219763318598831"><ele>297.0</ele><time>2026-04-20T15:29:31Z</time></trkpt><trkpt lat="39.37554466096936" lon="9.219806703144249"><ele>297.0</ele><time>2026-04-20T15:29:36Z</time></trkpt><trkpt lat="39.37546987649466" lon="9.2198293183921"><ele>297.0</ele><time>2026-04-20T15:29:41Z</time></trkpt><trkpt lat="39.37539534276443" lon="9.219841931689732"><ele>298.1666666666667</ele><time>2026-04-20T15:29:47Z</time></trkpt><trkpt lat="39.375316923939764" lon="9.219839975621685"><ele>299.3333333333333</ele><time>2026-04-20T15:29:52Z</time></trkpt><trkpt lat="39.37524377179623" lon="9.219825806421346"><ele>300.5</ele><time>2026-04-20T15:29:56Z</time></trkpt><trkpt lat="39.375165547411214" lon="9.219806370951712"><ele>301.66666666666663</ele><time>2026-04-20T15:30:00Z</time></trkpt><trkpt lat="39.37508290853366" lon="9.21978296029904"><ele>302.8333333333333</ele><time>2026-04-20T15:30:04Z</time></trkpt><trkpt lat="39.37501286637939" lon="9.219767987518123"><ele>304.0</ele><time>2026-04-20T15:30:07Z</time></trkpt><trkpt lat="39.374934809857905" lon="9.219751425780448"><ele>304.0</ele><time>2026-04-20T15:30:11Z</time></trkpt><trkpt lat="39.37486623166037" lon="9.219759687302156"><ele>304.0</ele><time>2026-04-20T15:30:14Z</time></trkpt><trkpt lat="39.37480343888932" lon="9.21977052950542"><ele>304.0</ele><time>2026-04-20T15:30:17Z</time></trkpt><trkpt lat="39.37473400369722" lon="9.219793706697612"><ele>304.0</ele><time>2026-04-20T15:30:20Z</time></trkpt><trkpt lat="39.374665122871" lon="9.219811703235662"><ele>304.0</ele><time>2026-04-20T15:30:23Z</time></trkpt><trkpt lat="39.374608718975836" lon="9.219850692411908"><ele>304.0</ele><time>2026-04-20T15:30:26Z</time></trkpt><trkpt lat="39.374531124033254" lon="9.219869804611802"><ele>304.0</ele><time>2026-04-20T15:30:29Z</time></trkpt><trkpt lat="39.374452024551346" lon="9.219828254276463"><ele>304.0</ele><time>2026-04-20T15:30:32Z</time></trkpt><trkpt lat="39.37444231191369" lon="9.219733465089172"><ele>304.0</ele><time>2026-04-20T15:30:37Z</time></trkpt><trkpt lat="39.37446562102672" lon="9.219656631471167"><ele>304.0</ele><time>2026-04-20T15:30:42Z</time></trkpt><trkpt lat="39.374485991806274" lon="9.219573787710218"><ele>304.0</ele><time>2026-04-20T15:30:47Z</time></trkpt><trkpt lat="39.37453245913163" lon="9.219511469780052"><ele>304.0</ele><time>2026-04-20T15:30:52Z</time></trkpt><trkpt lat="39.374584797658216" lon="9.219441994083942"><ele>304.0</ele><time>2026-04-20T15:30:56Z</time></trkpt><trkpt lat="39.37464808663367" lon="9.219365469152002"><ele>304.0</ele><time>2026-04-20T15:30:59Z</time></trkpt><trkpt lat="39.374708944521814" lon="9.219318835550585"><ele>304.0</ele><time>2026-04-20T15:31:01Z</time></trkpt><trkpt lat="39.374783074892925" lon="9.219271370088522"><ele>304.0</ele><time>2026-04-20T15:31:03Z</time></trkpt><trkpt lat="39.374867285931224" lon="9.219167828266404"><ele>304.0</ele><time>2026-04-20T15:31:05Z</time></trkpt><trkpt lat="39.37492953404353" lon="9.219072402174925"><ele>304.0</ele><time>2026-04-20T15:31:07Z</time></trkpt><trkpt lat="39.374960965209986" lon="9.218972458947968"><ele>304.0</ele><time>2026-04-20T15:31:09Z</time></trkpt><trkpt lat="39.374960429470576" lon="9.21888914151192"><ele>304.0</ele><time>2026-04-20T15:31:12Z</time></trkpt><trkpt lat="39.37494744532777" lon="9.218805054775103"><ele>305.1428571428571</ele><time>2026-04-20T15:31:16Z</time></trkpt><trkpt lat="39.37492601381382" lon="9.218718554008397"><ele>306.28571428571433</ele><time>2026-04-20T15:31:21Z</time></trkpt><trkpt lat="39.37488294219975" lon="9.218657057840176"><ele>307.42857142857144</ele><time>2026-04-20T15:31:26Z</time></trkpt><trkpt lat="39.37483130466997" lon="9.218595491485601"><ele>308.57142857142856</ele><time>2026-04-20T15:31:32Z</time></trkpt><trkpt lat="39.3747803868137" lon="9.218540432345712"><ele>309.71428571428567</ele><time>2026-04-20T15:31:37Z</time></trkpt><trkpt lat="39.37473076061875" lon="9.218468942719356"><ele>310.8571428571429</ele><time>2026-04-20T15:31:43Z</time></trkpt><trkpt lat="39.37466681355738" lon="9.218438586316033"><ele>312.0</ele><time>2026-04-20T15:31:48Z</time></trkpt><trkpt lat="39.3746453053555" lon="9.21835575747201"><ele>313.2857142857143</ele><time>2026-04-20T15:31:53Z</time></trkpt><trkpt lat="39.37463695024276" lon="9.218268167750434"><ele>314.57142857142856</ele><time>2026-04-20T15:31:59Z</time></trkpt><trkpt lat="39.37463918486198" lon="9.218180948900898"><ele>315.85714285714283</ele><time>2026-04-20T15:32:04Z</time></trkpt><trkpt lat="39.37463818204032" lon="9.218096077128743"><ele>317.1428571428571</ele><time>2026-04-20T15:32:09Z</time></trkpt><trkpt lat="39.374610894315204" lon="9.21800725083419"><ele>318.42857142857144</ele><time>2026-04-20T15:32:14Z</time></trkpt><trkpt lat="39.3745715132487" lon="9.21792041628098"><ele>319.71428571428567</ele><time>2026-04-20T15:32:19Z</time></trkpt><trkpt lat="39.3745232813272" lon="9.217843424650937"><ele>321.0</ele><time>2026-04-20T15:32:24Z</time></trkpt><trkpt lat="39.37448859940362" lon="9.217761561894932"><ele>320.99999999999994</ele><time>2026-04-20T15:32:29Z</time></trkpt><trkpt lat="39.37443248332385" lon="9.21769711560926"><ele>321.0</ele><time>2026-04-20T15:32:34Z</time></trkpt><trkpt lat="39.374391143065324" lon="9.217635687521105"><ele>321.0</ele><time>2026-04-20T15:32:38Z</time></trkpt><trkpt lat="39.37435672388803" lon="9.217553156649796"><ele>321.0</ele><time>2026-04-20T15:32:42Z</time></trkpt><trkpt lat="39.374315920272345" lon="9.217474547794604"><ele>321.0</ele><time>2026-04-20T15:32:46Z</time></trkpt><trkpt lat="39.37428848087553" lon="9.217368132240344"><ele>320.99999999999994</ele><time>2026-04-20T15:32:49Z</time></trkpt><trkpt lat="39.374263004095724" lon="9.217278433903555"><ele>321.0</ele><time>2026-04-20T15:32:52Z</time></trkpt><trkpt lat="39.37422911946191" lon="9.21719010747525"><ele>319.8</ele><time>2026-04-20T15:32:55Z</time></trkpt><trkpt lat="39.37419318555419" lon="9.217078576639134"><ele>318.6</ele><time>2026-04-20T15:32:58Z</time></trkpt><trkpt lat="39.374189156872326" lon="9.216964583143735"><ele>317.4</ele><time>2026-04-20T15:33:00Z</time></trkpt><trkpt lat="39.374140140635056" lon="9.216809862089471"><ele>316.2</ele><time>2026-04-20T15:33:02Z</time></trkpt><trkpt lat="39.37406845339239" lon="9.216667769182797"><ele>315.0</ele><time>2026-04-20T15:33:04Z</time></trkpt><trkpt lat="39.37395436810569" lon="9.216593341498427"><ele>315.0</ele><time>2026-04-20T15:33:06Z</time></trkpt><trkpt lat="39.37386557817326" lon="9.21657280742048"><ele>315.0</ele><time>2026-04-20T15:33:07Z</time></trkpt><trkpt lat="39.373796588607355" lon="9.216549217776222"><ele>315.0</ele><time>2026-04-20T15:33:08Z</time></trkpt><trkpt lat="39.373718391353485" lon="9.216531115840278"><ele>315.0</ele><time>2026-04-20T15:33:09Z</time></trkpt><trkpt lat="39.373643478092454" lon="9.216498329255241"><ele>315.0</ele><time>2026-04-20T15:33:10Z</time></trkpt><trkpt lat="39.37357128425288" lon="9.216448077037393"><ele>315.0</ele><time>2026-04-20T15:33:11Z</time></trkpt><trkpt lat="39.37349658104049" lon="9.216416177211505"><ele>313.6666666666667</ele><time>2026-04-20T15:33:12Z</time></trkpt><trkpt lat="39.37341627305682" lon="9.21639151542153"><ele>312.3333333333333</ele><time>2026-04-20T15:33:13Z</time></trkpt><trkpt lat="39.373339136810934" lon="9.216360323894952"><ele>311.0</ele><time>2026-04-20T15:33:14Z</time></trkpt><trkpt lat="39.37326431070391" lon="9.216313888841402"><ele>309.66666666666663</ele><time>2026-04-20T15:33:15Z</time></trkpt><trkpt lat="39.37319872926618" lon="9.21626228923507"><ele>308.3333333333333</ele><time>2026-04-20T15:33:16Z</time></trkpt><trkpt lat="39.37314948254688" lon="9.216127750520313"><ele>307.0</ele><time>2026-04-20T15:33:18Z</time></trkpt><trkpt lat="39.373159377934655" lon="9.215989445346368"><ele>307.0</ele><time>2026-04-20T15:33:20Z</time></trkpt><trkpt lat="39.37314376868921" lon="9.215885751477488"><ele>307.0</ele><time>2026-04-20T15:33:22Z</time></trkpt><trkpt lat="39.3731318092895" lon="9.215783555439264"><ele>307.0</ele><time>2026-04-20T15:33:25Z</time></trkpt><trkpt lat="39.37308054539604" lon="9.215711686663385"><ele>307.0</ele><time>2026-04-20T15:33:29Z</time></trkpt><trkpt lat="39.37304869290567" lon="9.215543832590587"><ele>307.0</ele><time>2026-04-20T15:36:13Z</time></trkpt><trkpt lat="39.37299329366828" lon="9.21549812428407"><ele>307.0</ele><time>2026-04-20T15:36:23Z</time></trkpt><trkpt lat="39.37296429932128" lon="9.215403482790508"><ele>308.16666666666663</ele><time>2026-04-20T15:36:28Z</time></trkpt><trkpt lat="39.37293430543728" lon="9.215308534164944"><ele>309.3333333333333</ele><time>2026-04-20T15:36:33Z</time></trkpt><trkpt lat="39.372908694207894" lon="9.215221213512173"><ele>310.5</ele><time>2026-04-20T15:36:37Z</time></trkpt><trkpt lat="39.37287147784475" lon="9.215120578626745"><ele>311.6666666666667</ele><time>2026-04-20T15:36:41Z</time></trkpt><trkpt lat="39.37283160276507" lon="9.215023605776956"><ele>312.83333333333337</ele><time>2026-04-20T15:36:45Z</time></trkpt><trkpt lat="39.372788853886036" lon="9.214927627958705"><ele>314.0</ele><time>2026-04-20T15:36:48Z</time></trkpt><trkpt lat="39.372747041458744" lon="9.214848619580113"><ele>313.5</ele><time>2026-04-20T15:36:51Z</time></trkpt><trkpt lat="39.372703770572116" lon="9.214764562742639"><ele>313.0</ele><time>2026-04-20T15:36:54Z</time></trkpt><trkpt lat="39.372670929786466" lon="9.214680058863573"><ele>312.5</ele><time>2026-04-20T15:36:57Z</time></trkpt><trkpt lat="39.37260927347777" lon="9.214610959493625"><ele>312.0</ele><time>2026-04-20T15:37:00Z</time></trkpt><trkpt lat="39.372560366523565" lon="9.214519640629707"><ele>311.5</ele><time>2026-04-20T15:37:03Z</time></trkpt><trkpt lat="39.37252459278377" lon="9.214439249913355"><ele>311.0</ele><time>2026-04-20T15:37:06Z</time></trkpt><trkpt lat="39.37247683722449" lon="9.214334917769559"><ele>311.0</ele><time>2026-04-20T15:37:09Z</time></trkpt><trkpt lat="39.372425507553686" lon="9.214242311309727"><ele>311.0</ele><time>2026-04-20T15:37:11Z</time></trkpt><trkpt lat="39.372418829788714" lon="9.214159100427178"><ele>311.0</ele><time>2026-04-20T15:37:13Z</time></trkpt><trkpt lat="39.37247238373292" lon="9.214093106665961"><ele>311.0</ele><time>2026-04-20T15:37:15Z</time></trkpt><trkpt lat="39.37255318708061" lon="9.21407272234585"><ele>311.0</ele><time>2026-04-20T15:37:18Z</time></trkpt><trkpt lat="39.37261978860986" lon="9.214026554096602"><ele>311.0</ele><time>2026-04-20T15:37:20Z</time></trkpt><trkpt lat="39.37264971668856" lon="9.21395011478407"><ele>310.33333333333337</ele><time>2026-04-20T15:37:22Z</time></trkpt><trkpt lat="39.37264424763439" lon="9.213853437475828"><ele>309.6666666666667</ele><time>2026-04-20T15:37:24Z</time></trkpt><trkpt lat="39.372628698073356" lon="9.213745622798767"><ele>309.0</ele><time>2026-04-20T15:37:26Z</time></trkpt><trkpt lat="39.37263436875177" lon="9.213618537079734"><ele>308.3333333333333</ele><time>2026-04-20T15:37:28Z</time></trkpt><trkpt lat="39.37263618104024" lon="9.21347205188767"><ele>307.66666666666663</ele><time>2026-04-20T15:37:30Z</time></trkpt><trkpt lat="39.37263666841438" lon="9.21338945040944"><ele>307.0</ele><time>2026-04-20T15:37:31Z</time></trkpt><trkpt lat="39.37263602646288" lon="9.213220578089917"><ele>306.3333333333333</ele><time>2026-04-20T15:37:33Z</time></trkpt><trkpt lat="39.37263641516135" lon="9.213137802229419"><ele>305.66666666666663</ele><time>2026-04-20T15:37:34Z</time></trkpt><trkpt lat="39.37263115526322" lon="9.213051112592025"><ele>305.0</ele><time>2026-04-20T15:37:35Z</time></trkpt><trkpt lat="39.37263358401255" lon="9.212956592751768"><ele>304.3333333333333</ele><time>2026-04-20T15:37:36Z</time></trkpt><trkpt lat="39.37264239227779" lon="9.212866854618756"><ele>303.6666666666667</ele><time>2026-04-20T15:37:37Z</time></trkpt><trkpt lat="39.372650060110395" lon="9.212709620470376"><ele>303.0</ele><time>2026-04-20T15:37:39Z</time></trkpt><trkpt lat="39.37265540707092" lon="9.212619515480958"><ele>303.0</ele><time>2026-04-20T15:37:40Z</time></trkpt><trkpt lat="39.372675299411526" lon="9.21253267550428"><ele>303.0</ele><time>2026-04-20T15:37:41Z</time></trkpt><trkpt lat="39.37272191718249" lon="9.212465099333976"><ele>303.0</ele><time>2026-04-20T15:37:42Z</time></trkpt><trkpt lat="39.3727532370561" lon="9.212390262267194"><ele>303.0</ele><time>2026-04-20T15:37:43Z</time></trkpt><trkpt lat="39.37278448521236" lon="9.212307312025453"><ele>303.0</ele><time>2026-04-20T15:37:44Z</time></trkpt><trkpt lat="39.37280402895311" lon="9.212210141761947"><ele>303.0</ele><time>2026-04-20T15:37:45Z</time></trkpt><trkpt lat="39.372837385522054" lon="9.212130477657618"><ele>303.0</ele><time>2026-04-20T15:37:46Z</time></trkpt><trkpt lat="39.372868190909834" lon="9.212054311917228"><ele>302.0</ele><time>2026-04-20T15:37:47Z</time></trkpt><trkpt lat="39.37289690004922" lon="9.211978489911335"><ele>301.0</ele><time>2026-04-20T15:37:48Z</time></trkpt><trkpt lat="39.37293825051207" lon="9.211892024533803"><ele>300.0</ele><time>2026-04-20T15:37:49Z</time></trkpt><trkpt lat="39.37297377941591" lon="9.211809247183613"><ele>299.0</ele><time>2026-04-20T15:37:50Z</time></trkpt><trkpt lat="39.373052563533946" lon="9.211677580691385"><ele>298.0</ele><time>2026-04-20T15:37:52Z</time></trkpt><trkpt lat="39.37304985942764" lon="9.211578663506378"><ele>297.0</ele><time>2026-04-20T15:37:53Z</time></trkpt><trkpt lat="39.373053769489644" lon="9.211467396708963"><ele>295.8333333333333</ele><time>2026-04-20T15:37:54Z</time></trkpt><trkpt lat="39.37306917490199" lon="9.211363797347289"><ele>294.6666666666667</ele><time>2026-04-20T15:37:55Z</time></trkpt><trkpt lat="39.37306736292591" lon="9.211264554199424"><ele>293.5</ele><time>2026-04-20T15:37:56Z</time></trkpt><trkpt lat="39.37306645399456" lon="9.211168799895393"><ele>292.33333333333337</ele><time>2026-04-20T15:37:57Z</time></trkpt><trkpt lat="39.37307332225144" lon="9.21107046482319"><ele>291.1666666666667</ele><time>2026-04-20T15:37:58Z</time></trkpt><trkpt lat="39.373124698871024" lon="9.210988502720845"><ele>290.0</ele><time>2026-04-20T15:37:59Z</time></trkpt><trkpt lat="39.37317463410594" lon="9.210917969969547"><ele>290.0</ele><time>2026-04-20T15:38:00Z</time></trkpt><trkpt lat="39.373215396571446" lon="9.21083184881134"><ele>290.0</ele><time>2026-04-20T15:38:01Z</time></trkpt><trkpt lat="39.373251060525874" lon="9.210724122523152"><ele>290.0</ele><time>2026-04-20T15:38:02Z</time></trkpt><trkpt lat="39.37329806886922" lon="9.210608035631159"><ele>290.0</ele><time>2026-04-20T15:38:03Z</time></trkpt><trkpt lat="39.373316453321216" lon="9.210477830469234"><ele>290.0</ele><time>2026-04-20T15:38:04Z</time></trkpt><trkpt lat="39.373341842445576" lon="9.210341246133352"><ele>289.2</ele><time>2026-04-20T15:38:05Z</time></trkpt><trkpt lat="39.37334312717608" lon="9.210198041147551"><ele>288.4</ele><time>2026-04-20T15:38:06Z</time></trkpt><trkpt lat="39.3733476482133" lon="9.210050215045833"><ele>287.6</ele><time>2026-04-20T15:38:07Z</time></trkpt><trkpt lat="39.37336507754555" lon="9.20990753857184"><ele>286.8</ele><time>2026-04-20T15:38:08Z</time></trkpt><trkpt lat="39.37335907516881" lon="9.209763037599974"><ele>286.0</ele><time>2026-04-20T15:38:09Z</time></trkpt><trkpt lat="39.373366197147966" lon="9.209622120182871"><ele>285.2</ele><time>2026-04-20T15:38:10Z</time></trkpt><trkpt lat="39.37337103224454" lon="9.209482696916414"><ele>284.40000000000003</ele><time>2026-04-20T15:38:11Z</time></trkpt><trkpt lat="39.3733677052128" lon="9.20934973081674"><ele>283.6</ele><time>2026-04-20T15:38:12Z</time></trkpt><trkpt lat="39.37337404716782" lon="9.209224985792922"><ele>282.8</ele><time>2026-04-20T15:38:13Z</time></trkpt><trkpt lat="39.373372298598376" lon="9.209111589054087"><ele>282.0</ele><time>2026-04-20T15:38:14Z</time></trkpt><trkpt lat="39.37335205277391" lon="9.208994906568112"><ele>281.5</ele><time>2026-04-20T15:38:15Z</time></trkpt><trkpt lat="39.37335280686556" lon="9.208879219271692"><ele>281.0</ele><time>2026-04-20T15:38:16Z</time></trkpt><trkpt lat="39.373354761167455" lon="9.208771124644567"><ele>280.5</ele><time>2026-04-20T15:38:17Z</time></trkpt><trkpt lat="39.37337455762699" lon="9.208651864278965"><ele>280.0</ele><time>2026-04-20T15:38:18Z</time></trkpt><trkpt lat="39.37336616211269" lon="9.208544745642875"><ele>279.5</ele><time>2026-04-20T15:38:19Z</time></trkpt><trkpt lat="39.37337485738336" lon="9.208431513740585"><ele>279.0</ele><time>2026-04-20T15:38:20Z</time></trkpt><trkpt lat="39.373377625081346" lon="9.208296258499287"><ele>279.0</ele><time>2026-04-20T15:38:21Z</time></trkpt><trkpt lat="39.37338185129121" lon="9.208182399250873"><ele>279.0</ele><time>2026-04-20T15:38:22Z</time></trkpt><trkpt lat="39.37338619993363" lon="9.208100969576275"><ele>279.0</ele><time>2026-04-20T15:38:23Z</time></trkpt><trkpt lat="39.373389762369555" lon="9.207970053064477"><ele>279.0</ele><time>2026-04-20T15:38:25Z</time></trkpt><trkpt lat="39.37339871121021" lon="9.207838879274787"><ele>279.0</ele><time>2026-04-20T15:38:27Z</time></trkpt><trkpt lat="39.373420042682966" lon="9.207721724072366"><ele>279.0</ele><time>2026-04-20T15:38:29Z</time></trkpt><trkpt lat="39.373453280948105" lon="9.207593671046856"><ele>278.2</ele><time>2026-04-20T15:38:31Z</time></trkpt><trkpt lat="39.37344305532896" lon="9.207461094550228"><ele>277.4</ele><time>2026-04-20T15:38:33Z</time></trkpt><trkpt lat="39.373433548975896" lon="9.207324600866986"><ele>276.6</ele><time>2026-04-20T15:38:35Z</time></trkpt><trkpt lat="39.37340224123869" lon="9.207190891082112"><ele>275.8</ele><time>2026-04-20T15:38:37Z</time></trkpt><trkpt lat="39.37336836730079" lon="9.207057622456109"><ele>275.0</ele><time>2026-04-20T15:38:39Z</time></trkpt><trkpt lat="39.373346906337815" lon="9.206923665829773"><ele>274.8</ele><time>2026-04-20T15:38:41Z</time></trkpt><trkpt lat="39.373297306627485" lon="9.206803533868683"><ele>274.6</ele><time>2026-04-20T15:38:43Z</time></trkpt><trkpt lat="39.373223226326324" lon="9.20669580401568"><ele>274.4</ele><time>2026-04-20T15:38:45Z</time></trkpt><trkpt lat="39.37316248658797" lon="9.206596765151899"><ele>274.2</ele><time>2026-04-20T15:38:47Z</time></trkpt><trkpt lat="39.37309438924124" lon="9.206509624110026"><ele>274.0</ele><time>2026-04-20T15:38:49Z</time></trkpt><trkpt lat="39.37303290436573" lon="9.206407625532583"><ele>274.5</ele><time>2026-04-20T15:38:51Z</time></trkpt><trkpt lat="39.37297691916694" lon="9.20632887996656"><ele>275.0</ele><time>2026-04-20T15:38:53Z</time></trkpt><trkpt lat="39.372916294600714" lon="9.206249443546875"><ele>275.5</ele><time>2026-04-20T15:38:55Z</time></trkpt><trkpt lat="39.37284319167817" lon="9.206181355083535"><ele>276.0</ele><time>2026-04-20T15:38:57Z</time></trkpt><trkpt lat="39.37278315605627" lon="9.206105960166358"><ele>276.5</ele><time>2026-04-20T15:38:59Z</time></trkpt><trkpt lat="39.372723026124184" lon="9.206030130706711"><ele>277.0</ele><time>2026-04-20T15:39:01Z</time></trkpt><trkpt lat="39.37267872645668" lon="9.205955715592312"><ele>277.0</ele><time>2026-04-20T15:39:03Z</time></trkpt><trkpt lat="39.372627541174175" lon="9.205883158760322"><ele>277.0</ele><time>2026-04-20T15:39:05Z</time></trkpt><trkpt lat="39.37257618423995" lon="9.205797183905826"><ele>277.0</ele><time>2026-04-20T15:39:07Z</time></trkpt><trkpt lat="39.372532707676456" lon="9.205709220465662"><ele>277.0</ele><time>2026-04-20T15:39:09Z</time></trkpt><trkpt lat="39.37248250261375" lon="9.205624384809875"><ele>277.0</ele><time>2026-04-20T15:39:11Z</time></trkpt><trkpt lat="39.37244996079715" lon="9.205529630665247"><ele>277.0</ele><time>2026-04-20T15:39:13Z</time></trkpt><trkpt lat="39.37242780415994" lon="9.205428451833203"><ele>276.6</ele><time>2026-04-20T15:39:15Z</time></trkpt><trkpt lat="39.37240665461795" lon="9.205329272477842"><ele>276.2</ele><time>2026-04-20T15:39:17Z</time></trkpt><trkpt lat="39.37240671377023" lon="9.205204027455718"><ele>275.8</ele><time>2026-04-20T15:39:20Z</time></trkpt><trkpt lat="39.37239694531006" lon="9.205096397562594"><ele>275.4</ele><time>2026-04-20T15:39:22Z</time></trkpt><trkpt lat="39.37238839841461" lon="9.204967213104464"><ele>275.0</ele><time>2026-04-20T15:39:24Z</time></trkpt><trkpt lat="39.372370294441296" lon="9.204825651383052"><ele>274.25</ele><time>2026-04-20T15:39:26Z</time></trkpt><trkpt lat="39.372377083690324" lon="9.204638357086198"><ele>273.5</ele><time>2026-04-20T15:39:27Z</time></trkpt><trkpt lat="39.37238110021927" lon="9.20446888841273"><ele>272.75</ele><time>2026-04-20T15:39:29Z</time></trkpt><trkpt lat="39.372377302501114" lon="9.204378443098264"><ele>272.0</ele><time>2026-04-20T15:39:30Z</time></trkpt><trkpt lat="39.37237931550591" lon="9.204212028942413"><ele>272.0</ele><time>2026-04-20T15:39:32Z</time></trkpt><trkpt lat="39.37237287704611" lon="9.20411642102431"><ele>272.0</ele><time>2026-04-20T15:39:33Z</time></trkpt><trkpt lat="39.372378260907375" lon="9.204030416026526"><ele>272.0</ele><time>2026-04-20T15:39:34Z</time></trkpt><trkpt lat="39.37239038619005" lon="9.203934265994294"><ele>272.0</ele><time>2026-04-20T15:39:35Z</time></trkpt><trkpt lat="39.37241458554604" lon="9.2038405947499"><ele>272.0</ele><time>2026-04-20T15:39:36Z</time></trkpt><trkpt lat="39.37238170337833" lon="9.203741457508668"><ele>272.0</ele><time>2026-04-20T15:39:37Z</time></trkpt><trkpt lat="39.37239835423242" lon="9.203646611801485"><ele>271.5</ele><time>2026-04-20T15:39:38Z</time></trkpt><trkpt lat="39.372417160001326" lon="9.203541160144363"><ele>271.0</ele><time>2026-04-20T15:39:39Z</time></trkpt><trkpt lat="39.37245242297401" lon="9.203439522898192"><ele>270.5</ele><time>2026-04-20T15:39:40Z</time></trkpt><trkpt lat="39.372497801044496" lon="9.203333434428469"><ele>270.0</ele><time>2026-04-20T15:39:41Z</time></trkpt><trkpt lat="39.3725282182963" lon="9.203229837232879"><ele>269.5</ele><time>2026-04-20T15:39:42Z</time></trkpt><trkpt lat="39.37255455393505" lon="9.203136694307837"><ele>269.0</ele><time>2026-04-20T15:39:43Z</time></trkpt><trkpt lat="39.37258623915508" lon="9.20304937317685"><ele>268.4</ele><time>2026-04-20T15:39:44Z</time></trkpt><trkpt lat="39.37263073892802" lon="9.202920528048663"><ele>267.79999999999995</ele><time>2026-04-20T15:39:45Z</time></trkpt><trkpt lat="39.37268211820799" lon="9.202851473418765"><ele>267.20000000000005</ele><time>2026-04-20T15:39:46Z</time></trkpt><trkpt lat="39.372722862822656" lon="9.202731710227823"><ele>266.6</ele><time>2026-04-20T15:39:47Z</time></trkpt><trkpt lat="39.37275627218958" lon="9.202603019748933"><ele>266.0</ele><time>2026-04-20T15:39:48Z</time></trkpt><trkpt lat="39.37278385620661" lon="9.202474324189186"><ele>266.0</ele><time>2026-04-20T15:39:49Z</time></trkpt><trkpt lat="39.37280782485331" lon="9.202333491263511"><ele>266.0</ele><time>2026-04-20T15:39:50Z</time></trkpt><trkpt lat="39.37281669453983" lon="9.202192711539308"><ele>266.0</ele><time>2026-04-20T15:39:51Z</time></trkpt><trkpt lat="39.37281668159184" lon="9.202053267490157"><ele>266.0</ele><time>2026-04-20T15:39:52Z</time></trkpt><trkpt lat="39.372814270847016" lon="9.201920370648578"><ele>266.0</ele><time>2026-04-20T15:39:53Z</time></trkpt><trkpt lat="39.37280577099136" lon="9.201782814035917"><ele>265.0</ele><time>2026-04-20T15:39:54Z</time></trkpt><trkpt lat="39.37277881416269" lon="9.201646415915787"><ele>264.0</ele><time>2026-04-20T15:39:55Z</time></trkpt><trkpt lat="39.372730091168485" lon="9.201522650522103"><ele>263.0</ele><time>2026-04-20T15:39:56Z</time></trkpt><trkpt lat="39.372685362774426" lon="9.201402320878538"><ele>262.0</ele><time>2026-04-20T15:39:57Z</time></trkpt><trkpt lat="39.37263510515073" lon="9.201293505902576"><ele>261.0</ele><time>2026-04-20T15:39:58Z</time></trkpt><trkpt lat="39.372594230573206" lon="9.201192575672284"><ele>260.0</ele><time>2026-04-20T15:39:59Z</time></trkpt><trkpt lat="39.37256994172599" lon="9.201067709671468"><ele>259.0</ele><time>2026-04-20T15:40:00Z</time></trkpt><trkpt lat="39.37253355640564" lon="9.200937247788957"><ele>258.0</ele><time>2026-04-20T15:40:01Z</time></trkpt><trkpt lat="39.372472869782" lon="9.200831770224184"><ele>257.0</ele><time>2026-04-20T15:40:02Z</time></trkpt><trkpt lat="39.37240524241724" lon="9.200735520734186"><ele>256.0</ele><time>2026-04-20T15:40:03Z</time></trkpt><trkpt lat="39.372324177793544" lon="9.200643319759473"><ele>255.20000000000002</ele><time>2026-04-20T15:40:04Z</time></trkpt><trkpt lat="39.37225828744625" lon="9.200543566600336"><ele>254.40000000000003</ele><time>2026-04-20T15:40:05Z</time></trkpt><trkpt lat="39.372221602282615" lon="9.20041783282013"><ele>253.6</ele><time>2026-04-20T15:40:06Z</time></trkpt><trkpt lat="39.372213544220855" lon="9.20027521341993"><ele>252.8</ele><time>2026-04-20T15:40:07Z</time></trkpt><trkpt lat="39.37222656796509" lon="9.200127305772424"><ele>252.0</ele><time>2026-04-20T15:40:08Z</time></trkpt><trkpt lat="39.37223661380361" lon="9.199997593029781"><ele>252.0</ele><time>2026-04-20T15:40:09Z</time></trkpt><trkpt lat="39.372268565337464" lon="9.199881816417893"><ele>252.0</ele><time>2026-04-20T15:40:10Z</time></trkpt><trkpt lat="39.372299091068506" lon="9.199764815406066"><ele>252.0</ele><time>2026-04-20T15:40:11Z</time></trkpt><trkpt lat="39.37233420423322" lon="9.199656106436017"><ele>252.0</ele><time>2026-04-20T15:40:12Z</time></trkpt><trkpt lat="39.37238719653405" lon="9.199564376423178"><ele>252.0</ele><time>2026-04-20T15:40:13Z</time></trkpt><trkpt lat="39.37240960008924" lon="9.199467074027007"><ele>252.0</ele><time>2026-04-20T15:40:14Z</time></trkpt><trkpt lat="39.372442285205146" lon="9.199382533053425"><ele>252.16666666666666</ele><time>2026-04-20T15:40:15Z</time></trkpt><trkpt lat="39.372484819090225" lon="9.19930362263101"><ele>252.33333333333331</ele><time>2026-04-20T15:40:16Z</time></trkpt><trkpt lat="39.37250355057458" lon="9.19920586493115"><ele>252.5</ele><time>2026-04-20T15:40:17Z</time></trkpt><trkpt lat="39.37252327452468" lon="9.199119062909945"><ele>252.66666666666666</ele><time>2026-04-20T15:40:18Z</time></trkpt><trkpt lat="39.372537661523225" lon="9.199031199544972"><ele>252.83333333333331</ele><time>2026-04-20T15:40:19Z</time></trkpt><trkpt lat="39.37256881837488" lon="9.198957697093633"><ele>253.0</ele><time>2026-04-20T15:40:20Z</time></trkpt><trkpt lat="39.37260802749157" lon="9.198816054216232"><ele>253.16666666666666</ele><time>2026-04-20T15:40:22Z</time></trkpt><trkpt lat="39.37266424639695" lon="9.198680737620672"><ele>253.33333333333331</ele><time>2026-04-20T15:40:24Z</time></trkpt><trkpt lat="39.37269753900077" lon="9.198609345759724"><ele>253.5</ele><time>2026-04-20T15:40:25Z</time></trkpt><trkpt lat="39.37273974299167" lon="9.198546718213189"><ele>253.66666666666669</ele><time>2026-04-20T15:40:26Z</time></trkpt><trkpt lat="39.37277465501128" lon="9.198474350854529"><ele>253.83333333333334</ele><time>2026-04-20T15:40:27Z</time></trkpt><trkpt lat="39.37280979796901" lon="9.198402250800122"><ele>254.0</ele><time>2026-04-20T15:40:28Z</time></trkpt><trkpt lat="39.37283549739987" lon="9.19831702374062"><ele>254.00000000000003</ele><time>2026-04-20T15:40:29Z</time></trkpt><trkpt lat="39.3728850618529" lon="9.1982520345311"><ele>254.0</ele><time>2026-04-20T15:40:30Z</time></trkpt><trkpt lat="39.37292089963907" lon="9.198167178372138"><ele>254.0</ele><time>2026-04-20T15:40:31Z</time></trkpt><trkpt lat="39.372932283440946" lon="9.198068649175713"><ele>254.0</ele><time>2026-04-20T15:40:32Z</time></trkpt><trkpt lat="39.37295214688545" lon="9.197965927913398"><ele>254.00000000000003</ele><time>2026-04-20T15:40:33Z</time></trkpt><trkpt lat="39.37297839700781" lon="9.197852987762001"><ele>254.0</ele><time>2026-04-20T15:40:34Z</time></trkpt><trkpt lat="39.3730169746074" lon="9.197753010461739"><ele>253.16666666666669</ele><time>2026-04-20T15:40:35Z</time></trkpt><trkpt lat="39.37306251158982" lon="9.197658880969971"><ele>252.33333333333334</ele><time>2026-04-20T15:40:36Z</time></trkpt><trkpt lat="39.3730891758316" lon="9.197552390744475"><ele>251.5</ele><time>2026-04-20T15:40:37Z</time></trkpt><trkpt lat="39.37311445395555" lon="9.197447527217962"><ele>250.66666666666669</ele><time>2026-04-20T15:40:38Z</time></trkpt><trkpt lat="39.37313478223163" lon="9.197336446261012"><ele>249.83333333333334</ele><time>2026-04-20T15:40:39Z</time></trkpt><trkpt lat="39.37315978993554" lon="9.197229582260904"><ele>249.0</ele><time>2026-04-20T15:40:40Z</time></trkpt><trkpt lat="39.373192352194884" lon="9.197122982674752"><ele>249.0</ele><time>2026-04-20T15:40:41Z</time></trkpt><trkpt lat="39.373230031123946" lon="9.197016884048358"><ele>249.0</ele><time>2026-04-20T15:40:42Z</time></trkpt><trkpt lat="39.37326380103031" lon="9.196912563590235"><ele>249.0</ele><time>2026-04-20T15:40:43Z</time></trkpt><trkpt lat="39.37330931124176" lon="9.19682308793305"><ele>249.0</ele><time>2026-04-20T15:40:44Z</time></trkpt><trkpt lat="39.373358934487605" lon="9.196745601291104"><ele>249.0</ele><time>2026-04-20T15:40:45Z</time></trkpt><trkpt lat="39.373415304728155" lon="9.196666818696382"><ele>249.0</ele><time>2026-04-20T15:40:46Z</time></trkpt><trkpt lat="39.37347137882776" lon="9.196591542010163"><ele>249.0</ele><time>2026-04-20T15:40:47Z</time></trkpt><trkpt lat="39.373525813006914" lon="9.196522832887997"><ele>248.99999999999997</ele><time>2026-04-20T15:40:48Z</time></trkpt><trkpt lat="39.373568994587565" lon="9.196445278066218"><ele>249.0</ele><time>2026-04-20T15:40:49Z</time></trkpt><trkpt lat="39.37359685756376" lon="9.196360997056315"><ele>249.0</ele><time>2026-04-20T15:40:50Z</time></trkpt><trkpt lat="39.37361895500512" lon="9.19627121964839"><ele>248.99999999999997</ele><time>2026-04-20T15:40:51Z</time></trkpt><trkpt lat="39.37363693863576" lon="9.196180952458757"><ele>249.0</ele><time>2026-04-20T15:40:52Z</time></trkpt><trkpt lat="39.37364833918963" lon="9.196094139601216"><ele>249.0</ele><time>2026-04-20T15:40:53Z</time></trkpt><trkpt lat="39.37366204674905" lon="9.19600962273225"><ele>249.0</ele><time>2026-04-20T15:40:54Z</time></trkpt><trkpt lat="39.37367789069399" lon="9.195928677959582"><ele>249.0</ele><time>2026-04-20T15:40:55Z</time></trkpt><trkpt lat="39.373705774804904" lon="9.195845328614917"><ele>249.0</ele><time>2026-04-20T15:40:56Z</time></trkpt><trkpt lat="39.37376998086476" lon="9.195705612864932"><ele>249.0</ele><time>2026-04-20T15:40:58Z</time></trkpt><trkpt lat="39.373796543798576" lon="9.195626557034425"><ele>249.0</ele><time>2026-04-20T15:40:59Z</time></trkpt><trkpt lat="39.37382505668209" lon="9.195549521878682"><ele>249.0</ele><time>2026-04-20T15:41:00Z</time></trkpt><trkpt lat="39.373855485286406" lon="9.195475041034943"><ele>248.5</ele><time>2026-04-20T15:41:01Z</time></trkpt><trkpt lat="39.373882541017494" lon="9.19539849645522"><ele>248.0</ele><time>2026-04-20T15:41:02Z</time></trkpt><trkpt lat="39.37391274576292" lon="9.195240521002662"><ele>247.5</ele><time>2026-04-20T15:41:04Z</time></trkpt><trkpt lat="39.37391683954596" lon="9.195155415909179"><ele>247.0</ele><time>2026-04-20T15:41:05Z</time></trkpt><trkpt lat="39.37391653874524" lon="9.195069853059842"><ele>246.5</ele><time>2026-04-20T15:41:06Z</time></trkpt><trkpt lat="39.3739186779154" lon="9.194983126963187"><ele>246.0</ele><time>2026-04-20T15:41:07Z</time></trkpt><trkpt lat="39.373909999830786" lon="9.194890479125661"><ele>246.00000000000003</ele><time>2026-04-20T15:41:08Z</time></trkpt><trkpt lat="39.37390584332171" lon="9.194805623077126"><ele>246.0</ele><time>2026-04-20T15:41:09Z</time></trkpt><trkpt lat="39.37389918552861" lon="9.194723075181447"><ele>246.00000000000003</ele><time>2026-04-20T15:41:10Z</time></trkpt><trkpt lat="39.373894948313705" lon="9.194637363753893"><ele>246.00000000000003</ele><time>2026-04-20T15:41:11Z</time></trkpt><trkpt lat="39.37388825605687" lon="9.194553171233139"><ele>246.0</ele><time>2026-04-20T15:41:12Z</time></trkpt><trkpt lat="39.37388954834561" lon="9.194395308862049"><ele>246.00000000000003</ele><time>2026-04-20T15:41:14Z</time></trkpt><trkpt lat="39.37389617768118" lon="9.194311557140415"><ele>246.00000000000003</ele><time>2026-04-20T15:41:15Z</time></trkpt><trkpt lat="39.37392253190778" lon="9.194231459114693"><ele>246.0</ele><time>2026-04-20T15:41:16Z</time></trkpt><trkpt lat="39.37395663819518" lon="9.194078315526038"><ele>246.0</ele><time>2026-04-20T15:41:18Z</time></trkpt><trkpt lat="39.37399442085427" lon="9.19392309451174"><ele>246.0</ele><time>2026-04-20T15:41:20Z</time></trkpt><trkpt lat="39.37403504762979" lon="9.193770495328733"><ele>246.0</ele><time>2026-04-20T15:41:22Z</time></trkpt><trkpt lat="39.37406907675247" lon="9.193613616172014"><ele>245.8571428571429</ele><time>2026-04-20T15:41:24Z</time></trkpt><trkpt lat="39.3740913333379" lon="9.193532140697096"><ele>245.71428571428572</ele><time>2026-04-20T15:41:25Z</time></trkpt><trkpt lat="39.37411360833392" lon="9.193453422286112"><ele>245.57142857142858</ele><time>2026-04-20T15:41:26Z</time></trkpt><trkpt lat="39.37413248845445" lon="9.193372064524459"><ele>245.42857142857144</ele><time>2026-04-20T15:41:27Z</time></trkpt><trkpt lat="39.37414580112223" lon="9.19329020754604"><ele>245.28571428571428</ele><time>2026-04-20T15:41:28Z</time></trkpt><trkpt lat="39.374162259461016" lon="9.193209243439306"><ele>245.14285714285714</ele><time>2026-04-20T15:41:29Z</time></trkpt><trkpt lat="39.37417933905385" lon="9.19313065580722"><ele>245.0</ele><time>2026-04-20T15:41:30Z</time></trkpt><trkpt lat="39.37419832043116" lon="9.193052324389367"><ele>245.00000000000003</ele><time>2026-04-20T15:41:31Z</time></trkpt><trkpt lat="39.37421903271071" lon="9.192971148432395"><ele>245.0</ele><time>2026-04-20T15:41:32Z</time></trkpt><trkpt lat="39.37424097753166" lon="9.192893383890443"><ele>245.0</ele><time>2026-04-20T15:41:33Z</time></trkpt><trkpt lat="39.37429829680078" lon="9.192741851963866"><ele>245.0</ele><time>2026-04-20T15:41:35Z</time></trkpt><trkpt lat="39.37433042586325" lon="9.192669209421691"><ele>245.00000000000003</ele><time>2026-04-20T15:41:36Z</time></trkpt><trkpt lat="39.37439514681598" lon="9.192537943928068"><ele>245.0</ele><time>2026-04-20T15:41:38Z</time></trkpt><trkpt lat="39.37445211228886" lon="9.192397567695943"><ele>245.4</ele><time>2026-04-20T15:41:40Z</time></trkpt><trkpt lat="39.374476356584886" lon="9.192321903954962"><ele>245.8</ele><time>2026-04-20T15:41:41Z</time></trkpt><trkpt lat="39.37452307495708" lon="9.192188688352186"><ele>246.2</ele><time>2026-04-20T15:41:43Z</time></trkpt><trkpt lat="39.37454162129726" lon="9.19211014672806"><ele>246.6</ele><time>2026-04-20T15:41:44Z</time></trkpt><trkpt lat="39.37457990599105" lon="9.191962926678425"><ele>247.0</ele><time>2026-04-20T15:41:46Z</time></trkpt><trkpt lat="39.37462294316991" lon="9.191810360208066"><ele>247.0</ele><time>2026-04-20T15:41:48Z</time></trkpt><trkpt lat="39.37467609581569" lon="9.191665446322567"><ele>247.0</ele><time>2026-04-20T15:41:50Z</time></trkpt><trkpt lat="39.374723832365525" lon="9.191520613055905"><ele>247.0</ele><time>2026-04-20T15:41:52Z</time></trkpt><trkpt lat="39.374780653189" lon="9.191392091606513"><ele>247.0</ele><time>2026-04-20T15:41:54Z</time></trkpt><trkpt lat="39.37482771801502" lon="9.191250470766578"><ele>246.5</ele><time>2026-04-20T15:41:56Z</time></trkpt><trkpt lat="39.374855795701336" lon="9.191095818282923"><ele>246.0</ele><time>2026-04-20T15:41:58Z</time></trkpt><trkpt lat="39.37486913451161" lon="9.190937710526667"><ele>245.5</ele><time>2026-04-20T15:42:00Z</time></trkpt><trkpt lat="39.37488679195417" lon="9.190784569228203"><ele>245.0</ele><time>2026-04-20T15:42:02Z</time></trkpt><trkpt lat="39.37490826101877" lon="9.190639392106045"><ele>245.0</ele><time>2026-04-20T15:42:04Z</time></trkpt><trkpt lat="39.37493033678948" lon="9.190493454259514"><ele>245.0</ele><time>2026-04-20T15:42:06Z</time></trkpt><trkpt lat="39.374946548034686" lon="9.190345638581611"><ele>245.0</ele><time>2026-04-20T15:42:08Z</time></trkpt><trkpt lat="39.374960998080944" lon="9.190195057685218"><ele>245.0</ele><time>2026-04-20T15:42:10Z</time></trkpt><trkpt lat="39.374957533834575" lon="9.190038241208233"><ele>245.00000000000003</ele><time>2026-04-20T15:42:12Z</time></trkpt><trkpt lat="39.374936292681255" lon="9.189879347783384"><ele>245.0</ele><time>2026-04-20T15:42:14Z</time></trkpt><trkpt lat="39.37492822539416" lon="9.189794419248248"><ele>245.0</ele><time>2026-04-20T15:42:15Z</time></trkpt><trkpt lat="39.374916684526184" lon="9.189708336785401"><ele>245.0</ele><time>2026-04-20T15:42:16Z</time></trkpt><trkpt lat="39.37491867973055" lon="9.189619606354098"><ele>245.00000000000003</ele><time>2026-04-20T15:42:17Z</time></trkpt><trkpt lat="39.37490744521802" lon="9.18952735187803"><ele>245.0</ele><time>2026-04-20T15:42:18Z</time></trkpt><trkpt lat="39.37489898824345" lon="9.18943720666694"><ele>244.85714285714286</ele><time>2026-04-20T15:42:19Z</time></trkpt><trkpt lat="39.374895787473974" lon="9.189348504630743"><ele>244.71428571428572</ele><time>2026-04-20T15:42:20Z</time></trkpt><trkpt lat="39.374892652253024" lon="9.189255696673152"><ele>244.57142857142856</ele><time>2026-04-20T15:42:21Z</time></trkpt><trkpt lat="39.37489658822911" lon="9.189161400993259"><ele>244.42857142857142</ele><time>2026-04-20T15:42:22Z</time></trkpt><trkpt lat="39.37489512272197" lon="9.189066279172637"><ele>244.28571428571428</ele><time>2026-04-20T15:42:23Z</time></trkpt><trkpt lat="39.37489297306401" lon="9.188969911477125"><ele>244.1428571428571</ele><time>2026-04-20T15:42:24Z</time></trkpt><trkpt lat="39.37489218654064" lon="9.188874664268232"><ele>243.99999999999997</ele><time>2026-04-20T15:42:25Z</time></trkpt><trkpt lat="39.37489085997237" lon="9.188776820364723"><ele>243.71428571428567</ele><time>2026-04-20T15:42:26Z</time></trkpt><trkpt lat="39.37489250735628" lon="9.188679441065407"><ele>243.42857142857142</ele><time>2026-04-20T15:42:27Z</time></trkpt><trkpt lat="39.37489550996711" lon="9.188585414882208"><ele>243.1428571428571</ele><time>2026-04-20T15:42:28Z</time></trkpt><trkpt lat="39.37488439082318" lon="9.188494913480133"><ele>242.85714285714283</ele><time>2026-04-20T15:42:29Z</time></trkpt><trkpt lat="39.374885017307015" lon="9.188396618671808"><ele>242.57142857142856</ele><time>2026-04-20T15:42:30Z</time></trkpt><trkpt lat="39.374887426058145" lon="9.188302687066143"><ele>242.28571428571428</ele><time>2026-04-20T15:42:31Z</time></trkpt><trkpt lat="39.374894932642285" lon="9.188209307180676"><ele>242.0</ele><time>2026-04-20T15:42:32Z</time></trkpt><trkpt lat="39.37490241496977" lon="9.188120882259105"><ele>241.42857142857142</ele><time>2026-04-20T15:42:33Z</time></trkpt><trkpt lat="39.374908335151744" lon="9.188030762485022"><ele>240.85714285714283</ele><time>2026-04-20T15:42:34Z</time></trkpt><trkpt lat="39.374913067085444" lon="9.187940896372394"><ele>240.28571428571428</ele><time>2026-04-20T15:42:35Z</time></trkpt><trkpt lat="39.37491963993412" lon="9.18784586498043"><ele>239.71428571428572</ele><time>2026-04-20T15:42:36Z</time></trkpt><trkpt lat="39.37492359217037" lon="9.187754858473177"><ele>239.14285714285714</ele><time>2026-04-20T15:42:37Z</time></trkpt><trkpt lat="39.37493187155521" lon="9.18766262155977"><ele>238.57142857142856</ele><time>2026-04-20T15:42:38Z</time></trkpt><trkpt lat="39.37493949243553" lon="9.187567765530725"><ele>238.0</ele><time>2026-04-20T15:42:39Z</time></trkpt><trkpt lat="39.37495260483329" lon="9.187482531862003"><ele>237.99999999999997</ele><time>2026-04-20T15:42:40Z</time></trkpt><trkpt lat="39.374960193715026" lon="9.187389916342783"><ele>238.0</ele><time>2026-04-20T15:42:41Z</time></trkpt><trkpt lat="39.374971009818005" lon="9.187300652624536"><ele>238.0</ele><time>2026-04-20T15:42:42Z</time></trkpt><trkpt lat="39.3749795390904" lon="9.187212321567904"><ele>238.0</ele><time>2026-04-20T15:42:43Z</time></trkpt><trkpt lat="39.374991831860804" lon="9.187129505398554"><ele>237.99999999999997</ele><time>2026-04-20T15:42:44Z</time></trkpt><trkpt lat="39.37500627796893" lon="9.18704663720533"><ele>238.0</ele><time>2026-04-20T15:42:45Z</time></trkpt><trkpt lat="39.37503588822807" lon="9.186891704929394"><ele>238.0</ele><time>2026-04-20T15:42:47Z</time></trkpt><trkpt lat="39.37504675695211" lon="9.186738200479738"><ele>238.0</ele><time>2026-04-20T15:42:49Z</time></trkpt><trkpt lat="39.37503540640306" lon="9.186581320479288"><ele>238.0</ele><time>2026-04-20T15:42:51Z</time></trkpt><trkpt lat="39.37501608392915" lon="9.186424637282975"><ele>238.0</ele><time>2026-04-20T15:42:53Z</time></trkpt><trkpt lat="39.375012639521835" lon="9.186272342752321"><ele>238.0</ele><time>2026-04-20T15:42:55Z</time></trkpt><trkpt lat="39.37498038863048" lon="9.186126592737239"><ele>238.0</ele><time>2026-04-20T15:42:57Z</time></trkpt><trkpt lat="39.37497360733519" lon="9.185991897282307"><ele>238.0</ele><time>2026-04-20T15:42:59Z</time></trkpt><trkpt lat="39.37494058877974" lon="9.185859844996692"><ele>238.0</ele><time>2026-04-20T15:43:01Z</time></trkpt><trkpt lat="39.37490875242838" lon="9.18574388131994"><ele>238.0</ele><time>2026-04-20T15:43:03Z</time></trkpt><trkpt lat="39.37489132461941" lon="9.185627037242615"><ele>238.0</ele><time>2026-04-20T15:43:05Z</time></trkpt><trkpt lat="39.374856110641375" lon="9.185487570847732"><ele>238.0</ele><time>2026-04-20T15:43:07Z</time></trkpt><trkpt lat="39.374821423856986" lon="9.185357281973646"><ele>238.0</ele><time>2026-04-20T15:43:09Z</time></trkpt><trkpt lat="39.3747747800316" lon="9.185219308334297"><ele>238.0</ele><time>2026-04-20T15:43:11Z</time></trkpt><trkpt lat="39.37475272729284" lon="9.185079341743698"><ele>238.0</ele><time>2026-04-20T15:43:13Z</time></trkpt><trkpt lat="39.37470733865648" lon="9.184940856432316"><ele>237.60000000000002</ele><time>2026-04-20T15:43:15Z</time></trkpt><trkpt lat="39.374657088037324" lon="9.184807688444918"><ele>237.20000000000002</ele><time>2026-04-20T15:43:17Z</time></trkpt><trkpt lat="39.37461322036362" lon="9.18465667846336"><ele>236.8</ele><time>2026-04-20T15:43:19Z</time></trkpt><trkpt lat="39.374590684862056" lon="9.184577367349663"><ele>236.4</ele><time>2026-04-20T15:43:20Z</time></trkpt><trkpt lat="39.37457006184927" lon="9.184500020161483"><ele>236.0</ele><time>2026-04-20T15:43:21Z</time></trkpt><trkpt lat="39.37454487239179" lon="9.18433857601585"><ele>236.0</ele><time>2026-04-20T15:43:23Z</time></trkpt><trkpt lat="39.37449371140944" lon="9.184189308038825"><ele>236.00000000000003</ele><time>2026-04-20T15:43:25Z</time></trkpt><trkpt lat="39.37448835555126" lon="9.184108052300845"><ele>236.00000000000003</ele><time>2026-04-20T15:43:26Z</time></trkpt><trkpt lat="39.374458557603994" lon="9.18395678775935"><ele>236.0</ele><time>2026-04-20T15:43:28Z</time></trkpt><trkpt lat="39.374422947535514" lon="9.183812626754362"><ele>236.0</ele><time>2026-04-20T15:43:30Z</time></trkpt><trkpt lat="39.374404527857564" lon="9.183670248601981"><ele>235.8</ele><time>2026-04-20T15:43:32Z</time></trkpt><trkpt lat="39.37439119573637" lon="9.183524713979848"><ele>235.60000000000002</ele><time>2026-04-20T15:43:34Z</time></trkpt><trkpt lat="39.37437669991785" lon="9.18338448447813"><ele>235.4</ele><time>2026-04-20T15:43:36Z</time></trkpt><trkpt lat="39.37435040402368" lon="9.183255566779547"><ele>235.2</ele><time>2026-04-20T15:43:38Z</time></trkpt><trkpt lat="39.37434470930274" lon="9.183107462217327"><ele>235.0</ele><time>2026-04-20T15:43:40Z</time></trkpt><trkpt lat="39.37433617049413" lon="9.182963355617616"><ele>234.83333333333331</ele><time>2026-04-20T15:43:42Z</time></trkpt><trkpt lat="39.37433783024004" lon="9.18288098466021"><ele>234.66666666666666</ele><time>2026-04-20T15:43:43Z</time></trkpt><trkpt lat="39.37433910334708" lon="9.18272280014685"><ele>234.5</ele><time>2026-04-20T15:43:45Z</time></trkpt><trkpt lat="39.374329091730125" lon="9.18256374548794"><ele>234.33333333333331</ele><time>2026-04-20T15:43:47Z</time></trkpt><trkpt lat="39.374327941086094" lon="9.182479624778152"><ele>234.16666666666666</ele><time>2026-04-20T15:43:48Z</time></trkpt><trkpt lat="39.37431881554293" lon="9.182398791035489"><ele>234.0</ele><time>2026-04-20T15:43:49Z</time></trkpt><trkpt lat="39.37429285471744" lon="9.182248402624895"><ele>233.0</ele><time>2026-04-20T15:43:51Z</time></trkpt><trkpt lat="39.37425089836959" lon="9.18210733870655"><ele>232.0</ele><time>2026-04-20T15:43:53Z</time></trkpt><trkpt lat="39.374184688593" lon="9.181979567014846"><ele>231.0</ele><time>2026-04-20T15:43:55Z</time></trkpt><trkpt lat="39.374114815541745" lon="9.181856336490219"><ele>230.0</ele><time>2026-04-20T15:43:57Z</time></trkpt><trkpt lat="39.37402772871849" lon="9.18175300537362"><ele>230.0</ele><time>2026-04-20T15:43:59Z</time></trkpt><trkpt lat="39.373910034691946" lon="9.181680660078541"><ele>230.0</ele><time>2026-04-20T15:44:01Z</time></trkpt><trkpt lat="39.37385510828452" lon="9.181639754750885"><ele>230.0</ele><time>2026-04-20T15:44:02Z</time></trkpt><trkpt lat="39.373742815535834" lon="9.181572686523578"><ele>230.0</ele><time>2026-04-20T15:44:04Z</time></trkpt><trkpt lat="39.3736302275855" lon="9.181501794502937"><ele>230.0</ele><time>2026-04-20T15:44:06Z</time></trkpt><trkpt lat="39.373519996203726" lon="9.181431264589838"><ele>229.57142857142856</ele><time>2026-04-20T15:44:08Z</time></trkpt><trkpt lat="39.37345983626679" lon="9.181399729482736"><ele>229.14285714285714</ele><time>2026-04-20T15:44:09Z</time></trkpt><trkpt lat="39.3734017562308" lon="9.181365651270568"><ele>228.71428571428572</ele><time>2026-04-20T15:44:10Z</time></trkpt><trkpt lat="39.37334299572907" lon="9.181335026296013"><ele>228.28571428571428</ele><time>2026-04-20T15:44:11Z</time></trkpt><trkpt lat="39.37322655976802" lon="9.181270471150878"><ele>227.8571428571429</ele><time>2026-04-20T15:44:13Z</time></trkpt><trkpt lat="39.373169609244016" lon="9.181235647049263"><ele>227.42857142857144</ele><time>2026-04-20T15:44:14Z</time></trkpt><trkpt lat="39.37310843918638" lon="9.181204964625476"><ele>227.0</ele><time>2026-04-20T15:44:15Z</time></trkpt><trkpt lat="39.37300617007279" lon="9.181130167675818"><ele>226.39999999999998</ele><time>2026-04-20T15:44:17Z</time></trkpt><trkpt lat="39.37288321872998" lon="9.181068223971257"><ele>225.79999999999998</ele><time>2026-04-20T15:44:19Z</time></trkpt><trkpt lat="39.3728102292596" lon="9.181060566104634"><ele>225.2</ele><time>2026-04-20T15:44:20Z</time></trkpt><trkpt lat="39.37274751304205" lon="9.181015233592179"><ele>224.6</ele><time>2026-04-20T15:44:21Z</time></trkpt><trkpt lat="39.372679160632295" lon="9.180986970690768"><ele>224.0</ele><time>2026-04-20T15:44:22Z</time></trkpt><trkpt lat="39.37255227877839" lon="9.180954596730492"><ele>224.0</ele><time>2026-04-20T15:44:24Z</time></trkpt><trkpt lat="39.37248284291062" lon="9.180924012455682"><ele>224.0</ele><time>2026-04-20T15:44:25Z</time></trkpt><trkpt lat="39.37241287003876" lon="9.180893244936735"><ele>224.0</ele><time>2026-04-20T15:44:26Z</time></trkpt><trkpt lat="39.372346753405715" lon="9.180844799722307"><ele>224.0</ele><time>2026-04-20T15:44:27Z</time></trkpt><trkpt lat="39.372278150002444" lon="9.180820614288702"><ele>224.0</ele><time>2026-04-20T15:44:28Z</time></trkpt><trkpt lat="39.372207762270335" lon="9.18079970201758"><ele>224.0</ele><time>2026-04-20T15:44:29Z</time></trkpt><trkpt lat="39.372140483772895" lon="9.180793720948529"><ele>224.0</ele><time>2026-04-20T15:44:30Z</time></trkpt><trkpt lat="39.37207416544788" lon="9.180804424036905"><ele>223.50000000000003</ele><time>2026-04-20T15:44:31Z</time></trkpt><trkpt lat="39.37194923168361" lon="9.180815047993343"><ele>223.0</ele><time>2026-04-20T15:44:33Z</time></trkpt><trkpt lat="39.37188590600811" lon="9.180823730968761"><ele>222.5</ele><time>2026-04-20T15:44:34Z</time></trkpt><trkpt lat="39.371823114119834" lon="9.180842202514055"><ele>222.0</ele><time>2026-04-20T15:44:35Z</time></trkpt><trkpt lat="39.37176067643417" lon="9.180857691735337"><ele>221.50000000000003</ele><time>2026-04-20T15:44:36Z</time></trkpt><trkpt lat="39.37164787390275" lon="9.180881136066269"><ele>221.0</ele><time>2026-04-20T15:44:38Z</time></trkpt><trkpt lat="39.3715292714419" lon="9.18089914209286"><ele>221.00000000000003</ele><time>2026-04-20T15:44:40Z</time></trkpt><trkpt lat="39.37145941686916" lon="9.180903256568918"><ele>221.0</ele><time>2026-04-20T15:44:41Z</time></trkpt><trkpt lat="39.37138886505956" lon="9.18090468216678"><ele>221.0</ele><time>2026-04-20T15:44:42Z</time></trkpt><trkpt lat="39.37132625767715" lon="9.180924773008746"><ele>221.0</ele><time>2026-04-20T15:44:43Z</time></trkpt><trkpt lat="39.37125567666172" lon="9.180934087842678"><ele>221.00000000000003</ele><time>2026-04-20T15:44:44Z</time></trkpt><trkpt lat="39.371191362097015" lon="9.180947933945905"><ele>221.0</ele><time>2026-04-20T15:44:45Z</time></trkpt><trkpt lat="39.37106073144157" lon="9.18094871457162"><ele>220.4</ele><time>2026-04-20T15:44:47Z</time></trkpt><trkpt lat="39.37093991991138" lon="9.18097070020009"><ele>219.8</ele><time>2026-04-20T15:44:49Z</time></trkpt><trkpt lat="39.37088091607113" lon="9.180999754634383"><ele>219.20000000000002</ele><time>2026-04-20T15:44:50Z</time></trkpt><trkpt lat="39.3707531296859" lon="9.181006769799467"><ele>218.60000000000002</ele><time>2026-04-20T15:44:52Z</time></trkpt><trkpt lat="39.37063564257952" lon="9.18105102009266"><ele>218.0</ele><time>2026-04-20T15:44:54Z</time></trkpt><trkpt lat="39.37056978720862" lon="9.181054320428288"><ele>217.2</ele><time>2026-04-20T15:44:55Z</time></trkpt><trkpt lat="39.37044689804538" lon="9.18105018226415"><ele>216.4</ele><time>2026-04-20T15:44:57Z</time></trkpt><trkpt lat="39.37032635197838" lon="9.181008526057067"><ele>215.59999999999997</ele><time>2026-04-20T15:44:59Z</time></trkpt><trkpt lat="39.37025598414976" lon="9.18099005374227"><ele>214.79999999999998</ele><time>2026-04-20T15:45:00Z</time></trkpt><trkpt lat="39.37018484346488" lon="9.18097078958023"><ele>214.0</ele><time>2026-04-20T15:45:01Z</time></trkpt><trkpt lat="39.370112893648944" lon="9.180950086356665"><ele>214.00000000000003</ele><time>2026-04-20T15:45:02Z</time></trkpt><trkpt lat="39.37004538116881" lon="9.180950033589548"><ele>214.0</ele><time>2026-04-20T15:45:03Z</time></trkpt><trkpt lat="39.36998146319402" lon="9.180918171191182"><ele>214.0</ele><time>2026-04-20T15:45:04Z</time></trkpt><trkpt lat="39.369910478245444" lon="9.180906337793099"><ele>214.0</ele><time>2026-04-20T15:45:05Z</time></trkpt><trkpt lat="39.36984099978098" lon="9.18087185006116"><ele>214.0</ele><time>2026-04-20T15:45:06Z</time></trkpt><trkpt lat="39.36976946896759" lon="9.180852862617446"><ele>214.00000000000003</ele><time>2026-04-20T15:45:07Z</time></trkpt><trkpt lat="39.36969689839792" lon="9.180834212321159"><ele>214.0</ele><time>2026-04-20T15:45:08Z</time></trkpt><trkpt lat="39.369616137295544" lon="9.180819086459838"><ele>213.33333333333331</ele><time>2026-04-20T15:45:09Z</time></trkpt><trkpt lat="39.3695362252331" lon="9.180816496427777"><ele>212.66666666666666</ele><time>2026-04-20T15:45:10Z</time></trkpt><trkpt lat="39.369456513759516" lon="9.180851818558237"><ele>212.0</ele><time>2026-04-20T15:45:11Z</time></trkpt><trkpt lat="39.369386023870504" lon="9.1808480862374"><ele>211.33333333333331</ele><time>2026-04-20T15:45:12Z</time></trkpt><trkpt lat="39.36926949573874" lon="9.180849772991941"><ele>210.66666666666666</ele><time>2026-04-20T15:45:14Z</time></trkpt><trkpt lat="39.36919243507501" lon="9.18080070302602"><ele>210.0</ele><time>2026-04-20T15:45:15Z</time></trkpt><trkpt lat="39.36911908553304" lon="9.180751280043289"><ele>210.0</ele><time>2026-04-20T15:45:16Z</time></trkpt><trkpt lat="39.36904533122601" lon="9.180699142941465"><ele>210.0</ele><time>2026-04-20T15:45:17Z</time></trkpt><trkpt lat="39.36897717314814" lon="9.180645564673734"><ele>210.0</ele><time>2026-04-20T15:45:18Z</time></trkpt><trkpt lat="39.368907859596064" lon="9.180607526221479"><ele>210.0</ele><time>2026-04-20T15:45:19Z</time></trkpt><trkpt lat="39.368834456304214" lon="9.180577760735181"><ele>210.0</ele><time>2026-04-20T15:45:20Z</time></trkpt><trkpt lat="39.36876731947259" lon="9.180572468059022"><ele>210.0</ele><time>2026-04-20T15:45:21Z</time></trkpt><trkpt lat="39.368699513723406" lon="9.180547909407881"><ele>210.0</ele><time>2026-04-20T15:45:22Z</time></trkpt><trkpt lat="39.36862590435151" lon="9.180565169072919"><ele>210.0</ele><time>2026-04-20T15:45:23Z</time></trkpt><trkpt lat="39.36852957027742" lon="9.180609518433693"><ele>210.0</ele><time>2026-04-20T15:45:25Z</time></trkpt><trkpt lat="39.36843715585196" lon="9.180623918234243"><ele>210.0</ele><time>2026-04-20T15:45:27Z</time></trkpt><trkpt lat="39.36840156217974" lon="9.180704301120523"><ele>210.0</ele><time>2026-04-20T15:45:28Z</time></trkpt><trkpt lat="39.36831676841219" lon="9.180767683426057"><ele>210.0</ele><time>2026-04-20T15:45:31Z</time></trkpt><trkpt lat="39.36824894723924" lon="9.180835587630144"><ele>210.0</ele><time>2026-04-20T15:45:33Z</time></trkpt><trkpt lat="39.36817292235384" lon="9.180850436728882"><ele>210.0</ele><time>2026-04-20T15:45:35Z</time></trkpt><trkpt lat="39.368109576246425" lon="9.18093472903195"><ele>210.0</ele><time>2026-04-20T15:45:37Z</time></trkpt><trkpt lat="39.368051137065926" lon="9.180966280896124"><ele>210.0</ele><time>2026-04-20T15:45:39Z</time></trkpt><trkpt lat="39.36800311567727" lon="9.181057821030011"><ele>210.0</ele><time>2026-04-20T15:45:41Z</time></trkpt><trkpt lat="39.367944377773036" lon="9.181121795180303"><ele>210.0</ele><time>2026-04-20T15:45:43Z</time></trkpt><trkpt lat="39.36788647239985" lon="9.18117256616332"><ele>209.5</ele><time>2026-04-20T15:45:45Z</time></trkpt><trkpt lat="39.367814353513204" lon="9.181212656860664"><ele>209.0</ele><time>2026-04-20T15:45:47Z</time></trkpt><trkpt lat="39.36775366611885" lon="9.181289449075537"><ele>208.5</ele><time>2026-04-20T15:45:49Z</time></trkpt><trkpt lat="39.36769553276435" lon="9.181365710033843"><ele>208.0</ele><time>2026-04-20T15:45:51Z</time></trkpt><trkpt lat="39.36764594292548" lon="9.181417451284455"><ele>207.5</ele><time>2026-04-20T15:45:53Z</time></trkpt><trkpt lat="39.36759748278588" lon="9.181503436520025"><ele>207.0</ele><time>2026-04-20T15:45:55Z</time></trkpt><trkpt lat="39.36754518968284" lon="9.181596651437363"><ele>206.83333333333334</ele><time>2026-04-20T15:45:57Z</time></trkpt><trkpt lat="39.36751269200557" lon="9.181695990631573"><ele>206.66666666666669</ele><time>2026-04-20T15:45:59Z</time></trkpt><trkpt lat="39.3674809453599" lon="9.181783358947873"><ele>206.5</ele><time>2026-04-20T15:46:01Z</time></trkpt><trkpt lat="39.36740783865932" lon="9.18189364176421"><ele>206.33333333333334</ele><time>2026-04-20T15:46:05Z</time></trkpt><trkpt lat="39.36734445389916" lon="9.181976396018793"><ele>206.16666666666669</ele><time>2026-04-20T15:46:08Z</time></trkpt><trkpt lat="39.36730234367757" lon="9.182048954721012"><ele>206.0</ele><time>2026-04-20T15:46:11Z</time></trkpt><trkpt lat="39.36724392325383" lon="9.182083211200027"><ele>206.16666666666669</ele><time>2026-04-20T15:46:13Z</time></trkpt><trkpt lat="39.36717992005858" lon="9.182144011017703"><ele>206.33333333333334</ele><time>2026-04-20T15:46:15Z</time></trkpt><trkpt lat="39.367129484994265" lon="9.182202705408335"><ele>206.5</ele><time>2026-04-20T15:46:16Z</time></trkpt><trkpt lat="39.367059644978305" lon="9.182273704685745"><ele>206.66666666666669</ele><time>2026-04-20T15:46:18Z</time></trkpt><trkpt lat="39.36700667380012" lon="9.182366598541686"><ele>206.83333333333334</ele><time>2026-04-20T15:46:20Z</time></trkpt><trkpt lat="39.366961288828016" lon="9.18245822268323"><ele>207.0</ele><time>2026-04-20T15:46:22Z</time></trkpt><trkpt lat="39.366908496615714" lon="9.182533889205642"><ele>207.0</ele><time>2026-04-20T15:46:24Z</time></trkpt><trkpt lat="39.366838377046605" lon="9.18259365049768"><ele>207.0</ele><time>2026-04-20T15:46:26Z</time></trkpt><trkpt lat="39.36678689585017" lon="9.182659438183123"><ele>207.0</ele><time>2026-04-20T15:46:28Z</time></trkpt><trkpt lat="39.36671340688998" lon="9.18272478785754"><ele>207.0</ele><time>2026-04-20T15:46:30Z</time></trkpt><trkpt lat="39.36665225528275" lon="9.182793587961147"><ele>207.0</ele><time>2026-04-20T15:46:32Z</time></trkpt><trkpt lat="39.3666011110194" lon="9.18284180912874"><ele>207.0</ele><time>2026-04-20T15:46:35Z</time></trkpt><trkpt lat="39.366536890196784" lon="9.182906933484329"><ele>207.0</ele><time>2026-04-20T15:46:36Z</time></trkpt><trkpt lat="39.366460980737386" lon="9.182980241223573"><ele>207.0</ele><time>2026-04-20T15:46:37Z</time></trkpt><trkpt lat="39.366392441565544" lon="9.183059930275942"><ele>207.0</ele><time>2026-04-20T15:46:39Z</time></trkpt><trkpt lat="39.36633007224167" lon="9.183124412117404"><ele>207.0</ele><time>2026-04-20T15:46:41Z</time></trkpt><trkpt lat="39.36626793054205" lon="9.183177948950478"><ele>207.0</ele><time>2026-04-20T15:46:43Z</time></trkpt><trkpt lat="39.36621274353326" lon="9.18325243613101"><ele>207.0</ele><time>2026-04-20T15:46:45Z</time></trkpt><trkpt lat="39.366150178552964" lon="9.183289049384124"><ele>207.16666666666666</ele><time>2026-04-20T15:46:47Z</time></trkpt><trkpt lat="39.366085267143305" lon="9.183342112003292"><ele>207.33333333333331</ele><time>2026-04-20T15:46:49Z</time></trkpt><trkpt lat="39.36602458326998" lon="9.183406507857418"><ele>207.5</ele><time>2026-04-20T15:46:51Z</time></trkpt><trkpt lat="39.365988204846076" lon="9.183481717172475"><ele>207.66666666666666</ele><time>2026-04-20T15:46:53Z</time></trkpt><trkpt lat="39.36593440020301" lon="9.183565423043122"><ele>207.83333333333331</ele><time>2026-04-20T15:46:55Z</time></trkpt><trkpt lat="39.36587549660003" lon="9.183666646199756"><ele>208.0</ele><time>2026-04-20T15:46:57Z</time></trkpt><trkpt lat="39.365803012275535" lon="9.183738347588896"><ele>207.99999999999997</ele><time>2026-04-20T15:46:59Z</time></trkpt><trkpt lat="39.36571460038223" lon="9.183776568434476"><ele>208.0</ele><time>2026-04-20T15:47:01Z</time></trkpt><trkpt lat="39.36563837001698" lon="9.183828490503826"><ele>208.0</ele><time>2026-04-20T15:47:03Z</time></trkpt><trkpt lat="39.365550238528186" lon="9.183869587958915"><ele>208.0</ele><time>2026-04-20T15:47:05Z</time></trkpt><trkpt lat="39.36547760983983" lon="9.183919873559832"><ele>207.99999999999997</ele><time>2026-04-20T15:47:07Z</time></trkpt><trkpt lat="39.365422068192586" lon="9.183963093422635"><ele>208.0</ele><time>2026-04-20T15:47:10Z</time></trkpt><trkpt lat="39.36534384154829" lon="9.184013829524703"><ele>207.99999999999997</ele><time>2026-04-20T15:47:13Z</time></trkpt><trkpt lat="39.365268818130275" lon="9.184069883732489"><ele>208.0</ele><time>2026-04-20T15:47:16Z</time></trkpt><trkpt lat="39.365193630409635" lon="9.184137023419346"><ele>208.0</ele><time>2026-04-20T15:47:19Z</time></trkpt><trkpt lat="39.365136364699715" lon="9.18417295973841"><ele>208.0</ele><time>2026-04-20T15:47:21Z</time></trkpt><trkpt lat="39.36505092938089" lon="9.184160155092334"><ele>207.99999999999997</ele><time>2026-04-20T15:47:22Z</time></trkpt><trkpt lat="39.36494296719488" lon="9.184213449480024"><ele>208.0</ele><time>2026-04-20T15:47:24Z</time></trkpt><trkpt lat="39.3648808980011" lon="9.184248360238652"><ele>207.99999999999997</ele><time>2026-04-20T15:47:26Z</time></trkpt><trkpt lat="39.36481608360117" lon="9.184266440961808"><ele>208.0</ele><time>2026-04-20T15:47:28Z</time></trkpt><trkpt lat="39.364760600665406" lon="9.184312392198365"><ele>208.0</ele><time>2026-04-20T15:47:30Z</time></trkpt><trkpt lat="39.364699147113946" lon="9.184366335157186"><ele>208.0</ele><time>2026-04-20T15:47:32Z</time></trkpt><trkpt lat="39.36462222693767" lon="9.18444144663908"><ele>207.99999999999997</ele><time>2026-04-20T15:47:34Z</time></trkpt><trkpt lat="39.36454870790132" lon="9.18453833951699"><ele>208.0</ele><time>2026-04-20T15:47:36Z</time></trkpt><trkpt lat="39.36450184534591" lon="9.184617263814811"><ele>208.2</ele><time>2026-04-20T15:47:38Z</time></trkpt><trkpt lat="39.36443787115146" lon="9.184669334266037"><ele>208.4</ele><time>2026-04-20T15:47:42Z</time></trkpt><trkpt lat="39.36437146146794" lon="9.184749691452547"><ele>208.6</ele><time>2026-04-20T15:47:45Z</time></trkpt><trkpt lat="39.36430872404591" lon="9.184872680855696"><ele>208.79999999999998</ele><time>2026-04-20T15:47:47Z</time></trkpt><trkpt lat="39.3642247684878" lon="9.184941371906643"><ele>209.0</ele><time>2026-04-20T15:47:49Z</time></trkpt><trkpt lat="39.36417622025397" lon="9.185018379153293"><ele>208.83333333333334</ele><time>2026-04-20T15:47:51Z</time></trkpt><trkpt lat="39.36411287131277" lon="9.185120160979606"><ele>208.66666666666669</ele><time>2026-04-20T15:47:54Z</time></trkpt><trkpt lat="39.3640718421085" lon="9.185200360549736"><ele>208.5</ele><time>2026-04-20T15:47:56Z</time></trkpt><trkpt lat="39.36400432460223" lon="9.185244072110134"><ele>208.33333333333331</ele><time>2026-04-20T15:47:58Z</time></trkpt><trkpt lat="39.36394946947904" lon="9.185298684801364"><ele>208.16666666666666</ele><time>2026-04-20T15:48:00Z</time></trkpt><trkpt lat="39.363885953646026" lon="9.185348760061219"><ele>208.0</ele><time>2026-04-20T15:48:03Z</time></trkpt><trkpt lat="39.36382933684419" lon="9.185388612807387"><ele>207.99999999999997</ele><time>2026-04-20T15:48:05Z</time></trkpt><trkpt lat="39.36374240738867" lon="9.18545081674814"><ele>208.0</ele><time>2026-04-20T15:48:08Z</time></trkpt><trkpt lat="39.36367876488474" lon="9.185478006237393"><ele>208.0</ele><time>2026-04-20T15:48:10Z</time></trkpt><trkpt lat="39.36359760034967" lon="9.185504528461944"><ele>208.0</ele><time>2026-04-20T15:48:12Z</time></trkpt><trkpt lat="39.363517203568236" lon="9.185551221289698"><ele>207.99999999999997</ele><time>2026-04-20T15:48:14Z</time></trkpt><trkpt lat="39.36342952647042" lon="9.185579698513454"><ele>208.0</ele><time>2026-04-20T15:48:16Z</time></trkpt><trkpt lat="39.36335708550222" lon="9.185622283273558"><ele>207.99999999999997</ele><time>2026-04-20T15:48:18Z</time></trkpt><trkpt lat="39.36328384745612" lon="9.185657990504533"><ele>208.0</ele><time>2026-04-20T15:48:20Z</time></trkpt><trkpt lat="39.36321594580047" lon="9.185720392933847"><ele>208.0</ele><time>2026-04-20T15:48:22Z</time></trkpt><trkpt lat="39.363120149781786" lon="9.185761490099235"><ele>208.0</ele><time>2026-04-20T15:48:24Z</time></trkpt><trkpt lat="39.363025232855286" lon="9.18578699150372"><ele>207.99999999999997</ele><time>2026-04-20T15:48:26Z</time></trkpt><trkpt lat="39.362948692340645" lon="9.185818218428645"><ele>208.0</ele><time>2026-04-20T15:48:28Z</time></trkpt><trkpt lat="39.36287383746584" lon="9.18586711245744"><ele>208.66666666666666</ele><time>2026-04-20T15:48:30Z</time></trkpt><trkpt lat="39.3627951508047" lon="9.18591167166677"><ele>209.33333333333331</ele><time>2026-04-20T15:48:32Z</time></trkpt><trkpt lat="39.36270750442894" lon="9.185938546021784"><ele>210.0</ele><time>2026-04-20T15:48:34Z</time></trkpt><trkpt lat="39.36263292454829" lon="9.185971038663116"><ele>210.66666666666669</ele><time>2026-04-20T15:48:36Z</time></trkpt><trkpt lat="39.362559522650386" lon="9.186010013487715"><ele>211.33333333333334</ele><time>2026-04-20T15:48:38Z</time></trkpt><trkpt lat="39.36248027898013" lon="9.186050654963626"><ele>212.0</ele><time>2026-04-20T15:48:40Z</time></trkpt><trkpt lat="39.36240558806806" lon="9.186073625798763"><ele>212.00000000000003</ele><time>2026-04-20T15:48:42Z</time></trkpt><trkpt lat="39.36233532372024" lon="9.186102608808927"><ele>212.0</ele><time>2026-04-20T15:48:44Z</time></trkpt><trkpt lat="39.36225983690445" lon="9.18612975183309"><ele>212.0</ele><time>2026-04-20T15:48:46Z</time></trkpt><trkpt lat="39.36220033138" lon="9.186204935532537"><ele>212.0</ele><time>2026-04-20T15:48:48Z</time></trkpt><trkpt lat="39.36213682371917" lon="9.18623986463952"><ele>212.00000000000003</ele><time>2026-04-20T15:48:50Z</time></trkpt><trkpt lat="39.36206564529986" lon="9.186274270693657"><ele>212.0</ele><time>2026-04-20T15:48:52Z</time></trkpt><trkpt lat="39.362009981563936" lon="9.186335771377902"><ele>211.83333333333334</ele><time>2026-04-20T15:48:54Z</time></trkpt><trkpt lat="39.361921139219056" lon="9.186409165122196"><ele>211.66666666666669</ele><time>2026-04-20T15:48:58Z</time></trkpt><trkpt lat="39.361864076815486" lon="9.186472004578537"><ele>211.5</ele><time>2026-04-20T15:49:02Z</time></trkpt><trkpt lat="39.36180604937863" lon="9.186558529102353"><ele>211.33333333333331</ele><time>2026-04-20T15:49:05Z</time></trkpt><trkpt lat="39.36174131361597" lon="9.186639963518498"><ele>211.16666666666666</ele><time>2026-04-20T15:49:08Z</time></trkpt><trkpt lat="39.36169154102661" lon="9.186709104517636"><ele>211.0</ele><time>2026-04-20T15:49:11Z</time></trkpt><trkpt lat="39.36163960974284" lon="9.186756638415481"><ele>211.66666666666666</ele><time>2026-04-20T15:49:13Z</time></trkpt><trkpt lat="39.36159350794253" lon="9.186821885810208"><ele>212.33333333333331</ele><time>2026-04-20T15:49:15Z</time></trkpt><trkpt lat="39.36151327930872" lon="9.186871785974448"><ele>213.0</ele><time>2026-04-20T15:49:19Z</time></trkpt><trkpt lat="39.36142570269153" lon="9.186932813677254"><ele>213.66666666666669</ele><time>2026-04-20T15:49:22Z</time></trkpt><trkpt lat="39.36136015418208" lon="9.186969536715141"><ele>214.33333333333334</ele><time>2026-04-20T15:49:25Z</time></trkpt><trkpt lat="39.36129150699464" lon="9.18700459977157"><ele>215.0</ele><time>2026-04-20T15:49:27Z</time></trkpt><trkpt lat="39.36123464934235" lon="9.18704197416405"><ele>215.33333333333334</ele><time>2026-04-20T15:49:29Z</time></trkpt><trkpt lat="39.361175652165315" lon="9.187074027627412"><ele>215.66666666666669</ele><time>2026-04-20T15:49:32Z</time></trkpt><trkpt lat="39.36110141413306" lon="9.187112668677685"><ele>216.0</ele><time>2026-04-20T15:49:35Z</time></trkpt><trkpt lat="39.361017738715546" lon="9.187146685867148"><ele>216.33333333333331</ele><time>2026-04-20T15:49:38Z</time></trkpt><trkpt lat="39.360957721889356" lon="9.187183526511996"><ele>216.66666666666666</ele><time>2026-04-20T15:49:40Z</time></trkpt><trkpt lat="39.360861204626445" lon="9.187219020523017"><ele>217.0</ele><time>2026-04-20T15:49:43Z</time></trkpt><trkpt lat="39.36078319392135" lon="9.187241019668685"><ele>216.99999999999997</ele><time>2026-04-20T15:49:46Z</time></trkpt><trkpt lat="39.3607034687526" lon="9.18727489265782"><ele>217.0</ele><time>2026-04-20T15:49:48Z</time></trkpt><trkpt lat="39.36061283553471" lon="9.187277724082008"><ele>217.0</ele><time>2026-04-20T15:49:52Z</time></trkpt><trkpt lat="39.360544723522985" lon="9.187253420866522"><ele>217.0</ele><time>2026-04-20T15:49:55Z</time></trkpt><trkpt lat="39.36047271474042" lon="9.187207797650943"><ele>216.99999999999997</ele><time>2026-04-20T15:49:58Z</time></trkpt><trkpt lat="39.36039262874945" lon="9.18721096652395"><ele>217.0</ele><time>2026-04-20T15:50:00Z</time></trkpt><trkpt lat="39.3602826151767" lon="9.187216206859029"><ele>217.39999999999998</ele><time>2026-04-20T15:50:04Z</time></trkpt><trkpt lat="39.36021687765693" lon="9.187168665561524"><ele>217.79999999999998</ele><time>2026-04-20T15:50:07Z</time></trkpt><trkpt lat="39.36015162544777" lon="9.187177409831815"><ele>218.2</ele><time>2026-04-20T15:50:09Z</time></trkpt><trkpt lat="39.36002772462396" lon="9.18712618495004"><ele>218.6</ele><time>2026-04-20T15:50:12Z</time></trkpt><trkpt lat="39.35993793987754" lon="9.18710465358905"><ele>219.0</ele><time>2026-04-20T15:50:13Z</time></trkpt><trkpt lat="39.35979471511625" lon="9.187111651685342"><ele>219.0</ele><time>2026-04-20T15:50:15Z</time></trkpt><trkpt lat="39.35972067074464" lon="9.187109811207621"><ele>219.0</ele><time>2026-04-20T15:50:16Z</time></trkpt><trkpt lat="39.35964834940299" lon="9.187106561912016"><ele>219.0</ele><time>2026-04-20T15:50:17Z</time></trkpt><trkpt lat="39.35958079128409" lon="9.187109998944432"><ele>219.0</ele><time>2026-04-20T15:50:18Z</time></trkpt><trkpt lat="39.35945936420476" lon="9.18713009297157"><ele>219.0</ele><time>2026-04-20T15:50:20Z</time></trkpt><trkpt lat="39.35939076612353" lon="9.187117404305294"><ele>219.0</ele><time>2026-04-20T15:50:21Z</time></trkpt><trkpt lat="39.35926566018144" lon="9.187130083675425"><ele>218.33333333333334</ele><time>2026-04-20T15:50:23Z</time></trkpt><trkpt lat="39.359204277783775" lon="9.187152310856868"><ele>217.66666666666669</ele><time>2026-04-20T15:50:24Z</time></trkpt><trkpt lat="39.3591401386144" lon="9.187146723482433"><ele>217.0</ele><time>2026-04-20T15:50:25Z</time></trkpt><trkpt lat="39.359011823541614" lon="9.187142927157137"><ele>216.33333333333334</ele><time>2026-04-20T15:50:27Z</time></trkpt><trkpt lat="39.35894298229216" lon="9.187154316167774"><ele>215.66666666666669</ele><time>2026-04-20T15:50:28Z</time></trkpt><trkpt lat="39.35887861849943" lon="9.187135116598599"><ele>215.0</ele><time>2026-04-20T15:50:29Z</time></trkpt><trkpt lat="39.35876143565169" lon="9.187139717159292"><ele>214.25</ele><time>2026-04-20T15:50:31Z</time></trkpt><trkpt lat="39.35864535018283" lon="9.187105138240733"><ele>213.5</ele><time>2026-04-20T15:50:33Z</time></trkpt><trkpt lat="39.358528261840924" lon="9.187076576700143"><ele>212.75</ele><time>2026-04-20T15:50:35Z</time></trkpt><trkpt lat="39.358419493171795" lon="9.187052362904007"><ele>212.0</ele><time>2026-04-20T15:50:37Z</time></trkpt><trkpt lat="39.35831701294466" lon="9.18703473939453"><ele>212.0</ele><time>2026-04-20T15:50:39Z</time></trkpt><trkpt lat="39.358210632565175" lon="9.18702123205864"><ele>212.0</ele><time>2026-04-20T15:50:41Z</time></trkpt><trkpt lat="39.35810831072924" lon="9.187057378768298"><ele>212.0</ele><time>2026-04-20T15:50:43Z</time></trkpt><trkpt lat="39.358015747789274" lon="9.187035131665523"><ele>212.0</ele><time>2026-04-20T15:50:45Z</time></trkpt><trkpt lat="39.357921162316536" lon="9.187003814541875"><ele>212.0</ele><time>2026-04-20T15:50:47Z</time></trkpt><trkpt lat="39.3578321439984" lon="9.18700396616254"><ele>212.50000000000003</ele><time>2026-04-20T15:50:49Z</time></trkpt><trkpt lat="39.35774483113946" lon="9.187005549686313"><ele>213.0</ele><time>2026-04-20T15:50:51Z</time></trkpt><trkpt lat="39.357663588543296" lon="9.187003555821548"><ele>213.5</ele><time>2026-04-20T15:50:53Z</time></trkpt><trkpt lat="39.35757708742139" lon="9.186989612935356"><ele>214.0</ele><time>2026-04-20T15:50:55Z</time></trkpt><trkpt lat="39.357497877171376" lon="9.18695084382151"><ele>214.50000000000003</ele><time>2026-04-20T15:50:57Z</time></trkpt><trkpt lat="39.35743157882787" lon="9.186942575695237"><ele>215.0</ele><time>2026-04-20T15:50:59Z</time></trkpt><trkpt lat="39.35737565959985" lon="9.186892673740758"><ele>215.00000000000003</ele><time>2026-04-20T15:51:01Z</time></trkpt><trkpt lat="39.35730299055465" lon="9.186828485562991"><ele>215.0</ele><time>2026-04-20T15:51:04Z</time></trkpt><trkpt lat="39.35722709026635" lon="9.186789139428189"><ele>215.0</ele><time>2026-04-20T15:51:08Z</time></trkpt><trkpt lat="39.35716626022031" lon="9.186751923186927"><ele>215.0</ele><time>2026-04-20T15:51:11Z</time></trkpt><trkpt lat="39.35709506657767" lon="9.186717490954518"><ele>215.00000000000003</ele><time>2026-04-20T15:51:13Z</time></trkpt><trkpt lat="39.357013954364135" lon="9.18669893714479"><ele>215.0</ele><time>2026-04-20T15:51:15Z</time></trkpt><trkpt lat="39.35692515061295" lon="9.186663364731913"><ele>215.33333333333334</ele><time>2026-04-20T15:51:17Z</time></trkpt><trkpt lat="39.35683794698555" lon="9.186636855219945"><ele>215.66666666666669</ele><time>2026-04-20T15:51:19Z</time></trkpt><trkpt lat="39.3567745746568" lon="9.186614037238357"><ele>216.0</ele><time>2026-04-20T15:51:21Z</time></trkpt><trkpt lat="39.35670343707207" lon="9.186595466657554"><ele>216.33333333333331</ele><time>2026-04-20T15:51:23Z</time></trkpt><trkpt lat="39.35662405412144" lon="9.186589323958687"><ele>216.66666666666666</ele><time>2026-04-20T15:51:25Z</time></trkpt><trkpt lat="39.356561447234206" lon="9.186572275181854"><ele>217.0</ele><time>2026-04-20T15:51:26Z</time></trkpt><trkpt lat="39.35645208795483" lon="9.186556557625941"><ele>217.0</ele><time>2026-04-20T15:51:29Z</time></trkpt><trkpt lat="39.3563543596467" lon="9.18654686506266"><ele>217.0</ele><time>2026-04-20T15:51:31Z</time></trkpt><trkpt lat="39.3562481868058" lon="9.186547529256877"><ele>217.0</ele><time>2026-04-20T15:51:33Z</time></trkpt><trkpt lat="39.3561637275598" lon="9.186537161192607"><ele>217.0</ele><time>2026-04-20T15:51:35Z</time></trkpt><trkpt lat="39.356066809805405" lon="9.186534732045882"><ele>217.0</ele><time>2026-04-20T15:51:36Z</time></trkpt><trkpt lat="39.35595550566224" lon="9.186533265289956"><ele>215.6</ele><time>2026-04-20T15:51:38Z</time></trkpt><trkpt lat="39.35585165432489" lon="9.186497805242794"><ele>214.2</ele><time>2026-04-20T15:51:40Z</time></trkpt><trkpt lat="39.35575460872447" lon="9.186496661392344"><ele>212.8</ele><time>2026-04-20T15:51:42Z</time></trkpt><trkpt lat="39.35566276431614" lon="9.186474633950745"><ele>211.4</ele><time>2026-04-20T15:51:44Z</time></trkpt><trkpt lat="39.3555663890331" lon="9.186428110795818"><ele>210.0</ele><time>2026-04-20T15:51:46Z</time></trkpt><trkpt lat="39.35544769996641" lon="9.1864155041149"><ele>210.0</ele><time>2026-04-20T15:51:48Z</time></trkpt><trkpt lat="39.35533402303871" lon="9.186386650540735"><ele>210.0</ele><time>2026-04-20T15:51:50Z</time></trkpt><trkpt lat="39.355211787856994" lon="9.1863742813403"><ele>210.0</ele><time>2026-04-20T15:51:52Z</time></trkpt><trkpt lat="39.35509739491075" lon="9.18634555265435"><ele>210.0</ele><time>2026-04-20T15:51:54Z</time></trkpt><trkpt lat="39.35502696771095" lon="9.186341010208324"><ele>210.0</ele><time>2026-04-20T15:51:55Z</time></trkpt><trkpt lat="39.35495837615294" lon="9.186338609029745"><ele>210.0</ele><time>2026-04-20T15:51:56Z</time></trkpt><trkpt lat="39.35489031427819" lon="9.186336226417277"><ele>210.0</ele><time>2026-04-20T15:51:57Z</time></trkpt><trkpt lat="39.35482160465442" lon="9.186335435691355"><ele>210.0</ele><time>2026-04-20T15:51:58Z</time></trkpt><trkpt lat="39.35474859411984" lon="9.186335435690857"><ele>210.0</ele><time>2026-04-20T15:51:59Z</time></trkpt><trkpt lat="39.35468375856193" lon="9.186329527636952"><ele>210.0</ele><time>2026-04-20T15:52:00Z</time></trkpt><trkpt lat="39.3546156126079" lon="9.186313465651908"><ele>210.0</ele><time>2026-04-20T15:52:01Z</time></trkpt><trkpt lat="39.354548524426804" lon="9.186276921772462"><ele>210.0</ele><time>2026-04-20T15:52:02Z</time></trkpt><trkpt lat="39.354475332439954" lon="9.186247797759513"><ele>209.5</ele><time>2026-04-20T15:52:03Z</time></trkpt><trkpt lat="39.354407555946544" lon="9.186200452783924"><ele>209.0</ele><time>2026-04-20T15:52:04Z</time></trkpt><trkpt lat="39.35432708519318" lon="9.18615989522303"><ele>208.5</ele><time>2026-04-20T15:52:05Z</time></trkpt><trkpt lat="39.35424651549955" lon="9.186126257872319"><ele>208.0</ele><time>2026-04-20T15:52:06Z</time></trkpt><trkpt lat="39.35416654046328" lon="9.186094604333425"><ele>207.5</ele><time>2026-04-20T15:52:07Z</time></trkpt><trkpt lat="39.354096256906075" lon="9.186054219969815"><ele>207.0</ele><time>2026-04-20T15:52:08Z</time></trkpt><trkpt lat="39.35402400254847" lon="9.18601229915086"><ele>207.00000000000003</ele><time>2026-04-20T15:52:09Z</time></trkpt><trkpt lat="39.353958394895635" lon="9.185968766173449"><ele>207.0</ele><time>2026-04-20T15:52:10Z</time></trkpt><trkpt lat="39.35389635048599" lon="9.185922080115379"><ele>207.0</ele><time>2026-04-20T15:52:11Z</time></trkpt><trkpt lat="39.35383639425138" lon="9.185872287365525"><ele>207.0</ele><time>2026-04-20T15:52:12Z</time></trkpt><trkpt lat="39.35377879762125" lon="9.185825308035756"><ele>207.0</ele><time>2026-04-20T15:52:13Z</time></trkpt><trkpt lat="39.353729015249925" lon="9.185757319237776"><ele>207.00000000000003</ele><time>2026-04-20T15:52:14Z</time></trkpt><trkpt lat="39.35367239171987" lon="9.18570526814328"><ele>207.0</ele><time>2026-04-20T15:52:15Z</time></trkpt><trkpt lat="39.35360966349017" lon="9.185661909963674"><ele>206.0</ele><time>2026-04-20T15:52:16Z</time></trkpt><trkpt lat="39.353559711233345" lon="9.18559408634351"><ele>205.0</ele><time>2026-04-20T15:52:17Z</time></trkpt><trkpt lat="39.35349303444784" lon="9.185551330323424"><ele>204.0</ele><time>2026-04-20T15:52:18Z</time></trkpt><trkpt lat="39.35341437295057" lon="9.18552014723844"><ele>203.0</ele><time>2026-04-20T15:52:19Z</time></trkpt><trkpt lat="39.35334152314676" lon="9.185475174872852"><ele>202.0</ele><time>2026-04-20T15:52:20Z</time></trkpt><trkpt lat="39.353274946991455" lon="9.185451136146046"><ele>201.0</ele><time>2026-04-20T15:52:21Z</time></trkpt><trkpt lat="39.35320067306374" lon="9.185454336335367"><ele>201.0</ele><time>2026-04-20T15:52:22Z</time></trkpt><trkpt lat="39.353130102500565" lon="9.185420336145226"><ele>201.0</ele><time>2026-04-20T15:52:23Z</time></trkpt><trkpt lat="39.35306241996648" lon="9.18540936171036"><ele>201.0</ele><time>2026-04-20T15:52:24Z</time></trkpt><trkpt lat="39.3529901240344" lon="9.18539771133123"><ele>201.0</ele><time>2026-04-20T15:52:25Z</time></trkpt><trkpt lat="39.352922416592186" lon="9.185389875867818"><ele>201.0</ele><time>2026-04-20T15:52:26Z</time></trkpt><trkpt lat="39.35285565728696" lon="9.185384446743084"><ele>201.0</ele><time>2026-04-20T15:52:27Z</time></trkpt><trkpt lat="39.35279131254737" lon="9.18537921400027"><ele>201.0</ele><time>2026-04-20T15:52:28Z</time></trkpt><trkpt lat="39.35272163342391" lon="9.185397187473106"><ele>201.0</ele><time>2026-04-20T15:52:29Z</time></trkpt><trkpt lat="39.35259847888655" lon="9.185414351096089"><ele>201.0</ele><time>2026-04-20T15:52:31Z</time></trkpt><trkpt lat="39.3524990749083" lon="9.185448621240281"><ele>201.0</ele><time>2026-04-20T15:52:33Z</time></trkpt><trkpt lat="39.35241596758975" lon="9.185445409225618"><ele>201.0</ele><time>2026-04-20T15:52:35Z</time></trkpt><trkpt lat="39.352347793495916" lon="9.185450890512838"><ele>201.0</ele><time>2026-04-20T15:52:37Z</time></trkpt><trkpt lat="39.35226974552048" lon="9.185434124629465"><ele>200.8</ele><time>2026-04-20T15:52:39Z</time></trkpt><trkpt lat="39.35218526046181" lon="9.185421211051223"><ele>200.60000000000002</ele><time>2026-04-20T15:52:41Z</time></trkpt><trkpt lat="39.352083629682205" lon="9.185375877390173"><ele>200.4</ele><time>2026-04-20T15:52:43Z</time></trkpt><trkpt lat="39.351978025355464" lon="9.185289432597456"><ele>200.2</ele><time>2026-04-20T15:52:45Z</time></trkpt><trkpt lat="39.35191280889042" lon="9.185283723191658"><ele>200.0</ele><time>2026-04-20T15:52:46Z</time></trkpt><trkpt lat="39.351852251552856" lon="9.185244321729645"><ele>200.00000000000003</ele><time>2026-04-20T15:52:47Z</time></trkpt><trkpt lat="39.3517787392918" lon="9.18522940781538"><ele>200.0</ele><time>2026-04-20T15:52:48Z</time></trkpt><trkpt lat="39.35171275142015" lon="9.185221330376114"><ele>200.0</ele><time>2026-04-20T15:52:49Z</time></trkpt><trkpt lat="39.35164356849355" lon="9.185214126313074"><ele>200.0</ele><time>2026-04-20T15:52:50Z</time></trkpt><trkpt lat="39.35157505547597" lon="9.185209831923201"><ele>200.0</ele><time>2026-04-20T15:52:51Z</time></trkpt><trkpt lat="39.35150547946907" lon="9.185205449624878"><ele>200.00000000000003</ele><time>2026-04-20T15:52:52Z</time></trkpt><trkpt lat="39.35144142734071" lon="9.185224887983132"><ele>200.0</ele><time>2026-04-20T15:52:53Z</time></trkpt><trkpt lat="39.35137433757802" lon="9.185222332404846"><ele>200.0</ele><time>2026-04-20T15:52:54Z</time></trkpt><trkpt lat="39.35125177687016" lon="9.185191073195934"><ele>200.0</ele><time>2026-04-20T15:52:56Z</time></trkpt><trkpt lat="39.351144123966016" lon="9.185151924678774"><ele>200.0</ele><time>2026-04-20T15:52:58Z</time></trkpt><trkpt lat="39.35105313699417" lon="9.185103573484227"><ele>200.0</ele><time>2026-04-20T15:53:00Z</time></trkpt><trkpt lat="39.350967155320404" lon="9.185050375688174"><ele>200.0</ele><time>2026-04-20T15:53:03Z</time></trkpt><trkpt lat="39.35090282447099" lon="9.185010436099322"><ele>200.00000000000003</ele><time>2026-04-20T15:53:05Z</time></trkpt><trkpt lat="39.35083186690673" lon="9.184969130154036"><ele>200.0</ele><time>2026-04-20T15:53:07Z</time></trkpt><trkpt lat="39.350759213276156" lon="9.184930749342804"><ele>200.0</ele><time>2026-04-20T15:53:09Z</time></trkpt><trkpt lat="39.35068084739969" lon="9.18491612087745"><ele>200.0</ele><time>2026-04-20T15:53:11Z</time></trkpt><trkpt lat="39.350615315681985" lon="9.18489945145205"><ele>200.00000000000003</ele><time>2026-04-20T15:53:13Z</time></trkpt><trkpt lat="39.35053595794271" lon="9.18485704436009"><ele>200.0</ele><time>2026-04-20T15:53:16Z</time></trkpt><trkpt lat="39.35047620653612" lon="9.184816886906942"><ele>199.85714285714286</ele><time>2026-04-20T15:53:18Z</time></trkpt><trkpt lat="39.35042259424254" lon="9.184770304700791"><ele>199.71428571428572</ele><time>2026-04-20T15:53:20Z</time></trkpt><trkpt lat="39.35035077027276" lon="9.18472030203143"><ele>199.57142857142856</ele><time>2026-04-20T15:53:23Z</time></trkpt><trkpt lat="39.35028240633266" lon="9.18467313713256"><ele>199.42857142857144</ele><time>2026-04-20T15:53:26Z</time></trkpt><trkpt lat="39.35023023039283" lon="9.184616017031898"><ele>199.28571428571428</ele><time>2026-04-20T15:53:28Z</time></trkpt><trkpt lat="39.3501765701457" lon="9.184552599086791"><ele>199.14285714285714</ele><time>2026-04-20T15:53:31Z</time></trkpt><trkpt lat="39.35012981683774" lon="9.18448214380096"><ele>199.0</ele><time>2026-04-20T15:53:34Z</time></trkpt><trkpt lat="39.3500820835587" lon="9.184420339752634"><ele>199.0</ele><time>2026-04-20T15:53:36Z</time></trkpt><trkpt lat="39.35002032046377" lon="9.18436239152092"><ele>199.0</ele><time>2026-04-20T15:53:38Z</time></trkpt><trkpt lat="39.34995408916435" lon="9.184294079297809"><ele>199.0</ele><time>2026-04-20T15:53:41Z</time></trkpt><trkpt lat="39.349861360820285" lon="9.184223674511093"><ele>199.0</ele><time>2026-04-20T15:53:43Z</time></trkpt><trkpt lat="39.349760544894444" lon="9.184183626318054"><ele>199.0</ele><time>2026-04-20T15:53:45Z</time></trkpt><trkpt lat="39.34968194953483" lon="9.184145077121585"><ele>199.66666666666666</ele><time>2026-04-20T15:53:47Z</time></trkpt><trkpt lat="39.349595528663606" lon="9.18411335656973"><ele>200.33333333333331</ele><time>2026-04-20T15:53:49Z</time></trkpt><trkpt lat="39.349513121412805" lon="9.184112524609109"><ele>201.0</ele><time>2026-04-20T15:53:52Z</time></trkpt><trkpt lat="39.349445868585725" lon="9.184085393788624"><ele>201.66666666666669</ele><time>2026-04-20T15:53:54Z</time></trkpt><trkpt lat="39.34937523976926" lon="9.184052681336532"><ele>202.33333333333334</ele><time>2026-04-20T15:53:56Z</time></trkpt><trkpt lat="39.34929235439401" lon="9.184026355050486"><ele>203.0</ele><time>2026-04-20T15:53:59Z</time></trkpt><trkpt lat="39.3492258795755" lon="9.183999532356252"><ele>203.00000000000003</ele><time>2026-04-20T15:54:01Z</time></trkpt><trkpt lat="39.34912522259649" lon="9.183990782808287"><ele>203.0</ele><time>2026-04-20T15:54:04Z</time></trkpt><trkpt lat="39.34904402363882" lon="9.183978211451986"><ele>203.0</ele><time>2026-04-20T15:54:06Z</time></trkpt><trkpt lat="39.34897743087916" lon="9.183947729613468"><ele>203.0</ele><time>2026-04-20T15:54:08Z</time></trkpt><trkpt lat="39.34890203336665" lon="9.183899963022714"><ele>203.00000000000003</ele><time>2026-04-20T15:54:10Z</time></trkpt><trkpt lat="39.34881605016152" lon="9.18384692199759"><ele>203.0</ele><time>2026-04-20T15:54:12Z</time></trkpt><trkpt lat="39.34874111915833" lon="9.183775570276191"><ele>203.0</ele><time>2026-04-20T15:54:14Z</time></trkpt><trkpt lat="39.34865602527955" lon="9.183690337321456"><ele>203.0</ele><time>2026-04-20T15:54:16Z</time></trkpt><trkpt lat="39.34854238236961" lon="9.183643767382907"><ele>203.0</ele><time>2026-04-20T15:54:18Z</time></trkpt><trkpt lat="39.34844715422723" lon="9.183587402861844"><ele>203.0</ele><time>2026-04-20T15:54:20Z</time></trkpt><trkpt lat="39.34835759170972" lon="9.183480953834467"><ele>203.0</ele><time>2026-04-20T15:54:22Z</time></trkpt><trkpt lat="39.34827913339229" lon="9.183361352647674"><ele>203.0</ele><time>2026-04-20T15:54:24Z</time></trkpt><trkpt lat="39.348217097900985" lon="9.183238410570546"><ele>203.0</ele><time>2026-04-20T15:54:26Z</time></trkpt><trkpt lat="39.34813720142887" lon="9.183178032909009"><ele>203.0</ele><time>2026-04-20T15:54:28Z</time></trkpt><trkpt lat="39.347996730917146" lon="9.183236123827418"><ele>202.0</ele><time>2026-04-20T15:54:30Z</time></trkpt><trkpt lat="39.347952399777526" lon="9.183312602943955"><ele>201.0</ele><time>2026-04-20T15:54:31Z</time></trkpt><trkpt lat="39.34789232238116" lon="9.183372058884274"><ele>200.0</ele><time>2026-04-20T15:54:32Z</time></trkpt><trkpt lat="39.34783402616285" lon="9.183515153437884"><ele>199.0</ele><time>2026-04-20T15:54:34Z</time></trkpt><trkpt lat="39.34776352706851" lon="9.183666297775336"><ele>198.0</ele><time>2026-04-20T15:54:36Z</time></trkpt><trkpt lat="39.34772746467234" lon="9.183742450292618"><ele>198.0</ele><time>2026-04-20T15:54:37Z</time></trkpt><trkpt lat="39.34769043908465" lon="9.18381623300291"><ele>198.0</ele><time>2026-04-20T15:54:38Z</time></trkpt><trkpt lat="39.34765268042056" lon="9.183896346419443"><ele>198.0</ele><time>2026-04-20T15:54:39Z</time></trkpt><trkpt lat="39.34761642364415" lon="9.18397876098918"><ele>198.0</ele><time>2026-04-20T15:54:40Z</time></trkpt><trkpt lat="39.34757908384679" lon="9.184048996183236"><ele>198.0</ele><time>2026-04-20T15:54:41Z</time></trkpt><trkpt lat="39.34751494116301" lon="9.18418967793966"><ele>198.0</ele><time>2026-04-20T15:54:43Z</time></trkpt><trkpt lat="39.34747372471424" lon="9.184318459727148"><ele>198.0</ele><time>2026-04-20T15:54:45Z</time></trkpt><trkpt lat="39.34741970446365" lon="9.184370265658648"><ele>198.0</ele><time>2026-04-20T15:54:47Z</time></trkpt><trkpt lat="39.347224675255255" lon="9.184317416691625"><ele>198.0</ele><time>2026-04-20T15:54:49Z</time></trkpt><trkpt lat="39.34716735061865" lon="9.184209866542192"><ele>198.0</ele><time>2026-04-20T15:54:51Z</time></trkpt><trkpt lat="39.347092619427166" lon="9.18414318705609"><ele>197.5</ele><time>2026-04-20T15:54:53Z</time></trkpt><trkpt lat="39.347051001708586" lon="9.184069942024568"><ele>197.0</ele><time>2026-04-20T15:54:55Z</time></trkpt><trkpt lat="39.34700658247331" lon="9.18400952112915"><ele>196.5</ele><time>2026-04-20T15:54:57Z</time></trkpt><trkpt lat="39.34688833013185" lon="9.18405879870377"><ele>196.0</ele><time>2026-04-20T15:54:59Z</time></trkpt><trkpt lat="39.3468246466478" lon="9.184090903317804"><ele>195.5</ele><time>2026-04-20T15:55:01Z</time></trkpt><trkpt lat="39.34670901203458" lon="9.184068986619362"><ele>195.0</ele><time>2026-04-20T15:55:03Z</time></trkpt><trkpt lat="39.34661439488678" lon="9.184063003128367"><ele>195.0</ele><time>2026-04-20T15:55:05Z</time></trkpt><trkpt lat="39.34651629211326" lon="9.184055848751193"><ele>195.0</ele><time>2026-04-20T15:55:07Z</time></trkpt><trkpt lat="39.34644150693043" lon="9.184055318442963"><ele>195.0</ele><time>2026-04-20T15:55:10Z</time></trkpt><trkpt lat="39.346339348144156" lon="9.18404362618522"><ele>195.0</ele><time>2026-04-20T15:55:13Z</time></trkpt><trkpt lat="39.34623057645663" lon="9.184020020891143"><ele>195.0</ele><time>2026-04-20T15:55:15Z</time></trkpt><trkpt lat="39.346109912311896" lon="9.18395393059057"><ele>194.4</ele><time>2026-04-20T15:55:17Z</time></trkpt><trkpt lat="39.346031567958455" lon="9.183914144481784"><ele>193.8</ele><time>2026-04-20T15:55:19Z</time></trkpt><trkpt lat="39.34595616773809" lon="9.183866492876572"><ele>193.2</ele><time>2026-04-20T15:55:20Z</time></trkpt><trkpt lat="39.34585337461635" lon="9.183800837341217"><ele>192.6</ele><time>2026-04-20T15:55:22Z</time></trkpt><trkpt lat="39.34576547073755" lon="9.18373085094752"><ele>192.0</ele><time>2026-04-20T15:55:24Z</time></trkpt><trkpt lat="39.345678453548295" lon="9.183659250451543"><ele>192.0</ele><time>2026-04-20T15:55:26Z</time></trkpt><trkpt lat="39.34559578072594" lon="9.18359110134301"><ele>192.0</ele><time>2026-04-20T15:55:28Z</time></trkpt><trkpt lat="39.34550518001462" lon="9.183518734211475"><ele>192.0</ele><time>2026-04-20T15:55:30Z</time></trkpt><trkpt lat="39.34541484384856" lon="9.183447670114385"><ele>192.0</ele><time>2026-04-20T15:55:32Z</time></trkpt><trkpt lat="39.34531802651063" lon="9.183399261471113"><ele>192.0</ele><time>2026-04-20T15:55:34Z</time></trkpt><trkpt lat="39.34522952819667" lon="9.183353818113714"><ele>192.2</ele><time>2026-04-20T15:55:36Z</time></trkpt><trkpt lat="39.34513987625008" lon="9.183304731106418"><ele>192.39999999999998</ele><time>2026-04-20T15:55:38Z</time></trkpt><trkpt lat="39.345049050888235" lon="9.183260693841412"><ele>192.60000000000002</ele><time>2026-04-20T15:55:40Z</time></trkpt><trkpt lat="39.344961145803644" lon="9.18322603722744"><ele>192.8</ele><time>2026-04-20T15:55:42Z</time></trkpt><trkpt lat="39.34486757207354" lon="9.18318099985953"><ele>193.0</ele><time>2026-04-20T15:55:44Z</time></trkpt><trkpt lat="39.344779176158" lon="9.183160269298776"><ele>192.2</ele><time>2026-04-20T15:55:46Z</time></trkpt><trkpt lat="39.344694248844256" lon="9.183070434869926"><ele>191.4</ele><time>2026-04-20T15:55:48Z</time></trkpt><trkpt lat="39.344607674375595" lon="9.183000627267079"><ele>190.6</ele><time>2026-04-20T15:55:50Z</time></trkpt><trkpt lat="39.34452264955815" lon="9.182910001257824"><ele>189.79999999999998</ele><time>2026-04-20T15:55:52Z</time></trkpt><trkpt lat="39.34443210211193" lon="9.182798917002744"><ele>189.0</ele><time>2026-04-20T15:55:54Z</time></trkpt><trkpt lat="39.34434066248833" lon="9.182710592553951"><ele>189.0</ele><time>2026-04-20T15:55:56Z</time></trkpt><trkpt lat="39.3443206763991" lon="9.182603160931976"><ele>189.0</ele><time>2026-04-20T15:55:57Z</time></trkpt><trkpt lat="39.34428291436459" lon="9.182530768236088"><ele>189.0</ele><time>2026-04-20T15:55:58Z</time></trkpt><trkpt lat="39.34424606626053" lon="9.182457905885725"><ele>189.0</ele><time>2026-04-20T15:55:59Z</time></trkpt><trkpt lat="39.34420775191574" lon="9.182385143566421"><ele>189.0</ele><time>2026-04-20T15:56:00Z</time></trkpt><trkpt lat="39.34416702976485" lon="9.182314616804462"><ele>189.0</ele><time>2026-04-20T15:56:01Z</time></trkpt><trkpt lat="39.34411967081791" lon="9.182237519833578"><ele>189.0</ele><time>2026-04-20T15:56:02Z</time></trkpt><trkpt lat="39.34409710591152" lon="9.182152317713609"><ele>188.57142857142858</ele><time>2026-04-20T15:56:03Z</time></trkpt><trkpt lat="39.34405703029372" lon="9.182068154240474"><ele>188.14285714285714</ele><time>2026-04-20T15:56:04Z</time></trkpt><trkpt lat="39.344016802096625" lon="9.181987103361429"><ele>187.71428571428572</ele><time>2026-04-20T15:56:05Z</time></trkpt><trkpt lat="39.343989786679636" lon="9.18190727375621"><ele>187.28571428571428</ele><time>2026-04-20T15:56:06Z</time></trkpt><trkpt lat="39.34394498259407" lon="9.18182212378057"><ele>186.85714285714286</ele><time>2026-04-20T15:56:07Z</time></trkpt><trkpt lat="39.34389778189353" lon="9.181747807858645"><ele>186.42857142857144</ele><time>2026-04-20T15:56:08Z</time></trkpt><trkpt lat="39.34387346776785" lon="9.18166183317626"><ele>186.0</ele><time>2026-04-20T15:56:09Z</time></trkpt><trkpt lat="39.34384055315353" lon="9.181578753195446"><ele>185.83333333333334</ele><time>2026-04-20T15:56:10Z</time></trkpt><trkpt lat="39.343782655333904" lon="9.181427921058237"><ele>185.66666666666666</ele><time>2026-04-20T15:56:12Z</time></trkpt><trkpt lat="39.34375578821248" lon="9.181346945855958"><ele>185.5</ele><time>2026-04-20T15:56:13Z</time></trkpt><trkpt lat="39.34373419799511" lon="9.181266550406763"><ele>185.33333333333331</ele><time>2026-04-20T15:56:14Z</time></trkpt><trkpt lat="39.34371248420283" lon="9.181188636618502"><ele>185.16666666666666</ele><time>2026-04-20T15:56:15Z</time></trkpt><trkpt lat="39.343689757828855" lon="9.181107089462422"><ele>185.0</ele><time>2026-04-20T15:56:16Z</time></trkpt><trkpt lat="39.34356569218283" lon="9.18107471067867"><ele>185.0</ele><time>2026-04-20T15:56:17Z</time></trkpt><trkpt lat="39.34352399986508" lon="9.181007075434277"><ele>185.0</ele><time>2026-04-20T15:56:18Z</time></trkpt><trkpt lat="39.343450042074984" lon="9.180877569886142"><ele>185.0</ele><time>2026-04-20T15:56:20Z</time></trkpt><trkpt lat="39.343410202108856" lon="9.180812210094482"><ele>185.0</ele><time>2026-04-20T15:56:21Z</time></trkpt><trkpt lat="39.34336874268923" lon="9.180746946595896"><ele>185.0</ele><time>2026-04-20T15:56:22Z</time></trkpt><trkpt lat="39.34333305116041" lon="9.18067861073592"><ele>185.0</ele><time>2026-04-20T15:56:23Z</time></trkpt><trkpt lat="39.34326505449643" lon="9.180540763702632"><ele>184.6</ele><time>2026-04-20T15:56:25Z</time></trkpt><trkpt lat="39.34323951469581" lon="9.180462017720274"><ele>184.2</ele><time>2026-04-20T15:56:26Z</time></trkpt><trkpt lat="39.34320203232648" lon="9.180387895184719"><ele>183.8</ele><time>2026-04-20T15:56:27Z</time></trkpt><trkpt lat="39.34316025308418" lon="9.180237199354513"><ele>183.4</ele><time>2026-04-20T15:56:29Z</time></trkpt><trkpt lat="39.34313294295737" lon="9.180159122505456"><ele>183.0</ele><time>2026-04-20T15:56:30Z</time></trkpt><trkpt lat="39.34308702018026" lon="9.180008754748052"><ele>183.4</ele><time>2026-04-20T15:56:32Z</time></trkpt><trkpt lat="39.34304352089258" lon="9.179862029763521"><ele>183.8</ele><time>2026-04-20T15:56:34Z</time></trkpt><trkpt lat="39.343009625557976" lon="9.179790238482054"><ele>184.2</ele><time>2026-04-20T15:56:35Z</time></trkpt><trkpt lat="39.34293534842983" lon="9.179670510209329"><ele>184.6</ele><time>2026-04-20T15:56:37Z</time></trkpt><trkpt lat="39.34285305504203" lon="9.17956462312902"><ele>185.0</ele><time>2026-04-20T15:56:39Z</time></trkpt><trkpt lat="39.34276790118517" lon="9.1794893825959"><ele>185.0</ele><time>2026-04-20T15:56:41Z</time></trkpt><trkpt lat="39.342677880762636" lon="9.179424989214203"><ele>185.0</ele><time>2026-04-20T15:56:43Z</time></trkpt><trkpt lat="39.34259682722529" lon="9.179368556350267"><ele>185.0</ele><time>2026-04-20T15:56:45Z</time></trkpt><trkpt lat="39.342525034990636" lon="9.179321329635012"><ele>185.0</ele><time>2026-04-20T15:56:47Z</time></trkpt><trkpt lat="39.34246947663863" lon="9.17926974974589"><ele>185.0</ele><time>2026-04-20T15:56:49Z</time></trkpt><trkpt lat="39.342409859620794" lon="9.179232288855731"><ele>185.0</ele><time>2026-04-20T15:56:51Z</time></trkpt><trkpt lat="39.3423610995104" lon="9.179143530356768"><ele>185.0</ele><time>2026-04-20T15:56:54Z</time></trkpt><trkpt lat="39.34232732527951" lon="9.179068934061412"><ele>185.0</ele><time>2026-04-20T15:56:56Z</time></trkpt><trkpt lat="39.34228383916706" lon="9.178972183363994"><ele>185.0</ele><time>2026-04-20T15:56:58Z</time></trkpt><trkpt lat="39.342235915062865" lon="9.178866098835675"><ele>185.0</ele><time>2026-04-20T15:57:00Z</time></trkpt><trkpt lat="39.34221058846883" lon="9.178771865102515"><ele>185.0</ele><time>2026-04-20T15:57:03Z</time></trkpt><trkpt lat="39.34207673924029" lon="9.1786086735396"><ele>185.2</ele><time>2026-04-20T15:57:04Z</time></trkpt><trkpt lat="39.34200301782841" lon="9.178490272623044"><ele>185.4</ele><time>2026-04-20T15:57:06Z</time></trkpt><trkpt lat="39.34194919253218" lon="9.178355962601639"><ele>185.60000000000002</ele><time>2026-04-20T15:57:08Z</time></trkpt><trkpt lat="39.34188037789249" lon="9.17824297994925"><ele>185.8</ele><time>2026-04-20T15:57:10Z</time></trkpt><trkpt lat="39.341820200649586" lon="9.178152736243936"><ele>186.0</ele><time>2026-04-20T15:57:12Z</time></trkpt><trkpt lat="39.34177072891726" lon="9.178089446105387"><ele>186.0</ele><time>2026-04-20T15:57:14Z</time></trkpt><trkpt lat="39.341703360121436" lon="9.177992936541626"><ele>186.0</ele><time>2026-04-20T15:57:16Z</time></trkpt><trkpt lat="39.34166272762967" lon="9.17789587684052"><ele>186.0</ele><time>2026-04-20T15:57:18Z</time></trkpt><trkpt lat="39.341605876404294" lon="9.177790340695337"><ele>186.0</ele><time>2026-04-20T15:57:20Z</time></trkpt><trkpt lat="39.341577969823874" lon="9.177697624594229"><ele>186.0</ele><time>2026-04-20T15:57:22Z</time></trkpt><trkpt lat="39.34153030012476" lon="9.177608736763343"><ele>186.0</ele><time>2026-04-20T15:57:24Z</time></trkpt><trkpt lat="39.34150417868417" lon="9.177508187095965"><ele>186.0</ele><time>2026-04-20T15:57:27Z</time></trkpt><trkpt lat="39.341457761149506" lon="9.177432085910453"><ele>186.0</ele><time>2026-04-20T15:57:30Z</time></trkpt><trkpt lat="39.34141150702497" lon="9.177334045319112"><ele>186.0</ele><time>2026-04-20T15:57:32Z</time></trkpt><trkpt lat="39.341359190739524" lon="9.17722277976221"><ele>186.0</ele><time>2026-04-20T15:57:34Z</time></trkpt><trkpt lat="39.3412975463731" lon="9.177109612000878"><ele>186.0</ele><time>2026-04-20T15:57:36Z</time></trkpt><trkpt lat="39.34128334161715" lon="9.177027937140537"><ele>186.0</ele><time>2026-04-20T15:57:38Z</time></trkpt><trkpt lat="39.34120905858257" lon="9.176924960371878"><ele>186.66666666666666</ele><time>2026-04-20T15:57:41Z</time></trkpt><trkpt lat="39.34116877697225" lon="9.176850680711388"><ele>187.33333333333334</ele><time>2026-04-20T15:57:42Z</time></trkpt><trkpt lat="39.34113434990934" lon="9.176767738336423"><ele>188.0</ele><time>2026-04-20T15:57:45Z</time></trkpt><trkpt lat="39.3410914235572" lon="9.17669538119462"><ele>188.66666666666669</ele><time>2026-04-20T15:57:47Z</time></trkpt><trkpt lat="39.34105286567225" lon="9.176606163851188"><ele>189.33333333333334</ele><time>2026-04-20T15:57:48Z</time></trkpt><trkpt lat="39.34101595202715" lon="9.176521981576592"><ele>190.0</ele><time>2026-04-20T15:57:50Z</time></trkpt><trkpt lat="39.34098079250304" lon="9.17641891399439"><ele>190.0</ele><time>2026-04-20T15:57:53Z</time></trkpt><trkpt lat="39.340954856153125" lon="9.176309668994982"><ele>190.0</ele><time>2026-04-20T15:57:56Z</time></trkpt><trkpt lat="39.34092201224645" lon="9.176220181781337"><ele>190.0</ele><time>2026-04-20T15:57:58Z</time></trkpt><trkpt lat="39.340911145920195" lon="9.176105653699604"><ele>190.0</ele><time>2026-04-20T15:58:00Z</time></trkpt><trkpt lat="39.34090112987339" lon="9.176011927696688"><ele>190.0</ele><time>2026-04-20T15:58:02Z</time></trkpt><trkpt lat="39.340879010307866" lon="9.175835106169401"><ele>190.0</ele><time>2026-04-20T15:58:04Z</time></trkpt><trkpt lat="39.34087986525222" lon="9.175688417048432"><ele>190.0</ele><time>2026-04-20T15:58:06Z</time></trkpt><trkpt lat="39.34089005074661" lon="9.17553538685153"><ele>190.0</ele><time>2026-04-20T15:58:08Z</time></trkpt><trkpt lat="39.34088673352381" lon="9.175445767854026"><ele>190.0</ele><time>2026-04-20T15:58:09Z</time></trkpt><trkpt lat="39.34088983080288" lon="9.17535985369918"><ele>190.0</ele><time>2026-04-20T15:58:10Z</time></trkpt><trkpt lat="39.34089044567504" lon="9.175277105104065"><ele>190.0</ele><time>2026-04-20T15:58:11Z</time></trkpt><trkpt lat="39.34089784482877" lon="9.175185168309204"><ele>189.57142857142858</ele><time>2026-04-20T15:58:12Z</time></trkpt><trkpt lat="39.34090385314966" lon="9.175087419683614"><ele>189.14285714285717</ele><time>2026-04-20T15:58:13Z</time></trkpt><trkpt lat="39.34091198414882" lon="9.174997454035106"><ele>188.71428571428572</ele><time>2026-04-20T15:58:14Z</time></trkpt><trkpt lat="39.340924200954206" lon="9.174902467580333"><ele>188.28571428571428</ele><time>2026-04-20T15:58:15Z</time></trkpt><trkpt lat="39.34095129267793" lon="9.174819508474584"><ele>187.85714285714286</ele><time>2026-04-20T15:58:16Z</time></trkpt><trkpt lat="39.34098150773267" lon="9.174744528591539"><ele>187.42857142857142</ele><time>2026-04-20T15:58:17Z</time></trkpt><trkpt lat="39.34100684695558" lon="9.174660346033845"><ele>187.0</ele><time>2026-04-20T15:58:18Z</time></trkpt><trkpt lat="39.34103397823888" lon="9.174584604774687"><ele>186.42857142857142</ele><time>2026-04-20T15:58:19Z</time></trkpt><trkpt lat="39.341065241484394" lon="9.174502441506828"><ele>185.85714285714286</ele><time>2026-04-20T15:58:20Z</time></trkpt><trkpt lat="39.341082956473294" lon="9.17441426976596"><ele>185.28571428571428</ele><time>2026-04-20T15:58:21Z</time></trkpt><trkpt lat="39.34111655661017" lon="9.174339712287534"><ele>184.71428571428572</ele><time>2026-04-20T15:58:22Z</time></trkpt><trkpt lat="39.34114389448426" lon="9.174257281157145"><ele>184.14285714285717</ele><time>2026-04-20T15:58:23Z</time></trkpt><trkpt lat="39.34116709624517" lon="9.174171555682783"><ele>183.57142857142858</ele><time>2026-04-20T15:58:24Z</time></trkpt><trkpt lat="39.34120110064656" lon="9.174098416544453"><ele>183.0</ele><time>2026-04-20T15:58:25Z</time></trkpt><trkpt lat="39.34123041988718" lon="9.173935289807462"><ele>182.4</ele><time>2026-04-20T15:58:27Z</time></trkpt><trkpt lat="39.34123395028613" lon="9.1737830733713"><ele>181.8</ele><time>2026-04-20T15:58:29Z</time></trkpt><trkpt lat="39.34124699267988" lon="9.17363032476885"><ele>181.2</ele><time>2026-04-20T15:58:31Z</time></trkpt><trkpt lat="39.34126142775285" lon="9.173477505053693"><ele>180.6</ele><time>2026-04-20T15:58:33Z</time></trkpt><trkpt lat="39.341268271089056" lon="9.173383904065528"><ele>180.0</ele><time>2026-04-20T15:58:34Z</time></trkpt><trkpt lat="39.34129953068977" lon="9.173230859778565"><ele>180.0</ele><time>2026-04-20T15:58:36Z</time></trkpt><trkpt lat="39.341301575787334" lon="9.173103215899793"><ele>180.0</ele><time>2026-04-20T15:58:38Z</time></trkpt><trkpt lat="39.34132759884099" lon="9.17296076789013"><ele>180.0</ele><time>2026-04-20T15:58:40Z</time></trkpt><trkpt lat="39.34135962727416" lon="9.172805544644307"><ele>180.0</ele><time>2026-04-20T15:58:42Z</time></trkpt><trkpt lat="39.341387958326564" lon="9.172649528135262"><ele>180.0</ele><time>2026-04-20T15:58:44Z</time></trkpt><trkpt lat="39.341404411451016" lon="9.172570904918615"><ele>180.0</ele><time>2026-04-20T15:58:45Z</time></trkpt><trkpt lat="39.34143121724772" lon="9.17249132521954"><ele>180.0</ele><time>2026-04-20T15:58:46Z</time></trkpt><trkpt lat="39.34144801678517" lon="9.172409926545132"><ele>180.0</ele><time>2026-04-20T15:58:47Z</time></trkpt><trkpt lat="39.34147919120728" lon="9.172338670231973"><ele>180.0</ele><time>2026-04-20T15:58:48Z</time></trkpt><trkpt lat="39.34149932362248" lon="9.17224403529468"><ele>180.0</ele><time>2026-04-20T15:58:49Z</time></trkpt><trkpt lat="39.34152901148464" lon="9.172149614493026"><ele>180.0</ele><time>2026-04-20T15:58:50Z</time></trkpt><trkpt lat="39.34156347382362" lon="9.172058223563358"><ele>179.5</ele><time>2026-04-20T15:58:51Z</time></trkpt><trkpt lat="39.34159263515864" lon="9.171966335938542"><ele>179.0</ele><time>2026-04-20T15:58:52Z</time></trkpt><trkpt lat="39.341604234375026" lon="9.171852102756224"><ele>178.5</ele><time>2026-04-20T15:58:53Z</time></trkpt><trkpt lat="39.341622132873965" lon="9.171741679452209"><ele>178.0</ele><time>2026-04-20T15:58:54Z</time></trkpt><trkpt lat="39.34163688107468" lon="9.171623620322856"><ele>177.5</ele><time>2026-04-20T15:58:55Z</time></trkpt><trkpt lat="39.34165380381887" lon="9.171508710517097"><ele>177.0</ele><time>2026-04-20T15:58:56Z</time></trkpt><trkpt lat="39.341640580191516" lon="9.171392121939414"><ele>176.2</ele><time>2026-04-20T15:58:57Z</time></trkpt><trkpt lat="39.34162707789968" lon="9.171272110026452"><ele>175.39999999999998</ele><time>2026-04-20T15:58:58Z</time></trkpt><trkpt lat="39.34161406583326" lon="9.171156159841239"><ele>174.60000000000002</ele><time>2026-04-20T15:58:59Z</time></trkpt><trkpt lat="39.34160520483463" lon="9.171036672515326"><ele>173.8</ele><time>2026-04-20T15:59:00Z</time></trkpt><trkpt lat="39.341606193135945" lon="9.170910558255942"><ele>173.0</ele><time>2026-04-20T15:59:01Z</time></trkpt><trkpt lat="39.34160955897205" lon="9.170784418279485"><ele>172.4</ele><time>2026-04-20T15:59:02Z</time></trkpt><trkpt lat="39.34160317442492" lon="9.170665296871045"><ele>171.8</ele><time>2026-04-20T15:59:03Z</time></trkpt><trkpt lat="39.341600220846836" lon="9.170540560006351"><ele>171.2</ele><time>2026-04-20T15:59:04Z</time></trkpt><trkpt lat="39.34159643598188" lon="9.170415645457016"><ele>170.6</ele><time>2026-04-20T15:59:05Z</time></trkpt><trkpt lat="39.341600489854756" lon="9.170290060531492"><ele>170.0</ele><time>2026-04-20T15:59:06Z</time></trkpt><trkpt lat="39.34157654774897" lon="9.170167103071472"><ele>170.0</ele><time>2026-04-20T15:59:07Z</time></trkpt><trkpt lat="39.3415148579214" lon="9.170064475789934"><ele>170.0</ele><time>2026-04-20T15:59:08Z</time></trkpt><trkpt lat="39.34144223925475" lon="9.169993877404153"><ele>170.0</ele><time>2026-04-20T15:59:09Z</time></trkpt><trkpt lat="39.341387150561864" lon="9.169914664318798"><ele>170.0</ele><time>2026-04-20T15:59:10Z</time></trkpt><trkpt lat="39.34132089380334" lon="9.169830013810728"><ele>170.0</ele><time>2026-04-20T15:59:11Z</time></trkpt><trkpt lat="39.34126113201779" lon="9.169749315250373"><ele>169.83333333333331</ele><time>2026-04-20T15:59:12Z</time></trkpt><trkpt lat="39.34120267532256" lon="9.169668794689281"><ele>169.66666666666666</ele><time>2026-04-20T15:59:13Z</time></trkpt><trkpt lat="39.341145494426776" lon="9.16959321462118"><ele>169.5</ele><time>2026-04-20T15:59:14Z</time></trkpt><trkpt lat="39.34108993315003" lon="9.169523073424097"><ele>169.33333333333334</ele><time>2026-04-20T15:59:15Z</time></trkpt><trkpt lat="39.34103229305681" lon="9.169453473051085"><ele>169.16666666666669</ele><time>2026-04-20T15:59:16Z</time></trkpt><trkpt lat="39.34098572786726" lon="9.169378143146702"><ele>169.0</ele><time>2026-04-20T15:59:17Z</time></trkpt><trkpt lat="39.34091905478457" lon="9.169313299974005"><ele>169.0</ele><time>2026-04-20T15:59:18Z</time></trkpt><trkpt lat="39.340855887269015" lon="9.169255729354987"><ele>169.0</ele><time>2026-04-20T15:59:19Z</time></trkpt><trkpt lat="39.34075172660919" lon="9.169173196271059"><ele>169.0</ele><time>2026-04-20T15:59:21Z</time></trkpt><trkpt lat="39.340649730853286" lon="9.169118519215282"><ele>169.0</ele><time>2026-04-20T15:59:23Z</time></trkpt><trkpt lat="39.34055018222372" lon="9.169076647596734"><ele>169.0</ele><time>2026-04-20T15:59:25Z</time></trkpt><trkpt lat="39.34047261809673" lon="9.169042227321482"><ele>168.5</ele><time>2026-04-20T15:59:27Z</time></trkpt><trkpt lat="39.34040241575083" lon="9.168994511666561"><ele>168.0</ele><time>2026-04-20T15:59:29Z</time></trkpt><trkpt lat="39.34032377080901" lon="9.168960033954981"><ele>167.5</ele><time>2026-04-20T15:59:31Z</time></trkpt><trkpt lat="39.34023586630398" lon="9.16893785781151"><ele>167.0</ele><time>2026-04-20T15:59:33Z</time></trkpt><trkpt lat="39.34015876329422" lon="9.16892733290218"><ele>166.5</ele><time>2026-04-20T15:59:35Z</time></trkpt><trkpt lat="39.340080444384796" lon="9.168892666510617"><ele>166.0</ele><time>2026-04-20T15:59:37Z</time></trkpt><trkpt lat="39.34000413906321" lon="9.168825405913255"><ele>166.0</ele><time>2026-04-20T15:59:39Z</time></trkpt><trkpt lat="39.33991792992678" lon="9.16876145834124"><ele>166.0</ele><time>2026-04-20T15:59:41Z</time></trkpt><trkpt lat="39.339852388361244" lon="9.168704538540247"><ele>166.0</ele><time>2026-04-20T15:59:43Z</time></trkpt><trkpt lat="39.339788877345214" lon="9.168723601579858"><ele>166.0</ele><time>2026-04-20T15:59:44Z</time></trkpt><trkpt lat="39.339723024411356" lon="9.16878622359806"><ele>166.0</ele><time>2026-04-20T15:59:46Z</time></trkpt><trkpt lat="39.33966561824358" lon="9.168838981083407"><ele>166.0</ele><time>2026-04-20T15:59:50Z</time></trkpt><trkpt lat="39.33956797822437" lon="9.168889063722192"><ele>165.60000000000002</ele><time>2026-04-20T15:59:53Z</time></trkpt><trkpt lat="39.33950410739235" lon="9.168921342800976"><ele>165.2</ele><time>2026-04-20T15:59:55Z</time></trkpt><trkpt lat="39.33947199416017" lon="9.16908614363654"><ele>164.8</ele><time>2026-04-20T15:59:57Z</time></trkpt><trkpt lat="39.33941408280031" lon="9.169157066554881"><ele>164.39999999999998</ele><time>2026-04-20T15:59:59Z</time></trkpt><trkpt lat="39.33935130205318" lon="9.169232710445304"><ele>164.0</ele><time>2026-04-20T16:00:01Z</time></trkpt><trkpt lat="39.33929056458531" lon="9.169314759172785"><ele>164.16666666666666</ele><time>2026-04-20T16:00:03Z</time></trkpt><trkpt lat="39.33923089242746" lon="9.16938596581208"><ele>164.33333333333331</ele><time>2026-04-20T16:00:05Z</time></trkpt><trkpt lat="39.339161792564404" lon="9.1694464852336"><ele>164.5</ele><time>2026-04-20T16:00:07Z</time></trkpt><trkpt lat="39.33909485787521" lon="9.169508535282574"><ele>164.66666666666666</ele><time>2026-04-20T16:00:09Z</time></trkpt><trkpt lat="39.339019119111576" lon="9.169543843218126"><ele>164.83333333333334</ele><time>2026-04-20T16:00:11Z</time></trkpt><trkpt lat="39.338950924056924" lon="9.169591424119961"><ele>165.0</ele><time>2026-04-20T16:00:13Z</time></trkpt><trkpt lat="39.33887987226985" lon="9.169640723537503"><ele>165.0</ele><time>2026-04-20T16:00:15Z</time></trkpt><trkpt lat="39.33880654680129" lon="9.16965237042069"><ele>165.0</ele><time>2026-04-20T16:00:17Z</time></trkpt><trkpt lat="39.3387313209768" lon="9.169663536440533"><ele>165.0</ele><time>2026-04-20T16:00:19Z</time></trkpt><trkpt lat="39.33865705652921" lon="9.169667062398911"><ele>165.0</ele><time>2026-04-20T16:00:21Z</time></trkpt><trkpt lat="39.33858095045925" lon="9.169676057745752"><ele>165.0</ele><time>2026-04-20T16:00:23Z</time></trkpt><trkpt lat="39.33850517542317" lon="9.169655118816268"><ele>165.0</ele><time>2026-04-20T16:00:25Z</time></trkpt><trkpt lat="39.33843152953451" lon="9.16962825830402"><ele>165.00000000000003</ele><time>2026-04-20T16:00:27Z</time></trkpt><trkpt lat="39.33836345899326" lon="9.169593906588267"><ele>165.0</ele><time>2026-04-20T16:00:29Z</time></trkpt><trkpt lat="39.338296751915315" lon="9.169556702008853"><ele>165.0</ele><time>2026-04-20T16:00:31Z</time></trkpt><trkpt lat="39.33823330112791" lon="9.169509835876644"><ele>165.0</ele><time>2026-04-20T16:00:33Z</time></trkpt><trkpt lat="39.33817654357204" lon="9.16947304660492"><ele>165.0</ele><time>2026-04-20T16:00:35Z</time></trkpt><trkpt lat="39.33811922688886" lon="9.169419377056938"><ele>165.00000000000003</ele><time>2026-04-20T16:00:37Z</time></trkpt><trkpt lat="39.33806420922654" lon="9.169361414549307"><ele>165.0</ele><time>2026-04-20T16:00:39Z</time></trkpt><trkpt lat="39.33800885061054" lon="9.169294236558173"><ele>165.57142857142858</ele><time>2026-04-20T16:00:41Z</time></trkpt><trkpt lat="39.337956334145275" lon="9.169219357408444"><ele>166.14285714285714</ele><time>2026-04-20T16:00:43Z</time></trkpt><trkpt lat="39.33790937711228" lon="9.169140083870728"><ele>166.71428571428572</ele><time>2026-04-20T16:00:45Z</time></trkpt><trkpt lat="39.33787756153538" lon="9.169057203371814"><ele>167.28571428571428</ele><time>2026-04-20T16:00:47Z</time></trkpt><trkpt lat="39.337840649450776" lon="9.168984042921583"><ele>167.85714285714286</ele><time>2026-04-20T16:00:49Z</time></trkpt><trkpt lat="39.337813309968574" lon="9.168900050413153"><ele>168.42857142857144</ele><time>2026-04-20T16:00:52Z</time></trkpt><trkpt lat="39.33778127260429" lon="9.16882110423222"><ele>169.0</ele><time>2026-04-20T16:01:04Z</time></trkpt><trkpt lat="39.33775887121674" lon="9.16873473535055"><ele>169.83333333333334</ele><time>2026-04-20T16:01:17Z</time></trkpt><trkpt lat="39.337756897666885" lon="9.168637007316244"><ele>170.66666666666669</ele><time>2026-04-20T16:01:21Z</time></trkpt><trkpt lat="39.33775502851392" lon="9.168532658054165"><ele>171.5</ele><time>2026-04-20T16:01:24Z</time></trkpt><trkpt lat="39.337751399848926" lon="9.168415346756689"><ele>172.33333333333334</ele><time>2026-04-20T16:01:27Z</time></trkpt><trkpt lat="39.33773587685138" lon="9.168308507508195"><ele>173.16666666666666</ele><time>2026-04-20T16:01:30Z</time></trkpt><trkpt lat="39.33767359189512" lon="9.168276220584676"><ele>174.0</ele><time>2026-04-20T16:01:35Z</time></trkpt><trkpt lat="39.33761654183315" lon="9.168237882917207"><ele>173.28571428571428</ele><time>2026-04-20T16:01:40Z</time></trkpt><trkpt lat="39.337568105424445" lon="9.16817796175762"><ele>172.57142857142858</ele><time>2026-04-20T16:01:47Z</time></trkpt><trkpt lat="39.33752061764951" lon="9.168124190496997"><ele>171.85714285714286</ele><time>2026-04-20T16:01:52Z</time></trkpt><trkpt lat="39.33747597773124" lon="9.168052726415189"><ele>171.14285714285714</ele><time>2026-04-20T16:01:59Z</time></trkpt><trkpt lat="39.33742940873273" lon="9.167990229057995"><ele>170.42857142857142</ele><time>2026-04-20T16:02:06Z</time></trkpt><trkpt lat="39.337370854981714" lon="9.167957608980142"><ele>169.71428571428572</ele><time>2026-04-20T16:02:11Z</time></trkpt><trkpt lat="39.33729542374775" lon="9.167965756132464"><ele>169.0</ele><time>2026-04-20T16:02:16Z</time></trkpt><trkpt lat="39.337229955659424" lon="9.167963486157678"><ele>170.28571428571428</ele><time>2026-04-20T16:02:21Z</time></trkpt><trkpt lat="39.33716308101399" lon="9.167940566511158"><ele>171.57142857142856</ele><time>2026-04-20T16:02:26Z</time></trkpt><trkpt lat="39.33710282898824" lon="9.167908376910521"><ele>172.85714285714283</ele><time>2026-04-20T16:02:30Z</time></trkpt><trkpt lat="39.3370370742638" lon="9.167862394066058"><ele>174.14285714285714</ele><time>2026-04-20T16:02:34Z</time></trkpt><trkpt lat="39.33698030874064" lon="9.167823065800615"><ele>175.42857142857142</ele><time>2026-04-20T16:02:37Z</time></trkpt><trkpt lat="39.33691404281872" lon="9.167786429992073"><ele>176.7142857142857</ele><time>2026-04-20T16:02:40Z</time></trkpt><trkpt lat="39.33684051126925" lon="9.167764381656394"><ele>178.0</ele><time>2026-04-20T16:02:43Z</time></trkpt><trkpt lat="39.3367744894416" lon="9.167738140320932"><ele>177.99999999999997</ele><time>2026-04-20T16:02:46Z</time></trkpt><trkpt lat="39.33670169046127" lon="9.167733011378816"><ele>178.0</ele><time>2026-04-20T16:02:49Z</time></trkpt><trkpt lat="39.336632516689136" lon="9.167743203394194"><ele>178.0</ele><time>2026-04-20T16:02:53Z</time></trkpt><trkpt lat="39.33656062820972" lon="9.167752136932984"><ele>178.0</ele><time>2026-04-20T16:02:56Z</time></trkpt><trkpt lat="39.336477898307514" lon="9.16775452472319"><ele>178.0</ele><time>2026-04-20T16:02:59Z</time></trkpt><trkpt lat="39.336411943356616" lon="9.167760997498608"><ele>177.99999999999997</ele><time>2026-04-20T16:03:01Z</time></trkpt><trkpt lat="39.33634810507749" lon="9.167793523028447"><ele>178.0</ele><time>2026-04-20T16:03:04Z</time></trkpt><trkpt lat="39.33629408724669" lon="9.167841217731548"><ele>179.14285714285714</ele><time>2026-04-20T16:03:07Z</time></trkpt><trkpt lat="39.33623825061086" lon="9.16790311913709"><ele>180.28571428571428</ele><time>2026-04-20T16:03:11Z</time></trkpt><trkpt lat="39.336209658391354" lon="9.167976873262262"><ele>181.42857142857144</ele><time>2026-04-20T16:03:15Z</time></trkpt><trkpt lat="39.33617786323218" lon="9.168055755684573"><ele>182.57142857142856</ele><time>2026-04-20T16:03:20Z</time></trkpt><trkpt lat="39.33613737734264" lon="9.16812556328447"><ele>183.71428571428572</ele><time>2026-04-20T16:03:25Z</time></trkpt><trkpt lat="39.336092293504905" lon="9.168215808222975"><ele>184.85714285714286</ele><time>2026-04-20T16:03:30Z</time></trkpt><trkpt lat="39.336049040055585" lon="9.168301371268724"><ele>186.0</ele><time>2026-04-20T16:03:35Z</time></trkpt><trkpt lat="39.33601498935979" lon="9.168380536198963"><ele>186.16666666666666</ele><time>2026-04-20T16:03:39Z</time></trkpt><trkpt lat="39.33597781322989" lon="9.168451620157281"><ele>186.33333333333334</ele><time>2026-04-20T16:03:43Z</time></trkpt><trkpt lat="39.33593977559136" lon="9.168536631225344"><ele>186.5</ele><time>2026-04-20T16:03:47Z</time></trkpt><trkpt lat="39.335893802730986" lon="9.168616675088815"><ele>186.66666666666669</ele><time>2026-04-20T16:03:51Z</time></trkpt><trkpt lat="39.33584201216382" lon="9.168710293405315"><ele>186.83333333333334</ele><time>2026-04-20T16:03:55Z</time></trkpt><trkpt lat="39.335809210618386" lon="9.168805594984773"><ele>187.0</ele><time>2026-04-20T16:03:59Z</time></trkpt><trkpt lat="39.335765015232184" lon="9.168893126263274"><ele>187.0</ele><time>2026-04-20T16:04:03Z</time></trkpt><trkpt lat="39.33571887974856" lon="9.168955004576036"><ele>187.0</ele><time>2026-04-20T16:04:06Z</time></trkpt><trkpt lat="39.335645112258995" lon="9.169006889860706"><ele>187.0</ele><time>2026-04-20T16:04:10Z</time></trkpt><trkpt lat="39.3355524729902" lon="9.168998110695581"><ele>187.0</ele><time>2026-04-20T16:04:13Z</time></trkpt><trkpt lat="39.335480451232115" lon="9.168976212985118"><ele>187.0</ele><time>2026-04-20T16:04:15Z</time></trkpt><trkpt lat="39.335393722775365" lon="9.16896174980819"><ele>187.0</ele><time>2026-04-20T16:04:17Z</time></trkpt><trkpt lat="39.33529637933009" lon="9.168937892783003"><ele>187.0</ele><time>2026-04-20T16:04:19Z</time></trkpt><trkpt lat="39.33519326416746" lon="9.168908649217528"><ele>187.0</ele><time>2026-04-20T16:04:21Z</time></trkpt><trkpt lat="39.33507933451922" lon="9.168891641237131"><ele>187.0</ele><time>2026-04-20T16:04:23Z</time></trkpt><trkpt lat="39.33502463296841" lon="9.16883258869854"><ele>187.0</ele><time>2026-04-20T16:04:24Z</time></trkpt><trkpt lat="39.334955118359275" lon="9.16882385445537"><ele>187.0</ele><time>2026-04-20T16:04:25Z</time></trkpt><trkpt lat="39.33488498648094" lon="9.16882403963451"><ele>187.0</ele><time>2026-04-20T16:04:26Z</time></trkpt><trkpt lat="39.33481756296079" lon="9.16882999232356"><ele>187.0</ele><time>2026-04-20T16:04:27Z</time></trkpt><trkpt lat="39.33475234638559" lon="9.168881458349567"><ele>187.0</ele><time>2026-04-20T16:04:28Z</time></trkpt><trkpt lat="39.33465225359237" lon="9.168889790180804"><ele>187.0</ele><time>2026-04-20T16:04:30Z</time></trkpt><trkpt lat="39.334565756370985" lon="9.16891518887199"><ele>187.0</ele><time>2026-04-20T16:04:32Z</time></trkpt><trkpt lat="39.33449138137778" lon="9.168944372925347"><ele>187.0</ele><time>2026-04-20T16:04:34Z</time></trkpt><trkpt lat="39.33441236808836" lon="9.168963153145935"><ele>187.0</ele><time>2026-04-20T16:04:38Z</time></trkpt><trkpt lat="39.33431985492806" lon="9.168754215756874"><ele>186.42857142857142</ele><time>2026-04-20T16:04:44Z</time></trkpt><trkpt lat="39.33428835234461" lon="9.168682972659113"><ele>185.85714285714286</ele><time>2026-04-20T16:04:46Z</time></trkpt><trkpt lat="39.33424996555978" lon="9.16860844180372"><ele>185.28571428571428</ele><time>2026-04-20T16:04:48Z</time></trkpt><trkpt lat="39.334203111991314" lon="9.168548700535409"><ele>184.71428571428572</ele><time>2026-04-20T16:04:50Z</time></trkpt><trkpt lat="39.33414697142275" lon="9.168487126123507"><ele>184.14285714285717</ele><time>2026-04-20T16:04:52Z</time></trkpt><trkpt lat="39.334123938863975" lon="9.168405215781021"><ele>183.57142857142858</ele><time>2026-04-20T16:04:59Z</time></trkpt><trkpt lat="39.334089295182665" lon="9.1683035144432"><ele>183.0</ele><time>2026-04-20T16:05:05Z</time></trkpt><trkpt lat="39.33402628787" lon="9.168255525965874"><ele>183.0</ele><time>2026-04-20T16:05:08Z</time></trkpt><trkpt lat="39.33395999268483" lon="9.168244894050423"><ele>183.0</ele><time>2026-04-20T16:05:12Z</time></trkpt><trkpt lat="39.333902308233306" lon="9.168293450279306"><ele>183.0</ele><time>2026-04-20T16:05:16Z</time></trkpt><trkpt lat="39.33383290915857" lon="9.168226902603124"><ele>183.0</ele><time>2026-04-20T16:05:20Z</time></trkpt><trkpt lat="39.33375525181454" lon="9.168177747718088"><ele>183.0</ele><time>2026-04-20T16:05:23Z</time></trkpt><trkpt lat="39.333673984350995" lon="9.168136408848811"><ele>183.0</ele><time>2026-04-20T16:05:26Z</time></trkpt><trkpt lat="39.33359759179176" lon="9.168088239558555"><ele>182.33333333333334</ele><time>2026-04-20T16:05:29Z</time></trkpt><trkpt lat="39.333533191050584" lon="9.168059278375296"><ele>181.66666666666666</ele><time>2026-04-20T16:05:32Z</time></trkpt><trkpt lat="39.33345725367096" lon="9.168028975803265"><ele>181.0</ele><time>2026-04-20T16:05:35Z</time></trkpt><trkpt lat="39.333387035676814" lon="9.167993573043036"><ele>180.33333333333331</ele><time>2026-04-20T16:05:38Z</time></trkpt><trkpt lat="39.33332370166453" lon="9.167960534198434"><ele>179.66666666666666</ele><time>2026-04-20T16:05:42Z</time></trkpt><trkpt lat="39.33326057756076" lon="9.167937619996803"><ele>179.0</ele><time>2026-04-20T16:05:45Z</time></trkpt><trkpt lat="39.33316933496858" lon="9.167905003507498"><ele>179.0</ele><time>2026-04-20T16:05:49Z</time></trkpt><trkpt lat="39.33309404495717" lon="9.16786767987426"><ele>179.0</ele><time>2026-04-20T16:05:52Z</time></trkpt><trkpt lat="39.3330308755805" lon="9.167837072258083"><ele>179.0</ele><time>2026-04-20T16:05:55Z</time></trkpt><trkpt lat="39.332957222732816" lon="9.167800655421933"><ele>179.0</ele><time>2026-04-20T16:05:59Z</time></trkpt><trkpt lat="39.332885776954555" lon="9.167783275962716"><ele>179.0</ele><time>2026-04-20T16:06:02Z</time></trkpt><trkpt lat="39.33280429602946" lon="9.16776002608582"><ele>179.0</ele><time>2026-04-20T16:06:06Z</time></trkpt><trkpt lat="39.33272371007165" lon="9.16772170679147"><ele>180.57142857142858</ele><time>2026-04-20T16:06:10Z</time></trkpt><trkpt lat="39.33265011671607" lon="9.167686209641742"><ele>182.14285714285714</ele><time>2026-04-20T16:06:14Z</time></trkpt><trkpt lat="39.3326014235476" lon="9.167631546936017"><ele>183.71428571428572</ele><time>2026-04-20T16:06:18Z</time></trkpt><trkpt lat="39.332535822527056" lon="9.16758394298083"><ele>185.28571428571428</ele><time>2026-04-20T16:06:22Z</time></trkpt><trkpt lat="39.33247855877421" lon="9.167545668461996"><ele>186.85714285714286</ele><time>2026-04-20T16:06:25Z</time></trkpt><trkpt lat="39.33240005191826" lon="9.167527724797878"><ele>188.42857142857144</ele><time>2026-04-20T16:06:29Z</time></trkpt><trkpt lat="39.33235287237859" lon="9.167453470697213"><ele>190.0</ele><time>2026-04-20T16:06:33Z</time></trkpt><trkpt lat="39.33229949262178" lon="9.167401303494891"><ele>190.0</ele><time>2026-04-20T16:06:37Z</time></trkpt><trkpt lat="39.332233967258325" lon="9.167364196185082"><ele>190.0</ele><time>2026-04-20T16:06:41Z</time></trkpt><trkpt lat="39.33216462766358" lon="9.167345574701425"><ele>190.0</ele><time>2026-04-20T16:06:45Z</time></trkpt><trkpt lat="39.33208947899818" lon="9.167337235925084"><ele>190.0</ele><time>2026-04-20T16:06:49Z</time></trkpt><trkpt lat="39.332019333061986" lon="9.167345830232708"><ele>190.0</ele><time>2026-04-20T16:06:53Z</time></trkpt><trkpt lat="39.331951692430835" lon="9.167351022896803"><ele>190.0</ele><time>2026-04-20T16:06:58Z</time></trkpt><trkpt lat="39.331864608383846" lon="9.167359565287178"><ele>190.0</ele><time>2026-04-20T16:07:03Z</time></trkpt><trkpt lat="39.33179462744893" lon="9.167382674788158"><ele>190.66666666666669</ele><time>2026-04-20T16:07:07Z</time></trkpt><trkpt lat="39.331724548283994" lon="9.167418468391688"><ele>191.33333333333334</ele><time>2026-04-20T16:07:11Z</time></trkpt><trkpt lat="39.33167801136525" lon="9.167473600151668"><ele>192.0</ele><time>2026-04-20T16:07:14Z</time></trkpt><trkpt lat="39.3316315390024" lon="9.167538119000861"><ele>192.66666666666669</ele><time>2026-04-20T16:07:18Z</time></trkpt><trkpt lat="39.331567996292215" lon="9.167569591265762"><ele>193.33333333333334</ele><time>2026-04-20T16:07:22Z</time></trkpt><trkpt lat="39.33150239644978" lon="9.167597550220513"><ele>194.0</ele><time>2026-04-20T16:07:25Z</time></trkpt><trkpt lat="39.331365495360075" lon="9.167627812610121"><ele>192.2</ele><time>2026-04-20T16:07:28Z</time></trkpt><trkpt lat="39.33118166871473" lon="9.167670825538309"><ele>190.39999999999998</ele><time>2026-04-20T16:07:30Z</time></trkpt><trkpt lat="39.33112433970807" lon="9.16770976440962"><ele>188.6</ele><time>2026-04-20T16:07:31Z</time></trkpt><trkpt lat="39.33106967952268" lon="9.167754373630018"><ele>186.8</ele><time>2026-04-20T16:07:32Z</time></trkpt><trkpt lat="39.33101214893906" lon="9.16779732417854"><ele>185.0</ele><time>2026-04-20T16:07:33Z</time></trkpt><trkpt lat="39.33095111109546" lon="9.167838245972082"><ele>185.0</ele><time>2026-04-20T16:07:34Z</time></trkpt><trkpt lat="39.33089754843286" lon="9.167885326895671"><ele>185.0</ele><time>2026-04-20T16:07:35Z</time></trkpt><trkpt lat="39.330845530914964" lon="9.167944667376222"><ele>185.0</ele><time>2026-04-20T16:07:36Z</time></trkpt><trkpt lat="39.33079428429783" lon="9.168002645374695"><ele>185.0</ele><time>2026-04-20T16:07:37Z</time></trkpt><trkpt lat="39.33074914353008" lon="9.168060351769979"><ele>185.0</ele><time>2026-04-20T16:07:38Z</time></trkpt><trkpt lat="39.33069067108697" lon="9.168194044048498"><ele>185.0</ele><time>2026-04-20T16:07:40Z</time></trkpt><trkpt lat="39.33059704157946" lon="9.168280964769048"><ele>185.16666666666666</ele><time>2026-04-20T16:07:42Z</time></trkpt><trkpt lat="39.33053707429799" lon="9.168306942867408"><ele>185.33333333333331</ele><time>2026-04-20T16:07:43Z</time></trkpt><trkpt lat="39.33048265621958" lon="9.168378063713037"><ele>185.5</ele><time>2026-04-20T16:07:44Z</time></trkpt><trkpt lat="39.330449704511565" lon="9.168459852081883"><ele>185.66666666666666</ele><time>2026-04-20T16:07:45Z</time></trkpt><trkpt lat="39.33043239980553" lon="9.168546300562806"><ele>185.83333333333334</ele><time>2026-04-20T16:07:46Z</time></trkpt><trkpt lat="39.33039610452918" lon="9.168622404662347"><ele>186.0</ele><time>2026-04-20T16:07:47Z</time></trkpt><trkpt lat="39.33033360264385" lon="9.168771747108961"><ele>186.0</ele><time>2026-04-20T16:07:49Z</time></trkpt><trkpt lat="39.330229581940614" lon="9.168811620365453"><ele>186.0</ele><time>2026-04-20T16:07:51Z</time></trkpt><trkpt lat="39.33015210976027" lon="9.168768197477144"><ele>186.0</ele><time>2026-04-20T16:07:53Z</time></trkpt><trkpt lat="39.33007326652654" lon="9.168746102526885"><ele>186.0</ele><time>2026-04-20T16:07:56Z</time></trkpt><trkpt lat="39.32999826750078" lon="9.168775357592532"><ele>186.0</ele><time>2026-04-20T16:08:00Z</time></trkpt><trkpt lat="39.329931747914046" lon="9.168805845266078"><ele>186.0</ele><time>2026-04-20T16:08:03Z</time></trkpt><trkpt lat="39.329880177963155" lon="9.168855833691353"><ele>186.0</ele><time>2026-04-20T16:08:06Z</time></trkpt><trkpt lat="39.329815977870076" lon="9.168910735006675"><ele>186.0</ele><time>2026-04-20T16:08:08Z</time></trkpt><trkpt lat="39.32972719995013" lon="9.168926809267779"><ele>186.0</ele><time>2026-04-20T16:08:10Z</time></trkpt><trkpt lat="39.329663089699295" lon="9.168950214225605"><ele>186.0</ele><time>2026-04-20T16:08:12Z</time></trkpt><trkpt lat="39.32952070128795" lon="9.168972808742007"><ele>186.0</ele><time>2026-04-20T16:08:15Z</time></trkpt><trkpt lat="39.32938955333721" lon="9.168991526761419"><ele>185.16666666666666</ele><time>2026-04-20T16:08:17Z</time></trkpt><trkpt lat="39.32930479780405" lon="9.169007353873566"><ele>184.33333333333334</ele><time>2026-04-20T16:08:18Z</time></trkpt><trkpt lat="39.32922660490273" lon="9.169014876750527"><ele>183.5</ele><time>2026-04-20T16:08:19Z</time></trkpt><trkpt lat="39.32915153578236" lon="9.169014379697465"><ele>182.66666666666669</ele><time>2026-04-20T16:08:20Z</time></trkpt><trkpt lat="39.329087706951896" lon="9.16900242973808"><ele>181.83333333333334</ele><time>2026-04-20T16:08:21Z</time></trkpt><trkpt lat="39.32902397821373" lon="9.168996281075698"><ele>181.0</ele><time>2026-04-20T16:08:22Z</time></trkpt><trkpt lat="39.32891547215757" lon="9.168956742422273"><ele>178.5</ele><time>2026-04-20T16:08:24Z</time></trkpt><trkpt lat="39.328825010330725" lon="9.168953912304575"><ele>176.0</ele><time>2026-04-20T16:08:26Z</time></trkpt><trkpt lat="39.32874339784277" lon="9.168957335098929"><ele>173.5</ele><time>2026-04-20T16:08:28Z</time></trkpt><trkpt lat="39.32865160299802" lon="9.168954591544352"><ele>171.0</ele><time>2026-04-20T16:08:30Z</time></trkpt><trkpt lat="39.3285627948432" lon="9.168925890512604"><ele>168.5</ele><time>2026-04-20T16:08:32Z</time></trkpt><trkpt lat="39.32850175044775" lon="9.168901096356755"><ele>166.0</ele><time>2026-04-20T16:08:34Z</time></trkpt><trkpt lat="39.32845532527881" lon="9.168843204762837"><ele>166.0</ele><time>2026-04-20T16:08:37Z</time></trkpt><trkpt lat="39.328436679017344" lon="9.168740963546664"><ele>166.0</ele><time>2026-04-20T16:08:39Z</time></trkpt><trkpt lat="39.32839918355456" lon="9.168651600931401"><ele>166.0</ele><time>2026-04-20T16:08:41Z</time></trkpt><trkpt lat="39.32832918823337" lon="9.16858474210797"><ele>166.0</ele><time>2026-04-20T16:08:45Z</time></trkpt><trkpt lat="39.32826541881224" lon="9.168536297922186"><ele>166.0</ele><time>2026-04-20T16:08:48Z</time></trkpt><trkpt lat="39.32820356208361" lon="9.16850394241525"><ele>166.0</ele><time>2026-04-20T16:08:50Z</time></trkpt><trkpt lat="39.32813798760958" lon="9.168445564905022"><ele>166.0</ele><time>2026-04-20T16:08:52Z</time></trkpt><trkpt lat="39.328077654088766" lon="9.16840420937074"><ele>166.0</ele><time>2026-04-20T16:08:54Z</time></trkpt><trkpt lat="39.328004542561814" lon="9.168368149299576"><ele>166.0</ele><time>2026-04-20T16:08:58Z</time></trkpt><trkpt lat="39.327940392861755" lon="9.168351347027457"><ele>166.0</ele><time>2026-04-20T16:09:00Z</time></trkpt><trkpt lat="39.3278574461962" lon="9.16836115848645"><ele>166.0</ele><time>2026-04-20T16:09:02Z</time></trkpt><trkpt lat="39.32777315304539" lon="9.16834171819929"><ele>166.0</ele><time>2026-04-20T16:09:04Z</time></trkpt><trkpt lat="39.32764421913148" lon="9.168330277211991"><ele>163.66666666666669</ele><time>2026-04-20T16:09:06Z</time></trkpt><trkpt lat="39.327578282087984" lon="9.168307880758665"><ele>161.33333333333334</ele><time>2026-04-20T16:09:07Z</time></trkpt><trkpt lat="39.327465353497985" lon="9.168308205910096"><ele>159.0</ele><time>2026-04-20T16:09:09Z</time></trkpt><trkpt lat="39.32739834101257" lon="9.168301505618613"><ele>156.66666666666666</ele><time>2026-04-20T16:09:10Z</time></trkpt><trkpt lat="39.3273341517974" lon="9.168307140448542"><ele>154.33333333333331</ele><time>2026-04-20T16:09:11Z</time></trkpt><trkpt lat="39.32726958838346" lon="9.168321729222265"><ele>152.0</ele><time>2026-04-20T16:09:12Z</time></trkpt><trkpt lat="39.32717720592666" lon="9.168338866903532"><ele>150.7142857142857</ele><time>2026-04-20T16:09:14Z</time></trkpt><trkpt lat="39.327107460307005" lon="9.168336858496886"><ele>149.42857142857144</ele><time>2026-04-20T16:09:15Z</time></trkpt><trkpt lat="39.32703999759469" lon="9.168370189179056"><ele>148.14285714285714</ele><time>2026-04-20T16:09:16Z</time></trkpt><trkpt lat="39.32697048521743" lon="9.16838170544794"><ele>146.85714285714283</ele><time>2026-04-20T16:09:17Z</time></trkpt><trkpt lat="39.32690283544498" lon="9.1683974472582"><ele>145.57142857142856</ele><time>2026-04-20T16:09:18Z</time></trkpt><trkpt lat="39.32682922050484" lon="9.168402943228696"><ele>144.28571428571428</ele><time>2026-04-20T16:09:19Z</time></trkpt><trkpt lat="39.32675573860611" lon="9.16841007652202"><ele>143.0</ele><time>2026-04-20T16:09:20Z</time></trkpt><trkpt lat="39.32668469355753" lon="9.168409203444442"><ele>142.99999999999997</ele><time>2026-04-20T16:09:21Z</time></trkpt><trkpt lat="39.32661655655699" lon="9.168426707286685"><ele>143.0</ele><time>2026-04-20T16:09:22Z</time></trkpt><trkpt lat="39.32654606095123" lon="9.168437789220542"><ele>143.0</ele><time>2026-04-20T16:09:23Z</time></trkpt><trkpt lat="39.32647659183172" lon="9.168451891912822"><ele>143.0</ele><time>2026-04-20T16:09:24Z</time></trkpt><trkpt lat="39.32640298509774" lon="9.168446819460904"><ele>143.0</ele><time>2026-04-20T16:09:25Z</time></trkpt><trkpt lat="39.32634119950552" lon="9.168473823365334"><ele>142.99999999999997</ele><time>2026-04-20T16:09:26Z</time></trkpt><trkpt lat="39.326277374184244" lon="9.16845053831879"><ele>143.0</ele><time>2026-04-20T16:09:27Z</time></trkpt><trkpt lat="39.32616575400002" lon="9.168312208405611"><ele>142.33333333333331</ele><time>2026-04-20T16:09:29Z</time></trkpt><trkpt lat="39.32607753171126" lon="9.168281404428802"><ele>141.66666666666666</ele><time>2026-04-20T16:09:30Z</time></trkpt><trkpt lat="39.325993873088635" lon="9.168258663325652"><ele>141.0</ele><time>2026-04-20T16:09:31Z</time></trkpt><trkpt lat="39.32590541983894" lon="9.168258901686459"><ele>140.33333333333334</ele><time>2026-04-20T16:09:32Z</time></trkpt><trkpt lat="39.325819621513666" lon="9.168232416082867"><ele>139.66666666666669</ele><time>2026-04-20T16:09:33Z</time></trkpt><trkpt lat="39.32574500231188" lon="9.168174875682073"><ele>139.0</ele><time>2026-04-20T16:09:34Z</time></trkpt><trkpt lat="39.32566132119604" lon="9.168138213141585"><ele>139.0</ele><time>2026-04-20T16:09:35Z</time></trkpt><trkpt lat="39.325571442408375" lon="9.168107785148035"><ele>139.0</ele><time>2026-04-20T16:09:36Z</time></trkpt><trkpt lat="39.32548545417283" lon="9.16808033338078"><ele>139.0</ele><time>2026-04-20T16:09:37Z</time></trkpt><trkpt lat="39.32540776175415" lon="9.168055530058902"><ele>139.0</ele><time>2026-04-20T16:09:38Z</time></trkpt><trkpt lat="39.325322836308864" lon="9.168028417586815"><ele>139.0</ele><time>2026-04-20T16:09:39Z</time></trkpt><trkpt lat="39.325241071958004" lon="9.16800182293367"><ele>139.0</ele><time>2026-04-20T16:09:40Z</time></trkpt><trkpt lat="39.32515697813796" lon="9.167973326685523"><ele>137.66666666666669</ele><time>2026-04-20T16:09:41Z</time></trkpt><trkpt lat="39.32507383440529" lon="9.16794361442137"><ele>136.33333333333334</ele><time>2026-04-20T16:09:42Z</time></trkpt><trkpt lat="39.324985762552444" lon="9.16793152244598"><ele>135.0</ele><time>2026-04-20T16:09:43Z</time></trkpt><trkpt lat="39.32490354820037" lon="9.16789994257577"><ele>133.66666666666666</ele><time>2026-04-20T16:09:44Z</time></trkpt><trkpt lat="39.32482790680911" lon="9.167851113250412"><ele>132.33333333333331</ele><time>2026-04-20T16:09:45Z</time></trkpt><trkpt lat="39.32474526902131" lon="9.167819283862148"><ele>131.0</ele><time>2026-04-20T16:09:46Z</time></trkpt><trkpt lat="39.324671239436185" lon="9.167790770073564"><ele>130.5</ele><time>2026-04-20T16:09:47Z</time></trkpt><trkpt lat="39.32459021490005" lon="9.1677609102615"><ele>130.0</ele><time>2026-04-20T16:09:48Z</time></trkpt><trkpt lat="39.32451574433749" lon="9.167733290437244"><ele>129.5</ele><time>2026-04-20T16:09:49Z</time></trkpt><trkpt lat="39.324432222246976" lon="9.167716257299558"><ele>129.0</ele><time>2026-04-20T16:09:50Z</time></trkpt><trkpt lat="39.324357297534455" lon="9.167681575416793"><ele>128.5</ele><time>2026-04-20T16:09:51Z</time></trkpt><trkpt lat="39.324279889084956" lon="9.167647347142617"><ele>128.0</ele><time>2026-04-20T16:09:52Z</time></trkpt><trkpt lat="39.32420428772053" lon="9.167633936046114"><ele>128.0</ele><time>2026-04-20T16:09:53Z</time></trkpt><trkpt lat="39.324130392110504" lon="9.167606566915467"><ele>127.99999999999999</ele><time>2026-04-20T16:09:54Z</time></trkpt><trkpt lat="39.3240574126613" lon="9.16758708610372"><ele>128.0</ele><time>2026-04-20T16:09:55Z</time></trkpt><trkpt lat="39.3239906348308" lon="9.167546779344528"><ele>128.0</ele><time>2026-04-20T16:09:56Z</time></trkpt><trkpt lat="39.32392474717195" lon="9.167519215145166"><ele>127.99999999999999</ele><time>2026-04-20T16:09:57Z</time></trkpt><trkpt lat="39.323856688752066" lon="9.167485079762711"><ele>128.0</ele><time>2026-04-20T16:09:58Z</time></trkpt><trkpt lat="39.323798339776545" lon="9.167451292442577"><ele>128.0</ele><time>2026-04-20T16:09:59Z</time></trkpt><trkpt lat="39.323738197407216" lon="9.167416801159439"><ele>127.49999999999999</ele><time>2026-04-20T16:10:00Z</time></trkpt><trkpt lat="39.32367988363628" lon="9.167383848354202"><ele>127.0</ele><time>2026-04-20T16:10:01Z</time></trkpt><trkpt lat="39.323571852529085" lon="9.167325485204307"><ele>126.5</ele><time>2026-04-20T16:10:03Z</time></trkpt><trkpt lat="39.32351304463701" lon="9.16729371459828"><ele>126.0</ele><time>2026-04-20T16:10:04Z</time></trkpt><trkpt lat="39.32345205696295" lon="9.167260766381693"><ele>125.49999999999999</ele><time>2026-04-20T16:10:05Z</time></trkpt><trkpt lat="39.32338293168315" lon="9.167225412826127"><ele>125.0</ele><time>2026-04-20T16:10:06Z</time></trkpt><trkpt lat="39.32331632859949" lon="9.167190330255469"><ele>124.85714285714286</ele><time>2026-04-20T16:10:07Z</time></trkpt><trkpt lat="39.32324865313258" lon="9.167154682814841"><ele>124.71428571428572</ele><time>2026-04-20T16:10:08Z</time></trkpt><trkpt lat="39.32318642680484" lon="9.167121905658883"><ele>124.57142857142858</ele><time>2026-04-20T16:10:09Z</time></trkpt><trkpt lat="39.323120362956935" lon="9.167085486155331"><ele>124.42857142857143</ele><time>2026-04-20T16:10:10Z</time></trkpt><trkpt lat="39.323051454451566" lon="9.167047003667859"><ele>124.2857142857143</ele><time>2026-04-20T16:10:11Z</time></trkpt><trkpt lat="39.322978237730425" lon="9.167008280179836"><ele>124.14285714285715</ele><time>2026-04-20T16:10:12Z</time></trkpt><trkpt lat="39.32290058945685" lon="9.166977299882921"><ele>124.0</ele><time>2026-04-20T16:10:13Z</time></trkpt><trkpt lat="39.322819223168885" lon="9.166961823502758"><ele>123.71428571428572</ele><time>2026-04-20T16:10:14Z</time></trkpt><trkpt lat="39.3227383483003" lon="9.16695965863431"><ele>123.42857142857144</ele><time>2026-04-20T16:10:15Z</time></trkpt><trkpt lat="39.32266763515375" lon="9.1669564918255"><ele>123.14285714285714</ele><time>2026-04-20T16:10:16Z</time></trkpt><trkpt lat="39.32258831729276" lon="9.166946408707744"><ele>122.85714285714286</ele><time>2026-04-20T16:10:17Z</time></trkpt><trkpt lat="39.32251705264376" lon="9.166933832312951"><ele>122.57142857142857</ele><time>2026-04-20T16:10:18Z</time></trkpt><trkpt lat="39.322443124941984" lon="9.166920159011852"><ele>122.28571428571428</ele><time>2026-04-20T16:10:19Z</time></trkpt><trkpt lat="39.32237323970792" lon="9.166906707974444"><ele>121.99999999999999</ele><time>2026-04-20T16:10:20Z</time></trkpt><trkpt lat="39.32230219533877" lon="9.166893033730723"><ele>121.99999999999999</ele><time>2026-04-20T16:10:21Z</time></trkpt><trkpt lat="39.322234290158946" lon="9.166879963710826"><ele>122.0</ele><time>2026-04-20T16:10:22Z</time></trkpt><trkpt lat="39.3221671611121" lon="9.166867043105206"><ele>121.99999999999999</ele><time>2026-04-20T16:10:23Z</time></trkpt><trkpt lat="39.32209966649599" lon="9.166854052129882"><ele>121.99999999999999</ele><time>2026-04-20T16:10:24Z</time></trkpt><trkpt lat="39.32203442990292" lon="9.166841932975526"><ele>122.0</ele><time>2026-04-20T16:10:25Z</time></trkpt><trkpt lat="39.32196534683273" lon="9.166829347455392"><ele>121.99999999999999</ele><time>2026-04-20T16:10:26Z</time></trkpt><trkpt lat="39.321899603336355" lon="9.166817370321143"><ele>121.99999999999999</ele><time>2026-04-20T16:10:27Z</time></trkpt><trkpt lat="39.321833398480614" lon="9.166805309166662"><ele>121.33333333333333</ele><time>2026-04-20T16:10:28Z</time></trkpt><trkpt lat="39.32177050069383" lon="9.16679388431928"><ele>120.66666666666666</ele><time>2026-04-20T16:10:29Z</time></trkpt><trkpt lat="39.3217060732417" lon="9.166782644231766"><ele>120.0</ele><time>2026-04-20T16:10:30Z</time></trkpt><trkpt lat="39.321640424929164" lon="9.166771191156862"><ele>119.33333333333334</ele><time>2026-04-20T16:10:31Z</time></trkpt><trkpt lat="39.321516324621776" lon="9.166749540453738"><ele>118.66666666666667</ele><time>2026-04-20T16:10:33Z</time></trkpt><trkpt lat="39.321453236666514" lon="9.166738534061691"><ele>118.0</ele><time>2026-04-20T16:10:34Z</time></trkpt><trkpt lat="39.32133285190395" lon="9.166717531597262"><ele>117.60000000000001</ele><time>2026-04-20T16:10:36Z</time></trkpt><trkpt lat="39.32126844407524" lon="9.16670629493716"><ele>117.20000000000002</ele><time>2026-04-20T16:10:37Z</time></trkpt><trkpt lat="39.321151960450145" lon="9.166685973066123"><ele>116.8</ele><time>2026-04-20T16:10:39Z</time></trkpt><trkpt lat="39.32103372336824" lon="9.166665366220471"><ele>116.4</ele><time>2026-04-20T16:10:41Z</time></trkpt><trkpt lat="39.32091495428588" lon="9.166645382399151"><ele>116.0</ele><time>2026-04-20T16:10:43Z</time></trkpt><trkpt lat="39.32084951937278" lon="9.166634372464285"><ele>116.0</ele><time>2026-04-20T16:10:44Z</time></trkpt><trkpt lat="39.32072836442951" lon="9.166613987209665"><ele>116.0</ele><time>2026-04-20T16:10:46Z</time></trkpt><trkpt lat="39.32060495274111" lon="9.16659497000812"><ele>116.0</ele><time>2026-04-20T16:10:48Z</time></trkpt><trkpt lat="39.32048135115995" lon="9.166578143732911"><ele>116.0</ele><time>2026-04-20T16:10:50Z</time></trkpt><trkpt lat="39.32035982134054" lon="9.166563611309709"><ele>115.83333333333333</ele><time>2026-04-20T16:10:52Z</time></trkpt><trkpt lat="39.32029656963891" lon="9.16655650752337"><ele>115.66666666666666</ele><time>2026-04-20T16:10:53Z</time></trkpt><trkpt lat="39.32023364303835" lon="9.16654978515696"><ele>115.5</ele><time>2026-04-20T16:10:54Z</time></trkpt><trkpt lat="39.32016681650912" lon="9.16654264616208"><ele>115.33333333333334</ele><time>2026-04-20T16:10:55Z</time></trkpt><trkpt lat="39.32004472156272" lon="9.166527432700844"><ele>115.16666666666667</ele><time>2026-04-20T16:10:57Z</time></trkpt><trkpt lat="39.31992330471088" lon="9.166502685886483"><ele>115.0</ele><time>2026-04-20T16:10:59Z</time></trkpt><trkpt lat="39.31980506759176" lon="9.166465237323196"><ele>114.4</ele><time>2026-04-20T16:11:01Z</time></trkpt><trkpt lat="39.31969015372737" lon="9.16642881310587"><ele>113.8</ele><time>2026-04-20T16:11:03Z</time></trkpt><trkpt lat="39.31957457095689" lon="9.166392176863917"><ele>113.19999999999999</ele><time>2026-04-20T16:11:05Z</time></trkpt><trkpt lat="39.319455221632715" lon="9.166361068274238"><ele>112.6</ele><time>2026-04-20T16:11:07Z</time></trkpt><trkpt lat="39.3193923101461" lon="9.166353254946289"><ele>112.0</ele><time>2026-04-20T16:11:08Z</time></trkpt><trkpt lat="39.31928056704694" lon="9.166344171758553"><ele>112.0</ele><time>2026-04-20T16:11:10Z</time></trkpt><trkpt lat="39.31917045880209" lon="9.166343846609"><ele>111.99999999999999</ele><time>2026-04-20T16:11:12Z</time></trkpt><trkpt lat="39.31905796393377" lon="9.166354666835405"><ele>111.99999999999999</ele><time>2026-04-20T16:11:14Z</time></trkpt><trkpt lat="39.318953801487766" lon="9.16637032777558"><ele>112.0</ele><time>2026-04-20T16:11:16Z</time></trkpt><trkpt lat="39.31885282503273" lon="9.166386873959961"><ele>112.0</ele><time>2026-04-20T16:11:18Z</time></trkpt><trkpt lat="39.3187528501611" lon="9.166403256029064"><ele>111.6</ele><time>2026-04-20T16:11:20Z</time></trkpt><trkpt lat="39.3186597372429" lon="9.166418513675463"><ele>111.19999999999999</ele><time>2026-04-20T16:11:22Z</time></trkpt><trkpt lat="39.318564047839786" lon="9.1664341935155"><ele>110.8</ele><time>2026-04-20T16:11:24Z</time></trkpt><trkpt lat="39.31846777881607" lon="9.166449968331273"><ele>110.4</ele><time>2026-04-20T16:11:26Z</time></trkpt><trkpt lat="39.31837174062464" lon="9.166466505418969"><ele>110.0</ele><time>2026-04-20T16:11:28Z</time></trkpt><trkpt lat="39.31828172029194" lon="9.166483698830499"><ele>110.0</ele><time>2026-04-20T16:11:30Z</time></trkpt><trkpt lat="39.318190413411635" lon="9.166501656444922"><ele>110.0</ele><time>2026-04-20T16:11:32Z</time></trkpt><trkpt lat="39.31809870130074" lon="9.166521779463224"><ele>110.0</ele><time>2026-04-20T16:11:34Z</time></trkpt><trkpt lat="39.318005101163074" lon="9.166547251813268"><ele>110.0</ele><time>2026-04-20T16:11:36Z</time></trkpt><trkpt lat="39.31791131866535" lon="9.16657806648849"><ele>110.0</ele><time>2026-04-20T16:11:38Z</time></trkpt><trkpt lat="39.31782194438055" lon="9.166648134869655"><ele>109.4</ele><time>2026-04-20T16:11:40Z</time></trkpt><trkpt lat="39.31772536993037" lon="9.166683159916793"><ele>108.8</ele><time>2026-04-20T16:11:42Z</time></trkpt><trkpt lat="39.31763009556818" lon="9.166712802068284"><ele>108.19999999999999</ele><time>2026-04-20T16:11:44Z</time></trkpt><trkpt lat="39.31753264025808" lon="9.166756562203867"><ele>107.6</ele><time>2026-04-20T16:11:46Z</time></trkpt><trkpt lat="39.31742580153544" lon="9.166733127358745"><ele>107.0</ele><time>2026-04-20T16:11:48Z</time></trkpt><trkpt lat="39.31732661237971" lon="9.166741623640148"><ele>106.6</ele><time>2026-04-20T16:11:50Z</time></trkpt><trkpt lat="39.31722792004643" lon="9.166735612584493"><ele>106.19999999999999</ele><time>2026-04-20T16:11:52Z</time></trkpt><trkpt lat="39.31711690244154" lon="9.166724667158315"><ele>105.8</ele><time>2026-04-20T16:11:54Z</time></trkpt><trkpt lat="39.31700672350876" lon="9.166712560654014"><ele>105.4</ele><time>2026-04-20T16:11:56Z</time></trkpt><trkpt lat="39.316943771873106" lon="9.166706579925771"><ele>105.0</ele><time>2026-04-20T16:11:57Z</time></trkpt><trkpt lat="39.316828371412925" lon="9.166724419110912"><ele>105.0</ele><time>2026-04-20T16:11:59Z</time></trkpt><trkpt lat="39.316713678015965" lon="9.166723284724874"><ele>105.0</ele><time>2026-04-20T16:12:01Z</time></trkpt><trkpt lat="39.31659279890755" lon="9.166730450577417"><ele>105.0</ele><time>2026-04-20T16:12:03Z</time></trkpt><trkpt lat="39.316470340113" lon="9.166736124084203"><ele>105.0</ele><time>2026-04-20T16:12:05Z</time></trkpt><trkpt lat="39.3163491014448" lon="9.166747148842871"><ele>104.75</ele><time>2026-04-20T16:12:07Z</time></trkpt><trkpt lat="39.31622841754329" lon="9.166752920089515"><ele>104.5</ele><time>2026-04-20T16:12:09Z</time></trkpt><trkpt lat="39.31610951120011" lon="9.16676270707385"><ele>104.25</ele><time>2026-04-20T16:12:11Z</time></trkpt><trkpt lat="39.31598577912205" lon="9.16676076535559"><ele>104.0</ele><time>2026-04-20T16:12:13Z</time></trkpt><trkpt lat="39.315866023080375" lon="9.166763735210429"><ele>103.99999999999999</ele><time>2026-04-20T16:12:15Z</time></trkpt><trkpt lat="39.31580069054446" lon="9.16676470364966"><ele>104.0</ele><time>2026-04-20T16:12:16Z</time></trkpt><trkpt lat="39.315738728851876" lon="9.16678474677488"><ele>104.0</ele><time>2026-04-20T16:12:17Z</time></trkpt><trkpt lat="39.3156750413072" lon="9.166780482650635"><ele>104.0</ele><time>2026-04-20T16:12:18Z</time></trkpt><trkpt lat="39.31555830384368" lon="9.166812859232056"><ele>103.99999999999999</ele><time>2026-04-20T16:12:20Z</time></trkpt><trkpt lat="39.31543579965395" lon="9.166826867700907"><ele>104.0</ele><time>2026-04-20T16:12:22Z</time></trkpt><trkpt lat="39.31531618048238" lon="9.16684401773057"><ele>103.57142857142857</ele><time>2026-04-20T16:12:24Z</time></trkpt><trkpt lat="39.31524641672435" lon="9.166844114397945"><ele>103.14285714285715</ele><time>2026-04-20T16:12:25Z</time></trkpt><trkpt lat="39.315181936285505" lon="9.166842984027392"><ele>102.71428571428572</ele><time>2026-04-20T16:12:26Z</time></trkpt><trkpt lat="39.3151200534064" lon="9.166867196327134"><ele>102.28571428571428</ele><time>2026-04-20T16:12:27Z</time></trkpt><trkpt lat="39.31504682516092" lon="9.166862118770123"><ele>101.85714285714286</ele><time>2026-04-20T16:12:28Z</time></trkpt><trkpt lat="39.31496431094303" lon="9.166864719867972"><ele>101.42857142857143</ele><time>2026-04-20T16:12:29Z</time></trkpt><trkpt lat="39.31488798114517" lon="9.166885388458999"><ele>101.0</ele><time>2026-04-20T16:12:30Z</time></trkpt><trkpt lat="39.31481046456719" lon="9.166894586137124"><ele>100.16666666666666</ele><time>2026-04-20T16:12:31Z</time></trkpt><trkpt lat="39.31473176270939" lon="9.166897783088265"><ele>99.33333333333333</ele><time>2026-04-20T16:12:32Z</time></trkpt><trkpt lat="39.314650904987836" lon="9.166912840798252"><ele>98.5</ele><time>2026-04-20T16:12:33Z</time></trkpt><trkpt lat="39.31457163013823" lon="9.166938065001997"><ele>97.66666666666666</ele><time>2026-04-20T16:12:34Z</time></trkpt><trkpt lat="39.314500378855115" lon="9.166923002639265"><ele>96.83333333333333</ele><time>2026-04-20T16:12:35Z</time></trkpt><trkpt lat="39.31442569280186" lon="9.16692499428121"><ele>96.0</ele><time>2026-04-20T16:12:36Z</time></trkpt><trkpt lat="39.31435406272962" lon="9.166922347490374"><ele>96.0</ele><time>2026-04-20T16:12:37Z</time></trkpt><trkpt lat="39.31427941299446" lon="9.166918687335727"><ele>96.0</ele><time>2026-04-20T16:12:38Z</time></trkpt><trkpt lat="39.31420805306248" lon="9.166914726531584"><ele>96.0</ele><time>2026-04-20T16:12:39Z</time></trkpt><trkpt lat="39.31413328978167" lon="9.166910576825092"><ele>96.0</ele><time>2026-04-20T16:12:40Z</time></trkpt><trkpt lat="39.31406541132435" lon="9.166904753311806"><ele>96.0</ele><time>2026-04-20T16:12:41Z</time></trkpt><trkpt lat="39.313999066294514" lon="9.166898606337183"><ele>96.0</ele><time>2026-04-20T16:12:42Z</time></trkpt><trkpt lat="39.31387106287109" lon="9.16688525824966"><ele>95.5</ele><time>2026-04-20T16:12:44Z</time></trkpt><trkpt lat="39.313752665096615" lon="9.1668681339874"><ele>95.0</ele><time>2026-04-20T16:12:46Z</time></trkpt><trkpt lat="39.31363024557837" lon="9.16684991109261"><ele>94.5</ele><time>2026-04-20T16:12:48Z</time></trkpt><trkpt lat="39.313505633657755" lon="9.166829008444125"><ele>94.0</ele><time>2026-04-20T16:12:50Z</time></trkpt><trkpt lat="39.313384653318685" lon="9.166807937156975"><ele>94.0</ele><time>2026-04-20T16:12:52Z</time></trkpt><trkpt lat="39.31326995091587" lon="9.166777739529522"><ele>94.0</ele><time>2026-04-20T16:12:54Z</time></trkpt><trkpt lat="39.313166478587085" lon="9.16674436795405"><ele>94.0</ele><time>2026-04-20T16:12:56Z</time></trkpt><trkpt lat="39.31309352493685" lon="9.166905675085426"><ele>94.0</ele><time>2026-04-20T16:12:57Z</time></trkpt><trkpt lat="39.313002925079736" lon="9.16699297724779"><ele>93.6</ele><time>2026-04-20T16:12:59Z</time></trkpt><trkpt lat="39.312896411356256" lon="9.166991027726612"><ele>93.2</ele><time>2026-04-20T16:13:01Z</time></trkpt><trkpt lat="39.31280667718848" lon="9.167031807371648"><ele>92.8</ele><time>2026-04-20T16:13:03Z</time></trkpt><trkpt lat="39.31271519984689" lon="9.167073221748176"><ele>92.39999999999999</ele><time>2026-04-20T16:13:05Z</time></trkpt><trkpt lat="39.312628727143846" lon="9.16711688714594"><ele>92.0</ele><time>2026-04-20T16:13:07Z</time></trkpt><trkpt lat="39.312542706867646" lon="9.167160324208803"><ele>92.0</ele><time>2026-04-20T16:13:09Z</time></trkpt><trkpt lat="39.31245485754981" lon="9.167204671929008"><ele>92.0</ele><time>2026-04-20T16:13:11Z</time></trkpt><trkpt lat="39.312373628973134" lon="9.167245620348366"><ele>92.0</ele><time>2026-04-20T16:13:13Z</time></trkpt><trkpt lat="39.31229605458002" lon="9.167284726460332"><ele>92.0</ele><time>2026-04-20T16:13:15Z</time></trkpt><trkpt lat="39.31222813472285" lon="9.167347708796758"><ele>92.0</ele><time>2026-04-20T16:13:17Z</time></trkpt><trkpt lat="39.31214965913723" lon="9.167385896101806"><ele>92.0</ele><time>2026-04-20T16:13:19Z</time></trkpt><trkpt lat="39.31207623094665" lon="9.167409265757858"><ele>92.5</ele><time>2026-04-20T16:13:21Z</time></trkpt><trkpt lat="39.312007203266056" lon="9.167445862598182"><ele>93.0</ele><time>2026-04-20T16:13:23Z</time></trkpt><trkpt lat="39.31195209194256" lon="9.167496414875737"><ele>93.5</ele><time>2026-04-20T16:13:26Z</time></trkpt><trkpt lat="39.31190419817905" lon="9.167559029353702"><ele>94.0</ele><time>2026-04-20T16:13:28Z</time></trkpt><trkpt lat="39.311850993415554" lon="9.167626906574002"><ele>94.5</ele><time>2026-04-20T16:13:31Z</time></trkpt><trkpt lat="39.3117803534085" lon="9.167681867442944"><ele>95.0</ele><time>2026-04-20T16:13:34Z</time></trkpt><trkpt lat="39.31169302372281" lon="9.167739167447948"><ele>95.0</ele><time>2026-04-20T16:13:37Z</time></trkpt><trkpt lat="39.31160415618409" lon="9.167785404792895"><ele>95.0</ele><time>2026-04-20T16:13:40Z</time></trkpt><trkpt lat="39.31154406528774" lon="9.167813781662248"><ele>95.0</ele><time>2026-04-20T16:13:43Z</time></trkpt><trkpt lat="39.31145017167177" lon="9.16786012024025"><ele>95.0</ele><time>2026-04-20T16:13:46Z</time></trkpt><trkpt lat="39.31138791727967" lon="9.167912465791261"><ele>95.0</ele><time>2026-04-20T16:13:49Z</time></trkpt><trkpt lat="39.3113248606861" lon="9.1679456272758"><ele>95.0</ele><time>2026-04-20T16:13:51Z</time></trkpt><trkpt lat="39.31125275898634" lon="9.16798197941208"><ele>94.5</ele><time>2026-04-20T16:13:54Z</time></trkpt><trkpt lat="39.31117431713314" lon="9.168008156352519"><ele>94.0</ele><time>2026-04-20T16:13:57Z</time></trkpt><trkpt lat="39.311088144327506" lon="9.168039399240552"><ele>93.5</ele><time>2026-04-20T16:14:00Z</time></trkpt><trkpt lat="39.311000999915315" lon="9.168062516918656"><ele>93.0</ele><time>2026-04-20T16:14:03Z</time></trkpt><trkpt lat="39.310916914605805" lon="9.168094248053148"><ele>92.5</ele><time>2026-04-20T16:14:05Z</time></trkpt><trkpt lat="39.31085575782134" lon="9.168123351824057"><ele>92.0</ele><time>2026-04-20T16:14:07Z</time></trkpt><trkpt lat="39.31079872596912" lon="9.168169038706417"><ele>92.71428571428572</ele><time>2026-04-20T16:14:09Z</time></trkpt><trkpt lat="39.31074435190217" lon="9.168222940624794"><ele>93.42857142857142</ele><time>2026-04-20T16:14:11Z</time></trkpt><trkpt lat="39.310676563838896" lon="9.168228694784737"><ele>94.14285714285714</ele><time>2026-04-20T16:14:14Z</time></trkpt><trkpt lat="39.3106002848894" lon="9.16825086776348"><ele>94.85714285714286</ele><time>2026-04-20T16:14:17Z</time></trkpt><trkpt lat="39.3105243850437" lon="9.168258904901986"><ele>95.57142857142858</ele><time>2026-04-20T16:14:20Z</time></trkpt><trkpt lat="39.3104498006609" lon="9.168274199739551"><ele>96.28571428571428</ele><time>2026-04-20T16:14:23Z</time></trkpt><trkpt lat="39.31036848608938" lon="9.168291982120113"><ele>97.0</ele><time>2026-04-20T16:14:26Z</time></trkpt><trkpt lat="39.310272911230584" lon="9.168328960026605"><ele>97.00000000000001</ele><time>2026-04-20T16:14:29Z</time></trkpt><trkpt lat="39.3101874627989" lon="9.168374650595835"><ele>97.0</ele><time>2026-04-20T16:14:32Z</time></trkpt><trkpt lat="39.31009726128045" lon="9.168405718655245"><ele>97.0</ele><time>2026-04-20T16:14:34Z</time></trkpt><trkpt lat="39.31002965281702" lon="9.168437664815848"><ele>97.0</ele><time>2026-04-20T16:14:36Z</time></trkpt><trkpt lat="39.30996445742509" lon="9.168464463545495"><ele>97.00000000000001</ele><time>2026-04-20T16:14:38Z</time></trkpt><trkpt lat="39.30989737553795" lon="9.168492037192301"><ele>97.0</ele><time>2026-04-20T16:14:40Z</time></trkpt><trkpt lat="39.30983414464153" lon="9.168524396417114"><ele>97.0</ele><time>2026-04-20T16:14:42Z</time></trkpt><trkpt lat="39.30976950765564" lon="9.168540907623708"><ele>97.0</ele><time>2026-04-20T16:14:44Z</time></trkpt><trkpt lat="39.30970625892711" lon="9.16855160794612"><ele>97.0</ele><time>2026-04-20T16:14:46Z</time></trkpt><trkpt lat="39.309621808149686" lon="9.168572512739765"><ele>97.0</ele><time>2026-04-20T16:14:49Z</time></trkpt><trkpt lat="39.30954095903911" lon="9.168592803581024"><ele>97.0</ele><time>2026-04-20T16:14:52Z</time></trkpt><trkpt lat="39.309463131186206" lon="9.168610756867846"><ele>97.0</ele><time>2026-04-20T16:14:55Z</time></trkpt><trkpt lat="39.3093966088062" lon="9.168635324398979"><ele>97.0</ele><time>2026-04-20T16:14:58Z</time></trkpt><trkpt lat="39.30932722655513" lon="9.168664145228712"><ele>97.0</ele><time>2026-04-20T16:15:01Z</time></trkpt><trkpt lat="39.30926539915889" lon="9.168689785427558"><ele>97.0</ele><time>2026-04-20T16:15:04Z</time></trkpt><trkpt lat="39.30919359128501" lon="9.168711589284756"><ele>97.0</ele><time>2026-04-20T16:15:08Z</time></trkpt><trkpt lat="39.309125048231635" lon="9.168746236483118"><ele>97.0</ele><time>2026-04-20T16:15:11Z</time></trkpt><trkpt lat="39.30905344312565" lon="9.168784855192369"><ele>97.0</ele><time>2026-04-20T16:15:15Z</time></trkpt><trkpt lat="39.30898387213073" lon="9.16883073608376"><ele>97.0</ele><time>2026-04-20T16:15:18Z</time></trkpt><trkpt lat="39.30892511498991" lon="9.168875589657738"><ele>97.0</ele><time>2026-04-20T16:15:21Z</time></trkpt><trkpt lat="39.308867765448184" lon="9.168915198226362"><ele>96.71428571428571</ele><time>2026-04-20T16:15:24Z</time></trkpt><trkpt lat="39.30880727620754" lon="9.168948099842886"><ele>96.42857142857143</ele><time>2026-04-20T16:15:27Z</time></trkpt><trkpt lat="39.30876091110338" lon="9.169003180547612"><ele>96.14285714285714</ele><time>2026-04-20T16:15:30Z</time></trkpt><trkpt lat="39.30870789505373" lon="9.169060665183823"><ele>95.85714285714286</ele><time>2026-04-20T16:15:34Z</time></trkpt><trkpt lat="39.308660362709624" lon="9.169118781127954"><ele>95.57142857142858</ele><time>2026-04-20T16:15:37Z</time></trkpt><trkpt lat="39.30861252611254" lon="9.169171972687561"><ele>95.28571428571429</ele><time>2026-04-20T16:15:40Z</time></trkpt><trkpt lat="39.30855882936203" lon="9.169237183110425"><ele>95.0</ele><time>2026-04-20T16:15:45Z</time></trkpt><trkpt lat="39.308512211184826" lon="9.169306829078634"><ele>96.85714285714286</ele><time>2026-04-20T16:15:50Z</time></trkpt><trkpt lat="39.30844667348388" lon="9.16937097391001"><ele>98.71428571428572</ele><time>2026-04-20T16:15:55Z</time></trkpt><trkpt lat="39.30839783656293" lon="9.169426398550833"><ele>100.57142857142857</ele><time>2026-04-20T16:16:00Z</time></trkpt><trkpt lat="39.308354637329764" lon="9.169531666446957"><ele>102.42857142857143</ele><time>2026-04-20T16:16:05Z</time></trkpt><trkpt lat="39.30831671959965" lon="9.169596888465692"><ele>104.28571428571428</ele><time>2026-04-20T16:16:09Z</time></trkpt><trkpt lat="39.308280378404646" lon="9.169668761631858"><ele>106.14285714285714</ele><time>2026-04-20T16:16:14Z</time></trkpt><trkpt lat="39.30824176245114" lon="9.169758409315419"><ele>108.0</ele><time>2026-04-20T16:16:19Z</time></trkpt><trkpt lat="39.30820140333557" lon="9.169831680195168"><ele>109.14285714285714</ele><time>2026-04-20T16:16:24Z</time></trkpt><trkpt lat="39.30814902346795" lon="9.169913972420021"><ele>110.28571428571428</ele><time>2026-04-20T16:16:29Z</time></trkpt><trkpt lat="39.30810502468477" lon="9.169976222711156"><ele>111.42857142857144</ele><time>2026-04-20T16:16:34Z</time></trkpt><trkpt lat="39.30803919584066" lon="9.170046291517036"><ele>112.57142857142858</ele><time>2026-04-20T16:16:39Z</time></trkpt><trkpt lat="39.30798649062349" lon="9.170110114527551"><ele>113.71428571428572</ele><time>2026-04-20T16:16:44Z</time></trkpt><trkpt lat="39.30792557344481" lon="9.170171251258363"><ele>114.85714285714288</ele><time>2026-04-20T16:16:49Z</time></trkpt><trkpt lat="39.30787603777545" lon="9.170224546262887"><ele>116.00000000000001</ele><time>2026-04-20T16:16:53Z</time></trkpt><trkpt lat="39.30782224573204" lon="9.1703003683476"><ele>116.00000000000001</ele><time>2026-04-20T16:16:57Z</time></trkpt><trkpt lat="39.30775936862808" lon="9.170347471559438"><ele>116.0</ele><time>2026-04-20T16:17:01Z</time></trkpt><trkpt lat="39.30768974510284" lon="9.170411227990531"><ele>116.00000000000001</ele><time>2026-04-20T16:17:06Z</time></trkpt><trkpt lat="39.30763740513727" lon="9.17046275433847"><ele>116.00000000000001</ele><time>2026-04-20T16:17:10Z</time></trkpt><trkpt lat="39.30758376499033" lon="9.170524008314038"><ele>116.0</ele><time>2026-04-20T16:17:14Z</time></trkpt><trkpt lat="39.30753142011339" lon="9.170582329637494"><ele>116.00000000000001</ele><time>2026-04-20T16:17:19Z</time></trkpt><trkpt lat="39.307472112093585" lon="9.170611801318788"><ele>116.00000000000001</ele><time>2026-04-20T16:17:22Z</time></trkpt><trkpt lat="39.30740399104287" lon="9.170651242386706"><ele>117.33333333333333</ele><time>2026-04-20T16:17:26Z</time></trkpt><trkpt lat="39.30734125866599" lon="9.170694693380698"><ele>118.66666666666666</ele><time>2026-04-20T16:17:30Z</time></trkpt><trkpt lat="39.30727523614653" lon="9.17072848962048"><ele>120.0</ele><time>2026-04-20T16:17:33Z</time></trkpt><trkpt lat="39.307202565061125" lon="9.17077809931169"><ele>121.33333333333334</ele><time>2026-04-20T16:17:37Z</time></trkpt><trkpt lat="39.30712693173877" lon="9.170814607745085"><ele>122.66666666666667</ele><time>2026-04-20T16:17:41Z</time></trkpt><trkpt lat="39.30704751940827" lon="9.170843546026148"><ele>124.0</ele><time>2026-04-20T16:17:46Z</time></trkpt><trkpt lat="39.30698118399588" lon="9.170878257644857"><ele>124.00000000000001</ele><time>2026-04-20T16:17:49Z</time></trkpt><trkpt lat="39.30690546912414" lon="9.17092335186584"><ele>124.0</ele><time>2026-04-20T16:17:53Z</time></trkpt><trkpt lat="39.30683634047707" lon="9.170950858374729"><ele>124.0</ele><time>2026-04-20T16:17:57Z</time></trkpt><trkpt lat="39.306770606443926" lon="9.170985534071088"><ele>124.0</ele><time>2026-04-20T16:18:01Z</time></trkpt><trkpt lat="39.30669948324266" lon="9.171036526758822"><ele>124.00000000000001</ele><time>2026-04-20T16:18:06Z</time></trkpt><trkpt lat="39.30663035560248" lon="9.171076163861544"><ele>124.0</ele><time>2026-04-20T16:18:10Z</time></trkpt><trkpt lat="39.3065595561504" lon="9.17112057621124"><ele>124.0</ele><time>2026-04-20T16:18:14Z</time></trkpt><trkpt lat="39.30650457056449" lon="9.171167169698727"><ele>124.00000000000001</ele><time>2026-04-20T16:18:17Z</time></trkpt><trkpt lat="39.30644623990028" lon="9.171201596329388"><ele>124.0</ele><time>2026-04-20T16:18:20Z</time></trkpt><trkpt lat="39.30638677531966" lon="9.17124486885822"><ele>124.0</ele><time>2026-04-20T16:18:23Z</time></trkpt><trkpt lat="39.306315013310105" lon="9.171282726414182"><ele>124.00000000000001</ele><time>2026-04-20T16:18:27Z</time></trkpt><trkpt lat="39.30624277728233" lon="9.171309336775277"><ele>124.0</ele><time>2026-04-20T16:18:31Z</time></trkpt><trkpt lat="39.30616994479959" lon="9.171333105599265"><ele>124.0</ele><time>2026-04-20T16:18:35Z</time></trkpt><trkpt lat="39.30610917695428" lon="9.171362671746234"><ele>125.0</ele><time>2026-04-20T16:18:39Z</time></trkpt><trkpt lat="39.30604581221554" lon="9.17138211321147"><ele>126.00000000000001</ele><time>2026-04-20T16:18:43Z</time></trkpt><trkpt lat="39.30597331368866" lon="9.17137240185887"><ele>127.0</ele><time>2026-04-20T16:18:48Z</time></trkpt><trkpt lat="39.305910236039566" lon="9.171389068564425"><ele>128.0</ele><time>2026-04-20T16:18:52Z</time></trkpt><trkpt lat="39.30583987577549" lon="9.171379413444424"><ele>129.0</ele><time>2026-04-20T16:18:56Z</time></trkpt><trkpt lat="39.30576753031194" lon="9.171384721489787"><ele>130.0</ele><time>2026-04-20T16:19:00Z</time></trkpt><trkpt lat="39.30570008729893" lon="9.171362583183754"><ele>131.0</ele><time>2026-04-20T16:19:04Z</time></trkpt><trkpt lat="39.305623077463274" lon="9.171357157074048"><ele>132.0</ele><time>2026-04-20T16:19:07Z</time></trkpt><trkpt lat="39.30554801445028" lon="9.171361330428574"><ele>133.0</ele><time>2026-04-20T16:19:11Z</time></trkpt><trkpt lat="39.30548533792839" lon="9.171371670157209"><ele>134.0</ele><time>2026-04-20T16:19:13Z</time></trkpt><trkpt lat="39.305415132557485" lon="9.171368503832298"><ele>135.0</ele><time>2026-04-20T16:19:16Z</time></trkpt><trkpt lat="39.30533577017656" lon="9.171372583332584"><ele>136.0</ele><time>2026-04-20T16:19:19Z</time></trkpt><trkpt lat="39.3052460893154" lon="9.17138710348155"><ele>137.0</ele><time>2026-04-20T16:19:22Z</time></trkpt><trkpt lat="39.3051792339503" lon="9.171393808884742"><ele>138.0</ele><time>2026-04-20T16:19:24Z</time></trkpt><trkpt lat="39.305113271574804" lon="9.171407701166691"><ele>138.0</ele><time>2026-04-20T16:19:26Z</time></trkpt><trkpt lat="39.305045249974675" lon="9.171404953368599"><ele>138.0</ele><time>2026-04-20T16:19:28Z</time></trkpt><trkpt lat="39.30497583665227" lon="9.17141557612327"><ele>138.0</ele><time>2026-04-20T16:19:30Z</time></trkpt><trkpt lat="39.304883874844165" lon="9.171428234414941"><ele>138.0</ele><time>2026-04-20T16:19:33Z</time></trkpt><trkpt lat="39.30480389584219" lon="9.171444246726452"><ele>138.0</ele><time>2026-04-20T16:19:36Z</time></trkpt><trkpt lat="39.30471694085933" lon="9.171453002364961"><ele>138.0</ele><time>2026-04-20T16:19:39Z</time></trkpt><trkpt lat="39.30463175597122" lon="9.171481752214099"><ele>137.66666666666666</ele><time>2026-04-20T16:19:42Z</time></trkpt><trkpt lat="39.30454822285354" lon="9.171508660602205"><ele>137.33333333333334</ele><time>2026-04-20T16:19:45Z</time></trkpt><trkpt lat="39.30445617917877" lon="9.171524136767363"><ele>137.0</ele><time>2026-04-20T16:19:48Z</time></trkpt><trkpt lat="39.304388094367006" lon="9.171535940925802"><ele>136.66666666666669</ele><time>2026-04-20T16:19:50Z</time></trkpt><trkpt lat="39.3043201472695" lon="9.171561725929319"><ele>136.33333333333334</ele><time>2026-04-20T16:19:52Z</time></trkpt><trkpt lat="39.3042475794464" lon="9.171590346868747"><ele>136.0</ele><time>2026-04-20T16:19:54Z</time></trkpt><trkpt lat="39.304178009131704" lon="9.171606188683556"><ele>136.0</ele><time>2026-04-20T16:19:56Z</time></trkpt><trkpt lat="39.30410707932781" lon="9.171642137259331"><ele>136.0</ele><time>2026-04-20T16:19:58Z</time></trkpt><trkpt lat="39.30403455439906" lon="9.171652208537902"><ele>136.0</ele><time>2026-04-20T16:20:00Z</time></trkpt><trkpt lat="39.30395689777312" lon="9.171669950750552"><ele>136.0</ele><time>2026-04-20T16:20:02Z</time></trkpt><trkpt lat="39.3038832309456" lon="9.171701200921884"><ele>136.0</ele><time>2026-04-20T16:20:04Z</time></trkpt><trkpt lat="39.30381699101254" lon="9.171739931043275"><ele>136.0</ele><time>2026-04-20T16:20:06Z</time></trkpt><trkpt lat="39.303733294121464" lon="9.171736428845648"><ele>135.99999999999997</ele><time>2026-04-20T16:20:08Z</time></trkpt><trkpt lat="39.30365838900106" lon="9.171738470133613"><ele>136.0</ele><time>2026-04-20T16:20:10Z</time></trkpt><trkpt lat="39.30358401401971" lon="9.17174930272479"><ele>136.0</ele><time>2026-04-20T16:20:12Z</time></trkpt><trkpt lat="39.3035143930153" lon="9.17176263482487"><ele>136.0</ele><time>2026-04-20T16:20:14Z</time></trkpt><trkpt lat="39.303450937584536" lon="9.171790817659089"><ele>136.0</ele><time>2026-04-20T16:20:16Z</time></trkpt><trkpt lat="39.303375308264265" lon="9.171806048970955"><ele>135.99999999999997</ele><time>2026-04-20T16:20:18Z</time></trkpt><trkpt lat="39.30330042855898" lon="9.171845765514234"><ele>136.0</ele><time>2026-04-20T16:20:20Z</time></trkpt><trkpt lat="39.30323345208291" lon="9.171875946080299"><ele>136.0</ele><time>2026-04-20T16:20:22Z</time></trkpt><trkpt lat="39.303163829993395" lon="9.171924923755576"><ele>136.0</ele><time>2026-04-20T16:20:24Z</time></trkpt><trkpt lat="39.3030845552223" lon="9.171937382478456"><ele>136.0</ele><time>2026-04-20T16:20:26Z</time></trkpt><trkpt lat="39.30301600867688" lon="9.171970162692748"><ele>136.0</ele><time>2026-04-20T16:20:28Z</time></trkpt><trkpt lat="39.302939303674904" lon="9.172018429824929"><ele>136.0</ele><time>2026-04-20T16:20:30Z</time></trkpt><trkpt lat="39.30285279116614" lon="9.17205476276875"><ele>136.0</ele><time>2026-04-20T16:20:32Z</time></trkpt><trkpt lat="39.30276688239521" lon="9.172095808429521"><ele>135.6</ele><time>2026-04-20T16:20:34Z</time></trkpt><trkpt lat="39.30268993614472" lon="9.172132782716439"><ele>135.2</ele><time>2026-04-20T16:20:36Z</time></trkpt><trkpt lat="39.30260956880972" lon="9.172184563265425"><ele>134.8</ele><time>2026-04-20T16:20:38Z</time></trkpt><trkpt lat="39.302529098055764" lon="9.172262453237721"><ele>134.4</ele><time>2026-04-20T16:20:40Z</time></trkpt><trkpt lat="39.30244705562829" lon="9.172329318483275"><ele>134.0</ele><time>2026-04-20T16:20:42Z</time></trkpt><trkpt lat="39.302362242998356" lon="9.17237379076255"><ele>134.0</ele><time>2026-04-20T16:20:44Z</time></trkpt><trkpt lat="39.30230620456791" lon="9.172413522597427"><ele>134.0</ele><time>2026-04-20T16:20:46Z</time></trkpt><trkpt lat="39.302240645926055" lon="9.172476236229217"><ele>134.0</ele><time>2026-04-20T16:20:48Z</time></trkpt><trkpt lat="39.302117236762385" lon="9.172600471648371"><ele>134.0</ele><time>2026-04-20T16:20:50Z</time></trkpt><trkpt lat="39.30204311332078" lon="9.172677150807322"><ele>134.0</ele><time>2026-04-20T16:20:52Z</time></trkpt><trkpt lat="39.30196385498185" lon="9.172750025719411"><ele>132.8</ele><time>2026-04-20T16:20:54Z</time></trkpt><trkpt lat="39.301878619449916" lon="9.172817188093303"><ele>131.60000000000002</ele><time>2026-04-20T16:20:56Z</time></trkpt><trkpt lat="39.30179306219754" lon="9.172885069871397"><ele>130.4</ele><time>2026-04-20T16:20:58Z</time></trkpt><trkpt lat="39.30171449644049" lon="9.1729557282059"><ele>129.20000000000002</ele><time>2026-04-20T16:21:00Z</time></trkpt><trkpt lat="39.30162736728023" lon="9.173028207087768"><ele>128.0</ele><time>2026-04-20T16:21:02Z</time></trkpt><trkpt lat="39.30154253379183" lon="9.17309865044577"><ele>128.0</ele><time>2026-04-20T16:21:04Z</time></trkpt><trkpt lat="39.30145310122874" lon="9.173178349915469"><ele>128.0</ele><time>2026-04-20T16:21:06Z</time></trkpt><trkpt lat="39.3013687739129" lon="9.173256477245435"><ele>128.0</ele><time>2026-04-20T16:21:08Z</time></trkpt><trkpt lat="39.301270154964584" lon="9.173310361351014"><ele>128.0</ele><time>2026-04-20T16:21:10Z</time></trkpt><trkpt lat="39.30117853837188" lon="9.173378474099888"><ele>128.0</ele><time>2026-04-20T16:21:12Z</time></trkpt><trkpt lat="39.30109446104497" lon="9.173437714012637"><ele>128.0</ele><time>2026-04-20T16:21:14Z</time></trkpt><trkpt lat="39.301008718357025" lon="9.173491876959652"><ele>128.0</ele><time>2026-04-20T16:21:16Z</time></trkpt><trkpt lat="39.300924266682316" lon="9.173539670215712"><ele>128.0</ele><time>2026-04-20T16:21:18Z</time></trkpt><trkpt lat="39.30084243465638" lon="9.173580621988076"><ele>128.0</ele><time>2026-04-20T16:21:20Z</time></trkpt><trkpt lat="39.30075676252114" lon="9.173621259816038"><ele>128.0</ele><time>2026-04-20T16:21:22Z</time></trkpt><trkpt lat="39.30067498761938" lon="9.173657416678424"><ele>128.0</ele><time>2026-04-20T16:21:24Z</time></trkpt><trkpt lat="39.30058945837554" lon="9.173691025865194"><ele>128.0</ele><time>2026-04-20T16:21:26Z</time></trkpt><trkpt lat="39.300499186418115" lon="9.173720435796607"><ele>128.0</ele><time>2026-04-20T16:21:28Z</time></trkpt><trkpt lat="39.30040403545497" lon="9.173747180677676"><ele>128.0</ele><time>2026-04-20T16:21:30Z</time></trkpt><trkpt lat="39.300311846763485" lon="9.17379480512123"><ele>128.0</ele><time>2026-04-20T16:21:32Z</time></trkpt><trkpt lat="39.3002127755794" lon="9.173817659887305"><ele>128.20000000000002</ele><time>2026-04-20T16:21:34Z</time></trkpt><trkpt lat="39.300114665823024" lon="9.173847992660894"><ele>128.4</ele><time>2026-04-20T16:21:36Z</time></trkpt><trkpt lat="39.30002419215346" lon="9.173899628896391"><ele>128.60000000000002</ele><time>2026-04-20T16:21:38Z</time></trkpt><trkpt lat="39.29992208894241" lon="9.173956625247788"><ele>128.8</ele><time>2026-04-20T16:21:40Z</time></trkpt><trkpt lat="39.29983142389916" lon="9.174046017098181"><ele>129.0</ele><time>2026-04-20T16:21:42Z</time></trkpt><trkpt lat="39.29979021815591" lon="9.174107999510932"><ele>128.5</ele><time>2026-04-20T16:21:43Z</time></trkpt><trkpt lat="39.29974493689504" lon="9.1741715417518"><ele>128.0</ele><time>2026-04-20T16:21:44Z</time></trkpt><trkpt lat="39.299702042890324" lon="9.174235409947842"><ele>127.5</ele><time>2026-04-20T16:21:45Z</time></trkpt><trkpt lat="39.299661000402665" lon="9.174299633842029"><ele>127.0</ele><time>2026-04-20T16:21:46Z</time></trkpt><trkpt lat="39.299620702684436" lon="9.174365099758777"><ele>126.5</ele><time>2026-04-20T16:21:47Z</time></trkpt><trkpt lat="39.29955984628092" lon="9.174497305323786"><ele>126.0</ele><time>2026-04-20T16:21:49Z</time></trkpt><trkpt lat="39.29951571098415" lon="9.1745664531222"><ele>126.0</ele><time>2026-04-20T16:21:50Z</time></trkpt><trkpt lat="39.29946529926848" lon="9.1746339961212"><ele>126.0</ele><time>2026-04-20T16:21:51Z</time></trkpt><trkpt lat="39.29942133208517" lon="9.174711265865266"><ele>126.0</ele><time>2026-04-20T16:21:52Z</time></trkpt><trkpt lat="39.299377966166894" lon="9.174792559192737"><ele>126.0</ele><time>2026-04-20T16:21:53Z</time></trkpt><trkpt lat="39.299344611817716" lon="9.17488954544381"><ele>126.0</ele><time>2026-04-20T16:21:54Z</time></trkpt><trkpt lat="39.29928723106584" lon="9.174962650303133"><ele>126.0</ele><time>2026-04-20T16:21:55Z</time></trkpt><trkpt lat="39.29924236769694" lon="9.175046750735698"><ele>125.5</ele><time>2026-04-20T16:21:56Z</time></trkpt><trkpt lat="39.2991951086798" lon="9.175135342019528"><ele>125.0</ele><time>2026-04-20T16:21:57Z</time></trkpt><trkpt lat="39.299148606525094" lon="9.17522042188716"><ele>124.5</ele><time>2026-04-20T16:21:58Z</time></trkpt><trkpt lat="39.29910925211118" lon="9.175317618077774"><ele>124.0</ele><time>2026-04-20T16:21:59Z</time></trkpt><trkpt lat="39.29906235547435" lon="9.1754012301016"><ele>123.5</ele><time>2026-04-20T16:22:00Z</time></trkpt><trkpt lat="39.2989999657721" lon="9.175474856137532"><ele>123.0</ele><time>2026-04-20T16:22:01Z</time></trkpt><trkpt lat="39.29895581834192" lon="9.175548358544843"><ele>123.16666666666667</ele><time>2026-04-20T16:22:02Z</time></trkpt><trkpt lat="39.29890765344407" lon="9.175628549750071"><ele>123.33333333333334</ele><time>2026-04-20T16:22:03Z</time></trkpt><trkpt lat="39.29886451241036" lon="9.175724318698407"><ele>123.5</ele><time>2026-04-20T16:22:04Z</time></trkpt><trkpt lat="39.29880921722775" lon="9.175802496826215"><ele>123.66666666666667</ele><time>2026-04-20T16:22:05Z</time></trkpt><trkpt lat="39.29876225301573" lon="9.175886102307768"><ele>123.83333333333334</ele><time>2026-04-20T16:22:06Z</time></trkpt><trkpt lat="39.2987050201684" lon="9.175963972945922"><ele>124.0</ele><time>2026-04-20T16:22:07Z</time></trkpt><trkpt lat="39.29865243388857" lon="9.176038133376505"><ele>123.33333333333334</ele><time>2026-04-20T16:22:08Z</time></trkpt><trkpt lat="39.298589218944514" lon="9.176098890289902"><ele>122.66666666666667</ele><time>2026-04-20T16:22:09Z</time></trkpt><trkpt lat="39.29853204611278" lon="9.176171068233524"><ele>122.0</ele><time>2026-04-20T16:22:10Z</time></trkpt><trkpt lat="39.29846954996637" lon="9.176247418366703"><ele>121.33333333333334</ele><time>2026-04-20T16:22:11Z</time></trkpt><trkpt lat="39.29840975259674" lon="9.176316651139468"><ele>120.66666666666667</ele><time>2026-04-20T16:22:12Z</time></trkpt><trkpt lat="39.298349302124166" lon="9.176386046094033"><ele>120.0</ele><time>2026-04-20T16:22:13Z</time></trkpt><trkpt lat="39.29828793706038" lon="9.176463792897378"><ele>118.66666666666667</ele><time>2026-04-20T16:22:14Z</time></trkpt><trkpt lat="39.29822987737091" lon="9.176543199300996"><ele>117.33333333333334</ele><time>2026-04-20T16:22:15Z</time></trkpt><trkpt lat="39.298162935738354" lon="9.176621130985904"><ele>116.0</ele><time>2026-04-20T16:22:16Z</time></trkpt><trkpt lat="39.298099592783394" lon="9.176700813746821"><ele>114.66666666666667</ele><time>2026-04-20T16:22:17Z</time></trkpt><trkpt lat="39.29803374833382" lon="9.176781181909403"><ele>113.33333333333334</ele><time>2026-04-20T16:22:18Z</time></trkpt><trkpt lat="39.29796778249872" lon="9.176862020731965"><ele>112.0</ele><time>2026-04-20T16:22:19Z</time></trkpt><trkpt lat="39.29790003938114" lon="9.176946868710344"><ele>111.14285714285714</ele><time>2026-04-20T16:22:20Z</time></trkpt><trkpt lat="39.297839676184104" lon="9.177022696786526"><ele>110.28571428571428</ele><time>2026-04-20T16:22:21Z</time></trkpt><trkpt lat="39.29778009571179" lon="9.177079375671845"><ele>109.42857142857143</ele><time>2026-04-20T16:22:22Z</time></trkpt><trkpt lat="39.29772687207768" lon="9.177143967752981"><ele>108.57142857142857</ele><time>2026-04-20T16:22:23Z</time></trkpt><trkpt lat="39.29768166863482" lon="9.17720462109631"><ele>107.71428571428571</ele><time>2026-04-20T16:22:24Z</time></trkpt><trkpt lat="39.297633313320794" lon="9.177264651076742"><ele>106.85714285714286</ele><time>2026-04-20T16:22:25Z</time></trkpt><trkpt lat="39.297581310174984" lon="9.177326564751993"><ele>106.0</ele><time>2026-04-20T16:22:26Z</time></trkpt><trkpt lat="39.29751951103722" lon="9.177391467829551"><ele>105.50000000000001</ele><time>2026-04-20T16:22:27Z</time></trkpt><trkpt lat="39.29745565767743" lon="9.177454995271802"><ele>105.0</ele><time>2026-04-20T16:22:28Z</time></trkpt><trkpt lat="39.29738650394363" lon="9.177523134800614"><ele>104.5</ele><time>2026-04-20T16:22:29Z</time></trkpt><trkpt lat="39.29731247501683" lon="9.177578363687223"><ele>104.0</ele><time>2026-04-20T16:22:30Z</time></trkpt><trkpt lat="39.29724542059317" lon="9.177638100656011"><ele>103.50000000000001</ele><time>2026-04-20T16:22:31Z</time></trkpt><trkpt lat="39.2971801338169" lon="9.177709517519236"><ele>103.0</ele><time>2026-04-20T16:22:32Z</time></trkpt><trkpt lat="39.29711187807125" lon="9.177772139225393"><ele>102.00000000000001</ele><time>2026-04-20T16:22:33Z</time></trkpt><trkpt lat="39.29705073836328" lon="9.177854328430636"><ele>101.0</ele><time>2026-04-20T16:22:34Z</time></trkpt><trkpt lat="39.2969798436106" lon="9.17791319694177"><ele>100.0</ele><time>2026-04-20T16:22:35Z</time></trkpt><trkpt lat="39.296917610597355" lon="9.17798767242823"><ele>99.0</ele><time>2026-04-20T16:22:36Z</time></trkpt><trkpt lat="39.296867549918126" lon="9.178079125991427"><ele>98.00000000000001</ele><time>2026-04-20T16:22:37Z</time></trkpt><trkpt lat="39.29679314004703" lon="9.17814565342139"><ele>97.0</ele><time>2026-04-20T16:22:38Z</time></trkpt><trkpt lat="39.29674732625724" lon="9.178234970566105"><ele>97.00000000000001</ele><time>2026-04-20T16:22:39Z</time></trkpt><trkpt lat="39.29668513848042" lon="9.178309620333781"><ele>97.0</ele><time>2026-04-20T16:22:40Z</time></trkpt><trkpt lat="39.296622867796394" lon="9.178362647610156"><ele>97.0</ele><time>2026-04-20T16:22:41Z</time></trkpt><trkpt lat="39.296570029244094" lon="9.178459654729513"><ele>97.0</ele><time>2026-04-20T16:22:42Z</time></trkpt><trkpt lat="39.2965135436898" lon="9.178539799328433"><ele>97.00000000000001</ele><time>2026-04-20T16:22:43Z</time></trkpt><trkpt lat="39.29645521577369" lon="9.178607467158795"><ele>97.0</ele><time>2026-04-20T16:22:44Z</time></trkpt><trkpt lat="39.2963793836421" lon="9.178664407102664"><ele>95.66666666666667</ele><time>2026-04-20T16:22:45Z</time></trkpt><trkpt lat="39.296316425625186" lon="9.178730298527055"><ele>94.33333333333334</ele><time>2026-04-20T16:22:46Z</time></trkpt><trkpt lat="39.296255288130325" lon="9.178788239027364"><ele>93.0</ele><time>2026-04-20T16:22:47Z</time></trkpt><trkpt lat="39.2961919564708" lon="9.178844911982734"><ele>91.66666666666667</ele><time>2026-04-20T16:22:48Z</time></trkpt><trkpt lat="39.2961272670452" lon="9.178900029691656"><ele>90.33333333333334</ele><time>2026-04-20T16:22:49Z</time></trkpt><trkpt lat="39.296060005148014" lon="9.178954391716411"><ele>89.0</ele><time>2026-04-20T16:22:50Z</time></trkpt><trkpt lat="39.29599174516175" lon="9.1790074824192"><ele>89.14285714285714</ele><time>2026-04-20T16:22:51Z</time></trkpt><trkpt lat="39.29592412998381" lon="9.179058161241581"><ele>89.28571428571428</ele><time>2026-04-20T16:22:52Z</time></trkpt><trkpt lat="39.295856258476206" lon="9.179106007900472"><ele>89.42857142857142</ele><time>2026-04-20T16:22:53Z</time></trkpt><trkpt lat="39.29579103278854" lon="9.1791497482552"><ele>89.57142857142857</ele><time>2026-04-20T16:22:54Z</time></trkpt><trkpt lat="39.295726947242" lon="9.17918939711037"><ele>89.71428571428572</ele><time>2026-04-20T16:22:55Z</time></trkpt><trkpt lat="39.2956609030045" lon="9.179228302238444"><ele>89.85714285714285</ele><time>2026-04-20T16:22:56Z</time></trkpt><trkpt lat="39.295598018114475" lon="9.179265282718253"><ele>90.0</ele><time>2026-04-20T16:22:57Z</time></trkpt><trkpt lat="39.295528186215684" lon="9.179309113522269"><ele>89.42857142857143</ele><time>2026-04-20T16:22:58Z</time></trkpt><trkpt lat="39.29546277339058" lon="9.179355266930802"><ele>88.85714285714286</ele><time>2026-04-20T16:22:59Z</time></trkpt><trkpt lat="39.295407775092485" lon="9.179413136420386"><ele>88.28571428571429</ele><time>2026-04-20T16:23:00Z</time></trkpt><trkpt lat="39.295344050805475" lon="9.179456204285467"><ele>87.71428571428572</ele><time>2026-04-20T16:23:01Z</time></trkpt><trkpt lat="39.29528986531415" lon="9.179510512567973"><ele>87.14285714285714</ele><time>2026-04-20T16:23:02Z</time></trkpt><trkpt lat="39.29524147274952" lon="9.17958357944608"><ele>86.57142857142858</ele><time>2026-04-20T16:23:03Z</time></trkpt><trkpt lat="39.29518467275876" lon="9.179637954598245"><ele>86.0</ele><time>2026-04-20T16:23:04Z</time></trkpt><trkpt lat="39.295122918276014" lon="9.179685199834836"><ele>86.00000000000001</ele><time>2026-04-20T16:23:05Z</time></trkpt><trkpt lat="39.29506613271972" lon="9.1797471637646"><ele>86.0</ele><time>2026-04-20T16:23:06Z</time></trkpt><trkpt lat="39.29501163610482" lon="9.179807748553818"><ele>86.0</ele><time>2026-04-20T16:23:07Z</time></trkpt><trkpt lat="39.29495954844947" lon="9.179866250954051"><ele>86.0</ele><time>2026-04-20T16:23:08Z</time></trkpt><trkpt lat="39.294910190309686" lon="9.17992168767087"><ele>86.0</ele><time>2026-04-20T16:23:09Z</time></trkpt><trkpt lat="39.29485576192624" lon="9.179983191701302"><ele>86.00000000000001</ele><time>2026-04-20T16:23:10Z</time></trkpt><trkpt lat="39.294807693867504" lon="9.180039431330028"><ele>86.0</ele><time>2026-04-20T16:23:11Z</time></trkpt><trkpt lat="39.294713634765394" lon="9.180154337925135"><ele>86.5</ele><time>2026-04-20T16:23:13Z</time></trkpt><trkpt lat="39.294667795389906" lon="9.180213585733442"><ele>87.0</ele><time>2026-04-20T16:23:14Z</time></trkpt><trkpt lat="39.294621377674595" lon="9.180280248349543"><ele>87.5</ele><time>2026-04-20T16:23:15Z</time></trkpt><trkpt lat="39.29455088565985" lon="9.180417263175132"><ele>88.0</ele><time>2026-04-20T16:23:17Z</time></trkpt><trkpt lat="39.294480916096695" lon="9.18052481900634"><ele>88.5</ele><time>2026-04-20T16:23:19Z</time></trkpt><trkpt lat="39.29444701091177" lon="9.180595138115878"><ele>89.0</ele><time>2026-04-20T16:23:20Z</time></trkpt><trkpt lat="39.29440530692977" lon="9.18066541503752"><ele>89.0</ele><time>2026-04-20T16:23:22Z</time></trkpt><trkpt lat="39.29432150816544" lon="9.1807140250147"><ele>89.0</ele><time>2026-04-20T16:23:24Z</time></trkpt><trkpt lat="39.294237005024456" lon="9.18074231074845"><ele>89.0</ele><time>2026-04-20T16:23:26Z</time></trkpt><trkpt lat="39.29415400492186" lon="9.180770093365792"><ele>89.0</ele><time>2026-04-20T16:23:28Z</time></trkpt><trkpt lat="39.29405720138502" lon="9.180665774902616"><ele>89.0</ele><time>2026-04-20T16:23:30Z</time></trkpt><trkpt lat="39.293983400779155" lon="9.180655877011754"><ele>88.5</ele><time>2026-04-20T16:23:32Z</time></trkpt><trkpt lat="39.293910724494275" lon="9.180659683851914"><ele>88.0</ele><time>2026-04-20T16:23:34Z</time></trkpt><trkpt lat="39.29383533089159" lon="9.180657944850367"><ele>87.5</ele><time>2026-04-20T16:23:36Z</time></trkpt><trkpt lat="39.29375727453499" lon="9.180660237005291"><ele>87.0</ele><time>2026-04-20T16:23:38Z</time></trkpt><trkpt lat="39.29366723440945" lon="9.180663092668938"><ele>86.5</ele><time>2026-04-20T16:23:40Z</time></trkpt><trkpt lat="39.293577534092286" lon="9.180663691588087"><ele>86.0</ele><time>2026-04-20T16:23:42Z</time></trkpt><trkpt lat="39.293484124297755" lon="9.18065335504728"><ele>86.0</ele><time>2026-04-20T16:23:44Z</time></trkpt><trkpt lat="39.29338310532546" lon="9.180670581724414"><ele>86.0</ele><time>2026-04-20T16:23:46Z</time></trkpt><trkpt lat="39.29328728368412" lon="9.180681551973679"><ele>86.0</ele><time>2026-04-20T16:23:48Z</time></trkpt><trkpt lat="39.29318710567199" lon="9.18069613262834"><ele>86.0</ele><time>2026-04-20T16:23:50Z</time></trkpt><trkpt lat="39.293085021985206" lon="9.180700318474795"><ele>86.0</ele><time>2026-04-20T16:23:52Z</time></trkpt><trkpt lat="39.29298437259956" lon="9.180714142221033"><ele>86.19999999999999</ele><time>2026-04-20T16:23:54Z</time></trkpt><trkpt lat="39.292876736972275" lon="9.180709557926395"><ele>86.39999999999999</ele><time>2026-04-20T16:23:56Z</time></trkpt><trkpt lat="39.29277628841442" lon="9.180762580714575"><ele>86.6</ele><time>2026-04-20T16:23:58Z</time></trkpt><trkpt lat="39.29268294018408" lon="9.180800313006186"><ele>86.8</ele><time>2026-04-20T16:24:00Z</time></trkpt><trkpt lat="39.29265905474863" lon="9.180890452605924"><ele>87.0</ele><time>2026-04-20T16:24:01Z</time></trkpt><trkpt lat="39.292571529268834" lon="9.180962484271477"><ele>87.0</ele><time>2026-04-20T16:24:03Z</time></trkpt><trkpt lat="39.292507718320635" lon="9.18104227908305"><ele>87.0</ele><time>2026-04-20T16:24:05Z</time></trkpt><trkpt lat="39.292439981598314" lon="9.181133793472247"><ele>87.0</ele><time>2026-04-20T16:24:07Z</time></trkpt><trkpt lat="39.29237347365595" lon="9.1812073153646"><ele>87.0</ele><time>2026-04-20T16:24:09Z</time></trkpt><trkpt lat="39.29230685840686" lon="9.181280955882182"><ele>87.0</ele><time>2026-04-20T16:24:11Z</time></trkpt><trkpt lat="39.29219809045475" lon="9.1811832990527"><ele>86.66666666666667</ele><time>2026-04-20T16:24:14Z</time></trkpt><trkpt lat="39.29215854198417" lon="9.181082084527384"><ele>86.33333333333333</ele><time>2026-04-20T16:24:17Z</time></trkpt><trkpt lat="39.29211902661565" lon="9.18098120470175"><ele>86.0</ele><time>2026-04-20T16:24:20Z</time></trkpt><trkpt lat="39.292085966368255" lon="9.180884665503493"><ele>85.66666666666666</ele><time>2026-04-20T16:24:23Z</time></trkpt><trkpt lat="39.29205029103251" lon="9.1807832369085"><ele>85.33333333333333</ele><time>2026-04-20T16:24:26Z</time></trkpt><trkpt lat="39.29201219033345" lon="9.180676961234072"><ele>85.0</ele><time>2026-04-20T16:24:29Z</time></trkpt><trkpt lat="39.291983994753636" lon="9.180585420546983"><ele>84.33333333333333</ele><time>2026-04-20T16:24:31Z</time></trkpt><trkpt lat="39.29195124340148" lon="9.180491343298112"><ele>83.66666666666666</ele><time>2026-04-20T16:24:33Z</time></trkpt><trkpt lat="39.29192492295639" lon="9.180417200221493"><ele>83.0</ele><time>2026-04-20T16:24:35Z</time></trkpt><trkpt lat="39.29185185163496" lon="9.180415999223795"><ele>82.33333333333333</ele><time>2026-04-20T16:24:40Z</time></trkpt><trkpt lat="39.291771054305606" lon="9.180393186414088"><ele>81.66666666666667</ele><time>2026-04-20T16:24:43Z</time></trkpt><trkpt lat="39.29167857381448" lon="9.180402217423227"><ele>81.0</ele><time>2026-04-20T16:24:45Z</time></trkpt><trkpt lat="39.291567963844905" lon="9.180427508672398"><ele>81.0</ele><time>2026-04-20T16:24:47Z</time></trkpt><trkpt lat="39.2914504457698" lon="9.180437735374042"><ele>81.0</ele><time>2026-04-20T16:24:49Z</time></trkpt><trkpt lat="39.29135103073064" lon="9.180456029819155"><ele>81.0</ele><time>2026-04-20T16:24:51Z</time></trkpt><trkpt lat="39.29128692022499" lon="9.180454516390016"><ele>81.0</ele><time>2026-04-20T16:24:53Z</time></trkpt><trkpt lat="39.29121732705782" lon="9.180442703652448"><ele>81.0</ele><time>2026-04-20T16:24:55Z</time></trkpt><trkpt lat="39.29114942440354" lon="9.180506231536949"><ele>81.0</ele><time>2026-04-20T16:24:57Z</time></trkpt><trkpt lat="39.291101766466475" lon="9.18059122696691"><ele>80.83333333333333</ele><time>2026-04-20T16:24:59Z</time></trkpt><trkpt lat="39.29106918539393" lon="9.180676898486308"><ele>80.66666666666667</ele><time>2026-04-20T16:25:01Z</time></trkpt><trkpt lat="39.291017636894985" lon="9.180741766481063"><ele>80.5</ele><time>2026-04-20T16:25:03Z</time></trkpt><trkpt lat="39.290969408959974" lon="9.180797786155583"><ele>80.33333333333334</ele><time>2026-04-20T16:25:05Z</time></trkpt><trkpt lat="39.290921074645624" lon="9.180894058927898"><ele>80.16666666666667</ele><time>2026-04-20T16:25:07Z</time></trkpt><trkpt lat="39.2908678509494" lon="9.18097780632325"><ele>80.0</ele><time>2026-04-20T16:25:09Z</time></trkpt><trkpt lat="39.290817757484916" lon="9.181070077847334"><ele>80.0</ele><time>2026-04-20T16:25:11Z</time></trkpt><trkpt lat="39.29076600682567" lon="9.181153590965387"><ele>80.0</ele><time>2026-04-20T16:25:13Z</time></trkpt><trkpt lat="39.29072277228805" lon="9.181249859952931"><ele>80.0</ele><time>2026-04-20T16:25:15Z</time></trkpt><trkpt lat="39.29067013080962" lon="9.1813258788429"><ele>80.0</ele><time>2026-04-20T16:25:17Z</time></trkpt><trkpt lat="39.290620140412244" lon="9.181392935647478"><ele>80.0</ele><time>2026-04-20T16:25:19Z</time></trkpt><trkpt lat="39.29058405840694" lon="9.1814722356312"><ele>80.0</ele><time>2026-04-20T16:25:21Z</time></trkpt><trkpt lat="39.29053120249887" lon="9.181401684684712"><ele>79.0</ele><time>2026-04-20T16:25:24Z</time></trkpt><trkpt lat="39.29052144714813" lon="9.181273271340366"><ele>78.0</ele><time>2026-04-20T16:25:26Z</time></trkpt><trkpt lat="39.290490003843594" lon="9.181162657904128"><ele>77.0</ele><time>2026-04-20T16:25:28Z</time></trkpt><trkpt lat="39.29045713796463" lon="9.181050136280318"><ele>76.0</ele><time>2026-04-20T16:25:30Z</time></trkpt><trkpt lat="39.29043481259526" lon="9.18093777851297"><ele>75.0</ele><time>2026-04-20T16:25:32Z</time></trkpt><trkpt lat="39.2904093719112" lon="9.180831810905051"><ele>75.0</ele><time>2026-04-20T16:25:34Z</time></trkpt><trkpt lat="39.290363095710866" lon="9.18072528195114"><ele>75.0</ele><time>2026-04-20T16:25:36Z</time></trkpt><trkpt lat="39.29032114093994" lon="9.18062016184006"><ele>75.0</ele><time>2026-04-20T16:25:38Z</time></trkpt><trkpt lat="39.29028705132404" lon="9.180511930447809"><ele>75.0</ele><time>2026-04-20T16:25:40Z</time></trkpt><trkpt lat="39.29024063023008" lon="9.180443308398292"><ele>75.0</ele><time>2026-04-20T16:25:42Z</time></trkpt><trkpt lat="39.2902238543388" lon="9.180297498862915"><ele>75.16666666666667</ele><time>2026-04-20T16:25:44Z</time></trkpt><trkpt lat="39.29019800707168" lon="9.180192901085185"><ele>75.33333333333333</ele><time>2026-04-20T16:25:46Z</time></trkpt><trkpt lat="39.29014936261319" lon="9.180081502243926"><ele>75.5</ele><time>2026-04-20T16:25:48Z</time></trkpt><trkpt lat="39.290089622478305" lon="9.179995755716092"><ele>75.66666666666666</ele><time>2026-04-20T16:25:50Z</time></trkpt><trkpt lat="39.29004509417128" lon="9.179897844562692"><ele>75.83333333333333</ele><time>2026-04-20T16:25:52Z</time></trkpt><trkpt lat="39.290004830926925" lon="9.17981814961088"><ele>76.0</ele><time>2026-04-20T16:25:54Z</time></trkpt><trkpt lat="39.28995277019452" lon="9.179709937815955"><ele>76.16666666666666</ele><time>2026-04-20T16:25:56Z</time></trkpt><trkpt lat="39.28991950907264" lon="9.179619001970785"><ele>76.33333333333333</ele><time>2026-04-20T16:25:58Z</time></trkpt><trkpt lat="39.289846251726686" lon="9.179540581199383"><ele>76.5</ele><time>2026-04-20T16:26:00Z</time></trkpt><trkpt lat="39.28977660329758" lon="9.179454696524672"><ele>76.66666666666667</ele><time>2026-04-20T16:26:02Z</time></trkpt><trkpt lat="39.28972017925366" lon="9.179372198073391"><ele>76.83333333333334</ele><time>2026-04-20T16:26:04Z</time></trkpt><trkpt lat="39.289681323095536" lon="9.17928564430982"><ele>77.0</ele><time>2026-04-20T16:26:06Z</time></trkpt><trkpt lat="39.289628513064144" lon="9.179202204429004"><ele>76.5</ele><time>2026-04-20T16:26:08Z</time></trkpt><trkpt lat="39.28952276253748" lon="9.17911928012671"><ele>76.0</ele><time>2026-04-20T16:26:10Z</time></trkpt><trkpt lat="39.289466210348166" lon="9.179077277595125"><ele>75.5</ele><time>2026-04-20T16:26:11Z</time></trkpt><trkpt lat="39.28941207367821" lon="9.179032725613425"><ele>75.0</ele><time>2026-04-20T16:26:12Z</time></trkpt><trkpt lat="39.28934615162922" lon="9.179015000853346"><ele>74.5</ele><time>2026-04-20T16:26:13Z</time></trkpt><trkpt lat="39.28926669057628" lon="9.178928642598398"><ele>74.0</ele><time>2026-04-20T16:26:15Z</time></trkpt><trkpt lat="39.289201649410806" lon="9.178855593703318"><ele>73.83333333333334</ele><time>2026-04-20T16:26:17Z</time></trkpt><trkpt lat="39.28913581266249" lon="9.17877997886998"><ele>73.66666666666667</ele><time>2026-04-20T16:26:18Z</time></trkpt><trkpt lat="39.28907794313372" lon="9.178711822707958"><ele>73.5</ele><time>2026-04-20T16:26:19Z</time></trkpt><trkpt lat="39.28903070722152" lon="9.178639956398005"><ele>73.33333333333333</ele><time>2026-04-20T16:26:20Z</time></trkpt><trkpt lat="39.28893372664823" lon="9.178541971018811"><ele>73.16666666666666</ele><time>2026-04-20T16:26:22Z</time></trkpt><trkpt lat="39.288886653938455" lon="9.178486530509714"><ele>73.0</ele><time>2026-04-20T16:26:23Z</time></trkpt><trkpt lat="39.28883988873247" lon="9.178430723477726"><ele>72.66666666666666</ele><time>2026-04-20T16:26:24Z</time></trkpt><trkpt lat="39.28882467616273" lon="9.178308530370362"><ele>72.33333333333333</ele><time>2026-04-20T16:26:25Z</time></trkpt><trkpt lat="39.288769425526105" lon="9.178246451854507"><ele>72.0</ele><time>2026-04-20T16:26:26Z</time></trkpt><trkpt lat="39.28870380036435" lon="9.178176760912207"><ele>71.66666666666667</ele><time>2026-04-20T16:26:27Z</time></trkpt><trkpt lat="39.28863736788004" lon="9.178109482974477"><ele>71.33333333333334</ele><time>2026-04-20T16:26:28Z</time></trkpt><trkpt lat="39.28855602517785" lon="9.17807645695202"><ele>71.0</ele><time>2026-04-20T16:26:29Z</time></trkpt><trkpt lat="39.288496304043186" lon="9.178001089147967"><ele>70.5</ele><time>2026-04-20T16:26:30Z</time></trkpt><trkpt lat="39.288431188238945" lon="9.177919106375102"><ele>70.0</ele><time>2026-04-20T16:26:31Z</time></trkpt><trkpt lat="39.2883830364784" lon="9.17783963863269"><ele>69.5</ele><time>2026-04-20T16:26:32Z</time></trkpt><trkpt lat="39.28832561418889" lon="9.17779210340776"><ele>69.0</ele><time>2026-04-20T16:26:33Z</time></trkpt><trkpt lat="39.28827134592247" lon="9.177696173684781"><ele>68.5</ele><time>2026-04-20T16:26:35Z</time></trkpt><trkpt lat="39.28820705306623" lon="9.177636240121048"><ele>68.0</ele><time>2026-04-20T16:26:38Z</time></trkpt><trkpt lat="39.28814859318426" lon="9.177564635523769"><ele>68.0</ele><time>2026-04-20T16:26:40Z</time></trkpt><trkpt lat="39.2880916020471" lon="9.177490274621544"><ele>68.0</ele><time>2026-04-20T16:26:42Z</time></trkpt><trkpt lat="39.288013821409194" lon="9.177402652175179"><ele>68.0</ele><time>2026-04-20T16:26:44Z</time></trkpt><trkpt lat="39.28794548214795" lon="9.177309309535456"><ele>68.0</ele><time>2026-04-20T16:26:46Z</time></trkpt><trkpt lat="39.287894576116095" lon="9.177221861259856"><ele>68.0</ele><time>2026-04-20T16:26:48Z</time></trkpt><trkpt lat="39.28781076554596" lon="9.177131957889145"><ele>67.75</ele><time>2026-04-20T16:26:50Z</time></trkpt><trkpt lat="39.28770949534205" lon="9.177058114921007"><ele>67.5</ele><time>2026-04-20T16:26:52Z</time></trkpt><trkpt lat="39.287585783905556" lon="9.177033918124584"><ele>67.25</ele><time>2026-04-20T16:26:54Z</time></trkpt><trkpt lat="39.28747594091192" lon="9.177066768768325"><ele>67.0</ele><time>2026-04-20T16:26:56Z</time></trkpt><trkpt lat="39.28736548209333" lon="9.177159182771657"><ele>67.0</ele><time>2026-04-20T16:26:58Z</time></trkpt><trkpt lat="39.287284697381615" lon="9.177262492520173"><ele>67.0</ele><time>2026-04-20T16:27:00Z</time></trkpt><trkpt lat="39.2872151261085" lon="9.177355783475615"><ele>67.0</ele><time>2026-04-20T16:27:02Z</time></trkpt><trkpt lat="39.28714311090176" lon="9.17745366193478"><ele>67.0</ele><time>2026-04-20T16:27:04Z</time></trkpt><trkpt lat="39.28706887308811" lon="9.177554561251613"><ele>67.0</ele><time>2026-04-20T16:27:06Z</time></trkpt><trkpt lat="39.28699354281338" lon="9.177640346198842"><ele>68.0</ele><time>2026-04-20T16:27:08Z</time></trkpt><trkpt lat="39.28692353059517" lon="9.177747444605973"><ele>69.0</ele><time>2026-04-20T16:27:10Z</time></trkpt><trkpt lat="39.28684007580759" lon="9.177845003883938"><ele>70.0</ele><time>2026-04-20T16:27:12Z</time></trkpt><trkpt lat="39.286757130144856" lon="9.177961371645313"><ele>71.0</ele><time>2026-04-20T16:27:14Z</time></trkpt><trkpt lat="39.28666638990889" lon="9.178072873422018"><ele>71.0</ele><time>2026-04-20T16:27:16Z</time></trkpt><trkpt lat="39.28661801947619" lon="9.178126126803006"><ele>71.0</ele><time>2026-04-20T16:27:17Z</time></trkpt><trkpt lat="39.286570607959774" lon="9.178184157015155"><ele>71.0</ele><time>2026-04-20T16:27:18Z</time></trkpt><trkpt lat="39.28652128771122" lon="9.17824477444149"><ele>71.0</ele><time>2026-04-20T16:27:19Z</time></trkpt><trkpt lat="39.28646881876346" lon="9.178292185510216"><ele>71.0</ele><time>2026-04-20T16:27:20Z</time></trkpt><trkpt lat="39.28642454163385" lon="9.178353890152438"><ele>71.0</ele><time>2026-04-20T16:27:21Z</time></trkpt><trkpt lat="39.28637758233004" lon="9.178410601499667"><ele>71.0</ele><time>2026-04-20T16:27:22Z</time></trkpt><trkpt lat="39.28632829154575" lon="9.17847013282334"><ele>69.83333333333334</ele><time>2026-04-20T16:27:23Z</time></trkpt><trkpt lat="39.28627594147056" lon="9.178540338987224"><ele>68.66666666666667</ele><time>2026-04-20T16:27:24Z</time></trkpt><trkpt lat="39.28622833411287" lon="9.178612665068076"><ele>67.5</ele><time>2026-04-20T16:27:25Z</time></trkpt><trkpt lat="39.28617790004307" lon="9.17868722744757"><ele>66.33333333333333</ele><time>2026-04-20T16:27:26Z</time></trkpt><trkpt lat="39.2861277519986" lon="9.178764796694521"><ele>65.16666666666666</ele><time>2026-04-20T16:27:27Z</time></trkpt><trkpt lat="39.28608068009476" lon="9.178841954847698"><ele>64.0</ele><time>2026-04-20T16:27:28Z</time></trkpt><trkpt lat="39.28603297466238" lon="9.17891253261482"><ele>64.0</ele><time>2026-04-20T16:27:29Z</time></trkpt><trkpt lat="39.28598905264812" lon="9.178991360072539"><ele>64.0</ele><time>2026-04-20T16:27:30Z</time></trkpt><trkpt lat="39.285943038301546" lon="9.179057015426304"><ele>64.0</ele><time>2026-04-20T16:27:31Z</time></trkpt><trkpt lat="39.28585205053793" lon="9.179144945552832"><ele>64.0</ele><time>2026-04-20T16:27:33Z</time></trkpt><trkpt lat="39.285754684690666" lon="9.179123567273468"><ele>64.0</ele><time>2026-04-20T16:27:35Z</time></trkpt><trkpt lat="39.28574213403871" lon="9.178997619439796"><ele>64.0</ele><time>2026-04-20T16:27:36Z</time></trkpt><trkpt lat="39.28566760135331" lon="9.17887573357915"><ele>64.0</ele><time>2026-04-20T16:27:38Z</time></trkpt><trkpt lat="39.28560264722619" lon="9.178758957042723"><ele>64.0</ele><time>2026-04-20T16:27:40Z</time></trkpt><trkpt lat="39.28552730147338" lon="9.178659752235232"><ele>64.0</ele><time>2026-04-20T16:27:42Z</time></trkpt><trkpt lat="39.2854844682581" lon="9.178551867918298"><ele>64.0</ele><time>2026-04-20T16:27:44Z</time></trkpt><trkpt lat="39.28543195780453" lon="9.178461185996154"><ele>63.666666666666664</ele><time>2026-04-20T16:27:46Z</time></trkpt><trkpt lat="39.28540134428067" lon="9.178375450654412"><ele>63.33333333333333</ele><time>2026-04-20T16:27:48Z</time></trkpt><trkpt lat="39.28536162288686" lon="9.178296765704532"><ele>63.0</ele><time>2026-04-20T16:27:50Z</time></trkpt><trkpt lat="39.28532231333682" lon="9.178213458596504"><ele>62.66666666666667</ele><time>2026-04-20T16:27:52Z</time></trkpt><trkpt lat="39.285289257868065" lon="9.17813037702541"><ele>62.333333333333336</ele><time>2026-04-20T16:27:54Z</time></trkpt><trkpt lat="39.28525175553491" lon="9.178040983973961"><ele>62.0</ele><time>2026-04-20T16:27:56Z</time></trkpt><trkpt lat="39.28521564050518" lon="9.17792604079994"><ele>62.50000000000001</ele><time>2026-04-20T16:27:59Z</time></trkpt><trkpt lat="39.28518886224876" lon="9.177818005088218"><ele>63.0</ele><time>2026-04-20T16:28:02Z</time></trkpt><trkpt lat="39.285167809817985" lon="9.177736296148053"><ele>63.5</ele><time>2026-04-20T16:28:04Z</time></trkpt><trkpt lat="39.28513977889881" lon="9.177649385355046"><ele>64.0</ele><time>2026-04-20T16:28:06Z</time></trkpt><trkpt lat="39.285123243893146" lon="9.177544023828272"><ele>64.5</ele><time>2026-04-20T16:28:08Z</time></trkpt><trkpt lat="39.285110454261954" lon="9.177418278191558"><ele>65.0</ele><time>2026-04-20T16:28:10Z</time></trkpt><trkpt lat="39.28503714585377" lon="9.177231063344147"><ele>65.0</ele><time>2026-04-20T16:28:11Z</time></trkpt><trkpt lat="39.28502283318339" lon="9.177151084964297"><ele>65.0</ele><time>2026-04-20T16:28:12Z</time></trkpt><trkpt lat="39.284981993208966" lon="9.177004614401094"><ele>65.0</ele><time>2026-04-20T16:28:14Z</time></trkpt><trkpt lat="39.2849630072744" lon="9.176917588705093"><ele>65.0</ele><time>2026-04-20T16:28:15Z</time></trkpt><trkpt lat="39.28495600640365" lon="9.176828171416869"><ele>65.0</ele><time>2026-04-20T16:28:16Z</time></trkpt><trkpt lat="39.28493174231137" lon="9.176739612038753"><ele>65.0</ele><time>2026-04-20T16:28:17Z</time></trkpt><trkpt lat="39.284897399210955" lon="9.176649512710302"><ele>65.0</ele><time>2026-04-20T16:28:18Z</time></trkpt><trkpt lat="39.28487082103142" lon="9.176548951500484"><ele>65.0</ele><time>2026-04-20T16:28:19Z</time></trkpt><trkpt lat="39.28483352732623" lon="9.176454110005283"><ele>65.0</ele><time>2026-04-20T16:28:20Z</time></trkpt><trkpt lat="39.284790578607684" lon="9.176358994015969"><ele>65.0</ele><time>2026-04-20T16:28:21Z</time></trkpt><trkpt lat="39.28473533597778" lon="9.176262323046629"><ele>65.0</ele><time>2026-04-20T16:28:22Z</time></trkpt><trkpt lat="39.28468360138626" lon="9.176165843180872"><ele>65.0</ele><time>2026-04-20T16:28:23Z</time></trkpt><trkpt lat="39.28462548239919" lon="9.176067413965404"><ele>63.2</ele><time>2026-04-20T16:28:24Z</time></trkpt><trkpt lat="39.28456168902658" lon="9.175973200224174"><ele>61.4</ele><time>2026-04-20T16:28:25Z</time></trkpt><trkpt lat="39.284492467360955" lon="9.175882603829475"><ele>59.599999999999994</ele><time>2026-04-20T16:28:26Z</time></trkpt><trkpt lat="39.284421194429136" lon="9.175787020971411"><ele>57.8</ele><time>2026-04-20T16:28:27Z</time></trkpt><trkpt lat="39.28434121879103" lon="9.175704121850886"><ele>56.0</ele><time>2026-04-20T16:28:28Z</time></trkpt><trkpt lat="39.28425393374129" lon="9.175623972387154"><ele>55.4</ele><time>2026-04-20T16:28:29Z</time></trkpt><trkpt lat="39.28417601259406" lon="9.175537978261422"><ele>54.8</ele><time>2026-04-20T16:28:30Z</time></trkpt><trkpt lat="39.28411015191898" lon="9.175460329755849"><ele>54.199999999999996</ele><time>2026-04-20T16:28:31Z</time></trkpt><trkpt lat="39.284022613567494" lon="9.175375956999792"><ele>53.599999999999994</ele><time>2026-04-20T16:28:32Z</time></trkpt><trkpt lat="39.283936853801514" lon="9.175298656058592"><ele>53.0</ele><time>2026-04-20T16:28:33Z</time></trkpt><trkpt lat="39.28384878468219" lon="9.175221280103363"><ele>52.2</ele><time>2026-04-20T16:28:34Z</time></trkpt><trkpt lat="39.283767506910515" lon="9.175123385461472"><ele>51.4</ele><time>2026-04-20T16:28:35Z</time></trkpt><trkpt lat="39.28368629023824" lon="9.1750376099289"><ele>50.6</ele><time>2026-04-20T16:28:36Z</time></trkpt><trkpt lat="39.28361015385493" lon="9.174951122304577"><ele>49.800000000000004</ele><time>2026-04-20T16:28:37Z</time></trkpt><trkpt lat="39.28353037931874" lon="9.174867110470377"><ele>49.0</ele><time>2026-04-20T16:28:38Z</time></trkpt><trkpt lat="39.28347525075753" lon="9.174751715467162"><ele>48.0</ele><time>2026-04-20T16:28:39Z</time></trkpt><trkpt lat="39.283417853632436" lon="9.174648991723888"><ele>47.0</ele><time>2026-04-20T16:28:40Z</time></trkpt><trkpt lat="39.28335883160061" lon="9.174538134678883"><ele>46.0</ele><time>2026-04-20T16:28:41Z</time></trkpt><trkpt lat="39.283281731750435" lon="9.174463021924646"><ele>45.0</ele><time>2026-04-20T16:28:42Z</time></trkpt><trkpt lat="39.283212150646726" lon="9.17437719471229"><ele>44.0</ele><time>2026-04-20T16:28:43Z</time></trkpt><trkpt lat="39.28313360607368" lon="9.17429203590635"><ele>43.800000000000004</ele><time>2026-04-20T16:28:44Z</time></trkpt><trkpt lat="39.28304990401859" lon="9.174224693711912"><ele>43.6</ele><time>2026-04-20T16:28:45Z</time></trkpt><trkpt lat="39.282965864571544" lon="9.174163875523712"><ele>43.4</ele><time>2026-04-20T16:28:46Z</time></trkpt><trkpt lat="39.282893886814065" lon="9.174082058370459"><ele>43.2</ele><time>2026-04-20T16:28:47Z</time></trkpt><trkpt lat="39.282816938069075" lon="9.174016699419868"><ele>43.0</ele><time>2026-04-20T16:28:48Z</time></trkpt><trkpt lat="39.28274084807397" lon="9.17395114509751"><ele>42.5</ele><time>2026-04-20T16:28:49Z</time></trkpt><trkpt lat="39.2826680979107" lon="9.173888070853275"><ele>42.0</ele><time>2026-04-20T16:28:50Z</time></trkpt><trkpt lat="39.28259892451074" lon="9.173829621241396"><ele>41.5</ele><time>2026-04-20T16:28:51Z</time></trkpt><trkpt lat="39.28252492296596" lon="9.173768836210375"><ele>41.0</ele><time>2026-04-20T16:28:52Z</time></trkpt><trkpt lat="39.28245123730455" lon="9.17370831062693"><ele>40.5</ele><time>2026-04-20T16:28:53Z</time></trkpt><trkpt lat="39.28237669102457" lon="9.173647078146448"><ele>40.0</ele><time>2026-04-20T16:28:54Z</time></trkpt><trkpt lat="39.28230167907058" lon="9.173584704467565"><ele>39.333333333333336</ele><time>2026-04-20T16:28:55Z</time></trkpt><trkpt lat="39.28223000366824" lon="9.17352378889246"><ele>38.66666666666667</ele><time>2026-04-20T16:28:56Z</time></trkpt><trkpt lat="39.282153832629696" lon="9.173477992834561"><ele>38.0</ele><time>2026-04-20T16:28:57Z</time></trkpt><trkpt lat="39.28208624866025" lon="9.173423016774667"><ele>37.333333333333336</ele><time>2026-04-20T16:28:58Z</time></trkpt><trkpt lat="39.28201774449145" lon="9.17336320506077"><ele>36.666666666666664</ele><time>2026-04-20T16:28:59Z</time></trkpt><trkpt lat="39.28195177582059" lon="9.173303233116615"><ele>36.0</ele><time>2026-04-20T16:29:00Z</time></trkpt><trkpt lat="39.28187956579103" lon="9.173243459519382"><ele>36.0</ele><time>2026-04-20T16:29:01Z</time></trkpt><trkpt lat="39.28180962785081" lon="9.173183857309324"><ele>36.0</ele><time>2026-04-20T16:29:02Z</time></trkpt><trkpt lat="39.281750467905496" lon="9.17310696723347"><ele>36.0</ele><time>2026-04-20T16:29:03Z</time></trkpt><trkpt lat="39.28168516803234" lon="9.1730510607589"><ele>36.0</ele><time>2026-04-20T16:29:04Z</time></trkpt><trkpt lat="39.281617122725805" lon="9.17299448737568"><ele>36.0</ele><time>2026-04-20T16:29:05Z</time></trkpt><trkpt lat="39.281549159616695" lon="9.172938705435625"><ele>36.0</ele><time>2026-04-20T16:29:06Z</time></trkpt><trkpt lat="39.281483772930976" lon="9.172885038187266"><ele>35.714285714285715</ele><time>2026-04-20T16:29:07Z</time></trkpt><trkpt lat="39.281421470163075" lon="9.17283390233497"><ele>35.42857142857143</ele><time>2026-04-20T16:29:08Z</time></trkpt><trkpt lat="39.28135572144816" lon="9.172780952130047"><ele>35.14285714285714</ele><time>2026-04-20T16:29:09Z</time></trkpt><trkpt lat="39.281294236977814" lon="9.172731611887341"><ele>34.85714285714286</ele><time>2026-04-20T16:29:10Z</time></trkpt><trkpt lat="39.28122601693204" lon="9.172696238115108"><ele>34.57142857142857</ele><time>2026-04-20T16:29:11Z</time></trkpt><trkpt lat="39.28116376756934" lon="9.17263749358503"><ele>34.285714285714285</ele><time>2026-04-20T16:29:12Z</time></trkpt><trkpt lat="39.28110719933656" lon="9.1725884797845"><ele>34.0</ele><time>2026-04-20T16:29:13Z</time></trkpt><trkpt lat="39.28104822116926" lon="9.172541866416323"><ele>33.99999999999999</ele><time>2026-04-20T16:29:14Z</time></trkpt><trkpt lat="39.28098791779083" lon="9.172493125847582"><ele>34.0</ele><time>2026-04-20T16:29:15Z</time></trkpt><trkpt lat="39.28093030281433" lon="9.17245182869586"><ele>34.0</ele><time>2026-04-20T16:29:16Z</time></trkpt><trkpt lat="39.28087197120916" lon="9.172407562521023"><ele>34.0</ele><time>2026-04-20T16:29:17Z</time></trkpt><trkpt lat="39.28080791689614" lon="9.172372986562353"><ele>34.0</ele><time>2026-04-20T16:29:18Z</time></trkpt><trkpt lat="39.2807496043831" lon="9.17233232694461"><ele>33.99999999999999</ele><time>2026-04-20T16:29:19Z</time></trkpt><trkpt lat="39.280686146544824" lon="9.172297872443455"><ele>34.0</ele><time>2026-04-20T16:29:20Z</time></trkpt><trkpt lat="39.28062630133366" lon="9.172256879486437"><ele>34.14285714285714</ele><time>2026-04-20T16:29:21Z</time></trkpt><trkpt lat="39.28056958008206" lon="9.172219752252484"><ele>34.285714285714285</ele><time>2026-04-20T16:29:22Z</time></trkpt><trkpt lat="39.28051009315949" lon="9.172184611623745"><ele>34.42857142857143</ele><time>2026-04-20T16:29:23Z</time></trkpt><trkpt lat="39.28045149978939" lon="9.172146069785605"><ele>34.57142857142857</ele><time>2026-04-20T16:29:24Z</time></trkpt><trkpt lat="39.28039294800245" lon="9.172104961826706"><ele>34.714285714285715</ele><time>2026-04-20T16:29:25Z</time></trkpt><trkpt lat="39.28033231581383" lon="9.172061905805688"><ele>34.857142857142854</ele><time>2026-04-20T16:29:26Z</time></trkpt><trkpt lat="39.28027587538738" lon="9.172022343635689"><ele>35.0</ele><time>2026-04-20T16:29:27Z</time></trkpt><trkpt lat="39.280214736821485" lon="9.171990066947275"><ele>35.0</ele><time>2026-04-20T16:29:28Z</time></trkpt><trkpt lat="39.28015592902013" lon="9.171956980937528"><ele>35.0</ele><time>2026-04-20T16:29:29Z</time></trkpt><trkpt lat="39.28009629050386" lon="9.171919023768217"><ele>35.0</ele><time>2026-04-20T16:29:30Z</time></trkpt><trkpt lat="39.28003373536763" lon="9.171894838110989"><ele>35.0</ele><time>2026-04-20T16:29:31Z</time></trkpt><trkpt lat="39.27997057642726" lon="9.171883287899579"><ele>35.0</ele><time>2026-04-20T16:29:32Z</time></trkpt><trkpt lat="39.27985364426722" lon="9.171941631329629"><ele>35.0</ele><time>2026-04-20T16:29:34Z</time></trkpt><trkpt lat="39.279786411768164" lon="9.171969041650515"><ele>34.75</ele><time>2026-04-20T16:29:35Z</time></trkpt><trkpt lat="39.27968997734362" lon="9.172052298895409"><ele>34.5</ele><time>2026-04-20T16:29:37Z</time></trkpt><trkpt lat="39.279609081390625" lon="9.172152045147076"><ele>34.25</ele><time>2026-04-20T16:29:39Z</time></trkpt><trkpt lat="39.279543983925244" lon="9.172268882436024"><ele>34.0</ele><time>2026-04-20T16:29:41Z</time></trkpt><trkpt lat="39.27946017960741" lon="9.172362003984873"><ele>34.0</ele><time>2026-04-20T16:29:43Z</time></trkpt><trkpt lat="39.279371735967956" lon="9.17242818178142"><ele>34.0</ele><time>2026-04-20T16:29:45Z</time></trkpt><trkpt lat="39.279283924265584" lon="9.17249174201436"><ele>34.0</ele><time>2026-04-20T16:29:47Z</time></trkpt><trkpt lat="39.279207017297516" lon="9.172565010748716"><ele>34.0</ele><time>2026-04-20T16:29:49Z</time></trkpt><trkpt lat="39.27912659279133" lon="9.17262864993447"><ele>34.0</ele><time>2026-04-20T16:29:51Z</time></trkpt><trkpt lat="39.279043734051164" lon="9.172690780965324"><ele>34.0</ele><time>2026-04-20T16:29:53Z</time></trkpt><trkpt lat="39.278960633826486" lon="9.172748241997773"><ele>34.0</ele><time>2026-04-20T16:29:55Z</time></trkpt><trkpt lat="39.27888391362857" lon="9.172821015036572"><ele>34.0</ele><time>2026-04-20T16:29:57Z</time></trkpt><trkpt lat="39.27879783271232" lon="9.172867401249107"><ele>34.0</ele><time>2026-04-20T16:29:59Z</time></trkpt><trkpt lat="39.278729268433985" lon="9.172937112866807"><ele>34.0</ele><time>2026-04-20T16:30:01Z</time></trkpt><trkpt lat="39.27865745422322" lon="9.1729884601968"><ele>33.16666666666667</ele><time>2026-04-20T16:30:03Z</time></trkpt><trkpt lat="39.27858815327978" lon="9.173018006870246"><ele>32.333333333333336</ele><time>2026-04-20T16:30:05Z</time></trkpt><trkpt lat="39.27855468636484" lon="9.172946576720303"><ele>31.5</ele><time>2026-04-20T16:30:09Z</time></trkpt><trkpt lat="39.27852951912465" lon="9.172847894822786"><ele>30.666666666666664</ele><time>2026-04-20T16:31:56Z</time></trkpt><trkpt lat="39.27849324355386" lon="9.172757211831724"><ele>29.833333333333332</ele><time>2026-04-20T16:32:01Z</time></trkpt><trkpt lat="39.27846752041834" lon="9.172658267720605"><ele>29.0</ele><time>2026-04-20T16:32:04Z</time></trkpt><trkpt lat="39.27842347360481" lon="9.172571120036768"><ele>29.000000000000004</ele><time>2026-04-20T16:32:07Z</time></trkpt><trkpt lat="39.27838365035061" lon="9.172502080208366"><ele>29.0</ele><time>2026-04-20T16:32:09Z</time></trkpt><trkpt lat="39.27835259794792" lon="9.172424526430113"><ele>29.000000000000004</ele><time>2026-04-20T16:32:11Z</time></trkpt><trkpt lat="39.2783079461899" lon="9.17235217394279"><ele>29.000000000000004</ele><time>2026-04-20T16:32:13Z</time></trkpt><trkpt lat="39.27827563923153" lon="9.17227947412807"><ele>29.0</ele><time>2026-04-20T16:32:15Z</time></trkpt><trkpt lat="39.278235556784146" lon="9.172203003411623"><ele>29.000000000000004</ele><time>2026-04-20T16:32:17Z</time></trkpt><trkpt lat="39.27820758219083" lon="9.172106131156804"><ele>29.000000000000004</ele><time>2026-04-20T16:32:19Z</time></trkpt><trkpt lat="39.27816093024088" lon="9.172025224886601"><ele>28.999999999999996</ele><time>2026-04-20T16:32:21Z</time></trkpt><trkpt lat="39.27811064104545" lon="9.171934899500247"><ele>29.0</ele><time>2026-04-20T16:32:23Z</time></trkpt><trkpt lat="39.278055208813576" lon="9.171849273673178"><ele>29.0</ele><time>2026-04-20T16:32:25Z</time></trkpt><trkpt lat="39.27799376630549" lon="9.171763091118509"><ele>29.0</ele><time>2026-04-20T16:32:27Z</time></trkpt><trkpt lat="39.27792822249471" lon="9.171686218199353"><ele>28.999999999999996</ele><time>2026-04-20T16:32:29Z</time></trkpt><trkpt lat="39.27785913564464" lon="9.171608495642838"><ele>29.0</ele><time>2026-04-20T16:32:31Z</time></trkpt><trkpt lat="39.27778957065336" lon="9.171540082273024"><ele>29.0</ele><time>2026-04-20T16:32:33Z</time></trkpt><trkpt lat="39.277715048669144" lon="9.171479284806273"><ele>29.0</ele><time>2026-04-20T16:32:35Z</time></trkpt><trkpt lat="39.277633599033315" lon="9.171418057451238"><ele>29.0</ele><time>2026-04-20T16:32:37Z</time></trkpt><trkpt lat="39.2775353049903" lon="9.171376026710277"><ele>29.0</ele><time>2026-04-20T16:32:39Z</time></trkpt><trkpt lat="39.2774497559151" lon="9.171359634008061"><ele>29.0</ele><time>2026-04-20T16:32:41Z</time></trkpt><trkpt lat="39.27736032180519" lon="9.1713367270625"><ele>28.999999999999996</ele><time>2026-04-20T16:32:43Z</time></trkpt><trkpt lat="39.277292535403234" lon="9.171272130136087"><ele>29.0</ele><time>2026-04-20T16:32:45Z</time></trkpt><trkpt lat="39.27721917287562" lon="9.171229810804036"><ele>29.0</ele><time>2026-04-20T16:32:47Z</time></trkpt><trkpt lat="39.27713926248704" lon="9.171199680758718"><ele>29.0</ele><time>2026-04-20T16:32:49Z</time></trkpt><trkpt lat="39.27706861700699" lon="9.171154666191326"><ele>28.999999999999996</ele><time>2026-04-20T16:32:51Z</time></trkpt><trkpt lat="39.276988698473794" lon="9.171106342996486"><ele>29.0</ele><time>2026-04-20T16:32:53Z</time></trkpt><trkpt lat="39.27691989258215" lon="9.171066382805787"><ele>28.833333333333332</ele><time>2026-04-20T16:32:55Z</time></trkpt><trkpt lat="39.27685821388721" lon="9.17099487326131"><ele>28.666666666666664</ele><time>2026-04-20T16:32:57Z</time></trkpt><trkpt lat="39.27677124766433" lon="9.170945790325204"><ele>28.5</ele><time>2026-04-20T16:32:59Z</time></trkpt><trkpt lat="39.27669279075684" lon="9.170909344058352"><ele>28.333333333333336</ele><time>2026-04-20T16:33:01Z</time></trkpt><trkpt lat="39.27662008113839" lon="9.170853876654766"><ele>28.166666666666668</ele><time>2026-04-20T16:33:03Z</time></trkpt><trkpt lat="39.27652469000329" lon="9.170854445920494"><ele>28.0</ele><time>2026-04-20T16:33:05Z</time></trkpt><trkpt lat="39.27643531716699" lon="9.170823086099603"><ele>27.799999999999997</ele><time>2026-04-20T16:33:07Z</time></trkpt><trkpt lat="39.2763427400421" lon="9.170798096599906"><ele>27.599999999999998</ele><time>2026-04-20T16:33:09Z</time></trkpt><trkpt lat="39.27625146719817" lon="9.17077132088358"><ele>27.400000000000002</ele><time>2026-04-20T16:33:11Z</time></trkpt><trkpt lat="39.27616214008958" lon="9.170738783773054"><ele>27.200000000000003</ele><time>2026-04-20T16:33:13Z</time></trkpt><trkpt lat="39.27606439802415" lon="9.170723245168622"><ele>27.0</ele><time>2026-04-20T16:33:15Z</time></trkpt><trkpt lat="39.27596736330151" lon="9.17069624925194"><ele>27.200000000000003</ele><time>2026-04-20T16:33:17Z</time></trkpt><trkpt lat="39.275875077972" lon="9.170658488469954"><ele>27.400000000000002</ele><time>2026-04-20T16:33:19Z</time></trkpt><trkpt lat="39.2757829897403" lon="9.170592889185938"><ele>27.599999999999998</ele><time>2026-04-20T16:33:21Z</time></trkpt><trkpt lat="39.27571428485624" lon="9.17050371369528"><ele>27.799999999999997</ele><time>2026-04-20T16:33:23Z</time></trkpt><trkpt lat="39.27564210169837" lon="9.170410438298589"><ele>28.0</ele><time>2026-04-20T16:33:25Z</time></trkpt><trkpt lat="39.27556010192104" lon="9.17031656385021"><ele>27.4</ele><time>2026-04-20T16:33:27Z</time></trkpt><trkpt lat="39.275488868685386" lon="9.170218910692942"><ele>26.799999999999997</ele><time>2026-04-20T16:33:29Z</time></trkpt><trkpt lat="39.275410071137564" lon="9.170163478059589"><ele>26.2</ele><time>2026-04-20T16:33:31Z</time></trkpt><trkpt lat="39.27530618432425" lon="9.170115785526946"><ele>25.6</ele><time>2026-04-20T16:33:33Z</time></trkpt><trkpt lat="39.27521912238788" lon="9.170044594046733"><ele>25.0</ele><time>2026-04-20T16:33:35Z</time></trkpt><trkpt lat="39.275121466754555" lon="9.169986063084743"><ele>25.0</ele><time>2026-04-20T16:33:37Z</time></trkpt><trkpt lat="39.27503146100664" lon="9.169894514251338"><ele>25.0</ele><time>2026-04-20T16:33:39Z</time></trkpt><trkpt lat="39.27494774946038" lon="9.169811420301407"><ele>25.0</ele><time>2026-04-20T16:33:41Z</time></trkpt><trkpt lat="39.27487821360539" lon="9.169735178086677"><ele>25.0</ele><time>2026-04-20T16:33:45Z</time></trkpt><trkpt lat="39.2747856185253" lon="9.169624905174778"><ele>25.0</ele><time>2026-04-20T16:33:47Z</time></trkpt><trkpt lat="39.274694690879755" lon="9.169518106477172"><ele>25.0</ele><time>2026-04-20T16:33:49Z</time></trkpt><trkpt lat="39.274624392470564" lon="9.169408965667108"><ele>25.0</ele><time>2026-04-20T16:33:51Z</time></trkpt><trkpt lat="39.27455020993266" lon="9.169313506210854"><ele>25.0</ele><time>2026-04-20T16:33:53Z</time></trkpt><trkpt lat="39.274474083623346" lon="9.16922075023399"><ele>25.0</ele><time>2026-04-20T16:33:55Z</time></trkpt><trkpt lat="39.274419093223116" lon="9.169138532585862"><ele>25.0</ele><time>2026-04-20T16:33:57Z</time></trkpt><trkpt lat="39.27434269754861" lon="9.169061991399005"><ele>25.000000000000004</ele><time>2026-04-20T16:33:59Z</time></trkpt><trkpt lat="39.27428283539514" lon="9.168976436242323"><ele>25.0</ele><time>2026-04-20T16:34:01Z</time></trkpt><trkpt lat="39.27421943444609" lon="9.16890031278189"><ele>25.0</ele><time>2026-04-20T16:34:03Z</time></trkpt><trkpt lat="39.27415613727406" lon="9.168827023365838"><ele>25.0</ele><time>2026-04-20T16:34:05Z</time></trkpt><trkpt lat="39.27410106670143" lon="9.168755364582605"><ele>25.000000000000004</ele><time>2026-04-20T16:34:07Z</time></trkpt><trkpt lat="39.27403826313398" lon="9.168682916364366"><ele>25.0</ele><time>2026-04-20T16:34:09Z</time></trkpt><trkpt lat="39.27398190984935" lon="9.168624697594792"><ele>24.833333333333336</ele><time>2026-04-20T16:34:11Z</time></trkpt><trkpt lat="39.273918868531986" lon="9.16853533411294"><ele>24.666666666666668</ele><time>2026-04-20T16:34:13Z</time></trkpt><trkpt lat="39.27386892574633" lon="9.168436642666993"><ele>24.5</ele><time>2026-04-20T16:34:15Z</time></trkpt><trkpt lat="39.273806615018856" lon="9.16835099467143"><ele>24.333333333333336</ele><time>2026-04-20T16:34:17Z</time></trkpt><trkpt lat="39.27374455788992" lon="9.168285510667824"><ele>24.166666666666668</ele><time>2026-04-20T16:34:19Z</time></trkpt><trkpt lat="39.27367923796728" lon="9.168235053073396"><ele>24.0</ele><time>2026-04-20T16:34:21Z</time></trkpt><trkpt lat="39.27360192573543" lon="9.168173038419784"><ele>24.0</ele><time>2026-04-20T16:34:23Z</time></trkpt><trkpt lat="39.27353810988932" lon="9.168110637250068"><ele>24.0</ele><time>2026-04-20T16:34:25Z</time></trkpt><trkpt lat="39.273475071416186" lon="9.168042093062189"><ele>24.0</ele><time>2026-04-20T16:34:27Z</time></trkpt><trkpt lat="39.2734083509165" lon="9.167969599799363"><ele>24.0</ele><time>2026-04-20T16:34:30Z</time></trkpt><trkpt lat="39.273347913407946" lon="9.16791798697586"><ele>24.0</ele><time>2026-04-20T16:34:32Z</time></trkpt><trkpt lat="39.27328062530856" lon="9.167871004811838"><ele>24.0</ele><time>2026-04-20T16:34:35Z</time></trkpt><trkpt lat="39.27322918477471" lon="9.167813888119415"><ele>24.0</ele><time>2026-04-20T16:34:37Z</time></trkpt><trkpt lat="39.2731334383013" lon="9.16775975450537"><ele>24.0</ele><time>2026-04-20T16:34:40Z</time></trkpt><trkpt lat="39.273069695952145" lon="9.167726783881559"><ele>24.0</ele><time>2026-04-20T16:34:41Z</time></trkpt><trkpt lat="39.27300182568767" lon="9.167662934763438"><ele>24.0</ele><time>2026-04-20T16:34:43Z</time></trkpt><trkpt lat="39.272910593442724" lon="9.167597866709936"><ele>24.0</ele><time>2026-04-20T16:34:45Z</time></trkpt><trkpt lat="39.2728373765262" lon="9.167551825647399"><ele>24.0</ele><time>2026-04-20T16:34:47Z</time></trkpt><trkpt lat="39.272738764552486" lon="9.167497435787372"><ele>23.666666666666668</ele><time>2026-04-20T16:34:49Z</time></trkpt><trkpt lat="39.272656752650065" lon="9.167452689946476"><ele>23.333333333333332</ele><time>2026-04-20T16:34:51Z</time></trkpt><trkpt lat="39.272578590108665" lon="9.167419775761276"><ele>23.0</ele><time>2026-04-20T16:34:53Z</time></trkpt><trkpt lat="39.27251951746261" lon="9.16734335850431"><ele>22.666666666666664</ele><time>2026-04-20T16:34:55Z</time></trkpt><trkpt lat="39.272553472418664" lon="9.167237369364095"><ele>22.333333333333332</ele><time>2026-04-20T16:34:58Z</time></trkpt><trkpt lat="39.272552270142135" lon="9.167134603552332"><ele>22.0</ele><time>2026-04-20T16:35:01Z</time></trkpt><trkpt lat="39.272584163527995" lon="9.16706278655667"><ele>22.0</ele><time>2026-04-20T16:35:03Z</time></trkpt><trkpt lat="39.27260533645321" lon="9.16697138899722"><ele>22.0</ele><time>2026-04-20T16:35:05Z</time></trkpt><trkpt lat="39.27263803520117" lon="9.166867958334715"><ele>22.0</ele><time>2026-04-20T16:35:07Z</time></trkpt><trkpt lat="39.272656015571755" lon="9.166777083685046"><ele>22.0</ele><time>2026-04-20T16:35:09Z</time></trkpt><trkpt lat="39.27262973419089" lon="9.16668735993367"><ele>22.0</ele><time>2026-04-20T16:35:11Z</time></trkpt><trkpt lat="39.272556601616316" lon="9.166672422172567"><ele>22.0</ele><time>2026-04-20T16:35:13Z</time></trkpt><trkpt lat="39.272490407622726" lon="9.166624986743122"><ele>22.0</ele><time>2026-04-20T16:35:16Z</time></trkpt><trkpt lat="39.2724838305741" lon="9.166524004396816"><ele>22.0</ele><time>2026-04-20T16:35:18Z</time></trkpt><trkpt lat="39.27247496090851" lon="9.16641490662818"><ele>22.0</ele><time>2026-04-20T16:35:20Z</time></trkpt><trkpt lat="39.272432417082186" lon="9.166311897633724"><ele>22.0</ele><time>2026-04-20T16:35:22Z</time></trkpt><trkpt lat="39.27235919603339" lon="9.166240746238403"><ele>22.0</ele><time>2026-04-20T16:35:24Z</time></trkpt><trkpt lat="39.272272668314045" lon="9.16621625056102"><ele>22.0</ele><time>2026-04-20T16:35:26Z</time></trkpt><trkpt lat="39.27218864575954" lon="9.166211376836868"><ele>21.666666666666664</ele><time>2026-04-20T16:35:28Z</time></trkpt><trkpt lat="39.27210523128227" lon="9.166197418455587"><ele>21.333333333333332</ele><time>2026-04-20T16:35:30Z</time></trkpt><trkpt lat="39.27201974515896" lon="9.166184509485289"><ele>21.0</ele><time>2026-04-20T16:35:32Z</time></trkpt><trkpt lat="39.27193922803933" lon="9.166165037047156"><ele>20.666666666666668</ele><time>2026-04-20T16:35:34Z</time></trkpt><trkpt lat="39.271845005960465" lon="9.166164974118253"><ele>20.333333333333336</ele><time>2026-04-20T16:35:36Z</time></trkpt><trkpt lat="39.27175996935092" lon="9.166140782467687"><ele>20.0</ele><time>2026-04-20T16:35:38Z</time></trkpt><trkpt lat="39.2716788545474" lon="9.166136379281525"><ele>20.0</ele><time>2026-04-20T16:35:40Z</time></trkpt><trkpt lat="39.271611262944916" lon="9.166121574079089"><ele>20.0</ele><time>2026-04-20T16:35:42Z</time></trkpt><trkpt lat="39.27153317172233" lon="9.16610577112079"><ele>20.0</ele><time>2026-04-20T16:35:44Z</time></trkpt><trkpt lat="39.2714591120261" lon="9.166085840496082"><ele>20.0</ele><time>2026-04-20T16:35:46Z</time></trkpt><trkpt lat="39.27138578666136" lon="9.166072375910595"><ele>20.0</ele><time>2026-04-20T16:35:48Z</time></trkpt><trkpt lat="39.27131904023295" lon="9.166041106377431"><ele>20.0</ele><time>2026-04-20T16:35:50Z</time></trkpt><trkpt lat="39.27123587682268" lon="9.166007338440918"><ele>20.0</ele><time>2026-04-20T16:35:54Z</time></trkpt><trkpt lat="39.27115441905122" lon="9.165972213713186"><ele>20.0</ele><time>2026-04-20T16:35:56Z</time></trkpt><trkpt lat="39.27109386355049" lon="9.165935862503593"><ele>20.0</ele><time>2026-04-20T16:35:57Z</time></trkpt><trkpt lat="39.27100806270321" lon="9.165897800500058"><ele>20.0</ele><time>2026-04-20T16:35:59Z</time></trkpt><trkpt lat="39.27092161664139" lon="9.165896977309187"><ele>20.0</ele><time>2026-04-20T16:36:01Z</time></trkpt><trkpt lat="39.27083517390274" lon="9.16594234130656"><ele>20.0</ele><time>2026-04-20T16:36:03Z</time></trkpt><trkpt lat="39.27074667211884" lon="9.165994655504322"><ele>20.0</ele><time>2026-04-20T16:36:05Z</time></trkpt><trkpt lat="39.27066294741115" lon="9.166058911029861"><ele>20.0</ele><time>2026-04-20T16:36:07Z</time></trkpt><trkpt lat="39.270572379675215" lon="9.166112240447031"><ele>20.0</ele><time>2026-04-20T16:36:09Z</time></trkpt><trkpt lat="39.27046925271417" lon="9.1661200608278"><ele>20.0</ele><time>2026-04-20T16:36:11Z</time></trkpt><trkpt lat="39.27037044771841" lon="9.166138478944848"><ele>20.0</ele><time>2026-04-20T16:36:13Z</time></trkpt><trkpt lat="39.2702783007001" lon="9.166189044084714"><ele>19.8</ele><time>2026-04-20T16:36:15Z</time></trkpt><trkpt lat="39.27018365049169" lon="9.166216359725588"><ele>19.6</ele><time>2026-04-20T16:36:17Z</time></trkpt><trkpt lat="39.270083627102494" lon="9.166251554173028"><ele>19.4</ele><time>2026-04-20T16:36:19Z</time></trkpt><trkpt lat="39.26998137503045" lon="9.166280462353383"><ele>19.2</ele><time>2026-04-20T16:36:21Z</time></trkpt><trkpt lat="39.26986859732778" lon="9.166273448844006"><ele>19.0</ele><time>2026-04-20T16:36:23Z</time></trkpt><trkpt lat="39.26975474245107" lon="9.166304971683413"><ele>18.4</ele><time>2026-04-20T16:36:25Z</time></trkpt><trkpt lat="39.269651279797735" lon="9.16633361726214"><ele>17.799999999999997</ele><time>2026-04-20T16:36:27Z</time></trkpt><trkpt lat="39.269541300397094" lon="9.16636473611572"><ele>17.200000000000003</ele><time>2026-04-20T16:36:29Z</time></trkpt><trkpt lat="39.269431184215506" lon="9.166396423096018"><ele>16.6</ele><time>2026-04-20T16:36:31Z</time></trkpt><trkpt lat="39.26932241961837" lon="9.166427721154447"><ele>16.0</ele><time>2026-04-20T16:36:33Z</time></trkpt><trkpt lat="39.26920883697928" lon="9.166460406779644"><ele>16.0</ele><time>2026-04-20T16:36:35Z</time></trkpt><trkpt lat="39.26909312151267" lon="9.166493332317051"><ele>16.0</ele><time>2026-04-20T16:36:37Z</time></trkpt><trkpt lat="39.269029084958255" lon="9.166511656062438"><ele>16.0</ele><time>2026-04-20T16:36:38Z</time></trkpt><trkpt lat="39.26890538857857" lon="9.16654705119585"><ele>16.0</ele><time>2026-04-20T16:36:40Z</time></trkpt><trkpt lat="39.26878347884827" lon="9.166580884802416"><ele>16.0</ele><time>2026-04-20T16:36:42Z</time></trkpt><trkpt lat="39.26866201557597" lon="9.16661395766925"><ele>16.5</ele><time>2026-04-20T16:36:44Z</time></trkpt><trkpt lat="39.26854204038462" lon="9.166646625356789"><ele>17.0</ele><time>2026-04-20T16:36:46Z</time></trkpt><trkpt lat="39.26843074274816" lon="9.16667693023429"><ele>17.5</ele><time>2026-04-20T16:36:48Z</time></trkpt><trkpt lat="39.26831798284597" lon="9.166707633297262"><ele>18.0</ele><time>2026-04-20T16:36:50Z</time></trkpt><trkpt lat="39.26821315935582" lon="9.166756072821942"><ele>17.8</ele><time>2026-04-20T16:36:52Z</time></trkpt><trkpt lat="39.26809917776112" lon="9.16676721105368"><ele>17.6</ele><time>2026-04-20T16:36:54Z</time></trkpt><trkpt lat="39.26799131837344" lon="9.16679658116822"><ele>17.4</ele><time>2026-04-20T16:36:56Z</time></trkpt><trkpt lat="39.267890190489055" lon="9.166822869551003"><ele>17.2</ele><time>2026-04-20T16:36:58Z</time></trkpt><trkpt lat="39.26777915234775" lon="9.166851747607453"><ele>17.0</ele><time>2026-04-20T16:37:00Z</time></trkpt><trkpt lat="39.2676787142438" lon="9.166877868874717"><ele>17.0</ele><time>2026-04-20T16:37:02Z</time></trkpt><trkpt lat="39.26757069056963" lon="9.16690596293299"><ele>17.0</ele><time>2026-04-20T16:37:04Z</time></trkpt><trkpt lat="39.26746154636472" lon="9.166935457919065"><ele>17.0</ele><time>2026-04-20T16:37:06Z</time></trkpt><trkpt lat="39.267351754978655" lon="9.166965839342485"><ele>17.0</ele><time>2026-04-20T16:37:08Z</time></trkpt><trkpt lat="39.267243603979146" lon="9.166995766836823"><ele>17.0</ele><time>2026-04-20T16:37:10Z</time></trkpt><trkpt lat="39.26714063843172" lon="9.16702376800593"><ele>17.2</ele><time>2026-04-20T16:37:12Z</time></trkpt><trkpt lat="39.26703443666108" lon="9.167047811184478"><ele>17.4</ele><time>2026-04-20T16:37:14Z</time></trkpt><trkpt lat="39.26693140329542" lon="9.167069473097733"><ele>17.6</ele><time>2026-04-20T16:37:16Z</time></trkpt><trkpt lat="39.2668269083589" lon="9.167109333939747"><ele>17.8</ele><time>2026-04-20T16:37:18Z</time></trkpt><trkpt lat="39.26671888285122" lon="9.16713086503815"><ele>18.0</ele><time>2026-04-20T16:37:20Z</time></trkpt><trkpt lat="39.26660617118577" lon="9.167127414738514"><ele>18.0</ele><time>2026-04-20T16:37:22Z</time></trkpt><trkpt lat="39.2664982727274" lon="9.167143712658374"><ele>18.0</ele><time>2026-04-20T16:37:24Z</time></trkpt><trkpt lat="39.26639540727199" lon="9.167164445811835"><ele>18.0</ele><time>2026-04-20T16:37:26Z</time></trkpt><trkpt lat="39.2662970570964" lon="9.167183473258222"><ele>18.0</ele><time>2026-04-20T16:37:28Z</time></trkpt><trkpt lat="39.266208575790756" lon="9.167198462724006"><ele>18.0</ele><time>2026-04-20T16:37:30Z</time></trkpt><trkpt lat="39.2661229432554" lon="9.1672120960038"><ele>17.5</ele><time>2026-04-20T16:37:32Z</time></trkpt><trkpt lat="39.266042589862195" lon="9.167226479642771"><ele>17.0</ele><time>2026-04-20T16:37:34Z</time></trkpt><trkpt lat="39.26597310710881" lon="9.167239818188799"><ele>16.5</ele><time>2026-04-20T16:37:36Z</time></trkpt><trkpt lat="39.26590015593433" lon="9.167253822514581"><ele>16.0</ele><time>2026-04-20T16:37:38Z</time></trkpt><trkpt lat="39.26582987076287" lon="9.167279737316216"><ele>15.5</ele><time>2026-04-20T16:37:41Z</time></trkpt><trkpt lat="39.26586434941275" lon="9.167108263568366"><ele>15.0</ele><time>2026-04-20T16:37:44Z</time></trkpt><trkpt lat="39.26587754218638" lon="9.1670169563535"><ele>15.0</ele><time>2026-04-20T16:37:46Z</time></trkpt><trkpt lat="39.265874386950316" lon="9.166910655529719"><ele>15.0</ele><time>2026-04-20T16:37:48Z</time></trkpt><trkpt lat="39.26588945261007" lon="9.166795703460977"><ele>15.0</ele><time>2026-04-20T16:37:50Z</time></trkpt><trkpt lat="39.2659052560058" lon="9.166694133321998"><ele>15.0</ele><time>2026-04-20T16:37:52Z</time></trkpt><trkpt lat="39.26592771348517" lon="9.166592008369886"><ele>15.0</ele><time>2026-04-20T16:37:54Z</time></trkpt><trkpt lat="39.265944070666" lon="9.166481934124462"><ele>15.0</ele><time>2026-04-20T16:37:56Z</time></trkpt><trkpt lat="39.2659875227659" lon="9.166388607441997"><ele>15.333333333333334</ele><time>2026-04-20T16:37:58Z</time></trkpt><trkpt lat="39.266046386482685" lon="9.166310860612532"><ele>15.666666666666668</ele><time>2026-04-20T16:38:00Z</time></trkpt><trkpt lat="39.26606696672093" lon="9.166186520301546"><ele>16.0</ele><time>2026-04-20T16:38:02Z</time></trkpt><trkpt lat="39.26606779344651" lon="9.166073143329545"><ele>16.333333333333336</ele><time>2026-04-20T16:38:04Z</time></trkpt><trkpt lat="39.26607103308485" lon="9.16593497475089"><ele>16.666666666666668</ele><time>2026-04-20T16:38:07Z</time></trkpt><trkpt lat="39.26605490860518" lon="9.16584754413721"><ele>17.0</ele><time>2026-04-20T16:38:08Z</time></trkpt><trkpt lat="39.265992986384326" lon="9.165760188390779"><ele>17.0</ele><time>2026-04-20T16:38:10Z</time></trkpt><trkpt lat="39.26592778363576" lon="9.165693286513344"><ele>17.0</ele><time>2026-04-20T16:38:12Z</time></trkpt><trkpt lat="39.265857450918894" lon="9.165655450483316"><ele>17.0</ele><time>2026-04-20T16:38:15Z</time></trkpt><trkpt lat="39.26579166034435" lon="9.165637180157901"><ele>17.0</ele><time>2026-04-20T16:38:17Z</time></trkpt><trkpt lat="39.26571530483759" lon="9.165611516517403"><ele>17.0</ele><time>2026-04-20T16:38:19Z</time></trkpt><trkpt lat="39.26564373049644" lon="9.165589576860514"><ele>17.0</ele><time>2026-04-20T16:38:21Z</time></trkpt><trkpt lat="39.26556266378535" lon="9.165577848875008"><ele>16.833333333333336</ele><time>2026-04-20T16:38:23Z</time></trkpt><trkpt lat="39.26547592631992" lon="9.165539859290664"><ele>16.666666666666668</ele><time>2026-04-20T16:38:25Z</time></trkpt><trkpt lat="39.265417175326505" lon="9.165503416643274"><ele>16.5</ele><time>2026-04-20T16:38:27Z</time></trkpt><trkpt lat="39.26539346902969" lon="9.165424035584735"><ele>16.333333333333332</ele><time>2026-04-20T16:38:29Z</time></trkpt><trkpt lat="39.265317779569116" lon="9.165370213854624"><ele>16.166666666666664</ele><time>2026-04-20T16:38:32Z</time></trkpt><trkpt lat="39.265259683818755" lon="9.1653372417773"><ele>16.0</ele><time>2026-04-20T16:38:34Z</time></trkpt><trkpt lat="39.26512434067194" lon="9.165313961491984"><ele>16.0</ele><time>2026-04-20T16:38:35Z</time></trkpt><trkpt lat="39.265069182906466" lon="9.165367950095638"><ele>15.999999999999998</ele><time>2026-04-20T16:38:36Z</time></trkpt><trkpt lat="39.26502774573646" lon="9.165440917712132"><ele>16.0</ele><time>2026-04-20T16:38:38Z</time></trkpt><trkpt lat="39.264958675850984" lon="9.165450704594086"><ele>16.0</ele><time>2026-04-20T16:38:41Z</time></trkpt><trkpt lat="39.264880200392575" lon="9.165405813842359"><ele>15.999999999999998</ele><time>2026-04-20T16:38:44Z</time></trkpt><trkpt lat="39.264802097669325" lon="9.165402779319908"><ele>16.0</ele><time>2026-04-20T16:38:47Z</time></trkpt><trkpt lat="39.264742389651666" lon="9.165440409607577"><ele>16.0</ele><time>2026-04-20T16:39:27Z</time></trkpt><trkpt lat="39.26467123234482" lon="9.165416512239073"><ele>16.0</ele><time>2026-04-20T16:39:31Z</time></trkpt><trkpt lat="39.26458953440672" lon="9.165379142200738"><ele>15.999999999999998</ele><time>2026-04-20T16:39:34Z</time></trkpt><trkpt lat="39.26452534097445" lon="9.16536973796997"><ele>16.0</ele><time>2026-04-20T16:39:36Z</time></trkpt><trkpt lat="39.26446224174946" lon="9.165355546361829"><ele>16.0</ele><time>2026-04-20T16:39:38Z</time></trkpt><trkpt lat="39.26439529463318" lon="9.165341261426242"><ele>15.999999999999998</ele><time>2026-04-20T16:39:40Z</time></trkpt><trkpt lat="39.26431909749211" lon="9.165326323111206"><ele>16.0</ele><time>2026-04-20T16:39:42Z</time></trkpt><trkpt lat="39.264252081851765" lon="9.165294692441863"><ele>16.0</ele><time>2026-04-20T16:39:44Z</time></trkpt><trkpt lat="39.264181148951415" lon="9.165271006939218"><ele>16.0</ele><time>2026-04-20T16:39:46Z</time></trkpt><trkpt lat="39.26411671235377" lon="9.165265350085203"><ele>15.999999999999998</ele><time>2026-04-20T16:39:48Z</time></trkpt><trkpt lat="39.26405730987042" lon="9.165217996708792"><ele>16.0</ele><time>2026-04-20T16:39:50Z</time></trkpt><trkpt lat="39.263990272868014" lon="9.165202464361768"><ele>16.0</ele><time>2026-04-20T16:39:52Z</time></trkpt><trkpt lat="39.263920881009675" lon="9.165190225799739"><ele>15.999999999999998</ele><time>2026-04-20T16:39:54Z</time></trkpt><trkpt lat="39.263857871090416" lon="9.165187805290731"><ele>16.0</ele><time>2026-04-20T16:39:56Z</time></trkpt><trkpt lat="39.26380059788065" lon="9.165153190607207"><ele>16.0</ele><time>2026-04-20T16:39:58Z</time></trkpt><trkpt lat="39.263728633383046" lon="9.165126241276132"><ele>15.833333333333332</ele><time>2026-04-20T16:40:01Z</time></trkpt><trkpt lat="39.263640038273756" lon="9.165124167512896"><ele>15.666666666666666</ele><time>2026-04-20T16:40:04Z</time></trkpt><trkpt lat="39.263576632911374" lon="9.1651203056168"><ele>15.5</ele><time>2026-04-20T16:40:07Z</time></trkpt><trkpt lat="39.263511207936034" lon="9.165112892724164"><ele>15.333333333333332</ele><time>2026-04-20T16:40:08Z</time></trkpt><trkpt lat="39.26343159260788" lon="9.165080563932952"><ele>15.166666666666666</ele><time>2026-04-20T16:40:10Z</time></trkpt><trkpt lat="39.26336189273703" lon="9.165051878687681"><ele>15.0</ele><time>2026-04-20T16:40:12Z</time></trkpt><trkpt lat="39.26329122826718" lon="9.165014679115053"><ele>15.0</ele><time>2026-04-20T16:40:14Z</time></trkpt><trkpt lat="39.263216624609036" lon="9.164962702996045"><ele>15.0</ele><time>2026-04-20T16:40:16Z</time></trkpt><trkpt lat="39.26313796747244" lon="9.164909208215503"><ele>15.0</ele><time>2026-04-20T16:40:18Z</time></trkpt><trkpt lat="39.263058218127085" lon="9.164846576818649"><ele>15.0</ele><time>2026-04-20T16:40:20Z</time></trkpt><trkpt lat="39.26298345491599" lon="9.164801481989056"><ele>15.0</ele><time>2026-04-20T16:40:22Z</time></trkpt><trkpt lat="39.26291199907229" lon="9.164744571264695"><ele>15.0</ele><time>2026-04-20T16:40:24Z</time></trkpt><trkpt lat="39.26284161915668" lon="9.164681948788987"><ele>14.666666666666666</ele><time>2026-04-20T16:40:26Z</time></trkpt><trkpt lat="39.26276426455532" lon="9.164620719480062"><ele>14.333333333333332</ele><time>2026-04-20T16:40:28Z</time></trkpt><trkpt lat="39.26269271695969" lon="9.164561335274946"><ele>14.0</ele><time>2026-04-20T16:40:30Z</time></trkpt><trkpt lat="39.262633971877236" lon="9.164507369277647"><ele>13.666666666666666</ele><time>2026-04-20T16:40:32Z</time></trkpt><trkpt lat="39.262567982623644" lon="9.164431335481419"><ele>13.333333333333332</ele><time>2026-04-20T16:40:34Z</time></trkpt><trkpt lat="39.26250569205058" lon="9.164370198373707"><ele>13.0</ele><time>2026-04-20T16:40:36Z</time></trkpt><trkpt lat="39.262435042683656" lon="9.164307924977999"><ele>12.999999999999998</ele><time>2026-04-20T16:40:38Z</time></trkpt><trkpt lat="39.26236655362097" lon="9.164239468819"><ele>13.0</ele><time>2026-04-20T16:40:40Z</time></trkpt><trkpt lat="39.262304397291665" lon="9.164168572043867"><ele>13.0</ele><time>2026-04-20T16:40:42Z</time></trkpt><trkpt lat="39.26223964156652" lon="9.164100452405636"><ele>13.0</ele><time>2026-04-20T16:40:44Z</time></trkpt><trkpt lat="39.262163600216546" lon="9.164040833778847"><ele>12.999999999999998</ele><time>2026-04-20T16:40:46Z</time></trkpt><trkpt lat="39.26208979208611" lon="9.163978632212322"><ele>13.0</ele><time>2026-04-20T16:40:48Z</time></trkpt><trkpt lat="39.26202387837722" lon="9.163899115247009"><ele>12.833333333333332</ele><time>2026-04-20T16:40:50Z</time></trkpt><trkpt lat="39.26195582347712" lon="9.163833580160219"><ele>12.666666666666666</ele><time>2026-04-20T16:40:52Z</time></trkpt><trkpt lat="39.261892439604345" lon="9.163769007104385"><ele>12.5</ele><time>2026-04-20T16:40:54Z</time></trkpt><trkpt lat="39.261829334363995" lon="9.163705420653798"><ele>12.333333333333332</ele><time>2026-04-20T16:40:56Z</time></trkpt><trkpt lat="39.261764900959776" lon="9.163652309789773"><ele>12.166666666666666</ele><time>2026-04-20T16:40:58Z</time></trkpt><trkpt lat="39.26170701964988" lon="9.16358039394812"><ele>12.0</ele><time>2026-04-20T16:41:00Z</time></trkpt><trkpt lat="39.2616468808743" lon="9.163524046836224"><ele>12.0</ele><time>2026-04-20T16:41:02Z</time></trkpt><trkpt lat="39.26157499178107" lon="9.163470687380501"><ele>12.0</ele><time>2026-04-20T16:41:04Z</time></trkpt><trkpt lat="39.261512663936344" lon="9.163412558418292"><ele>12.0</ele><time>2026-04-20T16:41:06Z</time></trkpt><trkpt lat="39.2614444628561" lon="9.163374652356774"><ele>12.0</ele><time>2026-04-20T16:41:08Z</time></trkpt><trkpt lat="39.26137681280509" lon="9.163350198863306"><ele>12.0</ele><time>2026-04-20T16:41:10Z</time></trkpt><trkpt lat="39.261312929303685" lon="9.1633013443408"><ele>12.0</ele><time>2026-04-20T16:41:12Z</time></trkpt><trkpt lat="39.26124095502504" lon="9.16326305705685"><ele>11.999999999999998</ele><time>2026-04-20T16:41:14Z</time></trkpt><trkpt lat="39.26118081068095" lon="9.163228621216852"><ele>12.0</ele><time>2026-04-20T16:41:16Z</time></trkpt><trkpt lat="39.261108559991804" lon="9.163207622693593"><ele>12.0</ele><time>2026-04-20T16:41:18Z</time></trkpt><trkpt lat="39.261042634112115" lon="9.163181913325547"><ele>12.0</ele><time>2026-04-20T16:41:20Z</time></trkpt><trkpt lat="39.2609648094816" lon="9.163145913506803"><ele>12.0</ele><time>2026-04-20T16:41:22Z</time></trkpt><trkpt lat="39.26090282895846" lon="9.163128169202345"><ele>11.999999999999998</ele><time>2026-04-20T16:41:24Z</time></trkpt><trkpt lat="39.26082727423342" lon="9.163101323689915"><ele>12.0</ele><time>2026-04-20T16:41:27Z</time></trkpt><trkpt lat="39.26073951214175" lon="9.163081203203149"><ele>12.0</ele><time>2026-04-20T16:41:30Z</time></trkpt><trkpt lat="39.260641783336936" lon="9.163046657265244"><ele>12.0</ele><time>2026-04-20T16:41:33Z</time></trkpt><trkpt lat="39.260575736405116" lon="9.163025931564277"><ele>12.0</ele><time>2026-04-20T16:41:35Z</time></trkpt><trkpt lat="39.260508897540895" lon="9.163009496008943"><ele>12.0</ele><time>2026-04-20T16:41:37Z</time></trkpt><trkpt lat="39.260424705771825" lon="9.162987230512538"><ele>12.0</ele><time>2026-04-20T16:41:40Z</time></trkpt><trkpt lat="39.26033574362306" lon="9.162961445596201"><ele>12.0</ele><time>2026-04-20T16:41:43Z</time></trkpt><trkpt lat="39.26025441898524" lon="9.162937675413245"><ele>12.142857142857142</ele><time>2026-04-20T16:41:46Z</time></trkpt><trkpt lat="39.26017349995418" lon="9.162909199930908"><ele>12.285714285714285</ele><time>2026-04-20T16:41:49Z</time></trkpt><trkpt lat="39.260110571570074" lon="9.162884290053807"><ele>12.428571428571427</ele><time>2026-04-20T16:41:51Z</time></trkpt><trkpt lat="39.26004619001062" lon="9.162863110596502"><ele>12.571428571428571</ele><time>2026-04-20T16:41:53Z</time></trkpt><trkpt lat="39.25995252806044" lon="9.162845522289762"><ele>12.714285714285715</ele><time>2026-04-20T16:41:56Z</time></trkpt><trkpt lat="39.25988255841287" lon="9.162826912563684"><ele>12.857142857142856</ele><time>2026-04-20T16:41:59Z</time></trkpt><trkpt lat="39.25983878968183" lon="9.162762741914944"><ele>13.0</ele><time>2026-04-20T16:42:03Z</time></trkpt><trkpt lat="39.25985956539153" lon="9.162681152260651"><ele>12.999999999999998</ele><time>2026-04-20T16:42:05Z</time></trkpt><trkpt lat="39.259884232269826" lon="9.162600372031019"><ele>13.0</ele><time>2026-04-20T16:42:07Z</time></trkpt><trkpt lat="39.259914564271845" lon="9.162493973227214"><ele>13.0</ele><time>2026-04-20T16:42:09Z</time></trkpt><trkpt lat="39.25997536595512" lon="9.162412666637778"><ele>13.0</ele><time>2026-04-20T16:42:11Z</time></trkpt><trkpt lat="39.26003532247368" lon="9.162323966390279"><ele>12.999999999999998</ele><time>2026-04-20T16:42:13Z</time></trkpt><trkpt lat="39.26009554392084" lon="9.162234321399623"><ele>13.0</ele><time>2026-04-20T16:42:15Z</time></trkpt><trkpt lat="39.26017174263306" lon="9.162145083512158"><ele>13.0</ele><time>2026-04-20T16:42:18Z</time></trkpt><trkpt lat="39.26023225724572" lon="9.162082041998021"><ele>13.0</ele><time>2026-04-20T16:42:21Z</time></trkpt><trkpt lat="39.2602752514099" lon="9.162022055257074"><ele>13.0</ele><time>2026-04-20T16:42:23Z</time></trkpt><trkpt lat="39.26036386690052" lon="9.161890047549166"><ele>13.0</ele><time>2026-04-20T16:42:25Z</time></trkpt><trkpt lat="39.26044105315366" lon="9.161787798227547"><ele>13.0</ele><time>2026-04-20T16:42:27Z</time></trkpt><trkpt lat="39.2605095661813" lon="9.161686653544486"><ele>13.0</ele><time>2026-04-20T16:42:29Z</time></trkpt><trkpt lat="39.260573112999914" lon="9.161580079788614"><ele>13.0</ele><time>2026-04-20T16:42:31Z</time></trkpt><trkpt lat="39.26066156959058" lon="9.161487076812746"><ele>13.0</ele><time>2026-04-20T16:42:33Z</time></trkpt><trkpt lat="39.26073795738275" lon="9.161386308924326"><ele>13.0</ele><time>2026-04-20T16:42:35Z</time></trkpt><trkpt lat="39.26081493853573" lon="9.161279596164091"><ele>13.0</ele><time>2026-04-20T16:42:37Z</time></trkpt><trkpt lat="39.2608909941356" lon="9.161174520907467"><ele>13.0</ele><time>2026-04-20T16:42:39Z</time></trkpt><trkpt lat="39.260964586214904" lon="9.161072604712794"><ele>13.0</ele><time>2026-04-20T16:42:41Z</time></trkpt><trkpt lat="39.26103348947654" lon="9.160972266570583"><ele>13.0</ele><time>2026-04-20T16:42:43Z</time></trkpt><trkpt lat="39.261113224020306" lon="9.160868760731422"><ele>13.0</ele><time>2026-04-20T16:42:45Z</time></trkpt><trkpt lat="39.26119056652072" lon="9.160767228200356"><ele>13.0</ele><time>2026-04-20T16:42:47Z</time></trkpt><trkpt lat="39.26126525193898" lon="9.160676232786605"><ele>12.833333333333332</ele><time>2026-04-20T16:42:49Z</time></trkpt><trkpt lat="39.26132490674603" lon="9.160606975064814"><ele>12.666666666666666</ele><time>2026-04-20T16:42:51Z</time></trkpt><trkpt lat="39.261399088495395" lon="9.160543951591558"><ele>12.5</ele><time>2026-04-20T16:42:54Z</time></trkpt><trkpt lat="39.261370184990916" lon="9.160470089238022"><ele>12.333333333333332</ele><time>2026-04-20T16:42:56Z</time></trkpt><trkpt lat="39.26129966717818" lon="9.160410524726638"><ele>12.166666666666666</ele><time>2026-04-20T16:42:58Z</time></trkpt><trkpt lat="39.261242429407304" lon="9.16032069778312"><ele>12.0</ele><time>2026-04-20T16:43:00Z</time></trkpt><trkpt lat="39.261192612801594" lon="9.160242755358851"><ele>12.0</ele><time>2026-04-20T16:43:02Z</time></trkpt><trkpt lat="39.261145546708796" lon="9.160163864677491"><ele>12.0</ele><time>2026-04-20T16:43:04Z</time></trkpt><trkpt lat="39.26108348125851" lon="9.1600965872884"><ele>12.0</ele><time>2026-04-20T16:43:06Z</time></trkpt><trkpt lat="39.26100958864229" lon="9.160028676718287"><ele>12.0</ele><time>2026-04-20T16:43:08Z</time></trkpt><trkpt lat="39.26094546928753" lon="9.159962080205926"><ele>12.0</ele><time>2026-04-20T16:43:10Z</time></trkpt><trkpt lat="39.26088066745419" lon="9.159907669604053"><ele>12.0</ele><time>2026-04-20T16:43:12Z</time></trkpt><trkpt lat="39.26080976180123" lon="9.159833701758073"><ele>11.833333333333334</ele><time>2026-04-20T16:43:14Z</time></trkpt><trkpt lat="39.26074797039235" lon="9.159767216815995"><ele>11.666666666666666</ele><time>2026-04-20T16:43:16Z</time></trkpt><trkpt lat="39.260671805069286" lon="9.159698061477723"><ele>11.5</ele><time>2026-04-20T16:43:18Z</time></trkpt><trkpt lat="39.26061097672665" lon="9.159626917867286"><ele>11.333333333333332</ele><time>2026-04-20T16:43:20Z</time></trkpt><trkpt lat="39.26054152959114" lon="9.15955716319759"><ele>11.166666666666666</ele><time>2026-04-20T16:43:22Z</time></trkpt><trkpt lat="39.260466892034486" lon="9.15949159546417"><ele>11.0</ele><time>2026-04-20T16:43:24Z</time></trkpt><trkpt lat="39.26039491109161" lon="9.159423601756988"><ele>11.0</ele><time>2026-04-20T16:43:26Z</time></trkpt><trkpt lat="39.260337573354214" lon="9.159366531775301"><ele>11.0</ele><time>2026-04-20T16:43:28Z</time></trkpt><trkpt lat="39.26027549785083" lon="9.15930586098968"><ele>11.0</ele><time>2026-04-20T16:43:30Z</time></trkpt><trkpt lat="39.260205218731144" lon="9.159232893916299"><ele>11.0</ele><time>2026-04-20T16:43:32Z</time></trkpt><trkpt lat="39.26014216595966" lon="9.159165121357665"><ele>11.0</ele><time>2026-04-20T16:43:34Z</time></trkpt><trkpt lat="39.26006991207756" lon="9.159118534984252"><ele>11.0</ele><time>2026-04-20T16:43:36Z</time></trkpt><trkpt lat="39.2599997268367" lon="9.15904334460327"><ele>11.0</ele><time>2026-04-20T16:43:38Z</time></trkpt><trkpt lat="39.25992657265548" lon="9.158972109761654"><ele>11.0</ele><time>2026-04-20T16:43:40Z</time></trkpt><trkpt lat="39.259850880912786" lon="9.158904845978382"><ele>11.0</ele><time>2026-04-20T16:43:42Z</time></trkpt><trkpt lat="39.25979286392632" lon="9.158830070710971"><ele>11.0</ele><time>2026-04-20T16:43:44Z</time></trkpt><trkpt lat="39.25972288552698" lon="9.158759594767174"><ele>11.0</ele><time>2026-04-20T16:43:46Z</time></trkpt><trkpt lat="39.25964419775678" lon="9.158694763164752"><ele>11.0</ele><time>2026-04-20T16:43:48Z</time></trkpt><trkpt lat="39.25958385094476" lon="9.158626685688954"><ele>11.0</ele><time>2026-04-20T16:43:50Z</time></trkpt><trkpt lat="39.259513394853755" lon="9.158562650725738"><ele>11.0</ele><time>2026-04-20T16:43:52Z</time></trkpt><trkpt lat="39.25943725623424" lon="9.158490868105378"><ele>11.0</ele><time>2026-04-20T16:43:54Z</time></trkpt><trkpt lat="39.25938105702859" lon="9.15842991566443"><ele>11.0</ele><time>2026-04-20T16:43:56Z</time></trkpt><trkpt lat="39.25932832830417" lon="9.158331968437658"><ele>11.0</ele><time>2026-04-20T16:43:58Z</time></trkpt><trkpt lat="39.259277114065284" lon="9.158233486593117"><ele>11.0</ele><time>2026-04-20T16:44:00Z</time></trkpt><trkpt lat="39.259240351126515" lon="9.15812570311511"><ele>10.8</ele><time>2026-04-20T16:44:02Z</time></trkpt><trkpt lat="39.25920421106015" lon="9.158027423139826"><ele>10.600000000000001</ele><time>2026-04-20T16:44:04Z</time></trkpt><trkpt lat="39.2591626357835" lon="9.157929609611614"><ele>10.4</ele><time>2026-04-20T16:44:06Z</time></trkpt><trkpt lat="39.25910905069357" lon="9.15782354851196"><ele>10.2</ele><time>2026-04-20T16:44:08Z</time></trkpt><trkpt lat="39.259062030006014" lon="9.15771599891427"><ele>10.0</ele><time>2026-04-20T16:44:10Z</time></trkpt><trkpt lat="39.25901014295557" lon="9.157610815128216"><ele>10.0</ele><time>2026-04-20T16:44:12Z</time></trkpt><trkpt lat="39.25896027297442" lon="9.157505261920882"><ele>10.0</ele><time>2026-04-20T16:44:14Z</time></trkpt><trkpt lat="39.258914079075005" lon="9.15739802875139"><ele>10.0</ele><time>2026-04-20T16:44:16Z</time></trkpt><trkpt lat="39.25886920762458" lon="9.157287724380552"><ele>10.0</ele><time>2026-04-20T16:44:18Z</time></trkpt><trkpt lat="39.258810377866354" lon="9.15719610371111"><ele>10.0</ele><time>2026-04-20T16:44:20Z</time></trkpt><trkpt lat="39.258781653963126" lon="9.157084802998368"><ele>9.8</ele><time>2026-04-20T16:44:22Z</time></trkpt><trkpt lat="39.25872989005262" lon="9.1569835200727"><ele>9.6</ele><time>2026-04-20T16:44:24Z</time></trkpt><trkpt lat="39.25867529314103" lon="9.156881516530323"><ele>9.4</ele><time>2026-04-20T16:44:26Z</time></trkpt><trkpt lat="39.25863271148159" lon="9.15677005136815"><ele>9.2</ele><time>2026-04-20T16:44:28Z</time></trkpt><trkpt lat="39.2585728800673" lon="9.156665629407488"><ele>9.0</ele><time>2026-04-20T16:44:30Z</time></trkpt><trkpt lat="39.25851597113465" lon="9.156555362345895"><ele>8.8</ele><time>2026-04-20T16:44:32Z</time></trkpt><trkpt lat="39.258468098102334" lon="9.156446632709764"><ele>8.600000000000001</ele><time>2026-04-20T16:44:34Z</time></trkpt><trkpt lat="39.25841194889657" lon="9.156340622260256"><ele>8.4</ele><time>2026-04-20T16:44:36Z</time></trkpt><trkpt lat="39.2583567989098" lon="9.156235174613343"><ele>8.200000000000001</ele><time>2026-04-20T16:44:38Z</time></trkpt><trkpt lat="39.258314429695545" lon="9.15612512537283"><ele>8.0</ele><time>2026-04-20T16:44:40Z</time></trkpt><trkpt lat="39.2582460412563" lon="9.156025124671688"><ele>7.999999999999999</ele><time>2026-04-20T16:44:42Z</time></trkpt><trkpt lat="39.25822523026169" lon="9.15594107231609"><ele>8.0</ele><time>2026-04-20T16:44:43Z</time></trkpt><trkpt lat="39.25817373293835" lon="9.155830720231009"><ele>8.0</ele><time>2026-04-20T16:44:45Z</time></trkpt><trkpt lat="39.25810649125516" lon="9.155737501317967"><ele>8.0</ele><time>2026-04-20T16:44:47Z</time></trkpt><trkpt lat="39.258059489168886" lon="9.15563583045452"><ele>7.999999999999999</ele><time>2026-04-20T16:44:49Z</time></trkpt><trkpt lat="39.25801749738276" lon="9.155544997291369"><ele>8.0</ele><time>2026-04-20T16:44:51Z</time></trkpt><trkpt lat="39.257965771447196" lon="9.155433108200233"><ele>7.999999999999999</ele><time>2026-04-20T16:44:53Z</time></trkpt><trkpt lat="39.25792155009661" lon="9.155337452389597"><ele>8.0</ele><time>2026-04-20T16:44:55Z</time></trkpt><trkpt lat="39.25788240963052" lon="9.155252787047784"><ele>8.0</ele><time>2026-04-20T16:44:57Z</time></trkpt><trkpt lat="39.25795889427681" lon="9.15511530832473"><ele>8.0</ele><time>2026-04-20T16:45:00Z</time></trkpt><trkpt lat="39.25801281631058" lon="9.155054324435172"><ele>7.999999999999999</ele><time>2026-04-20T16:45:02Z</time></trkpt><trkpt lat="39.25806379613303" lon="9.154988989989189"><ele>8.0</ele><time>2026-04-20T16:45:04Z</time></trkpt><trkpt lat="39.25812729600637" lon="9.154897951199066"><ele>7.999999999999999</ele><time>2026-04-20T16:45:06Z</time></trkpt><trkpt lat="39.258171864658365" lon="9.154815278275604"><ele>8.0</ele><time>2026-04-20T16:45:08Z</time></trkpt><trkpt lat="39.258211402923905" lon="9.154728676611189"><ele>8.0</ele><time>2026-04-20T16:45:10Z</time></trkpt><trkpt lat="39.258241632817814" lon="9.154636748849027"><ele>8.0</ele><time>2026-04-20T16:45:12Z</time></trkpt><trkpt lat="39.25830076415668" lon="9.154557172553412"><ele>7.999999999999999</ele><time>2026-04-20T16:45:14Z</time></trkpt><trkpt lat="39.25831648281533" lon="9.15445137813323"><ele>8.0</ele><time>2026-04-20T16:45:16Z</time></trkpt><trkpt lat="39.25834438847449" lon="9.154353696563266"><ele>7.999999999999999</ele><time>2026-04-20T16:45:18Z</time></trkpt><trkpt lat="39.25837416689161" lon="9.15424571777846"><ele>8.0</ele><time>2026-04-20T16:45:20Z</time></trkpt><trkpt lat="39.258394719029845" lon="9.154137898926368"><ele>8.0</ele><time>2026-04-20T16:45:22Z</time></trkpt><trkpt lat="39.25842245249405" lon="9.154033184389533"><ele>8.0</ele><time>2026-04-20T16:45:24Z</time></trkpt><trkpt lat="39.258441332816595" lon="9.153913507039888"><ele>7.999999999999999</ele><time>2026-04-20T16:45:26Z</time></trkpt><trkpt lat="39.25846552596323" lon="9.153810358259843"><ele>8.0</ele><time>2026-04-20T16:45:28Z</time></trkpt><trkpt lat="39.2584870478422" lon="9.153707684546923"><ele>8.5</ele><time>2026-04-20T16:45:30Z</time></trkpt><trkpt lat="39.25850560404341" lon="9.153590815813601"><ele>9.0</ele><time>2026-04-20T16:45:32Z</time></trkpt><trkpt lat="39.258521661874816" lon="9.15349257878606"><ele>9.5</ele><time>2026-04-20T16:45:34Z</time></trkpt><trkpt lat="39.25855640873647" lon="9.15340022978291"><ele>10.0</ele><time>2026-04-20T16:45:36Z</time></trkpt><trkpt lat="39.25858696806505" lon="9.153287928195626"><ele>10.5</ele><time>2026-04-20T16:45:38Z</time></trkpt><trkpt lat="39.258619732337316" lon="9.153179338953757"><ele>11.0</ele><time>2026-04-20T16:45:40Z</time></trkpt><trkpt lat="39.25865111779769" lon="9.153082571159661"><ele>11.333333333333332</ele><time>2026-04-20T16:45:42Z</time></trkpt><trkpt lat="39.25867013897835" lon="9.152968065742765"><ele>11.666666666666666</ele><time>2026-04-20T16:45:44Z</time></trkpt><trkpt lat="39.25868908795779" lon="9.152860474784424"><ele>12.0</ele><time>2026-04-20T16:45:46Z</time></trkpt><trkpt lat="39.25870798379868" lon="9.15274715272958"><ele>12.333333333333332</ele><time>2026-04-20T16:45:48Z</time></trkpt><trkpt lat="39.25873072055503" lon="9.152644553212617"><ele>12.666666666666666</ele><time>2026-04-20T16:45:50Z</time></trkpt><trkpt lat="39.258758406050596" lon="9.152542470025764"><ele>13.0</ele><time>2026-04-20T16:45:52Z</time></trkpt><trkpt lat="39.25877693735586" lon="9.152433076323856"><ele>12.999999999999998</ele><time>2026-04-20T16:45:54Z</time></trkpt><trkpt lat="39.25879939594469" lon="9.152334921574166"><ele>13.0</ele><time>2026-04-20T16:45:56Z</time></trkpt><trkpt lat="39.25882255023602" lon="9.152225517731075"><ele>13.0</ele><time>2026-04-20T16:45:58Z</time></trkpt><trkpt lat="39.25886114805943" lon="9.152128794902856"><ele>13.0</ele><time>2026-04-20T16:46:00Z</time></trkpt><trkpt lat="39.258891675365014" lon="9.152024455894148"><ele>12.999999999999998</ele><time>2026-04-20T16:46:02Z</time></trkpt><trkpt lat="39.25893460532246" lon="9.151942280172108"><ele>13.0</ele><time>2026-04-20T16:46:04Z</time></trkpt><trkpt lat="39.25899587476274" lon="9.151870070552361"><ele>13.166666666666666</ele><time>2026-04-20T16:46:06Z</time></trkpt><trkpt lat="39.259060424185655" lon="9.151809671863473"><ele>13.333333333333332</ele><time>2026-04-20T16:46:08Z</time></trkpt><trkpt lat="39.25912495332939" lon="9.151754393502282"><ele>13.5</ele><time>2026-04-20T16:46:10Z</time></trkpt><trkpt lat="39.25919810447622" lon="9.15170442165355"><ele>13.666666666666668</ele><time>2026-04-20T16:46:12Z</time></trkpt><trkpt lat="39.25927203144408" lon="9.15165032471472"><ele>13.833333333333334</ele><time>2026-04-20T16:46:14Z</time></trkpt><trkpt lat="39.2593396187742" lon="9.151598129889555"><ele>14.0</ele><time>2026-04-20T16:46:16Z</time></trkpt><trkpt lat="39.259398077893756" lon="9.151535710404893"><ele>13.500000000000002</ele><time>2026-04-20T16:46:18Z</time></trkpt><trkpt lat="39.25947256464113" lon="9.151490328444638"><ele>13.0</ele><time>2026-04-20T16:46:20Z</time></trkpt><trkpt lat="39.259544679629514" lon="9.151434764062094"><ele>12.5</ele><time>2026-04-20T16:46:22Z</time></trkpt><trkpt lat="39.259615003636966" lon="9.15136989641977"><ele>12.0</ele><time>2026-04-20T16:46:24Z</time></trkpt><trkpt lat="39.25967953492331" lon="9.1512996750809"><ele>11.5</ele><time>2026-04-20T16:46:26Z</time></trkpt><trkpt lat="39.25973779428052" lon="9.151223363385284"><ele>11.0</ele><time>2026-04-20T16:46:28Z</time></trkpt><trkpt lat="39.259809348365984" lon="9.151188463212232"><ele>10.8</ele><time>2026-04-20T16:46:30Z</time></trkpt><trkpt lat="39.25988720651117" lon="9.15111517290939"><ele>10.600000000000001</ele><time>2026-04-20T16:46:32Z</time></trkpt><trkpt lat="39.25995828795135" lon="9.151054768235996"><ele>10.4</ele><time>2026-04-20T16:46:34Z</time></trkpt><trkpt lat="39.26003342985705" lon="9.150987095424998"><ele>10.2</ele><time>2026-04-20T16:46:36Z</time></trkpt><trkpt lat="39.26010952003376" lon="9.150912063906157"><ele>10.0</ele><time>2026-04-20T16:46:38Z</time></trkpt><trkpt lat="39.260185661161174" lon="9.15084889664367"><ele>10.0</ele><time>2026-04-20T16:46:40Z</time></trkpt><trkpt lat="39.26026199787563" lon="9.15078110544342"><ele>10.0</ele><time>2026-04-20T16:46:42Z</time></trkpt><trkpt lat="39.26033678027886" lon="9.15071601749582"><ele>10.0</ele><time>2026-04-20T16:46:44Z</time></trkpt><trkpt lat="39.26041563714755" lon="9.150646151842837"><ele>10.0</ele><time>2026-04-20T16:46:46Z</time></trkpt><trkpt lat="39.26048478076721" lon="9.150583835946867"><ele>10.0</ele><time>2026-04-20T16:46:48Z</time></trkpt><trkpt lat="39.26055653404657" lon="9.150522824662644"><ele>10.0</ele><time>2026-04-20T16:46:50Z</time></trkpt><trkpt lat="39.26063390263686" lon="9.150474257250263"><ele>11.0</ele><time>2026-04-20T16:46:52Z</time></trkpt><trkpt lat="39.26070919754585" lon="9.15042104712212"><ele>12.0</ele><time>2026-04-20T16:46:54Z</time></trkpt><trkpt lat="39.2607960571088" lon="9.15035091673139"><ele>13.0</ele><time>2026-04-20T16:46:56Z</time></trkpt><trkpt lat="39.26088009576511" lon="9.150279529059397"><ele>14.0</ele><time>2026-04-20T16:46:58Z</time></trkpt><trkpt lat="39.26095945501059" lon="9.150215987526023"><ele>15.0</ele><time>2026-04-20T16:47:00Z</time></trkpt><trkpt lat="39.2610295330122" lon="9.150140616018529"><ele>15.0</ele><time>2026-04-20T16:47:02Z</time></trkpt><trkpt lat="39.26110618483321" lon="9.150068817295457"><ele>15.0</ele><time>2026-04-20T16:47:04Z</time></trkpt><trkpt lat="39.26119752249164" lon="9.150012062340805"><ele>15.0</ele><time>2026-04-20T16:47:06Z</time></trkpt><trkpt lat="39.26127345742784" lon="9.149949679627449"><ele>15.0</ele><time>2026-04-20T16:47:08Z</time></trkpt><trkpt lat="39.26133952840183" lon="9.149868232480351"><ele>15.0</ele><time>2026-04-20T16:47:10Z</time></trkpt><trkpt lat="39.26139990629591" lon="9.149815468944736"><ele>15.0</ele><time>2026-04-20T16:47:12Z</time></trkpt><trkpt lat="39.26147929866476" lon="9.149747530921585"><ele>15.0</ele><time>2026-04-20T16:47:14Z</time></trkpt><trkpt lat="39.26155471621988" lon="9.149699057248393"><ele>15.0</ele><time>2026-04-20T16:47:16Z</time></trkpt><trkpt lat="39.261610564815754" lon="9.149639663393495"><ele>15.0</ele><time>2026-04-20T16:47:18Z</time></trkpt><trkpt lat="39.26166985104414" lon="9.149579006886476"><ele>15.0</ele><time>2026-04-20T16:47:20Z</time></trkpt><trkpt lat="39.2617245681482" lon="9.149535532780561"><ele>15.0</ele><time>2026-04-20T16:47:22Z</time></trkpt><trkpt lat="39.26178066361407" lon="9.149492976860127"><ele>15.0</ele><time>2026-04-20T16:47:24Z</time></trkpt><trkpt lat="39.26183242115463" lon="9.149387869970866"><ele>15.0</ele><time>2026-04-20T16:47:27Z</time></trkpt><trkpt lat="39.26178494398088" lon="9.149284589980775"><ele>15.0</ele><time>2026-04-20T16:47:29Z</time></trkpt><trkpt lat="39.2617195974661" lon="9.149200735424307"><ele>15.0</ele><time>2026-04-20T16:47:31Z</time></trkpt><trkpt lat="39.261678253938854" lon="9.14910775692879"><ele>15.0</ele><time>2026-04-20T16:47:33Z</time></trkpt><trkpt lat="39.26160194317888" lon="9.149042497339304"><ele>14.6</ele><time>2026-04-20T16:47:35Z</time></trkpt><trkpt lat="39.26152233422186" lon="9.148973100647112"><ele>14.2</ele><time>2026-04-20T16:47:37Z</time></trkpt><trkpt lat="39.26145501444336" lon="9.148903847667656"><ele>13.8</ele><time>2026-04-20T16:47:39Z</time></trkpt><trkpt lat="39.26137941035667" lon="9.148853346761628"><ele>13.4</ele><time>2026-04-20T16:47:41Z</time></trkpt><trkpt lat="39.26130700963984" lon="9.148770729177778"><ele>13.0</ele><time>2026-04-20T16:47:43Z</time></trkpt><trkpt lat="39.261223445405754" lon="9.148693535521964"><ele>13.0</ele><time>2026-04-20T16:47:45Z</time></trkpt><trkpt lat="39.26113904826497" lon="9.148616212639782"><ele>13.0</ele><time>2026-04-20T16:47:47Z</time></trkpt><trkpt lat="39.26104641853277" lon="9.148522130608756"><ele>13.0</ele><time>2026-04-20T16:47:49Z</time></trkpt><trkpt lat="39.26094690671531" lon="9.148451913172899"><ele>13.0</ele><time>2026-04-20T16:47:51Z</time></trkpt><trkpt lat="39.260850144841" lon="9.148358856275227"><ele>13.0</ele><time>2026-04-20T16:47:53Z</time></trkpt><trkpt lat="39.26075841302827" lon="9.148270636664368"><ele>13.0</ele><time>2026-04-20T16:47:55Z</time></trkpt><trkpt lat="39.26070337105772" lon="9.148217702275872"><ele>13.0</ele><time>2026-04-20T16:47:56Z</time></trkpt><trkpt lat="39.26065119524415" lon="9.148167524195552"><ele>13.0</ele><time>2026-04-20T16:47:57Z</time></trkpt><trkpt lat="39.26056102404567" lon="9.14806056148799"><ele>13.0</ele><time>2026-04-20T16:47:59Z</time></trkpt><trkpt lat="39.26045803456573" lon="9.147981761470227"><ele>12.600000000000001</ele><time>2026-04-20T16:48:01Z</time></trkpt><trkpt lat="39.26040925687947" lon="9.147930050543046"><ele>12.200000000000001</ele><time>2026-04-20T16:48:02Z</time></trkpt><trkpt lat="39.26031889089892" lon="9.147808047707422"><ele>11.8</ele><time>2026-04-20T16:48:04Z</time></trkpt><trkpt lat="39.260241967749366" lon="9.147700596936147"><ele>11.4</ele><time>2026-04-20T16:48:06Z</time></trkpt><trkpt lat="39.26017308639769" lon="9.14760001509365"><ele>11.0</ele><time>2026-04-20T16:48:08Z</time></trkpt><trkpt lat="39.26010645225114" lon="9.147500001713368"><ele>11.0</ele><time>2026-04-20T16:48:10Z</time></trkpt><trkpt lat="39.2600313844396" lon="9.147416797064643"><ele>11.0</ele><time>2026-04-20T16:48:12Z</time></trkpt><trkpt lat="39.2599728023082" lon="9.14733167008675"><ele>11.0</ele><time>2026-04-20T16:48:14Z</time></trkpt><trkpt lat="39.259912555690576" lon="9.147244125810364"><ele>11.0</ele><time>2026-04-20T16:48:16Z</time></trkpt><trkpt lat="39.259926638013155" lon="9.147159769728258"><ele>11.0</ele><time>2026-04-20T16:48:17Z</time></trkpt><trkpt lat="39.259863096483315" lon="9.14706916254415"><ele>11.0</ele><time>2026-04-20T16:48:19Z</time></trkpt><trkpt lat="39.259806757000035" lon="9.146981982135935"><ele>11.0</ele><time>2026-04-20T16:48:21Z</time></trkpt><trkpt lat="39.25974798254381" lon="9.146894607168944"><ele>11.0</ele><time>2026-04-20T16:48:23Z</time></trkpt><trkpt lat="39.259703055663365" lon="9.146814869021082"><ele>11.0</ele><time>2026-04-20T16:48:25Z</time></trkpt><trkpt lat="39.25966948413722" lon="9.146714215715791"><ele>11.0</ele><time>2026-04-20T16:48:27Z</time></trkpt><trkpt lat="39.25961163337918" lon="9.146623896398172"><ele>11.0</ele><time>2026-04-20T16:48:29Z</time></trkpt><trkpt lat="39.25952510814963" lon="9.146541424547268"><ele>11.0</ele><time>2026-04-20T16:48:31Z</time></trkpt><trkpt lat="39.25947284949988" lon="9.1464516161782"><ele>10.833333333333332</ele><time>2026-04-20T16:48:33Z</time></trkpt><trkpt lat="39.25942939843714" lon="9.146377093478518"><ele>10.666666666666666</ele><time>2026-04-20T16:48:35Z</time></trkpt><trkpt lat="39.2594895166684" lon="9.146289875828382"><ele>10.5</ele><time>2026-04-20T16:48:38Z</time></trkpt><trkpt lat="39.25951450457153" lon="9.146190833322985"><ele>10.333333333333334</ele><time>2026-04-20T16:48:41Z</time></trkpt><trkpt lat="39.25955601464831" lon="9.146126279860544"><ele>10.166666666666668</ele><time>2026-04-20T16:48:44Z</time></trkpt><trkpt lat="39.25954549165411" lon="9.146045504399867"><ele>10.0</ele><time>2026-04-20T16:48:45Z</time></trkpt><trkpt lat="39.25959447613894" lon="9.145942498493035"><ele>10.0</ele><time>2026-04-20T16:48:48Z</time></trkpt><trkpt lat="39.25963316395415" lon="9.14586660624609"><ele>10.0</ele><time>2026-04-20T16:48:51Z</time></trkpt><trkpt lat="39.259690905850896" lon="9.145773049192616"><ele>10.0</ele><time>2026-04-20T16:48:54Z</time></trkpt><trkpt lat="39.259736428138844" lon="9.145713088395503"><ele>10.0</ele><time>2026-04-20T16:48:56Z</time></trkpt><trkpt lat="39.25978795190019" lon="9.145661868654514"><ele>10.0</ele><time>2026-04-20T16:48:58Z</time></trkpt><trkpt lat="39.25987401232984" lon="9.145606209280896"><ele>10.0</ele><time>2026-04-20T16:49:01Z</time></trkpt><trkpt lat="39.2599419048089" lon="9.145538259145209"><ele>10.2</ele><time>2026-04-20T16:49:04Z</time></trkpt><trkpt lat="39.26003314427316" lon="9.145469201804037"><ele>10.4</ele><time>2026-04-20T16:49:07Z</time></trkpt><trkpt lat="39.26009572051241" lon="9.145420394654609"><ele>10.600000000000001</ele><time>2026-04-20T16:49:09Z</time></trkpt><trkpt lat="39.26028696511679" lon="9.145411417604507"><ele>10.8</ele><time>2026-04-20T16:49:15Z</time></trkpt><trkpt lat="39.26035389236402" lon="9.145415583060737"><ele>11.0</ele><time>2026-04-20T16:49:17Z</time></trkpt><trkpt lat="39.260434391118466" lon="9.145401688725515"><ele>11.0</ele><time>2026-04-20T16:49:19Z</time></trkpt><trkpt lat="39.260530837281856" lon="9.145362326078075"><ele>11.0</ele><time>2026-04-20T16:49:22Z</time></trkpt><trkpt lat="39.26064977320037" lon="9.145340045769222"><ele>11.0</ele><time>2026-04-20T16:49:26Z</time></trkpt><trkpt lat="39.26070154908601" lon="9.145292059206664"><ele>11.0</ele><time>2026-04-20T16:49:28Z</time></trkpt><trkpt lat="39.260791989180476" lon="9.145265171084398"><ele>11.0</ele><time>2026-04-20T16:49:30Z</time></trkpt><trkpt lat="39.2608618391193" lon="9.145222004526422"><ele>11.166666666666666</ele><time>2026-04-20T16:49:32Z</time></trkpt><trkpt lat="39.26095851211908" lon="9.145176786003018"><ele>11.333333333333332</ele><time>2026-04-20T16:49:35Z</time></trkpt><trkpt lat="39.26103283626008" lon="9.145124627830796"><ele>11.5</ele><time>2026-04-20T16:49:37Z</time></trkpt><trkpt lat="39.26108666939594" lon="9.145072063745516"><ele>11.666666666666666</ele><time>2026-04-20T16:49:39Z</time></trkpt><trkpt lat="39.26115286910154" lon="9.145016197652726"><ele>11.833333333333334</ele><time>2026-04-20T16:49:42Z</time></trkpt><trkpt lat="39.2612079589912" lon="9.144957754058934"><ele>12.0</ele><time>2026-04-20T16:49:45Z</time></trkpt><trkpt lat="39.26119874819081" lon="9.144869856284144"><ele>12.142857142857142</ele><time>2026-04-20T16:49:48Z</time></trkpt><trkpt lat="39.26113086821839" lon="9.144812389996806"><ele>12.285714285714285</ele><time>2026-04-20T16:49:50Z</time></trkpt><trkpt lat="39.261098121417206" lon="9.14473919186743"><ele>12.428571428571427</ele><time>2026-04-20T16:49:52Z</time></trkpt><trkpt lat="39.261054595109044" lon="9.144675004582883"><ele>12.571428571428571</ele><time>2026-04-20T16:49:54Z</time></trkpt><trkpt lat="39.26101376702204" lon="9.14461085645817"><ele>12.714285714285715</ele><time>2026-04-20T16:49:56Z</time></trkpt><trkpt lat="39.260956905617405" lon="9.144528795630958"><ele>12.857142857142856</ele><time>2026-04-20T16:49:59Z</time></trkpt><trkpt lat="39.260900454827656" lon="9.144444340021465"><ele>13.0</ele><time>2026-04-20T16:50:02Z</time></trkpt><trkpt lat="39.26085272358988" lon="9.144376561191429"><ele>12.999999999999998</ele><time>2026-04-20T16:50:05Z</time></trkpt><trkpt lat="39.26076533571451" lon="9.144428773530642"><ele>13.0</ele><time>2026-04-20T16:51:29Z</time></trkpt><trkpt lat="39.26069836392815" lon="9.144425128766166"><ele>13.0</ele><time>2026-04-20T16:51:35Z</time></trkpt><trkpt lat="39.260620361270256" lon="9.1444492146427"><ele>13.0</ele><time>2026-04-20T16:51:39Z</time></trkpt><trkpt lat="39.26057298675386" lon="9.144520393327129"><ele>12.999999999999998</ele><time>2026-04-20T16:51:47Z</time></trkpt><trkpt lat="39.26052570217013" lon="9.144576860762712"><ele>13.0</ele><time>2026-04-20T16:51:55Z</time></trkpt><trkpt lat="39.26060197340573" lon="9.144562845748327"><ele>12.0</ele><time>2026-04-20T16:52:31Z</time></trkpt><trkpt lat="39.260664487271555" lon="9.144549245952632"><ele>13.0</ele><time>2026-04-20T16:52:36Z</time></trkpt><trkpt lat="39.26074049439229" lon="9.144346648835713"><ele>13.0</ele><time>2026-04-20T16:53:15Z</time></trkpt><trkpt lat="39.26072578415223" lon="9.144466090955905"><ele>13.0</ele><time>2026-04-20T16:53:50Z</time></trkpt></trkseg></trk></gpx>